<?xml version='1.0' encoding='UTF-8'?><gpx version="1.1" creator="JPX - https://github.com/jenetics/jpx" xmlns="http://www.topografix.com/GPX/1/1"><trk><trkseg><trkpt lat="44.21890135392708" lon="12.071228538310864"><ele>20.0</ele><time>2026-03-28T14:28:40Z</time></trkpt><trkpt lat="44.21891446734693" lon="12.071050683982522"><ele>20.0</ele><time>2026-03-28T14:28:42Z</time></trkpt><trkpt lat="44.21896837479051" lon="12.070964161810737"><ele>20.0</ele><time>2026-03-28T14:28:43Z</time></trkpt><trkpt lat="44.219023742993045" lon="12.070852169727903"><ele>20.0</ele><time>2026-03-28T14:28:44Z</time></trkpt><trkpt lat="44.2190880227886" lon="12.070722937446053"><ele>20.0</ele><time>2026-03-28T14:28:45Z</time></trkpt><trkpt lat="44.219157096080735" lon="12.070558296234413"><ele>20.0</ele><time>2026-03-28T14:28:46Z</time></trkpt><trkpt lat="44.219252664487264" lon="12.0702815011364"><ele>20.0</ele><time>2026-03-28T14:28:47Z</time></trkpt><trkpt lat="44.219305396877346" lon="12.070164555969308"><ele>20.0</ele><time>2026-03-28T14:28:48Z</time></trkpt><trkpt lat="44.21932027130947" lon="12.070060154017032"><ele>20.0</ele><time>2026-03-28T14:28:49Z</time></trkpt><trkpt lat="44.219291388649594" lon="12.069978556413352"><ele>20.0</ele><time>2026-03-28T14:28:50Z</time></trkpt><trkpt lat="44.21921679499683" lon="12.06995282718948"><ele>20.0</ele><time>2026-03-28T14:28:52Z</time></trkpt><trkpt lat="44.219099487181424" lon="12.070070583221678"><ele>20.0</ele><time>2026-03-28T14:28:55Z</time></trkpt><trkpt lat="44.21903972921015" lon="12.070185705857316"><ele>20.0</ele><time>2026-03-28T14:28:56Z</time></trkpt><trkpt lat="44.218975611835496" lon="12.070350542733635"><ele>20.0</ele><time>2026-03-28T14:28:57Z</time></trkpt><trkpt lat="44.218898145826365" lon="12.070535032738908"><ele>20.0</ele><time>2026-03-28T14:28:58Z</time></trkpt><trkpt lat="44.218823793164674" lon="12.070714822976228"><ele>20.0</ele><time>2026-03-28T14:28:59Z</time></trkpt><trkpt lat="44.21875037096466" lon="12.070903885766471"><ele>20.0</ele><time>2026-03-28T14:29:00Z</time></trkpt><trkpt lat="44.21867446428765" lon="12.071095375768593"><ele>20.0</ele><time>2026-03-28T14:29:01Z</time></trkpt><trkpt lat="44.218593540754846" lon="12.071287137218768"><ele>20.0</ele><time>2026-03-28T14:29:02Z</time></trkpt><trkpt lat="44.21851457359671" lon="12.071478290740046"><ele>20.0</ele><time>2026-03-28T14:29:03Z</time></trkpt><trkpt lat="44.21843936336088" lon="12.071673656004796"><ele>20.0</ele><time>2026-03-28T14:29:04Z</time></trkpt><trkpt lat="44.218364434704455" lon="12.071871128745359"><ele>20.0</ele><time>2026-03-28T14:29:05Z</time></trkpt><trkpt lat="44.2182905351777" lon="12.072069517767327"><ele>20.0</ele><time>2026-03-28T14:29:06Z</time></trkpt><trkpt lat="44.2182293608774" lon="12.072270834163351"><ele>20.0</ele><time>2026-03-28T14:29:07Z</time></trkpt><trkpt lat="44.218218624007044" lon="12.07246386530314"><ele>20.0</ele><time>2026-03-28T14:29:08Z</time></trkpt><trkpt lat="44.21819942672965" lon="12.07263797805981"><ele>20.0</ele><time>2026-03-28T14:29:09Z</time></trkpt><trkpt lat="44.21827153153542" lon="12.072773847518453"><ele>20.25</ele><time>2026-03-28T14:29:10Z</time></trkpt><trkpt lat="44.218319611554115" lon="12.072909512069762"><ele>20.5</ele><time>2026-03-28T14:29:11Z</time></trkpt><trkpt lat="44.218404484704536" lon="12.073021614789457"><ele>20.75</ele><time>2026-03-28T14:29:12Z</time></trkpt><trkpt lat="44.2185003967366" lon="12.073158675491438"><ele>21.0</ele><time>2026-03-28T14:29:13Z</time></trkpt><trkpt lat="44.21865048986237" lon="12.073264916222772"><ele>20.666666666666668</ele><time>2026-03-28T14:29:14Z</time></trkpt><trkpt lat="44.21881126015233" lon="12.073366375808835"><ele>20.333333333333336</ele><time>2026-03-28T14:29:15Z</time></trkpt><trkpt lat="44.21897392596054" lon="12.073484299399297"><ele>20.0</ele><time>2026-03-28T14:29:16Z</time></trkpt><trkpt lat="44.21913785410561" lon="12.073610431576412"><ele>20.0</ele><time>2026-03-28T14:29:17Z</time></trkpt><trkpt lat="44.21930627883853" lon="12.07373577149291"><ele>20.0</ele><time>2026-03-28T14:29:18Z</time></trkpt><trkpt lat="44.219465513532626" lon="12.073869888311533"><ele>20.0</ele><time>2026-03-28T14:29:19Z</time></trkpt><trkpt lat="44.21964303245434" lon="12.073987595235158"><ele>20.0</ele><time>2026-03-28T14:29:20Z</time></trkpt><trkpt lat="44.219815833998496" lon="12.074105498050242"><ele>20.0</ele><time>2026-03-28T14:29:21Z</time></trkpt><trkpt lat="44.21997639893631" lon="12.074226939178454"><ele>20.0</ele><time>2026-03-28T14:29:22Z</time></trkpt><trkpt lat="44.22013190064425" lon="12.074346404456131"><ele>20.0</ele><time>2026-03-28T14:29:23Z</time></trkpt><trkpt lat="44.22029024098078" lon="12.074468215296703"><ele>20.0</ele><time>2026-03-28T14:29:24Z</time></trkpt><trkpt lat="44.220449414945335" lon="12.074594431938328"><ele>20.0</ele><time>2026-03-28T14:29:25Z</time></trkpt><trkpt lat="44.22060870682573" lon="12.074707972423411"><ele>20.0</ele><time>2026-03-28T14:29:26Z</time></trkpt><trkpt lat="44.22076715959724" lon="12.074821506889615"><ele>20.0</ele><time>2026-03-28T14:29:27Z</time></trkpt><trkpt lat="44.22091661711894" lon="12.074940553100218"><ele>20.0</ele><time>2026-03-28T14:29:28Z</time></trkpt><trkpt lat="44.221064349091826" lon="12.075047994455751"><ele>20.25</ele><time>2026-03-28T14:29:29Z</time></trkpt><trkpt lat="44.22119273339022" lon="12.07515468357463"><ele>20.5</ele><time>2026-03-28T14:29:30Z</time></trkpt><trkpt lat="44.22130517377707" lon="12.075250601889811"><ele>20.75</ele><time>2026-03-28T14:29:31Z</time></trkpt><trkpt lat="44.221403405641304" lon="12.075326798296242"><ele>21.0</ele><time>2026-03-28T14:29:32Z</time></trkpt><trkpt lat="44.22149683589736" lon="12.075419333934487"><ele>21.25</ele><time>2026-03-28T14:29:33Z</time></trkpt><trkpt lat="44.22152834530798" lon="12.075552731172039"><ele>21.5</ele><time>2026-03-28T14:29:34Z</time></trkpt><trkpt lat="44.22152939061817" lon="12.075692787090434"><ele>21.75</ele><time>2026-03-28T14:29:35Z</time></trkpt><trkpt lat="44.22149709576505" lon="12.075843558511698"><ele>22.0</ele><time>2026-03-28T14:29:36Z</time></trkpt><trkpt lat="44.22144402683001" lon="12.076043653373723"><ele>22.0</ele><time>2026-03-28T14:29:37Z</time></trkpt><trkpt lat="44.221384193736014" lon="12.076255159662288"><ele>22.0</ele><time>2026-03-28T14:29:38Z</time></trkpt><trkpt lat="44.22131711741426" lon="12.076468734094913"><ele>22.0</ele><time>2026-03-28T14:29:39Z</time></trkpt><trkpt lat="44.221277033355356" lon="12.076721375102478"><ele>21.666666666666664</ele><time>2026-03-28T14:29:40Z</time></trkpt><trkpt lat="44.2212209355531" lon="12.076959711663944"><ele>21.333333333333332</ele><time>2026-03-28T14:29:41Z</time></trkpt><trkpt lat="44.22115683292569" lon="12.077201363196277"><ele>21.0</ele><time>2026-03-28T14:29:42Z</time></trkpt><trkpt lat="44.221094478489846" lon="12.077439013122063"><ele>21.0</ele><time>2026-03-28T14:29:43Z</time></trkpt><trkpt lat="44.22102821996948" lon="12.0776604055854"><ele>21.0</ele><time>2026-03-28T14:29:44Z</time></trkpt><trkpt lat="44.22097087792619" lon="12.077860571069166"><ele>21.0</ele><time>2026-03-28T14:29:45Z</time></trkpt><trkpt lat="44.22091922025079" lon="12.078048779070297"><ele>21.0</ele><time>2026-03-28T14:29:45.999Z</time></trkpt><trkpt lat="44.220868171769" lon="12.07822796095935"><ele>21.0</ele><time>2026-03-28T14:29:46.999Z</time></trkpt><trkpt lat="44.220827098148966" lon="12.07839723804308"><ele>21.0</ele><time>2026-03-28T14:29:47.999Z</time></trkpt><trkpt lat="44.220781328262355" lon="12.078561486296152"><ele>21.0</ele><time>2026-03-28T14:29:48.999Z</time></trkpt><trkpt lat="44.22073913315526" lon="12.078726094477569"><ele>21.0</ele><time>2026-03-28T14:29:49.999Z</time></trkpt><trkpt lat="44.22069334630596" lon="12.078901041484457"><ele>21.0</ele><time>2026-03-28T14:29:50.999Z</time></trkpt><trkpt lat="44.22064569371397" lon="12.079082209342504"><ele>21.0</ele><time>2026-03-28T14:29:51.999Z</time></trkpt><trkpt lat="44.220592347784496" lon="12.079264457158148"><ele>21.0</ele><time>2026-03-28T14:29:52.999Z</time></trkpt><trkpt lat="44.22054110471957" lon="12.079451766629662"><ele>20.75</ele><time>2026-03-28T14:29:53.999Z</time></trkpt><trkpt lat="44.2204847843321" lon="12.079609449465542"><ele>20.5</ele><time>2026-03-28T14:29:54.999Z</time></trkpt><trkpt lat="44.22041268726863" lon="12.079730236325288"><ele>20.25</ele><time>2026-03-28T14:29:55.999Z</time></trkpt><trkpt lat="44.22035836907401" lon="12.07982896800458"><ele>20.0</ele><time>2026-03-28T14:29:57Z</time></trkpt><trkpt lat="44.22018102387282" lon="12.079830375041475"><ele>20.0</ele><time>2026-03-28T14:29:59Z</time></trkpt><trkpt lat="44.220084531969135" lon="12.079826661018405"><ele>20.0</ele><time>2026-03-28T14:30:00Z</time></trkpt><trkpt lat="44.21998959880341" lon="12.079861768741674"><ele>20.0</ele><time>2026-03-28T14:30:01Z</time></trkpt><trkpt lat="44.219898214555116" lon="12.079929751140206"><ele>20.0</ele><time>2026-03-28T14:30:02Z</time></trkpt><trkpt lat="44.21982221245635" lon="12.080039945848835"><ele>20.0</ele><time>2026-03-28T14:30:03Z</time></trkpt><trkpt lat="44.21980426489587" lon="12.080170334900457"><ele>20.0</ele><time>2026-03-28T14:30:04Z</time></trkpt><trkpt lat="44.21981727527043" lon="12.080314346268558"><ele>20.0</ele><time>2026-03-28T14:30:05Z</time></trkpt><trkpt lat="44.219865133796496" lon="12.080471281589118"><ele>20.0</ele><time>2026-03-28T14:30:06Z</time></trkpt><trkpt lat="44.21994822284269" lon="12.08062861413321"><ele>20.0</ele><time>2026-03-28T14:30:07Z</time></trkpt><trkpt lat="44.22002836624295" lon="12.080690336454772"><ele>20.0</ele><time>2026-03-28T14:30:08Z</time></trkpt><trkpt lat="44.21993058525544" lon="12.080898320349478"><ele>20.0</ele><time>2026-03-28T14:30:09Z</time></trkpt><trkpt lat="44.21987471002728" lon="12.08101924257383"><ele>20.0</ele><time>2026-03-28T14:30:10Z</time></trkpt><trkpt lat="44.21980775925594" lon="12.081166141590163"><ele>20.0</ele><time>2026-03-28T14:30:11Z</time></trkpt><trkpt lat="44.21972367027368" lon="12.081333122903551"><ele>20.0</ele><time>2026-03-28T14:30:12Z</time></trkpt><trkpt lat="44.21963972779105" lon="12.08151668813982"><ele>20.0</ele><time>2026-03-28T14:30:13Z</time></trkpt><trkpt lat="44.21955153685467" lon="12.081718651499056"><ele>20.0</ele><time>2026-03-28T14:30:14Z</time></trkpt><trkpt lat="44.21946192257895" lon="12.081924481246944"><ele>20.0</ele><time>2026-03-28T14:30:15Z</time></trkpt><trkpt lat="44.219367357488906" lon="12.082142329770988"><ele>20.0</ele><time>2026-03-28T14:30:16Z</time></trkpt><trkpt lat="44.21927225954189" lon="12.082364379989391"><ele>20.0</ele><time>2026-03-28T14:30:17Z</time></trkpt><trkpt lat="44.2191702707718" lon="12.082603138182636"><ele>20.0</ele><time>2026-03-28T14:30:18Z</time></trkpt><trkpt lat="44.219067068382834" lon="12.082838742894674"><ele>20.0</ele><time>2026-03-28T14:30:19Z</time></trkpt><trkpt lat="44.21896786728002" lon="12.083074695484697"><ele>20.0</ele><time>2026-03-28T14:30:20Z</time></trkpt><trkpt lat="44.2188711113012" lon="12.083306108027324"><ele>20.0</ele><time>2026-03-28T14:30:21Z</time></trkpt><trkpt lat="44.21876987381645" lon="12.083542077961173"><ele>20.0</ele><time>2026-03-28T14:30:22Z</time></trkpt><trkpt lat="44.21866806171319" lon="12.083785858147413"><ele>20.0</ele><time>2026-03-28T14:30:23Z</time></trkpt><trkpt lat="44.218567617490336" lon="12.084029012761862"><ele>20.0</ele><time>2026-03-28T14:30:24Z</time></trkpt><trkpt lat="44.21846848273139" lon="12.084271906525416"><ele>20.0</ele><time>2026-03-28T14:30:25Z</time></trkpt><trkpt lat="44.218365303526056" lon="12.084512826845524"><ele>20.0</ele><time>2026-03-28T14:30:26Z</time></trkpt><trkpt lat="44.218266685529535" lon="12.084755619187746"><ele>20.333333333333336</ele><time>2026-03-28T14:30:27Z</time></trkpt><trkpt lat="44.2181609391299" lon="12.08498688535058"><ele>20.666666666666668</ele><time>2026-03-28T14:30:28Z</time></trkpt><trkpt lat="44.21806410858843" lon="12.085224287923706"><ele>21.0</ele><time>2026-03-28T14:30:29Z</time></trkpt><trkpt lat="44.21797144920618" lon="12.085453205691019"><ele>21.0</ele><time>2026-03-28T14:30:30Z</time></trkpt><trkpt lat="44.21787811366237" lon="12.085686368416802"><ele>21.0</ele><time>2026-03-28T14:30:31Z</time></trkpt><trkpt lat="44.217778991439666" lon="12.085929098541545"><ele>21.0</ele><time>2026-03-28T14:30:32Z</time></trkpt><trkpt lat="44.21767447566075" lon="12.086170900739189"><ele>21.0</ele><time>2026-03-28T14:30:33Z</time></trkpt><trkpt lat="44.21757636663907" lon="12.08640523635374"><ele>21.0</ele><time>2026-03-28T14:30:34Z</time></trkpt><trkpt lat="44.21747968295032" lon="12.086635561050795"><ele>21.0</ele><time>2026-03-28T14:30:35Z</time></trkpt><trkpt lat="44.21739142892867" lon="12.086841326247407"><ele>20.333333333333332</ele><time>2026-03-28T14:30:36Z</time></trkpt><trkpt lat="44.21731220870099" lon="12.087039081731438"><ele>19.666666666666664</ele><time>2026-03-28T14:30:37Z</time></trkpt><trkpt lat="44.21723228226486" lon="12.087230396989986"><ele>19.0</ele><time>2026-03-28T14:30:38Z</time></trkpt><trkpt lat="44.21715701492415" lon="12.087407568416081"><ele>19.2</ele><time>2026-03-28T14:30:39Z</time></trkpt><trkpt lat="44.21708673401522" lon="12.08756544780806"><ele>19.4</ele><time>2026-03-28T14:30:40Z</time></trkpt><trkpt lat="44.21702380176907" lon="12.08769558426157"><ele>19.6</ele><time>2026-03-28T14:30:41Z</time></trkpt><trkpt lat="44.21698531935564" lon="12.08778408941231"><ele>19.8</ele><time>2026-03-28T14:30:42Z</time></trkpt><trkpt lat="44.21694275853398" lon="12.087883891566523"><ele>20.0</ele><time>2026-03-28T14:30:44Z</time></trkpt><trkpt lat="44.21673087779648" lon="12.087767616279331"><ele>20.0</ele><time>2026-03-28T14:30:45Z</time></trkpt><trkpt lat="44.21663211476345" lon="12.087669258966022"><ele>20.0</ele><time>2026-03-28T14:30:46Z</time></trkpt><trkpt lat="44.216481723323156" lon="12.087574885386445"><ele>20.0</ele><time>2026-03-28T14:30:47Z</time></trkpt><trkpt lat="44.216331977070446" lon="12.087455017580917"><ele>20.333333333333336</ele><time>2026-03-28T14:30:48Z</time></trkpt><trkpt lat="44.21617813132026" lon="12.087343034482071"><ele>20.666666666666668</ele><time>2026-03-28T14:30:49Z</time></trkpt><trkpt lat="44.21601130617223" lon="12.087233059615071"><ele>21.0</ele><time>2026-03-28T14:30:50Z</time></trkpt><trkpt lat="44.21584850231818" lon="12.087123156935993"><ele>21.0</ele><time>2026-03-28T14:30:51Z</time></trkpt><trkpt lat="44.21571117853055" lon="12.087030093962365"><ele>21.0</ele><time>2026-03-28T14:30:52Z</time></trkpt><trkpt lat="44.215570439317936" lon="12.08693609137633"><ele>21.0</ele><time>2026-03-28T14:30:53Z</time></trkpt><trkpt lat="44.215428198506686" lon="12.086846553744959"><ele>21.0</ele><time>2026-03-28T14:30:54Z</time></trkpt><trkpt lat="44.2152902243243" lon="12.086764200314926"><ele>21.0</ele><time>2026-03-28T14:30:55Z</time></trkpt><trkpt lat="44.21517426815276" lon="12.08668013948958"><ele>21.0</ele><time>2026-03-28T14:30:56Z</time></trkpt><trkpt lat="44.21509348817261" lon="12.086614864543739"><ele>21.0</ele><time>2026-03-28T14:30:57Z</time></trkpt><trkpt lat="44.21502866058973" lon="12.086550605400666"><ele>21.166666666666668</ele><time>2026-03-28T14:30:59Z</time></trkpt><trkpt lat="44.21497456346571" lon="12.086478443532856"><ele>21.333333333333332</ele><time>2026-03-28T14:31:01Z</time></trkpt><trkpt lat="44.214910852700854" lon="12.086435850404573"><ele>21.5</ele><time>2026-03-28T14:31:02Z</time></trkpt><trkpt lat="44.21483622228504" lon="12.08642852891351"><ele>21.666666666666664</ele><time>2026-03-28T14:31:03Z</time></trkpt><trkpt lat="44.214766607136845" lon="12.086481000919083"><ele>21.833333333333332</ele><time>2026-03-28T14:31:04Z</time></trkpt><trkpt lat="44.21472421815642" lon="12.086593334886972"><ele>22.0</ele><time>2026-03-28T14:31:05Z</time></trkpt><trkpt lat="44.214718281648224" lon="12.086724642755946"><ele>21.75</ele><time>2026-03-28T14:31:06Z</time></trkpt><trkpt lat="44.21475098144342" lon="12.086871563302948"><ele>21.5</ele><time>2026-03-28T14:31:07Z</time></trkpt><trkpt lat="44.21481431660573" lon="12.087050958544031"><ele>21.25</ele><time>2026-03-28T14:31:08Z</time></trkpt><trkpt lat="44.21487396680863" lon="12.087238200286357"><ele>21.0</ele><time>2026-03-28T14:31:09Z</time></trkpt><trkpt lat="44.214869393886055" lon="12.087432450428594"><ele>21.0</ele><time>2026-03-28T14:31:10Z</time></trkpt><trkpt lat="44.21488005947413" lon="12.08768002986184"><ele>21.0</ele><time>2026-03-28T14:31:11Z</time></trkpt><trkpt lat="44.21489333768346" lon="12.087967720681274"><ele>21.0</ele><time>2026-03-28T14:31:12Z</time></trkpt><trkpt lat="44.21490384020202" lon="12.08824272063609"><ele>21.0</ele><time>2026-03-28T14:31:13Z</time></trkpt><trkpt lat="44.21492884455469" lon="12.088532512099068"><ele>21.0</ele><time>2026-03-28T14:31:14Z</time></trkpt><trkpt lat="44.214963127183815" lon="12.088814528649694"><ele>21.0</ele><time>2026-03-28T14:31:15Z</time></trkpt><trkpt lat="44.21500434811699" lon="12.089095257234522"><ele>21.0</ele><time>2026-03-28T14:31:16Z</time></trkpt><trkpt lat="44.21505528468706" lon="12.089390125443275"><ele>21.0</ele><time>2026-03-28T14:31:17Z</time></trkpt><trkpt lat="44.21511230670346" lon="12.089677656024316"><ele>21.0</ele><time>2026-03-28T14:31:18Z</time></trkpt><trkpt lat="44.21517406472642" lon="12.089951568767964"><ele>21.0</ele><time>2026-03-28T14:31:19Z</time></trkpt><trkpt lat="44.21524209125787" lon="12.09023096062297"><ele>21.0</ele><time>2026-03-28T14:31:20Z</time></trkpt><trkpt lat="44.215314306217394" lon="12.090505769969461"><ele>21.0</ele><time>2026-03-28T14:31:21Z</time></trkpt><trkpt lat="44.21539499842285" lon="12.090778941251067"><ele>21.0</ele><time>2026-03-28T14:31:22Z</time></trkpt><trkpt lat="44.21549130424895" lon="12.091069993370347"><ele>21.0</ele><time>2026-03-28T14:31:23Z</time></trkpt><trkpt lat="44.215588513809855" lon="12.09138006272596"><ele>19.5</ele><time>2026-03-28T14:31:24Z</time></trkpt><trkpt lat="44.21568732024685" lon="12.091683456151804"><ele>18.0</ele><time>2026-03-28T14:31:25Z</time></trkpt><trkpt lat="44.21580529621977" lon="12.091993169953012"><ele>18.0</ele><time>2026-03-28T14:31:26Z</time></trkpt><trkpt lat="44.215919227468284" lon="12.092303838403833"><ele>18.0</ele><time>2026-03-28T14:31:27Z</time></trkpt><trkpt lat="44.21602867297458" lon="12.092612985476341"><ele>15.5</ele><time>2026-03-28T14:31:28Z</time></trkpt><trkpt lat="44.21613212493843" lon="12.092911967033611"><ele>13.0</ele><time>2026-03-28T14:31:29Z</time></trkpt><trkpt lat="44.21623165714258" lon="12.093203777262076"><ele>14.0</ele><time>2026-03-28T14:31:30Z</time></trkpt><trkpt lat="44.21633149027559" lon="12.093486637765805"><ele>15.0</ele><time>2026-03-28T14:31:31Z</time></trkpt><trkpt lat="44.21643133040991" lon="12.09376660518804"><ele>16.333333333333332</ele><time>2026-03-28T14:31:32Z</time></trkpt><trkpt lat="44.216524077165616" lon="12.094049508816333"><ele>17.666666666666664</ele><time>2026-03-28T14:31:33Z</time></trkpt><trkpt lat="44.21660069730142" lon="12.094332140318135"><ele>19.0</ele><time>2026-03-28T14:31:34Z</time></trkpt><trkpt lat="44.21667314790772" lon="12.094628005339372"><ele>20.5</ele><time>2026-03-28T14:31:35Z</time></trkpt><trkpt lat="44.21673984762195" lon="12.094937437444175"><ele>22.0</ele><time>2026-03-28T14:31:36Z</time></trkpt><trkpt lat="44.21678901669037" lon="12.095255660869686"><ele>22.0</ele><time>2026-03-28T14:31:37Z</time></trkpt><trkpt lat="44.216817234726484" lon="12.095585787550606"><ele>22.0</ele><time>2026-03-28T14:31:38Z</time></trkpt><trkpt lat="44.216838114260405" lon="12.095919633550992"><ele>21.5</ele><time>2026-03-28T14:31:39Z</time></trkpt><trkpt lat="44.21683815241948" lon="12.096242422445405"><ele>21.0</ele><time>2026-03-28T14:31:40Z</time></trkpt><trkpt lat="44.21682994035003" lon="12.096553344873563"><ele>20.666666666666668</ele><time>2026-03-28T14:31:41Z</time></trkpt><trkpt lat="44.21681034705971" lon="12.096838977066986"><ele>20.333333333333336</ele><time>2026-03-28T14:31:42Z</time></trkpt><trkpt lat="44.216782481754635" lon="12.097106754981029"><ele>20.0</ele><time>2026-03-28T14:31:43Z</time></trkpt><trkpt lat="44.21674601376709" lon="12.097352935678616"><ele>19.75</ele><time>2026-03-28T14:31:44Z</time></trkpt><trkpt lat="44.216698393383496" lon="12.097561067904769"><ele>19.5</ele><time>2026-03-28T14:31:45Z</time></trkpt><trkpt lat="44.21663557725659" lon="12.097746360526958"><ele>19.25</ele><time>2026-03-28T14:31:46Z</time></trkpt><trkpt lat="44.21654954997807" lon="12.097904661364405"><ele>19.0</ele><time>2026-03-28T14:31:47Z</time></trkpt><trkpt lat="44.216440898409175" lon="12.098032041872546"><ele>18.666666666666664</ele><time>2026-03-28T14:31:48Z</time></trkpt><trkpt lat="44.216320426207375" lon="12.09819481299098"><ele>18.333333333333332</ele><time>2026-03-28T14:31:49Z</time></trkpt><trkpt lat="44.21623994206142" lon="12.0984032329726"><ele>18.0</ele><time>2026-03-28T14:31:50Z</time></trkpt><trkpt lat="44.21619700188389" lon="12.098940501477662"><ele>19.666666666666668</ele><time>2026-03-28T14:31:51.999Z</time></trkpt><trkpt lat="44.21615987409246" lon="12.099233732219574"><ele>21.333333333333336</ele><time>2026-03-28T14:31:52.999Z</time></trkpt><trkpt lat="44.21607390206988" lon="12.099505709489565"><ele>23.0</ele><time>2026-03-28T14:31:53.999Z</time></trkpt><trkpt lat="44.21594914954946" lon="12.099773611404801"><ele>22.0</ele><time>2026-03-28T14:31:54.999Z</time></trkpt><trkpt lat="44.21583313083874" lon="12.100052905442896"><ele>21.0</ele><time>2026-03-28T14:31:55.999Z</time></trkpt><trkpt lat="44.21572429667507" lon="12.100355472366392"><ele>21.5</ele><time>2026-03-28T14:31:56.999Z</time></trkpt><trkpt lat="44.21561574984355" lon="12.100650851080244"><ele>22.0</ele><time>2026-03-28T14:31:57.999Z</time></trkpt><trkpt lat="44.21551107142624" lon="12.10093967699231"><ele>22.0</ele><time>2026-03-28T14:31:58.999Z</time></trkpt><trkpt lat="44.215411787628476" lon="12.101220248172986"><ele>22.0</ele><time>2026-03-28T14:31:59.999Z</time></trkpt><trkpt lat="44.21530555797412" lon="12.10150759079342"><ele>21.5</ele><time>2026-03-28T14:32:00.999Z</time></trkpt><trkpt lat="44.21520469372772" lon="12.101791640579084"><ele>21.0</ele><time>2026-03-28T14:32:01.999Z</time></trkpt><trkpt lat="44.21510325805767" lon="12.102069989801638"><ele>21.0</ele><time>2026-03-28T14:32:02.999Z</time></trkpt><trkpt lat="44.215002051904456" lon="12.102340195393067"><ele>21.0</ele><time>2026-03-28T14:32:03.999Z</time></trkpt><trkpt lat="44.214897795299756" lon="12.102620448006506"><ele>21.0</ele><time>2026-03-28T14:32:04.999Z</time></trkpt><trkpt lat="44.214792612381025" lon="12.102898963670546"><ele>21.0</ele><time>2026-03-28T14:32:05.999Z</time></trkpt><trkpt lat="44.214683175022635" lon="12.103176168791343"><ele>21.0</ele><time>2026-03-28T14:32:06.999Z</time></trkpt><trkpt lat="44.214564842054166" lon="12.103446297605558"><ele>21.666666666666668</ele><time>2026-03-28T14:32:07.999Z</time></trkpt><trkpt lat="44.21444343362167" lon="12.103708254499548"><ele>22.333333333333336</ele><time>2026-03-28T14:32:08.999Z</time></trkpt><trkpt lat="44.21431698188407" lon="12.103969149031812"><ele>23.0</ele><time>2026-03-28T14:32:09.999Z</time></trkpt><trkpt lat="44.21419151977154" lon="12.104223921634196"><ele>23.0</ele><time>2026-03-28T14:32:11Z</time></trkpt><trkpt lat="44.21406319304047" lon="12.104478264221472"><ele>23.0</ele><time>2026-03-28T14:32:12Z</time></trkpt><trkpt lat="44.213939023625414" lon="12.104725348271202"><ele>23.0</ele><time>2026-03-28T14:32:13Z</time></trkpt><trkpt lat="44.213816792764305" lon="12.10497175894346"><ele>23.666666666666668</ele><time>2026-03-28T14:32:14Z</time></trkpt><trkpt lat="44.21370377169416" lon="12.105206305311864"><ele>24.333333333333336</ele><time>2026-03-28T14:32:15Z</time></trkpt><trkpt lat="44.2136007242499" lon="12.105424725302559"><ele>25.0</ele><time>2026-03-28T14:32:16Z</time></trkpt><trkpt lat="44.213508120473875" lon="12.105629809824038"><ele>24.333333333333336</ele><time>2026-03-28T14:32:17Z</time></trkpt><trkpt lat="44.213416466089974" lon="12.105829153579718"><ele>23.666666666666668</ele><time>2026-03-28T14:32:18Z</time></trkpt><trkpt lat="44.21331580380921" lon="12.106027778381478"><ele>23.0</ele><time>2026-03-28T14:32:19Z</time></trkpt><trkpt lat="44.213209496513755" lon="12.106225605083303"><ele>23.0</ele><time>2026-03-28T14:32:20Z</time></trkpt><trkpt lat="44.21310473372792" lon="12.106438184437089"><ele>23.0</ele><time>2026-03-28T14:32:21Z</time></trkpt><trkpt lat="44.213005802905805" lon="12.106633888597484"><ele>23.0</ele><time>2026-03-28T14:32:22Z</time></trkpt><trkpt lat="44.212914558312214" lon="12.10680476355874"><ele>23.0</ele><time>2026-03-28T14:32:23Z</time></trkpt><trkpt lat="44.212818668801965" lon="12.10694370834397"><ele>23.0</ele><time>2026-03-28T14:32:24Z</time></trkpt><trkpt lat="44.212705115094806" lon="12.107041119760234"><ele>23.0</ele><time>2026-03-28T14:32:25Z</time></trkpt><trkpt lat="44.212574320036296" lon="12.107099964234237"><ele>23.0</ele><time>2026-03-28T14:32:26Z</time></trkpt><trkpt lat="44.212417808505805" lon="12.107131285575148"><ele>23.666666666666668</ele><time>2026-03-28T14:32:27Z</time></trkpt><trkpt lat="44.21225501295567" lon="12.107128925307828"><ele>24.333333333333336</ele><time>2026-03-28T14:32:28Z</time></trkpt><trkpt lat="44.21207515479087" lon="12.107079602515764"><ele>25.0</ele><time>2026-03-28T14:32:29Z</time></trkpt><trkpt lat="44.21188866849085" lon="12.107013534310722"><ele>25.0</ele><time>2026-03-28T14:32:30Z</time></trkpt><trkpt lat="44.211714847377785" lon="12.106773907481259"><ele>25.0</ele><time>2026-03-28T14:32:31Z</time></trkpt><trkpt lat="44.2115132757164" lon="12.106627476489967"><ele>24.5</ele><time>2026-03-28T14:32:32Z</time></trkpt><trkpt lat="44.2113131922613" lon="12.1064549303049"><ele>24.0</ele><time>2026-03-28T14:32:33Z</time></trkpt><trkpt lat="44.21110258551914" lon="12.10629693557183"><ele>24.0</ele><time>2026-03-28T14:32:34Z</time></trkpt><trkpt lat="44.21088958978768" lon="12.106134866223286"><ele>24.0</ele><time>2026-03-28T14:32:35Z</time></trkpt><trkpt lat="44.21067496355935" lon="12.105967956405088"><ele>24.0</ele><time>2026-03-28T14:32:36Z</time></trkpt><trkpt lat="44.210477033339394" lon="12.105805284688056"><ele>24.0</ele><time>2026-03-28T14:32:37Z</time></trkpt><trkpt lat="44.21008609646557" lon="12.105485421509476"><ele>24.333333333333336</ele><time>2026-03-28T14:32:39Z</time></trkpt><trkpt lat="44.209898055033875" lon="12.105335239394549"><ele>24.666666666666668</ele><time>2026-03-28T14:32:40Z</time></trkpt><trkpt lat="44.209722908906855" lon="12.105198167228597"><ele>25.0</ele><time>2026-03-28T14:32:41Z</time></trkpt><trkpt lat="44.20955788159486" lon="12.105072139760747"><ele>25.0</ele><time>2026-03-28T14:32:42Z</time></trkpt><trkpt lat="44.20940469889459" lon="12.104948856491214"><ele>25.0</ele><time>2026-03-28T14:32:43Z</time></trkpt><trkpt lat="44.2092692646657" lon="12.104838705089556"><ele>25.0</ele><time>2026-03-28T14:32:44Z</time></trkpt><trkpt lat="44.209153658953" lon="12.10472788373736"><ele>25.0</ele><time>2026-03-28T14:32:45Z</time></trkpt><trkpt lat="44.209061846338045" lon="12.104599226759975"><ele>25.0</ele><time>2026-03-28T14:32:46Z</time></trkpt><trkpt lat="44.20898966247113" lon="12.10445535128661"><ele>25.0</ele><time>2026-03-28T14:32:47Z</time></trkpt><trkpt lat="44.208917030632804" lon="12.10434562109886"><ele>25.0</ele><time>2026-03-28T14:32:48Z</time></trkpt><trkpt lat="44.20881629056572" lon="12.104288379045915"><ele>24.75</ele><time>2026-03-28T14:32:49Z</time></trkpt><trkpt lat="44.208693116063685" lon="12.104293524755777"><ele>24.5</ele><time>2026-03-28T14:32:50Z</time></trkpt><trkpt lat="44.20856056452346" lon="12.104289342876395"><ele>24.25</ele><time>2026-03-28T14:32:51Z</time></trkpt><trkpt lat="44.20839991431893" lon="12.104200171320112"><ele>24.0</ele><time>2026-03-28T14:32:52Z</time></trkpt><trkpt lat="44.208228054988076" lon="12.104086232885196"><ele>24.0</ele><time>2026-03-28T14:32:53Z</time></trkpt><trkpt lat="44.20805863212663" lon="12.103965929395168"><ele>24.0</ele><time>2026-03-28T14:32:54Z</time></trkpt><trkpt lat="44.20789266909206" lon="12.103850041368416"><ele>24.0</ele><time>2026-03-28T14:32:55Z</time></trkpt><trkpt lat="44.207722467671346" lon="12.103739890394952"><ele>24.0</ele><time>2026-03-28T14:32:56Z</time></trkpt><trkpt lat="44.20755010289547" lon="12.103631208555703"><ele>24.0</ele><time>2026-03-28T14:32:57Z</time></trkpt><trkpt lat="44.20740220244694" lon="12.10353080423401"><ele>24.0</ele><time>2026-03-28T14:32:58Z</time></trkpt><trkpt lat="44.207276309213256" lon="12.103435339169836"><ele>24.0</ele><time>2026-03-28T14:32:59Z</time></trkpt><trkpt lat="44.207175214981135" lon="12.10332881129253"><ele>24.0</ele><time>2026-03-28T14:33:00Z</time></trkpt><trkpt lat="44.20712066045243" lon="12.103170090385536"><ele>24.0</ele><time>2026-03-28T14:33:01Z</time></trkpt><trkpt lat="44.20705023375451" lon="12.103043149060092"><ele>24.0</ele><time>2026-03-28T14:33:02Z</time></trkpt><trkpt lat="44.206960456022685" lon="12.102958055187436"><ele>24.25</ele><time>2026-03-28T14:33:03Z</time></trkpt><trkpt lat="44.20684794033538" lon="12.102956896804578"><ele>24.5</ele><time>2026-03-28T14:33:04Z</time></trkpt><trkpt lat="44.20670787793654" lon="12.102958407740994"><ele>24.75</ele><time>2026-03-28T14:33:05Z</time></trkpt><trkpt lat="44.20655333828309" lon="12.102966377729414"><ele>25.0</ele><time>2026-03-28T14:33:06Z</time></trkpt><trkpt lat="44.206400484111974" lon="12.10279566340478"><ele>25.0</ele><time>2026-03-28T14:33:07Z</time></trkpt><trkpt lat="44.20623265270283" lon="12.102642370851342"><ele>25.0</ele><time>2026-03-28T14:33:08Z</time></trkpt><trkpt lat="44.20606058203614" lon="12.102500597040443"><ele>25.0</ele><time>2026-03-28T14:33:09Z</time></trkpt><trkpt lat="44.20588550078978" lon="12.10235840370042"><ele>25.0</ele><time>2026-03-28T14:33:10Z</time></trkpt><trkpt lat="44.20571265501131" lon="12.102216291736175"><ele>25.0</ele><time>2026-03-28T14:33:11Z</time></trkpt><trkpt lat="44.205540653807994" lon="12.102081241426541"><ele>25.0</ele><time>2026-03-28T14:33:12Z</time></trkpt><trkpt lat="44.205369667185465" lon="12.10193352438336"><ele>25.0</ele><time>2026-03-28T14:33:13Z</time></trkpt><trkpt lat="44.20520084690372" lon="12.101784025134492"><ele>25.0</ele><time>2026-03-28T14:33:14Z</time></trkpt><trkpt lat="44.205040044983875" lon="12.101655063958901"><ele>25.0</ele><time>2026-03-28T14:33:15Z</time></trkpt><trkpt lat="44.20488963001214" lon="12.101533264840606"><ele>25.333333333333336</ele><time>2026-03-28T14:33:16Z</time></trkpt><trkpt lat="44.20474806863046" lon="12.101410991442885"><ele>25.666666666666664</ele><time>2026-03-28T14:33:17Z</time></trkpt><trkpt lat="44.20460614913963" lon="12.101278451279862"><ele>26.0</ele><time>2026-03-28T14:33:18Z</time></trkpt><trkpt lat="44.204466176304166" lon="12.101133611289598"><ele>26.0</ele><time>2026-03-28T14:33:19Z</time></trkpt><trkpt lat="44.20433199199392" lon="12.100969395055845"><ele>26.0</ele><time>2026-03-28T14:33:20Z</time></trkpt><trkpt lat="44.204211772314146" lon="12.10078743717713"><ele>26.0</ele><time>2026-03-28T14:33:21Z</time></trkpt><trkpt lat="44.20409339846843" lon="12.100577923856392"><ele>25.666666666666664</ele><time>2026-03-28T14:33:22Z</time></trkpt><trkpt lat="44.203977253149276" lon="12.100335967690226"><ele>25.333333333333336</ele><time>2026-03-28T14:33:23Z</time></trkpt><trkpt lat="44.20386107797902" lon="12.100073451760368"><ele>25.0</ele><time>2026-03-28T14:33:24Z</time></trkpt><trkpt lat="44.20376548984938" lon="12.0997962634192"><ele>24.666666666666668</ele><time>2026-03-28T14:33:25Z</time></trkpt><trkpt lat="44.20367354770952" lon="12.099519315955614"><ele>24.333333333333336</ele><time>2026-03-28T14:33:26Z</time></trkpt><trkpt lat="44.203583528284135" lon="12.099251439672521"><ele>24.0</ele><time>2026-03-28T14:33:27Z</time></trkpt><trkpt lat="44.203494232899" lon="12.099001918120013"><ele>24.0</ele><time>2026-03-28T14:33:28Z</time></trkpt><trkpt lat="44.20341835333993" lon="12.098773542506363"><ele>24.0</ele><time>2026-03-28T14:33:29Z</time></trkpt><trkpt lat="44.20333324233026" lon="12.0985502651857"><ele>24.0</ele><time>2026-03-28T14:33:30Z</time></trkpt><trkpt lat="44.20325597841713" lon="12.098354132109627"><ele>24.0</ele><time>2026-03-28T14:33:31Z</time></trkpt><trkpt lat="44.20318057830818" lon="12.09816365494574"><ele>24.0</ele><time>2026-03-28T14:33:32Z</time></trkpt><trkpt lat="44.20310609485329" lon="12.098008298940643"><ele>24.0</ele><time>2026-03-28T14:33:33Z</time></trkpt><trkpt lat="44.20304929619112" lon="12.09786832433175"><ele>24.0</ele><time>2026-03-28T14:33:34Z</time></trkpt><trkpt lat="44.20302667093305" lon="12.097729839263861"><ele>24.0</ele><time>2026-03-28T14:33:35Z</time></trkpt><trkpt lat="44.20303725584824" lon="12.097576132520512"><ele>24.0</ele><time>2026-03-28T14:33:36Z</time></trkpt><trkpt lat="44.203050776979275" lon="12.097416869609193"><ele>24.0</ele><time>2026-03-28T14:33:37Z</time></trkpt><trkpt lat="44.20303218803976" lon="12.097286994661703"><ele>24.0</ele><time>2026-03-28T14:33:38Z</time></trkpt><trkpt lat="44.202988622052004" lon="12.097186637926837"><ele>24.0</ele><time>2026-03-28T14:33:39Z</time></trkpt><trkpt lat="44.2029260486684" lon="12.097128314239129"><ele>24.0</ele><time>2026-03-28T14:33:40Z</time></trkpt><trkpt lat="44.20285309675826" lon="12.097101535909134"><ele>24.0</ele><time>2026-03-28T14:33:41Z</time></trkpt><trkpt lat="44.202764791637925" lon="12.0970983576859"><ele>24.0</ele><time>2026-03-28T14:33:42Z</time></trkpt><trkpt lat="44.202671792804836" lon="12.097107116404459"><ele>24.0</ele><time>2026-03-28T14:33:43Z</time></trkpt><trkpt lat="44.202584669040235" lon="12.097155291882627"><ele>24.0</ele><time>2026-03-28T14:33:44Z</time></trkpt><trkpt lat="44.202467396424936" lon="12.097045900039031"><ele>24.0</ele><time>2026-03-28T14:33:45Z</time></trkpt><trkpt lat="44.20236507345327" lon="12.096912899539696"><ele>24.0</ele><time>2026-03-28T14:33:46Z</time></trkpt><trkpt lat="44.202222320388145" lon="12.09677949135803"><ele>24.0</ele><time>2026-03-28T14:33:47Z</time></trkpt><trkpt lat="44.20206927983255" lon="12.096624563601353"><ele>24.333333333333336</ele><time>2026-03-28T14:33:48Z</time></trkpt><trkpt lat="44.20189414240135" lon="12.09648606018774"><ele>24.666666666666668</ele><time>2026-03-28T14:33:49Z</time></trkpt><trkpt lat="44.201702203812054" lon="12.096352533541523"><ele>25.0</ele><time>2026-03-28T14:33:50Z</time></trkpt><trkpt lat="44.20151259500008" lon="12.09621141748014"><ele>25.0</ele><time>2026-03-28T14:33:51Z</time></trkpt><trkpt lat="44.20132100827017" lon="12.096062228961346"><ele>25.0</ele><time>2026-03-28T14:33:52Z</time></trkpt><trkpt lat="44.20112753586669" lon="12.095910579699371"><ele>25.0</ele><time>2026-03-28T14:33:53Z</time></trkpt><trkpt lat="44.20093020116976" lon="12.09576032706853"><ele>25.0</ele><time>2026-03-28T14:33:54Z</time></trkpt><trkpt lat="44.20073482901742" lon="12.095615823457628"><ele>25.0</ele><time>2026-03-28T14:33:55Z</time></trkpt><trkpt lat="44.20055392547098" lon="12.095478192533145"><ele>25.0</ele><time>2026-03-28T14:33:56Z</time></trkpt><trkpt lat="44.20039774283709" lon="12.095355082515383"><ele>25.0</ele><time>2026-03-28T14:33:57Z</time></trkpt><trkpt lat="44.200270695451586" lon="12.095253187264714"><ele>25.0</ele><time>2026-03-28T14:33:58Z</time></trkpt><trkpt lat="44.200183465971804" lon="12.095170116251492"><ele>25.0</ele><time>2026-03-28T14:33:59Z</time></trkpt><trkpt lat="44.200115115391334" lon="12.095113118691955"><ele>25.0</ele><time>2026-03-28T14:34:00Z</time></trkpt><trkpt lat="44.20008661625873" lon="12.094954374752472"><ele>25.0</ele><time>2026-03-28T14:34:01Z</time></trkpt><trkpt lat="44.200051179554166" lon="12.094798758845306"><ele>25.0</ele><time>2026-03-28T14:34:02Z</time></trkpt><trkpt lat="44.20000154554528" lon="12.094646236503815"><ele>25.0</ele><time>2026-03-28T14:34:03Z</time></trkpt><trkpt lat="44.199930820487" lon="12.094548280944068"><ele>25.0</ele><time>2026-03-28T14:34:04Z</time></trkpt><trkpt lat="44.199841511291346" lon="12.094503791750103"><ele>25.0</ele><time>2026-03-28T14:34:05Z</time></trkpt><trkpt lat="44.19974962617478" lon="12.094511175365298"><ele>25.0</ele><time>2026-03-28T14:34:06Z</time></trkpt><trkpt lat="44.19966459715845" lon="12.094560625953006"><ele>25.0</ele><time>2026-03-28T14:34:07Z</time></trkpt><trkpt lat="44.19958566478731" lon="12.094661803022934"><ele>25.0</ele><time>2026-03-28T14:34:08Z</time></trkpt><trkpt lat="44.199531268496585" lon="12.094787860230934"><ele>25.0</ele><time>2026-03-28T14:34:09Z</time></trkpt><trkpt lat="44.19949602538495" lon="12.09494865340359"><ele>25.0</ele><time>2026-03-28T14:34:10Z</time></trkpt><trkpt lat="44.19946319247073" lon="12.095130953750909"><ele>25.25</ele><time>2026-03-28T14:34:11Z</time></trkpt><trkpt lat="44.199409990079715" lon="12.095311389911958"><ele>25.5</ele><time>2026-03-28T14:34:12Z</time></trkpt><trkpt lat="44.19933413287551" lon="12.095477337714664"><ele>25.75</ele><time>2026-03-28T14:34:13Z</time></trkpt><trkpt lat="44.19924647808167" lon="12.095648121182226"><ele>26.0</ele><time>2026-03-28T14:34:14Z</time></trkpt><trkpt lat="44.199156285160605" lon="12.095819693330961"><ele>25.5</ele><time>2026-03-28T14:34:15Z</time></trkpt><trkpt lat="44.19908389133629" lon="12.0959882683176"><ele>25.0</ele><time>2026-03-28T14:34:16Z</time></trkpt><trkpt lat="44.19902542795258" lon="12.096172632698176"><ele>24.5</ele><time>2026-03-28T14:34:17Z</time></trkpt><trkpt lat="44.198953641952286" lon="12.096367504840138"><ele>24.0</ele><time>2026-03-28T14:34:18Z</time></trkpt><trkpt lat="44.19887394015037" lon="12.096565376716596"><ele>24.333333333333336</ele><time>2026-03-28T14:34:19Z</time></trkpt><trkpt lat="44.198788104542466" lon="12.096754826856543"><ele>24.666666666666668</ele><time>2026-03-28T14:34:20Z</time></trkpt><trkpt lat="44.198702342080885" lon="12.096950175477136"><ele>25.0</ele><time>2026-03-28T14:34:21Z</time></trkpt><trkpt lat="44.19862454196993" lon="12.09715013230025"><ele>25.0</ele><time>2026-03-28T14:34:22Z</time></trkpt><trkpt lat="44.19854008625486" lon="12.097349476363048"><ele>25.0</ele><time>2026-03-28T14:34:23Z</time></trkpt><trkpt lat="44.19845285561245" lon="12.097552490744311"><ele>25.0</ele><time>2026-03-28T14:34:24Z</time></trkpt><trkpt lat="44.19836606195249" lon="12.097749856969955"><ele>25.333333333333336</ele><time>2026-03-28T14:34:25Z</time></trkpt><trkpt lat="44.19828461524262" lon="12.097942019995056"><ele>25.666666666666664</ele><time>2026-03-28T14:34:26Z</time></trkpt><trkpt lat="44.19820026166246" lon="12.09814056572801"><ele>26.0</ele><time>2026-03-28T14:34:27Z</time></trkpt><trkpt lat="44.19811584818449" lon="12.098337654226196"><ele>26.0</ele><time>2026-03-28T14:34:28Z</time></trkpt><trkpt lat="44.19803527272955" lon="12.098536055264725"><ele>26.0</ele><time>2026-03-28T14:34:29Z</time></trkpt><trkpt lat="44.19795432397095" lon="12.098731522788068"><ele>26.0</ele><time>2026-03-28T14:34:30Z</time></trkpt><trkpt lat="44.19786803727189" lon="12.098936512189026"><ele>26.0</ele><time>2026-03-28T14:34:31Z</time></trkpt><trkpt lat="44.19778024671846" lon="12.099140825366579"><ele>26.0</ele><time>2026-03-28T14:34:32Z</time></trkpt><trkpt lat="44.19769492082317" lon="12.099345247139333"><ele>26.0</ele><time>2026-03-28T14:34:33Z</time></trkpt><trkpt lat="44.19760680792513" lon="12.09955214514878"><ele>26.0</ele><time>2026-03-28T14:34:34Z</time></trkpt><trkpt lat="44.197519337994926" lon="12.099758040359408"><ele>26.0</ele><time>2026-03-28T14:34:35Z</time></trkpt><trkpt lat="44.19743252047044" lon="12.09995872941976"><ele>26.0</ele><time>2026-03-28T14:34:36Z</time></trkpt><trkpt lat="44.19734588632403" lon="12.100168514959364"><ele>26.0</ele><time>2026-03-28T14:34:37Z</time></trkpt><trkpt lat="44.19726107207342" lon="12.100381903323965"><ele>26.0</ele><time>2026-03-28T14:34:38Z</time></trkpt><trkpt lat="44.19716493254307" lon="12.10060129365706"><ele>26.0</ele><time>2026-03-28T14:34:39Z</time></trkpt><trkpt lat="44.19707703210747" lon="12.10080591037736"><ele>26.333333333333332</ele><time>2026-03-28T14:34:40Z</time></trkpt><trkpt lat="44.196996567804774" lon="12.101000087880715"><ele>26.666666666666664</ele><time>2026-03-28T14:34:41Z</time></trkpt><trkpt lat="44.19692128275971" lon="12.10118153947016"><ele>27.0</ele><time>2026-03-28T14:34:42Z</time></trkpt><trkpt lat="44.19684832257583" lon="12.101362918569619"><ele>27.0</ele><time>2026-03-28T14:34:43Z</time></trkpt><trkpt lat="44.196776130381046" lon="12.101541968339818"><ele>27.0</ele><time>2026-03-28T14:34:44Z</time></trkpt><trkpt lat="44.19671057378335" lon="12.101715433542076"><ele>27.0</ele><time>2026-03-28T14:34:45Z</time></trkpt><trkpt lat="44.19664966020276" lon="12.101888417713168"><ele>27.0</ele><time>2026-03-28T14:34:46Z</time></trkpt><trkpt lat="44.19658923566397" lon="12.102062690486534"><ele>27.0</ele><time>2026-03-28T14:34:47Z</time></trkpt><trkpt lat="44.19652988093749" lon="12.102236686490087"><ele>27.0</ele><time>2026-03-28T14:34:48Z</time></trkpt><trkpt lat="44.19647181706136" lon="12.102403229895843"><ele>27.0</ele><time>2026-03-28T14:34:49Z</time></trkpt><trkpt lat="44.19640710662232" lon="12.102568959488341"><ele>27.0</ele><time>2026-03-28T14:34:50Z</time></trkpt><trkpt lat="44.19633900916205" lon="12.10274316508786"><ele>27.0</ele><time>2026-03-28T14:34:51Z</time></trkpt><trkpt lat="44.19627734921945" lon="12.102914343580451"><ele>27.0</ele><time>2026-03-28T14:34:52Z</time></trkpt><trkpt lat="44.19620963306009" lon="12.10308867686094"><ele>27.0</ele><time>2026-03-28T14:34:53Z</time></trkpt><trkpt lat="44.19613770249936" lon="12.10327187030888"><ele>27.0</ele><time>2026-03-28T14:34:54Z</time></trkpt><trkpt lat="44.19605850845136" lon="12.103459268128471"><ele>27.0</ele><time>2026-03-28T14:34:55Z</time></trkpt><trkpt lat="44.19597990213431" lon="12.103650130733634"><ele>27.0</ele><time>2026-03-28T14:34:56Z</time></trkpt><trkpt lat="44.19590303941343" lon="12.103842340666231"><ele>27.0</ele><time>2026-03-28T14:34:57Z</time></trkpt><trkpt lat="44.195823671455635" lon="12.104036321093048"><ele>27.333333333333336</ele><time>2026-03-28T14:34:58Z</time></trkpt><trkpt lat="44.19574781942513" lon="12.104231495117725"><ele>27.666666666666668</ele><time>2026-03-28T14:34:59Z</time></trkpt><trkpt lat="44.19567049617189" lon="12.104418153999633"><ele>28.0</ele><time>2026-03-28T14:35:00Z</time></trkpt><trkpt lat="44.19559250603682" lon="12.104600218413722"><ele>27.75</ele><time>2026-03-28T14:35:01Z</time></trkpt><trkpt lat="44.19551447243265" lon="12.10477352806346"><ele>27.5</ele><time>2026-03-28T14:35:02Z</time></trkpt><trkpt lat="44.19544022343948" lon="12.1049524905779"><ele>27.25</ele><time>2026-03-28T14:35:03Z</time></trkpt><trkpt lat="44.195364285896176" lon="12.105128786678995"><ele>27.0</ele><time>2026-03-28T14:35:04Z</time></trkpt><trkpt lat="44.19529068579434" lon="12.105295203970604"><ele>27.0</ele><time>2026-03-28T14:35:05Z</time></trkpt><trkpt lat="44.19522501103904" lon="12.105463783346003"><ele>27.0</ele><time>2026-03-28T14:35:06Z</time></trkpt><trkpt lat="44.19515990245226" lon="12.105633267204713"><ele>27.0</ele><time>2026-03-28T14:35:07Z</time></trkpt><trkpt lat="44.195097146077515" lon="12.105795443496888"><ele>27.0</ele><time>2026-03-28T14:35:08Z</time></trkpt><trkpt lat="44.19503386486073" lon="12.105963994561003"><ele>27.0</ele><time>2026-03-28T14:35:09Z</time></trkpt><trkpt lat="44.19496430275597" lon="12.106131386026462"><ele>27.0</ele><time>2026-03-28T14:35:10Z</time></trkpt><trkpt lat="44.19489699850569" lon="12.106286721424123"><ele>27.0</ele><time>2026-03-28T14:35:11Z</time></trkpt><trkpt lat="44.194837529924506" lon="12.106435192033569"><ele>27.0</ele><time>2026-03-28T14:35:12Z</time></trkpt><trkpt lat="44.194778628981425" lon="12.106588405962341"><ele>27.0</ele><time>2026-03-28T14:35:13Z</time></trkpt><trkpt lat="44.194717846461174" lon="12.10674296681407"><ele>27.0</ele><time>2026-03-28T14:35:14Z</time></trkpt><trkpt lat="44.19465488188214" lon="12.10689661464433"><ele>27.0</ele><time>2026-03-28T14:35:15Z</time></trkpt><trkpt lat="44.194591819281314" lon="12.107047883527475"><ele>27.0</ele><time>2026-03-28T14:35:16Z</time></trkpt><trkpt lat="44.194528221066086" lon="12.107195606185952"><ele>27.0</ele><time>2026-03-28T14:35:17Z</time></trkpt><trkpt lat="44.19446328704849" lon="12.107339396280002"><ele>27.0</ele><time>2026-03-28T14:35:18Z</time></trkpt><trkpt lat="44.19440246210778" lon="12.107481866044072"><ele>27.0</ele><time>2026-03-28T14:35:19Z</time></trkpt><trkpt lat="44.19434271061954" lon="12.107622231046394"><ele>27.0</ele><time>2026-03-28T14:35:20Z</time></trkpt><trkpt lat="44.194285783825535" lon="12.107763383051244"><ele>27.0</ele><time>2026-03-28T14:35:21Z</time></trkpt><trkpt lat="44.19422802453167" lon="12.107912831477764"><ele>27.0</ele><time>2026-03-28T14:35:22Z</time></trkpt><trkpt lat="44.19416275549472" lon="12.10807764640472"><ele>27.0</ele><time>2026-03-28T14:35:23Z</time></trkpt><trkpt lat="44.19407904316205" lon="12.108281797672666"><ele>27.0</ele><time>2026-03-28T14:35:24Z</time></trkpt><trkpt lat="44.193996597926954" lon="12.108501124062704"><ele>26.666666666666664</ele><time>2026-03-28T14:35:25Z</time></trkpt><trkpt lat="44.19391855078697" lon="12.10870680909543"><ele>26.333333333333332</ele><time>2026-03-28T14:35:26Z</time></trkpt><trkpt lat="44.19384987235595" lon="12.108904210910802"><ele>26.0</ele><time>2026-03-28T14:35:27Z</time></trkpt><trkpt lat="44.19378254943997" lon="12.109084345016194"><ele>26.0</ele><time>2026-03-28T14:35:28Z</time></trkpt><trkpt lat="44.193723631330215" lon="12.109254432813986"><ele>26.0</ele><time>2026-03-28T14:35:29Z</time></trkpt><trkpt lat="44.19366305642379" lon="12.109412227942801"><ele>26.0</ele><time>2026-03-28T14:35:30Z</time></trkpt><trkpt lat="44.1936078173657" lon="12.10956131551884"><ele>26.0</ele><time>2026-03-28T14:35:31Z</time></trkpt><trkpt lat="44.193558120368166" lon="12.109702013919865"><ele>26.0</ele><time>2026-03-28T14:35:32Z</time></trkpt><trkpt lat="44.19350213108742" lon="12.1098511609729"><ele>26.0</ele><time>2026-03-28T14:35:33Z</time></trkpt><trkpt lat="44.193436202198534" lon="12.110010126824205"><ele>26.0</ele><time>2026-03-28T14:35:34Z</time></trkpt><trkpt lat="44.19337415492275" lon="12.110171460973131"><ele>26.0</ele><time>2026-03-28T14:35:35Z</time></trkpt><trkpt lat="44.19331304030022" lon="12.110340145066717"><ele>26.0</ele><time>2026-03-28T14:35:36Z</time></trkpt><trkpt lat="44.19325217590481" lon="12.110543049129813"><ele>26.0</ele><time>2026-03-28T14:35:37Z</time></trkpt><trkpt lat="44.19319318534516" lon="12.110792895114912"><ele>26.0</ele><time>2026-03-28T14:35:38Z</time></trkpt><trkpt lat="44.19314443966294" lon="12.111039930498878"><ele>26.0</ele><time>2026-03-28T14:35:39Z</time></trkpt><trkpt lat="44.193117626226005" lon="12.111258609715204"><ele>26.0</ele><time>2026-03-28T14:35:40Z</time></trkpt><trkpt lat="44.19308754190818" lon="12.111447051639095"><ele>26.0</ele><time>2026-03-28T14:35:41Z</time></trkpt><trkpt lat="44.1930395433199" lon="12.111597143854677"><ele>26.0</ele><time>2026-03-28T14:35:42Z</time></trkpt><trkpt lat="44.192962894379974" lon="12.111709723384273"><ele>26.0</ele><time>2026-03-28T14:35:43Z</time></trkpt><trkpt lat="44.19286919406595" lon="12.111790365143369"><ele>26.0</ele><time>2026-03-28T14:35:44Z</time></trkpt><trkpt lat="44.19275999480609" lon="12.111848724241588"><ele>26.0</ele><time>2026-03-28T14:35:45Z</time></trkpt><trkpt lat="44.19265661993478" lon="12.111920170765723"><ele>26.0</ele><time>2026-03-28T14:35:46Z</time></trkpt><trkpt lat="44.192590659827225" lon="12.112033168046278"><ele>26.0</ele><time>2026-03-28T14:35:47Z</time></trkpt><trkpt lat="44.19255977507623" lon="12.11218257416296"><ele>26.0</ele><time>2026-03-28T14:35:48Z</time></trkpt><trkpt lat="44.19255487525437" lon="12.112350323332654"><ele>26.0</ele><time>2026-03-28T14:35:49Z</time></trkpt><trkpt lat="44.192553569350395" lon="12.112520998873467"><ele>26.0</ele><time>2026-03-28T14:35:50Z</time></trkpt><trkpt lat="44.19251036645532" lon="12.112683161516347"><ele>26.0</ele><time>2026-03-28T14:35:51Z</time></trkpt><trkpt lat="44.192429777475276" lon="12.112814388973648"><ele>25.75</ele><time>2026-03-28T14:35:52Z</time></trkpt><trkpt lat="44.19231600774742" lon="12.1129230884354"><ele>25.5</ele><time>2026-03-28T14:35:53Z</time></trkpt><trkpt lat="44.1921799690035" lon="12.113027629160104"><ele>25.25</ele><time>2026-03-28T14:35:54Z</time></trkpt><trkpt lat="44.19206973968324" lon="12.113167860691272"><ele>25.0</ele><time>2026-03-28T14:35:55Z</time></trkpt><trkpt lat="44.191987922278344" lon="12.113351400312608"><ele>25.0</ele><time>2026-03-28T14:35:56Z</time></trkpt><trkpt lat="44.1919153441634" lon="12.113537045778259"><ele>25.0</ele><time>2026-03-28T14:35:57Z</time></trkpt><trkpt lat="44.1918392699463" lon="12.113727358075762"><ele>25.0</ele><time>2026-03-28T14:35:58Z</time></trkpt><trkpt lat="44.19176186932334" lon="12.1139183214707"><ele>25.0</ele><time>2026-03-28T14:35:59Z</time></trkpt><trkpt lat="44.19168668915867" lon="12.114113344459176"><ele>25.0</ele><time>2026-03-28T14:36:00Z</time></trkpt><trkpt lat="44.19160897155152" lon="12.114310385697147"><ele>25.0</ele><time>2026-03-28T14:36:01Z</time></trkpt><trkpt lat="44.1915303513811" lon="12.114510122392838"><ele>24.666666666666668</ele><time>2026-03-28T14:36:02Z</time></trkpt><trkpt lat="44.19145287902552" lon="12.11470916880793"><ele>24.333333333333336</ele><time>2026-03-28T14:36:03Z</time></trkpt><trkpt lat="44.19137676602024" lon="12.114908889304118"><ele>24.0</ele><time>2026-03-28T14:36:04Z</time></trkpt><trkpt lat="44.191299663339066" lon="12.115113885977696"><ele>23.666666666666668</ele><time>2026-03-28T14:36:05Z</time></trkpt><trkpt lat="44.19122149750209" lon="12.115317744204035"><ele>23.333333333333336</ele><time>2026-03-28T14:36:06Z</time></trkpt><trkpt lat="44.191142481176605" lon="12.11552288474641"><ele>23.0</ele><time>2026-03-28T14:36:07Z</time></trkpt><trkpt lat="44.19106189962062" lon="12.115729795301524"><ele>24.0</ele><time>2026-03-28T14:36:08Z</time></trkpt><trkpt lat="44.1909839836237" lon="12.115940531793154"><ele>25.0</ele><time>2026-03-28T14:36:09Z</time></trkpt><trkpt lat="44.19090576463178" lon="12.116145365191285"><ele>26.0</ele><time>2026-03-28T14:36:10Z</time></trkpt><trkpt lat="44.190837143235335" lon="12.116341012159001"><ele>26.0</ele><time>2026-03-28T14:36:11Z</time></trkpt><trkpt lat="44.19077718132808" lon="12.116525384678454"><ele>26.0</ele><time>2026-03-28T14:36:12Z</time></trkpt><trkpt lat="44.19072181295016" lon="12.116695841319912"><ele>26.0</ele><time>2026-03-28T14:36:13Z</time></trkpt><trkpt lat="44.190667325771756" lon="12.11685912705632"><ele>26.0</ele><time>2026-03-28T14:36:14Z</time></trkpt><trkpt lat="44.19060410550094" lon="12.117013177075584"><ele>26.0</ele><time>2026-03-28T14:36:15Z</time></trkpt><trkpt lat="44.1905337737666" lon="12.117172045537812"><ele>26.0</ele><time>2026-03-28T14:36:16Z</time></trkpt><trkpt lat="44.19046520660812" lon="12.1173344341613"><ele>26.0</ele><time>2026-03-28T14:36:17Z</time></trkpt><trkpt lat="44.19040213202802" lon="12.117479306929972"><ele>26.0</ele><time>2026-03-28T14:36:18Z</time></trkpt><trkpt lat="44.190337376382246" lon="12.1176079189332"><ele>26.0</ele><time>2026-03-28T14:36:19Z</time></trkpt><trkpt lat="44.19027085313669" lon="12.117739270073267"><ele>26.0</ele><time>2026-03-28T14:36:20Z</time></trkpt><trkpt lat="44.190198365811874" lon="12.117878933581082"><ele>26.0</ele><time>2026-03-28T14:36:21Z</time></trkpt><trkpt lat="44.19012172966651" lon="12.118030379712945"><ele>26.0</ele><time>2026-03-28T14:36:22Z</time></trkpt><trkpt lat="44.190047643236106" lon="12.118155145722678"><ele>26.0</ele><time>2026-03-28T14:36:23Z</time></trkpt><trkpt lat="44.189967919937914" lon="12.118264244659933"><ele>26.0</ele><time>2026-03-28T14:36:24Z</time></trkpt><trkpt lat="44.189876487979404" lon="12.118352708335367"><ele>26.0</ele><time>2026-03-28T14:36:25Z</time></trkpt><trkpt lat="44.18977509063446" lon="12.118442655982216"><ele>26.0</ele><time>2026-03-28T14:36:26Z</time></trkpt><trkpt lat="44.18968067196807" lon="12.118556357002193"><ele>26.0</ele><time>2026-03-28T14:36:27Z</time></trkpt><trkpt lat="44.18958914310861" lon="12.118688909314598"><ele>26.0</ele><time>2026-03-28T14:36:28Z</time></trkpt><trkpt lat="44.18948642908312" lon="12.118833268230041"><ele>26.0</ele><time>2026-03-28T14:36:29Z</time></trkpt><trkpt lat="44.18937185494974" lon="12.11897054640381"><ele>26.0</ele><time>2026-03-28T14:36:30Z</time></trkpt><trkpt lat="44.18925763067722" lon="12.119110463335565"><ele>26.0</ele><time>2026-03-28T14:36:31Z</time></trkpt><trkpt lat="44.18914659394112" lon="12.119257820482616"><ele>26.0</ele><time>2026-03-28T14:36:32Z</time></trkpt><trkpt lat="44.18903386955039" lon="12.119408405529757"><ele>26.0</ele><time>2026-03-28T14:36:33Z</time></trkpt><trkpt lat="44.18891552661866" lon="12.119552051767393"><ele>26.666666666666664</ele><time>2026-03-28T14:36:34Z</time></trkpt><trkpt lat="44.188796507848814" lon="12.1196996338514"><ele>27.333333333333336</ele><time>2026-03-28T14:36:35Z</time></trkpt><trkpt lat="44.18868083025786" lon="12.119856068246966"><ele>28.0</ele><time>2026-03-28T14:36:36Z</time></trkpt><trkpt lat="44.18856923507317" lon="12.120016739964994"><ele>28.333333333333336</ele><time>2026-03-28T14:36:37Z</time></trkpt><trkpt lat="44.18846090103182" lon="12.120186310214137"><ele>28.666666666666664</ele><time>2026-03-28T14:36:38Z</time></trkpt><trkpt lat="44.1883589560714" lon="12.12036370572363"><ele>29.0</ele><time>2026-03-28T14:36:39Z</time></trkpt><trkpt lat="44.18826787159692" lon="12.12052852843504"><ele>29.0</ele><time>2026-03-28T14:36:40Z</time></trkpt><trkpt lat="44.18818243954675" lon="12.12068853383551"><ele>29.0</ele><time>2026-03-28T14:36:41Z</time></trkpt><trkpt lat="44.18810652405074" lon="12.120842741414325"><ele>29.0</ele><time>2026-03-28T14:36:42Z</time></trkpt><trkpt lat="44.18803868541711" lon="12.120972125474914"><ele>29.0</ele><time>2026-03-28T14:36:43Z</time></trkpt><trkpt lat="44.187979429039835" lon="12.121076906253265"><ele>29.0</ele><time>2026-03-28T14:36:44Z</time></trkpt><trkpt lat="44.18787356453474" lon="12.121266192098583"><ele>29.0</ele><time>2026-03-28T14:36:46Z</time></trkpt><trkpt lat="44.187848103441624" lon="12.12138075608579"><ele>29.0</ele><time>2026-03-28T14:36:47Z</time></trkpt><trkpt lat="44.187832266630714" lon="12.121516642228924"><ele>29.0</ele><time>2026-03-28T14:36:48Z</time></trkpt><trkpt lat="44.18781001030108" lon="12.121669554572911"><ele>29.0</ele><time>2026-03-28T14:36:49Z</time></trkpt><trkpt lat="44.187767487353966" lon="12.121830759550695"><ele>29.0</ele><time>2026-03-28T14:36:50Z</time></trkpt><trkpt lat="44.18770820768658" lon="12.121991289786806"><ele>29.0</ele><time>2026-03-28T14:36:51Z</time></trkpt><trkpt lat="44.187637978545816" lon="12.122164620569308"><ele>29.0</ele><time>2026-03-28T14:36:52Z</time></trkpt><trkpt lat="44.18758144937835" lon="12.122341187717234"><ele>29.333333333333332</ele><time>2026-03-28T14:36:53Z</time></trkpt><trkpt lat="44.18752417223681" lon="12.122524021469962"><ele>29.666666666666664</ele><time>2026-03-28T14:36:54Z</time></trkpt><trkpt lat="44.18745209261185" lon="12.122713752544916"><ele>30.0</ele><time>2026-03-28T14:36:55Z</time></trkpt><trkpt lat="44.18737510967181" lon="12.12292671921744"><ele>30.0</ele><time>2026-03-28T14:36:56Z</time></trkpt><trkpt lat="44.187300875073134" lon="12.123131683842287"><ele>30.0</ele><time>2026-03-28T14:36:57Z</time></trkpt><trkpt lat="44.18723177098744" lon="12.123335260076704"><ele>30.0</ele><time>2026-03-28T14:36:58Z</time></trkpt><trkpt lat="44.18716787105925" lon="12.123519949814984"><ele>30.0</ele><time>2026-03-28T14:36:59Z</time></trkpt><trkpt lat="44.187105079505926" lon="12.123695339515107"><ele>30.0</ele><time>2026-03-28T14:37:00Z</time></trkpt><trkpt lat="44.1870535984107" lon="12.123858032609416"><ele>30.0</ele><time>2026-03-28T14:37:01Z</time></trkpt><trkpt lat="44.187000879603694" lon="12.12401160430131"><ele>30.0</ele><time>2026-03-28T14:37:02Z</time></trkpt><trkpt lat="44.18695268312491" lon="12.124161019020498"><ele>30.0</ele><time>2026-03-28T14:37:03Z</time></trkpt><trkpt lat="44.18689844573339" lon="12.124293473269354"><ele>30.0</ele><time>2026-03-28T14:37:04Z</time></trkpt><trkpt lat="44.18684726120268" lon="12.124422118934511"><ele>30.0</ele><time>2026-03-28T14:37:05Z</time></trkpt><trkpt lat="44.18680052246331" lon="12.124551579246358"><ele>30.0</ele><time>2026-03-28T14:37:06Z</time></trkpt><trkpt lat="44.18675138165566" lon="12.124686567189622"><ele>30.0</ele><time>2026-03-28T14:37:07Z</time></trkpt><trkpt lat="44.18670524688808" lon="12.124826153211126"><ele>30.2</ele><time>2026-03-28T14:37:08Z</time></trkpt><trkpt lat="44.186659902213684" lon="12.124967605373582"><ele>30.4</ele><time>2026-03-28T14:37:09Z</time></trkpt><trkpt lat="44.18661539559538" lon="12.125095658191157"><ele>30.6</ele><time>2026-03-28T14:37:10Z</time></trkpt><trkpt lat="44.18657862176234" lon="12.125213902486129"><ele>30.8</ele><time>2026-03-28T14:37:11Z</time></trkpt><trkpt lat="44.186540150290504" lon="12.125311062364474"><ele>31.0</ele><time>2026-03-28T14:37:12Z</time></trkpt><trkpt lat="44.186479459259715" lon="12.125464338537"><ele>31.000000000000004</ele><time>2026-03-28T14:37:14Z</time></trkpt><trkpt lat="44.18647976101799" lon="12.125585178687228"><ele>31.0</ele><time>2026-03-28T14:37:15Z</time></trkpt><trkpt lat="44.18650333461922" lon="12.125706355595069"><ele>31.0</ele><time>2026-03-28T14:37:16Z</time></trkpt><trkpt lat="44.18653283406848" lon="12.125809765486983"><ele>31.0</ele><time>2026-03-28T14:37:17Z</time></trkpt><trkpt lat="44.18653575217774" lon="12.125914282930468"><ele>31.000000000000004</ele><time>2026-03-28T14:37:18Z</time></trkpt><trkpt lat="44.18651221014758" lon="12.126030197194744"><ele>31.0</ele><time>2026-03-28T14:37:19Z</time></trkpt><trkpt lat="44.186485934186194" lon="12.126150041915933"><ele>31.28571428571429</ele><time>2026-03-28T14:37:20Z</time></trkpt><trkpt lat="44.18645379157717" lon="12.126245709327401"><ele>31.571428571428577</ele><time>2026-03-28T14:37:21Z</time></trkpt><trkpt lat="44.1864170853324" lon="12.126337339661463"><ele>31.857142857142858</ele><time>2026-03-28T14:37:22Z</time></trkpt><trkpt lat="44.18636946980018" lon="12.126416699609635"><ele>32.142857142857146</ele><time>2026-03-28T14:37:23Z</time></trkpt><trkpt lat="44.186295834502076" lon="12.126451472874665"><ele>32.42857142857143</ele><time>2026-03-28T14:37:24Z</time></trkpt><trkpt lat="44.1862383151566" lon="12.126499243392232"><ele>32.714285714285715</ele><time>2026-03-28T14:37:25Z</time></trkpt><trkpt lat="44.18616972808227" lon="12.126554864891336"><ele>33.0</ele><time>2026-03-28T14:37:27Z</time></trkpt><trkpt lat="44.18608787091629" lon="12.126648794071752"><ele>33.0</ele><time>2026-03-28T14:37:29Z</time></trkpt><trkpt lat="44.18603403408967" lon="12.126698420194646"><ele>33.0</ele><time>2026-03-28T14:37:30Z</time></trkpt><trkpt lat="44.185978506923675" lon="12.126747983912878"><ele>33.0</ele><time>2026-03-28T14:37:31Z</time></trkpt><trkpt lat="44.18591267297985" lon="12.126807000107311"><ele>33.0</ele><time>2026-03-28T14:37:33Z</time></trkpt><trkpt lat="44.18582315856779" lon="12.12689758980452"><ele>33.0</ele><time>2026-03-28T14:37:36Z</time></trkpt><trkpt lat="44.18576670260687" lon="12.12696082310794"><ele>33.0</ele><time>2026-03-28T14:37:37Z</time></trkpt><trkpt lat="44.18571396919002" lon="12.127041164241193"><ele>32.75</ele><time>2026-03-28T14:37:38Z</time></trkpt><trkpt lat="44.18564062784491" lon="12.127157324653343"><ele>32.5</ele><time>2026-03-28T14:37:39Z</time></trkpt><trkpt lat="44.185580600220824" lon="12.127276584429133"><ele>32.25</ele><time>2026-03-28T14:37:40Z</time></trkpt><trkpt lat="44.18551824712562" lon="12.127421098875795"><ele>32.0</ele><time>2026-03-28T14:37:41Z</time></trkpt><trkpt lat="44.18545817421792" lon="12.127585717188792"><ele>32.0</ele><time>2026-03-28T14:37:42Z</time></trkpt><trkpt lat="44.18539452413292" lon="12.127765148897954"><ele>32.0</ele><time>2026-03-28T14:37:43Z</time></trkpt><trkpt lat="44.18532825893894" lon="12.12794654555732"><ele>32.0</ele><time>2026-03-28T14:37:44Z</time></trkpt><trkpt lat="44.185271640865224" lon="12.128133827029137"><ele>32.0</ele><time>2026-03-28T14:37:45Z</time></trkpt><trkpt lat="44.18521805536337" lon="12.12833755158123"><ele>31.75</ele><time>2026-03-28T14:37:46Z</time></trkpt><trkpt lat="44.18515980773246" lon="12.128533708908686"><ele>31.5</ele><time>2026-03-28T14:37:47Z</time></trkpt><trkpt lat="44.185095019494625" lon="12.128717879502199"><ele>31.25</ele><time>2026-03-28T14:37:48Z</time></trkpt><trkpt lat="44.18504261309019" lon="12.128889302911698"><ele>31.0</ele><time>2026-03-28T14:37:49Z</time></trkpt><trkpt lat="44.184995043277034" lon="12.12904325252416"><ele>30.6</ele><time>2026-03-28T14:37:50Z</time></trkpt><trkpt lat="44.18494515836035" lon="12.129165667533169"><ele>30.200000000000003</ele><time>2026-03-28T14:37:51Z</time></trkpt><trkpt lat="44.18488192007505" lon="12.129272773094263"><ele>29.799999999999997</ele><time>2026-03-28T14:37:52Z</time></trkpt><trkpt lat="44.184819995510786" lon="12.129353157849904"><ele>29.4</ele><time>2026-03-28T14:37:53Z</time></trkpt><trkpt lat="44.184791053128144" lon="12.129467341835714"><ele>29.0</ele><time>2026-03-28T14:37:54Z</time></trkpt><trkpt lat="44.18478978704455" lon="12.129625489400816"><ele>29.0</ele><time>2026-03-28T14:37:55Z</time></trkpt><trkpt lat="44.1847730717618" lon="12.129795736629628"><ele>29.0</ele><time>2026-03-28T14:37:56Z</time></trkpt><trkpt lat="44.18472055245214" lon="12.129954316220742"><ele>29.0</ele><time>2026-03-28T14:37:57Z</time></trkpt><trkpt lat="44.18466443612091" lon="12.130119358010095"><ele>29.0</ele><time>2026-03-28T14:37:58Z</time></trkpt><trkpt lat="44.18461642974724" lon="12.130272254870057"><ele>29.5</ele><time>2026-03-28T14:37:59Z</time></trkpt><trkpt lat="44.18456556838324" lon="12.130434064121587"><ele>30.0</ele><time>2026-03-28T14:38:00Z</time></trkpt><trkpt lat="44.18450918557958" lon="12.13060744148469"><ele>30.5</ele><time>2026-03-28T14:38:01Z</time></trkpt><trkpt lat="44.184457444345895" lon="12.1307937916985"><ele>31.0</ele><time>2026-03-28T14:38:02Z</time></trkpt><trkpt lat="44.18440408582427" lon="12.130978866572008"><ele>31.0</ele><time>2026-03-28T14:38:03Z</time></trkpt><trkpt lat="44.18434860388687" lon="12.131163178856207"><ele>31.0</ele><time>2026-03-28T14:38:04Z</time></trkpt><trkpt lat="44.18429684937457" lon="12.131331245077568"><ele>31.0</ele><time>2026-03-28T14:38:05Z</time></trkpt><trkpt lat="44.18424824448742" lon="12.131488358011133"><ele>31.0</ele><time>2026-03-28T14:38:06Z</time></trkpt><trkpt lat="44.18420493737979" lon="12.131639384974845"><ele>30.75</ele><time>2026-03-28T14:38:07Z</time></trkpt><trkpt lat="44.18416342064928" lon="12.131784655965765"><ele>30.5</ele><time>2026-03-28T14:38:08Z</time></trkpt><trkpt lat="44.184120405973005" lon="12.131930261263832"><ele>30.25</ele><time>2026-03-28T14:38:09Z</time></trkpt><trkpt lat="44.184081053541654" lon="12.132079750822468"><ele>30.0</ele><time>2026-03-28T14:38:10Z</time></trkpt><trkpt lat="44.18402984138263" lon="12.13223265534516"><ele>30.0</ele><time>2026-03-28T14:38:11Z</time></trkpt><trkpt lat="44.18398700300274" lon="12.132387906731394"><ele>30.0</ele><time>2026-03-28T14:38:12Z</time></trkpt><trkpt lat="44.18394594368656" lon="12.132529218837552"><ele>30.0</ele><time>2026-03-28T14:38:13Z</time></trkpt><trkpt lat="44.183922246475966" lon="12.132671111263644"><ele>30.0</ele><time>2026-03-28T14:38:14Z</time></trkpt><trkpt lat="44.18387676559546" lon="12.132805044767919"><ele>30.0</ele><time>2026-03-28T14:38:15Z</time></trkpt><trkpt lat="44.1838313247422" lon="12.13296202262855"><ele>30.0</ele><time>2026-03-28T14:38:16Z</time></trkpt><trkpt lat="44.183778622722734" lon="12.133125126878516"><ele>30.0</ele><time>2026-03-28T14:38:17Z</time></trkpt><trkpt lat="44.18371367515954" lon="12.133285845434424"><ele>30.0</ele><time>2026-03-28T14:38:18Z</time></trkpt><trkpt lat="44.18364842022246" lon="12.133467832459262"><ele>30.0</ele><time>2026-03-28T14:38:19Z</time></trkpt><trkpt lat="44.183567897529144" lon="12.133667553982244"><ele>30.0</ele><time>2026-03-28T14:38:20Z</time></trkpt><trkpt lat="44.18348232259558" lon="12.133879571129423"><ele>30.0</ele><time>2026-03-28T14:38:21Z</time></trkpt><trkpt lat="44.18339191630575" lon="12.134080683345607"><ele>30.0</ele><time>2026-03-28T14:38:22Z</time></trkpt><trkpt lat="44.18331448874702" lon="12.134280107952726"><ele>30.0</ele><time>2026-03-28T14:38:23Z</time></trkpt><trkpt lat="44.183245961218184" lon="12.13445841529591"><ele>30.0</ele><time>2026-03-28T14:38:24Z</time></trkpt><trkpt lat="44.18319093684721" lon="12.134611376294842"><ele>30.0</ele><time>2026-03-28T14:38:25Z</time></trkpt><trkpt lat="44.18315696137623" lon="12.134728793935096"><ele>30.0</ele><time>2026-03-28T14:38:26Z</time></trkpt><trkpt lat="44.183144343168244" lon="12.134835986922006"><ele>30.0</ele><time>2026-03-28T14:38:27Z</time></trkpt><trkpt lat="44.18314932055699" lon="12.134936959830982"><ele>30.0</ele><time>2026-03-28T14:38:28Z</time></trkpt><trkpt lat="44.183129469647895" lon="12.1350485786161"><ele>30.0</ele><time>2026-03-28T14:38:29Z</time></trkpt><trkpt lat="44.183088141724106" lon="12.135176632643079"><ele>30.0</ele><time>2026-03-28T14:38:30Z</time></trkpt><trkpt lat="44.1829901158002" lon="12.135260100946446"><ele>30.0</ele><time>2026-03-28T14:38:31Z</time></trkpt><trkpt lat="44.182908756806114" lon="12.135380291648843"><ele>30.0</ele><time>2026-03-28T14:38:32Z</time></trkpt><trkpt lat="44.18279481106771" lon="12.135505140215525"><ele>30.0</ele><time>2026-03-28T14:38:33Z</time></trkpt><trkpt lat="44.1827177754978" lon="12.135632882554665"><ele>30.0</ele><time>2026-03-28T14:38:34Z</time></trkpt><trkpt lat="44.182653257611555" lon="12.135731972517306"><ele>30.0</ele><time>2026-03-28T14:38:35Z</time></trkpt><trkpt lat="44.18258262991978" lon="12.135792645190223"><ele>30.0</ele><time>2026-03-28T14:38:36Z</time></trkpt><trkpt lat="44.1824890422256" lon="12.13581144185895"><ele>30.0</ele><time>2026-03-28T14:38:37Z</time></trkpt><trkpt lat="44.18240595932152" lon="12.135855567631111"><ele>30.0</ele><time>2026-03-28T14:38:38Z</time></trkpt><trkpt lat="44.18225613148056" lon="12.13572222442071"><ele>30.0</ele><time>2026-03-28T14:38:39Z</time></trkpt><trkpt lat="44.18212815395945" lon="12.135640859023203"><ele>30.0</ele><time>2026-03-28T14:38:40Z</time></trkpt><trkpt lat="44.18198796006926" lon="12.135546578644076"><ele>29.666666666666664</ele><time>2026-03-28T14:38:41Z</time></trkpt><trkpt lat="44.18183729530316" lon="12.135450015093381"><ele>29.333333333333332</ele><time>2026-03-28T14:38:42Z</time></trkpt><trkpt lat="44.181690100737974" lon="12.135351993033234"><ele>29.0</ele><time>2026-03-28T14:38:43Z</time></trkpt><trkpt lat="44.18154783889204" lon="12.135265822667105"><ele>28.666666666666664</ele><time>2026-03-28T14:38:44Z</time></trkpt><trkpt lat="44.18140314425179" lon="12.135179737254834"><ele>28.333333333333336</ele><time>2026-03-28T14:38:45Z</time></trkpt><trkpt lat="44.18125979958587" lon="12.135090037591404"><ele>28.0</ele><time>2026-03-28T14:38:46Z</time></trkpt><trkpt lat="44.18111633408196" lon="12.13500048735809"><ele>28.0</ele><time>2026-03-28T14:38:47Z</time></trkpt><trkpt lat="44.180961376581706" lon="12.134904570438646"><ele>28.0</ele><time>2026-03-28T14:38:48Z</time></trkpt><trkpt lat="44.18080092803438" lon="12.13480241500736"><ele>28.0</ele><time>2026-03-28T14:38:49Z</time></trkpt><trkpt lat="44.18064028609758" lon="12.134691313507979"><ele>28.333333333333336</ele><time>2026-03-28T14:38:50Z</time></trkpt><trkpt lat="44.1804698224928" lon="12.134567434196498"><ele>28.666666666666664</ele><time>2026-03-28T14:38:51Z</time></trkpt><trkpt lat="44.18030480786861" lon="12.134431152939698"><ele>29.0</ele><time>2026-03-28T14:38:52Z</time></trkpt><trkpt lat="44.18015358957288" lon="12.13427009443035"><ele>29.0</ele><time>2026-03-28T14:38:53Z</time></trkpt><trkpt lat="44.17999709003488" lon="12.134118889709939"><ele>29.0</ele><time>2026-03-28T14:38:54Z</time></trkpt><trkpt lat="44.17983658750663" lon="12.133988277589069"><ele>29.0</ele><time>2026-03-28T14:38:55Z</time></trkpt><trkpt lat="44.179678527420656" lon="12.133833104391861"><ele>28.666666666666664</ele><time>2026-03-28T14:38:56Z</time></trkpt><trkpt lat="44.179518487672006" lon="12.1336887446623"><ele>28.333333333333336</ele><time>2026-03-28T14:38:57Z</time></trkpt><trkpt lat="44.17935598183246" lon="12.13355823899465"><ele>28.0</ele><time>2026-03-28T14:38:58Z</time></trkpt><trkpt lat="44.179189590524025" lon="12.133434325225956"><ele>28.0</ele><time>2026-03-28T14:38:59Z</time></trkpt><trkpt lat="44.1790257323882" lon="12.13331522829483"><ele>28.0</ele><time>2026-03-28T14:39:00Z</time></trkpt><trkpt lat="44.17885591176806" lon="12.133197820236884"><ele>28.0</ele><time>2026-03-28T14:39:01Z</time></trkpt><trkpt lat="44.17868643439391" lon="12.133084500473903"><ele>28.5</ele><time>2026-03-28T14:39:02Z</time></trkpt><trkpt lat="44.1785156601558" lon="12.132969668920172"><ele>29.0</ele><time>2026-03-28T14:39:03Z</time></trkpt><trkpt lat="44.17816351944637" lon="12.132721789346547"><ele>29.0</ele><time>2026-03-28T14:39:05Z</time></trkpt><trkpt lat="44.17798612712194" lon="12.132599885415726"><ele>29.0</ele><time>2026-03-28T14:39:06Z</time></trkpt><trkpt lat="44.177814075331945" lon="12.132482587371873"><ele>29.0</ele><time>2026-03-28T14:39:07Z</time></trkpt><trkpt lat="44.177639426955466" lon="12.132358338761314"><ele>29.0</ele><time>2026-03-28T14:39:08Z</time></trkpt><trkpt lat="44.177471789866935" lon="12.13223920133785"><ele>29.0</ele><time>2026-03-28T14:39:09Z</time></trkpt><trkpt lat="44.17729934024707" lon="12.132116418952547"><ele>29.0</ele><time>2026-03-28T14:39:10Z</time></trkpt><trkpt lat="44.1771315629189" lon="12.13199926966395"><ele>29.0</ele><time>2026-03-28T14:39:11Z</time></trkpt><trkpt lat="44.17696527393366" lon="12.131880071017697"><ele>29.0</ele><time>2026-03-28T14:39:12Z</time></trkpt><trkpt lat="44.17680046310279" lon="12.131762625608559"><ele>29.0</ele><time>2026-03-28T14:39:13Z</time></trkpt><trkpt lat="44.17663330098848" lon="12.13164996711098"><ele>29.666666666666664</ele><time>2026-03-28T14:39:14Z</time></trkpt><trkpt lat="44.17646339500213" lon="12.131531155196566"><ele>30.333333333333336</ele><time>2026-03-28T14:39:15Z</time></trkpt><trkpt lat="44.17629875781475" lon="12.131414521230377"><ele>31.0</ele><time>2026-03-28T14:39:16Z</time></trkpt><trkpt lat="44.176140235262224" lon="12.131302333943403"><ele>31.0</ele><time>2026-03-28T14:39:17Z</time></trkpt><trkpt lat="44.17599796365551" lon="12.131201139277618"><ele>31.0</ele><time>2026-03-28T14:39:18Z</time></trkpt><trkpt lat="44.17585136496977" lon="12.131104881473158"><ele>31.0</ele><time>2026-03-28T14:39:19Z</time></trkpt><trkpt lat="44.17569729047179" lon="12.13100054920283"><ele>31.333333333333336</ele><time>2026-03-28T14:39:20Z</time></trkpt><trkpt lat="44.17553209679986" lon="12.13087934652277"><ele>31.666666666666664</ele><time>2026-03-28T14:39:21Z</time></trkpt><trkpt lat="44.17536805169698" lon="12.130766222768877"><ele>32.0</ele><time>2026-03-28T14:39:22Z</time></trkpt><trkpt lat="44.17520276858976" lon="12.13065734940321"><ele>31.0</ele><time>2026-03-28T14:39:23Z</time></trkpt><trkpt lat="44.175030080944914" lon="12.13054365045496"><ele>30.0</ele><time>2026-03-28T14:39:24Z</time></trkpt><trkpt lat="44.17485192984796" lon="12.130417679915912"><ele>29.0</ele><time>2026-03-28T14:39:25Z</time></trkpt><trkpt lat="44.174658966824815" lon="12.130281342323437"><ele>29.0</ele><time>2026-03-28T14:39:26Z</time></trkpt><trkpt lat="44.17446247236757" lon="12.130146219836696"><ele>29.0</ele><time>2026-03-28T14:39:27Z</time></trkpt><trkpt lat="44.17427493244011" lon="12.130019101752543"><ele>29.0</ele><time>2026-03-28T14:39:28Z</time></trkpt><trkpt lat="44.174089351519434" lon="12.129899189527274"><ele>29.333333333333332</ele><time>2026-03-28T14:39:29Z</time></trkpt><trkpt lat="44.17389794334715" lon="12.129782474646305"><ele>29.666666666666664</ele><time>2026-03-28T14:39:30Z</time></trkpt><trkpt lat="44.173694751607094" lon="12.129668982278965"><ele>30.0</ele><time>2026-03-28T14:39:31Z</time></trkpt><trkpt lat="44.173485104005785" lon="12.129565142230122"><ele>30.0</ele><time>2026-03-28T14:39:32Z</time></trkpt><trkpt lat="44.1732933435561" lon="12.12947528144653"><ele>30.0</ele><time>2026-03-28T14:39:33Z</time></trkpt><trkpt lat="44.17309482240069" lon="12.12938312948466"><ele>30.0</ele><time>2026-03-28T14:39:34Z</time></trkpt><trkpt lat="44.1728967405682" lon="12.129300468253403"><ele>30.5</ele><time>2026-03-28T14:39:35Z</time></trkpt><trkpt lat="44.17272789381683" lon="12.129212334410841"><ele>31.0</ele><time>2026-03-28T14:39:36Z</time></trkpt><trkpt lat="44.17259693240284" lon="12.12914696390277"><ele>31.5</ele><time>2026-03-28T14:39:37Z</time></trkpt><trkpt lat="44.17250297376209" lon="12.12910188358341"><ele>32.0</ele><time>2026-03-28T14:39:38Z</time></trkpt><trkpt lat="44.17242321739968" lon="12.129065459869922"><ele>32.0</ele><time>2026-03-28T14:39:39Z</time></trkpt><trkpt lat="44.172361204171416" lon="12.129041749047358"><ele>32.0</ele><time>2026-03-28T14:39:40Z</time></trkpt><trkpt lat="44.17220140838112" lon="12.12904071678198"><ele>32.0</ele><time>2026-03-28T14:39:43Z</time></trkpt><trkpt lat="44.172309186726544" lon="12.129335912995824"><ele>32.0</ele><time>2026-03-28T14:39:44Z</time></trkpt><trkpt lat="44.17229806168175" lon="12.129494157859494"><ele>32.0</ele><time>2026-03-28T14:39:45Z</time></trkpt><trkpt lat="44.17229377175936" lon="12.129667910296586"><ele>32.0</ele><time>2026-03-28T14:39:46Z</time></trkpt><trkpt lat="44.172289294585475" lon="12.12984776681919"><ele>32.0</ele><time>2026-03-28T14:39:47Z</time></trkpt><trkpt lat="44.172283792636854" lon="12.130068790358493"><ele>32.0</ele><time>2026-03-28T14:39:48Z</time></trkpt><trkpt lat="44.172293447090574" lon="12.130335293004721"><ele>32.0</ele><time>2026-03-28T14:39:49Z</time></trkpt><trkpt lat="44.17227638901841" lon="12.130610092519039"><ele>32.0</ele><time>2026-03-28T14:39:50Z</time></trkpt><trkpt lat="44.172266742222206" lon="12.130890258502518"><ele>31.0</ele><time>2026-03-28T14:39:51Z</time></trkpt><trkpt lat="44.172257875942314" lon="12.131177576026676"><ele>30.0</ele><time>2026-03-28T14:39:52Z</time></trkpt><trkpt lat="44.172250519676034" lon="12.131451375586716"><ele>29.0</ele><time>2026-03-28T14:39:53Z</time></trkpt><trkpt lat="44.17223923526766" lon="12.131724679811972"><ele>29.0</ele><time>2026-03-28T14:39:54Z</time></trkpt><trkpt lat="44.172232193886124" lon="12.132001678928338"><ele>29.0</ele><time>2026-03-28T14:39:55Z</time></trkpt><trkpt lat="44.17222228072893" lon="12.132278568613367"><ele>29.0</ele><time>2026-03-28T14:39:56Z</time></trkpt><trkpt lat="44.172214890414104" lon="12.132551807434051"><ele>28.666666666666664</ele><time>2026-03-28T14:39:57Z</time></trkpt><trkpt lat="44.172206639137045" lon="12.132813153914832"><ele>28.333333333333336</ele><time>2026-03-28T14:39:58Z</time></trkpt><trkpt lat="44.172184931712884" lon="12.133059139587102"><ele>28.0</ele><time>2026-03-28T14:39:59Z</time></trkpt><trkpt lat="44.17218045162779" lon="12.133290967055862"><ele>28.0</ele><time>2026-03-28T14:40:00Z</time></trkpt><trkpt lat="44.17217652957142" lon="12.133509880936765"><ele>28.0</ele><time>2026-03-28T14:40:01Z</time></trkpt><trkpt lat="44.17218651793132" lon="12.133715469075804"><ele>28.0</ele><time>2026-03-28T14:40:02Z</time></trkpt><trkpt lat="44.17217126675959" lon="12.13392110790816"><ele>28.333333333333336</ele><time>2026-03-28T14:40:03Z</time></trkpt><trkpt lat="44.17213947756115" lon="12.134129607222514"><ele>28.666666666666664</ele><time>2026-03-28T14:40:04Z</time></trkpt><trkpt lat="44.172091035950686" lon="12.134338126001683"><ele>29.0</ele><time>2026-03-28T14:40:05Z</time></trkpt><trkpt lat="44.17204179862819" lon="12.134570427384029"><ele>29.0</ele><time>2026-03-28T14:40:06Z</time></trkpt><trkpt lat="44.17202775479794" lon="12.134825677818341"><ele>29.0</ele><time>2026-03-28T14:40:07Z</time></trkpt><trkpt lat="44.17202681874891" lon="12.13507234796084"><ele>29.0</ele><time>2026-03-28T14:40:08Z</time></trkpt><trkpt lat="44.17202643180253" lon="12.135292442749208"><ele>29.0</ele><time>2026-03-28T14:40:09Z</time></trkpt><trkpt lat="44.17202807843437" lon="12.135484659813438"><ele>29.0</ele><time>2026-03-28T14:40:10Z</time></trkpt><trkpt lat="44.17203023182683" lon="12.135638187632141"><ele>29.0</ele><time>2026-03-28T14:40:11Z</time></trkpt><trkpt lat="44.172032649216526" lon="12.135761855224237"><ele>29.0</ele><time>2026-03-28T14:40:12Z</time></trkpt><trkpt lat="44.17202430921455" lon="12.135852440931417"><ele>29.0</ele><time>2026-03-28T14:40:13Z</time></trkpt><trkpt lat="44.1720067597643" lon="12.13594531105887"><ele>28.799999999999997</ele><time>2026-03-28T14:40:15Z</time></trkpt><trkpt lat="44.17189418276799" lon="12.135931227907138"><ele>28.599999999999998</ele><time>2026-03-28T14:40:16Z</time></trkpt><trkpt lat="44.171806429911356" lon="12.135944710355716"><ele>28.4</ele><time>2026-03-28T14:40:17Z</time></trkpt><trkpt lat="44.17172114741552" lon="12.135939189491737"><ele>28.2</ele><time>2026-03-28T14:40:18Z</time></trkpt><trkpt lat="44.17162635129338" lon="12.135937964649502"><ele>28.0</ele><time>2026-03-28T14:40:19Z</time></trkpt><trkpt lat="44.1715310783014" lon="12.135941339651067"><ele>28.0</ele><time>2026-03-28T14:40:20Z</time></trkpt><trkpt lat="44.17143242712209" lon="12.13594702861983"><ele>27.999999999999996</ele><time>2026-03-28T14:40:21Z</time></trkpt><trkpt lat="44.171327998155824" lon="12.135944305032258"><ele>27.999999999999996</ele><time>2026-03-28T14:40:22Z</time></trkpt><trkpt lat="44.171228071308384" lon="12.135942542799057"><ele>28.0</ele><time>2026-03-28T14:40:23Z</time></trkpt><trkpt lat="44.17110835813338" lon="12.135946589290198"><ele>28.0</ele><time>2026-03-28T14:40:24Z</time></trkpt><trkpt lat="44.170965910893294" lon="12.135944422453884"><ele>28.0</ele><time>2026-03-28T14:40:25Z</time></trkpt><trkpt lat="44.17084232955477" lon="12.135947710679512"><ele>28.0</ele><time>2026-03-28T14:40:26Z</time></trkpt><trkpt lat="44.170729283325116" lon="12.135949514026281"><ele>28.0</ele><time>2026-03-28T14:40:27Z</time></trkpt><trkpt lat="44.1706080267085" lon="12.135969485201096"><ele>28.0</ele><time>2026-03-28T14:40:28Z</time></trkpt><trkpt lat="44.170482170448274" lon="12.136002484707758"><ele>27.75</ele><time>2026-03-28T14:40:29Z</time></trkpt><trkpt lat="44.17035600307297" lon="12.13603722850787"><ele>27.5</ele><time>2026-03-28T14:40:30Z</time></trkpt><trkpt lat="44.17022695519623" lon="12.136083928899172"><ele>27.25</ele><time>2026-03-28T14:40:31Z</time></trkpt><trkpt lat="44.17009606681338" lon="12.136132281348866"><ele>27.0</ele><time>2026-03-28T14:40:32Z</time></trkpt><trkpt lat="44.16996478735171" lon="12.136180625360717"><ele>27.5</ele><time>2026-03-28T14:40:33Z</time></trkpt><trkpt lat="44.16983917451272" lon="12.136229433879375"><ele>28.0</ele><time>2026-03-28T14:40:34Z</time></trkpt><trkpt lat="44.16971065103323" lon="12.136273015295716"><ele>28.5</ele><time>2026-03-28T14:40:35Z</time></trkpt><trkpt lat="44.1695803019874" lon="12.13631670258166"><ele>29.0</ele><time>2026-03-28T14:40:36Z</time></trkpt><trkpt lat="44.16943703397052" lon="12.13636433386862"><ele>29.0</ele><time>2026-03-28T14:40:37Z</time></trkpt><trkpt lat="44.169287459946204" lon="12.136414716996157"><ele>29.0</ele><time>2026-03-28T14:40:38Z</time></trkpt><trkpt lat="44.16915790479991" lon="12.13645451608779"><ele>29.0</ele><time>2026-03-28T14:40:39Z</time></trkpt><trkpt lat="44.1690415593482" lon="12.136492174460667"><ele>29.0</ele><time>2026-03-28T14:40:40Z</time></trkpt><trkpt lat="44.168929277944635" lon="12.136533736597785"><ele>29.25</ele><time>2026-03-28T14:40:41Z</time></trkpt><trkpt lat="44.168817199326384" lon="12.136583259897726"><ele>29.5</ele><time>2026-03-28T14:40:42Z</time></trkpt><trkpt lat="44.1687012161073" lon="12.136637186691447"><ele>29.75</ele><time>2026-03-28T14:40:43Z</time></trkpt><trkpt lat="44.16858573516007" lon="12.136684897669355"><ele>30.0</ele><time>2026-03-28T14:40:44Z</time></trkpt><trkpt lat="44.16847445638633" lon="12.136718413593652"><ele>30.0</ele><time>2026-03-28T14:40:45Z</time></trkpt><trkpt lat="44.1683842282106" lon="12.136735675671794"><ele>30.0</ele><time>2026-03-28T14:40:46Z</time></trkpt><trkpt lat="44.16829594795347" lon="12.136744239733481"><ele>30.0</ele><time>2026-03-28T14:40:47Z</time></trkpt><trkpt lat="44.16820944537981" lon="12.136728138192973"><ele>30.0</ele><time>2026-03-28T14:40:48Z</time></trkpt><trkpt lat="44.16811882083226" lon="12.136676950804372"><ele>30.0</ele><time>2026-03-28T14:40:49Z</time></trkpt><trkpt lat="44.168008728928726" lon="12.13667027907825"><ele>30.75</ele><time>2026-03-28T14:40:50Z</time></trkpt><trkpt lat="44.16789420517448" lon="12.136658045153258"><ele>31.5</ele><time>2026-03-28T14:40:51Z</time></trkpt><trkpt lat="44.167784813601116" lon="12.136666184926975"><ele>32.25</ele><time>2026-03-28T14:40:52Z</time></trkpt><trkpt lat="44.16767453659277" lon="12.136670867684845"><ele>33.0</ele><time>2026-03-28T14:40:53Z</time></trkpt><trkpt lat="44.16755532628497" lon="12.136671301553479"><ele>33.0</ele><time>2026-03-28T14:40:54Z</time></trkpt><trkpt lat="44.16744911211864" lon="12.136678358490755"><ele>33.0</ele><time>2026-03-28T14:40:55Z</time></trkpt><trkpt lat="44.16734553335821" lon="12.136687968897618"><ele>33.0</ele><time>2026-03-28T14:40:56Z</time></trkpt><trkpt lat="44.167243685312044" lon="12.136688874434304"><ele>33.0</ele><time>2026-03-28T14:40:57Z</time></trkpt><trkpt lat="44.16713920673497" lon="12.136708702676227"><ele>33.0</ele><time>2026-03-28T14:40:58Z</time></trkpt><trkpt lat="44.16702556559243" lon="12.136741585974164"><ele>34.0</ele><time>2026-03-28T14:40:59Z</time></trkpt><trkpt lat="44.166917090786065" lon="12.136783098165958"><ele>35.0</ele><time>2026-03-28T14:41:00Z</time></trkpt><trkpt lat="44.16682233970505" lon="12.13683288728686"><ele>36.0</ele><time>2026-03-28T14:41:01Z</time></trkpt><trkpt lat="44.16673962252773" lon="12.13687959220016"><ele>37.0</ele><time>2026-03-28T14:41:02Z</time></trkpt><trkpt lat="44.166660917532376" lon="12.136929636476244"><ele>38.0</ele><time>2026-03-28T14:41:03Z</time></trkpt><trkpt lat="44.16657318774823" lon="12.136969271342675"><ele>38.83333333333333</ele><time>2026-03-28T14:41:04Z</time></trkpt><trkpt lat="44.16648472391005" lon="12.13701549155544"><ele>39.666666666666664</ele><time>2026-03-28T14:41:05Z</time></trkpt><trkpt lat="44.16640024972915" lon="12.137056929955373"><ele>40.5</ele><time>2026-03-28T14:41:06Z</time></trkpt><trkpt lat="44.166318869703915" lon="12.137085487682636"><ele>41.333333333333336</ele><time>2026-03-28T14:41:07Z</time></trkpt><trkpt lat="44.16623614489686" lon="12.137101237063426"><ele>42.16666666666667</ele><time>2026-03-28T14:41:08Z</time></trkpt><trkpt lat="44.16614885902647" lon="12.137151085618695"><ele>43.0</ele><time>2026-03-28T14:41:09Z</time></trkpt><trkpt lat="44.16605820802448" lon="12.137172921737596"><ele>43.0</ele><time>2026-03-28T14:41:10Z</time></trkpt><trkpt lat="44.16596834094928" lon="12.137198385878605"><ele>43.0</ele><time>2026-03-28T14:41:11Z</time></trkpt><trkpt lat="44.165865239774945" lon="12.137213584155994"><ele>43.0</ele><time>2026-03-28T14:41:12Z</time></trkpt><trkpt lat="44.16576429233626" lon="12.13723682174402"><ele>43.0</ele><time>2026-03-28T14:41:13Z</time></trkpt><trkpt lat="44.165665601566985" lon="12.13726174549482"><ele>43.0</ele><time>2026-03-28T14:41:14Z</time></trkpt><trkpt lat="44.16555854909021" lon="12.137274465582687"><ele>43.0</ele><time>2026-03-28T14:41:15Z</time></trkpt><trkpt lat="44.16545555715521" lon="12.137302041641393"><ele>43.0</ele><time>2026-03-28T14:41:16Z</time></trkpt><trkpt lat="44.165365104594045" lon="12.137311518059237"><ele>43.0</ele><time>2026-03-28T14:41:17Z</time></trkpt><trkpt lat="44.16528179596194" lon="12.137318801209805"><ele>43.0</ele><time>2026-03-28T14:41:18Z</time></trkpt><trkpt lat="44.1652128853394" lon="12.137307014458809"><ele>43.0</ele><time>2026-03-28T14:41:19Z</time></trkpt><trkpt lat="44.165149790385904" lon="12.137362041458816"><ele>43.0</ele><time>2026-03-28T14:41:20Z</time></trkpt><trkpt lat="44.16508790715276" lon="12.137243759368578"><ele>43.0</ele><time>2026-03-28T14:41:21Z</time></trkpt><trkpt lat="44.16502495566321" lon="12.137202118941662"><ele>43.0</ele><time>2026-03-28T14:41:22Z</time></trkpt><trkpt lat="44.164955159684695" lon="12.137169501758395"><ele>43.0</ele><time>2026-03-28T14:41:23Z</time></trkpt><trkpt lat="44.164885801335465" lon="12.137128724541949"><ele>43.0</ele><time>2026-03-28T14:41:24Z</time></trkpt><trkpt lat="44.164807780596156" lon="12.137084725417932"><ele>43.0</ele><time>2026-03-28T14:41:25Z</time></trkpt><trkpt lat="44.164726804382944" lon="12.137047069421538"><ele>43.0</ele><time>2026-03-28T14:41:26Z</time></trkpt><trkpt lat="44.164657158287916" lon="12.137011377234593"><ele>42.833333333333336</ele><time>2026-03-28T14:41:27Z</time></trkpt><trkpt lat="44.16457715980607" lon="12.1369777565105"><ele>42.66666666666667</ele><time>2026-03-28T14:41:28Z</time></trkpt><trkpt lat="44.16451374836108" lon="12.136946447305286"><ele>42.5</ele><time>2026-03-28T14:41:29Z</time></trkpt><trkpt lat="44.16444118269876" lon="12.136912762192711"><ele>42.333333333333336</ele><time>2026-03-28T14:41:30Z</time></trkpt><trkpt lat="44.16437537911223" lon="12.136878861437875"><ele>42.166666666666664</ele><time>2026-03-28T14:41:31Z</time></trkpt><trkpt lat="44.16430117444122" lon="12.136846327459391"><ele>42.0</ele><time>2026-03-28T14:41:32Z</time></trkpt><trkpt lat="44.164218421013324" lon="12.136810860691444"><ele>42.0</ele><time>2026-03-28T14:41:33Z</time></trkpt><trkpt lat="44.16413081183362" lon="12.13676816754402"><ele>42.0</ele><time>2026-03-28T14:41:34Z</time></trkpt><trkpt lat="44.16404571683577" lon="12.136729600666186"><ele>42.0</ele><time>2026-03-28T14:41:35Z</time></trkpt><trkpt lat="44.163966289326744" lon="12.136695177160691"><ele>42.0</ele><time>2026-03-28T14:41:36Z</time></trkpt><trkpt lat="44.16389268593289" lon="12.136661480959363"><ele>42.0</ele><time>2026-03-28T14:41:37Z</time></trkpt><trkpt lat="44.163808529308994" lon="12.136620901293822"><ele>42.0</ele><time>2026-03-28T14:41:38Z</time></trkpt><trkpt lat="44.16372630506283" lon="12.136583720398567"><ele>41.833333333333336</ele><time>2026-03-28T14:41:39Z</time></trkpt><trkpt lat="44.16364799002884" lon="12.136551197603405"><ele>41.666666666666664</ele><time>2026-03-28T14:41:40Z</time></trkpt><trkpt lat="44.163571572919466" lon="12.136520176484652"><ele>41.5</ele><time>2026-03-28T14:41:41Z</time></trkpt><trkpt lat="44.16349637749216" lon="12.136485278586296"><ele>41.33333333333333</ele><time>2026-03-28T14:41:42Z</time></trkpt><trkpt lat="44.163424232344106" lon="12.136444406686785"><ele>41.166666666666664</ele><time>2026-03-28T14:41:43Z</time></trkpt><trkpt lat="44.16332531203373" lon="12.136403655777606"><ele>41.0</ele><time>2026-03-28T14:41:44Z</time></trkpt><trkpt lat="44.16324038206883" lon="12.136361856115915"><ele>41.0</ele><time>2026-03-28T14:41:45Z</time></trkpt><trkpt lat="44.163140401230564" lon="12.136319705943638"><ele>41.0</ele><time>2026-03-28T14:41:46Z</time></trkpt><trkpt lat="44.163043599650194" lon="12.136282980333787"><ele>41.0</ele><time>2026-03-28T14:41:47Z</time></trkpt><trkpt lat="44.16294982960069" lon="12.136239849043262"><ele>41.0</ele><time>2026-03-28T14:41:48Z</time></trkpt><trkpt lat="44.16285848040641" lon="12.136190109241578"><ele>41.0</ele><time>2026-03-28T14:41:49Z</time></trkpt><trkpt lat="44.162754821403055" lon="12.136143307173857"><ele>41.0</ele><time>2026-03-28T14:41:50Z</time></trkpt><trkpt lat="44.162654501256526" lon="12.136084177830307"><ele>41.0</ele><time>2026-03-28T14:41:51Z</time></trkpt><trkpt lat="44.16254625354863" lon="12.136045191962024"><ele>41.0</ele><time>2026-03-28T14:41:52Z</time></trkpt><trkpt lat="44.1624478254144" lon="12.135995958557796"><ele>41.0</ele><time>2026-03-28T14:41:53Z</time></trkpt><trkpt lat="44.16234493175956" lon="12.135956366440922"><ele>41.0</ele><time>2026-03-28T14:41:54Z</time></trkpt><trkpt lat="44.162232940117654" lon="12.13590834090085"><ele>41.0</ele><time>2026-03-28T14:41:55Z</time></trkpt><trkpt lat="44.16211684031532" lon="12.13585389719021"><ele>41.0</ele><time>2026-03-28T14:41:56Z</time></trkpt><trkpt lat="44.1620174369212" lon="12.135827609909983"><ele>41.0</ele><time>2026-03-28T14:41:57Z</time></trkpt><trkpt lat="44.16191444176711" lon="12.135784940052826"><ele>41.0</ele><time>2026-03-28T14:41:58Z</time></trkpt><trkpt lat="44.161810712839454" lon="12.135748918853213"><ele>41.0</ele><time>2026-03-28T14:41:59Z</time></trkpt><trkpt lat="44.16170117872955" lon="12.135711083953394"><ele>41.0</ele><time>2026-03-28T14:42:00Z</time></trkpt><trkpt lat="44.1615961947181" lon="12.135682070250068"><ele>41.0</ele><time>2026-03-28T14:42:01Z</time></trkpt><trkpt lat="44.161489532859605" lon="12.135658664751551"><ele>41.0</ele><time>2026-03-28T14:42:02Z</time></trkpt><trkpt lat="44.16138186990713" lon="12.135637655822638"><ele>41.0</ele><time>2026-03-28T14:42:03Z</time></trkpt><trkpt lat="44.16126084243473" lon="12.13560944055249"><ele>41.0</ele><time>2026-03-28T14:42:04Z</time></trkpt><trkpt lat="44.161138592308646" lon="12.135594000864792"><ele>41.8</ele><time>2026-03-28T14:42:05Z</time></trkpt><trkpt lat="44.1610301516653" lon="12.135586140688753"><ele>42.599999999999994</ele><time>2026-03-28T14:42:06Z</time></trkpt><trkpt lat="44.16094130587574" lon="12.135579526462948"><ele>43.4</ele><time>2026-03-28T14:42:07Z</time></trkpt><trkpt lat="44.160870354870845" lon="12.135570709492853"><ele>44.2</ele><time>2026-03-28T14:42:08Z</time></trkpt><trkpt lat="44.160769453327866" lon="12.135560128469816"><ele>45.0</ele><time>2026-03-28T14:42:10Z</time></trkpt><trkpt lat="44.160691110867084" lon="12.135595769490541"><ele>46.4</ele><time>2026-03-28T14:42:12Z</time></trkpt><trkpt lat="44.16062044116565" lon="12.135653644821417"><ele>47.8</ele><time>2026-03-28T14:42:17Z</time></trkpt><trkpt lat="44.16053373953762" lon="12.135697706781967"><ele>49.2</ele><time>2026-03-28T14:42:18Z</time></trkpt><trkpt lat="44.16044135212996" lon="12.135729282202393"><ele>50.6</ele><time>2026-03-28T14:42:19Z</time></trkpt><trkpt lat="44.16035562922194" lon="12.135751440249845"><ele>52.0</ele><time>2026-03-28T14:42:20Z</time></trkpt><trkpt lat="44.160263738896724" lon="12.135773750341144"><ele>52.0</ele><time>2026-03-28T14:42:21Z</time></trkpt><trkpt lat="44.16016364285407" lon="12.135809948084063"><ele>52.0</ele><time>2026-03-28T14:42:22Z</time></trkpt><trkpt lat="44.16005999180399" lon="12.135838461253622"><ele>52.0</ele><time>2026-03-28T14:42:23Z</time></trkpt><trkpt lat="44.15994311571231" lon="12.135854248249245"><ele>52.0</ele><time>2026-03-28T14:42:24Z</time></trkpt><trkpt lat="44.15980233291762" lon="12.13589077743233"><ele>53.0</ele><time>2026-03-28T14:42:25Z</time></trkpt><trkpt lat="44.15965677447792" lon="12.13591594073571"><ele>54.0</ele><time>2026-03-28T14:42:26Z</time></trkpt><trkpt lat="44.1595209509246" lon="12.135970706041027"><ele>55.0</ele><time>2026-03-28T14:42:27Z</time></trkpt><trkpt lat="44.15939408514529" lon="12.136027183358385"><ele>56.0</ele><time>2026-03-28T14:42:28Z</time></trkpt><trkpt lat="44.15925050208118" lon="12.136095549558775"><ele>56.0</ele><time>2026-03-28T14:42:29Z</time></trkpt><trkpt lat="44.15910980505663" lon="12.136157557002221"><ele>56.0</ele><time>2026-03-28T14:42:30Z</time></trkpt><trkpt lat="44.15898097239772" lon="12.136204520661089"><ele>56.0</ele><time>2026-03-28T14:42:31Z</time></trkpt><trkpt lat="44.158875558019886" lon="12.136241150753188"><ele>56.0</ele><time>2026-03-28T14:42:32Z</time></trkpt><trkpt lat="44.15876197926284" lon="12.136268308834468"><ele>59.199999999999996</ele><time>2026-03-28T14:42:33Z</time></trkpt><trkpt lat="44.15864459924388" lon="12.136281790888669"><ele>62.39999999999999</ele><time>2026-03-28T14:42:34Z</time></trkpt><trkpt lat="44.15854823738413" lon="12.136267277242757"><ele>65.6</ele><time>2026-03-28T14:42:35Z</time></trkpt><trkpt lat="44.15844900259085" lon="12.136242363867208"><ele>68.8</ele><time>2026-03-28T14:42:36Z</time></trkpt><trkpt lat="44.158337207310325" lon="12.136190749160349"><ele>72.0</ele><time>2026-03-28T14:42:37Z</time></trkpt><trkpt lat="44.158214671035" lon="12.136139795264377"><ele>74.5</ele><time>2026-03-28T14:42:38Z</time></trkpt><trkpt lat="44.158138904444975" lon="12.136101476761565"><ele>77.0</ele><time>2026-03-28T14:42:39Z</time></trkpt><trkpt lat="44.15806503066013" lon="12.136123054084853"><ele>79.5</ele><time>2026-03-28T14:42:41Z</time></trkpt><trkpt lat="44.1580090224599" lon="12.136212295251726"><ele>82.0</ele><time>2026-03-28T14:42:43Z</time></trkpt><trkpt lat="44.157994848869954" lon="12.136298951906223"><ele>84.5</ele><time>2026-03-28T14:42:44Z</time></trkpt><trkpt lat="44.15797936895551" lon="12.136409572066814"><ele>87.0</ele><time>2026-03-28T14:42:45Z</time></trkpt><trkpt lat="44.157953132182364" lon="12.136530544548128"><ele>88.19999999999999</ele><time>2026-03-28T14:42:46Z</time></trkpt><trkpt lat="44.15793121782166" lon="12.136652638326515"><ele>89.4</ele><time>2026-03-28T14:42:47Z</time></trkpt><trkpt lat="44.157887279711396" lon="12.136769685981049"><ele>90.6</ele><time>2026-03-28T14:42:48Z</time></trkpt><trkpt lat="44.157838342454355" lon="12.136941005325914"><ele>91.80000000000001</ele><time>2026-03-28T14:42:50Z</time></trkpt><trkpt lat="44.15778647664804" lon="12.137031300112747"><ele>93.0</ele><time>2026-03-28T14:42:51Z</time></trkpt><trkpt lat="44.15773147681526" lon="12.137118999868166"><ele>93.0</ele><time>2026-03-28T14:42:52Z</time></trkpt><trkpt lat="44.157678966088206" lon="12.137202867582264"><ele>93.0</ele><time>2026-03-28T14:42:53Z</time></trkpt><trkpt lat="44.157637775615036" lon="12.137294691596056"><ele>93.0</ele><time>2026-03-28T14:42:54Z</time></trkpt><trkpt lat="44.157580089699" lon="12.137375445337485"><ele>93.0</ele><time>2026-03-28T14:42:55Z</time></trkpt><trkpt lat="44.157525249962205" lon="12.13743305244218"><ele>93.0</ele><time>2026-03-28T14:42:56Z</time></trkpt><trkpt lat="44.15741801194661" lon="12.137467515763012"><ele>93.0</ele><time>2026-03-28T14:42:58Z</time></trkpt><trkpt lat="44.157296325074384" lon="12.137472492359572"><ele>95.16666666666667</ele><time>2026-03-28T14:43:00Z</time></trkpt><trkpt lat="44.1572153926389" lon="12.137448257151206"><ele>97.33333333333334</ele><time>2026-03-28T14:43:02Z</time></trkpt><trkpt lat="44.15714427234005" lon="12.137392889846572"><ele>99.5</ele><time>2026-03-28T14:43:04Z</time></trkpt><trkpt lat="44.15709144116982" lon="12.137338246668088"><ele>101.66666666666667</ele><time>2026-03-28T14:43:05Z</time></trkpt><trkpt lat="44.15701410412918" lon="12.137268298334757"><ele>103.83333333333334</ele><time>2026-03-28T14:43:06Z</time></trkpt><trkpt lat="44.15694153767123" lon="12.137184499190473"><ele>106.0</ele><time>2026-03-28T14:43:07Z</time></trkpt><trkpt lat="44.15686070645106" lon="12.137109181855"><ele>106.0</ele><time>2026-03-28T14:43:08Z</time></trkpt><trkpt lat="44.15675118866693" lon="12.13700885008795"><ele>106.0</ele><time>2026-03-28T14:43:09Z</time></trkpt><trkpt lat="44.15663620061639" lon="12.13688479981378"><ele>106.0</ele><time>2026-03-28T14:43:10Z</time></trkpt><trkpt lat="44.15652871371621" lon="12.136744488791912"><ele>106.0</ele><time>2026-03-28T14:43:11Z</time></trkpt><trkpt lat="44.156401268125535" lon="12.136589674389308"><ele>108.5</ele><time>2026-03-28T14:43:12Z</time></trkpt><trkpt lat="44.15628705562887" lon="12.136452665879675"><ele>111.0</ele><time>2026-03-28T14:43:13Z</time></trkpt><trkpt lat="44.15617572388083" lon="12.136330166524653"><ele>113.5</ele><time>2026-03-28T14:43:14Z</time></trkpt><trkpt lat="44.156076560579706" lon="12.136188931580858"><ele>116.0</ele><time>2026-03-28T14:43:15Z</time></trkpt><trkpt lat="44.15597464883933" lon="12.136059599979173"><ele>116.0</ele><time>2026-03-28T14:43:16Z</time></trkpt><trkpt lat="44.155879089934025" lon="12.135964422890819"><ele>116.0</ele><time>2026-03-28T14:43:17Z</time></trkpt><trkpt lat="44.15577975376223" lon="12.135881481713312"><ele>116.0</ele><time>2026-03-28T14:43:18Z</time></trkpt><trkpt lat="44.15568873292025" lon="12.135824568262384"><ele>116.0</ele><time>2026-03-28T14:43:19Z</time></trkpt><trkpt lat="44.15560321468816" lon="12.135790916486338"><ele>116.0</ele><time>2026-03-28T14:43:20Z</time></trkpt><trkpt lat="44.15548911444974" lon="12.135785933423527"><ele>117.66666666666666</ele><time>2026-03-28T14:43:21Z</time></trkpt><trkpt lat="44.15536576828075" lon="12.135800752140467"><ele>119.33333333333333</ele><time>2026-03-28T14:43:22Z</time></trkpt><trkpt lat="44.15526807855551" lon="12.13583018411403"><ele>121.0</ele><time>2026-03-28T14:43:23Z</time></trkpt><trkpt lat="44.15520472205586" lon="12.135837142384494"><ele>122.66666666666666</ele><time>2026-03-28T14:43:24Z</time></trkpt><trkpt lat="44.1551470455456" lon="12.135873814384396"><ele>124.33333333333333</ele><time>2026-03-28T14:43:25Z</time></trkpt><trkpt lat="44.155066988251804" lon="12.135919159513827"><ele>126.0</ele><time>2026-03-28T14:43:26Z</time></trkpt><trkpt lat="44.154967015719706" lon="12.135943624189036"><ele>126.0</ele><time>2026-03-28T14:43:27Z</time></trkpt><trkpt lat="44.15488972336718" lon="12.135976448001514"><ele>126.0</ele><time>2026-03-28T14:43:28Z</time></trkpt><trkpt lat="44.15482240728895" lon="12.136013431125535"><ele>126.0</ele><time>2026-03-28T14:43:29Z</time></trkpt><trkpt lat="44.15474598429374" lon="12.13606531749835"><ele>126.0</ele><time>2026-03-28T14:43:30Z</time></trkpt><trkpt lat="44.154672225533844" lon="12.1361361596552"><ele>126.0</ele><time>2026-03-28T14:43:31Z</time></trkpt><trkpt lat="44.15459437725984" lon="12.136218402405087"><ele>126.0</ele><time>2026-03-28T14:43:32Z</time></trkpt><trkpt lat="44.15449499175569" lon="12.136299453727078"><ele>126.4</ele><time>2026-03-28T14:43:33Z</time></trkpt><trkpt lat="44.15441375277634" lon="12.136328824933214"><ele>126.8</ele><time>2026-03-28T14:43:34Z</time></trkpt><trkpt lat="44.154327692040255" lon="12.136362239194133"><ele>127.20000000000002</ele><time>2026-03-28T14:43:35Z</time></trkpt><trkpt lat="44.15423340810856" lon="12.136391246601066"><ele>127.60000000000001</ele><time>2026-03-28T14:43:36Z</time></trkpt><trkpt lat="44.15410407709033" lon="12.136425000429622"><ele>128.0</ele><time>2026-03-28T14:43:37Z</time></trkpt><trkpt lat="44.1539591925293" lon="12.136462950161608"><ele>130.33333333333331</ele><time>2026-03-28T14:43:38Z</time></trkpt><trkpt lat="44.15379979715921" lon="12.136482787865873"><ele>132.66666666666666</ele><time>2026-03-28T14:43:39Z</time></trkpt><trkpt lat="44.15363692894392" lon="12.136520358790808"><ele>135.0</ele><time>2026-03-28T14:43:40Z</time></trkpt><trkpt lat="44.15348797026994" lon="12.136559124892276"><ele>135.0</ele><time>2026-03-28T14:43:41Z</time></trkpt><trkpt lat="44.15334654818123" lon="12.136537773862123"><ele>135.0</ele><time>2026-03-28T14:43:42Z</time></trkpt><trkpt lat="44.15320566026883" lon="12.136563120473609"><ele>135.0</ele><time>2026-03-28T14:43:43Z</time></trkpt><trkpt lat="44.1531069231579" lon="12.136530884722754"><ele>135.0</ele><time>2026-03-28T14:43:44Z</time></trkpt><trkpt lat="44.15301369808671" lon="12.136585632000866"><ele>138.8</ele><time>2026-03-28T14:43:45Z</time></trkpt><trkpt lat="44.15291029561092" lon="12.136619735758046"><ele>142.6</ele><time>2026-03-28T14:43:46Z</time></trkpt><trkpt lat="44.15283648043659" lon="12.136659836175463"><ele>146.4</ele><time>2026-03-28T14:43:47Z</time></trkpt><trkpt lat="44.15273697965719" lon="12.13678803752121"><ele>150.2</ele><time>2026-03-28T14:43:49Z</time></trkpt><trkpt lat="44.15266919047786" lon="12.13690901073807"><ele>154.0</ele><time>2026-03-28T14:43:50Z</time></trkpt><trkpt lat="44.15258155064689" lon="12.136996429108688"><ele>154.0</ele><time>2026-03-28T14:43:51Z</time></trkpt><trkpt lat="44.15253151817644" lon="12.13705210288528"><ele>154.0</ele><time>2026-03-28T14:43:52Z</time></trkpt><trkpt lat="44.152460591930385" lon="12.137137487495623"><ele>154.0</ele><time>2026-03-28T14:43:54Z</time></trkpt><trkpt lat="44.152361849447026" lon="12.137026986664369"><ele>154.0</ele><time>2026-03-28T14:43:57Z</time></trkpt><trkpt lat="44.152310107386306" lon="12.136919993163943"><ele>154.0</ele><time>2026-03-28T14:43:58Z</time></trkpt><trkpt lat="44.15225918615387" lon="12.136791166225532"><ele>155.25</ele><time>2026-03-28T14:43:59Z</time></trkpt><trkpt lat="44.15217574867164" lon="12.136650446093014"><ele>156.5</ele><time>2026-03-28T14:44:00Z</time></trkpt><trkpt lat="44.15208679249551" lon="12.136479698552225"><ele>157.75</ele><time>2026-03-28T14:44:01Z</time></trkpt><trkpt lat="44.15199892305041" lon="12.136306316177153"><ele>159.0</ele><time>2026-03-28T14:44:02Z</time></trkpt><trkpt lat="44.15191168426639" lon="12.13615147827594"><ele>159.0</ele><time>2026-03-28T14:44:03Z</time></trkpt><trkpt lat="44.15185748699592" lon="12.135986472422555"><ele>159.0</ele><time>2026-03-28T14:44:04Z</time></trkpt><trkpt lat="44.151822996986134" lon="12.135828461734455"><ele>159.0</ele><time>2026-03-28T14:44:05Z</time></trkpt><trkpt lat="44.151795791392686" lon="12.135670147951261"><ele>159.0</ele><time>2026-03-28T14:44:06Z</time></trkpt><trkpt lat="44.151809098330055" lon="12.135509825376879"><ele>158.25</ele><time>2026-03-28T14:44:07Z</time></trkpt><trkpt lat="44.151836818733265" lon="12.135349486378313"><ele>157.5</ele><time>2026-03-28T14:44:08Z</time></trkpt><trkpt lat="44.15189917701011" lon="12.13518678625833"><ele>156.75</ele><time>2026-03-28T14:44:09Z</time></trkpt><trkpt lat="44.15201311640506" lon="12.135039335659528"><ele>156.0</ele><time>2026-03-28T14:44:10Z</time></trkpt><trkpt lat="44.15212966030589" lon="12.134883279880903"><ele>154.75</ele><time>2026-03-28T14:44:11Z</time></trkpt><trkpt lat="44.15223288217098" lon="12.13472097423478"><ele>153.5</ele><time>2026-03-28T14:44:12Z</time></trkpt><trkpt lat="44.15231962507796" lon="12.134589275811788"><ele>152.25</ele><time>2026-03-28T14:44:13Z</time></trkpt><trkpt lat="44.152378056000124" lon="12.134438416672172"><ele>151.0</ele><time>2026-03-28T14:44:14Z</time></trkpt><trkpt lat="44.15242098823046" lon="12.134237862745024"><ele>150.0</ele><time>2026-03-28T14:44:15Z</time></trkpt><trkpt lat="44.15246442417064" lon="12.134011610454747"><ele>149.0</ele><time>2026-03-28T14:44:16Z</time></trkpt><trkpt lat="44.15250458797313" lon="12.13377471215283"><ele>148.0</ele><time>2026-03-28T14:44:17Z</time></trkpt><trkpt lat="44.152566995231886" lon="12.133552182124877"><ele>148.0</ele><time>2026-03-28T14:44:18Z</time></trkpt><trkpt lat="44.152605506563305" lon="12.133346290695538"><ele>148.0</ele><time>2026-03-28T14:44:19Z</time></trkpt><trkpt lat="44.15265219333965" lon="12.133162346855661"><ele>148.0</ele><time>2026-03-28T14:44:20Z</time></trkpt><trkpt lat="44.15271067423798" lon="12.132983703970432"><ele>148.0</ele><time>2026-03-28T14:44:21Z</time></trkpt><trkpt lat="44.152773825652446" lon="12.132816078861183"><ele>148.0</ele><time>2026-03-28T14:44:22Z</time></trkpt><trkpt lat="44.152840333630984" lon="12.132662755282293"><ele>148.0</ele><time>2026-03-28T14:44:23Z</time></trkpt><trkpt lat="44.15293044909385" lon="12.132532127851519"><ele>148.0</ele><time>2026-03-28T14:44:24Z</time></trkpt><trkpt lat="44.15300875020476" lon="12.132405584819704"><ele>148.0</ele><time>2026-03-28T14:44:25Z</time></trkpt><trkpt lat="44.15308379397593" lon="12.132274534522846"><ele>149.0</ele><time>2026-03-28T14:44:26Z</time></trkpt><trkpt lat="44.15315715881917" lon="12.132147202756965"><ele>150.0</ele><time>2026-03-28T14:44:27Z</time></trkpt><trkpt lat="44.15323074311038" lon="12.132019112805093"><ele>151.0</ele><time>2026-03-28T14:44:28Z</time></trkpt><trkpt lat="44.15330394480625" lon="12.131900667508964"><ele>152.0</ele><time>2026-03-28T14:44:29Z</time></trkpt><trkpt lat="44.153376825372796" lon="12.131784973222585"><ele>148.2</ele><time>2026-03-28T14:44:30Z</time></trkpt><trkpt lat="44.153441674549356" lon="12.131673697499696"><ele>144.39999999999998</ele><time>2026-03-28T14:44:31Z</time></trkpt><trkpt lat="44.153503086893984" lon="12.13157175571198"><ele>140.60000000000002</ele><time>2026-03-28T14:44:32Z</time></trkpt><trkpt lat="44.15356257953718" lon="12.13147492121186"><ele>136.8</ele><time>2026-03-28T14:44:33Z</time></trkpt><trkpt lat="44.153611817546874" lon="12.131392191846315"><ele>133.0</ele><time>2026-03-28T14:44:34Z</time></trkpt><trkpt lat="44.153681531148706" lon="12.131302480151803"><ele>133.0</ele><time>2026-03-28T14:44:36Z</time></trkpt><trkpt lat="44.15354720147422" lon="12.131344194641656"><ele>133.0</ele><time>2026-03-28T14:44:41Z</time></trkpt><trkpt lat="44.15348484630558" lon="12.131563214065444"><ele>133.0</ele><time>2026-03-28T14:47:07Z</time></trkpt><trkpt lat="44.15342504897515" lon="12.131655209833296"><ele>133.0</ele><time>2026-03-28T14:47:08Z</time></trkpt><trkpt lat="44.15334409810441" lon="12.131783702369042"><ele>133.0</ele><time>2026-03-28T14:47:09Z</time></trkpt><trkpt lat="44.15326104280038" lon="12.131927114208295"><ele>133.0</ele><time>2026-03-28T14:47:10Z</time></trkpt><trkpt lat="44.15315730696178" lon="12.132085184342028"><ele>133.0</ele><time>2026-03-28T14:47:11Z</time></trkpt><trkpt lat="44.15304742114519" lon="12.132276337004589"><ele>138.0</ele><time>2026-03-28T14:47:12Z</time></trkpt><trkpt lat="44.15294363239883" lon="12.132463532959697"><ele>143.0</ele><time>2026-03-28T14:47:13Z</time></trkpt><trkpt lat="44.15283484017293" lon="12.132669346753504"><ele>148.0</ele><time>2026-03-28T14:47:14Z</time></trkpt><trkpt lat="44.152730974772716" lon="12.132881722728317"><ele>148.0</ele><time>2026-03-28T14:47:15Z</time></trkpt><trkpt lat="44.152641246588715" lon="12.13310684182092"><ele>148.0</ele><time>2026-03-28T14:47:16Z</time></trkpt><trkpt lat="44.15257192263909" lon="12.133348913112624"><ele>148.0</ele><time>2026-03-28T14:47:17Z</time></trkpt><trkpt lat="44.1525202694695" lon="12.133628124468963"><ele>148.0</ele><time>2026-03-28T14:47:18Z</time></trkpt><trkpt lat="44.152475286134624" lon="12.13389886215462"><ele>148.0</ele><time>2026-03-28T14:47:19Z</time></trkpt><trkpt lat="44.1524244119639" lon="12.134139960988104"><ele>148.0</ele><time>2026-03-28T14:47:20Z</time></trkpt><trkpt lat="44.15237640026267" lon="12.134352430555818"><ele>152.66666666666669</ele><time>2026-03-28T14:47:21Z</time></trkpt><trkpt lat="44.152315882411465" lon="12.13455010965719"><ele>157.33333333333334</ele><time>2026-03-28T14:47:22Z</time></trkpt><trkpt lat="44.15221574544834" lon="12.134713903283506"><ele>162.0</ele><time>2026-03-28T14:47:23Z</time></trkpt><trkpt lat="44.15209294139129" lon="12.134863851687202"><ele>160.0</ele><time>2026-03-28T14:47:24Z</time></trkpt><trkpt lat="44.15197091788163" lon="12.13503268407977"><ele>158.0</ele><time>2026-03-28T14:47:25Z</time></trkpt><trkpt lat="44.15187283335139" lon="12.13519459451092"><ele>156.0</ele><time>2026-03-28T14:47:26Z</time></trkpt><trkpt lat="44.15179583130443" lon="12.13538625418824"><ele>156.0</ele><time>2026-03-28T14:47:27Z</time></trkpt><trkpt lat="44.15176748796043" lon="12.13557449676294"><ele>156.0</ele><time>2026-03-28T14:47:28Z</time></trkpt><trkpt lat="44.15177606483335" lon="12.135783591481795"><ele>156.0</ele><time>2026-03-28T14:47:29Z</time></trkpt><trkpt lat="44.15181043273114" lon="12.13598556883773"><ele>156.0</ele><time>2026-03-28T14:47:30Z</time></trkpt><trkpt lat="44.15186443528404" lon="12.136165857741744"><ele>157.0</ele><time>2026-03-28T14:47:31Z</time></trkpt><trkpt lat="44.151956303804425" lon="12.13634575545058"><ele>158.0</ele><time>2026-03-28T14:47:32Z</time></trkpt><trkpt lat="44.152066889142105" lon="12.136522646144794"><ele>159.0</ele><time>2026-03-28T14:47:33Z</time></trkpt><trkpt lat="44.15217913005722" lon="12.13672567325209"><ele>159.0</ele><time>2026-03-28T14:47:34Z</time></trkpt><trkpt lat="44.152286304745616" lon="12.136937026706255"><ele>159.0</ele><time>2026-03-28T14:47:35Z</time></trkpt><trkpt lat="44.15240282143144" lon="12.137157890871288"><ele>159.0</ele><time>2026-03-28T14:47:36Z</time></trkpt><trkpt lat="44.15252228394745" lon="12.137390576194647"><ele>159.0</ele><time>2026-03-28T14:47:37Z</time></trkpt><trkpt lat="44.152609241860425" lon="12.137618566874"><ele>159.0</ele><time>2026-03-28T14:47:38Z</time></trkpt><trkpt lat="44.15266770034373" lon="12.137820124469663"><ele>159.0</ele><time>2026-03-28T14:47:39Z</time></trkpt><trkpt lat="44.15270260787673" lon="12.138012679160015"><ele>159.0</ele><time>2026-03-28T14:47:40Z</time></trkpt><trkpt lat="44.152692298113735" lon="12.138201539858061"><ele>159.0</ele><time>2026-03-28T14:47:41Z</time></trkpt><trkpt lat="44.152640110886246" lon="12.138373679061287"><ele>159.0</ele><time>2026-03-28T14:47:42Z</time></trkpt><trkpt lat="44.15256500267774" lon="12.138514659392163"><ele>159.0</ele><time>2026-03-28T14:47:43Z</time></trkpt><trkpt lat="44.15246910327302" lon="12.13857575593396"><ele>160.25</ele><time>2026-03-28T14:47:44Z</time></trkpt><trkpt lat="44.15237943416101" lon="12.13859126639014"><ele>161.5</ele><time>2026-03-28T14:47:45Z</time></trkpt><trkpt lat="44.15227372141413" lon="12.138594204570541"><ele>162.75</ele><time>2026-03-28T14:47:46Z</time></trkpt><trkpt lat="44.152148094333846" lon="12.138500419254763"><ele>164.0</ele><time>2026-03-28T14:47:47Z</time></trkpt><trkpt lat="44.15203698025609" lon="12.138374830537408"><ele>165.66666666666666</ele><time>2026-03-28T14:47:48Z</time></trkpt><trkpt lat="44.151892298319694" lon="12.13823768195229"><ele>167.33333333333334</ele><time>2026-03-28T14:47:49Z</time></trkpt><trkpt lat="44.15178006627901" lon="12.138085560672211"><ele>169.0</ele><time>2026-03-28T14:47:50Z</time></trkpt><trkpt lat="44.15166042839035" lon="12.137957062084874"><ele>169.0</ele><time>2026-03-28T14:47:51Z</time></trkpt><trkpt lat="44.15154203453475" lon="12.137835075629273"><ele>169.0</ele><time>2026-03-28T14:47:52Z</time></trkpt><trkpt lat="44.15143448697659" lon="12.137713113260517"><ele>169.0</ele><time>2026-03-28T14:47:53Z</time></trkpt><trkpt lat="44.151326051390804" lon="12.137589337959886"><ele>169.0</ele><time>2026-03-28T14:47:54Z</time></trkpt><trkpt lat="44.15121728146778" lon="12.137469756098787"><ele>171.0</ele><time>2026-03-28T14:47:55Z</time></trkpt><trkpt lat="44.15111640847132" lon="12.137351537791584"><ele>173.0</ele><time>2026-03-28T14:47:56Z</time></trkpt><trkpt lat="44.15100969561465" lon="12.137241409315383"><ele>175.0</ele><time>2026-03-28T14:47:57Z</time></trkpt><trkpt lat="44.150904482017964" lon="12.137136940350937"><ele>177.0</ele><time>2026-03-28T14:47:58Z</time></trkpt><trkpt lat="44.150787496911434" lon="12.137019926556432"><ele>178.0</ele><time>2026-03-28T14:47:59Z</time></trkpt><trkpt lat="44.150677028133394" lon="12.136896903872739"><ele>179.0</ele><time>2026-03-28T14:48:00Z</time></trkpt><trkpt lat="44.150561695602136" lon="12.136779023809284"><ele>180.0</ele><time>2026-03-28T14:48:01Z</time></trkpt><trkpt lat="44.150436861830514" lon="12.13668014683391"><ele>181.0</ele><time>2026-03-28T14:48:02Z</time></trkpt><trkpt lat="44.15032542898857" lon="12.136562633555778"><ele>181.75</ele><time>2026-03-28T14:48:03Z</time></trkpt><trkpt lat="44.150212657753706" lon="12.13644970545534"><ele>182.5</ele><time>2026-03-28T14:48:04Z</time></trkpt><trkpt lat="44.15009695347414" lon="12.136342087192286"><ele>183.25</ele><time>2026-03-28T14:48:05Z</time></trkpt><trkpt lat="44.14998977503776" lon="12.136219916264505"><ele>184.0</ele><time>2026-03-28T14:48:06Z</time></trkpt><trkpt lat="44.14989372225454" lon="12.1360804133601"><ele>185.25</ele><time>2026-03-28T14:48:07Z</time></trkpt><trkpt lat="44.14980217412445" lon="12.135934612398513"><ele>186.5</ele><time>2026-03-28T14:48:08Z</time></trkpt><trkpt lat="44.149707360728506" lon="12.135801523440541"><ele>187.75</ele><time>2026-03-28T14:48:09Z</time></trkpt><trkpt lat="44.1496054545548" lon="12.135707080701435"><ele>189.0</ele><time>2026-03-28T14:48:10Z</time></trkpt><trkpt lat="44.14947706609051" lon="12.135617839593358"><ele>194.0</ele><time>2026-03-28T14:48:11Z</time></trkpt><trkpt lat="44.149343530247336" lon="12.135529338025357"><ele>199.0</ele><time>2026-03-28T14:48:12Z</time></trkpt><trkpt lat="44.14921757644587" lon="12.135411064277093"><ele>204.0</ele><time>2026-03-28T14:48:13Z</time></trkpt><trkpt lat="44.149066313577414" lon="12.135293887800653"><ele>207.25</ele><time>2026-03-28T14:48:14Z</time></trkpt><trkpt lat="44.14892724184523" lon="12.135260111989803"><ele>210.5</ele><time>2026-03-28T14:48:15Z</time></trkpt><trkpt lat="44.148776884110745" lon="12.135224638193142"><ele>213.75</ele><time>2026-03-28T14:48:16Z</time></trkpt><trkpt lat="44.14862608627583" lon="12.135251553194752"><ele>217.0</ele><time>2026-03-28T14:48:17Z</time></trkpt><trkpt lat="44.14847552964797" lon="12.135287694676743"><ele>217.0</ele><time>2026-03-28T14:48:18Z</time></trkpt><trkpt lat="44.14832567477004" lon="12.13532278066393"><ele>217.0</ele><time>2026-03-28T14:48:19Z</time></trkpt><trkpt lat="44.14816531501429" lon="12.135343142857105"><ele>217.0</ele><time>2026-03-28T14:48:20Z</time></trkpt><trkpt lat="44.14800507878821" lon="12.1353517375286"><ele>217.5</ele><time>2026-03-28T14:48:21Z</time></trkpt><trkpt lat="44.14785089647547" lon="12.135349500013294"><ele>218.0</ele><time>2026-03-28T14:48:22Z</time></trkpt><trkpt lat="44.147711778773" lon="12.135335931067603"><ele>218.5</ele><time>2026-03-28T14:48:23Z</time></trkpt><trkpt lat="44.14756741166547" lon="12.1353210042054"><ele>219.0</ele><time>2026-03-28T14:48:24Z</time></trkpt><trkpt lat="44.147432349222626" lon="12.135298689319896"><ele>219.6</ele><time>2026-03-28T14:48:25Z</time></trkpt><trkpt lat="44.14730408216057" lon="12.13526853790938"><ele>220.2</ele><time>2026-03-28T14:48:26Z</time></trkpt><trkpt lat="44.14718906344103" lon="12.135251960580163"><ele>220.79999999999998</ele><time>2026-03-28T14:48:27Z</time></trkpt><trkpt lat="44.14708473601122" lon="12.135233279855418"><ele>221.39999999999998</ele><time>2026-03-28T14:48:28Z</time></trkpt><trkpt lat="44.14700484578028" lon="12.135232792151843"><ele>222.0</ele><time>2026-03-28T14:48:29Z</time></trkpt><trkpt lat="44.146939775275605" lon="12.135221159513355"><ele>222.0</ele><time>2026-03-28T14:48:30Z</time></trkpt><trkpt lat="44.14685070234159" lon="12.135186760202801"><ele>222.0</ele><time>2026-03-28T14:48:32Z</time></trkpt><trkpt lat="44.14671494598807" lon="12.135211088050092"><ele>222.0</ele><time>2026-03-28T14:48:34Z</time></trkpt><trkpt lat="44.146617255777066" lon="12.135230522448962"><ele>222.0</ele><time>2026-03-28T14:48:35Z</time></trkpt><trkpt lat="44.146514772738904" lon="12.13525061144802"><ele>222.0</ele><time>2026-03-28T14:48:36Z</time></trkpt><trkpt lat="44.14641040672163" lon="12.135270908967769"><ele>221.5</ele><time>2026-03-28T14:48:37Z</time></trkpt><trkpt lat="44.146306496852105" lon="12.135305185736815"><ele>221.0</ele><time>2026-03-28T14:48:38Z</time></trkpt><trkpt lat="44.14619357771178" lon="12.135305643474307"><ele>220.5</ele><time>2026-03-28T14:48:39Z</time></trkpt><trkpt lat="44.14612655796592" lon="12.135328528612899"><ele>220.0</ele><time>2026-03-28T14:48:40Z</time></trkpt><trkpt lat="44.14605196628657" lon="12.135330074579189"><ele>219.5</ele><time>2026-03-28T14:48:41Z</time></trkpt><trkpt lat="44.14599708366239" lon="12.13538281202055"><ele>219.0</ele><time>2026-03-28T14:48:44Z</time></trkpt><trkpt lat="44.14591504602847" lon="12.135539886906184"><ele>219.0</ele><time>2026-03-28T14:48:47Z</time></trkpt><trkpt lat="44.1458595834777" lon="12.135702393523504"><ele>219.0</ele><time>2026-03-28T14:48:48Z</time></trkpt><trkpt lat="44.14578635998313" lon="12.13587824269146"><ele>219.0</ele><time>2026-03-28T14:48:49Z</time></trkpt><trkpt lat="44.1457273197017" lon="12.136048296677819"><ele>219.0</ele><time>2026-03-28T14:48:50Z</time></trkpt><trkpt lat="44.14567413424419" lon="12.136216479297184"><ele>224.0</ele><time>2026-03-28T14:48:51Z</time></trkpt><trkpt lat="44.145623935684156" lon="12.136380814108279"><ele>229.0</ele><time>2026-03-28T14:48:52Z</time></trkpt><trkpt lat="44.1455668000538" lon="12.136542167669694"><ele>234.0</ele><time>2026-03-28T14:48:53Z</time></trkpt><trkpt lat="44.145512797552996" lon="12.136702111815639"><ele>239.0</ele><time>2026-03-28T14:48:54Z</time></trkpt><trkpt lat="44.14546676265856" lon="12.136870751910687"><ele>239.0</ele><time>2026-03-28T14:48:55Z</time></trkpt><trkpt lat="44.145405669566685" lon="12.13704883932889"><ele>239.0</ele><time>2026-03-28T14:48:56Z</time></trkpt><trkpt lat="44.14534136479463" lon="12.13722488130681"><ele>239.0</ele><time>2026-03-28T14:48:57Z</time></trkpt><trkpt lat="44.14528455262605" lon="12.137409807748968"><ele>239.0</ele><time>2026-03-28T14:48:58Z</time></trkpt><trkpt lat="44.1452243344554" lon="12.137580357608192"><ele>235.66666666666669</ele><time>2026-03-28T14:48:59Z</time></trkpt><trkpt lat="44.14516567098808" lon="12.137764363399892"><ele>232.33333333333331</ele><time>2026-03-28T14:49:00Z</time></trkpt><trkpt lat="44.145109269813304" lon="12.13796076641152"><ele>229.0</ele><time>2026-03-28T14:49:01Z</time></trkpt><trkpt lat="44.14502126941207" lon="12.138163755437263"><ele>226.0</ele><time>2026-03-28T14:49:02Z</time></trkpt><trkpt lat="44.14493587338947" lon="12.138405408893084"><ele>223.0</ele><time>2026-03-28T14:49:03Z</time></trkpt><trkpt lat="44.14486161907615" lon="12.138623387986417"><ele>220.0</ele><time>2026-03-28T14:49:04Z</time></trkpt><trkpt lat="44.144755564527756" lon="12.138847637259321"><ele>221.66666666666666</ele><time>2026-03-28T14:49:05Z</time></trkpt><trkpt lat="44.14464327573604" lon="12.139078276887911"><ele>223.33333333333331</ele><time>2026-03-28T14:49:06Z</time></trkpt><trkpt lat="44.14451965089681" lon="12.139290938953227"><ele>225.0</ele><time>2026-03-28T14:49:07Z</time></trkpt><trkpt lat="44.14439631203675" lon="12.13950608574923"><ele>225.0</ele><time>2026-03-28T14:49:08Z</time></trkpt><trkpt lat="44.14427497242968" lon="12.139721504835784"><ele>225.0</ele><time>2026-03-28T14:49:09Z</time></trkpt><trkpt lat="44.14415300264217" lon="12.139930560394964"><ele>225.0</ele><time>2026-03-28T14:49:10Z</time></trkpt><trkpt lat="44.14402930320449" lon="12.140141609513234"><ele>225.33333333333331</ele><time>2026-03-28T14:49:11Z</time></trkpt><trkpt lat="44.14391312802106" lon="12.140345500170495"><ele>225.66666666666666</ele><time>2026-03-28T14:49:12Z</time></trkpt><trkpt lat="44.143799933054275" lon="12.140547312015379"><ele>226.0</ele><time>2026-03-28T14:49:13Z</time></trkpt><trkpt lat="44.143692431148054" lon="12.140747813851396"><ele>226.0</ele><time>2026-03-28T14:49:14Z</time></trkpt><trkpt lat="44.143599084508374" lon="12.140931356931125"><ele>226.0</ele><time>2026-03-28T14:49:15Z</time></trkpt><trkpt lat="44.143510361976006" lon="12.141112975363622"><ele>226.0</ele><time>2026-03-28T14:49:16Z</time></trkpt><trkpt lat="44.1434237683787" lon="12.141293100473417"><ele>226.0</ele><time>2026-03-28T14:49:17Z</time></trkpt><trkpt lat="44.14334025744881" lon="12.141470498469008"><ele>226.0</ele><time>2026-03-28T14:49:18Z</time></trkpt><trkpt lat="44.143257091273306" lon="12.14164944436559"><ele>226.0</ele><time>2026-03-28T14:49:19Z</time></trkpt><trkpt lat="44.143172736093604" lon="12.141829020646334"><ele>228.33333333333331</ele><time>2026-03-28T14:49:20Z</time></trkpt><trkpt lat="44.143084406537746" lon="12.142005757065576"><ele>230.66666666666669</ele><time>2026-03-28T14:49:21Z</time></trkpt><trkpt lat="44.14298718982473" lon="12.142185572378558"><ele>233.0</ele><time>2026-03-28T14:49:22Z</time></trkpt><trkpt lat="44.14290337085407" lon="12.142357945656077"><ele>230.5</ele><time>2026-03-28T14:49:23Z</time></trkpt><trkpt lat="44.1428260424759" lon="12.14251507117727"><ele>228.0</ele><time>2026-03-28T14:49:24Z</time></trkpt><trkpt lat="44.14275195688581" lon="12.142665724607477"><ele>225.5</ele><time>2026-03-28T14:49:25Z</time></trkpt><trkpt lat="44.14268355172998" lon="12.142803636923329"><ele>223.0</ele><time>2026-03-28T14:49:26Z</time></trkpt><trkpt lat="44.14261146194747" lon="12.142938629992042"><ele>223.0</ele><time>2026-03-28T14:49:27Z</time></trkpt><trkpt lat="44.14253532703095" lon="12.143104620662312"><ele>223.0</ele><time>2026-03-28T14:49:28Z</time></trkpt><trkpt lat="44.142445685697645" lon="12.14328870421788"><ele>223.0</ele><time>2026-03-28T14:49:29Z</time></trkpt><trkpt lat="44.142355674974304" lon="12.143490443515695"><ele>224.75</ele><time>2026-03-28T14:49:30Z</time></trkpt><trkpt lat="44.14226904791998" lon="12.143664917313032"><ele>226.5</ele><time>2026-03-28T14:49:31Z</time></trkpt><trkpt lat="44.14217226584097" lon="12.143806054419994"><ele>228.25</ele><time>2026-03-28T14:49:32Z</time></trkpt><trkpt lat="44.142054800328" lon="12.14391133201581"><ele>230.0</ele><time>2026-03-28T14:49:33Z</time></trkpt><trkpt lat="44.14190027093303" lon="12.144009151388255"><ele>225.0</ele><time>2026-03-28T14:49:34Z</time></trkpt><trkpt lat="44.14172509497838" lon="12.144108080099024"><ele>220.0</ele><time>2026-03-28T14:49:35Z</time></trkpt><trkpt lat="44.1415327215427" lon="12.144194620600025"><ele>215.0</ele><time>2026-03-28T14:49:36Z</time></trkpt><trkpt lat="44.14132897906905" lon="12.144297826528044"><ele>215.0</ele><time>2026-03-28T14:49:37Z</time></trkpt><trkpt lat="44.14113473035303" lon="12.144398409978145"><ele>215.0</ele><time>2026-03-28T14:49:38Z</time></trkpt><trkpt lat="44.14093331631742" lon="12.144504183658741"><ele>215.0</ele><time>2026-03-28T14:49:39Z</time></trkpt><trkpt lat="44.14073564745748" lon="12.14459941321155"><ele>215.0</ele><time>2026-03-28T14:49:40Z</time></trkpt><trkpt lat="44.140538116640414" lon="12.1446867163167"><ele>215.0</ele><time>2026-03-28T14:49:41Z</time></trkpt><trkpt lat="44.140354650613695" lon="12.144780255231844"><ele>215.0</ele><time>2026-03-28T14:49:42Z</time></trkpt><trkpt lat="44.14017795757698" lon="12.144858633409285"><ele>212.0</ele><time>2026-03-28T14:49:43Z</time></trkpt><trkpt lat="44.14001036074824" lon="12.144940290969037"><ele>209.0</ele><time>2026-03-28T14:49:44Z</time></trkpt><trkpt lat="44.13984594099611" lon="12.145012245080983"><ele>206.0</ele><time>2026-03-28T14:49:45Z</time></trkpt><trkpt lat="44.13968173212319" lon="12.145078691246702"><ele>206.0</ele><time>2026-03-28T14:49:46Z</time></trkpt><trkpt lat="44.13950931627746" lon="12.145115638036462"><ele>206.0</ele><time>2026-03-28T14:49:47Z</time></trkpt><trkpt lat="44.13932852657931" lon="12.14512993059139"><ele>206.0</ele><time>2026-03-28T14:49:48Z</time></trkpt><trkpt lat="44.139146975080955" lon="12.145130872275566"><ele>206.66666666666669</ele><time>2026-03-28T14:49:49Z</time></trkpt><trkpt lat="44.13896969783673" lon="12.145142177537082"><ele>207.33333333333331</ele><time>2026-03-28T14:49:50Z</time></trkpt><trkpt lat="44.13879592757485" lon="12.145135994742612"><ele>208.0</ele><time>2026-03-28T14:49:51Z</time></trkpt><trkpt lat="44.13862132302944" lon="12.145131658272842"><ele>208.0</ele><time>2026-03-28T14:49:52Z</time></trkpt><trkpt lat="44.138449066550706" lon="12.145131240285087"><ele>208.0</ele><time>2026-03-28T14:49:53Z</time></trkpt><trkpt lat="44.138291174426804" lon="12.145137212906095"><ele>208.0</ele><time>2026-03-28T14:49:54Z</time></trkpt><trkpt lat="44.138144443596644" lon="12.145157384345998"><ele>208.25</ele><time>2026-03-28T14:49:55Z</time></trkpt><trkpt lat="44.138001477962774" lon="12.145185752104457"><ele>208.5</ele><time>2026-03-28T14:49:56Z</time></trkpt><trkpt lat="44.1378598514614" lon="12.145232058211691"><ele>208.75</ele><time>2026-03-28T14:49:57Z</time></trkpt><trkpt lat="44.13772625768175" lon="12.145296356998411"><ele>209.0</ele><time>2026-03-28T14:49:58Z</time></trkpt><trkpt lat="44.13758621335394" lon="12.145345586091024"><ele>209.0</ele><time>2026-03-28T14:49:59Z</time></trkpt><trkpt lat="44.137426878069874" lon="12.145408300654372"><ele>209.0</ele><time>2026-03-28T14:50:00Z</time></trkpt><trkpt lat="44.13725901901513" lon="12.14547502949523"><ele>209.0</ele><time>2026-03-28T14:50:01Z</time></trkpt><trkpt lat="44.13708881902988" lon="12.145555808151885"><ele>205.66666666666669</ele><time>2026-03-28T14:50:02Z</time></trkpt><trkpt lat="44.13691511457227" lon="12.14563071213021"><ele>202.33333333333331</ele><time>2026-03-28T14:50:03Z</time></trkpt><trkpt lat="44.13675237426359" lon="12.145748145318498"><ele>199.0</ele><time>2026-03-28T14:50:04Z</time></trkpt><trkpt lat="44.13660125298533" lon="12.145884390770625"><ele>197.66666666666666</ele><time>2026-03-28T14:50:05Z</time></trkpt><trkpt lat="44.13644167347434" lon="12.14601961452729"><ele>196.33333333333331</ele><time>2026-03-28T14:50:06Z</time></trkpt><trkpt lat="44.13629719358445" lon="12.146157760285593"><ele>195.0</ele><time>2026-03-28T14:50:07Z</time></trkpt><trkpt lat="44.136166938786594" lon="12.146330498181324"><ele>195.0</ele><time>2026-03-28T14:50:08Z</time></trkpt><trkpt lat="44.1360527263688" lon="12.14653622130584"><ele>195.0</ele><time>2026-03-28T14:50:09Z</time></trkpt><trkpt lat="44.135956057535864" lon="12.146739113114869"><ele>195.0</ele><time>2026-03-28T14:50:10Z</time></trkpt><trkpt lat="44.13583810240244" lon="12.146911505747513"><ele>194.33333333333331</ele><time>2026-03-28T14:50:11Z</time></trkpt><trkpt lat="44.13569600045711" lon="12.147054710706177"><ele>193.66666666666666</ele><time>2026-03-28T14:50:12Z</time></trkpt><trkpt lat="44.135567573080785" lon="12.147221307160578"><ele>193.0</ele><time>2026-03-28T14:50:13Z</time></trkpt><trkpt lat="44.135417462045005" lon="12.147351609345002"><ele>193.66666666666666</ele><time>2026-03-28T14:50:14Z</time></trkpt><trkpt lat="44.135262286950635" lon="12.14746840993095"><ele>194.33333333333331</ele><time>2026-03-28T14:50:15Z</time></trkpt><trkpt lat="44.135101779555676" lon="12.147572788821126"><ele>195.0</ele><time>2026-03-28T14:50:16Z</time></trkpt><trkpt lat="44.13493512851061" lon="12.147676736190377"><ele>194.0</ele><time>2026-03-28T14:50:17Z</time></trkpt><trkpt lat="44.13476384936494" lon="12.147777277753473"><ele>193.0</ele><time>2026-03-28T14:50:18Z</time></trkpt><trkpt lat="44.13460566785192" lon="12.147869386292623"><ele>192.0</ele><time>2026-03-28T14:50:19Z</time></trkpt><trkpt lat="44.13446525120607" lon="12.147951291574165"><ele>192.0</ele><time>2026-03-28T14:50:20Z</time></trkpt><trkpt lat="44.13433603804702" lon="12.148032977399884"><ele>192.0</ele><time>2026-03-28T14:50:21Z</time></trkpt><trkpt lat="44.13422402732951" lon="12.148142283936114"><ele>192.0</ele><time>2026-03-28T14:50:22Z</time></trkpt><trkpt lat="44.13409433238374" lon="12.148309568219224"><ele>190.33333333333334</ele><time>2026-03-28T14:50:23Z</time></trkpt><trkpt lat="44.13397509172606" lon="12.148498289702593"><ele>188.66666666666669</ele><time>2026-03-28T14:50:24Z</time></trkpt><trkpt lat="44.13384076237943" lon="12.148698864123457"><ele>187.0</ele><time>2026-03-28T14:50:25Z</time></trkpt><trkpt lat="44.133709711250496" lon="12.148884127445477"><ele>188.33333333333334</ele><time>2026-03-28T14:50:26Z</time></trkpt><trkpt lat="44.133579123583104" lon="12.14907613021429"><ele>189.66666666666666</ele><time>2026-03-28T14:50:27Z</time></trkpt><trkpt lat="44.13345532213193" lon="12.149257157239994"><ele>191.0</ele><time>2026-03-28T14:50:28Z</time></trkpt><trkpt lat="44.133337579607115" lon="12.149415436138614"><ele>191.66666666666666</ele><time>2026-03-28T14:50:29Z</time></trkpt><trkpt lat="44.13322188825021" lon="12.149572774928107"><ele>192.33333333333331</ele><time>2026-03-28T14:50:30Z</time></trkpt><trkpt lat="44.13312154483464" lon="12.149756409169411"><ele>193.0</ele><time>2026-03-28T14:50:31Z</time></trkpt><trkpt lat="44.133037302125736" lon="12.149956383089556"><ele>194.5</ele><time>2026-03-28T14:50:32Z</time></trkpt><trkpt lat="44.132973788172826" lon="12.150139411468539"><ele>196.0</ele><time>2026-03-28T14:50:33Z</time></trkpt><trkpt lat="44.13291884308742" lon="12.150296402948893"><ele>197.5</ele><time>2026-03-28T14:50:34Z</time></trkpt><trkpt lat="44.132866521098876" lon="12.150417212973258"><ele>199.0</ele><time>2026-03-28T14:50:35Z</time></trkpt><trkpt lat="44.132804985989665" lon="12.15050255890946"><ele>207.0</ele><time>2026-03-28T14:50:36Z</time></trkpt><trkpt lat="44.13121467467113" lon="12.149234554696903"><ele>207.0</ele><time>2026-03-28T14:50:49Z</time></trkpt><trkpt lat="44.13105214123209" lon="12.149131186327844"><ele>207.0</ele><time>2026-03-28T14:50:50Z</time></trkpt><trkpt lat="44.13089637725982" lon="12.14898034171805"><ele>207.0</ele><time>2026-03-28T14:50:51Z</time></trkpt><trkpt lat="44.13073103544728" lon="12.148850380045912"><ele>207.33333333333331</ele><time>2026-03-28T14:50:52Z</time></trkpt><trkpt lat="44.13055861156507" lon="12.148719345873952"><ele>207.66666666666666</ele><time>2026-03-28T14:50:53Z</time></trkpt><trkpt lat="44.130385697546906" lon="12.148590800740998"><ele>208.0</ele><time>2026-03-28T14:50:54Z</time></trkpt><trkpt lat="44.130204108891505" lon="12.148482269181187"><ele>208.0</ele><time>2026-03-28T14:50:55Z</time></trkpt><trkpt lat="44.13003123003381" lon="12.148356302555976"><ele>208.0</ele><time>2026-03-28T14:50:56Z</time></trkpt><trkpt lat="44.129862192404424" lon="12.148234766761234"><ele>208.0</ele><time>2026-03-28T14:50:57Z</time></trkpt><trkpt lat="44.12970697604113" lon="12.148098888569494"><ele>207.5</ele><time>2026-03-28T14:50:58Z</time></trkpt><trkpt lat="44.12955020527253" lon="12.1479783081708"><ele>207.0</ele><time>2026-03-28T14:50:59Z</time></trkpt><trkpt lat="44.12924951117474" lon="12.147726045757096"><ele>207.0</ele><time>2026-03-28T14:51:01Z</time></trkpt><trkpt lat="44.129094811023116" lon="12.147588686750623"><ele>207.0</ele><time>2026-03-28T14:51:02Z</time></trkpt><trkpt lat="44.12894437808047" lon="12.14745197898876"><ele>207.0</ele><time>2026-03-28T14:51:03Z</time></trkpt><trkpt lat="44.12879502210054" lon="12.147312156207159"><ele>209.0</ele><time>2026-03-28T14:51:04Z</time></trkpt><trkpt lat="44.128656621310185" lon="12.147183058083868"><ele>211.0</ele><time>2026-03-28T14:51:05Z</time></trkpt><trkpt lat="44.128508213812616" lon="12.147054922013606"><ele>213.0</ele><time>2026-03-28T14:51:06Z</time></trkpt><trkpt lat="44.12836257829196" lon="12.146971907930197"><ele>217.66666666666669</ele><time>2026-03-28T14:51:07Z</time></trkpt><trkpt lat="44.12820357533238" lon="12.146899334773591"><ele>222.33333333333334</ele><time>2026-03-28T14:51:08Z</time></trkpt><trkpt lat="44.12802832356659" lon="12.146859851673847"><ele>227.0</ele><time>2026-03-28T14:51:09Z</time></trkpt><trkpt lat="44.127840350900414" lon="12.14683351464828"><ele>227.0</ele><time>2026-03-28T14:51:10Z</time></trkpt><trkpt lat="44.12765026863714" lon="12.1468193764179"><ele>227.0</ele><time>2026-03-28T14:51:11Z</time></trkpt><trkpt lat="44.12747299742549" lon="12.146790804859624"><ele>227.0</ele><time>2026-03-28T14:51:12Z</time></trkpt><trkpt lat="44.12731991449785" lon="12.14677128148035"><ele>226.75</ele><time>2026-03-28T14:51:13Z</time></trkpt><trkpt lat="44.12718208812301" lon="12.146737944514099"><ele>226.5</ele><time>2026-03-28T14:51:14Z</time></trkpt><trkpt lat="44.12704317904108" lon="12.146666930656417"><ele>226.25</ele><time>2026-03-28T14:51:15Z</time></trkpt><trkpt lat="44.12691041559147" lon="12.146595354816721"><ele>226.0</ele><time>2026-03-28T14:51:16Z</time></trkpt><trkpt lat="44.1267934154778" lon="12.146543704942852"><ele>226.0</ele><time>2026-03-28T14:51:17Z</time></trkpt><trkpt lat="44.12670834510707" lon="12.146531867231449"><ele>226.0</ele><time>2026-03-28T14:51:18Z</time></trkpt><trkpt lat="44.1266144910552" lon="12.1464813916368"><ele>226.0</ele><time>2026-03-28T14:51:20Z</time></trkpt><trkpt lat="44.12684210893116" lon="12.146349869438877"><ele>226.0</ele><time>2026-03-28T14:51:24Z</time></trkpt><trkpt lat="44.12693541160024" lon="12.146290837737789"><ele>226.0</ele><time>2026-03-28T14:51:25Z</time></trkpt><trkpt lat="44.12700830569055" lon="12.146242139983338"><ele>226.00000000000003</ele><time>2026-03-28T14:51:26Z</time></trkpt><trkpt lat="44.12703949182262" lon="12.146141154685733"><ele>226.00000000000003</ele><time>2026-03-28T14:51:27Z</time></trkpt><trkpt lat="44.127093021303835" lon="12.146063290136285"><ele>226.0</ele><time>2026-03-28T14:51:30Z</time></trkpt><trkpt lat="44.126942310049174" lon="12.146225738786553"><ele>226.0</ele><time>2026-03-28T14:51:42Z</time></trkpt><trkpt lat="44.12679551724639" lon="12.14617915318294"><ele>226.0</ele><time>2026-03-28T14:51:56Z</time></trkpt><trkpt lat="44.12672683898122" lon="12.146153040122588"><ele>226.00000000000003</ele><time>2026-03-28T14:51:58Z</time></trkpt><trkpt lat="44.12681271904206" lon="12.146192970823734"><ele>226.00000000000003</ele><time>2026-03-28T14:53:01Z</time></trkpt><trkpt lat="44.12675870109254" lon="12.146370509009486"><ele>226.0</ele><time>2026-03-28T14:57:20Z</time></trkpt><trkpt lat="44.12668280829754" lon="12.146402793420792"><ele>226.0</ele><time>2026-03-28T14:57:21Z</time></trkpt><trkpt lat="44.12659953438582" lon="12.146433854328269"><ele>226.99999999999997</ele><time>2026-03-28T14:57:23Z</time></trkpt><trkpt lat="44.12655112933374" lon="12.14650188924264"><ele>228.0</ele><time>2026-03-28T14:57:26Z</time></trkpt><trkpt lat="44.12642888292554" lon="12.146511964674104"><ele>229.0</ele><time>2026-03-28T14:57:28Z</time></trkpt><trkpt lat="44.12636323906564" lon="12.146551064857395"><ele>230.0</ele><time>2026-03-28T14:57:29Z</time></trkpt><trkpt lat="44.12627955597518" lon="12.14656171589924"><ele>230.99999999999997</ele><time>2026-03-28T14:57:30Z</time></trkpt><trkpt lat="44.126205009908226" lon="12.146601334968466"><ele>232.0</ele><time>2026-03-28T14:57:31Z</time></trkpt><trkpt lat="44.1261233360235" lon="12.14666200520393"><ele>232.0</ele><time>2026-03-28T14:57:32Z</time></trkpt><trkpt lat="44.12604154827087" lon="12.146749272394006"><ele>232.0</ele><time>2026-03-28T14:57:33Z</time></trkpt><trkpt lat="44.12594680080005" lon="12.146904993290818"><ele>232.0</ele><time>2026-03-28T14:57:34Z</time></trkpt><trkpt lat="44.1258505093245" lon="12.147099476997669"><ele>232.0</ele><time>2026-03-28T14:57:35Z</time></trkpt><trkpt lat="44.12573396984257" lon="12.147302090715659"><ele>236.0</ele><time>2026-03-28T14:57:36Z</time></trkpt><trkpt lat="44.12564282539182" lon="12.1474504616287"><ele>240.0</ele><time>2026-03-28T14:57:37Z</time></trkpt><trkpt lat="44.12556276999386" lon="12.147611963880482"><ele>244.0</ele><time>2026-03-28T14:57:38Z</time></trkpt><trkpt lat="44.12547825149604" lon="12.147733972014105"><ele>248.0</ele><time>2026-03-28T14:57:39Z</time></trkpt><trkpt lat="44.12539131053008" lon="12.147837026346396"><ele>248.0</ele><time>2026-03-28T14:57:40Z</time></trkpt><trkpt lat="44.12530519222863" lon="12.147924095001484"><ele>248.0</ele><time>2026-03-28T14:57:41Z</time></trkpt><trkpt lat="44.12519732945685" lon="12.14801670214773"><ele>248.0</ele><time>2026-03-28T14:57:42Z</time></trkpt><trkpt lat="44.12506630271883" lon="12.148079413804094"><ele>248.0</ele><time>2026-03-28T14:57:43Z</time></trkpt><trkpt lat="44.124930732473686" lon="12.148115307423554"><ele>252.66666666666669</ele><time>2026-03-28T14:57:44Z</time></trkpt><trkpt lat="44.124778385593686" lon="12.148134169313522"><ele>257.3333333333333</ele><time>2026-03-28T14:57:45Z</time></trkpt><trkpt lat="44.12461649484797" lon="12.14814077212296"><ele>262.0</ele><time>2026-03-28T14:57:46Z</time></trkpt><trkpt lat="44.12444856243083" lon="12.148138482269475"><ele>262.0</ele><time>2026-03-28T14:57:47Z</time></trkpt><trkpt lat="44.12428730380298" lon="12.14813408045561"><ele>262.0</ele><time>2026-03-28T14:57:48Z</time></trkpt><trkpt lat="44.12413460911633" lon="12.148126454953724"><ele>262.0</ele><time>2026-03-28T14:57:49Z</time></trkpt><trkpt lat="44.12398187214911" lon="12.148112650245286"><ele>261.0</ele><time>2026-03-28T14:57:50Z</time></trkpt><trkpt lat="44.12384206686775" lon="12.148090939331103"><ele>260.0</ele><time>2026-03-28T14:57:51Z</time></trkpt><trkpt lat="44.123720260426936" lon="12.148071428581384"><ele>259.0</ele><time>2026-03-28T14:57:52Z</time></trkpt><trkpt lat="44.12360678453069" lon="12.148050329021935"><ele>258.0</ele><time>2026-03-28T14:57:53Z</time></trkpt><trkpt lat="44.12351417229733" lon="12.148024474077667"><ele>258.0</ele><time>2026-03-28T14:57:54Z</time></trkpt><trkpt lat="44.12341962385814" lon="12.147984813314002"><ele>258.0</ele><time>2026-03-28T14:57:55Z</time></trkpt><trkpt lat="44.123345402966365" lon="12.147915904857692"><ele>258.0</ele><time>2026-03-28T14:57:56Z</time></trkpt><trkpt lat="44.12327425958062" lon="12.14782811139074"><ele>258.0</ele><time>2026-03-28T14:57:57Z</time></trkpt><trkpt lat="44.12326128625419" lon="12.147648974873823"><ele>258.0</ele><time>2026-03-28T14:57:58Z</time></trkpt><trkpt lat="44.123226679846475" lon="12.147463032179822"><ele>255.25</ele><time>2026-03-28T14:57:59Z</time></trkpt><trkpt lat="44.12317925630256" lon="12.147258910061138"><ele>252.5</ele><time>2026-03-28T14:58:00Z</time></trkpt><trkpt lat="44.12315336551664" lon="12.147063056180333"><ele>249.75</ele><time>2026-03-28T14:58:01Z</time></trkpt><trkpt lat="44.12311751216122" lon="12.146904887234898"><ele>247.0</ele><time>2026-03-28T14:58:02Z</time></trkpt><trkpt lat="44.12309971569858" lon="12.146775718931677"><ele>247.0</ele><time>2026-03-28T14:58:03Z</time></trkpt><trkpt lat="44.12307873534075" lon="12.146657661376597"><ele>247.0</ele><time>2026-03-28T14:58:04Z</time></trkpt><trkpt lat="44.12304320596127" lon="12.146505261492926"><ele>247.0</ele><time>2026-03-28T14:58:05Z</time></trkpt><trkpt lat="44.12298421081593" lon="12.14632488216639"><ele>247.0</ele><time>2026-03-28T14:58:06Z</time></trkpt><trkpt lat="44.12290042171721" lon="12.14613541586213"><ele>248.66666666666666</ele><time>2026-03-28T14:58:07Z</time></trkpt><trkpt lat="44.12278988262588" lon="12.145946713693315"><ele>250.33333333333331</ele><time>2026-03-28T14:58:08Z</time></trkpt><trkpt lat="44.122655277589125" lon="12.14576053401963"><ele>252.0</ele><time>2026-03-28T14:58:09Z</time></trkpt><trkpt lat="44.122498776846946" lon="12.145579010413984"><ele>250.66666666666669</ele><time>2026-03-28T14:58:10Z</time></trkpt><trkpt lat="44.12236583625627" lon="12.145420519061306"><ele>249.33333333333334</ele><time>2026-03-28T14:58:11Z</time></trkpt><trkpt lat="44.12224130470928" lon="12.145272697710618"><ele>248.0</ele><time>2026-03-28T14:58:12Z</time></trkpt><trkpt lat="44.122117474882685" lon="12.145148283022262"><ele>248.0</ele><time>2026-03-28T14:58:13Z</time></trkpt><trkpt lat="44.121980631249954" lon="12.1450700393547"><ele>248.0</ele><time>2026-03-28T14:58:14Z</time></trkpt><trkpt lat="44.12183956528761" lon="12.145019332215842"><ele>248.0</ele><time>2026-03-28T14:58:15Z</time></trkpt><trkpt lat="44.12170239148764" lon="12.14500318154916"><ele>248.0</ele><time>2026-03-28T14:58:16Z</time></trkpt><trkpt lat="44.121571612999574" lon="12.145003391265034"><ele>245.75</ele><time>2026-03-28T14:58:17Z</time></trkpt><trkpt lat="44.121448494064424" lon="12.145043504252342"><ele>243.5</ele><time>2026-03-28T14:58:18Z</time></trkpt><trkpt lat="44.12133598344834" lon="12.145137733028212"><ele>241.25</ele><time>2026-03-28T14:58:19Z</time></trkpt><trkpt lat="44.121208969147816" lon="12.14529795684798"><ele>239.0</ele><time>2026-03-28T14:58:20Z</time></trkpt><trkpt lat="44.12108273164529" lon="12.14549151692903"><ele>239.0</ele><time>2026-03-28T14:58:21Z</time></trkpt><trkpt lat="44.12094312769062" lon="12.1456306292604"><ele>239.0</ele><time>2026-03-28T14:58:22Z</time></trkpt><trkpt lat="44.12079724202349" lon="12.14575608003835"><ele>239.0</ele><time>2026-03-28T14:58:23Z</time></trkpt><trkpt lat="44.120653289753264" lon="12.145869611282922"><ele>240.0</ele><time>2026-03-28T14:58:24Z</time></trkpt><trkpt lat="44.12049742348435" lon="12.145921165309584"><ele>241.0</ele><time>2026-03-28T14:58:25Z</time></trkpt><trkpt lat="44.120333863486" lon="12.145966501859668"><ele>242.0</ele><time>2026-03-28T14:58:26Z</time></trkpt><trkpt lat="44.12016887955092" lon="12.14599027127678"><ele>242.0</ele><time>2026-03-28T14:58:27Z</time></trkpt><trkpt lat="44.119987109683116" lon="12.146009776456198"><ele>242.0</ele><time>2026-03-28T14:58:28Z</time></trkpt><trkpt lat="44.119797540785804" lon="12.145967409690103"><ele>242.0</ele><time>2026-03-28T14:58:29Z</time></trkpt><trkpt lat="44.119623294789186" lon="12.145871533045778"><ele>241.0</ele><time>2026-03-28T14:58:30Z</time></trkpt><trkpt lat="44.11945657794421" lon="12.1457874846508"><ele>240.0</ele><time>2026-03-28T14:58:31Z</time></trkpt><trkpt lat="44.119273308416886" lon="12.145709161693613"><ele>239.0</ele><time>2026-03-28T14:58:32Z</time></trkpt><trkpt lat="44.119092538987694" lon="12.145616061630173"><ele>243.33333333333334</ele><time>2026-03-28T14:58:33Z</time></trkpt><trkpt lat="44.11893854327298" lon="12.14554096944455"><ele>247.66666666666669</ele><time>2026-03-28T14:58:34Z</time></trkpt><trkpt lat="44.118786153402176" lon="12.145501336168989"><ele>252.0</ele><time>2026-03-28T14:58:35Z</time></trkpt><trkpt lat="44.118618102632595" lon="12.145515495822064"><ele>252.0</ele><time>2026-03-28T14:58:36Z</time></trkpt><trkpt lat="44.118433450804055" lon="12.145555632931167"><ele>252.0</ele><time>2026-03-28T14:58:37Z</time></trkpt><trkpt lat="44.11826192630231" lon="12.145577245163565"><ele>252.0</ele><time>2026-03-28T14:58:38Z</time></trkpt><trkpt lat="44.1181138638311" lon="12.145600158730081"><ele>253.75</ele><time>2026-03-28T14:58:39Z</time></trkpt><trkpt lat="44.117971829171424" lon="12.14562901551531"><ele>255.5</ele><time>2026-03-28T14:58:40Z</time></trkpt><trkpt lat="44.117823765358395" lon="12.145687025907328"><ele>257.25</ele><time>2026-03-28T14:58:41Z</time></trkpt><trkpt lat="44.117675456058244" lon="12.145706993389771"><ele>259.0</ele><time>2026-03-28T14:58:42Z</time></trkpt><trkpt lat="44.11751950057117" lon="12.145703670511887"><ele>265.66666666666663</ele><time>2026-03-28T14:58:43Z</time></trkpt><trkpt lat="44.117351436158295" lon="12.145691006525258"><ele>272.3333333333333</ele><time>2026-03-28T14:58:44Z</time></trkpt><trkpt lat="44.117183122526185" lon="12.14567720799019"><ele>279.0</ele><time>2026-03-28T14:58:45Z</time></trkpt><trkpt lat="44.117019959059895" lon="12.145666023921997"><ele>279.0</ele><time>2026-03-28T14:58:46Z</time></trkpt><trkpt lat="44.116863749641105" lon="12.145692128033618"><ele>279.0</ele><time>2026-03-28T14:58:47Z</time></trkpt><trkpt lat="44.116703103340186" lon="12.145718376864895"><ele>279.0</ele><time>2026-03-28T14:58:48Z</time></trkpt><trkpt lat="44.11652870776352" lon="12.145754419434848"><ele>282.3333333333333</ele><time>2026-03-28T14:58:49Z</time></trkpt><trkpt lat="44.11635752978429" lon="12.145824482422206"><ele>285.66666666666663</ele><time>2026-03-28T14:58:50Z</time></trkpt><trkpt lat="44.116188339053735" lon="12.145917339455506"><ele>289.0</ele><time>2026-03-28T14:58:51Z</time></trkpt><trkpt lat="44.11606233789142" lon="12.146047197829779"><ele>289.0</ele><time>2026-03-28T14:58:52Z</time></trkpt><trkpt lat="44.11596560478414" lon="12.146168520160133"><ele>289.0</ele><time>2026-03-28T14:58:53Z</time></trkpt><trkpt lat="44.11590097699426" lon="12.146284304740982"><ele>289.0</ele><time>2026-03-28T14:58:54Z</time></trkpt><trkpt lat="44.1158274370334" lon="12.1463211058466"><ele>289.0</ele><time>2026-03-28T14:58:55Z</time></trkpt><trkpt lat="44.11573848185325" lon="12.146316989659878"><ele>289.0</ele><time>2026-03-28T14:58:57Z</time></trkpt><trkpt lat="44.11568609494202" lon="12.146257326023282"><ele>287.5</ele><time>2026-03-28T14:58:58Z</time></trkpt><trkpt lat="44.115642039346604" lon="12.146156154233397"><ele>286.0</ele><time>2026-03-28T14:58:59Z</time></trkpt><trkpt lat="44.11556113474595" lon="12.146027813634564"><ele>284.5</ele><time>2026-03-28T14:59:00Z</time></trkpt><trkpt lat="44.11552783969574" lon="12.145819015825102"><ele>283.0</ele><time>2026-03-28T14:59:01Z</time></trkpt><trkpt lat="44.115476735159895" lon="12.145599186975925"><ele>283.0</ele><time>2026-03-28T14:59:02Z</time></trkpt><trkpt lat="44.115436387632215" lon="12.145385978741439"><ele>283.0</ele><time>2026-03-28T14:59:03Z</time></trkpt><trkpt lat="44.11541189734529" lon="12.145205170070625"><ele>283.0</ele><time>2026-03-28T14:59:04Z</time></trkpt><trkpt lat="44.115390718578325" lon="12.145046852215906"><ele>283.0</ele><time>2026-03-28T14:59:05Z</time></trkpt><trkpt lat="44.11537335408123" lon="12.144906216966397"><ele>286.2</ele><time>2026-03-28T14:59:06Z</time></trkpt><trkpt lat="44.115355429649426" lon="12.144791061745106"><ele>289.4</ele><time>2026-03-28T14:59:07Z</time></trkpt><trkpt lat="44.115320080338535" lon="12.144667606815185"><ele>292.59999999999997</ele><time>2026-03-28T14:59:08Z</time></trkpt><trkpt lat="44.11523806004343" lon="12.14453722409811"><ele>295.8</ele><time>2026-03-28T14:59:09Z</time></trkpt><trkpt lat="44.115162785205676" lon="12.144433810726099"><ele>299.0</ele><time>2026-03-28T14:59:10Z</time></trkpt><trkpt lat="44.11506114585863" lon="12.144342101904991"><ele>299.0</ele><time>2026-03-28T14:59:11Z</time></trkpt><trkpt lat="44.11493925805816" lon="12.144251580807284"><ele>299.0</ele><time>2026-03-28T14:59:12Z</time></trkpt><trkpt lat="44.114814834899065" lon="12.144189421933643"><ele>299.0</ele><time>2026-03-28T14:59:13Z</time></trkpt><trkpt lat="44.11469835526924" lon="12.144088228835685"><ele>299.0</ele><time>2026-03-28T14:59:14Z</time></trkpt><trkpt lat="44.11459161044945" lon="12.144009316739467"><ele>298.4</ele><time>2026-03-28T14:59:15Z</time></trkpt><trkpt lat="44.11451189167127" lon="12.143933140813699"><ele>297.79999999999995</ele><time>2026-03-28T14:59:16Z</time></trkpt><trkpt lat="44.114452300253696" lon="12.143868663672492"><ele>297.20000000000005</ele><time>2026-03-28T14:59:17Z</time></trkpt><trkpt lat="44.114438316805426" lon="12.143766134725688"><ele>296.6</ele><time>2026-03-28T14:59:18Z</time></trkpt><trkpt lat="44.11447659217441" lon="12.143637978682172"><ele>296.0</ele><time>2026-03-28T14:59:19Z</time></trkpt><trkpt lat="44.11450478269727" lon="12.14348440380953"><ele>296.0</ele><time>2026-03-28T14:59:20Z</time></trkpt><trkpt lat="44.11451800909558" lon="12.143353935567944"><ele>296.0</ele><time>2026-03-28T14:59:21Z</time></trkpt><trkpt lat="44.11453707718128" lon="12.14324949331698"><ele>296.0</ele><time>2026-03-28T14:59:22Z</time></trkpt><trkpt lat="44.11455685817437" lon="12.143149318798027"><ele>296.0</ele><time>2026-03-28T14:59:23Z</time></trkpt><trkpt lat="44.11457539595886" lon="12.143009987490803"><ele>296.0</ele><time>2026-03-28T14:59:24Z</time></trkpt><trkpt lat="44.114602401296956" lon="12.142836973762156"><ele>296.40000000000003</ele><time>2026-03-28T14:59:25Z</time></trkpt><trkpt lat="44.11462040114874" lon="12.142695000748759"><ele>296.8</ele><time>2026-03-28T14:59:26Z</time></trkpt><trkpt lat="44.114633984254965" lon="12.142562207981907"><ele>297.20000000000005</ele><time>2026-03-28T14:59:27Z</time></trkpt><trkpt lat="44.11464450908889" lon="12.142457386511326"><ele>297.6</ele><time>2026-03-28T14:59:28Z</time></trkpt><trkpt lat="44.11465771353589" lon="12.142364869611484"><ele>298.0</ele><time>2026-03-28T14:59:30Z</time></trkpt><trkpt lat="44.11452651918868" lon="12.142303078542362"><ele>298.0</ele><time>2026-03-28T14:59:31Z</time></trkpt><trkpt lat="44.1144239758452" lon="12.142229747835223"><ele>298.0</ele><time>2026-03-28T14:59:32Z</time></trkpt><trkpt lat="44.114284679441255" lon="12.14210790099544"><ele>298.0</ele><time>2026-03-28T14:59:33Z</time></trkpt><trkpt lat="44.11413740020143" lon="12.14195764237326"><ele>292.3333333333333</ele><time>2026-03-28T14:59:34Z</time></trkpt><trkpt lat="44.113996428701505" lon="12.141817161169898"><ele>286.6666666666667</ele><time>2026-03-28T14:59:35Z</time></trkpt><trkpt lat="44.1138717628449" lon="12.141691079158837"><ele>281.0</ele><time>2026-03-28T14:59:36Z</time></trkpt><trkpt lat="44.11375187191395" lon="12.141577526011282"><ele>283.25</ele><time>2026-03-28T14:59:37Z</time></trkpt><trkpt lat="44.1136495258755" lon="12.141459765002208"><ele>285.5</ele><time>2026-03-28T14:59:38Z</time></trkpt><trkpt lat="44.11353458939621" lon="12.14136227061209"><ele>287.75</ele><time>2026-03-28T14:59:39Z</time></trkpt><trkpt lat="44.113403031981804" lon="12.141316633345552"><ele>290.0</ele><time>2026-03-28T14:59:40Z</time></trkpt><trkpt lat="44.11324667979107" lon="12.141318456157187"><ele>291.33333333333337</ele><time>2026-03-28T14:59:41Z</time></trkpt><trkpt lat="44.11307293288693" lon="12.141317496389126"><ele>292.6666666666667</ele><time>2026-03-28T14:59:42Z</time></trkpt><trkpt lat="44.11290954811067" lon="12.141321841441764"><ele>294.0</ele><time>2026-03-28T14:59:43Z</time></trkpt><trkpt lat="44.11275337859965" lon="12.141328182158352"><ele>294.0</ele><time>2026-03-28T14:59:44Z</time></trkpt><trkpt lat="44.11261357941097" lon="12.14135607522854"><ele>294.0</ele><time>2026-03-28T14:59:45Z</time></trkpt><trkpt lat="44.11247567882458" lon="12.141379965121226"><ele>294.0</ele><time>2026-03-28T14:59:46Z</time></trkpt><trkpt lat="44.11234677593498" lon="12.141455929620633"><ele>294.0</ele><time>2026-03-28T14:59:47Z</time></trkpt><trkpt lat="44.11221713096607" lon="12.141607071964696"><ele>291.5</ele><time>2026-03-28T14:59:48Z</time></trkpt><trkpt lat="44.11209517774299" lon="12.141779339682682"><ele>289.0</ele><time>2026-03-28T14:59:49Z</time></trkpt><trkpt lat="44.11196781763652" lon="12.14186638459552"><ele>286.5</ele><time>2026-03-28T14:59:50Z</time></trkpt><trkpt lat="44.11184660540019" lon="12.14192818452538"><ele>284.0</ele><time>2026-03-28T14:59:51Z</time></trkpt><trkpt lat="44.11171254741637" lon="12.141952558305759"><ele>281.6666666666667</ele><time>2026-03-28T14:59:52Z</time></trkpt><trkpt lat="44.11157254739111" lon="12.141924336521122"><ele>279.3333333333333</ele><time>2026-03-28T14:59:53Z</time></trkpt><trkpt lat="44.1113984249018" lon="12.14188244513593"><ele>277.0</ele><time>2026-03-28T14:59:54Z</time></trkpt><trkpt lat="44.11122330027366" lon="12.141841643713494"><ele>277.0</ele><time>2026-03-28T14:59:55Z</time></trkpt><trkpt lat="44.11103923165671" lon="12.141784490991236"><ele>277.0</ele><time>2026-03-28T14:59:56Z</time></trkpt><trkpt lat="44.11085926996187" lon="12.141731919689448"><ele>277.0</ele><time>2026-03-28T14:59:57Z</time></trkpt><trkpt lat="44.11067118641236" lon="12.141686179630593"><ele>276.66666666666663</ele><time>2026-03-28T14:59:58Z</time></trkpt><trkpt lat="44.110487963477446" lon="12.141649309315984"><ele>276.3333333333333</ele><time>2026-03-28T14:59:59Z</time></trkpt><trkpt lat="44.11030205685173" lon="12.141616939988747"><ele>276.0</ele><time>2026-03-28T15:00:00Z</time></trkpt><trkpt lat="44.110119402814036" lon="12.141597251477204"><ele>276.0</ele><time>2026-03-28T15:00:01Z</time></trkpt><trkpt lat="44.109944251928916" lon="12.141579474403736"><ele>276.0</ele><time>2026-03-28T15:00:02Z</time></trkpt><trkpt lat="44.10977866702966" lon="12.141518027892026"><ele>276.0</ele><time>2026-03-28T15:00:03Z</time></trkpt><trkpt lat="44.10961395917996" lon="12.14147345489761"><ele>274.0</ele><time>2026-03-28T15:00:04Z</time></trkpt><trkpt lat="44.10945204763648" lon="12.141439544431107"><ele>272.0</ele><time>2026-03-28T15:00:05Z</time></trkpt><trkpt lat="44.10931553487241" lon="12.14139500124738"><ele>270.0</ele><time>2026-03-28T15:00:06Z</time></trkpt><trkpt lat="44.109184501882496" lon="12.141376494834839"><ele>268.0</ele><time>2026-03-28T15:00:07Z</time></trkpt><trkpt lat="44.10903342661608" lon="12.141390469734704"><ele>266.3333333333333</ele><time>2026-03-28T15:00:08Z</time></trkpt><trkpt lat="44.10884819495946" lon="12.141426021004149"><ele>264.6666666666667</ele><time>2026-03-28T15:00:09Z</time></trkpt><trkpt lat="44.10865267982448" lon="12.141456958890041"><ele>263.0</ele><time>2026-03-28T15:00:10Z</time></trkpt><trkpt lat="44.108451122940586" lon="12.141490379112561"><ele>263.0</ele><time>2026-03-28T15:00:11Z</time></trkpt><trkpt lat="44.108267873024744" lon="12.141519096961709"><ele>263.0</ele><time>2026-03-28T15:00:12Z</time></trkpt><trkpt lat="44.108084089340956" lon="12.14156328423192"><ele>263.0</ele><time>2026-03-28T15:00:13Z</time></trkpt><trkpt lat="44.10789365886374" lon="12.141585118382567"><ele>266.0</ele><time>2026-03-28T15:00:14Z</time></trkpt><trkpt lat="44.10772714335196" lon="12.141656468429618"><ele>269.0</ele><time>2026-03-28T15:00:15Z</time></trkpt><trkpt lat="44.10756854220992" lon="12.141704681830825"><ele>272.0</ele><time>2026-03-28T15:00:16Z</time></trkpt><trkpt lat="44.10741574202356" lon="12.141757163653818"><ele>270.33333333333337</ele><time>2026-03-28T15:00:17Z</time></trkpt><trkpt lat="44.10725631078826" lon="12.14178064058282"><ele>268.6666666666667</ele><time>2026-03-28T15:00:18Z</time></trkpt><trkpt lat="44.107111026804404" lon="12.141800523760063"><ele>267.0</ele><time>2026-03-28T15:00:19Z</time></trkpt><trkpt lat="44.1069641194666" lon="12.141785987242308"><ele>267.0</ele><time>2026-03-28T15:00:20Z</time></trkpt><trkpt lat="44.10678495166502" lon="12.14174970918297"><ele>267.0</ele><time>2026-03-28T15:00:21Z</time></trkpt><trkpt lat="44.106620870998086" lon="12.14165347939935"><ele>267.0</ele><time>2026-03-28T15:00:22Z</time></trkpt><trkpt lat="44.10645583089606" lon="12.141599778889503"><ele>267.6666666666667</ele><time>2026-03-28T15:00:23Z</time></trkpt><trkpt lat="44.106290485829035" lon="12.141536297999629"><ele>268.33333333333337</ele><time>2026-03-28T15:00:24Z</time></trkpt><trkpt lat="44.10612159860276" lon="12.141525210313075"><ele>269.0</ele><time>2026-03-28T15:00:25Z</time></trkpt><trkpt lat="44.10592906653294" lon="12.141551900276875"><ele>268.6666666666667</ele><time>2026-03-28T15:00:26Z</time></trkpt><trkpt lat="44.105719400828164" lon="12.141599152909677"><ele>268.3333333333333</ele><time>2026-03-28T15:00:27Z</time></trkpt><trkpt lat="44.105540705974306" lon="12.141674417610064"><ele>268.0</ele><time>2026-03-28T15:00:28Z</time></trkpt><trkpt lat="44.105367792125165" lon="12.141751594495382"><ele>268.0</ele><time>2026-03-28T15:00:29Z</time></trkpt><trkpt lat="44.10518368856869" lon="12.141874279018243"><ele>268.0</ele><time>2026-03-28T15:00:30Z</time></trkpt><trkpt lat="44.105002244734884" lon="12.141996635478169"><ele>268.0</ele><time>2026-03-28T15:00:31Z</time></trkpt><trkpt lat="44.10485429996552" lon="12.14211279175428"><ele>270.3333333333333</ele><time>2026-03-28T15:00:32Z</time></trkpt><trkpt lat="44.104713951850876" lon="12.142191735248236"><ele>272.6666666666667</ele><time>2026-03-28T15:00:33Z</time></trkpt><trkpt lat="44.104550129508645" lon="12.142222737142587"><ele>275.0</ele><time>2026-03-28T15:00:34Z</time></trkpt><trkpt lat="44.10436100506269" lon="12.1422282239338"><ele>275.0</ele><time>2026-03-28T15:00:35Z</time></trkpt><trkpt lat="44.10415696740532" lon="12.142187305621013"><ele>275.0</ele><time>2026-03-28T15:00:36Z</time></trkpt><trkpt lat="44.1039511451514" lon="12.142202279638525"><ele>275.0</ele><time>2026-03-28T15:00:37Z</time></trkpt><trkpt lat="44.103750381298035" lon="12.142196169405587"><ele>273.0</ele><time>2026-03-28T15:00:38Z</time></trkpt><trkpt lat="44.10354455330882" lon="12.142205804461897"><ele>271.0</ele><time>2026-03-28T15:00:39Z</time></trkpt><trkpt lat="44.10336050735198" lon="12.142237191937589"><ele>269.0</ele><time>2026-03-28T15:00:40Z</time></trkpt><trkpt lat="44.103191692868" lon="12.14226996015621"><ele>269.0</ele><time>2026-03-28T15:00:41Z</time></trkpt><trkpt lat="44.10304595350374" lon="12.142315157913986"><ele>269.0</ele><time>2026-03-28T15:00:42Z</time></trkpt><trkpt lat="44.1029203897729" lon="12.142353586324889"><ele>269.0</ele><time>2026-03-28T15:00:43Z</time></trkpt><trkpt lat="44.10280620075373" lon="12.1423900509185"><ele>269.0</ele><time>2026-03-28T15:00:44Z</time></trkpt><trkpt lat="44.10270627877584" lon="12.14242425329452"><ele>269.0</ele><time>2026-03-28T15:00:45Z</time></trkpt><trkpt lat="44.102620349291726" lon="12.142455613955232"><ele>269.0</ele><time>2026-03-28T15:00:46Z</time></trkpt><trkpt lat="44.10253471376121" lon="12.142482872000707"><ele>269.0</ele><time>2026-03-28T15:00:47Z</time></trkpt><trkpt lat="44.10244323645995" lon="12.142497560100164"><ele>269.0</ele><time>2026-03-28T15:00:48Z</time></trkpt><trkpt lat="44.10234511153138" lon="12.142524517581633"><ele>269.0</ele><time>2026-03-28T15:00:49Z</time></trkpt><trkpt lat="44.1022367470047" lon="12.14253516621636"><ele>271.25</ele><time>2026-03-28T15:00:50Z</time></trkpt><trkpt lat="44.10212695443823" lon="12.142542474574402"><ele>273.5</ele><time>2026-03-28T15:00:51Z</time></trkpt><trkpt lat="44.10200572373986" lon="12.142550334234775"><ele>275.75</ele><time>2026-03-28T15:00:52Z</time></trkpt><trkpt lat="44.101889660948785" lon="12.142545056872194"><ele>278.0</ele><time>2026-03-28T15:00:53Z</time></trkpt><trkpt lat="44.10176876838489" lon="12.142502376849452"><ele>278.0</ele><time>2026-03-28T15:00:54Z</time></trkpt><trkpt lat="44.10165829433976" lon="12.142441385233404"><ele>278.0</ele><time>2026-03-28T15:00:55Z</time></trkpt><trkpt lat="44.10154986804277" lon="12.142374533381556"><ele>278.0</ele><time>2026-03-28T15:00:56Z</time></trkpt><trkpt lat="44.101459836061835" lon="12.142279864518734"><ele>278.0</ele><time>2026-03-28T15:00:57Z</time></trkpt><trkpt lat="44.101372768515496" lon="12.14220538927663"><ele>279.2</ele><time>2026-03-28T15:00:58Z</time></trkpt><trkpt lat="44.101275181949184" lon="12.142123476529914"><ele>280.4</ele><time>2026-03-28T15:00:59Z</time></trkpt><trkpt lat="44.101168334106994" lon="12.142051505451105"><ele>281.59999999999997</ele><time>2026-03-28T15:01:00Z</time></trkpt><trkpt lat="44.101065501890815" lon="12.142024316074895"><ele>282.8</ele><time>2026-03-28T15:01:01Z</time></trkpt><trkpt lat="44.10097653830944" lon="12.141983364183693"><ele>284.0</ele><time>2026-03-28T15:01:02Z</time></trkpt><trkpt lat="44.100887314527284" lon="12.141945664194322"><ele>284.0</ele><time>2026-03-28T15:01:03Z</time></trkpt><trkpt lat="44.10079562180635" lon="12.141903887260629"><ele>284.0</ele><time>2026-03-28T15:01:04Z</time></trkpt><trkpt lat="44.100684237141294" lon="12.14185185222458"><ele>284.0</ele><time>2026-03-28T15:01:05Z</time></trkpt><trkpt lat="44.10057846273636" lon="12.141794349503975"><ele>284.0</ele><time>2026-03-28T15:01:06Z</time></trkpt><trkpt lat="44.100479565051245" lon="12.141715295751103"><ele>284.0</ele><time>2026-03-28T15:01:07Z</time></trkpt><trkpt lat="44.10043392485367" lon="12.141591996885415"><ele>285.0</ele><time>2026-03-28T15:01:08Z</time></trkpt><trkpt lat="44.10039056823106" lon="12.14147439934069"><ele>286.0</ele><time>2026-03-28T15:01:09Z</time></trkpt><trkpt lat="44.10032105194555" lon="12.141349442812924"><ele>287.0</ele><time>2026-03-28T15:01:10Z</time></trkpt><trkpt lat="44.10026436010349" lon="12.141232644529296"><ele>288.0</ele><time>2026-03-28T15:01:11Z</time></trkpt><trkpt lat="44.100177383092024" lon="12.14118743842777"><ele>289.0</ele><time>2026-03-28T15:01:12Z</time></trkpt><trkpt lat="44.10008973253117" lon="12.141182093756425"><ele>289.0</ele><time>2026-03-28T15:01:13Z</time></trkpt><trkpt lat="44.10000972692074" lon="12.141233594555926"><ele>289.0</ele><time>2026-03-28T15:01:14Z</time></trkpt><trkpt lat="44.09992435437947" lon="12.141270132463747"><ele>289.0</ele><time>2026-03-28T15:01:15Z</time></trkpt><trkpt lat="44.09981594724001" lon="12.141310365853686"><ele>289.0</ele><time>2026-03-28T15:01:16Z</time></trkpt><trkpt lat="44.09967638213624" lon="12.141331868359984"><ele>289.0</ele><time>2026-03-28T15:01:17Z</time></trkpt><trkpt lat="44.09953375225427" lon="12.141338195354264"><ele>291.0</ele><time>2026-03-28T15:01:18Z</time></trkpt><trkpt lat="44.09937952282228" lon="12.141320813813946"><ele>293.0</ele><time>2026-03-28T15:01:19Z</time></trkpt><trkpt lat="44.09921511949114" lon="12.141271162664635"><ele>295.0</ele><time>2026-03-28T15:01:20Z</time></trkpt><trkpt lat="44.09908264608697" lon="12.141188387485156"><ele>296.75</ele><time>2026-03-28T15:01:21Z</time></trkpt><trkpt lat="44.09894149241771" lon="12.141090350095974"><ele>298.5</ele><time>2026-03-28T15:01:22Z</time></trkpt><trkpt lat="44.09879727678503" lon="12.141036442008545"><ele>300.25</ele><time>2026-03-28T15:01:23Z</time></trkpt><trkpt lat="44.0986621712902" lon="12.141004844522767"><ele>302.0</ele><time>2026-03-28T15:01:24Z</time></trkpt><trkpt lat="44.09852942668444" lon="12.14100464641077"><ele>302.0</ele><time>2026-03-28T15:01:25Z</time></trkpt><trkpt lat="44.09839606103621" lon="12.141064534816868"><ele>302.0</ele><time>2026-03-28T15:01:26Z</time></trkpt><trkpt lat="44.09824329830805" lon="12.14115787651962"><ele>302.0</ele><time>2026-03-28T15:01:27Z</time></trkpt><trkpt lat="44.09808283291488" lon="12.141281313003972"><ele>305.6666666666667</ele><time>2026-03-28T15:01:28Z</time></trkpt><trkpt lat="44.09791377935586" lon="12.141372433745559"><ele>309.3333333333333</ele><time>2026-03-28T15:01:29Z</time></trkpt><trkpt lat="44.097772520689404" lon="12.141446455375094"><ele>313.0</ele><time>2026-03-28T15:01:30Z</time></trkpt><trkpt lat="44.09765074532662" lon="12.141481126263146"><ele>313.0</ele><time>2026-03-28T15:01:31Z</time></trkpt><trkpt lat="44.09754514617452" lon="12.141467035081916"><ele>313.0</ele><time>2026-03-28T15:01:32Z</time></trkpt><trkpt lat="44.09746367321723" lon="12.141386963005958"><ele>313.0</ele><time>2026-03-28T15:01:33Z</time></trkpt><trkpt lat="44.097352710527495" lon="12.141288752639273"><ele>313.0</ele><time>2026-03-28T15:01:34Z</time></trkpt><trkpt lat="44.097233526987935" lon="12.141240767531698"><ele>313.16666666666663</ele><time>2026-03-28T15:01:35Z</time></trkpt><trkpt lat="44.09713735788804" lon="12.141250198676149"><ele>313.3333333333333</ele><time>2026-03-28T15:01:36Z</time></trkpt><trkpt lat="44.097057200163206" lon="12.14133987068456"><ele>313.5</ele><time>2026-03-28T15:01:37Z</time></trkpt><trkpt lat="44.097008216501486" lon="12.141445171266328"><ele>313.6666666666667</ele><time>2026-03-28T15:01:38Z</time></trkpt><trkpt lat="44.096982529338895" lon="12.141564170124779"><ele>313.83333333333337</ele><time>2026-03-28T15:01:40Z</time></trkpt><trkpt lat="44.096956306858594" lon="12.141644567448685"><ele>314.0</ele><time>2026-03-28T15:01:43Z</time></trkpt><trkpt lat="44.096926767880696" lon="12.141723076340421"><ele>313.5</ele><time>2026-03-28T15:01:44Z</time></trkpt><trkpt lat="44.09687284787604" lon="12.141892282544596"><ele>313.0</ele><time>2026-03-28T15:01:45Z</time></trkpt><trkpt lat="44.09682850547027" lon="12.142076868706296"><ele>312.5</ele><time>2026-03-28T15:01:46Z</time></trkpt><trkpt lat="44.09679680273821" lon="12.1422619183927"><ele>312.0</ele><time>2026-03-28T15:01:47Z</time></trkpt><trkpt lat="44.09677545479583" lon="12.14246794408299"><ele>313.0</ele><time>2026-03-28T15:01:48Z</time></trkpt><trkpt lat="44.096743418269014" lon="12.142640437296713"><ele>314.0</ele><time>2026-03-28T15:01:49Z</time></trkpt><trkpt lat="44.09668842517815" lon="12.142795221054152"><ele>315.0</ele><time>2026-03-28T15:01:50Z</time></trkpt><trkpt lat="44.0965975756216" lon="12.142911868513082"><ele>316.0</ele><time>2026-03-28T15:01:51Z</time></trkpt><trkpt lat="44.09651727285119" lon="12.143032332312178"><ele>312.75</ele><time>2026-03-28T15:01:52Z</time></trkpt><trkpt lat="44.0964219700123" lon="12.143142404375206"><ele>309.5</ele><time>2026-03-28T15:01:53Z</time></trkpt><trkpt lat="44.096356367915014" lon="12.143269680824488"><ele>306.25</ele><time>2026-03-28T15:01:54Z</time></trkpt><trkpt lat="44.09634061068448" lon="12.143408708420305"><ele>303.0</ele><time>2026-03-28T15:01:55Z</time></trkpt><trkpt lat="44.09635230926015" lon="12.143572614518494"><ele>303.0</ele><time>2026-03-28T15:01:56Z</time></trkpt><trkpt lat="44.09639390750313" lon="12.143778111077511"><ele>303.0</ele><time>2026-03-28T15:01:57Z</time></trkpt><trkpt lat="44.09643005068563" lon="12.143957685764258"><ele>303.0</ele><time>2026-03-28T15:01:58Z</time></trkpt><trkpt lat="44.09640801121116" lon="12.144141999789513"><ele>303.0</ele><time>2026-03-28T15:01:59Z</time></trkpt><trkpt lat="44.096371156357705" lon="12.14432764303874"><ele>306.25</ele><time>2026-03-28T15:02:00Z</time></trkpt><trkpt lat="44.096328408165796" lon="12.144511533434814"><ele>309.5</ele><time>2026-03-28T15:02:01Z</time></trkpt><trkpt lat="44.096242560821516" lon="12.144620058200685"><ele>312.75</ele><time>2026-03-28T15:02:02Z</time></trkpt><trkpt lat="44.096168513245075" lon="12.144703090563064"><ele>316.0</ele><time>2026-03-28T15:02:03Z</time></trkpt><trkpt lat="44.09606554570492" lon="12.144763087079477"><ele>316.0</ele><time>2026-03-28T15:02:04Z</time></trkpt><trkpt lat="44.095945110721956" lon="12.144797114578525"><ele>316.0</ele><time>2026-03-28T15:02:05Z</time></trkpt><trkpt lat="44.09581339235541" lon="12.144802192714577"><ele>316.0</ele><time>2026-03-28T15:02:06Z</time></trkpt><trkpt lat="44.0956492530087" lon="12.144808983783175"><ele>316.0</ele><time>2026-03-28T15:02:07Z</time></trkpt><trkpt lat="44.09547496179014" lon="12.144790382823746"><ele>316.25</ele><time>2026-03-28T15:02:08Z</time></trkpt><trkpt lat="44.095308569373046" lon="12.144780230689904"><ele>316.5</ele><time>2026-03-28T15:02:09Z</time></trkpt><trkpt lat="44.095163934855" lon="12.144796454690589"><ele>316.75</ele><time>2026-03-28T15:02:10Z</time></trkpt><trkpt lat="44.095033439415886" lon="12.144838701160296"><ele>317.0</ele><time>2026-03-28T15:02:11Z</time></trkpt><trkpt lat="44.09489003309638" lon="12.14490783322246"><ele>317.0</ele><time>2026-03-28T15:02:12Z</time></trkpt><trkpt lat="44.09473726130647" lon="12.145006023111087"><ele>317.0</ele><time>2026-03-28T15:02:13Z</time></trkpt><trkpt lat="44.09458024294572" lon="12.14511610506093"><ele>317.0</ele><time>2026-03-28T15:02:14Z</time></trkpt><trkpt lat="44.09443155649035" lon="12.145168746464526"><ele>317.0</ele><time>2026-03-28T15:02:15Z</time></trkpt><trkpt lat="44.094296840042105" lon="12.14524125237643"><ele>317.0</ele><time>2026-03-28T15:02:16Z</time></trkpt><trkpt lat="44.09416397902221" lon="12.14532242902319"><ele>317.0</ele><time>2026-03-28T15:02:17Z</time></trkpt><trkpt lat="44.09402950692931" lon="12.145464058337701"><ele>320.33333333333337</ele><time>2026-03-28T15:02:18Z</time></trkpt><trkpt lat="44.09389614527782" lon="12.145632171930508"><ele>323.6666666666667</ele><time>2026-03-28T15:02:19Z</time></trkpt><trkpt lat="44.093767356525284" lon="12.145795460137435"><ele>327.0</ele><time>2026-03-28T15:02:20Z</time></trkpt><trkpt lat="44.09363696095853" lon="12.145959545530449"><ele>328.3333333333333</ele><time>2026-03-28T15:02:21Z</time></trkpt><trkpt lat="44.09351686393911" lon="12.146133094082305"><ele>329.66666666666663</ele><time>2026-03-28T15:02:22Z</time></trkpt><trkpt lat="44.0934047533694" lon="12.14628882904469"><ele>331.0</ele><time>2026-03-28T15:02:23Z</time></trkpt><trkpt lat="44.093290043436966" lon="12.146438550515363"><ele>334.0</ele><time>2026-03-28T15:02:24Z</time></trkpt><trkpt lat="44.093174846842544" lon="12.146580962899979"><ele>337.0</ele><time>2026-03-28T15:02:25Z</time></trkpt><trkpt lat="44.09307618886259" lon="12.146718806485495"><ele>340.0</ele><time>2026-03-28T15:02:26Z</time></trkpt><trkpt lat="44.09299438981714" lon="12.146880968294363"><ele>343.0</ele><time>2026-03-28T15:02:27Z</time></trkpt><trkpt lat="44.09294273229391" lon="12.147085927466813"><ele>343.0</ele><time>2026-03-28T15:02:28Z</time></trkpt><trkpt lat="44.09291430598077" lon="12.14732415383113"><ele>343.0</ele><time>2026-03-28T15:02:29Z</time></trkpt><trkpt lat="44.09290729312134" lon="12.14757536164651"><ele>343.0</ele><time>2026-03-28T15:02:30Z</time></trkpt><trkpt lat="44.092921664724564" lon="12.147847444208116"><ele>342.66666666666663</ele><time>2026-03-28T15:02:31Z</time></trkpt><trkpt lat="44.09294182429376" lon="12.148122269435762"><ele>342.3333333333333</ele><time>2026-03-28T15:02:32Z</time></trkpt><trkpt lat="44.09294152539946" lon="12.148422795028404"><ele>342.0</ele><time>2026-03-28T15:02:33Z</time></trkpt><trkpt lat="44.09294473069898" lon="12.148667628162393"><ele>341.0</ele><time>2026-03-28T15:02:34Z</time></trkpt><trkpt lat="44.09294166208957" lon="12.148869513904984"><ele>340.0</ele><time>2026-03-28T15:02:35Z</time></trkpt><trkpt lat="44.09293820396541" lon="12.149053316355719"><ele>339.0</ele><time>2026-03-28T15:02:36Z</time></trkpt><trkpt lat="44.092941654735945" lon="12.149259683835577"><ele>338.0</ele><time>2026-03-28T15:02:37Z</time></trkpt><trkpt lat="44.09295358806932" lon="12.149506497674352"><ele>336.0</ele><time>2026-03-28T15:02:38Z</time></trkpt><trkpt lat="44.09297138424306" lon="12.149757771389131"><ele>334.0</ele><time>2026-03-28T15:02:39Z</time></trkpt><trkpt lat="44.092986437388504" lon="12.149986662702554"><ele>332.0</ele><time>2026-03-28T15:02:40Z</time></trkpt><trkpt lat="44.09299578761535" lon="12.150195654440395"><ele>331.75</ele><time>2026-03-28T15:02:41Z</time></trkpt><trkpt lat="44.0929950989822" lon="12.150389054702721"><ele>331.5</ele><time>2026-03-28T15:02:42Z</time></trkpt><trkpt lat="44.092976036679325" lon="12.15058936448657"><ele>331.25</ele><time>2026-03-28T15:02:43Z</time></trkpt><trkpt lat="44.09292988807155" lon="12.150810021677682"><ele>331.0</ele><time>2026-03-28T15:02:44Z</time></trkpt><trkpt lat="44.09286649847855" lon="12.151053464909234"><ele>331.0</ele><time>2026-03-28T15:02:45Z</time></trkpt><trkpt lat="44.09277644902241" lon="12.151256812914305"><ele>331.0</ele><time>2026-03-28T15:02:46Z</time></trkpt><trkpt lat="44.092719633178234" lon="12.151464155755477"><ele>331.0</ele><time>2026-03-28T15:02:47Z</time></trkpt><trkpt lat="44.09266649931173" lon="12.151642885226943"><ele>330.75</ele><time>2026-03-28T15:02:48Z</time></trkpt><trkpt lat="44.09262949024853" lon="12.151843934671199"><ele>330.5</ele><time>2026-03-28T15:02:49Z</time></trkpt><trkpt lat="44.0926130624456" lon="12.152054254270375"><ele>330.25</ele><time>2026-03-28T15:02:50Z</time></trkpt><trkpt lat="44.09262130082621" lon="12.152240836268211"><ele>330.0</ele><time>2026-03-28T15:02:51Z</time></trkpt><trkpt lat="44.09265990463953" lon="12.152406459114061"><ele>330.0</ele><time>2026-03-28T15:02:52Z</time></trkpt><trkpt lat="44.09273253562545" lon="12.15254378093251"><ele>330.0</ele><time>2026-03-28T15:02:53Z</time></trkpt><trkpt lat="44.09283676625776" lon="12.15265684885365"><ele>330.0</ele><time>2026-03-28T15:02:54Z</time></trkpt><trkpt lat="44.09295812764466" lon="12.152737090516823"><ele>330.0</ele><time>2026-03-28T15:02:55Z</time></trkpt><trkpt lat="44.09310373060001" lon="12.152821711700597"><ele>330.0</ele><time>2026-03-28T15:02:56Z</time></trkpt><trkpt lat="44.09325035998983" lon="12.152933841962662"><ele>330.0</ele><time>2026-03-28T15:02:57Z</time></trkpt><trkpt lat="44.09336796312709" lon="12.153054299422774"><ele>330.0</ele><time>2026-03-28T15:02:58Z</time></trkpt><trkpt lat="44.09343908696637" lon="12.153178047120994"><ele>330.0</ele><time>2026-03-28T15:02:59Z</time></trkpt><trkpt lat="44.093485502207514" lon="12.153310697129438"><ele>330.5</ele><time>2026-03-28T15:03:00Z</time></trkpt><trkpt lat="44.093510002169076" lon="12.153494299720098"><ele>331.0</ele><time>2026-03-28T15:03:01Z</time></trkpt><trkpt lat="44.093547914120684" lon="12.153693762295795"><ele>331.5</ele><time>2026-03-28T15:03:02Z</time></trkpt><trkpt lat="44.09357710830595" lon="12.153832119959356"><ele>332.0</ele><time>2026-03-28T15:03:03Z</time></trkpt><trkpt lat="44.093637990481895" lon="12.153924652821917"><ele>332.0</ele><time>2026-03-28T15:03:04Z</time></trkpt><trkpt lat="44.09372983210246" lon="12.154004355478927"><ele>332.0</ele><time>2026-03-28T15:03:05Z</time></trkpt><trkpt lat="44.093874174360096" lon="12.154060637399919"><ele>332.0</ele><time>2026-03-28T15:03:06Z</time></trkpt><trkpt lat="44.09406783727419" lon="12.154120755141332"><ele>332.0</ele><time>2026-03-28T15:03:07Z</time></trkpt><trkpt lat="44.094270726988626" lon="12.154189511951566"><ele>332.0</ele><time>2026-03-28T15:03:08Z</time></trkpt><trkpt lat="44.09448262383281" lon="12.154299696534782"><ele>332.0</ele><time>2026-03-28T15:03:09Z</time></trkpt><trkpt lat="44.09467811373674" lon="12.154388731325513"><ele>332.0</ele><time>2026-03-28T15:03:10Z</time></trkpt><trkpt lat="44.0948469013973" lon="12.154493111271801"><ele>332.0</ele><time>2026-03-28T15:03:11Z</time></trkpt><trkpt lat="44.09501063567437" lon="12.154624819632328"><ele>332.0</ele><time>2026-03-28T15:03:12Z</time></trkpt><trkpt lat="44.09519172314865" lon="12.154728725781121"><ele>334.33333333333337</ele><time>2026-03-28T15:03:13Z</time></trkpt><trkpt lat="44.09536553673965" lon="12.154828630041523"><ele>336.6666666666667</ele><time>2026-03-28T15:03:14Z</time></trkpt><trkpt lat="44.0955663771684" lon="12.154915378417272"><ele>339.0</ele><time>2026-03-28T15:03:15Z</time></trkpt><trkpt lat="44.095741121184716" lon="12.154957696422274"><ele>334.3333333333333</ele><time>2026-03-28T15:03:16Z</time></trkpt><trkpt lat="44.09589312831353" lon="12.155049264555378"><ele>329.66666666666663</ele><time>2026-03-28T15:03:17Z</time></trkpt><trkpt lat="44.0960357534825" lon="12.155141465069327"><ele>325.0</ele><time>2026-03-28T15:03:18Z</time></trkpt><trkpt lat="44.09617298119228" lon="12.155228424725479"><ele>325.0</ele><time>2026-03-28T15:03:19Z</time></trkpt><trkpt lat="44.09629138365978" lon="12.155335152753537"><ele>325.0</ele><time>2026-03-28T15:03:20Z</time></trkpt><trkpt lat="44.09637575659959" lon="12.155466789630644"><ele>325.0</ele><time>2026-03-28T15:03:21Z</time></trkpt><trkpt lat="44.0964615466106" lon="12.15558883131357"><ele>325.0</ele><time>2026-03-28T15:03:22Z</time></trkpt><trkpt lat="44.096533799443094" lon="12.155723811257149"><ele>325.6</ele><time>2026-03-28T15:03:23Z</time></trkpt><trkpt lat="44.09659075542203" lon="12.155855050723561"><ele>326.2</ele><time>2026-03-28T15:03:24Z</time></trkpt><trkpt lat="44.09660644143882" lon="12.156008453354302"><ele>326.79999999999995</ele><time>2026-03-28T15:03:25Z</time></trkpt><trkpt lat="44.096591421943565" lon="12.156165085280902"><ele>327.4</ele><time>2026-03-28T15:03:26Z</time></trkpt><trkpt lat="44.09654099631128" lon="12.156292071773585"><ele>328.0</ele><time>2026-03-28T15:03:27Z</time></trkpt><trkpt lat="44.09648613271597" lon="12.15640378225304"><ele>324.0</ele><time>2026-03-28T15:03:28Z</time></trkpt><trkpt lat="44.09642621454145" lon="12.156527444894087"><ele>320.0</ele><time>2026-03-28T15:03:29Z</time></trkpt><trkpt lat="44.09638758684733" lon="12.15665452548107"><ele>316.0</ele><time>2026-03-28T15:03:30Z</time></trkpt><trkpt lat="44.0963723472115" lon="12.156772573162451"><ele>312.0</ele><time>2026-03-28T15:03:31Z</time></trkpt><trkpt lat="44.09639815104922" lon="12.156889600635983"><ele>308.0</ele><time>2026-03-28T15:03:32Z</time></trkpt><trkpt lat="44.09645766880552" lon="12.156973625563323"><ele>306.75</ele><time>2026-03-28T15:03:33Z</time></trkpt><trkpt lat="44.09655332180977" lon="12.157067617802316"><ele>305.5</ele><time>2026-03-28T15:03:34Z</time></trkpt><trkpt lat="44.096682920045" lon="12.157139772003719"><ele>304.25</ele><time>2026-03-28T15:03:35Z</time></trkpt><trkpt lat="44.09683884886853" lon="12.15721289334424"><ele>303.0</ele><time>2026-03-28T15:03:36Z</time></trkpt><trkpt lat="44.09699047412157" lon="12.157299758946131"><ele>303.75</ele><time>2026-03-28T15:03:37Z</time></trkpt><trkpt lat="44.097120958729235" lon="12.15741177795538"><ele>304.5</ele><time>2026-03-28T15:03:38Z</time></trkpt><trkpt lat="44.097244948730875" lon="12.157509190680996"><ele>305.25</ele><time>2026-03-28T15:03:39Z</time></trkpt><trkpt lat="44.09736309247766" lon="12.157599509909517"><ele>306.0</ele><time>2026-03-28T15:03:40Z</time></trkpt><trkpt lat="44.09745744786322" lon="12.157699256806218"><ele>308.5</ele><time>2026-03-28T15:03:41Z</time></trkpt><trkpt lat="44.09752914350935" lon="12.15780810899509"><ele>311.0</ele><time>2026-03-28T15:03:42Z</time></trkpt><trkpt lat="44.097557782765485" lon="12.157952458653687"><ele>313.5</ele><time>2026-03-28T15:03:43Z</time></trkpt><trkpt lat="44.097588493092054" lon="12.158113767804274"><ele>316.0</ele><time>2026-03-28T15:03:44Z</time></trkpt><trkpt lat="44.09757370214048" lon="12.158275180043123"><ele>316.0</ele><time>2026-03-28T15:03:45Z</time></trkpt><trkpt lat="44.097518351378795" lon="12.158465337153002"><ele>316.0</ele><time>2026-03-28T15:03:46Z</time></trkpt><trkpt lat="44.0974529323786" lon="12.158682507071648"><ele>316.0</ele><time>2026-03-28T15:03:47Z</time></trkpt><trkpt lat="44.09740896068736" lon="12.158891478359823"><ele>305.0</ele><time>2026-03-28T15:03:48Z</time></trkpt><trkpt lat="44.09738080860704" lon="12.159102762517788"><ele>294.0</ele><time>2026-03-28T15:03:49Z</time></trkpt><trkpt lat="44.09736130104527" lon="12.159326678841234"><ele>283.0</ele><time>2026-03-28T15:03:50Z</time></trkpt><trkpt lat="44.097342812502006" lon="12.159518265878285"><ele>283.0</ele><time>2026-03-28T15:03:51Z</time></trkpt><trkpt lat="44.09731517233937" lon="12.159657759813904"><ele>283.0</ele><time>2026-03-28T15:03:52Z</time></trkpt><trkpt lat="44.097253378309034" lon="12.159767224316534"><ele>283.0</ele><time>2026-03-28T15:03:53Z</time></trkpt><trkpt lat="44.09716671184969" lon="12.159855103310514"><ele>283.0</ele><time>2026-03-28T15:03:54Z</time></trkpt><trkpt lat="44.097069041690716" lon="12.159872432521482"><ele>283.0</ele><time>2026-03-28T15:03:55Z</time></trkpt><trkpt lat="44.096966213211104" lon="12.15987854393543"><ele>284.0</ele><time>2026-03-28T15:03:56Z</time></trkpt><trkpt lat="44.09685602731402" lon="12.159897268794579"><ele>285.0</ele><time>2026-03-28T15:03:57Z</time></trkpt><trkpt lat="44.09675880438742" lon="12.159900859282907"><ele>286.0</ele><time>2026-03-28T15:03:58Z</time></trkpt><trkpt lat="44.09668135997124" lon="12.159959956469091"><ele>287.0</ele><time>2026-03-28T15:03:59Z</time></trkpt><trkpt lat="44.09663508169008" lon="12.16004775123345"><ele>288.0</ele><time>2026-03-28T15:04:00Z</time></trkpt><trkpt lat="44.096616211536976" lon="12.160155128279477"><ele>288.0</ele><time>2026-03-28T15:04:01Z</time></trkpt><trkpt lat="44.096666429551036" lon="12.160294966754439"><ele>288.0</ele><time>2026-03-28T15:04:02Z</time></trkpt><trkpt lat="44.096731001104104" lon="12.160459825323386"><ele>288.0</ele><time>2026-03-28T15:04:03Z</time></trkpt><trkpt lat="44.096838585513545" lon="12.160638280299642"><ele>288.0</ele><time>2026-03-28T15:04:04Z</time></trkpt><trkpt lat="44.0969005665663" lon="12.160821868452883"><ele>288.0</ele><time>2026-03-28T15:04:05Z</time></trkpt><trkpt lat="44.09693070318192" lon="12.160984253821365"><ele>288.0</ele><time>2026-03-28T15:04:06Z</time></trkpt><trkpt lat="44.096938286425676" lon="12.161144387804116"><ele>288.0</ele><time>2026-03-28T15:04:07Z</time></trkpt><trkpt lat="44.096897527456036" lon="12.161279292095486"><ele>288.0</ele><time>2026-03-28T15:04:08Z</time></trkpt><trkpt lat="44.096844028330125" lon="12.161395680644237"><ele>288.0</ele><time>2026-03-28T15:04:09Z</time></trkpt><trkpt lat="44.09675779961237" lon="12.16149173927804"><ele>287.75</ele><time>2026-03-28T15:04:10Z</time></trkpt><trkpt lat="44.09661890074593" lon="12.161579420393554"><ele>287.5</ele><time>2026-03-28T15:04:11Z</time></trkpt><trkpt lat="44.09652079844468" lon="12.16167245341304"><ele>287.25</ele><time>2026-03-28T15:04:12Z</time></trkpt><trkpt lat="44.09643170361846" lon="12.16172915214861"><ele>287.0</ele><time>2026-03-28T15:04:13Z</time></trkpt><trkpt lat="44.096377758035906" lon="12.161815678135184"><ele>287.0</ele><time>2026-03-28T15:04:14Z</time></trkpt><trkpt lat="44.096351906603644" lon="12.161920135339143"><ele>287.0</ele><time>2026-03-28T15:04:15Z</time></trkpt><trkpt lat="44.09640073593569" lon="12.162032686833683"><ele>287.0</ele><time>2026-03-28T15:04:16Z</time></trkpt><trkpt lat="44.096473164997384" lon="12.162124386592431"><ele>287.0</ele><time>2026-03-28T15:04:17Z</time></trkpt><trkpt lat="44.096598910737754" lon="12.162228649690626"><ele>287.0</ele><time>2026-03-28T15:04:18Z</time></trkpt><trkpt lat="44.09673722578165" lon="12.162344867941734"><ele>283.6666666666667</ele><time>2026-03-28T15:04:19Z</time></trkpt><trkpt lat="44.096884025107755" lon="12.162479695925382"><ele>280.3333333333333</ele><time>2026-03-28T15:04:20Z</time></trkpt><trkpt lat="44.097042671405156" lon="12.16262888557326"><ele>277.0</ele><time>2026-03-28T15:04:21Z</time></trkpt><trkpt lat="44.097173207683596" lon="12.162757084055642"><ele>277.0</ele><time>2026-03-28T15:04:22Z</time></trkpt><trkpt lat="44.097254823995264" lon="12.16284216578168"><ele>277.0</ele><time>2026-03-28T15:04:23Z</time></trkpt><trkpt lat="44.09732085956269" lon="12.162927006443828"><ele>277.0</ele><time>2026-03-28T15:04:24Z</time></trkpt><trkpt lat="44.09736278208643" lon="12.163040872172916"><ele>277.0</ele><time>2026-03-28T15:04:25Z</time></trkpt><trkpt lat="44.09735873680691" lon="12.163185450338549"><ele>277.0</ele><time>2026-03-28T15:04:26Z</time></trkpt><trkpt lat="44.097297387128236" lon="12.163328579158833"><ele>274.4</ele><time>2026-03-28T15:04:27Z</time></trkpt><trkpt lat="44.09723671095937" lon="12.163483719480988"><ele>271.79999999999995</ele><time>2026-03-28T15:04:28Z</time></trkpt><trkpt lat="44.09719666300665" lon="12.16362085382953"><ele>269.2</ele><time>2026-03-28T15:04:29Z</time></trkpt><trkpt lat="44.0971651379634" lon="12.163721866126457"><ele>266.59999999999997</ele><time>2026-03-28T15:04:30Z</time></trkpt><trkpt lat="44.09710114993112" lon="12.163790626824305"><ele>264.0</ele><time>2026-03-28T15:04:32Z</time></trkpt><trkpt lat="44.09703704386413" lon="12.163568468869162"><ele>264.0</ele><time>2026-03-28T15:04:35Z</time></trkpt><trkpt lat="44.09699625029802" lon="12.163466393127795"><ele>264.0</ele><time>2026-03-28T15:04:36Z</time></trkpt><trkpt lat="44.09696460578046" lon="12.163321942320916"><ele>264.0</ele><time>2026-03-28T15:04:38Z</time></trkpt><trkpt lat="44.096875367317864" lon="12.163173401211166"><ele>264.0</ele><time>2026-03-28T15:04:40Z</time></trkpt><trkpt lat="44.09677542092548" lon="12.163034759253694"><ele>261.6666666666667</ele><time>2026-03-28T15:04:41Z</time></trkpt><trkpt lat="44.096655563770064" lon="12.162884754266562"><ele>259.33333333333337</ele><time>2026-03-28T15:04:42Z</time></trkpt><trkpt lat="44.09650688083962" lon="12.162728595513807"><ele>257.0</ele><time>2026-03-28T15:04:43Z</time></trkpt><trkpt lat="44.0963493427161" lon="12.16257953902868"><ele>257.0</ele><time>2026-03-28T15:04:44Z</time></trkpt><trkpt lat="44.09619997345812" lon="12.162496762391173"><ele>257.0</ele><time>2026-03-28T15:04:45Z</time></trkpt><trkpt lat="44.09606142796363" lon="12.162425626044303"><ele>257.0</ele><time>2026-03-28T15:04:46Z</time></trkpt><trkpt lat="44.09594490245749" lon="12.162338691008701"><ele>257.0</ele><time>2026-03-28T15:04:47Z</time></trkpt><trkpt lat="44.09586805600404" lon="12.16218035300561"><ele>256.0</ele><time>2026-03-28T15:04:48Z</time></trkpt><trkpt lat="44.095770101347384" lon="12.162016303616616"><ele>255.0</ele><time>2026-03-28T15:04:49Z</time></trkpt><trkpt lat="44.0956504128595" lon="12.16189990077512"><ele>254.0</ele><time>2026-03-28T15:04:50Z</time></trkpt><trkpt lat="44.09554298744916" lon="12.16182062729905"><ele>253.0</ele><time>2026-03-28T15:04:51Z</time></trkpt><trkpt lat="44.09548982666261" lon="12.161754132196121"><ele>253.0</ele><time>2026-03-28T15:04:52Z</time></trkpt><trkpt lat="44.095456196227126" lon="12.161636571138455"><ele>253.0</ele><time>2026-03-28T15:04:53Z</time></trkpt><trkpt lat="44.095475186761696" lon="12.161520430531324"><ele>253.0</ele><time>2026-03-28T15:04:54Z</time></trkpt><trkpt lat="44.095540289359135" lon="12.161432724385493"><ele>253.0</ele><time>2026-03-28T15:04:55Z</time></trkpt><trkpt lat="44.09562365072308" lon="12.161389382125398"><ele>253.0</ele><time>2026-03-28T15:04:56Z</time></trkpt><trkpt lat="44.095735266507596" lon="12.161366933390811"><ele>255.0</ele><time>2026-03-28T15:04:57Z</time></trkpt><trkpt lat="44.09583521960713" lon="12.161351796250251"><ele>257.0</ele><time>2026-03-28T15:04:58Z</time></trkpt><trkpt lat="44.09589915709023" lon="12.1613077273016"><ele>259.0</ele><time>2026-03-28T15:04:59Z</time></trkpt><trkpt lat="44.09596075459795" lon="12.161243998207956"><ele>261.0</ele><time>2026-03-28T15:05:00Z</time></trkpt><trkpt lat="44.096016693055695" lon="12.161132337073209"><ele>263.0</ele><time>2026-03-28T15:05:01Z</time></trkpt><trkpt lat="44.09604631934847" lon="12.160986436839362"><ele>263.0</ele><time>2026-03-28T15:05:02Z</time></trkpt><trkpt lat="44.09604122794184" lon="12.160823127688069"><ele>263.0</ele><time>2026-03-28T15:05:03Z</time></trkpt><trkpt lat="44.095998884783704" lon="12.160634596912496"><ele>263.0</ele><time>2026-03-28T15:05:04Z</time></trkpt><trkpt lat="44.095934222152934" lon="12.160450928999193"><ele>263.0</ele><time>2026-03-28T15:05:05Z</time></trkpt><trkpt lat="44.09589340292581" lon="12.160292934953134"><ele>262.75</ele><time>2026-03-28T15:05:06Z</time></trkpt><trkpt lat="44.095878852142505" lon="12.160141875761182"><ele>262.5</ele><time>2026-03-28T15:05:07Z</time></trkpt><trkpt lat="44.09588610537604" lon="12.159988324628786"><ele>262.25</ele><time>2026-03-28T15:05:08Z</time></trkpt><trkpt lat="44.095919645334334" lon="12.159822629807925"><ele>262.0</ele><time>2026-03-28T15:05:09Z</time></trkpt><trkpt lat="44.09598533265542" lon="12.159650775650505"><ele>260.3333333333333</ele><time>2026-03-28T15:05:10Z</time></trkpt><trkpt lat="44.09606509781046" lon="12.15946844522486"><ele>258.6666666666667</ele><time>2026-03-28T15:05:11Z</time></trkpt><trkpt lat="44.09617225928665" lon="12.159274678591002"><ele>257.0</ele><time>2026-03-28T15:05:12Z</time></trkpt><trkpt lat="44.096288955611115" lon="12.159092957199158"><ele>258.8</ele><time>2026-03-28T15:05:13Z</time></trkpt><trkpt lat="44.09639187936583" lon="12.158948136392816"><ele>260.6</ele><time>2026-03-28T15:05:14Z</time></trkpt><trkpt lat="44.09647287419898" lon="12.158837529326515"><ele>262.40000000000003</ele><time>2026-03-28T15:05:15Z</time></trkpt><trkpt lat="44.096535885868775" lon="12.158743171737104"><ele>264.2</ele><time>2026-03-28T15:05:16Z</time></trkpt><trkpt lat="44.09655757247824" lon="12.158637586856877"><ele>266.0</ele><time>2026-03-28T15:05:17Z</time></trkpt><trkpt lat="44.09653275299174" lon="12.158526942037263"><ele>266.0</ele><time>2026-03-28T15:05:18Z</time></trkpt><trkpt lat="44.09645785334358" lon="12.158422134126289"><ele>266.0</ele><time>2026-03-28T15:05:19Z</time></trkpt><trkpt lat="44.0963334092984" lon="12.158335030112008"><ele>266.0</ele><time>2026-03-28T15:05:20Z</time></trkpt><trkpt lat="44.09617455254102" lon="12.158262074281568"><ele>266.0</ele><time>2026-03-28T15:05:21Z</time></trkpt><trkpt lat="44.09601640697705" lon="12.158184112173737"><ele>267.5</ele><time>2026-03-28T15:05:22Z</time></trkpt><trkpt lat="44.095872688385946" lon="12.158101201660271"><ele>269.0</ele><time>2026-03-28T15:05:23Z</time></trkpt><trkpt lat="44.09573407958305" lon="12.15804492737502"><ele>270.5</ele><time>2026-03-28T15:05:24Z</time></trkpt><trkpt lat="44.095602871248616" lon="12.158026527714563"><ele>272.0</ele><time>2026-03-28T15:05:25Z</time></trkpt><trkpt lat="44.09546171163899" lon="12.15804666221937"><ele>272.0</ele><time>2026-03-28T15:05:26Z</time></trkpt><trkpt lat="44.09532505087083" lon="12.158074824327429"><ele>272.0</ele><time>2026-03-28T15:05:27Z</time></trkpt><trkpt lat="44.09520440593352" lon="12.15811384789512"><ele>272.0</ele><time>2026-03-28T15:05:28Z</time></trkpt><trkpt lat="44.09511226350405" lon="12.158087013353592"><ele>272.0</ele><time>2026-03-28T15:05:29Z</time></trkpt><trkpt lat="44.09502290512451" lon="12.158051792194435"><ele>272.0</ele><time>2026-03-28T15:05:30Z</time></trkpt><trkpt lat="44.09494486977982" lon="12.158003273431877"><ele>269.8</ele><time>2026-03-28T15:05:31Z</time></trkpt><trkpt lat="44.09488390421087" lon="12.157932076328889"><ele>267.6</ele><time>2026-03-28T15:05:32Z</time></trkpt><trkpt lat="44.094848611163464" lon="12.157846451803985"><ele>265.40000000000003</ele><time>2026-03-28T15:05:33Z</time></trkpt><trkpt lat="44.09487538732459" lon="12.157715403819653"><ele>263.2</ele><time>2026-03-28T15:05:34Z</time></trkpt><trkpt lat="44.094886371969615" lon="12.157524642782766"><ele>261.0</ele><time>2026-03-28T15:05:35Z</time></trkpt><trkpt lat="44.094904073918116" lon="12.157396508784162"><ele>264.40000000000003</ele><time>2026-03-28T15:05:36Z</time></trkpt><trkpt lat="44.09489125106502" lon="12.15728925168214"><ele>267.8</ele><time>2026-03-28T15:05:37Z</time></trkpt><trkpt lat="44.09485278258175" lon="12.157197058784135"><ele>271.20000000000005</ele><time>2026-03-28T15:05:38Z</time></trkpt><trkpt lat="44.09479771211682" lon="12.157129619657805"><ele>274.6</ele><time>2026-03-28T15:05:39Z</time></trkpt><trkpt lat="44.09468519974776" lon="12.157147747003812"><ele>278.0</ele><time>2026-03-28T15:05:40Z</time></trkpt><trkpt lat="44.09457870683527" lon="12.157260238876553"><ele>278.0</ele><time>2026-03-28T15:05:41Z</time></trkpt><trkpt lat="44.09447652512605" lon="12.157367834414407"><ele>278.0</ele><time>2026-03-28T15:05:42Z</time></trkpt><trkpt lat="44.09438958071379" lon="12.157453431943013"><ele>278.0</ele><time>2026-03-28T15:05:43Z</time></trkpt><trkpt lat="44.094301890342" lon="12.157500096712692"><ele>278.0</ele><time>2026-03-28T15:05:44Z</time></trkpt><trkpt lat="44.094205500947105" lon="12.157500027778303"><ele>278.0</ele><time>2026-03-28T15:05:45Z</time></trkpt><trkpt lat="44.09409364310481" lon="12.157463362643949"><ele>275.75</ele><time>2026-03-28T15:05:46Z</time></trkpt><trkpt lat="44.09398353905082" lon="12.15734292805793"><ele>273.5</ele><time>2026-03-28T15:05:47Z</time></trkpt><trkpt lat="44.093872834880095" lon="12.157280647863786"><ele>271.25</ele><time>2026-03-28T15:05:48Z</time></trkpt><trkpt lat="44.09376058548737" lon="12.157282215018439"><ele>269.0</ele><time>2026-03-28T15:05:49Z</time></trkpt><trkpt lat="44.09365919063944" lon="12.15729126526574"><ele>268.59999999999997</ele><time>2026-03-28T15:05:50Z</time></trkpt><trkpt lat="44.09357936748186" lon="12.15740339553892"><ele>268.2</ele><time>2026-03-28T15:05:51Z</time></trkpt><trkpt lat="44.093523534961584" lon="12.157529410244988"><ele>267.79999999999995</ele><time>2026-03-28T15:05:52Z</time></trkpt><trkpt lat="44.09350041936909" lon="12.15765006542609"><ele>267.4</ele><time>2026-03-28T15:05:53Z</time></trkpt><trkpt lat="44.09349652440771" lon="12.157810052703095"><ele>267.0</ele><time>2026-03-28T15:05:54Z</time></trkpt><trkpt lat="44.09349387208754" lon="12.157990282410896"><ele>267.0</ele><time>2026-03-28T15:05:55Z</time></trkpt><trkpt lat="44.093480785443084" lon="12.158190834999246"><ele>267.0</ele><time>2026-03-28T15:05:56Z</time></trkpt><trkpt lat="44.09344144399777" lon="12.158397754394711"><ele>267.0</ele><time>2026-03-28T15:05:57Z</time></trkpt><trkpt lat="44.09337904502542" lon="12.158616011576065"><ele>265.3333333333333</ele><time>2026-03-28T15:05:58Z</time></trkpt><trkpt lat="44.0932980333286" lon="12.158859868058435"><ele>263.66666666666663</ele><time>2026-03-28T15:05:59Z</time></trkpt><trkpt lat="44.09321335571711" lon="12.159074602395496"><ele>262.0</ele><time>2026-03-28T15:06:00Z</time></trkpt><trkpt lat="44.09312936817263" lon="12.15926764891402"><ele>258.66666666666663</ele><time>2026-03-28T15:06:01Z</time></trkpt><trkpt lat="44.093026394568724" lon="12.159446318981274"><ele>255.33333333333331</ele><time>2026-03-28T15:06:02Z</time></trkpt><trkpt lat="44.09290638669779" lon="12.159627136076084"><ele>252.0</ele><time>2026-03-28T15:06:03Z</time></trkpt><trkpt lat="44.09277213867793" lon="12.15983675726328"><ele>252.0</ele><time>2026-03-28T15:06:04Z</time></trkpt><trkpt lat="44.09262027093817" lon="12.160021609724042"><ele>252.0</ele><time>2026-03-28T15:06:05Z</time></trkpt><trkpt lat="44.09247011069423" lon="12.160215019673592"><ele>252.0</ele><time>2026-03-28T15:06:06Z</time></trkpt><trkpt lat="44.09231962863371" lon="12.160407053373438"><ele>249.0</ele><time>2026-03-28T15:06:07Z</time></trkpt><trkpt lat="44.09218528012602" lon="12.160606707019866"><ele>246.0</ele><time>2026-03-28T15:06:08Z</time></trkpt><trkpt lat="44.092062228584346" lon="12.160780777234404"><ele>243.0</ele><time>2026-03-28T15:06:09Z</time></trkpt><trkpt lat="44.09193186783763" lon="12.160954672007234"><ele>243.0</ele><time>2026-03-28T15:06:10Z</time></trkpt><trkpt lat="44.09181363782813" lon="12.161114797276557"><ele>243.0</ele><time>2026-03-28T15:06:11Z</time></trkpt><trkpt lat="44.09169561940665" lon="12.161270661629025"><ele>243.0</ele><time>2026-03-28T15:06:12Z</time></trkpt><trkpt lat="44.091581755698556" lon="12.161428323301875"><ele>242.75</ele><time>2026-03-28T15:06:13Z</time></trkpt><trkpt lat="44.09147430967238" lon="12.161579936288588"><ele>242.5</ele><time>2026-03-28T15:06:14Z</time></trkpt><trkpt lat="44.09137200209751" lon="12.161724198585366"><ele>242.25</ele><time>2026-03-28T15:06:15Z</time></trkpt><trkpt lat="44.091267699740165" lon="12.161868245686051"><ele>242.0</ele><time>2026-03-28T15:06:16Z</time></trkpt><trkpt lat="44.09117058599459" lon="12.16200950805629"><ele>242.0</ele><time>2026-03-28T15:06:17Z</time></trkpt><trkpt lat="44.09107477807749" lon="12.162157381322327"><ele>242.0</ele><time>2026-03-28T15:06:18Z</time></trkpt><trkpt lat="44.090992493430726" lon="12.162319513995758"><ele>242.0</ele><time>2026-03-28T15:06:19Z</time></trkpt><trkpt lat="44.090906249957385" lon="12.162484758580394"><ele>242.0</ele><time>2026-03-28T15:06:20Z</time></trkpt><trkpt lat="44.09082111255678" lon="12.162643706422838"><ele>242.0</ele><time>2026-03-28T15:06:21Z</time></trkpt><trkpt lat="44.09076094020454" lon="12.162784444134319"><ele>242.0</ele><time>2026-03-28T15:06:22Z</time></trkpt><trkpt lat="44.090685934673665" lon="12.16290280150599"><ele>242.0</ele><time>2026-03-28T15:06:23Z</time></trkpt><trkpt lat="44.090572752906304" lon="12.16302011930545"><ele>242.0</ele><time>2026-03-28T15:06:24Z</time></trkpt><trkpt lat="44.09043781081043" lon="12.163118007940126"><ele>242.66666666666669</ele><time>2026-03-28T15:06:25Z</time></trkpt><trkpt lat="44.09028367844088" lon="12.16322064707552"><ele>243.33333333333331</ele><time>2026-03-28T15:06:26Z</time></trkpt><trkpt lat="44.090130687987084" lon="12.16337178561936"><ele>244.0</ele><time>2026-03-28T15:06:27Z</time></trkpt><trkpt lat="44.08999730895755" lon="12.16351148890601"><ele>241.0</ele><time>2026-03-28T15:06:28Z</time></trkpt><trkpt lat="44.08986424183122" lon="12.163636996298571"><ele>238.0</ele><time>2026-03-28T15:06:29Z</time></trkpt><trkpt lat="44.08971945221799" lon="12.163739036025383"><ele>235.0</ele><time>2026-03-28T15:06:30Z</time></trkpt><trkpt lat="44.08956972845637" lon="12.163809536371007"><ele>235.0</ele><time>2026-03-28T15:06:31Z</time></trkpt><trkpt lat="44.0894291044473" lon="12.163863756791208"><ele>235.0</ele><time>2026-03-28T15:06:32Z</time></trkpt><trkpt lat="44.08928896840881" lon="12.163887078612975"><ele>235.0</ele><time>2026-03-28T15:06:33Z</time></trkpt><trkpt lat="44.08915565429157" lon="12.163935458401523"><ele>235.0</ele><time>2026-03-28T15:06:34Z</time></trkpt><trkpt lat="44.08904594880783" lon="12.16400799658236"><ele>229.0</ele><time>2026-03-28T15:06:35Z</time></trkpt><trkpt lat="44.08895331321605" lon="12.16415548398469"><ele>223.0</ele><time>2026-03-28T15:06:36Z</time></trkpt><trkpt lat="44.0888960402627" lon="12.16432171926678"><ele>217.0</ele><time>2026-03-28T15:06:37Z</time></trkpt><trkpt lat="44.08883601763205" lon="12.164546672714986"><ele>211.0</ele><time>2026-03-28T15:06:38Z</time></trkpt><trkpt lat="44.0887688643635" lon="12.164713334824413"><ele>211.33333333333331</ele><time>2026-03-28T15:06:39Z</time></trkpt><trkpt lat="44.08870668601633" lon="12.164957517179916"><ele>211.66666666666669</ele><time>2026-03-28T15:06:40Z</time></trkpt><trkpt lat="44.088630052786755" lon="12.16519519191307"><ele>212.0</ele><time>2026-03-28T15:06:41Z</time></trkpt><trkpt lat="44.0885472171165" lon="12.165404293646382"><ele>212.0</ele><time>2026-03-28T15:06:42Z</time></trkpt><trkpt lat="44.088459081637914" lon="12.165584660147832"><ele>212.0</ele><time>2026-03-28T15:06:43Z</time></trkpt><trkpt lat="44.08835144178453" lon="12.165722915159362"><ele>212.0</ele><time>2026-03-28T15:06:44Z</time></trkpt><trkpt lat="44.088242377380524" lon="12.16583363035157"><ele>212.0</ele><time>2026-03-28T15:06:45Z</time></trkpt><trkpt lat="44.088147290198116" lon="12.16593331825552"><ele>209.2</ele><time>2026-03-28T15:06:46Z</time></trkpt><trkpt lat="44.088082388858716" lon="12.166032510573714"><ele>206.39999999999998</ele><time>2026-03-28T15:06:47Z</time></trkpt><trkpt lat="44.088026826575124" lon="12.166122384232946"><ele>203.60000000000002</ele><time>2026-03-28T15:06:48Z</time></trkpt><trkpt lat="44.08800940410631" lon="12.166245109966868"><ele>200.8</ele><time>2026-03-28T15:06:49Z</time></trkpt><trkpt lat="44.088046488411656" lon="12.16637802078274"><ele>198.0</ele><time>2026-03-28T15:06:50Z</time></trkpt><trkpt lat="44.08814196830025" lon="12.166526534291068"><ele>196.5</ele><time>2026-03-28T15:06:51Z</time></trkpt><trkpt lat="44.08821076146249" lon="12.166714204362565"><ele>195.0</ele><time>2026-03-28T15:06:52Z</time></trkpt><trkpt lat="44.08826447153007" lon="12.16689725500499"><ele>193.5</ele><time>2026-03-28T15:06:53Z</time></trkpt><trkpt lat="44.08825606898408" lon="12.167087432261845"><ele>192.0</ele><time>2026-03-28T15:06:54Z</time></trkpt><trkpt lat="44.0882274970311" lon="12.167302737226267"><ele>189.33333333333334</ele><time>2026-03-28T15:06:55Z</time></trkpt><trkpt lat="44.08816967017039" lon="12.167517108394245"><ele>186.66666666666669</ele><time>2026-03-28T15:06:56Z</time></trkpt><trkpt lat="44.08809009273641" lon="12.167748782804534"><ele>184.0</ele><time>2026-03-28T15:06:57Z</time></trkpt><trkpt lat="44.08799930399173" lon="12.167979588955252"><ele>184.0</ele><time>2026-03-28T15:06:58Z</time></trkpt><trkpt lat="44.08788887415385" lon="12.168162034849983"><ele>184.0</ele><time>2026-03-28T15:06:59Z</time></trkpt><trkpt lat="44.08776670418237" lon="12.168322222973478"><ele>184.0</ele><time>2026-03-28T15:07:00Z</time></trkpt><trkpt lat="44.087657463057226" lon="12.168479344268912"><ele>186.25</ele><time>2026-03-28T15:07:01Z</time></trkpt><trkpt lat="44.08756109723185" lon="12.168647940713273"><ele>188.5</ele><time>2026-03-28T15:07:02Z</time></trkpt><trkpt lat="44.08746973048421" lon="12.168808240493853"><ele>190.75</ele><time>2026-03-28T15:07:03Z</time></trkpt><trkpt lat="44.087392851450424" lon="12.168977338898792"><ele>193.0</ele><time>2026-03-28T15:07:04Z</time></trkpt><trkpt lat="44.08733883079284" lon="12.169155102535592"><ele>186.25</ele><time>2026-03-28T15:07:05Z</time></trkpt><trkpt lat="44.08729834928139" lon="12.169352627907218"><ele>179.5</ele><time>2026-03-28T15:07:06Z</time></trkpt><trkpt lat="44.08727898266054" lon="12.169550721365187"><ele>172.75</ele><time>2026-03-28T15:07:07Z</time></trkpt><trkpt lat="44.087262722909315" lon="12.16976507934556"><ele>166.0</ele><time>2026-03-28T15:07:08Z</time></trkpt><trkpt lat="44.08726162776246" lon="12.16997839417706"><ele>164.33333333333334</ele><time>2026-03-28T15:07:09Z</time></trkpt><trkpt lat="44.08728699091363" lon="12.170191675444226"><ele>162.66666666666666</ele><time>2026-03-28T15:07:10Z</time></trkpt><trkpt lat="44.08734490029421" lon="12.170394718518441"><ele>161.0</ele><time>2026-03-28T15:07:11Z</time></trkpt><trkpt lat="44.087411536410414" lon="12.170574344401134"><ele>161.5</ele><time>2026-03-28T15:07:12Z</time></trkpt><trkpt lat="44.08740812512589" lon="12.170758672868885"><ele>162.0</ele><time>2026-03-28T15:07:13Z</time></trkpt><trkpt lat="44.08733131054958" lon="12.170928050054338"><ele>162.5</ele><time>2026-03-28T15:07:14Z</time></trkpt><trkpt lat="44.08726854934489" lon="12.171104934262976"><ele>163.0</ele><time>2026-03-28T15:07:15Z</time></trkpt><trkpt lat="44.087203820867636" lon="12.171264051854056"><ele>163.0</ele><time>2026-03-28T15:07:16Z</time></trkpt><trkpt lat="44.08712028610018" lon="12.171386614252159"><ele>163.0</ele><time>2026-03-28T15:07:17Z</time></trkpt><trkpt lat="44.087022935195876" lon="12.171460113474616"><ele>163.0</ele><time>2026-03-28T15:07:18Z</time></trkpt><trkpt lat="44.0869005826816" lon="12.171503907351738"><ele>163.0</ele><time>2026-03-28T15:07:19Z</time></trkpt><trkpt lat="44.08677633429783" lon="12.171530847096909"><ele>166.25</ele><time>2026-03-28T15:07:20Z</time></trkpt><trkpt lat="44.086657239793205" lon="12.171565575503141"><ele>169.5</ele><time>2026-03-28T15:07:21Z</time></trkpt><trkpt lat="44.086553442912404" lon="12.17162721415611"><ele>172.75</ele><time>2026-03-28T15:07:22Z</time></trkpt><trkpt lat="44.08645473930621" lon="12.171722876737034"><ele>176.0</ele><time>2026-03-28T15:07:23Z</time></trkpt><trkpt lat="44.0863731552425" lon="12.171833962149588"><ele>169.25</ele><time>2026-03-28T15:07:24Z</time></trkpt><trkpt lat="44.08627958712758" lon="12.171944977410217"><ele>162.5</ele><time>2026-03-28T15:07:25Z</time></trkpt><trkpt lat="44.086165893956206" lon="12.171997566715659"><ele>155.75</ele><time>2026-03-28T15:07:26Z</time></trkpt><trkpt lat="44.086035615950465" lon="12.172008462201779"><ele>149.0</ele><time>2026-03-28T15:07:27Z</time></trkpt><trkpt lat="44.085909464276924" lon="12.172069603092117"><ele>149.0</ele><time>2026-03-28T15:07:28Z</time></trkpt><trkpt lat="44.085829168725496" lon="12.1721151410179"><ele>149.0</ele><time>2026-03-28T15:07:29Z</time></trkpt><trkpt lat="44.0857776004933" lon="12.172213900870565"><ele>149.0</ele><time>2026-03-28T15:07:30Z</time></trkpt><trkpt lat="44.08574613573556" lon="12.172371937165028"><ele>149.0</ele><time>2026-03-28T15:07:31Z</time></trkpt><trkpt lat="44.085720898430495" lon="12.172514378892458"><ele>149.0</ele><time>2026-03-28T15:07:32Z</time></trkpt><trkpt lat="44.085707428919456" lon="12.172636302542214"><ele>151.0</ele><time>2026-03-28T15:07:33Z</time></trkpt><trkpt lat="44.085740771114175" lon="12.172760570882875"><ele>153.0</ele><time>2026-03-28T15:07:34Z</time></trkpt><trkpt lat="44.08581917020192" lon="12.172887509538354"><ele>155.0</ele><time>2026-03-28T15:07:35Z</time></trkpt><trkpt lat="44.08587616319566" lon="12.173035092379624"><ele>157.0</ele><time>2026-03-28T15:07:36Z</time></trkpt><trkpt lat="44.085916251249124" lon="12.173165270737597"><ele>159.0</ele><time>2026-03-28T15:07:37Z</time></trkpt><trkpt lat="44.08593684709406" lon="12.17328713756518"><ele>159.0</ele><time>2026-03-28T15:07:38Z</time></trkpt><trkpt lat="44.08592391619342" lon="12.17339109090145"><ele>159.0</ele><time>2026-03-28T15:07:39Z</time></trkpt><trkpt lat="44.085854228424814" lon="12.173466948307745"><ele>159.0</ele><time>2026-03-28T15:07:40Z</time></trkpt><trkpt lat="44.08577370094586" lon="12.173518704050823"><ele>159.0</ele><time>2026-03-28T15:07:41Z</time></trkpt><trkpt lat="44.08569600456973" lon="12.173576888597635"><ele>159.0</ele><time>2026-03-28T15:07:42Z</time></trkpt><trkpt lat="44.08558797211896" lon="12.173561375871747"><ele>151.75</ele><time>2026-03-28T15:07:43Z</time></trkpt><trkpt lat="44.08548669912666" lon="12.173618071098225"><ele>144.5</ele><time>2026-03-28T15:07:44Z</time></trkpt><trkpt lat="44.085370395133154" lon="12.173732233462621"><ele>137.25</ele><time>2026-03-28T15:07:45Z</time></trkpt><trkpt lat="44.085222767721106" lon="12.173853625506633"><ele>130.0</ele><time>2026-03-28T15:07:46Z</time></trkpt><trkpt lat="44.08510476545443" lon="12.173986611992566"><ele>132.0</ele><time>2026-03-28T15:07:47Z</time></trkpt><trkpt lat="44.08499444912858" lon="12.174113133673895"><ele>134.0</ele><time>2026-03-28T15:07:48Z</time></trkpt><trkpt lat="44.08490207821878" lon="12.17426087806568"><ele>136.0</ele><time>2026-03-28T15:07:49Z</time></trkpt><trkpt lat="44.08481812329567" lon="12.174448740268469"><ele>138.0</ele><time>2026-03-28T15:07:50Z</time></trkpt><trkpt lat="44.08473681961226" lon="12.174697584332948"><ele>129.0</ele><time>2026-03-28T15:07:51Z</time></trkpt><trkpt lat="44.08466985225432" lon="12.174971287828"><ele>120.0</ele><time>2026-03-28T15:07:52Z</time></trkpt><trkpt lat="44.084637958284574" lon="12.175231700697992"><ele>111.0</ele><time>2026-03-28T15:07:53Z</time></trkpt><trkpt lat="44.0845667409428" lon="12.175456170545186"><ele>111.0</ele><time>2026-03-28T15:07:54Z</time></trkpt><trkpt lat="44.08449208540562" lon="12.17565287601592"><ele>111.0</ele><time>2026-03-28T15:07:55Z</time></trkpt><trkpt lat="44.0843904439786" lon="12.175829107268891"><ele>111.0</ele><time>2026-03-28T15:07:56Z</time></trkpt><trkpt lat="44.08426186606703" lon="12.176004854176231"><ele>110.0</ele><time>2026-03-28T15:07:57Z</time></trkpt><trkpt lat="44.084133027060936" lon="12.176209187124108"><ele>109.0</ele><time>2026-03-28T15:07:58Z</time></trkpt><trkpt lat="44.084039628327076" lon="12.176424380052485"><ele>108.0</ele><time>2026-03-28T15:07:59Z</time></trkpt><trkpt lat="44.08395296967331" lon="12.176650352523742"><ele>108.0</ele><time>2026-03-28T15:08:00Z</time></trkpt><trkpt lat="44.083883657851764" lon="12.176871290734894"><ele>108.0</ele><time>2026-03-28T15:08:01Z</time></trkpt><trkpt lat="44.08383246102126" lon="12.177062978231767"><ele>108.0</ele><time>2026-03-28T15:08:02Z</time></trkpt><trkpt lat="44.08375302612888" lon="12.177214808039514"><ele>108.0</ele><time>2026-03-28T15:08:03Z</time></trkpt><trkpt lat="44.083670532019646" lon="12.177352235477345"><ele>108.0</ele><time>2026-03-28T15:08:04Z</time></trkpt><trkpt lat="44.08357302673479" lon="12.177467366901757"><ele>108.0</ele><time>2026-03-28T15:08:05Z</time></trkpt><trkpt lat="44.08346333755944" lon="12.177572006222707"><ele>108.0</ele><time>2026-03-28T15:08:06Z</time></trkpt><trkpt lat="44.083350165853" lon="12.177700114478307"><ele>103.66666666666667</ele><time>2026-03-28T15:08:07Z</time></trkpt><trkpt lat="44.08324184820271" lon="12.177839541273734"><ele>99.33333333333334</ele><time>2026-03-28T15:08:08Z</time></trkpt><trkpt lat="44.08314572867843" lon="12.178003209532879"><ele>95.0</ele><time>2026-03-28T15:08:09Z</time></trkpt><trkpt lat="44.083061397029404" lon="12.178217426435513"><ele>95.0</ele><time>2026-03-28T15:08:10Z</time></trkpt><trkpt lat="44.08296778829018" lon="12.178446601707808"><ele>95.0</ele><time>2026-03-28T15:08:11Z</time></trkpt><trkpt lat="44.08290230310065" lon="12.17868730955825"><ele>95.0</ele><time>2026-03-28T15:08:12Z</time></trkpt><trkpt lat="44.08283624234142" lon="12.178944176670814"><ele>95.0</ele><time>2026-03-28T15:08:13Z</time></trkpt><trkpt lat="44.08276795764448" lon="12.179207109434229"><ele>95.0</ele><time>2026-03-28T15:08:14Z</time></trkpt><trkpt lat="44.08269451171746" lon="12.179485968481247"><ele>95.0</ele><time>2026-03-28T15:08:15Z</time></trkpt><trkpt lat="44.082621505788076" lon="12.179758338038942"><ele>97.33333333333334</ele><time>2026-03-28T15:08:16Z</time></trkpt><trkpt lat="44.08254588768098" lon="12.18002903886223"><ele>99.66666666666667</ele><time>2026-03-28T15:08:17Z</time></trkpt><trkpt lat="44.08246193473344" lon="12.180290862183886"><ele>102.0</ele><time>2026-03-28T15:08:18Z</time></trkpt><trkpt lat="44.08237791685757" lon="12.180547321688486"><ele>97.66666666666667</ele><time>2026-03-28T15:08:19Z</time></trkpt><trkpt lat="44.08231193724431" lon="12.180803422166322"><ele>93.33333333333334</ele><time>2026-03-28T15:08:20Z</time></trkpt><trkpt lat="44.08222574665432" lon="12.181045005604357"><ele>89.0</ele><time>2026-03-28T15:08:21Z</time></trkpt><trkpt lat="44.0821462960579" lon="12.181280184029697"><ele>89.0</ele><time>2026-03-28T15:08:22Z</time></trkpt><trkpt lat="44.08204536419122" lon="12.181487061987072"><ele>89.0</ele><time>2026-03-28T15:08:23Z</time></trkpt><trkpt lat="44.08196008490081" lon="12.181692697453373"><ele>89.0</ele><time>2026-03-28T15:08:24Z</time></trkpt><trkpt lat="44.08189441490553" lon="12.18189065276717"><ele>91.66666666666667</ele><time>2026-03-28T15:08:25Z</time></trkpt><trkpt lat="44.08181779562052" lon="12.182063204794222"><ele>94.33333333333334</ele><time>2026-03-28T15:08:26Z</time></trkpt><trkpt lat="44.08175174847386" lon="12.182257139813217"><ele>97.0</ele><time>2026-03-28T15:08:27Z</time></trkpt><trkpt lat="44.08170484121462" lon="12.18248147819169"><ele>99.66666666666667</ele><time>2026-03-28T15:08:28Z</time></trkpt><trkpt lat="44.08168078124222" lon="12.182737496266443"><ele>102.33333333333334</ele><time>2026-03-28T15:08:29Z</time></trkpt><trkpt lat="44.081669123875464" lon="12.182983794270356"><ele>105.0</ele><time>2026-03-28T15:08:30Z</time></trkpt><trkpt lat="44.08166786964705" lon="12.183193941284578"><ele>106.25</ele><time>2026-03-28T15:08:31Z</time></trkpt><trkpt lat="44.08166420159582" lon="12.183389000939519"><ele>107.5</ele><time>2026-03-28T15:08:32Z</time></trkpt><trkpt lat="44.08168081323107" lon="12.183560801412785"><ele>108.75</ele><time>2026-03-28T15:08:33Z</time></trkpt><trkpt lat="44.08171655188925" lon="12.183716873043489"><ele>110.0</ele><time>2026-03-28T15:08:34Z</time></trkpt><trkpt lat="44.08175364227037" lon="12.183850889877448"><ele>110.0</ele><time>2026-03-28T15:08:35Z</time></trkpt><trkpt lat="44.08179382168694" lon="12.183984330313097"><ele>110.0</ele><time>2026-03-28T15:08:36Z</time></trkpt><trkpt lat="44.081839566820584" lon="12.184121920793679"><ele>110.0</ele><time>2026-03-28T15:08:37Z</time></trkpt><trkpt lat="44.081896063464264" lon="12.184284019846672"><ele>110.0</ele><time>2026-03-28T15:08:38Z</time></trkpt><trkpt lat="44.08196454887401" lon="12.184436739942997"><ele>109.0</ele><time>2026-03-28T15:08:39Z</time></trkpt><trkpt lat="44.08202661484631" lon="12.184577699765265"><ele>108.0</ele><time>2026-03-28T15:08:40Z</time></trkpt><trkpt lat="44.082088606510375" lon="12.184707294707179"><ele>107.0</ele><time>2026-03-28T15:08:41Z</time></trkpt><trkpt lat="44.08214632410411" lon="12.18483446902378"><ele>106.0</ele><time>2026-03-28T15:08:42Z</time></trkpt><trkpt lat="44.082188320245784" lon="12.184970539525546"><ele>105.0</ele><time>2026-03-28T15:08:43Z</time></trkpt><trkpt lat="44.0822374057546" lon="12.185144248879991"><ele>105.0</ele><time>2026-03-28T15:08:44Z</time></trkpt><trkpt lat="44.082293627450795" lon="12.185339370304554"><ele>105.0</ele><time>2026-03-28T15:08:45Z</time></trkpt><trkpt lat="44.082339463383455" lon="12.185531781797637"><ele>105.0</ele><time>2026-03-28T15:08:46Z</time></trkpt><trkpt lat="44.08238623946303" lon="12.18570388740069"><ele>105.0</ele><time>2026-03-28T15:08:47Z</time></trkpt><trkpt lat="44.08244814225843" lon="12.18586045071129"><ele>105.0</ele><time>2026-03-28T15:08:48Z</time></trkpt><trkpt lat="44.08254184567159" lon="12.186011325467744"><ele>105.0</ele><time>2026-03-28T15:08:49Z</time></trkpt><trkpt lat="44.08265270264008" lon="12.18613850831503"><ele>105.0</ele><time>2026-03-28T15:08:50Z</time></trkpt><trkpt lat="44.082800956342446" lon="12.186244107490085"><ele>105.0</ele><time>2026-03-28T15:08:51Z</time></trkpt><trkpt lat="44.082970639679274" lon="12.18633548320308"><ele>105.0</ele><time>2026-03-28T15:08:52Z</time></trkpt><trkpt lat="44.0831150891354" lon="12.18644235407709"><ele>105.0</ele><time>2026-03-28T15:08:53Z</time></trkpt><trkpt lat="44.083236724723946" lon="12.186556909579787"><ele>102.66666666666666</ele><time>2026-03-28T15:08:54Z</time></trkpt><trkpt lat="44.083368839692604" lon="12.18663455268436"><ele>100.33333333333333</ele><time>2026-03-28T15:08:55Z</time></trkpt><trkpt lat="44.083510189052525" lon="12.186664228423293"><ele>98.0</ele><time>2026-03-28T15:08:56Z</time></trkpt><trkpt lat="44.08368702532555" lon="12.186695385770962"><ele>98.0</ele><time>2026-03-28T15:08:57Z</time></trkpt><trkpt lat="44.083866692833126" lon="12.186692575487106"><ele>98.0</ele><time>2026-03-28T15:08:58Z</time></trkpt><trkpt lat="44.08402067076933" lon="12.186711747684631"><ele>98.0</ele><time>2026-03-28T15:08:59Z</time></trkpt><trkpt lat="44.08416692632534" lon="12.186743772276362"><ele>98.33333333333333</ele><time>2026-03-28T15:09:00Z</time></trkpt><trkpt lat="44.084297780795325" lon="12.186863033870049"><ele>98.66666666666666</ele><time>2026-03-28T15:09:01Z</time></trkpt><trkpt lat="44.08444667175041" lon="12.186952473645007"><ele>99.0</ele><time>2026-03-28T15:09:02Z</time></trkpt><trkpt lat="44.08458839036325" lon="12.1870524866018"><ele>99.0</ele><time>2026-03-28T15:09:03Z</time></trkpt><trkpt lat="44.08472345734961" lon="12.18712959482941"><ele>99.0</ele><time>2026-03-28T15:09:04Z</time></trkpt><trkpt lat="44.08487090997215" lon="12.187195342164989"><ele>99.0</ele><time>2026-03-28T15:09:05Z</time></trkpt><trkpt lat="44.08504565948922" lon="12.187262778373091"><ele>99.66666666666666</ele><time>2026-03-28T15:09:06Z</time></trkpt><trkpt lat="44.085226607418406" lon="12.187330931040854"><ele>100.33333333333333</ele><time>2026-03-28T15:09:07Z</time></trkpt><trkpt lat="44.08541310442505" lon="12.18740479116076"><ele>101.0</ele><time>2026-03-28T15:09:08Z</time></trkpt><trkpt lat="44.08557078743014" lon="12.187474473363961"><ele>99.0</ele><time>2026-03-28T15:09:09Z</time></trkpt><trkpt lat="44.085693677673994" lon="12.18753332479358"><ele>97.0</ele><time>2026-03-28T15:09:10Z</time></trkpt><trkpt lat="44.08579504039431" lon="12.187578082558543"><ele>95.0</ele><time>2026-03-28T15:09:11Z</time></trkpt><trkpt lat="44.08587393085633" lon="12.18763113531304"><ele>93.0</ele><time>2026-03-28T15:09:12Z</time></trkpt><trkpt lat="44.08593699193664" lon="12.18772297032729"><ele>91.0</ele><time>2026-03-28T15:09:13Z</time></trkpt><trkpt lat="44.08596991749705" lon="12.187836672239309"><ele>91.0</ele><time>2026-03-28T15:09:14Z</time></trkpt><trkpt lat="44.08598350771236" lon="12.18796482827517"><ele>91.0</ele><time>2026-03-28T15:09:15Z</time></trkpt><trkpt lat="44.08596965248039" lon="12.18810396623934"><ele>91.0</ele><time>2026-03-28T15:09:16Z</time></trkpt><trkpt lat="44.08592740488909" lon="12.188246785634833"><ele>91.0</ele><time>2026-03-28T15:09:17Z</time></trkpt><trkpt lat="44.08586830658457" lon="12.188401820151634"><ele>91.0</ele><time>2026-03-28T15:09:18Z</time></trkpt><trkpt lat="44.08581023634031" lon="12.188584617233802"><ele>89.25</ele><time>2026-03-28T15:09:19Z</time></trkpt><trkpt lat="44.08575351601934" lon="12.188783822761202"><ele>87.5</ele><time>2026-03-28T15:09:20Z</time></trkpt><trkpt lat="44.085695902681884" lon="12.18898472598311"><ele>85.75</ele><time>2026-03-28T15:09:21Z</time></trkpt><trkpt lat="44.08565976728213" lon="12.189162845134396"><ele>84.0</ele><time>2026-03-28T15:09:22Z</time></trkpt><trkpt lat="44.085643084503566" lon="12.18932313833908"><ele>82.8</ele><time>2026-03-28T15:09:23Z</time></trkpt><trkpt lat="44.08561700436835" lon="12.189467485943414"><ele>81.60000000000001</ele><time>2026-03-28T15:09:24Z</time></trkpt><trkpt lat="44.08557198167828" lon="12.189575248059509"><ele>80.4</ele><time>2026-03-28T15:09:25Z</time></trkpt><trkpt lat="44.08551977963502" lon="12.18965597890086"><ele>79.2</ele><time>2026-03-28T15:09:26Z</time></trkpt><trkpt lat="44.085446838870055" lon="12.18972666627725"><ele>78.0</ele><time>2026-03-28T15:09:28Z</time></trkpt><trkpt lat="44.08531207530563" lon="12.189655143531914"><ele>78.0</ele><time>2026-03-28T15:09:30Z</time></trkpt><trkpt lat="44.08520952140645" lon="12.189614852269008"><ele>78.0</ele><time>2026-03-28T15:09:31Z</time></trkpt><trkpt lat="44.08509461075157" lon="12.189553033573018"><ele>78.0</ele><time>2026-03-28T15:09:32Z</time></trkpt><trkpt lat="44.084975028706566" lon="12.189497896082402"><ele>78.0</ele><time>2026-03-28T15:09:33Z</time></trkpt><trkpt lat="44.084848121978034" lon="12.1894398497667"><ele>77.66666666666667</ele><time>2026-03-28T15:09:34Z</time></trkpt><trkpt lat="44.08470223508016" lon="12.189391439749729"><ele>77.33333333333334</ele><time>2026-03-28T15:09:35Z</time></trkpt><trkpt lat="44.084539848076176" lon="12.189345106518912"><ele>77.0</ele><time>2026-03-28T15:09:36Z</time></trkpt><trkpt lat="44.084376868982915" lon="12.18930731684723"><ele>77.0</ele><time>2026-03-28T15:09:37Z</time></trkpt><trkpt lat="44.08420410092393" lon="12.189257159281395"><ele>77.0</ele><time>2026-03-28T15:09:38Z</time></trkpt><trkpt lat="44.08402619281872" lon="12.189224355079341"><ele>77.0</ele><time>2026-03-28T15:09:39Z</time></trkpt><trkpt lat="44.08384198947959" lon="12.189178271441135"><ele>77.0</ele><time>2026-03-28T15:09:40Z</time></trkpt><trkpt lat="44.083663766906426" lon="12.189111298341881"><ele>77.0</ele><time>2026-03-28T15:09:41Z</time></trkpt><trkpt lat="44.08348422830392" lon="12.189038858715787"><ele>77.0</ele><time>2026-03-28T15:09:42Z</time></trkpt><trkpt lat="44.08331265392351" lon="12.18896314448572"><ele>73.66666666666667</ele><time>2026-03-28T15:09:43Z</time></trkpt><trkpt lat="44.083147947366484" lon="12.18889882190866"><ele>70.33333333333333</ele><time>2026-03-28T15:09:44Z</time></trkpt><trkpt lat="44.08298506107935" lon="12.18885569510717"><ele>67.0</ele><time>2026-03-28T15:09:45Z</time></trkpt><trkpt lat="44.08280165408862" lon="12.188850882264376"><ele>67.0</ele><time>2026-03-28T15:09:46Z</time></trkpt><trkpt lat="44.082612483682084" lon="12.18887594671569"><ele>67.0</ele><time>2026-03-28T15:09:47Z</time></trkpt><trkpt lat="44.08241948746704" lon="12.1889172444136"><ele>67.0</ele><time>2026-03-28T15:09:48Z</time></trkpt><trkpt lat="44.08223417412507" lon="12.188907194969868"><ele>68.0</ele><time>2026-03-28T15:09:49Z</time></trkpt><trkpt lat="44.08205817479374" lon="12.188895096099758"><ele>69.0</ele><time>2026-03-28T15:09:50Z</time></trkpt><trkpt lat="44.08189347154116" lon="12.188871596202217"><ele>70.0</ele><time>2026-03-28T15:09:51Z</time></trkpt><trkpt lat="44.081728314156635" lon="12.188788511685912"><ele>73.0</ele><time>2026-03-28T15:09:52Z</time></trkpt><trkpt lat="44.081564262260144" lon="12.188692648056438"><ele>76.0</ele><time>2026-03-28T15:09:53Z</time></trkpt><trkpt lat="44.08138750450626" lon="12.188648990081319"><ele>79.0</ele><time>2026-03-28T15:09:54Z</time></trkpt><trkpt lat="44.0811967286203" lon="12.18867148003903"><ele>79.0</ele><time>2026-03-28T15:09:55Z</time></trkpt><trkpt lat="44.08098831632561" lon="12.1887625375897"><ele>79.0</ele><time>2026-03-28T15:09:56Z</time></trkpt><trkpt lat="44.08077324294787" lon="12.188867983866535"><ele>79.0</ele><time>2026-03-28T15:09:57Z</time></trkpt><trkpt lat="44.08054797216237" lon="12.188952858460263"><ele>80.0</ele><time>2026-03-28T15:09:58Z</time></trkpt><trkpt lat="44.08031765750885" lon="12.188984659179193"><ele>81.0</ele><time>2026-03-28T15:09:59Z</time></trkpt><trkpt lat="44.080090022606846" lon="12.189049423500586"><ele>81.0</ele><time>2026-03-28T15:10:00Z</time></trkpt><trkpt lat="44.07986925999617" lon="12.189077024187796"><ele>81.0</ele><time>2026-03-28T15:10:01Z</time></trkpt><trkpt lat="44.0796685527838" lon="12.189074173903615"><ele>81.0</ele><time>2026-03-28T15:10:02Z</time></trkpt><trkpt lat="44.07947513087921" lon="12.18899726308333"><ele>81.0</ele><time>2026-03-28T15:10:03Z</time></trkpt><trkpt lat="44.07926517916929" lon="12.188898472623752"><ele>81.0</ele><time>2026-03-28T15:10:04Z</time></trkpt><trkpt lat="44.079051257504254" lon="12.188762465429676"><ele>79.0</ele><time>2026-03-28T15:10:05Z</time></trkpt><trkpt lat="44.07882342916658" lon="12.188644643236042"><ele>77.0</ele><time>2026-03-28T15:10:06Z</time></trkpt><trkpt lat="44.078603150072" lon="12.18849561301448"><ele>77.0</ele><time>2026-03-28T15:10:07Z</time></trkpt><trkpt lat="44.07837094414793" lon="12.18836148651235"><ele>77.0</ele><time>2026-03-28T15:10:08Z</time></trkpt><trkpt lat="44.07814670084885" lon="12.188230969959788"><ele>78.66666666666667</ele><time>2026-03-28T15:10:09Z</time></trkpt><trkpt lat="44.07794102522555" lon="12.18810886828074"><ele>80.33333333333333</ele><time>2026-03-28T15:10:10Z</time></trkpt><trkpt lat="44.077750659865906" lon="12.18799061812962"><ele>82.0</ele><time>2026-03-28T15:10:11Z</time></trkpt><trkpt lat="44.077572083644824" lon="12.187878215852846"><ele>80.0</ele><time>2026-03-28T15:10:12Z</time></trkpt><trkpt lat="44.0774028549588" lon="12.1877688281499"><ele>78.0</ele><time>2026-03-28T15:10:13Z</time></trkpt><trkpt lat="44.07724379024606" lon="12.187661633304938"><ele>76.0</ele><time>2026-03-28T15:10:14Z</time></trkpt><trkpt lat="44.077083808751276" lon="12.187551328157626"><ele>76.0</ele><time>2026-03-28T15:10:15Z</time></trkpt><trkpt lat="44.07692055284908" lon="12.187440905953366"><ele>76.0</ele><time>2026-03-28T15:10:16Z</time></trkpt><trkpt lat="44.07674921493388" lon="12.187321423937489"><ele>76.0</ele><time>2026-03-28T15:10:17Z</time></trkpt><trkpt lat="44.07657870222272" lon="12.187184479765333"><ele>77.0</ele><time>2026-03-28T15:10:18Z</time></trkpt><trkpt lat="44.07641003666493" lon="12.187072637846477"><ele>78.0</ele><time>2026-03-28T15:10:19Z</time></trkpt><trkpt lat="44.076249032386954" lon="12.186989231595293"><ele>79.0</ele><time>2026-03-28T15:10:20Z</time></trkpt><trkpt lat="44.07610070435464" lon="12.186889986146536"><ele>79.0</ele><time>2026-03-28T15:10:21Z</time></trkpt><trkpt lat="44.07597159244643" lon="12.186781706905663"><ele>79.0</ele><time>2026-03-28T15:10:22Z</time></trkpt><trkpt lat="44.07584050701997" lon="12.186694826215987"><ele>79.0</ele><time>2026-03-28T15:10:23Z</time></trkpt><trkpt lat="44.075703323757956" lon="12.186606600878385"><ele>79.0</ele><time>2026-03-28T15:10:24Z</time></trkpt><trkpt lat="44.075557661322236" lon="12.186539330009548"><ele>80.66666666666666</ele><time>2026-03-28T15:10:25Z</time></trkpt><trkpt lat="44.075426958155916" lon="12.186431081357822"><ele>82.33333333333333</ele><time>2026-03-28T15:10:26Z</time></trkpt><trkpt lat="44.07528717665608" lon="12.186360100673049"><ele>84.0</ele><time>2026-03-28T15:10:27Z</time></trkpt><trkpt lat="44.075151919108166" lon="12.186269901038624"><ele>84.0</ele><time>2026-03-28T15:10:28Z</time></trkpt><trkpt lat="44.07501543930627" lon="12.186174001887432"><ele>84.0</ele><time>2026-03-28T15:10:29Z</time></trkpt><trkpt lat="44.074883471184926" lon="12.186071484015038"><ele>84.0</ele><time>2026-03-28T15:10:30Z</time></trkpt><trkpt lat="44.074737485756266" lon="12.185952228674822"><ele>84.33333333333333</ele><time>2026-03-28T15:10:31Z</time></trkpt><trkpt lat="44.07458244838497" lon="12.185824917129942"><ele>84.66666666666666</ele><time>2026-03-28T15:10:32Z</time></trkpt><trkpt lat="44.07441547697588" lon="12.18567192989405"><ele>85.0</ele><time>2026-03-28T15:10:33Z</time></trkpt><trkpt lat="44.07424506412211" lon="12.185536212389136"><ele>85.0</ele><time>2026-03-28T15:10:34Z</time></trkpt><trkpt lat="44.0740609291431" lon="12.18540162182767"><ele>85.0</ele><time>2026-03-28T15:10:35Z</time></trkpt><trkpt lat="44.073868860051924" lon="12.18530600467827"><ele>85.0</ele><time>2026-03-28T15:10:36Z</time></trkpt><trkpt lat="44.07367120744683" lon="12.185187309265544"><ele>85.0</ele><time>2026-03-28T15:10:37Z</time></trkpt><trkpt lat="44.07346515773543" lon="12.185092362911071"><ele>85.0</ele><time>2026-03-28T15:10:38Z</time></trkpt><trkpt lat="44.07326477493923" lon="12.184999582586231"><ele>85.0</ele><time>2026-03-28T15:10:39Z</time></trkpt><trkpt lat="44.073069978260335" lon="12.184907172298578"><ele>89.5</ele><time>2026-03-28T15:10:40Z</time></trkpt><trkpt lat="44.07285715708065" lon="12.184821867450244"><ele>94.0</ele><time>2026-03-28T15:10:41Z</time></trkpt><trkpt lat="44.07264143035527" lon="12.18471649557179"><ele>92.33333333333333</ele><time>2026-03-28T15:10:42Z</time></trkpt><trkpt lat="44.0724265699069" lon="12.184616371339393"><ele>90.66666666666667</ele><time>2026-03-28T15:10:43Z</time></trkpt><trkpt lat="44.072227350008525" lon="12.184523128937448"><ele>89.0</ele><time>2026-03-28T15:10:44Z</time></trkpt><trkpt lat="44.0720285854063" lon="12.18443833556646"><ele>89.0</ele><time>2026-03-28T15:10:45Z</time></trkpt><trkpt lat="44.07183288557385" lon="12.184371097711093"><ele>89.0</ele><time>2026-03-28T15:10:46Z</time></trkpt><trkpt lat="44.071639485619876" lon="12.184325513864946"><ele>89.0</ele><time>2026-03-28T15:10:47Z</time></trkpt><trkpt lat="44.07144789576762" lon="12.184286159248883"><ele>88.33333333333334</ele><time>2026-03-28T15:10:48Z</time></trkpt><trkpt lat="44.07125836377361" lon="12.184251405719657"><ele>87.66666666666667</ele><time>2026-03-28T15:10:49Z</time></trkpt><trkpt lat="44.07107207405015" lon="12.18421005972588"><ele>87.0</ele><time>2026-03-28T15:10:50Z</time></trkpt><trkpt lat="44.07089174838835" lon="12.184169111889384"><ele>88.33333333333333</ele><time>2026-03-28T15:10:51Z</time></trkpt><trkpt lat="44.07070736379253" lon="12.184133982919883"><ele>89.66666666666666</ele><time>2026-03-28T15:10:52Z</time></trkpt><trkpt lat="44.070530652744594" lon="12.184104052062713"><ele>91.0</ele><time>2026-03-28T15:10:53Z</time></trkpt><trkpt lat="44.07035551753081" lon="12.184064599137644"><ele>91.0</ele><time>2026-03-28T15:10:54Z</time></trkpt><trkpt lat="44.07018490907428" lon="12.184018999212547"><ele>91.0</ele><time>2026-03-28T15:10:55Z</time></trkpt><trkpt lat="44.07002344835005" lon="12.183980445966807"><ele>91.0</ele><time>2026-03-28T15:10:56Z</time></trkpt><trkpt lat="44.06985425845761" lon="12.18394571721935"><ele>90.33333333333333</ele><time>2026-03-28T15:10:57Z</time></trkpt><trkpt lat="44.069695373472435" lon="12.18391051438534"><ele>89.66666666666667</ele><time>2026-03-28T15:10:58Z</time></trkpt><trkpt lat="44.0695373691762" lon="12.183874140145104"><ele>89.0</ele><time>2026-03-28T15:10:59Z</time></trkpt><trkpt lat="44.06937727121403" lon="12.18386810648756"><ele>89.0</ele><time>2026-03-28T15:11:00Z</time></trkpt><trkpt lat="44.069210050036034" lon="12.183892889475722"><ele>89.0</ele><time>2026-03-28T15:11:01Z</time></trkpt><trkpt lat="44.06902859883195" lon="12.183965237670597"><ele>89.0</ele><time>2026-03-28T15:11:02Z</time></trkpt><trkpt lat="44.068850752185504" lon="12.184058807696863"><ele>89.0</ele><time>2026-03-28T15:11:03Z</time></trkpt><trkpt lat="44.06869715738799" lon="12.184153485792804"><ele>89.0</ele><time>2026-03-28T15:11:04Z</time></trkpt><trkpt lat="44.06855049871736" lon="12.18422559220295"><ele>89.0</ele><time>2026-03-28T15:11:05Z</time></trkpt><trkpt lat="44.068413110215324" lon="12.184273975357241"><ele>89.0</ele><time>2026-03-28T15:11:06Z</time></trkpt><trkpt lat="44.06828217928346" lon="12.184295041891431"><ele>89.0</ele><time>2026-03-28T15:11:07Z</time></trkpt><trkpt lat="44.06816320489911" lon="12.18428432987534"><ele>89.0</ele><time>2026-03-28T15:11:08Z</time></trkpt><trkpt lat="44.06804709816189" lon="12.18424439603326"><ele>89.0</ele><time>2026-03-28T15:11:09Z</time></trkpt><trkpt lat="44.06791567971639" lon="12.184184135209938"><ele>89.0</ele><time>2026-03-28T15:11:10Z</time></trkpt><trkpt lat="44.06774924839638" lon="12.184062809657952"><ele>89.0</ele><time>2026-03-28T15:11:11Z</time></trkpt><trkpt lat="44.06757022363695" lon="12.183936516566577"><ele>89.0</ele><time>2026-03-28T15:11:12Z</time></trkpt><trkpt lat="44.06740921718089" lon="12.183817245369944"><ele>88.66666666666667</ele><time>2026-03-28T15:11:13Z</time></trkpt><trkpt lat="44.067253233218466" lon="12.183709559815489"><ele>88.33333333333333</ele><time>2026-03-28T15:11:14Z</time></trkpt><trkpt lat="44.067105910662264" lon="12.183590629179351"><ele>88.0</ele><time>2026-03-28T15:11:15Z</time></trkpt><trkpt lat="44.066967936655935" lon="12.183481477452132"><ele>88.0</ele><time>2026-03-28T15:11:16Z</time></trkpt><trkpt lat="44.066840419011484" lon="12.18337360635427"><ele>88.0</ele><time>2026-03-28T15:11:17Z</time></trkpt><trkpt lat="44.066717369924284" lon="12.183270743784874"><ele>88.0</ele><time>2026-03-28T15:11:18Z</time></trkpt><trkpt lat="44.06660093834124" lon="12.18315330851955"><ele>88.0</ele><time>2026-03-28T15:11:19Z</time></trkpt><trkpt lat="44.06648278271159" lon="12.183023974733004"><ele>86.5</ele><time>2026-03-28T15:11:20Z</time></trkpt><trkpt lat="44.06636797633853" lon="12.182878874735293"><ele>85.0</ele><time>2026-03-28T15:11:21Z</time></trkpt><trkpt lat="44.06626302742995" lon="12.182735545554547"><ele>83.5</ele><time>2026-03-28T15:11:22Z</time></trkpt><trkpt lat="44.066167497877366" lon="12.182593267065284"><ele>82.0</ele><time>2026-03-28T15:11:23Z</time></trkpt><trkpt lat="44.066082838141845" lon="12.182439840722527"><ele>82.5</ele><time>2026-03-28T15:11:24Z</time></trkpt><trkpt lat="44.066010897397476" lon="12.182278969637062"><ele>83.0</ele><time>2026-03-28T15:11:25Z</time></trkpt><trkpt lat="44.065930211212304" lon="12.182131805183232"><ele>83.5</ele><time>2026-03-28T15:11:26Z</time></trkpt><trkpt lat="44.065837742228894" lon="12.18201295705385"><ele>84.0</ele><time>2026-03-28T15:11:27Z</time></trkpt><trkpt lat="44.065734608223636" lon="12.181924687022093"><ele>84.25</ele><time>2026-03-28T15:11:28Z</time></trkpt><trkpt lat="44.065627207491715" lon="12.18188025199485"><ele>84.5</ele><time>2026-03-28T15:11:29Z</time></trkpt><trkpt lat="44.065518924496374" lon="12.181893472295167"><ele>84.75</ele><time>2026-03-28T15:11:30Z</time></trkpt><trkpt lat="44.06540529505231" lon="12.181970317467021"><ele>85.0</ele><time>2026-03-28T15:11:31Z</time></trkpt><trkpt lat="44.06527165595612" lon="12.18212233335995"><ele>85.0</ele><time>2026-03-28T15:11:32Z</time></trkpt><trkpt lat="44.065141207585604" lon="12.182264856370363"><ele>85.0</ele><time>2026-03-28T15:11:33Z</time></trkpt><trkpt lat="44.06502015138961" lon="12.182442802926156"><ele>85.0</ele><time>2026-03-28T15:11:34Z</time></trkpt><trkpt lat="44.06491763416789" lon="12.182625857280454"><ele>86.25</ele><time>2026-03-28T15:11:35Z</time></trkpt><trkpt lat="44.064824788417596" lon="12.182773135269898"><ele>87.5</ele><time>2026-03-28T15:11:36Z</time></trkpt><trkpt lat="44.06472092167935" lon="12.182884434819814"><ele>88.75</ele><time>2026-03-28T15:11:37Z</time></trkpt><trkpt lat="44.064598675477036" lon="12.182943439209819"><ele>90.0</ele><time>2026-03-28T15:11:38Z</time></trkpt><trkpt lat="44.06446229534887" lon="12.182955396773535"><ele>90.0</ele><time>2026-03-28T15:11:39Z</time></trkpt><trkpt lat="44.06431588784379" lon="12.182930537730138"><ele>90.0</ele><time>2026-03-28T15:11:40Z</time></trkpt><trkpt lat="44.064163784688056" lon="12.182890454488314"><ele>90.0</ele><time>2026-03-28T15:11:41Z</time></trkpt><trkpt lat="44.06400021226181" lon="12.182823818089007"><ele>90.0</ele><time>2026-03-28T15:11:42Z</time></trkpt><trkpt lat="44.063834665858025" lon="12.182735794138514"><ele>90.0</ele><time>2026-03-28T15:11:43Z</time></trkpt><trkpt lat="44.063667935846766" lon="12.182659137580194"><ele>90.0</ele><time>2026-03-28T15:11:44Z</time></trkpt><trkpt lat="44.06349777046755" lon="12.182574895863382"><ele>90.0</ele><time>2026-03-28T15:11:45Z</time></trkpt><trkpt lat="44.06332859281382" lon="12.182491160789576"><ele>90.0</ele><time>2026-03-28T15:11:46Z</time></trkpt><trkpt lat="44.06315908871282" lon="12.18240469895989"><ele>90.0</ele><time>2026-03-28T15:11:47Z</time></trkpt><trkpt lat="44.06298709101259" lon="12.182316755733362"><ele>89.66666666666667</ele><time>2026-03-28T15:11:48Z</time></trkpt><trkpt lat="44.06282098158107" lon="12.182220203691235"><ele>89.33333333333334</ele><time>2026-03-28T15:11:49Z</time></trkpt><trkpt lat="44.0626500057173" lon="12.182128797249803"><ele>89.0</ele><time>2026-03-28T15:11:50Z</time></trkpt><trkpt lat="44.06249658664473" lon="12.1820465115596"><ele>89.0</ele><time>2026-03-28T15:11:51Z</time></trkpt><trkpt lat="44.0623478050881" lon="12.181971366343491"><ele>89.0</ele><time>2026-03-28T15:11:52Z</time></trkpt><trkpt lat="44.06220590900181" lon="12.181892222021308"><ele>89.0</ele><time>2026-03-28T15:11:53Z</time></trkpt><trkpt lat="44.062066505893156" lon="12.181815556664187"><ele>89.0</ele><time>2026-03-28T15:11:54Z</time></trkpt><trkpt lat="44.06192102615679" lon="12.181736307203979"><ele>89.0</ele><time>2026-03-28T15:11:55Z</time></trkpt><trkpt lat="44.061768741774586" lon="12.181654016712605"><ele>89.0</ele><time>2026-03-28T15:11:56Z</time></trkpt><trkpt lat="44.06161515502343" lon="12.181572222952418"><ele>90.0</ele><time>2026-03-28T15:11:57Z</time></trkpt><trkpt lat="44.06145633652433" lon="12.181493363106835"><ele>91.0</ele><time>2026-03-28T15:11:58Z</time></trkpt><trkpt lat="44.06129557234071" lon="12.181421380841273"><ele>92.0</ele><time>2026-03-28T15:11:59Z</time></trkpt><trkpt lat="44.06113631655752" lon="12.181352062347194"><ele>92.0</ele><time>2026-03-28T15:12:00Z</time></trkpt><trkpt lat="44.060969213526704" lon="12.181283577260732"><ele>92.0</ele><time>2026-03-28T15:12:01Z</time></trkpt><trkpt lat="44.0608036776913" lon="12.181215912201315"><ele>92.0</ele><time>2026-03-28T15:12:02Z</time></trkpt><trkpt lat="44.06063806400116" lon="12.18115893855062"><ele>92.33333333333334</ele><time>2026-03-28T15:12:03Z</time></trkpt><trkpt lat="44.060474606356514" lon="12.181086141772727"><ele>92.66666666666667</ele><time>2026-03-28T15:12:04Z</time></trkpt><trkpt lat="44.06030277428094" lon="12.181032417450878"><ele>93.0</ele><time>2026-03-28T15:12:05Z</time></trkpt><trkpt lat="44.06013030376727" lon="12.181002735672967"><ele>93.0</ele><time>2026-03-28T15:12:06Z</time></trkpt><trkpt lat="44.059968584693074" lon="12.180951390110158"><ele>93.0</ele><time>2026-03-28T15:12:07Z</time></trkpt><trkpt lat="44.059798200586165" lon="12.18091514528168"><ele>93.0</ele><time>2026-03-28T15:12:08Z</time></trkpt><trkpt lat="44.05962838231925" lon="12.180866226361251"><ele>92.33333333333333</ele><time>2026-03-28T15:12:09Z</time></trkpt><trkpt lat="44.059460239491564" lon="12.180825040366276"><ele>91.66666666666666</ele><time>2026-03-28T15:12:10Z</time></trkpt><trkpt lat="44.059288178622836" lon="12.180780943088342"><ele>91.0</ele><time>2026-03-28T15:12:11Z</time></trkpt><trkpt lat="44.05912158154042" lon="12.180736945265476"><ele>91.33333333333333</ele><time>2026-03-28T15:12:12Z</time></trkpt><trkpt lat="44.05895568366393" lon="12.180694336526507"><ele>91.66666666666667</ele><time>2026-03-28T15:12:13Z</time></trkpt><trkpt lat="44.0587888797561" lon="12.18065766263785"><ele>92.0</ele><time>2026-03-28T15:12:14Z</time></trkpt><trkpt lat="44.05862549358739" lon="12.180630182346386"><ele>93.0</ele><time>2026-03-28T15:12:15Z</time></trkpt><trkpt lat="44.05845905143332" lon="12.180600151846836"><ele>94.0</ele><time>2026-03-28T15:12:16Z</time></trkpt><trkpt lat="44.05829398347489" lon="12.180567033686152"><ele>95.0</ele><time>2026-03-28T15:12:17Z</time></trkpt><trkpt lat="44.05813110300349" lon="12.180540821235908"><ele>95.0</ele><time>2026-03-28T15:12:18Z</time></trkpt><trkpt lat="44.05796680590388" lon="12.180517637667363"><ele>95.0</ele><time>2026-03-28T15:12:19Z</time></trkpt><trkpt lat="44.05780238127535" lon="12.180491344907635"><ele>95.0</ele><time>2026-03-28T15:12:20Z</time></trkpt><trkpt lat="44.05763851146604" lon="12.18044452096845"><ele>95.0</ele><time>2026-03-28T15:12:21Z</time></trkpt><trkpt lat="44.05747189613614" lon="12.180416812962301"><ele>95.0</ele><time>2026-03-28T15:12:22Z</time></trkpt><trkpt lat="44.057300687036154" lon="12.180409909784544"><ele>95.0</ele><time>2026-03-28T15:12:23Z</time></trkpt><trkpt lat="44.05712988607877" lon="12.180359982352247"><ele>92.33333333333334</ele><time>2026-03-28T15:12:24Z</time></trkpt><trkpt lat="44.05695683442658" lon="12.180353685555263"><ele>89.66666666666667</ele><time>2026-03-28T15:12:25Z</time></trkpt><trkpt lat="44.05678647673473" lon="12.180329322110591"><ele>87.0</ele><time>2026-03-28T15:12:26Z</time></trkpt><trkpt lat="44.056614509447584" lon="12.180296755383278"><ele>84.66666666666667</ele><time>2026-03-28T15:12:27Z</time></trkpt><trkpt lat="44.05644541266645" lon="12.180240645086517"><ele>82.33333333333334</ele><time>2026-03-28T15:12:28Z</time></trkpt><trkpt lat="44.05627270368872" lon="12.180168139856661"><ele>80.0</ele><time>2026-03-28T15:12:29Z</time></trkpt><trkpt lat="44.05611506006153" lon="12.180069009066315"><ele>80.0</ele><time>2026-03-28T15:12:30Z</time></trkpt><trkpt lat="44.055961652841745" lon="12.179977134886274"><ele>80.0</ele><time>2026-03-28T15:12:31Z</time></trkpt><trkpt lat="44.05581280625022" lon="12.17988755438214"><ele>80.0</ele><time>2026-03-28T15:12:32Z</time></trkpt><trkpt lat="44.05566466999504" lon="12.179818794534551"><ele>80.25</ele><time>2026-03-28T15:12:33Z</time></trkpt><trkpt lat="44.055519118793605" lon="12.179755271471867"><ele>80.5</ele><time>2026-03-28T15:12:34Z</time></trkpt><trkpt lat="44.05538452513239" lon="12.179678451955983"><ele>80.75</ele><time>2026-03-28T15:12:35Z</time></trkpt><trkpt lat="44.05525343361997" lon="12.179599385448695"><ele>81.0</ele><time>2026-03-28T15:12:36Z</time></trkpt><trkpt lat="44.0551317576996" lon="12.179512223574156"><ele>81.0</ele><time>2026-03-28T15:12:37Z</time></trkpt><trkpt lat="44.05501098692227" lon="12.179417748265186"><ele>81.0</ele><time>2026-03-28T15:12:38Z</time></trkpt><trkpt lat="44.054895512137655" lon="12.17931541620151"><ele>81.0</ele><time>2026-03-28T15:12:39Z</time></trkpt><trkpt lat="44.054784416698496" lon="12.179208036931254"><ele>81.0</ele><time>2026-03-28T15:12:40Z</time></trkpt><trkpt lat="44.05465767001044" lon="12.179102924763619"><ele>80.25</ele><time>2026-03-28T15:12:41Z</time></trkpt><trkpt lat="44.05453152268294" lon="12.178994744680839"><ele>79.5</ele><time>2026-03-28T15:12:42Z</time></trkpt><trkpt lat="44.05441185379019" lon="12.17889557474197"><ele>78.75</ele><time>2026-03-28T15:12:43Z</time></trkpt><trkpt lat="44.0543012754114" lon="12.178799807460988"><ele>78.0</ele><time>2026-03-28T15:12:44Z</time></trkpt><trkpt lat="44.05419247509931" lon="12.178707200134053"><ele>77.2</ele><time>2026-03-28T15:12:45Z</time></trkpt><trkpt lat="44.054090571487386" lon="12.178621488440456"><ele>76.4</ele><time>2026-03-28T15:12:46Z</time></trkpt><trkpt lat="44.05399700904" lon="12.17854044501262"><ele>75.60000000000001</ele><time>2026-03-28T15:12:47Z</time></trkpt><trkpt lat="44.05390870887108" lon="12.178465794549412"><ele>74.8</ele><time>2026-03-28T15:12:48Z</time></trkpt><trkpt lat="44.05381814292087" lon="12.178386106036061"><ele>74.0</ele><time>2026-03-28T15:12:49Z</time></trkpt><trkpt lat="44.053710471846465" lon="12.178309897119107"><ele>74.0</ele><time>2026-03-28T15:12:50Z</time></trkpt><trkpt lat="44.05360791523711" lon="12.178228348170622"><ele>74.0</ele><time>2026-03-28T15:12:51Z</time></trkpt><trkpt lat="44.05351635808455" lon="12.1781477572418"><ele>74.0</ele><time>2026-03-28T15:12:52Z</time></trkpt><trkpt lat="44.05344437386579" lon="12.178087777318012"><ele>74.0</ele><time>2026-03-28T15:12:53Z</time></trkpt><trkpt lat="44.053388243614066" lon="12.178039504915443"><ele>74.0</ele><time>2026-03-28T15:12:55Z</time></trkpt><trkpt lat="44.05332412129111" lon="12.177996257741817"><ele>74.0</ele><time>2026-03-28T15:12:59Z</time></trkpt><trkpt lat="44.053255467313114" lon="12.177931448053167"><ele>73.4</ele><time>2026-03-28T15:13:00Z</time></trkpt><trkpt lat="44.05318022554287" lon="12.17786424250211"><ele>72.80000000000001</ele><time>2026-03-28T15:13:01Z</time></trkpt><trkpt lat="44.05308983704704" lon="12.177790673052906"><ele>72.19999999999999</ele><time>2026-03-28T15:13:02Z</time></trkpt><trkpt lat="44.053000520868615" lon="12.177716787097461"><ele>71.6</ele><time>2026-03-28T15:13:03Z</time></trkpt><trkpt lat="44.05291445883525" lon="12.177632941145095"><ele>71.0</ele><time>2026-03-28T15:13:04Z</time></trkpt><trkpt lat="44.052828153598306" lon="12.177546182381462"><ele>71.0</ele><time>2026-03-28T15:13:05Z</time></trkpt><trkpt lat="44.052754457821536" lon="12.177446334100512"><ele>71.0</ele><time>2026-03-28T15:13:06Z</time></trkpt><trkpt lat="44.05267002069887" lon="12.17734290644337"><ele>71.0</ele><time>2026-03-28T15:13:07Z</time></trkpt><trkpt lat="44.052601292627664" lon="12.177184928714274"><ele>71.0</ele><time>2026-03-28T15:13:08Z</time></trkpt><trkpt lat="44.05252261492518" lon="12.17703266509303"><ele>71.0</ele><time>2026-03-28T15:13:09Z</time></trkpt><trkpt lat="44.05244333439143" lon="12.176883090377498"><ele>71.0</ele><time>2026-03-28T15:13:10Z</time></trkpt><trkpt lat="44.05236543060415" lon="12.176737120968577"><ele>71.0</ele><time>2026-03-28T15:13:11Z</time></trkpt><trkpt lat="44.05228678357778" lon="12.176592340782326"><ele>71.0</ele><time>2026-03-28T15:13:12Z</time></trkpt><trkpt lat="44.05220812013863" lon="12.176456737698722"><ele>71.25</ele><time>2026-03-28T15:13:13Z</time></trkpt><trkpt lat="44.05211051213374" lon="12.176336140404365"><ele>71.5</ele><time>2026-03-28T15:13:14Z</time></trkpt><trkpt lat="44.05202759217288" lon="12.176204500348543"><ele>71.75</ele><time>2026-03-28T15:13:15Z</time></trkpt><trkpt lat="44.051949812505924" lon="12.176101631750186"><ele>72.0</ele><time>2026-03-28T15:13:16Z</time></trkpt><trkpt lat="44.05189361729621" lon="12.17600310640927"><ele>72.0</ele><time>2026-03-28T15:13:17Z</time></trkpt><trkpt lat="44.05183985027646" lon="12.175900733967836"><ele>72.0</ele><time>2026-03-28T15:13:18Z</time></trkpt><trkpt lat="44.05180415028972" lon="12.175815567395722"><ele>72.0</ele><time>2026-03-28T15:13:19Z</time></trkpt><trkpt lat="44.05175513258318" lon="12.175727589638306"><ele>72.0</ele><time>2026-03-28T15:13:21Z</time></trkpt><trkpt lat="44.05161912386155" lon="12.175842731982547"><ele>72.0</ele><time>2026-03-28T15:13:22Z</time></trkpt><trkpt lat="44.05152792866982" lon="12.175887787885165"><ele>71.75</ele><time>2026-03-28T15:13:23Z</time></trkpt><trkpt lat="44.05141254005348" lon="12.17594030218599"><ele>71.5</ele><time>2026-03-28T15:13:24Z</time></trkpt><trkpt lat="44.051303711967144" lon="12.176034356079859"><ele>71.25</ele><time>2026-03-28T15:13:25Z</time></trkpt><trkpt lat="44.051193026688615" lon="12.176155646665356"><ele>71.0</ele><time>2026-03-28T15:13:26Z</time></trkpt><trkpt lat="44.0511050625132" lon="12.17628897271313"><ele>71.0</ele><time>2026-03-28T15:13:27Z</time></trkpt><trkpt lat="44.05102833575919" lon="12.176432833577106"><ele>71.0</ele><time>2026-03-28T15:13:28Z</time></trkpt><trkpt lat="44.05096471092777" lon="12.176594822909998"><ele>71.0</ele><time>2026-03-28T15:13:29Z</time></trkpt><trkpt lat="44.05090518939561" lon="12.176768750009861"><ele>71.0</ele><time>2026-03-28T15:13:30Z</time></trkpt><trkpt lat="44.050858549935185" lon="12.176948729710524"><ele>70.75</ele><time>2026-03-28T15:13:31Z</time></trkpt><trkpt lat="44.050809617405115" lon="12.177113213699812"><ele>70.5</ele><time>2026-03-28T15:13:32Z</time></trkpt><trkpt lat="44.05075304773727" lon="12.177273316356398"><ele>70.25</ele><time>2026-03-28T15:13:33Z</time></trkpt><trkpt lat="44.050689077465336" lon="12.177436772604542"><ele>70.0</ele><time>2026-03-28T15:13:34Z</time></trkpt><trkpt lat="44.050634328116125" lon="12.17760717944636"><ele>71.0</ele><time>2026-03-28T15:13:35Z</time></trkpt><trkpt lat="44.050588603040495" lon="12.177787890053022"><ele>72.0</ele><time>2026-03-28T15:13:36Z</time></trkpt><trkpt lat="44.050552293027415" lon="12.177969317407966"><ele>73.0</ele><time>2026-03-28T15:13:37Z</time></trkpt><trkpt lat="44.05053685975759" lon="12.178143508269505"><ele>74.0</ele><time>2026-03-28T15:13:38Z</time></trkpt><trkpt lat="44.050538831155144" lon="12.178305513438753"><ele>74.75</ele><time>2026-03-28T15:13:39Z</time></trkpt><trkpt lat="44.050566527585865" lon="12.178468953135175"><ele>75.5</ele><time>2026-03-28T15:13:40Z</time></trkpt><trkpt lat="44.050610402290836" lon="12.178653257668596"><ele>76.25</ele><time>2026-03-28T15:13:41Z</time></trkpt><trkpt lat="44.05067273436385" lon="12.1788630873779"><ele>77.0</ele><time>2026-03-28T15:13:42Z</time></trkpt><trkpt lat="44.05075343722635" lon="12.179085804625835"><ele>76.66666666666667</ele><time>2026-03-28T15:13:43Z</time></trkpt><trkpt lat="44.050820930445916" lon="12.179311236194787"><ele>76.33333333333333</ele><time>2026-03-28T15:13:44Z</time></trkpt><trkpt lat="44.050876393220925" lon="12.179564721550006"><ele>76.0</ele><time>2026-03-28T15:13:45Z</time></trkpt><trkpt lat="44.05091270866437" lon="12.179833888542097"><ele>76.33333333333333</ele><time>2026-03-28T15:13:46Z</time></trkpt><trkpt lat="44.05093033887805" lon="12.180110208975961"><ele>76.66666666666667</ele><time>2026-03-28T15:13:47Z</time></trkpt><trkpt lat="44.05094139624462" lon="12.180378527562105"><ele>77.0</ele><time>2026-03-28T15:13:48Z</time></trkpt><trkpt lat="44.0509518921638" lon="12.180637817812512"><ele>78.33333333333334</ele><time>2026-03-28T15:13:49Z</time></trkpt><trkpt lat="44.05095770747534" lon="12.180880652480047"><ele>79.66666666666667</ele><time>2026-03-28T15:13:50Z</time></trkpt><trkpt lat="44.05096125046703" lon="12.181106613915667"><ele>81.0</ele><time>2026-03-28T15:13:51Z</time></trkpt><trkpt lat="44.05095442813652" lon="12.18131909834144"><ele>79.66666666666667</ele><time>2026-03-28T15:13:52Z</time></trkpt><trkpt lat="44.05091758940567" lon="12.1815198253329"><ele>78.33333333333334</ele><time>2026-03-28T15:13:53Z</time></trkpt><trkpt lat="44.05086062329241" lon="12.181702704396546"><ele>77.0</ele><time>2026-03-28T15:13:54Z</time></trkpt><trkpt lat="44.05077451075032" lon="12.181890496991958"><ele>80.0</ele><time>2026-03-28T15:13:55Z</time></trkpt><trkpt lat="44.050656227714526" lon="12.182060268799392"><ele>83.0</ele><time>2026-03-28T15:13:56Z</time></trkpt><trkpt lat="44.05052781321527" lon="12.182211281281091"><ele>86.0</ele><time>2026-03-28T15:13:57Z</time></trkpt><trkpt lat="44.050372992250125" lon="12.182281534046346"><ele>86.0</ele><time>2026-03-28T15:13:58Z</time></trkpt><trkpt lat="44.05021812066995" lon="12.182342279091667"><ele>86.0</ele><time>2026-03-28T15:13:59Z</time></trkpt><trkpt lat="44.05003328051228" lon="12.1823689905011"><ele>86.0</ele><time>2026-03-28T15:14:00Z</time></trkpt><trkpt lat="44.049829704893874" lon="12.182392493772522"><ele>83.66666666666667</ele><time>2026-03-28T15:14:01Z</time></trkpt><trkpt lat="44.049625029419055" lon="12.182426633637265"><ele>81.33333333333333</ele><time>2026-03-28T15:14:02Z</time></trkpt><trkpt lat="44.04942109831702" lon="12.18243792935612"><ele>79.0</ele><time>2026-03-28T15:14:03Z</time></trkpt><trkpt lat="44.049226448879345" lon="12.182457450148348"><ele>80.33333333333333</ele><time>2026-03-28T15:14:04Z</time></trkpt><trkpt lat="44.049051704986034" lon="12.182483217580344"><ele>81.66666666666667</ele><time>2026-03-28T15:14:05Z</time></trkpt><trkpt lat="44.048887504814644" lon="12.18250551881705"><ele>83.0</ele><time>2026-03-28T15:14:06Z</time></trkpt><trkpt lat="44.04875072352562" lon="12.182529483471424"><ele>83.0</ele><time>2026-03-28T15:14:07Z</time></trkpt><trkpt lat="44.04862961466028" lon="12.182541042238775"><ele>83.0</ele><time>2026-03-28T15:14:08Z</time></trkpt><trkpt lat="44.04852253717757" lon="12.18254827818258"><ele>83.0</ele><time>2026-03-28T15:14:09Z</time></trkpt><trkpt lat="44.04843316011186" lon="12.182548332598802"><ele>83.0</ele><time>2026-03-28T15:14:10Z</time></trkpt><trkpt lat="44.048355304432405" lon="12.182749377531106"><ele>83.0</ele><time>2026-03-28T15:14:12Z</time></trkpt><trkpt lat="44.04836276388983" lon="12.1828929200989"><ele>83.0</ele><time>2026-03-28T15:14:13Z</time></trkpt><trkpt lat="44.048368329809875" lon="12.183069025600114"><ele>83.0</ele><time>2026-03-28T15:14:14Z</time></trkpt><trkpt lat="44.04838047594443" lon="12.183288559195006"><ele>83.0</ele><time>2026-03-28T15:14:15Z</time></trkpt><trkpt lat="44.048372195285836" lon="12.18352793285403"><ele>81.0</ele><time>2026-03-28T15:14:16Z</time></trkpt><trkpt lat="44.04835329292224" lon="12.183796986599168"><ele>79.0</ele><time>2026-03-28T15:14:17Z</time></trkpt><trkpt lat="44.04832587098083" lon="12.1840529859034"><ele>77.0</ele><time>2026-03-28T15:14:18Z</time></trkpt><trkpt lat="44.04830622321113" lon="12.184268029117208"><ele>77.75</ele><time>2026-03-28T15:14:19Z</time></trkpt><trkpt lat="44.04827923128725" lon="12.184458361104177"><ele>78.5</ele><time>2026-03-28T15:14:20Z</time></trkpt><trkpt lat="44.04823999049835" lon="12.18462839789437"><ele>79.25</ele><time>2026-03-28T15:14:21Z</time></trkpt><trkpt lat="44.048173631933025" lon="12.184799925733671"><ele>80.0</ele><time>2026-03-28T15:14:22Z</time></trkpt><trkpt lat="44.04808041354138" lon="12.184984278687425"><ele>80.66666666666667</ele><time>2026-03-28T15:14:23Z</time></trkpt><trkpt lat="44.04796611976783" lon="12.185181157286443"><ele>81.33333333333333</ele><time>2026-03-28T15:14:24Z</time></trkpt><trkpt lat="44.04784966230772" lon="12.185389906029945"><ele>82.0</ele><time>2026-03-28T15:14:25Z</time></trkpt><trkpt lat="44.047748521353476" lon="12.185603003856512"><ele>81.0</ele><time>2026-03-28T15:14:26Z</time></trkpt><trkpt lat="44.047660412388616" lon="12.185801582761885"><ele>80.0</ele><time>2026-03-28T15:14:27Z</time></trkpt><trkpt lat="44.047541837627215" lon="12.185957528549244"><ele>79.0</ele><time>2026-03-28T15:14:28Z</time></trkpt><trkpt lat="44.04741073826201" lon="12.186117815745835"><ele>79.0</ele><time>2026-03-28T15:14:29Z</time></trkpt><trkpt lat="44.04727043762065" lon="12.186305831118986"><ele>79.0</ele><time>2026-03-28T15:14:30Z</time></trkpt><trkpt lat="44.047124387792785" lon="12.186456585319283"><ele>79.0</ele><time>2026-03-28T15:14:31Z</time></trkpt><trkpt lat="44.046990302880715" lon="12.186592126016599"><ele>78.16666666666666</ele><time>2026-03-28T15:14:32Z</time></trkpt><trkpt lat="44.04688947605285" lon="12.186660595614363"><ele>77.33333333333333</ele><time>2026-03-28T15:14:33Z</time></trkpt><trkpt lat="44.046808713613615" lon="12.186706268634145"><ele>76.5</ele><time>2026-03-28T15:14:35Z</time></trkpt><trkpt lat="44.0467216397133" lon="12.186717527715869"><ele>75.66666666666667</ele><time>2026-03-28T15:14:38Z</time></trkpt><trkpt lat="44.04666295179201" lon="12.186641696002592"><ele>74.83333333333334</ele><time>2026-03-28T15:14:39Z</time></trkpt><trkpt lat="44.04660124331168" lon="12.18661939182088"><ele>74.0</ele><time>2026-03-28T15:14:40Z</time></trkpt><trkpt lat="44.04654127991302" lon="12.186653916808643"><ele>74.0</ele><time>2026-03-28T15:14:41Z</time></trkpt><trkpt lat="44.0465000966752" lon="12.186722486501765"><ele>74.0</ele><time>2026-03-28T15:14:42Z</time></trkpt><trkpt lat="44.04648166739172" lon="12.186826190591377"><ele>74.0</ele><time>2026-03-28T15:14:43Z</time></trkpt><trkpt lat="44.04649855665746" lon="12.186956663223956"><ele>74.0</ele><time>2026-03-28T15:14:44Z</time></trkpt><trkpt lat="44.0465420591728" lon="12.187097757575394"><ele>74.0</ele><time>2026-03-28T15:14:45Z</time></trkpt><trkpt lat="44.04659363393898" lon="12.187196915205734"><ele>74.0</ele><time>2026-03-28T15:14:46Z</time></trkpt><trkpt lat="44.04651650495514" lon="12.187337877077441"><ele>72.25</ele><time>2026-03-28T15:14:47Z</time></trkpt><trkpt lat="44.04645366869874" lon="12.187468667727217"><ele>70.5</ele><time>2026-03-28T15:14:48Z</time></trkpt><trkpt lat="44.04638345032658" lon="12.187611564856565"><ele>68.75</ele><time>2026-03-28T15:14:49Z</time></trkpt><trkpt lat="44.04631997449356" lon="12.187769020001864"><ele>67.0</ele><time>2026-03-28T15:14:50Z</time></trkpt><trkpt lat="44.04624382399787" lon="12.187923336511107"><ele>67.0</ele><time>2026-03-28T15:14:51Z</time></trkpt><trkpt lat="44.04616392941211" lon="12.188085818423485"><ele>67.0</ele><time>2026-03-28T15:14:52Z</time></trkpt><trkpt lat="44.04608689950168" lon="12.188246960526863"><ele>67.0</ele><time>2026-03-28T15:14:53Z</time></trkpt><trkpt lat="44.04600696377447" lon="12.18841447756534"><ele>67.0</ele><time>2026-03-28T15:14:54Z</time></trkpt><trkpt lat="44.045910006196436" lon="12.188599613902603"><ele>67.33333333333333</ele><time>2026-03-28T15:14:55Z</time></trkpt><trkpt lat="44.04581860798663" lon="12.188797593651303"><ele>67.66666666666667</ele><time>2026-03-28T15:14:56Z</time></trkpt><trkpt lat="44.045724947213834" lon="12.188989232958521"><ele>68.0</ele><time>2026-03-28T15:14:57Z</time></trkpt><trkpt lat="44.04563564549412" lon="12.189171649746426"><ele>68.0</ele><time>2026-03-28T15:14:58Z</time></trkpt><trkpt lat="44.04555204761747" lon="12.189338503720032"><ele>68.0</ele><time>2026-03-28T15:14:59Z</time></trkpt><trkpt lat="44.04547747802729" lon="12.189501020502252"><ele>68.0</ele><time>2026-03-28T15:15:00Z</time></trkpt><trkpt lat="44.045398108803234" lon="12.189646008977272"><ele>68.0</ele><time>2026-03-28T15:15:01Z</time></trkpt><trkpt lat="44.04532756670482" lon="12.189789375078211"><ele>69.5</ele><time>2026-03-28T15:15:02Z</time></trkpt><trkpt lat="44.045254546902896" lon="12.18993948480877"><ele>71.0</ele><time>2026-03-28T15:15:03Z</time></trkpt><trkpt lat="44.04517323246043" lon="12.190086145079508"><ele>72.5</ele><time>2026-03-28T15:15:04Z</time></trkpt><trkpt lat="44.0450721827523" lon="12.190214761212555"><ele>74.0</ele><time>2026-03-28T15:15:05Z</time></trkpt><trkpt lat="44.044964059902426" lon="12.190300614151978"><ele>74.75</ele><time>2026-03-28T15:15:06Z</time></trkpt><trkpt lat="44.04483358687769" lon="12.190369247392377"><ele>75.5</ele><time>2026-03-28T15:15:07Z</time></trkpt><trkpt lat="44.04470043107734" lon="12.190406627798064"><ele>76.25</ele><time>2026-03-28T15:15:08Z</time></trkpt><trkpt lat="44.04455216785086" lon="12.190396038565204"><ele>77.0</ele><time>2026-03-28T15:15:09Z</time></trkpt><trkpt lat="44.04439522714319" lon="12.190315177508563"><ele>77.0</ele><time>2026-03-28T15:15:10Z</time></trkpt><trkpt lat="44.0442222425831" lon="12.190249430136754"><ele>77.0</ele><time>2026-03-28T15:15:11Z</time></trkpt><trkpt lat="44.0440583286598" lon="12.190150962765099"><ele>77.0</ele><time>2026-03-28T15:15:12Z</time></trkpt><trkpt lat="44.04389658892749" lon="12.19006567976378"><ele>78.0</ele><time>2026-03-28T15:15:13Z</time></trkpt><trkpt lat="44.04374879692811" lon="12.189994430547358"><ele>79.0</ele><time>2026-03-28T15:15:14Z</time></trkpt><trkpt lat="44.04359191270582" lon="12.189927604144271"><ele>80.0</ele><time>2026-03-28T15:15:15Z</time></trkpt><trkpt lat="44.04342735852302" lon="12.18989406454881"><ele>81.0</ele><time>2026-03-28T15:15:16Z</time></trkpt><trkpt lat="44.043239678653435" lon="12.18990016196245"><ele>82.0</ele><time>2026-03-28T15:15:17Z</time></trkpt><trkpt lat="44.04305685839236" lon="12.189916370384505"><ele>83.0</ele><time>2026-03-28T15:15:18Z</time></trkpt><trkpt lat="44.042903137382105" lon="12.189913009839316"><ele>80.5</ele><time>2026-03-28T15:15:19Z</time></trkpt><trkpt lat="44.04278445993229" lon="12.18979849750406"><ele>78.0</ele><time>2026-03-28T15:15:20Z</time></trkpt><trkpt lat="44.04265804948143" lon="12.189722520298114"><ele>75.5</ele><time>2026-03-28T15:15:21Z</time></trkpt><trkpt lat="44.04252995143571" lon="12.189688063183034"><ele>73.0</ele><time>2026-03-28T15:15:22Z</time></trkpt><trkpt lat="44.04241156153884" lon="12.189703678681465"><ele>73.0</ele><time>2026-03-28T15:15:23Z</time></trkpt><trkpt lat="44.042296904722505" lon="12.189781316829471"><ele>73.0</ele><time>2026-03-28T15:15:24Z</time></trkpt><trkpt lat="44.04217862794902" lon="12.189910767855741"><ele>73.0</ele><time>2026-03-28T15:15:25Z</time></trkpt><trkpt lat="44.04205713131354" lon="12.190054815511257"><ele>73.0</ele><time>2026-03-28T15:15:26Z</time></trkpt><trkpt lat="44.04192759577131" lon="12.19009448952302"><ele>76.0</ele><time>2026-03-28T15:15:27Z</time></trkpt><trkpt lat="44.04178455846429" lon="12.190092267693272"><ele>79.0</ele><time>2026-03-28T15:15:28Z</time></trkpt><trkpt lat="44.04163121622967" lon="12.190058117804279"><ele>82.0</ele><time>2026-03-28T15:15:29Z</time></trkpt><trkpt lat="44.04146237859366" lon="12.190073970086504"><ele>82.0</ele><time>2026-03-28T15:15:30Z</time></trkpt><trkpt lat="44.04130628501235" lon="12.190101065199086"><ele>82.0</ele><time>2026-03-28T15:15:31Z</time></trkpt><trkpt lat="44.0411722856762" lon="12.190166823725363"><ele>82.0</ele><time>2026-03-28T15:15:32Z</time></trkpt><trkpt lat="44.041048245895745" lon="12.19027752252865"><ele>82.0</ele><time>2026-03-28T15:15:33Z</time></trkpt><trkpt lat="44.04093391704016" lon="12.19044344044113"><ele>82.0</ele><time>2026-03-28T15:15:34Z</time></trkpt><trkpt lat="44.04082493447289" lon="12.190634425348355"><ele>82.0</ele><time>2026-03-28T15:15:35Z</time></trkpt><trkpt lat="44.04070896589679" lon="12.190760215448705"><ele>82.0</ele><time>2026-03-28T15:15:36Z</time></trkpt><trkpt lat="44.04058786936435" lon="12.190849300515943"><ele>85.66666666666666</ele><time>2026-03-28T15:15:37Z</time></trkpt><trkpt lat="44.040445851111414" lon="12.19089762935777"><ele>89.33333333333333</ele><time>2026-03-28T15:15:38Z</time></trkpt><trkpt lat="44.040289207979406" lon="12.190916184129094"><ele>93.0</ele><time>2026-03-28T15:15:39Z</time></trkpt><trkpt lat="44.0401097307648" lon="12.1909036619261"><ele>91.66666666666667</ele><time>2026-03-28T15:15:40Z</time></trkpt><trkpt lat="44.039926445554" lon="12.190865024796432"><ele>90.33333333333334</ele><time>2026-03-28T15:15:41Z</time></trkpt><trkpt lat="44.03977992276763" lon="12.190750380762777"><ele>89.0</ele><time>2026-03-28T15:15:42Z</time></trkpt><trkpt lat="44.03964859966665" lon="12.190704320411234"><ele>89.0</ele><time>2026-03-28T15:15:43Z</time></trkpt><trkpt lat="44.03953566407887" lon="12.190692102605897"><ele>89.0</ele><time>2026-03-28T15:15:44Z</time></trkpt><trkpt lat="44.039423659803944" lon="12.19073740539848"><ele>89.0</ele><time>2026-03-28T15:15:45Z</time></trkpt><trkpt lat="44.03932013813125" lon="12.190854454661107"><ele>89.0</ele><time>2026-03-28T15:15:46Z</time></trkpt><trkpt lat="44.03924195596118" lon="12.191004333634464"><ele>89.0</ele><time>2026-03-28T15:15:47Z</time></trkpt><trkpt lat="44.03919357169259" lon="12.191186073388735"><ele>89.0</ele><time>2026-03-28T15:15:48Z</time></trkpt><trkpt lat="44.039161319344494" lon="12.191427843080174"><ele>89.0</ele><time>2026-03-28T15:15:49Z</time></trkpt><trkpt lat="44.03912361425266" lon="12.191667841842463"><ele>87.0</ele><time>2026-03-28T15:15:50Z</time></trkpt><trkpt lat="44.03902111394629" lon="12.191833413525925"><ele>85.0</ele><time>2026-03-28T15:15:51Z</time></trkpt><trkpt lat="44.0389163609564" lon="12.192004567480568"><ele>83.0</ele><time>2026-03-28T15:15:52Z</time></trkpt><trkpt lat="44.03875966776858" lon="12.192089066409052"><ele>83.0</ele><time>2026-03-28T15:15:53Z</time></trkpt><trkpt lat="44.03861971288409" lon="12.19220458558015"><ele>83.0</ele><time>2026-03-28T15:15:54Z</time></trkpt><trkpt lat="44.03848103217297" lon="12.19229262013971"><ele>83.0</ele><time>2026-03-28T15:15:55Z</time></trkpt><trkpt lat="44.03835414654991" lon="12.192414756489192"><ele>83.0</ele><time>2026-03-28T15:15:56Z</time></trkpt><trkpt lat="44.038259069587596" lon="12.192575848650383"><ele>83.0</ele><time>2026-03-28T15:15:57Z</time></trkpt><trkpt lat="44.038196890806226" lon="12.192755288191979"><ele>83.0</ele><time>2026-03-28T15:15:58Z</time></trkpt><trkpt lat="44.0381605480684" lon="12.192959156577318"><ele>83.0</ele><time>2026-03-28T15:15:59Z</time></trkpt><trkpt lat="44.03815920632317" lon="12.193178712697245"><ele>83.33333333333334</ele><time>2026-03-28T15:16:00Z</time></trkpt><trkpt lat="44.038197504316734" lon="12.19342330678975"><ele>83.66666666666667</ele><time>2026-03-28T15:16:01Z</time></trkpt><trkpt lat="44.03821667010565" lon="12.193644151510552"><ele>84.0</ele><time>2026-03-28T15:16:02Z</time></trkpt><trkpt lat="44.03818498235058" lon="12.193832815033112"><ele>85.66666666666667</ele><time>2026-03-28T15:16:03Z</time></trkpt><trkpt lat="44.03812063331369" lon="12.194022749589388"><ele>87.33333333333334</ele><time>2026-03-28T15:16:04Z</time></trkpt><trkpt lat="44.03801796502465" lon="12.194184943672417"><ele>89.0</ele><time>2026-03-28T15:16:05Z</time></trkpt><trkpt lat="44.03787239381199" lon="12.194305075149714"><ele>89.0</ele><time>2026-03-28T15:16:06Z</time></trkpt><trkpt lat="44.037716854706815" lon="12.194452936829018"><ele>89.0</ele><time>2026-03-28T15:16:07Z</time></trkpt><trkpt lat="44.03757491349922" lon="12.194580728506905"><ele>89.0</ele><time>2026-03-28T15:16:08Z</time></trkpt><trkpt lat="44.037426869635674" lon="12.19476057550958"><ele>89.0</ele><time>2026-03-28T15:16:09Z</time></trkpt><trkpt lat="44.03729674743747" lon="12.194962489097911"><ele>89.0</ele><time>2026-03-28T15:16:10Z</time></trkpt><trkpt lat="44.0371561271962" lon="12.19517247117446"><ele>89.0</ele><time>2026-03-28T15:16:11Z</time></trkpt><trkpt lat="44.037019155766714" lon="12.195391971250379"><ele>89.0</ele><time>2026-03-28T15:16:12Z</time></trkpt><trkpt lat="44.0368926591939" lon="12.19559336121666"><ele>89.0</ele><time>2026-03-28T15:16:13Z</time></trkpt><trkpt lat="44.03677712625708" lon="12.195768468040285"><ele>89.0</ele><time>2026-03-28T15:16:14Z</time></trkpt><trkpt lat="44.036669705350164" lon="12.195904758320975"><ele>91.0</ele><time>2026-03-28T15:16:15Z</time></trkpt><trkpt lat="44.03655820368041" lon="12.19598510113211"><ele>93.0</ele><time>2026-03-28T15:16:16Z</time></trkpt><trkpt lat="44.03643271685959" lon="12.196020957827518"><ele>95.0</ele><time>2026-03-28T15:16:17Z</time></trkpt><trkpt lat="44.03628775872268" lon="12.196009964149058"><ele>97.0</ele><time>2026-03-28T15:16:18Z</time></trkpt><trkpt lat="44.03612765076353" lon="12.195951478004584"><ele>97.0</ele><time>2026-03-28T15:16:19Z</time></trkpt><trkpt lat="44.03594336090394" lon="12.19587797159885"><ele>97.0</ele><time>2026-03-28T15:16:20Z</time></trkpt><trkpt lat="44.03574714181374" lon="12.195820005826674"><ele>97.0</ele><time>2026-03-28T15:16:21Z</time></trkpt><trkpt lat="44.0355434660128" lon="12.195758532666492"><ele>98.66666666666667</ele><time>2026-03-28T15:16:22Z</time></trkpt><trkpt lat="44.035339962245715" lon="12.195721184442347"><ele>100.33333333333334</ele><time>2026-03-28T15:16:23Z</time></trkpt><trkpt lat="44.03513086691819" lon="12.19568164427635"><ele>102.0</ele><time>2026-03-28T15:16:24Z</time></trkpt><trkpt lat="44.03494529963239" lon="12.195628445931352"><ele>100.25</ele><time>2026-03-28T15:16:25Z</time></trkpt><trkpt lat="44.03477273753968" lon="12.195629205637005"><ele>98.5</ele><time>2026-03-28T15:16:26Z</time></trkpt><trkpt lat="44.034632376365366" lon="12.195616668112"><ele>96.75</ele><time>2026-03-28T15:16:27Z</time></trkpt><trkpt lat="44.03451844026294" lon="12.195638928456521"><ele>95.0</ele><time>2026-03-28T15:16:28Z</time></trkpt><trkpt lat="44.0344029543272" lon="12.195701282330297"><ele>95.0</ele><time>2026-03-28T15:16:29Z</time></trkpt><trkpt lat="44.03429734628179" lon="12.195802014798343"><ele>95.0</ele><time>2026-03-28T15:16:30Z</time></trkpt><trkpt lat="44.034223046939765" lon="12.195946488210142"><ele>95.0</ele><time>2026-03-28T15:16:31Z</time></trkpt><trkpt lat="44.034180902006824" lon="12.196129073757099"><ele>95.0</ele><time>2026-03-28T15:16:32Z</time></trkpt><trkpt lat="44.03415756861082" lon="12.19634176391894"><ele>91.75</ele><time>2026-03-28T15:16:33Z</time></trkpt><trkpt lat="44.03413167550106" lon="12.196578227223938"><ele>88.5</ele><time>2026-03-28T15:16:34Z</time></trkpt><trkpt lat="44.03404575616985" lon="12.196727464793947"><ele>85.25</ele><time>2026-03-28T15:16:35Z</time></trkpt><trkpt lat="44.033938631020725" lon="12.196827219034557"><ele>82.0</ele><time>2026-03-28T15:16:36Z</time></trkpt><trkpt lat="44.03380485452123" lon="12.196948282284726"><ele>82.0</ele><time>2026-03-28T15:16:37Z</time></trkpt><trkpt lat="44.03366202093999" lon="12.197108417376018"><ele>82.0</ele><time>2026-03-28T15:16:38Z</time></trkpt><trkpt lat="44.03351858360349" lon="12.197282418858082"><ele>82.0</ele><time>2026-03-28T15:16:39Z</time></trkpt><trkpt lat="44.033414350152704" lon="12.197469419149826"><ele>80.0</ele><time>2026-03-28T15:16:40Z</time></trkpt><trkpt lat="44.03333628618605" lon="12.197656170867262"><ele>78.0</ele><time>2026-03-28T15:16:41Z</time></trkpt><trkpt lat="44.03327320139267" lon="12.197838653066716"><ele>76.0</ele><time>2026-03-28T15:16:42Z</time></trkpt><trkpt lat="44.03322875527436" lon="12.19803919349876"><ele>77.75</ele><time>2026-03-28T15:16:43Z</time></trkpt><trkpt lat="44.0332085651852" lon="12.19823836943162"><ele>79.5</ele><time>2026-03-28T15:16:44Z</time></trkpt><trkpt lat="44.03322640798644" lon="12.198440635559892"><ele>81.25</ele><time>2026-03-28T15:16:45Z</time></trkpt><trkpt lat="44.033280606198105" lon="12.198638740581881"><ele>83.0</ele><time>2026-03-28T15:16:46Z</time></trkpt><trkpt lat="44.03337194926484" lon="12.19879828592918"><ele>86.75</ele><time>2026-03-28T15:16:47Z</time></trkpt><trkpt lat="44.03342127198355" lon="12.19898133032842"><ele>90.5</ele><time>2026-03-28T15:16:48Z</time></trkpt><trkpt lat="44.033459358468725" lon="12.199152189918406"><ele>94.25</ele><time>2026-03-28T15:16:49Z</time></trkpt><trkpt lat="44.033446066261384" lon="12.199311339626988"><ele>98.0</ele><time>2026-03-28T15:16:50Z</time></trkpt><trkpt lat="44.03339194261716" lon="12.19944129394581"><ele>98.0</ele><time>2026-03-28T15:16:51Z</time></trkpt><trkpt lat="44.03331530423728" lon="12.199556614626548"><ele>98.0</ele><time>2026-03-28T15:16:52Z</time></trkpt><trkpt lat="44.033251770576435" lon="12.199598771288258"><ele>98.0</ele><time>2026-03-28T15:16:53Z</time></trkpt><trkpt lat="44.03314532642997" lon="12.19965269833222"><ele>98.0</ele><time>2026-03-28T15:16:54Z</time></trkpt><trkpt lat="44.033040776356195" lon="12.19962567667432"><ele>98.0</ele><time>2026-03-28T15:16:55Z</time></trkpt><trkpt lat="44.03288918063956" lon="12.19959028250454"><ele>97.5</ele><time>2026-03-28T15:16:56Z</time></trkpt><trkpt lat="44.03273217877783" lon="12.199576502703842"><ele>97.0</ele><time>2026-03-28T15:16:57Z</time></trkpt><trkpt lat="44.032594295088536" lon="12.199624480917374"><ele>96.5</ele><time>2026-03-28T15:16:58Z</time></trkpt><trkpt lat="44.0324689660427" lon="12.199708806184843"><ele>96.0</ele><time>2026-03-28T15:16:59Z</time></trkpt><trkpt lat="44.03235004982087" lon="12.199848011744718"><ele>96.0</ele><time>2026-03-28T15:17:00Z</time></trkpt><trkpt lat="44.03220612504938" lon="12.199915055783192"><ele>96.0</ele><time>2026-03-28T15:17:01Z</time></trkpt><trkpt lat="44.03204992772261" lon="12.199925832854786"><ele>96.0</ele><time>2026-03-28T15:17:02Z</time></trkpt><trkpt lat="44.0318871779311" lon="12.199917165277043"><ele>96.0</ele><time>2026-03-28T15:17:03Z</time></trkpt><trkpt lat="44.03172199772123" lon="12.199907839563435"><ele>96.0</ele><time>2026-03-28T15:17:04Z</time></trkpt><trkpt lat="44.031577585542166" lon="12.199961238762944"><ele>96.0</ele><time>2026-03-28T15:17:05Z</time></trkpt><trkpt lat="44.031438631071225" lon="12.200027420064185"><ele>92.0</ele><time>2026-03-28T15:17:06Z</time></trkpt><trkpt lat="44.03128597756515" lon="12.200145270248044"><ele>88.0</ele><time>2026-03-28T15:17:07Z</time></trkpt><trkpt lat="44.031128557648906" lon="12.200320905130663"><ele>84.0</ele><time>2026-03-28T15:17:08Z</time></trkpt><trkpt lat="44.03097870562091" lon="12.200533215226804"><ele>86.0</ele><time>2026-03-28T15:17:09Z</time></trkpt><trkpt lat="44.0308288455165" lon="12.200716132194945"><ele>88.0</ele><time>2026-03-28T15:17:10Z</time></trkpt><trkpt lat="44.03066363454272" lon="12.200834108942058"><ele>90.0</ele><time>2026-03-28T15:17:11Z</time></trkpt><trkpt lat="44.03047217313119" lon="12.200929301641365"><ele>90.0</ele><time>2026-03-28T15:17:12Z</time></trkpt><trkpt lat="44.03025319527827" lon="12.201010376893935"><ele>90.0</ele><time>2026-03-28T15:17:13Z</time></trkpt><trkpt lat="44.03003125017483" lon="12.20110641012632"><ele>86.0</ele><time>2026-03-28T15:17:14Z</time></trkpt><trkpt lat="44.02982248722015" lon="12.201237449539194"><ele>82.0</ele><time>2026-03-28T15:17:15Z</time></trkpt><trkpt lat="44.029612498837345" lon="12.201335082011793"><ele>82.0</ele><time>2026-03-28T15:17:16Z</time></trkpt><trkpt lat="44.02942203167394" lon="12.201437516664832"><ele>82.0</ele><time>2026-03-28T15:17:17Z</time></trkpt><trkpt lat="44.02925195236833" lon="12.201514620363188"><ele>82.0</ele><time>2026-03-28T15:17:18Z</time></trkpt><trkpt lat="44.02910259364282" lon="12.201561821926195"><ele>82.75</ele><time>2026-03-28T15:17:19Z</time></trkpt><trkpt lat="44.0289685922154" lon="12.201622538820596"><ele>83.5</ele><time>2026-03-28T15:17:20Z</time></trkpt><trkpt lat="44.028844718679125" lon="12.20167815026429"><ele>84.25</ele><time>2026-03-28T15:17:21Z</time></trkpt><trkpt lat="44.02873743548965" lon="12.201803773133626"><ele>85.0</ele><time>2026-03-28T15:17:22Z</time></trkpt><trkpt lat="44.02864085294442" lon="12.201961022416961"><ele>85.0</ele><time>2026-03-28T15:17:23Z</time></trkpt><trkpt lat="44.02856704424179" lon="12.202136878984335"><ele>85.0</ele><time>2026-03-28T15:17:24Z</time></trkpt><trkpt lat="44.028521136526386" lon="12.202316134468015"><ele>85.0</ele><time>2026-03-28T15:17:25Z</time></trkpt><trkpt lat="44.028504296162914" lon="12.202509880814356"><ele>85.0</ele><time>2026-03-28T15:17:26Z</time></trkpt><trkpt lat="44.02852145630534" lon="12.202700279432422"><ele>86.0</ele><time>2026-03-28T15:17:27Z</time></trkpt><trkpt lat="44.028571302950446" lon="12.202878935623076"><ele>87.0</ele><time>2026-03-28T15:17:28Z</time></trkpt><trkpt lat="44.028668116096874" lon="12.203051864375233"><ele>88.0</ele><time>2026-03-28T15:17:29Z</time></trkpt><trkpt lat="44.02876086539386" lon="12.203181159893683"><ele>89.0</ele><time>2026-03-28T15:17:30Z</time></trkpt><trkpt lat="44.02880273516511" lon="12.203306237399941"><ele>89.6</ele><time>2026-03-28T15:17:31Z</time></trkpt><trkpt lat="44.02883295896488" lon="12.203428855124269"><ele>90.2</ele><time>2026-03-28T15:17:32Z</time></trkpt><trkpt lat="44.02878241849751" lon="12.20355445478268"><ele>90.8</ele><time>2026-03-28T15:17:33Z</time></trkpt><trkpt lat="44.02872437253979" lon="12.203661154982909"><ele>91.39999999999999</ele><time>2026-03-28T15:17:34Z</time></trkpt><trkpt lat="44.02863992680787" lon="12.203744909636168"><ele>92.0</ele><time>2026-03-28T15:17:35Z</time></trkpt><trkpt lat="44.028508883198114" lon="12.203801519631185"><ele>92.0</ele><time>2026-03-28T15:17:36Z</time></trkpt><trkpt lat="44.028348109685766" lon="12.203840964958237"><ele>92.0</ele><time>2026-03-28T15:17:37Z</time></trkpt><trkpt lat="44.02818533932265" lon="12.203904309227696"><ele>92.0</ele><time>2026-03-28T15:17:38Z</time></trkpt><trkpt lat="44.0280347045099" lon="12.203991258880668"><ele>92.0</ele><time>2026-03-28T15:17:39Z</time></trkpt><trkpt lat="44.02788340192028" lon="12.204130555986564"><ele>92.0</ele><time>2026-03-28T15:17:40Z</time></trkpt><trkpt lat="44.02773722335819" lon="12.204315027337676"><ele>92.0</ele><time>2026-03-28T15:17:41Z</time></trkpt><trkpt lat="44.0275898743429" lon="12.20454084696282"><ele>91.33333333333334</ele><time>2026-03-28T15:17:42Z</time></trkpt><trkpt lat="44.027438768805105" lon="12.204734464882902"><ele>90.66666666666667</ele><time>2026-03-28T15:17:43Z</time></trkpt><trkpt lat="44.027305466730255" lon="12.204897698497058"><ele>90.0</ele><time>2026-03-28T15:17:44Z</time></trkpt><trkpt lat="44.027161169228634" lon="12.205015059255226"><ele>90.0</ele><time>2026-03-28T15:17:45Z</time></trkpt><trkpt lat="44.02700808236636" lon="12.205079080982395"><ele>90.0</ele><time>2026-03-28T15:17:46Z</time></trkpt><trkpt lat="44.026858352577996" lon="12.205115765715249"><ele>90.0</ele><time>2026-03-28T15:17:47Z</time></trkpt><trkpt lat="44.02670266662043" lon="12.205130755107923"><ele>90.33333333333333</ele><time>2026-03-28T15:17:48Z</time></trkpt><trkpt lat="44.0265422049123" lon="12.205122225445795"><ele>90.66666666666666</ele><time>2026-03-28T15:17:49Z</time></trkpt><trkpt lat="44.026389565512524" lon="12.205109559282052"><ele>91.0</ele><time>2026-03-28T15:17:50Z</time></trkpt><trkpt lat="44.02624791487153" lon="12.205094759304773"><ele>91.0</ele><time>2026-03-28T15:17:51Z</time></trkpt><trkpt lat="44.02611291864123" lon="12.2050928122477"><ele>91.0</ele><time>2026-03-28T15:17:52Z</time></trkpt><trkpt lat="44.02598402298419" lon="12.20508004308154"><ele>91.0</ele><time>2026-03-28T15:17:53Z</time></trkpt><trkpt lat="44.02586069483423" lon="12.205052152371179"><ele>91.0</ele><time>2026-03-28T15:17:54Z</time></trkpt><trkpt lat="44.02574421677007" lon="12.205051180977833"><ele>91.0</ele><time>2026-03-28T15:17:55Z</time></trkpt><trkpt lat="44.02562977143179" lon="12.205039938527516"><ele>91.0</ele><time>2026-03-28T15:17:56Z</time></trkpt><trkpt lat="44.0255220837778" lon="12.20502479662324"><ele>91.0</ele><time>2026-03-28T15:17:57Z</time></trkpt><trkpt lat="44.02541117112991" lon="12.20501600455167"><ele>91.0</ele><time>2026-03-28T15:17:58Z</time></trkpt><trkpt lat="44.025300876585135" lon="12.20500915184086"><ele>91.0</ele><time>2026-03-28T15:17:59Z</time></trkpt><trkpt lat="44.02519369915801" lon="12.204998159664914"><ele>91.0</ele><time>2026-03-28T15:18:00Z</time></trkpt><trkpt lat="44.025085073245855" lon="12.20498055645734"><ele>91.0</ele><time>2026-03-28T15:18:01Z</time></trkpt><trkpt lat="44.02496779288933" lon="12.204965669449797"><ele>91.0</ele><time>2026-03-28T15:18:02Z</time></trkpt><trkpt lat="44.02485883675024" lon="12.204948974616231"><ele>91.0</ele><time>2026-03-28T15:18:03Z</time></trkpt><trkpt lat="44.02473226580465" lon="12.20493447362776"><ele>91.0</ele><time>2026-03-28T15:18:04Z</time></trkpt><trkpt lat="44.02460378885788" lon="12.20491835086151"><ele>91.0</ele><time>2026-03-28T15:18:05Z</time></trkpt><trkpt lat="44.0244743436373" lon="12.204907889669416"><ele>91.0</ele><time>2026-03-28T15:18:06Z</time></trkpt><trkpt lat="44.02433771291277" lon="12.20489359711115"><ele>91.0</ele><time>2026-03-28T15:18:07Z</time></trkpt><trkpt lat="44.02420235585015" lon="12.20488509646916"><ele>91.25</ele><time>2026-03-28T15:18:08Z</time></trkpt><trkpt lat="44.02406602041322" lon="12.204871923109453"><ele>91.5</ele><time>2026-03-28T15:18:09Z</time></trkpt><trkpt lat="44.023926668557955" lon="12.204852616462526"><ele>91.75</ele><time>2026-03-28T15:18:10Z</time></trkpt><trkpt lat="44.02378890718583" lon="12.204835531006468"><ele>92.0</ele><time>2026-03-28T15:18:11Z</time></trkpt><trkpt lat="44.02364989212688" lon="12.204821037722484"><ele>92.0</ele><time>2026-03-28T15:18:12Z</time></trkpt><trkpt lat="44.02351639660998" lon="12.204806354693874"><ele>92.0</ele><time>2026-03-28T15:18:13Z</time></trkpt><trkpt lat="44.023383212842134" lon="12.204796713377911"><ele>92.0</ele><time>2026-03-28T15:18:14Z</time></trkpt><trkpt lat="44.02325595196189" lon="12.20477748943328"><ele>92.0</ele><time>2026-03-28T15:18:15Z</time></trkpt><trkpt lat="44.02312629091703" lon="12.204767911107774"><ele>91.75</ele><time>2026-03-28T15:18:16Z</time></trkpt><trkpt lat="44.022998918979525" lon="12.204754120194687"><ele>91.5</ele><time>2026-03-28T15:18:17Z</time></trkpt><trkpt lat="44.02288159183072" lon="12.20473335565848"><ele>91.25</ele><time>2026-03-28T15:18:18Z</time></trkpt><trkpt lat="44.02276359138648" lon="12.204717098898632"><ele>91.0</ele><time>2026-03-28T15:18:19Z</time></trkpt><trkpt lat="44.02264163734213" lon="12.204704621009181"><ele>91.0</ele><time>2026-03-28T15:18:20Z</time></trkpt><trkpt lat="44.022511509301694" lon="12.204693186082858"><ele>91.0</ele><time>2026-03-28T15:18:21Z</time></trkpt><trkpt lat="44.02239053267259" lon="12.204681538983964"><ele>91.0</ele><time>2026-03-28T15:18:22Z</time></trkpt><trkpt lat="44.02226254592792" lon="12.204665608262973"><ele>91.0</ele><time>2026-03-28T15:18:23Z</time></trkpt><trkpt lat="44.02213583795127" lon="12.204629855141395"><ele>91.0</ele><time>2026-03-28T15:18:24Z</time></trkpt><trkpt lat="44.02200622816685" lon="12.204614701174043"><ele>91.0</ele><time>2026-03-28T15:18:25Z</time></trkpt><trkpt lat="44.0218807662685" lon="12.204601047969755"><ele>91.0</ele><time>2026-03-28T15:18:26Z</time></trkpt><trkpt lat="44.021757703983084" lon="12.20460910443719"><ele>91.0</ele><time>2026-03-28T15:18:27Z</time></trkpt><trkpt lat="44.021634038553415" lon="12.204596673028426"><ele>91.0</ele><time>2026-03-28T15:18:28Z</time></trkpt><trkpt lat="44.02150887355486" lon="12.204560428453027"><ele>91.0</ele><time>2026-03-28T15:18:29Z</time></trkpt><trkpt lat="44.021382723826285" lon="12.204546228200439"><ele>91.0</ele><time>2026-03-28T15:18:30Z</time></trkpt><trkpt lat="44.021253303389734" lon="12.204531586362304"><ele>91.0</ele><time>2026-03-28T15:18:31Z</time></trkpt><trkpt lat="44.02112481752056" lon="12.204517050576078"><ele>91.0</ele><time>2026-03-28T15:18:32Z</time></trkpt><trkpt lat="44.0209923314263" lon="12.204524986434093"><ele>91.0</ele><time>2026-03-28T15:18:33Z</time></trkpt><trkpt lat="44.02086179550044" lon="12.204508903931231"><ele>91.0</ele><time>2026-03-28T15:18:34Z</time></trkpt><trkpt lat="44.020727472166605" lon="12.204487570577726"><ele>91.0</ele><time>2026-03-28T15:18:35Z</time></trkpt><trkpt lat="44.02059289695134" lon="12.204478270105975"><ele>90.75</ele><time>2026-03-28T15:18:36Z</time></trkpt><trkpt lat="44.02046105603842" lon="12.20447231485018"><ele>90.5</ele><time>2026-03-28T15:18:37Z</time></trkpt><trkpt lat="44.02032131098284" lon="12.204475721050262"><ele>90.25</ele><time>2026-03-28T15:18:38Z</time></trkpt><trkpt lat="44.02018727908937" lon="12.204477135749627"><ele>90.0</ele><time>2026-03-28T15:18:39Z</time></trkpt><trkpt lat="44.02003783346521" lon="12.204465652435495"><ele>89.0</ele><time>2026-03-28T15:18:40Z</time></trkpt><trkpt lat="44.019889538418084" lon="12.204480846512958"><ele>88.0</ele><time>2026-03-28T15:18:41Z</time></trkpt><trkpt lat="44.01974323711604" lon="12.20450034154848"><ele>87.0</ele><time>2026-03-28T15:18:42Z</time></trkpt><trkpt lat="44.019586664210976" lon="12.204527244902026"><ele>87.0</ele><time>2026-03-28T15:18:43Z</time></trkpt><trkpt lat="44.01943194242531" lon="12.204578074630707"><ele>87.0</ele><time>2026-03-28T15:18:44Z</time></trkpt><trkpt lat="44.0192754080619" lon="12.204610332088894"><ele>87.0</ele><time>2026-03-28T15:18:45Z</time></trkpt><trkpt lat="44.019112181056414" lon="12.204641729384932"><ele>87.0</ele><time>2026-03-28T15:18:46Z</time></trkpt><trkpt lat="44.018939396586106" lon="12.20470308487312"><ele>87.0</ele><time>2026-03-28T15:18:47Z</time></trkpt><trkpt lat="44.01874702450144" lon="12.204735819407448"><ele>87.0</ele><time>2026-03-28T15:18:48Z</time></trkpt><trkpt lat="44.01854720776562" lon="12.204745459904322"><ele>87.0</ele><time>2026-03-28T15:18:49Z</time></trkpt><trkpt lat="44.01836360903112" lon="12.204784612716924"><ele>87.0</ele><time>2026-03-28T15:18:50Z</time></trkpt><trkpt lat="44.018198933376446" lon="12.204820349989475"><ele>87.0</ele><time>2026-03-28T15:18:51Z</time></trkpt><trkpt lat="44.018043920584205" lon="12.204853820748719"><ele>86.66666666666667</ele><time>2026-03-28T15:18:52Z</time></trkpt><trkpt lat="44.017897138643" lon="12.204908314152608"><ele>86.33333333333334</ele><time>2026-03-28T15:18:53Z</time></trkpt><trkpt lat="44.01773620527131" lon="12.204921022314043"><ele>86.0</ele><time>2026-03-28T15:18:54Z</time></trkpt><trkpt lat="44.017577807898434" lon="12.204955616358285"><ele>86.0</ele><time>2026-03-28T15:18:55Z</time></trkpt><trkpt lat="44.017418258347625" lon="12.205012003423333"><ele>86.0</ele><time>2026-03-28T15:18:56Z</time></trkpt><trkpt lat="44.01725836798292" lon="12.205037063147728"><ele>86.0</ele><time>2026-03-28T15:18:57Z</time></trkpt><trkpt lat="44.017099339847114" lon="12.205077247831694"><ele>86.0</ele><time>2026-03-28T15:18:58Z</time></trkpt><trkpt lat="44.016938969250006" lon="12.20510919836218"><ele>86.0</ele><time>2026-03-28T15:18:59Z</time></trkpt><trkpt lat="44.01677972565232" lon="12.205141220833923"><ele>86.0</ele><time>2026-03-28T15:19:00Z</time></trkpt><trkpt lat="44.016620880298014" lon="12.20517248831383"><ele>86.0</ele><time>2026-03-28T15:19:01Z</time></trkpt><trkpt lat="44.016460372583566" lon="12.205208757036859"><ele>86.0</ele><time>2026-03-28T15:19:02Z</time></trkpt><trkpt lat="44.01630213714827" lon="12.205251595089566"><ele>86.0</ele><time>2026-03-28T15:19:03Z</time></trkpt><trkpt lat="44.01614410345928" lon="12.205265417623602"><ele>86.0</ele><time>2026-03-28T15:19:04Z</time></trkpt><trkpt lat="44.01598704285269" lon="12.205322362241834"><ele>86.0</ele><time>2026-03-28T15:19:05Z</time></trkpt><trkpt lat="44.015827504144376" lon="12.20535386002837"><ele>86.0</ele><time>2026-03-28T15:19:06Z</time></trkpt><trkpt lat="44.015667189950804" lon="12.205367556856434"><ele>86.0</ele><time>2026-03-28T15:19:07Z</time></trkpt><trkpt lat="44.01551665426649" lon="12.205399097151421"><ele>86.0</ele><time>2026-03-28T15:19:08Z</time></trkpt><trkpt lat="44.015377298913435" lon="12.20542645347117"><ele>86.0</ele><time>2026-03-28T15:19:09Z</time></trkpt><trkpt lat="44.01527456536777" lon="12.205460737860166"><ele>86.0</ele><time>2026-03-28T15:19:10Z</time></trkpt><trkpt lat="44.01517931592349" lon="12.205454891257007"><ele>86.0</ele><time>2026-03-28T15:19:11Z</time></trkpt><trkpt lat="44.01509880452615" lon="12.20542371038611"><ele>86.0</ele><time>2026-03-28T15:19:12Z</time></trkpt><trkpt lat="44.015037222258414" lon="12.205355926328743"><ele>86.0</ele><time>2026-03-28T15:19:13Z</time></trkpt><trkpt lat="44.014995057856694" lon="12.205271512228398"><ele>86.0</ele><time>2026-03-28T15:19:14Z</time></trkpt><trkpt lat="44.014939249439394" lon="12.205193910033088"><ele>86.0</ele><time>2026-03-28T15:19:15Z</time></trkpt><trkpt lat="44.01487109285693" lon="12.20516813396459"><ele>86.0</ele><time>2026-03-28T15:19:16Z</time></trkpt><trkpt lat="44.014804857308555" lon="12.20520028180255"><ele>86.19999999999999</ele><time>2026-03-28T15:19:17Z</time></trkpt><trkpt lat="44.014738227056704" lon="12.20526806559143"><ele>86.39999999999999</ele><time>2026-03-28T15:19:18Z</time></trkpt><trkpt lat="44.01465283701886" lon="12.205376962397976"><ele>86.6</ele><time>2026-03-28T15:19:19Z</time></trkpt><trkpt lat="44.014553149169224" lon="12.20548450371896"><ele>86.8</ele><time>2026-03-28T15:19:20Z</time></trkpt><trkpt lat="44.01445088739621" lon="12.205540587824947"><ele>87.0</ele><time>2026-03-28T15:19:21Z</time></trkpt><trkpt lat="44.014316783896085" lon="12.205510121648196"><ele>87.0</ele><time>2026-03-28T15:19:22Z</time></trkpt><trkpt lat="44.01415936808354" lon="12.205483598392787"><ele>87.0</ele><time>2026-03-28T15:19:23Z</time></trkpt><trkpt lat="44.01398121850031" lon="12.205433606047906"><ele>87.0</ele><time>2026-03-28T15:19:24Z</time></trkpt><trkpt lat="44.01381681097095" lon="12.205396085726708"><ele>87.0</ele><time>2026-03-28T15:19:25Z</time></trkpt><trkpt lat="44.01366678044285" lon="12.205343309306883"><ele>87.0</ele><time>2026-03-28T15:19:26Z</time></trkpt><trkpt lat="44.01352666582901" lon="12.205280633464547"><ele>87.0</ele><time>2026-03-28T15:19:27Z</time></trkpt><trkpt lat="44.01324351582631" lon="12.205152432383404"><ele>87.25</ele><time>2026-03-28T15:19:29Z</time></trkpt><trkpt lat="44.013101502228004" lon="12.205087564538287"><ele>87.5</ele><time>2026-03-28T15:19:30Z</time></trkpt><trkpt lat="44.012959580878515" lon="12.205027369502409"><ele>87.75</ele><time>2026-03-28T15:19:31Z</time></trkpt><trkpt lat="44.01281856374128" lon="12.204964982968095"><ele>88.0</ele><time>2026-03-28T15:19:32Z</time></trkpt><trkpt lat="44.012674454258374" lon="12.204904468710438"><ele>88.0</ele><time>2026-03-28T15:19:33Z</time></trkpt><trkpt lat="44.012532500964056" lon="12.204839323479796"><ele>88.0</ele><time>2026-03-28T15:19:34Z</time></trkpt><trkpt lat="44.012394660871244" lon="12.204768766512984"><ele>88.0</ele><time>2026-03-28T15:19:35Z</time></trkpt><trkpt lat="44.01225461757628" lon="12.20470514897668"><ele>88.0</ele><time>2026-03-28T15:19:36Z</time></trkpt><trkpt lat="44.01211700237935" lon="12.204647304985714"><ele>88.25</ele><time>2026-03-28T15:19:37Z</time></trkpt><trkpt lat="44.011978302612405" lon="12.204589308568865"><ele>88.5</ele><time>2026-03-28T15:19:38Z</time></trkpt><trkpt lat="44.011847156881366" lon="12.204535696328884"><ele>88.75</ele><time>2026-03-28T15:19:39Z</time></trkpt><trkpt lat="44.01172621049276" lon="12.204479884940952"><ele>89.0</ele><time>2026-03-28T15:19:40Z</time></trkpt><trkpt lat="44.01161713353147" lon="12.204424728483549"><ele>89.80000000000001</ele><time>2026-03-28T15:19:41Z</time></trkpt><trkpt lat="44.01151163037719" lon="12.204376582249779"><ele>90.60000000000001</ele><time>2026-03-28T15:19:42Z</time></trkpt><trkpt lat="44.0114165027282" lon="12.20433403812137"><ele>91.4</ele><time>2026-03-28T15:19:43Z</time></trkpt><trkpt lat="44.01132107863603" lon="12.204290719841154"><ele>92.2</ele><time>2026-03-28T15:19:44Z</time></trkpt><trkpt lat="44.01123500232772" lon="12.204233667168337"><ele>93.0</ele><time>2026-03-28T15:19:45Z</time></trkpt><trkpt lat="44.01115990382556" lon="12.204150829886247"><ele>93.0</ele><time>2026-03-28T15:19:46Z</time></trkpt><trkpt lat="44.011098755298" lon="12.204028674512024"><ele>93.0</ele><time>2026-03-28T15:19:47Z</time></trkpt><trkpt lat="44.011066061447075" lon="12.203878935422729"><ele>93.0</ele><time>2026-03-28T15:19:48Z</time></trkpt><trkpt lat="44.01104954099061" lon="12.203712497345682"><ele>93.0</ele><time>2026-03-28T15:19:49Z</time></trkpt><trkpt lat="44.01106121436304" lon="12.203518209552742"><ele>91.66666666666667</ele><time>2026-03-28T15:19:50Z</time></trkpt><trkpt lat="44.01110556698056" lon="12.203296655036537"><ele>90.33333333333334</ele><time>2026-03-28T15:19:51Z</time></trkpt><trkpt lat="44.01116883646092" lon="12.2030755472689"><ele>89.0</ele><time>2026-03-28T15:19:52Z</time></trkpt><trkpt lat="44.01123524082116" lon="12.202861076778092"><ele>88.75</ele><time>2026-03-28T15:19:53Z</time></trkpt><trkpt lat="44.01129076050236" lon="12.202654396846881"><ele>88.5</ele><time>2026-03-28T15:19:54Z</time></trkpt><trkpt lat="44.011342607331095" lon="12.202473658541864"><ele>88.25</ele><time>2026-03-28T15:19:55Z</time></trkpt><trkpt lat="44.01138030614291" lon="12.202315454465582"><ele>88.0</ele><time>2026-03-28T15:19:56Z</time></trkpt><trkpt lat="44.01141680250135" lon="12.202171416832334"><ele>87.5</ele><time>2026-03-28T15:19:57Z</time></trkpt><trkpt lat="44.011451154176974" lon="12.202039819133224"><ele>87.0</ele><time>2026-03-28T15:19:58Z</time></trkpt><trkpt lat="44.01148185587908" lon="12.201918741961432"><ele>86.5</ele><time>2026-03-28T15:19:59Z</time></trkpt><trkpt lat="44.011513075797005" lon="12.201806328726134"><ele>86.0</ele><time>2026-03-28T15:20:00Z</time></trkpt><trkpt lat="44.011539786763635" lon="12.201705097988135"><ele>85.5</ele><time>2026-03-28T15:20:01Z</time></trkpt><trkpt lat="44.01156087772859" lon="12.201612170159724"><ele>85.0</ele><time>2026-03-28T15:20:02Z</time></trkpt><trkpt lat="44.01159007493537" lon="12.201529658236613"><ele>86.4</ele><time>2026-03-28T15:20:03Z</time></trkpt><trkpt lat="44.01161896692159" lon="12.201438206142162"><ele>87.8</ele><time>2026-03-28T15:20:04Z</time></trkpt><trkpt lat="44.01164560860932" lon="12.201284895924983"><ele>89.19999999999999</ele><time>2026-03-28T15:20:06Z</time></trkpt><trkpt lat="44.01164990542533" lon="12.201103113893117"><ele>90.6</ele><time>2026-03-28T15:20:08Z</time></trkpt><trkpt lat="44.011632433953636" lon="12.20097172541581"><ele>92.0</ele><time>2026-03-28T15:20:09Z</time></trkpt><trkpt lat="44.011613586093475" lon="12.200854379479582"><ele>92.0</ele><time>2026-03-28T15:20:10Z</time></trkpt><trkpt lat="44.011571248035246" lon="12.200752233366076"><ele>92.0</ele><time>2026-03-28T15:20:11Z</time></trkpt><trkpt lat="44.01150989847621" lon="12.200654645917822"><ele>92.0</ele><time>2026-03-28T15:20:12Z</time></trkpt><trkpt lat="44.01144314717769" lon="12.200541144996249"><ele>92.0</ele><time>2026-03-28T15:20:13Z</time></trkpt><trkpt lat="44.01130673185188" lon="12.20042632659462"><ele>92.0</ele><time>2026-03-28T15:20:14Z</time></trkpt><trkpt lat="44.011140149531364" lon="12.200330930533902"><ele>92.66666666666667</ele><time>2026-03-28T15:20:15Z</time></trkpt><trkpt lat="44.01097345908923" lon="12.200214927142031"><ele>93.33333333333333</ele><time>2026-03-28T15:20:16Z</time></trkpt><trkpt lat="44.01079259501654" lon="12.200105059158552"><ele>94.0</ele><time>2026-03-28T15:20:17Z</time></trkpt><trkpt lat="44.01063090564011" lon="12.199996418321367"><ele>94.0</ele><time>2026-03-28T15:20:18Z</time></trkpt><trkpt lat="44.010476044000406" lon="12.199867638110028"><ele>94.0</ele><time>2026-03-28T15:20:19Z</time></trkpt><trkpt lat="44.01032724886686" lon="12.199709510117616"><ele>94.0</ele><time>2026-03-28T15:20:20Z</time></trkpt><trkpt lat="44.01019682920887" lon="12.19955548039106"><ele>94.0</ele><time>2026-03-28T15:20:21Z</time></trkpt><trkpt lat="44.01007814723264" lon="12.199405041016776"><ele>94.0</ele><time>2026-03-28T15:20:22Z</time></trkpt><trkpt lat="44.00996115678129" lon="12.19925272134322"><ele>94.0</ele><time>2026-03-28T15:20:23Z</time></trkpt><trkpt lat="44.009834817570855" lon="12.19910103296124"><ele>95.33333333333333</ele><time>2026-03-28T15:20:24Z</time></trkpt><trkpt lat="44.00970441332038" lon="12.198953525703123"><ele>96.66666666666666</ele><time>2026-03-28T15:20:25Z</time></trkpt><trkpt lat="44.009564581869185" lon="12.19883552531063"><ele>98.0</ele><time>2026-03-28T15:20:26Z</time></trkpt><trkpt lat="44.009409331869584" lon="12.19875229659897"><ele>98.0</ele><time>2026-03-28T15:20:27Z</time></trkpt><trkpt lat="44.00924976402207" lon="12.19868944518657"><ele>98.0</ele><time>2026-03-28T15:20:28Z</time></trkpt><trkpt lat="44.00909057380419" lon="12.198632912537748"><ele>98.0</ele><time>2026-03-28T15:20:29Z</time></trkpt><trkpt lat="44.00893037041103" lon="12.198586842788853"><ele>97.66666666666666</ele><time>2026-03-28T15:20:30Z</time></trkpt><trkpt lat="44.008769819278015" lon="12.198552437408884"><ele>97.33333333333334</ele><time>2026-03-28T15:20:31Z</time></trkpt><trkpt lat="44.008603826625645" lon="12.198537005595401"><ele>97.0</ele><time>2026-03-28T15:20:32Z</time></trkpt><trkpt lat="44.008419656905744" lon="12.198543845482035"><ele>96.66666666666667</ele><time>2026-03-28T15:20:33Z</time></trkpt><trkpt lat="44.00822261455048" lon="12.198569980160597"><ele>96.33333333333334</ele><time>2026-03-28T15:20:34Z</time></trkpt><trkpt lat="44.00803494016491" lon="12.198605118030912"><ele>96.0</ele><time>2026-03-28T15:20:35Z</time></trkpt><trkpt lat="44.007841195571736" lon="12.198638042587207"><ele>96.0</ele><time>2026-03-28T15:20:36Z</time></trkpt><trkpt lat="44.007647532445034" lon="12.1986716766396"><ele>96.0</ele><time>2026-03-28T15:20:37Z</time></trkpt><trkpt lat="44.00745252855954" lon="12.198705645935808"><ele>96.0</ele><time>2026-03-28T15:20:38Z</time></trkpt><trkpt lat="44.00726368326132" lon="12.198742090769318"><ele>96.66666666666666</ele><time>2026-03-28T15:20:39Z</time></trkpt><trkpt lat="44.00707691677967" lon="12.198775422698088"><ele>97.33333333333333</ele><time>2026-03-28T15:20:40Z</time></trkpt><trkpt lat="44.006888920181375" lon="12.19881348662913"><ele>98.0</ele><time>2026-03-28T15:20:41Z</time></trkpt><trkpt lat="44.00670535504208" lon="12.198849875832707"><ele>98.66666666666666</ele><time>2026-03-28T15:20:42Z</time></trkpt><trkpt lat="44.006521919119926" lon="12.19887856771368"><ele>99.33333333333334</ele><time>2026-03-28T15:20:43Z</time></trkpt><trkpt lat="44.006342705575804" lon="12.198905645194523"><ele>100.0</ele><time>2026-03-28T15:20:44Z</time></trkpt><trkpt lat="44.006164006118546" lon="12.198930992105252"><ele>100.0</ele><time>2026-03-28T15:20:45Z</time></trkpt><trkpt lat="44.005996162557224" lon="12.198962418014238"><ele>100.0</ele><time>2026-03-28T15:20:46Z</time></trkpt><trkpt lat="44.00582224234676" lon="12.198996191377036"><ele>100.0</ele><time>2026-03-28T15:20:47Z</time></trkpt><trkpt lat="44.00564588244793" lon="12.199031947489894"><ele>99.0</ele><time>2026-03-28T15:20:48Z</time></trkpt><trkpt lat="44.0054749612554" lon="12.199074702744308"><ele>98.0</ele><time>2026-03-28T15:20:49Z</time></trkpt><trkpt lat="44.00529911515743" lon="12.199129503231015"><ele>97.0</ele><time>2026-03-28T15:20:50Z</time></trkpt><trkpt lat="44.005125043715736" lon="12.199185776582338"><ele>97.66666666666667</ele><time>2026-03-28T15:20:51Z</time></trkpt><trkpt lat="44.004947697409335" lon="12.19924222134558"><ele>98.33333333333334</ele><time>2026-03-28T15:20:52Z</time></trkpt><trkpt lat="44.00476414176648" lon="12.199308077121977"><ele>99.0</ele><time>2026-03-28T15:20:53Z</time></trkpt><trkpt lat="44.004580161103526" lon="12.19937760473774"><ele>99.0</ele><time>2026-03-28T15:20:54Z</time></trkpt><trkpt lat="44.00439916308881" lon="12.199447483577872"><ele>99.0</ele><time>2026-03-28T15:20:55Z</time></trkpt><trkpt lat="44.00421970064792" lon="12.199520949827189"><ele>99.0</ele><time>2026-03-28T15:20:56Z</time></trkpt><trkpt lat="44.004039663340876" lon="12.199594817304714"><ele>98.66666666666666</ele><time>2026-03-28T15:20:57Z</time></trkpt><trkpt lat="44.003855189682724" lon="12.199656712265067"><ele>98.33333333333333</ele><time>2026-03-28T15:20:58Z</time></trkpt><trkpt lat="44.003671138652656" lon="12.199721850676465"><ele>98.0</ele><time>2026-03-28T15:20:59Z</time></trkpt><trkpt lat="44.003482740321815" lon="12.199789772300296"><ele>100.0</ele><time>2026-03-28T15:21:00Z</time></trkpt><trkpt lat="44.00329746071415" lon="12.199856679464242"><ele>102.0</ele><time>2026-03-28T15:21:01Z</time></trkpt><trkpt lat="44.00312047755326" lon="12.199934384634357"><ele>104.0</ele><time>2026-03-28T15:21:02Z</time></trkpt><trkpt lat="44.00296312797826" lon="12.200021553660763"><ele>104.0</ele><time>2026-03-28T15:21:03Z</time></trkpt><trkpt lat="44.00283268034249" lon="12.200131342708353"><ele>104.0</ele><time>2026-03-28T15:21:04Z</time></trkpt><trkpt lat="44.00272058615613" lon="12.200263244350715"><ele>104.0</ele><time>2026-03-28T15:21:05Z</time></trkpt><trkpt lat="44.00259479378986" lon="12.200506803891578"><ele>106.5</ele><time>2026-03-28T15:21:06Z</time></trkpt><trkpt lat="44.00249650429387" lon="12.20067473347489"><ele>109.0</ele><time>2026-03-28T15:21:07Z</time></trkpt><trkpt lat="44.00241718949923" lon="12.200841906409336"><ele>111.5</ele><time>2026-03-28T15:21:08Z</time></trkpt><trkpt lat="44.00230139558807" lon="12.2009502159948"><ele>114.0</ele><time>2026-03-28T15:21:09Z</time></trkpt><trkpt lat="44.00216760831148" lon="12.20101711889485"><ele>114.0</ele><time>2026-03-28T15:21:10Z</time></trkpt><trkpt lat="44.00200926865294" lon="12.201071864000077"><ele>114.0</ele><time>2026-03-28T15:21:11Z</time></trkpt><trkpt lat="44.00183883468003" lon="12.201130011167296"><ele>114.0</ele><time>2026-03-28T15:21:12Z</time></trkpt><trkpt lat="44.00168746159508" lon="12.201182557616502"><ele>112.75</ele><time>2026-03-28T15:21:13Z</time></trkpt><trkpt lat="44.001558173470166" lon="12.201224443474931"><ele>111.5</ele><time>2026-03-28T15:21:14Z</time></trkpt><trkpt lat="44.001440204107226" lon="12.201232533822804"><ele>110.25</ele><time>2026-03-28T15:21:15Z</time></trkpt><trkpt lat="44.001334694999805" lon="12.201206541577713"><ele>109.0</ele><time>2026-03-28T15:21:16Z</time></trkpt><trkpt lat="44.00125004269297" lon="12.20111649119505"><ele>109.0</ele><time>2026-03-28T15:21:17Z</time></trkpt><trkpt lat="44.00116145559537" lon="12.201008099171801"><ele>109.0</ele><time>2026-03-28T15:21:18Z</time></trkpt><trkpt lat="44.00104282196488" lon="12.200848746984194"><ele>109.0</ele><time>2026-03-28T15:21:19Z</time></trkpt><trkpt lat="44.00090057242176" lon="12.200663273149193"><ele>106.0</ele><time>2026-03-28T15:21:20Z</time></trkpt><trkpt lat="44.00073798543391" lon="12.200450865425633"><ele>103.0</ele><time>2026-03-28T15:21:21Z</time></trkpt><trkpt lat="44.00055889415622" lon="12.200243360189374"><ele>103.0</ele><time>2026-03-28T15:21:22Z</time></trkpt><trkpt lat="44.000375335387744" lon="12.200002806229875"><ele>103.0</ele><time>2026-03-28T15:21:23Z</time></trkpt><trkpt lat="44.0001708060506" lon="12.199769381094745"><ele>105.0</ele><time>2026-03-28T15:21:24Z</time></trkpt><trkpt lat="43.999945899422535" lon="12.199547303902037"><ele>107.0</ele><time>2026-03-28T15:21:25Z</time></trkpt><trkpt lat="43.99969998904383" lon="12.19933155350081"><ele>107.0</ele><time>2026-03-28T15:21:26Z</time></trkpt><trkpt lat="43.99944555966308" lon="12.199123818071659"><ele>107.0</ele><time>2026-03-28T15:21:27Z</time></trkpt><trkpt lat="43.999193660774026" lon="12.198927980688106"><ele>105.5</ele><time>2026-03-28T15:21:28Z</time></trkpt><trkpt lat="43.99894454099874" lon="12.198718654323201"><ele>104.0</ele><time>2026-03-28T15:21:29Z</time></trkpt><trkpt lat="43.99871648842809" lon="12.198563507792388"><ele>104.0</ele><time>2026-03-28T15:21:30Z</time></trkpt><trkpt lat="43.99851530006028" lon="12.198388475547304"><ele>104.0</ele><time>2026-03-28T15:21:31Z</time></trkpt><trkpt lat="43.99832575380118" lon="12.198234112417774"><ele>103.33333333333333</ele><time>2026-03-28T15:21:32Z</time></trkpt><trkpt lat="43.99813292190412" lon="12.198092025635209"><ele>102.66666666666666</ele><time>2026-03-28T15:21:33Z</time></trkpt><trkpt lat="43.99792405183351" lon="12.19797060983878"><ele>102.0</ele><time>2026-03-28T15:21:34Z</time></trkpt><trkpt lat="43.99769315990151" lon="12.197889829819234"><ele>101.0</ele><time>2026-03-28T15:21:35Z</time></trkpt><trkpt lat="43.99745847846299" lon="12.197838042699072"><ele>100.0</ele><time>2026-03-28T15:21:36Z</time></trkpt><trkpt lat="43.99721952622437" lon="12.197804778144484"><ele>100.0</ele><time>2026-03-28T15:21:37Z</time></trkpt><trkpt lat="43.99700651831758" lon="12.197736130884893"><ele>100.0</ele><time>2026-03-28T15:21:38Z</time></trkpt><trkpt lat="43.99681070369485" lon="12.197693603304678"><ele>100.0</ele><time>2026-03-28T15:21:39Z</time></trkpt><trkpt lat="43.996619701920594" lon="12.197671456443246"><ele>101.0</ele><time>2026-03-28T15:21:40Z</time></trkpt><trkpt lat="43.9964428679594" lon="12.197627129132032"><ele>102.0</ele><time>2026-03-28T15:21:41Z</time></trkpt><trkpt lat="43.99628266159771" lon="12.197586949206276"><ele>103.0</ele><time>2026-03-28T15:21:42Z</time></trkpt><trkpt lat="43.996128089163136" lon="12.19755004294567"><ele>103.0</ele><time>2026-03-28T15:21:43Z</time></trkpt><trkpt lat="43.99598626896472" lon="12.197514611117716"><ele>103.0</ele><time>2026-03-28T15:21:44Z</time></trkpt><trkpt lat="43.99583944379146" lon="12.197474076825447"><ele>103.0</ele><time>2026-03-28T15:21:45Z</time></trkpt><trkpt lat="43.995684403625845" lon="12.197435458972896"><ele>103.66666666666667</ele><time>2026-03-28T15:21:46Z</time></trkpt><trkpt lat="43.99551847906134" lon="12.197386254081364"><ele>104.33333333333334</ele><time>2026-03-28T15:21:47Z</time></trkpt><trkpt lat="43.99534462378353" lon="12.197339344385256"><ele>105.0</ele><time>2026-03-28T15:21:48Z</time></trkpt><trkpt lat="43.99516442316049" lon="12.197297739753958"><ele>106.66666666666666</ele><time>2026-03-28T15:21:49Z</time></trkpt><trkpt lat="43.99499498284579" lon="12.197250784512836"><ele>108.33333333333333</ele><time>2026-03-28T15:21:50Z</time></trkpt><trkpt lat="43.99482390596356" lon="12.197200000509932"><ele>110.0</ele><time>2026-03-28T15:21:51Z</time></trkpt><trkpt lat="43.99465349665409" lon="12.197162929658598"><ele>110.0</ele><time>2026-03-28T15:21:52Z</time></trkpt><trkpt lat="43.994485171787616" lon="12.197099930764878"><ele>110.0</ele><time>2026-03-28T15:21:53Z</time></trkpt><trkpt lat="43.994311160586456" lon="12.19707136286243"><ele>110.0</ele><time>2026-03-28T15:21:54Z</time></trkpt><trkpt lat="43.994134313214126" lon="12.19704619802627"><ele>110.0</ele><time>2026-03-28T15:21:55Z</time></trkpt><trkpt lat="43.99395595924097" lon="12.197044125693914"><ele>110.0</ele><time>2026-03-28T15:21:56Z</time></trkpt><trkpt lat="43.99377388648067" lon="12.197015210797383"><ele>110.0</ele><time>2026-03-28T15:21:57Z</time></trkpt><trkpt lat="43.993594407483165" lon="12.196991413986517"><ele>110.0</ele><time>2026-03-28T15:21:58Z</time></trkpt><trkpt lat="43.99341549623724" lon="12.196959744641001"><ele>110.0</ele><time>2026-03-28T15:21:59Z</time></trkpt><trkpt lat="43.99322569485602" lon="12.196938012313046"><ele>110.0</ele><time>2026-03-28T15:22:00Z</time></trkpt><trkpt lat="43.9930484141077" lon="12.196920297570799"><ele>110.0</ele><time>2026-03-28T15:22:01Z</time></trkpt><trkpt lat="43.99288106838803" lon="12.196897039726755"><ele>110.0</ele><time>2026-03-28T15:22:02Z</time></trkpt><trkpt lat="43.9927307431495" lon="12.196882934911814"><ele>110.0</ele><time>2026-03-28T15:22:03Z</time></trkpt><trkpt lat="43.992575294713234" lon="12.19686509840874"><ele>110.33333333333333</ele><time>2026-03-28T15:22:04Z</time></trkpt><trkpt lat="43.99238542572777" lon="12.196883398241422"><ele>110.66666666666666</ele><time>2026-03-28T15:22:05Z</time></trkpt><trkpt lat="43.992191342522474" lon="12.19693129907073"><ele>111.0</ele><time>2026-03-28T15:22:06Z</time></trkpt><trkpt lat="43.99198978059119" lon="12.197010752396247"><ele>111.0</ele><time>2026-03-28T15:22:07Z</time></trkpt><trkpt lat="43.99180354804269" lon="12.197118411954108"><ele>111.0</ele><time>2026-03-28T15:22:08Z</time></trkpt><trkpt lat="43.991619253908816" lon="12.19726041470538"><ele>111.0</ele><time>2026-03-28T15:22:09Z</time></trkpt><trkpt lat="43.99144323042076" lon="12.197443951960846"><ele>109.5</ele><time>2026-03-28T15:22:10Z</time></trkpt><trkpt lat="43.99126409321623" lon="12.19765099837607"><ele>108.0</ele><time>2026-03-28T15:22:11Z</time></trkpt><trkpt lat="43.991085299531214" lon="12.19784906737435"><ele>108.0</ele><time>2026-03-28T15:22:12Z</time></trkpt><trkpt lat="43.99092867437955" lon="12.198021715815747"><ele>108.0</ele><time>2026-03-28T15:22:13Z</time></trkpt><trkpt lat="43.99077859611274" lon="12.198173460705473"><ele>108.0</ele><time>2026-03-28T15:22:14Z</time></trkpt><trkpt lat="43.99062490774968" lon="12.198308816199164"><ele>108.33333333333334</ele><time>2026-03-28T15:22:15Z</time></trkpt><trkpt lat="43.99045509795855" lon="12.198412641432936"><ele>108.66666666666667</ele><time>2026-03-28T15:22:16Z</time></trkpt><trkpt lat="43.99025980614297" lon="12.198485893277722"><ele>109.0</ele><time>2026-03-28T15:22:17Z</time></trkpt><trkpt lat="43.99005398669318" lon="12.19853435369165"><ele>109.0</ele><time>2026-03-28T15:22:18Z</time></trkpt><trkpt lat="43.989855308156905" lon="12.198558984278607"><ele>109.0</ele><time>2026-03-28T15:22:19Z</time></trkpt><trkpt lat="43.989655882606726" lon="12.198582752120668"><ele>109.0</ele><time>2026-03-28T15:22:20Z</time></trkpt><trkpt lat="43.989454134424385" lon="12.198596720212274"><ele>109.0</ele><time>2026-03-28T15:22:21Z</time></trkpt><trkpt lat="43.98926223250566" lon="12.198602444380418"><ele>109.0</ele><time>2026-03-28T15:22:22Z</time></trkpt><trkpt lat="43.9890722909173" lon="12.198612344852016"><ele>109.0</ele><time>2026-03-28T15:22:23Z</time></trkpt><trkpt lat="43.98889803805632" lon="12.198632547234888"><ele>109.33333333333334</ele><time>2026-03-28T15:22:24Z</time></trkpt><trkpt lat="43.98873289229756" lon="12.198646326211872"><ele>109.66666666666666</ele><time>2026-03-28T15:22:25Z</time></trkpt><trkpt lat="43.988576330277986" lon="12.198650271049083"><ele>110.0</ele><time>2026-03-28T15:22:26Z</time></trkpt><trkpt lat="43.98842373674107" lon="12.198631496830451"><ele>109.66666666666666</ele><time>2026-03-28T15:22:27Z</time></trkpt><trkpt lat="43.98828514843297" lon="12.198587556359657"><ele>109.33333333333334</ele><time>2026-03-28T15:22:28Z</time></trkpt><trkpt lat="43.988147941838854" lon="12.198491355904133"><ele>109.0</ele><time>2026-03-28T15:22:29Z</time></trkpt><trkpt lat="43.98801570680416" lon="12.198370453870105"><ele>109.0</ele><time>2026-03-28T15:22:30Z</time></trkpt><trkpt lat="43.98790374198588" lon="12.198229911378357"><ele>109.0</ele><time>2026-03-28T15:22:31Z</time></trkpt><trkpt lat="43.987812492873395" lon="12.198060099665636"><ele>109.0</ele><time>2026-03-28T15:22:32Z</time></trkpt><trkpt lat="43.98771753955764" lon="12.197853487339898"><ele>111.33333333333334</ele><time>2026-03-28T15:22:33Z</time></trkpt><trkpt lat="43.9876275119843" lon="12.197628313305808"><ele>113.66666666666666</ele><time>2026-03-28T15:22:34Z</time></trkpt><trkpt lat="43.98753156418631" lon="12.197419873795965"><ele>116.0</ele><time>2026-03-28T15:22:35Z</time></trkpt><trkpt lat="43.98743579676332" lon="12.197224003678226"><ele>116.0</ele><time>2026-03-28T15:22:36Z</time></trkpt><trkpt lat="43.98734073608066" lon="12.197022839879022"><ele>116.0</ele><time>2026-03-28T15:22:37Z</time></trkpt><trkpt lat="43.98724934680056" lon="12.196829077132248"><ele>116.0</ele><time>2026-03-28T15:22:38Z</time></trkpt><trkpt lat="43.9871585025967" lon="12.196646116473657"><ele>118.25</ele><time>2026-03-28T15:22:39Z</time></trkpt><trkpt lat="43.987072362766824" lon="12.196489010682534"><ele>120.5</ele><time>2026-03-28T15:22:40Z</time></trkpt><trkpt lat="43.98698629659163" lon="12.196353504452553"><ele>122.75</ele><time>2026-03-28T15:22:41Z</time></trkpt><trkpt lat="43.98687880288338" lon="12.196225100987457"><ele>125.0</ele><time>2026-03-28T15:22:42Z</time></trkpt><trkpt lat="43.986740692656284" lon="12.19612423804566"><ele>123.33333333333333</ele><time>2026-03-28T15:22:43Z</time></trkpt><trkpt lat="43.98658602021581" lon="12.19605611079283"><ele>121.66666666666666</ele><time>2026-03-28T15:22:44Z</time></trkpt><trkpt lat="43.986431563133074" lon="12.196001840942825"><ele>120.0</ele><time>2026-03-28T15:22:45Z</time></trkpt><trkpt lat="43.98628794951176" lon="12.195949062403951"><ele>120.0</ele><time>2026-03-28T15:22:46Z</time></trkpt><trkpt lat="43.98615312291513" lon="12.195905330817801"><ele>120.0</ele><time>2026-03-28T15:22:47Z</time></trkpt><trkpt lat="43.986020738143715" lon="12.195856193433311"><ele>120.0</ele><time>2026-03-28T15:22:48Z</time></trkpt><trkpt lat="43.98588092348837" lon="12.195790921360754"><ele>120.0</ele><time>2026-03-28T15:22:49Z</time></trkpt><trkpt lat="43.98574023051164" lon="12.195731666474"><ele>120.66666666666666</ele><time>2026-03-28T15:22:50Z</time></trkpt><trkpt lat="43.98557262470284" lon="12.195676770737716"><ele>121.33333333333333</ele><time>2026-03-28T15:22:51Z</time></trkpt><trkpt lat="43.98540967615332" lon="12.195643387523914"><ele>122.0</ele><time>2026-03-28T15:22:52Z</time></trkpt><trkpt lat="43.985247380330684" lon="12.195663688002545"><ele>122.33333333333333</ele><time>2026-03-28T15:22:53Z</time></trkpt><trkpt lat="43.98508782601108" lon="12.195719797039013"><ele>122.66666666666666</ele><time>2026-03-28T15:22:54Z</time></trkpt><trkpt lat="43.984939015061464" lon="12.195820082914754"><ele>123.0</ele><time>2026-03-28T15:22:55Z</time></trkpt><trkpt lat="43.9847962851733" lon="12.195949766099403"><ele>123.0</ele><time>2026-03-28T15:22:56Z</time></trkpt><trkpt lat="43.98467346672595" lon="12.196111958204447"><ele>123.0</ele><time>2026-03-28T15:22:57Z</time></trkpt><trkpt lat="43.984554350291624" lon="12.196321714546002"><ele>123.0</ele><time>2026-03-28T15:22:58Z</time></trkpt><trkpt lat="43.984424376814914" lon="12.196547717035491"><ele>125.0</ele><time>2026-03-28T15:22:59Z</time></trkpt><trkpt lat="43.984294292650745" lon="12.196760049371502"><ele>127.0</ele><time>2026-03-28T15:23:00Z</time></trkpt><trkpt lat="43.98417060129526" lon="12.196957281231013"><ele>129.0</ele><time>2026-03-28T15:23:01Z</time></trkpt><trkpt lat="43.984047281539816" lon="12.197143701416529"><ele>129.0</ele><time>2026-03-28T15:23:02Z</time></trkpt><trkpt lat="43.983922524054435" lon="12.197335543650734"><ele>129.0</ele><time>2026-03-28T15:23:03Z</time></trkpt><trkpt lat="43.98379957032286" lon="12.197531693886276"><ele>129.0</ele><time>2026-03-28T15:23:04Z</time></trkpt><trkpt lat="43.98367662607302" lon="12.197713905498267"><ele>126.33333333333334</ele><time>2026-03-28T15:23:05Z</time></trkpt><trkpt lat="43.98355532544441" lon="12.197898185982652"><ele>123.66666666666667</ele><time>2026-03-28T15:23:06Z</time></trkpt><trkpt lat="43.98343532055639" lon="12.198087237919635"><ele>121.0</ele><time>2026-03-28T15:23:07Z</time></trkpt><trkpt lat="43.98331816965655" lon="12.198273103905441"><ele>121.0</ele><time>2026-03-28T15:23:08Z</time></trkpt><trkpt lat="43.98319983110117" lon="12.198454372866795"><ele>121.0</ele><time>2026-03-28T15:23:09Z</time></trkpt><trkpt lat="43.98307115697404" lon="12.198633290747138"><ele>121.0</ele><time>2026-03-28T15:23:10Z</time></trkpt><trkpt lat="43.982946701076564" lon="12.198828560437464"><ele>117.66666666666667</ele><time>2026-03-28T15:23:11Z</time></trkpt><trkpt lat="43.982808072069226" lon="12.199046669655791"><ele>114.33333333333334</ele><time>2026-03-28T15:23:12Z</time></trkpt><trkpt lat="43.98266286365151" lon="12.19927515536722"><ele>111.0</ele><time>2026-03-28T15:23:13Z</time></trkpt><trkpt lat="43.982505309040995" lon="12.199508517749411"><ele>115.5</ele><time>2026-03-28T15:23:14Z</time></trkpt><trkpt lat="43.982330547729354" lon="12.19974964871074"><ele>120.0</ele><time>2026-03-28T15:23:15Z</time></trkpt><trkpt lat="43.9821543717574" lon="12.20000359627348"><ele>120.0</ele><time>2026-03-28T15:23:16Z</time></trkpt><trkpt lat="43.98197487798399" lon="12.20024957041505"><ele>120.0</ele><time>2026-03-28T15:23:17Z</time></trkpt><trkpt lat="43.981817359911005" lon="12.200473299866703"><ele>124.0</ele><time>2026-03-28T15:23:18Z</time></trkpt><trkpt lat="43.98166924026328" lon="12.200680736085314"><ele>128.0</ele><time>2026-03-28T15:23:19Z</time></trkpt><trkpt lat="43.98151457651689" lon="12.200888261600031"><ele>132.0</ele><time>2026-03-28T15:23:20Z</time></trkpt><trkpt lat="43.98136035494648" lon="12.201051464636924"><ele>132.0</ele><time>2026-03-28T15:23:21Z</time></trkpt><trkpt lat="43.98123051776145" lon="12.201217652977318"><ele>132.0</ele><time>2026-03-28T15:23:22Z</time></trkpt><trkpt lat="43.981062249442665" lon="12.201296097955092"><ele>132.0</ele><time>2026-03-28T15:23:23Z</time></trkpt><trkpt lat="43.98087304623488" lon="12.201366416174452"><ele>132.66666666666666</ele><time>2026-03-28T15:23:24Z</time></trkpt><trkpt lat="43.98067029233175" lon="12.20142662719822"><ele>133.33333333333331</ele><time>2026-03-28T15:23:25Z</time></trkpt><trkpt lat="43.9804633372227" lon="12.201480623252325"><ele>134.0</ele><time>2026-03-28T15:23:26Z</time></trkpt><trkpt lat="43.98025764275666" lon="12.201549582044253"><ele>134.0</ele><time>2026-03-28T15:23:27Z</time></trkpt><trkpt lat="43.980052379478586" lon="12.201598783656593"><ele>134.0</ele><time>2026-03-28T15:23:28Z</time></trkpt><trkpt lat="43.97985498480042" lon="12.201657577167929"><ele>134.0</ele><time>2026-03-28T15:23:29Z</time></trkpt><trkpt lat="43.979653685596155" lon="12.201703271418912"><ele>133.33333333333331</ele><time>2026-03-28T15:23:30Z</time></trkpt><trkpt lat="43.97945179552675" lon="12.201717736709217"><ele>132.66666666666666</ele><time>2026-03-28T15:23:31Z</time></trkpt><trkpt lat="43.97924175015152" lon="12.201730418079825"><ele>132.0</ele><time>2026-03-28T15:23:32Z</time></trkpt><trkpt lat="43.97903517608882" lon="12.201723763546653"><ele>133.66666666666666</ele><time>2026-03-28T15:23:33Z</time></trkpt><trkpt lat="43.978833983665645" lon="12.201732026181345"><ele>135.33333333333331</ele><time>2026-03-28T15:23:34Z</time></trkpt><trkpt lat="43.978634177968765" lon="12.201721271802393"><ele>137.0</ele><time>2026-03-28T15:23:35Z</time></trkpt><trkpt lat="43.97844642765688" lon="12.20170944031303"><ele>138.66666666666666</ele><time>2026-03-28T15:23:36Z</time></trkpt><trkpt lat="43.978265355593024" lon="12.201698346170826"><ele>140.33333333333334</ele><time>2026-03-28T15:23:37Z</time></trkpt><trkpt lat="43.978090795304" lon="12.201690223873902"><ele>142.0</ele><time>2026-03-28T15:23:38Z</time></trkpt><trkpt lat="43.97792370855025" lon="12.201675640107108"><ele>142.0</ele><time>2026-03-28T15:23:39Z</time></trkpt><trkpt lat="43.97776768769319" lon="12.201663958077978"><ele>142.0</ele><time>2026-03-28T15:23:40Z</time></trkpt><trkpt lat="43.97760377614525" lon="12.201651586548369"><ele>142.0</ele><time>2026-03-28T15:23:41Z</time></trkpt><trkpt lat="43.97745552502095" lon="12.20164466324892"><ele>141.75</ele><time>2026-03-28T15:23:42Z</time></trkpt><trkpt lat="43.977310471477644" lon="12.201635299082648"><ele>141.5</ele><time>2026-03-28T15:23:43Z</time></trkpt><trkpt lat="43.97716682109166" lon="12.201600896353948"><ele>141.25</ele><time>2026-03-28T15:23:44Z</time></trkpt><trkpt lat="43.977023597578686" lon="12.201589415110185"><ele>141.0</ele><time>2026-03-28T15:23:45Z</time></trkpt><trkpt lat="43.97688043673041" lon="12.201600674143146"><ele>141.0</ele><time>2026-03-28T15:23:46Z</time></trkpt><trkpt lat="43.976741808999506" lon="12.201581876281635"><ele>141.0</ele><time>2026-03-28T15:23:47Z</time></trkpt><trkpt lat="43.9766000477279" lon="12.20157030225939"><ele>141.0</ele><time>2026-03-28T15:23:48Z</time></trkpt><trkpt lat="43.976455655212796" lon="12.201546347690604"><ele>141.0</ele><time>2026-03-28T15:23:49Z</time></trkpt><trkpt lat="43.97631858179958" lon="12.201535268903367"><ele>141.5</ele><time>2026-03-28T15:23:50Z</time></trkpt><trkpt lat="43.9761865710909" lon="12.201515402557368"><ele>142.0</ele><time>2026-03-28T15:23:51Z</time></trkpt><trkpt lat="43.976060621467674" lon="12.201498696434003"><ele>142.5</ele><time>2026-03-28T15:23:52Z</time></trkpt><trkpt lat="43.97594013232753" lon="12.201464715154017"><ele>143.0</ele><time>2026-03-28T15:23:53Z</time></trkpt><trkpt lat="43.97580703707355" lon="12.201424999144484"><ele>144.75</ele><time>2026-03-28T15:23:54Z</time></trkpt><trkpt lat="43.97566951425276" lon="12.201374463300171"><ele>146.5</ele><time>2026-03-28T15:23:55Z</time></trkpt><trkpt lat="43.975535345510174" lon="12.201307860803476"><ele>148.25</ele><time>2026-03-28T15:23:56Z</time></trkpt><trkpt lat="43.97540552727488" lon="12.201218408950032"><ele>150.0</ele><time>2026-03-28T15:23:57Z</time></trkpt><trkpt lat="43.97526816902928" lon="12.20114279762126"><ele>150.0</ele><time>2026-03-28T15:23:58Z</time></trkpt><trkpt lat="43.97515202140064" lon="12.201042072363945"><ele>150.0</ele><time>2026-03-28T15:23:59Z</time></trkpt><trkpt lat="43.97502250926714" lon="12.200956702329686"><ele>150.0</ele><time>2026-03-28T15:24:00Z</time></trkpt><trkpt lat="43.974912698360946" lon="12.20088431855246"><ele>150.0</ele><time>2026-03-28T15:24:01Z</time></trkpt><trkpt lat="43.974815615920406" lon="12.200820324992021"><ele>149.83333333333334</ele><time>2026-03-28T15:24:02Z</time></trkpt><trkpt lat="43.97473169696568" lon="12.20077069830158"><ele>149.66666666666666</ele><time>2026-03-28T15:24:03Z</time></trkpt><trkpt lat="43.97469780027812" lon="12.200671622553147"><ele>149.5</ele><time>2026-03-28T15:24:04Z</time></trkpt><trkpt lat="43.974665542926225" lon="12.200576434135261"><ele>149.33333333333331</ele><time>2026-03-28T15:24:05Z</time></trkpt><trkpt lat="43.974606307182086" lon="12.200508709503136"><ele>149.16666666666666</ele><time>2026-03-28T15:24:06Z</time></trkpt><trkpt lat="43.9745369069804" lon="12.20046064591601"><ele>149.0</ele><time>2026-03-28T15:24:07Z</time></trkpt><trkpt lat="43.97443833068727" lon="12.200511733445616"><ele>149.75</ele><time>2026-03-28T15:24:08Z</time></trkpt><trkpt lat="43.97433811693074" lon="12.20051916059057"><ele>150.5</ele><time>2026-03-28T15:24:09Z</time></trkpt><trkpt lat="43.97425497522176" lon="12.20046479019973"><ele>151.25</ele><time>2026-03-28T15:24:10Z</time></trkpt><trkpt lat="43.974153159763326" lon="12.200401907175902"><ele>152.0</ele><time>2026-03-28T15:24:11Z</time></trkpt><trkpt lat="43.97401276282881" lon="12.200315195294836"><ele>152.0</ele><time>2026-03-28T15:24:12Z</time></trkpt><trkpt lat="43.973847248355355" lon="12.200216586972704"><ele>152.0</ele><time>2026-03-28T15:24:13Z</time></trkpt><trkpt lat="43.97367634134363" lon="12.200120557626864"><ele>152.0</ele><time>2026-03-28T15:24:14Z</time></trkpt><trkpt lat="43.973489730989336" lon="12.200027388200612"><ele>151.66666666666666</ele><time>2026-03-28T15:24:15Z</time></trkpt><trkpt lat="43.973308227707" lon="12.199961554067322"><ele>151.33333333333334</ele><time>2026-03-28T15:24:16Z</time></trkpt><trkpt lat="43.9731002396783" lon="12.199914424648005"><ele>151.0</ele><time>2026-03-28T15:24:17Z</time></trkpt><trkpt lat="43.97290391798594" lon="12.199855721127618"><ele>152.0</ele><time>2026-03-28T15:24:18Z</time></trkpt><trkpt lat="43.97270623630575" lon="12.199803020282584"><ele>153.0</ele><time>2026-03-28T15:24:19Z</time></trkpt><trkpt lat="43.97250817273727" lon="12.199751727585005"><ele>154.0</ele><time>2026-03-28T15:24:20Z</time></trkpt><trkpt lat="43.97231236303778" lon="12.199704700681947"><ele>154.0</ele><time>2026-03-28T15:24:21Z</time></trkpt><trkpt lat="43.9721224344098" lon="12.199661592715879"><ele>154.0</ele><time>2026-03-28T15:24:22Z</time></trkpt><trkpt lat="43.97193805458876" lon="12.199614611228103"><ele>154.0</ele><time>2026-03-28T15:24:23Z</time></trkpt><trkpt lat="43.97175517537303" lon="12.199573088565591"><ele>154.33333333333334</ele><time>2026-03-28T15:24:24Z</time></trkpt><trkpt lat="43.971576073944675" lon="12.199533395865556"><ele>154.66666666666666</ele><time>2026-03-28T15:24:25Z</time></trkpt><trkpt lat="43.97140323588878" lon="12.199467513722624"><ele>155.0</ele><time>2026-03-28T15:24:26Z</time></trkpt><trkpt lat="43.971230242595446" lon="12.199422705243522"><ele>155.0</ele><time>2026-03-28T15:24:27Z</time></trkpt><trkpt lat="43.97105743681746" lon="12.199379189355573"><ele>155.0</ele><time>2026-03-28T15:24:28Z</time></trkpt><trkpt lat="43.970884048423656" lon="12.199357993744892"><ele>155.0</ele><time>2026-03-28T15:24:29Z</time></trkpt><trkpt lat="43.97071808240224" lon="12.19931177221022"><ele>155.33333333333331</ele><time>2026-03-28T15:24:30Z</time></trkpt><trkpt lat="43.9705493647093" lon="12.19927209751597"><ele>155.66666666666666</ele><time>2026-03-28T15:24:31Z</time></trkpt><trkpt lat="43.97037756230589" lon="12.199227043920345"><ele>156.0</ele><time>2026-03-28T15:24:32Z</time></trkpt><trkpt lat="43.97020527443938" lon="12.199163471023462"><ele>156.0</ele><time>2026-03-28T15:24:33Z</time></trkpt><trkpt lat="43.97002996096757" lon="12.199119684086718"><ele>156.0</ele><time>2026-03-28T15:24:34Z</time></trkpt><trkpt lat="43.96986575353694" lon="12.199079743593032"><ele>156.0</ele><time>2026-03-28T15:24:35Z</time></trkpt><trkpt lat="43.969708332081275" lon="12.199033384996595"><ele>157.25</ele><time>2026-03-28T15:24:36Z</time></trkpt><trkpt lat="43.969560340622785" lon="12.19899516224121"><ele>158.5</ele><time>2026-03-28T15:24:37Z</time></trkpt><trkpt lat="43.96942503048453" lon="12.198958139725606"><ele>159.75</ele><time>2026-03-28T15:24:38Z</time></trkpt><trkpt lat="43.969293486963025" lon="12.198902146039897"><ele>161.0</ele><time>2026-03-28T15:24:39Z</time></trkpt><trkpt lat="43.969149752440515" lon="12.198859738947903"><ele>161.0</ele><time>2026-03-28T15:24:40Z</time></trkpt><trkpt lat="43.96899088388357" lon="12.198829242299631"><ele>161.0</ele><time>2026-03-28T15:24:41Z</time></trkpt><trkpt lat="43.96881449476211" lon="12.198776381523487"><ele>161.0</ele><time>2026-03-28T15:24:42Z</time></trkpt><trkpt lat="43.968628149758636" lon="12.19872806471511"><ele>161.0</ele><time>2026-03-28T15:24:43Z</time></trkpt><trkpt lat="43.968447122602065" lon="12.198695596068763"><ele>161.0</ele><time>2026-03-28T15:24:44Z</time></trkpt><trkpt lat="43.96826633905399" lon="12.198698930996713"><ele>161.0</ele><time>2026-03-28T15:24:45Z</time></trkpt><trkpt lat="43.96806445055281" lon="12.19874003908503"><ele>162.33333333333331</ele><time>2026-03-28T15:24:46Z</time></trkpt><trkpt lat="43.96785736159084" lon="12.198809852090113"><ele>163.66666666666666</ele><time>2026-03-28T15:24:47Z</time></trkpt><trkpt lat="43.967667040536504" lon="12.19885409342931"><ele>165.0</ele><time>2026-03-28T15:24:48Z</time></trkpt><trkpt lat="43.967493147541276" lon="12.198904609093342"><ele>165.66666666666666</ele><time>2026-03-28T15:24:49Z</time></trkpt><trkpt lat="43.96732258676801" lon="12.198956514516652"><ele>166.33333333333331</ele><time>2026-03-28T15:24:50Z</time></trkpt><trkpt lat="43.96713846429999" lon="12.198967965623124"><ele>167.0</ele><time>2026-03-28T15:24:51Z</time></trkpt><trkpt lat="43.966970670432275" lon="12.198965420247216"><ele>167.0</ele><time>2026-03-28T15:24:52Z</time></trkpt><trkpt lat="43.96681169756902" lon="12.19895467922527"><ele>167.0</ele><time>2026-03-28T15:24:53Z</time></trkpt><trkpt lat="43.96666020895397" lon="12.19891542171662"><ele>167.0</ele><time>2026-03-28T15:24:54Z</time></trkpt><trkpt lat="43.966521960163824" lon="12.198884021884236"><ele>166.75</ele><time>2026-03-28T15:24:55Z</time></trkpt><trkpt lat="43.96638817786651" lon="12.198847969055333"><ele>166.5</ele><time>2026-03-28T15:24:56Z</time></trkpt><trkpt lat="43.96626364561185" lon="12.198813474393889"><ele>166.25</ele><time>2026-03-28T15:24:57Z</time></trkpt><trkpt lat="43.96616447193366" lon="12.198763245138972"><ele>166.0</ele><time>2026-03-28T15:24:58Z</time></trkpt><trkpt lat="43.96609468408133" lon="12.19865283207724"><ele>166.0</ele><time>2026-03-28T15:24:59Z</time></trkpt><trkpt lat="43.966007457894584" lon="12.198587111102507"><ele>166.0</ele><time>2026-03-28T15:25:00Z</time></trkpt><trkpt lat="43.96590415155698" lon="12.198593553764448"><ele>166.0</ele><time>2026-03-28T15:25:01Z</time></trkpt><trkpt lat="43.96578153190836" lon="12.198606988545139"><ele>166.0</ele><time>2026-03-28T15:25:02Z</time></trkpt><trkpt lat="43.96566297120892" lon="12.198628527540025"><ele>166.0</ele><time>2026-03-28T15:25:03Z</time></trkpt><trkpt lat="43.96554249897255" lon="12.198620126076973"><ele>165.33333333333334</ele><time>2026-03-28T15:25:04Z</time></trkpt><trkpt lat="43.96530306153356" lon="12.198549900721483"><ele>164.66666666666666</ele><time>2026-03-28T15:25:06Z</time></trkpt><trkpt lat="43.9651783681833" lon="12.198511895181644"><ele>164.0</ele><time>2026-03-28T15:25:07Z</time></trkpt><trkpt lat="43.96504545820604" lon="12.198480948204864"><ele>163.75</ele><time>2026-03-28T15:25:08Z</time></trkpt><trkpt lat="43.964895803250705" lon="12.198425316677554"><ele>163.5</ele><time>2026-03-28T15:25:09Z</time></trkpt><trkpt lat="43.96476247139896" lon="12.198390401257607"><ele>163.25</ele><time>2026-03-28T15:25:10Z</time></trkpt><trkpt lat="43.964630340807545" lon="12.198355787385022"><ele>163.0</ele><time>2026-03-28T15:25:11Z</time></trkpt><trkpt lat="43.96447700727591" lon="12.198343423432371"><ele>163.0</ele><time>2026-03-28T15:25:12Z</time></trkpt><trkpt lat="43.964324170021996" lon="12.198297961006437"><ele>163.0</ele><time>2026-03-28T15:25:13Z</time></trkpt><trkpt lat="43.96416888905649" lon="12.198247701026876"><ele>163.0</ele><time>2026-03-28T15:25:14Z</time></trkpt><trkpt lat="43.96400796212795" lon="12.198205940415956"><ele>163.33333333333334</ele><time>2026-03-28T15:25:15Z</time></trkpt><trkpt lat="43.96384718853458" lon="12.198169040000055"><ele>163.66666666666666</ele><time>2026-03-28T15:25:16Z</time></trkpt><trkpt lat="43.96367219641507" lon="12.198113742274375"><ele>164.0</ele><time>2026-03-28T15:25:17Z</time></trkpt><trkpt lat="43.96349093501403" lon="12.198067812634498"><ele>165.33333333333331</ele><time>2026-03-28T15:25:18Z</time></trkpt><trkpt lat="43.96331209333196" lon="12.198018408878188"><ele>166.66666666666666</ele><time>2026-03-28T15:25:19Z</time></trkpt><trkpt lat="43.96313926690882" lon="12.19797310406059"><ele>168.0</ele><time>2026-03-28T15:25:20Z</time></trkpt><trkpt lat="43.962977013723744" lon="12.197932597765806"><ele>168.0</ele><time>2026-03-28T15:25:21Z</time></trkpt><trkpt lat="43.962813968546726" lon="12.19788717738053"><ele>168.0</ele><time>2026-03-28T15:25:22Z</time></trkpt><trkpt lat="43.96266170187056" lon="12.197845946343048"><ele>168.0</ele><time>2026-03-28T15:25:23Z</time></trkpt><trkpt lat="43.96251644072429" lon="12.197806112386418"><ele>167.75</ele><time>2026-03-28T15:25:24Z</time></trkpt><trkpt lat="43.962366170881474" lon="12.197769038658752"><ele>167.5</ele><time>2026-03-28T15:25:25Z</time></trkpt><trkpt lat="43.96222722356209" lon="12.197729824386496"><ele>167.25</ele><time>2026-03-28T15:25:26Z</time></trkpt><trkpt lat="43.96209337100389" lon="12.197687526320115"><ele>167.0</ele><time>2026-03-28T15:25:27Z</time></trkpt><trkpt lat="43.96195678310763" lon="12.197650678950653"><ele>167.0</ele><time>2026-03-28T15:25:28Z</time></trkpt><trkpt lat="43.961814033207865" lon="12.197613983862949"><ele>167.0</ele><time>2026-03-28T15:25:29Z</time></trkpt><trkpt lat="43.96167597412933" lon="12.19757197629183"><ele>167.0</ele><time>2026-03-28T15:25:30Z</time></trkpt><trkpt lat="43.96154562293581" lon="12.197532330804144"><ele>167.0</ele><time>2026-03-28T15:25:31Z</time></trkpt><trkpt lat="43.96141859016493" lon="12.197505934525141"><ele>164.75</ele><time>2026-03-28T15:25:32Z</time></trkpt><trkpt lat="43.961295414562414" lon="12.19746998607746"><ele>162.5</ele><time>2026-03-28T15:25:33Z</time></trkpt><trkpt lat="43.96116366315439" lon="12.197431414106527"><ele>160.25</ele><time>2026-03-28T15:25:34Z</time></trkpt><trkpt lat="43.96103662348472" lon="12.19739565189463"><ele>158.0</ele><time>2026-03-28T15:25:35Z</time></trkpt><trkpt lat="43.960923635424734" lon="12.197365016252613"><ele>159.4</ele><time>2026-03-28T15:25:36Z</time></trkpt><trkpt lat="43.96082120783606" lon="12.197334830636295"><ele>160.8</ele><time>2026-03-28T15:25:37Z</time></trkpt><trkpt lat="43.96072221807334" lon="12.19730475045092"><ele>162.2</ele><time>2026-03-28T15:25:38Z</time></trkpt><trkpt lat="43.96061564176489" lon="12.197270591144942"><ele>163.6</ele><time>2026-03-28T15:25:39Z</time></trkpt><trkpt lat="43.96049890452337" lon="12.197236473404063"><ele>165.0</ele><time>2026-03-28T15:25:40Z</time></trkpt><trkpt lat="43.960377490072716" lon="12.197190393258914"><ele>165.0</ele><time>2026-03-28T15:25:41Z</time></trkpt><trkpt lat="43.96027773694692" lon="12.197118232549995"><ele>165.0</ele><time>2026-03-28T15:25:42Z</time></trkpt><trkpt lat="43.96017960306619" lon="12.19705514618591"><ele>165.0</ele><time>2026-03-28T15:25:43Z</time></trkpt><trkpt lat="43.9600738871338" lon="12.196985904083366"><ele>165.0</ele><time>2026-03-28T15:25:44Z</time></trkpt><trkpt lat="43.95998492175739" lon="12.196927538599912"><ele>165.0</ele><time>2026-03-28T15:25:45Z</time></trkpt><trkpt lat="43.95986721691847" lon="12.196855219903643"><ele>165.0</ele><time>2026-03-28T15:25:46Z</time></trkpt><trkpt lat="43.959803413634155" lon="12.196814972253065"><ele>165.0</ele><time>2026-03-28T15:25:47Z</time></trkpt><trkpt lat="43.959906530160694" lon="12.196762511522678"><ele>165.0</ele><time>2026-03-28T15:25:52Z</time></trkpt><trkpt lat="43.96000281010576" lon="12.196774934741285"><ele>165.0</ele><time>2026-03-28T15:25:53Z</time></trkpt><trkpt lat="43.960115974492105" lon="12.196778294655342"><ele>165.0</ele><time>2026-03-28T15:25:54Z</time></trkpt><trkpt lat="43.9602555067718" lon="12.196802234534347"><ele>165.0</ele><time>2026-03-28T15:25:55Z</time></trkpt><trkpt lat="43.960401422190536" lon="12.19682052059965"><ele>165.0</ele><time>2026-03-28T15:25:56Z</time></trkpt><trkpt lat="43.96057087784211" lon="12.196822683976347"><ele>165.0</ele><time>2026-03-28T15:25:57Z</time></trkpt><trkpt lat="43.960730046526834" lon="12.19679227186036"><ele>167.0</ele><time>2026-03-28T15:25:58Z</time></trkpt><trkpt lat="43.960889958504325" lon="12.19675685441867"><ele>169.0</ele><time>2026-03-28T15:25:59Z</time></trkpt><trkpt lat="43.96105236945467" lon="12.196722902845947"><ele>171.0</ele><time>2026-03-28T15:26:00Z</time></trkpt><trkpt lat="43.96120584671391" lon="12.196692598192913"><ele>171.0</ele><time>2026-03-28T15:26:01Z</time></trkpt><trkpt lat="43.961357154435014" lon="12.19666561589414"><ele>171.0</ele><time>2026-03-28T15:26:02Z</time></trkpt><trkpt lat="43.96150434243693" lon="12.196644100863354"><ele>171.0</ele><time>2026-03-28T15:26:03Z</time></trkpt><trkpt lat="43.961638752641" lon="12.196610224877723"><ele>171.0</ele><time>2026-03-28T15:26:04Z</time></trkpt><trkpt lat="43.96174945185908" lon="12.196589517636653"><ele>172.20000000000002</ele><time>2026-03-28T15:26:05Z</time></trkpt><trkpt lat="43.96183403940235" lon="12.19657220547329"><ele>173.4</ele><time>2026-03-28T15:26:06Z</time></trkpt><trkpt lat="43.96192760501356" lon="12.196549042190764"><ele>174.6</ele><time>2026-03-28T15:26:07Z</time></trkpt><trkpt lat="43.962023316106446" lon="12.196401948366963"><ele>175.8</ele><time>2026-03-28T15:26:09Z</time></trkpt><trkpt lat="43.96206820984058" lon="12.19626886637012"><ele>177.0</ele><time>2026-03-28T15:26:10Z</time></trkpt><trkpt lat="43.96213189354484" lon="12.196114549533684"><ele>177.39999999999998</ele><time>2026-03-28T15:26:11Z</time></trkpt><trkpt lat="43.962184576911056" lon="12.196000343456204"><ele>177.79999999999998</ele><time>2026-03-28T15:26:12Z</time></trkpt><trkpt lat="43.96220914532133" lon="12.195911408900276"><ele>178.2</ele><time>2026-03-28T15:26:13Z</time></trkpt><trkpt lat="43.962156856059956" lon="12.195750707302444"><ele>178.6</ele><time>2026-03-28T15:26:15Z</time></trkpt><trkpt lat="43.96205573941444" lon="12.19571983087244"><ele>179.0</ele><time>2026-03-28T15:26:16Z</time></trkpt><trkpt lat="43.96193924546104" lon="12.195680086911414"><ele>180.0</ele><time>2026-03-28T15:26:17Z</time></trkpt><trkpt lat="43.96180818297095" lon="12.195584490071088"><ele>181.0</ele><time>2026-03-28T15:26:18Z</time></trkpt><trkpt lat="43.961659233720326" lon="12.195525184426817"><ele>182.0</ele><time>2026-03-28T15:26:19Z</time></trkpt><trkpt lat="43.96149754900568" lon="12.195429346740188"><ele>183.33333333333331</ele><time>2026-03-28T15:26:20Z</time></trkpt><trkpt lat="43.961322095687024" lon="12.19532651952408"><ele>184.66666666666666</ele><time>2026-03-28T15:26:21Z</time></trkpt><trkpt lat="43.96114647883395" lon="12.195224072242798"><ele>186.0</ele><time>2026-03-28T15:26:22Z</time></trkpt><trkpt lat="43.96096578757965" lon="12.195086409167008"><ele>185.66666666666666</ele><time>2026-03-28T15:26:23Z</time></trkpt><trkpt lat="43.96078096338246" lon="12.19497598063881"><ele>185.33333333333331</ele><time>2026-03-28T15:26:24Z</time></trkpt><trkpt lat="43.96060192697029" lon="12.194894334479272"><ele>185.0</ele><time>2026-03-28T15:26:25Z</time></trkpt><trkpt lat="43.960434282374464" lon="12.1947938119114"><ele>187.33333333333331</ele><time>2026-03-28T15:26:26Z</time></trkpt><trkpt lat="43.960268046267366" lon="12.194697754927086"><ele>189.66666666666666</ele><time>2026-03-28T15:26:27Z</time></trkpt><trkpt lat="43.96010251363805" lon="12.19460035462492"><ele>192.0</ele><time>2026-03-28T15:26:28Z</time></trkpt><trkpt lat="43.95995031046014" lon="12.194481100989242"><ele>192.0</ele><time>2026-03-28T15:26:29Z</time></trkpt><trkpt lat="43.95979630966736" lon="12.19438529185142"><ele>192.0</ele><time>2026-03-28T15:26:30Z</time></trkpt><trkpt lat="43.959641725991304" lon="12.194291158022507"><ele>192.0</ele><time>2026-03-28T15:26:31Z</time></trkpt><trkpt lat="43.95948547391109" lon="12.194223694924062"><ele>192.0</ele><time>2026-03-28T15:26:32Z</time></trkpt><trkpt lat="43.959324037802844" lon="12.194126732786053"><ele>192.0</ele><time>2026-03-28T15:26:33Z</time></trkpt><trkpt lat="43.959161946122244" lon="12.194032661312708"><ele>192.0</ele><time>2026-03-28T15:26:34Z</time></trkpt><trkpt lat="43.95901073055396" lon="12.193946999757578"><ele>196.0</ele><time>2026-03-28T15:26:35Z</time></trkpt><trkpt lat="43.95886560663209" lon="12.193865786103359"><ele>200.0</ele><time>2026-03-28T15:26:36Z</time></trkpt><trkpt lat="43.95872424971247" lon="12.193784316735453"><ele>204.0</ele><time>2026-03-28T15:26:37Z</time></trkpt><trkpt lat="43.958611057538135" lon="12.193690607256116"><ele>208.0</ele><time>2026-03-28T15:26:38Z</time></trkpt><trkpt lat="43.95851159846475" lon="12.193615715839552"><ele>208.0</ele><time>2026-03-28T15:26:39Z</time></trkpt><trkpt lat="43.95843886032352" lon="12.193530844284725"><ele>208.0</ele><time>2026-03-28T15:26:40Z</time></trkpt><trkpt lat="43.95837625194251" lon="12.193424031616857"><ele>208.0</ele><time>2026-03-28T15:26:41Z</time></trkpt><trkpt lat="43.95834301168525" lon="12.193287821146923"><ele>208.0</ele><time>2026-03-28T15:26:42Z</time></trkpt><trkpt lat="43.9583297812983" lon="12.193134768327644"><ele>208.0</ele><time>2026-03-28T15:26:43Z</time></trkpt><trkpt lat="43.9583416760883" lon="12.192966354340061"><ele>211.0</ele><time>2026-03-28T15:26:44Z</time></trkpt><trkpt lat="43.95839808478451" lon="12.192800093971561"><ele>214.0</ele><time>2026-03-28T15:26:45Z</time></trkpt><trkpt lat="43.958504037503246" lon="12.19266903117168"><ele>217.0</ele><time>2026-03-28T15:26:46Z</time></trkpt><trkpt lat="43.95859845861228" lon="12.192507634111179"><ele>220.0</ele><time>2026-03-28T15:26:47Z</time></trkpt><trkpt lat="43.958684781674485" lon="12.1923800397734"><ele>220.75</ele><time>2026-03-28T15:26:48Z</time></trkpt><trkpt lat="43.958748593148954" lon="12.192231512420552"><ele>221.5</ele><time>2026-03-28T15:26:49Z</time></trkpt><trkpt lat="43.95880442356858" lon="12.192047281264548"><ele>222.25</ele><time>2026-03-28T15:26:50Z</time></trkpt><trkpt lat="43.95883125309135" lon="12.191841644612271"><ele>223.0</ele><time>2026-03-28T15:26:51Z</time></trkpt><trkpt lat="43.95883257874137" lon="12.191613091465548"><ele>223.25</ele><time>2026-03-28T15:26:52Z</time></trkpt><trkpt lat="43.958807984947846" lon="12.191399975255893"><ele>223.5</ele><time>2026-03-28T15:26:53Z</time></trkpt><trkpt lat="43.958774651103305" lon="12.191201378933902"><ele>223.75</ele><time>2026-03-28T15:26:54Z</time></trkpt><trkpt lat="43.95874760593453" lon="12.191037030662391"><ele>224.0</ele><time>2026-03-28T15:26:55Z</time></trkpt><trkpt lat="43.95874541519731" lon="12.190899423068034"><ele>224.00000000000003</ele><time>2026-03-28T15:26:56Z</time></trkpt><trkpt lat="43.958776910318974" lon="12.190799151140974"><ele>224.0</ele><time>2026-03-28T15:26:57Z</time></trkpt><trkpt lat="43.9588410262198" lon="12.190747734010339"><ele>224.0</ele><time>2026-03-28T15:26:58Z</time></trkpt><trkpt lat="43.95892283967156" lon="12.190748405151492"><ele>224.0</ele><time>2026-03-28T15:26:59Z</time></trkpt><trkpt lat="43.959005885078824" lon="12.19079711806409"><ele>224.00000000000003</ele><time>2026-03-28T15:27:00Z</time></trkpt><trkpt lat="43.959063167509775" lon="12.19089205566998"><ele>224.0</ele><time>2026-03-28T15:27:01Z</time></trkpt><trkpt lat="43.95906195189823" lon="12.191031663463539"><ele>224.0</ele><time>2026-03-28T15:27:02Z</time></trkpt><trkpt lat="43.959040089750246" lon="12.19116605800515"><ele>223.99999999999997</ele><time>2026-03-28T15:27:03Z</time></trkpt><trkpt lat="43.95905192544384" lon="12.191322895678377"><ele>223.99999999999997</ele><time>2026-03-28T15:27:04Z</time></trkpt><trkpt lat="43.95905352831894" lon="12.191471379034308"><ele>224.0</ele><time>2026-03-28T15:27:05Z</time></trkpt><trkpt lat="43.959087107601626" lon="12.19160859020977"><ele>224.0</ele><time>2026-03-28T15:27:06Z</time></trkpt><trkpt lat="43.959141148921724" lon="12.19173015376744"><ele>230.5</ele><time>2026-03-28T15:27:07Z</time></trkpt><trkpt lat="43.959210190815014" lon="12.191835481843876"><ele>237.0</ele><time>2026-03-28T15:27:08Z</time></trkpt><trkpt lat="43.95931218238717" lon="12.191948341379574"><ele>243.5</ele><time>2026-03-28T15:27:09Z</time></trkpt><trkpt lat="43.95944856246445" lon="12.192083548522278"><ele>250.0</ele><time>2026-03-28T15:27:10Z</time></trkpt><trkpt lat="43.95959138649591" lon="12.192217298510343"><ele>246.5</ele><time>2026-03-28T15:27:11Z</time></trkpt><trkpt lat="43.95971522012258" lon="12.19234960480721"><ele>243.0</ele><time>2026-03-28T15:27:12Z</time></trkpt><trkpt lat="43.959812539202275" lon="12.192462073674664"><ele>239.5</ele><time>2026-03-28T15:27:13Z</time></trkpt><trkpt lat="43.95990267610351" lon="12.19256077067448"><ele>236.0</ele><time>2026-03-28T15:27:14Z</time></trkpt><trkpt lat="43.96000094743766" lon="12.192649043736246"><ele>239.75</ele><time>2026-03-28T15:27:15Z</time></trkpt><trkpt lat="43.96012575851423" lon="12.1927108836505"><ele>243.5</ele><time>2026-03-28T15:27:16Z</time></trkpt><trkpt lat="43.96027338254707" lon="12.192737054591298"><ele>247.25</ele><time>2026-03-28T15:27:17Z</time></trkpt><trkpt lat="43.96044149116525" lon="12.192739656344948"><ele>251.0</ele><time>2026-03-28T15:27:18Z</time></trkpt><trkpt lat="43.960631241196964" lon="12.19273183619155"><ele>251.0</ele><time>2026-03-28T15:27:19Z</time></trkpt><trkpt lat="43.9608091466203" lon="12.192731790495593"><ele>251.0</ele><time>2026-03-28T15:27:20Z</time></trkpt><trkpt lat="43.96095874228994" lon="12.192731969969671"><ele>251.0</ele><time>2026-03-28T15:27:21Z</time></trkpt><trkpt lat="43.9610901326539" lon="12.192728665757645"><ele>252.33333333333334</ele><time>2026-03-28T15:27:22Z</time></trkpt><trkpt lat="43.96124354095568" lon="12.192699200739748"><ele>253.66666666666669</ele><time>2026-03-28T15:27:23Z</time></trkpt><trkpt lat="43.96141300257133" lon="12.192653543883534"><ele>255.0</ele><time>2026-03-28T15:27:24Z</time></trkpt><trkpt lat="43.961589463752134" lon="12.192584253612933"><ele>251.66666666666669</ele><time>2026-03-28T15:27:25Z</time></trkpt><trkpt lat="43.96176937137305" lon="12.192521488451675"><ele>248.33333333333334</ele><time>2026-03-28T15:27:26Z</time></trkpt><trkpt lat="43.9619310546496" lon="12.192471912931115"><ele>245.0</ele><time>2026-03-28T15:27:27Z</time></trkpt><trkpt lat="43.96208161061134" lon="12.192418357310165"><ele>245.0</ele><time>2026-03-28T15:27:28Z</time></trkpt><trkpt lat="43.96221089351733" lon="12.192371535300786"><ele>245.0</ele><time>2026-03-28T15:27:29Z</time></trkpt><trkpt lat="43.96231911308998" lon="12.192315119537158"><ele>245.0</ele><time>2026-03-28T15:27:30Z</time></trkpt><trkpt lat="43.96239807420172" lon="12.192213895664779"><ele>245.0</ele><time>2026-03-28T15:27:31Z</time></trkpt><trkpt lat="43.96245053435043" lon="12.192072930296826"><ele>251.0</ele><time>2026-03-28T15:27:32Z</time></trkpt><trkpt lat="43.962480899999015" lon="12.191880686192293"><ele>257.0</ele><time>2026-03-28T15:27:33Z</time></trkpt><trkpt lat="43.96253073566344" lon="12.191677242202854"><ele>263.0</ele><time>2026-03-28T15:27:34Z</time></trkpt><trkpt lat="43.96257670165136" lon="12.191489393108203"><ele>269.0</ele><time>2026-03-28T15:27:35Z</time></trkpt><trkpt lat="43.96261345241779" lon="12.191354347007588"><ele>274.6666666666667</ele><time>2026-03-28T15:27:36Z</time></trkpt><trkpt lat="43.962643644862126" lon="12.191244200489963"><ele>280.33333333333337</ele><time>2026-03-28T15:27:37Z</time></trkpt><trkpt lat="43.96270828823837" lon="12.191195126833486"><ele>286.0</ele><time>2026-03-28T15:27:38Z</time></trkpt><trkpt lat="43.96278481057022" lon="12.191184919890029"><ele>291.6666666666667</ele><time>2026-03-28T15:27:39Z</time></trkpt><trkpt lat="43.96285372697156" lon="12.191180397177934"><ele>297.3333333333333</ele><time>2026-03-28T15:27:40Z</time></trkpt><trkpt lat="43.962918185687144" lon="12.191229784948584"><ele>303.0</ele><time>2026-03-28T15:27:41Z</time></trkpt><trkpt lat="43.96297417390581" lon="12.191339765770618"><ele>303.0</ele><time>2026-03-28T15:27:42Z</time></trkpt><trkpt lat="43.96306020281046" lon="12.191441751299699"><ele>303.0</ele><time>2026-03-28T15:27:43Z</time></trkpt><trkpt lat="43.963170735866534" lon="12.191519016537047"><ele>303.0</ele><time>2026-03-28T15:27:44Z</time></trkpt><trkpt lat="43.963299500569185" lon="12.191591458473761"><ele>303.0</ele><time>2026-03-28T15:27:45Z</time></trkpt><trkpt lat="43.9634494525702" lon="12.191638343455907"><ele>297.0</ele><time>2026-03-28T15:27:46Z</time></trkpt><trkpt lat="43.9636127454239" lon="12.19167999941316"><ele>291.0</ele><time>2026-03-28T15:27:47Z</time></trkpt><trkpt lat="43.96378141292775" lon="12.191725220087873"><ele>285.0</ele><time>2026-03-28T15:27:48Z</time></trkpt><trkpt lat="43.96395741281183" lon="12.191764786040443"><ele>285.0</ele><time>2026-03-28T15:27:49Z</time></trkpt><trkpt lat="43.96414017793384" lon="12.191785148512865"><ele>285.0</ele><time>2026-03-28T15:27:50Z</time></trkpt><trkpt lat="43.96431239051863" lon="12.191781601383793"><ele>285.0</ele><time>2026-03-28T15:27:51Z</time></trkpt><trkpt lat="43.96446680534392" lon="12.19177317180058"><ele>284.25</ele><time>2026-03-28T15:27:52Z</time></trkpt><trkpt lat="43.964611104860694" lon="12.19175554759715"><ele>283.5</ele><time>2026-03-28T15:27:53Z</time></trkpt><trkpt lat="43.96473504368692" lon="12.191739701961804"><ele>282.75</ele><time>2026-03-28T15:27:54Z</time></trkpt><trkpt lat="43.964846715642196" lon="12.19171385453914"><ele>282.0</ele><time>2026-03-28T15:27:55Z</time></trkpt><trkpt lat="43.964950861321036" lon="12.191671448803271"><ele>280.0</ele><time>2026-03-28T15:27:56Z</time></trkpt><trkpt lat="43.9650725642535" lon="12.191570968042923"><ele>278.0</ele><time>2026-03-28T15:27:57Z</time></trkpt><trkpt lat="43.9652048337267" lon="12.191427708024428"><ele>276.0</ele><time>2026-03-28T15:27:58Z</time></trkpt><trkpt lat="43.96534141298635" lon="12.191314483460484"><ele>287.0</ele><time>2026-03-28T15:27:59Z</time></trkpt><trkpt lat="43.965501816370754" lon="12.191245673254462"><ele>298.0</ele><time>2026-03-28T15:28:00Z</time></trkpt><trkpt lat="43.965685147645246" lon="12.19120385160541"><ele>309.0</ele><time>2026-03-28T15:28:01Z</time></trkpt><trkpt lat="43.965855310665276" lon="12.191182263990957"><ele>304.25</ele><time>2026-03-28T15:28:02Z</time></trkpt><trkpt lat="43.9660065656028" lon="12.191167182519486"><ele>299.5</ele><time>2026-03-28T15:28:03Z</time></trkpt><trkpt lat="43.96613901698964" lon="12.191131401707882"><ele>294.75</ele><time>2026-03-28T15:28:04Z</time></trkpt><trkpt lat="43.96626422369247" lon="12.191049870829639"><ele>290.0</ele><time>2026-03-28T15:28:05Z</time></trkpt><trkpt lat="43.966398134635526" lon="12.190914328738161"><ele>290.0</ele><time>2026-03-28T15:28:06Z</time></trkpt><trkpt lat="43.96652934281554" lon="12.190789010084135"><ele>290.0</ele><time>2026-03-28T15:28:07Z</time></trkpt><trkpt lat="43.96663964681874" lon="12.19069337390289"><ele>290.0</ele><time>2026-03-28T15:28:08Z</time></trkpt><trkpt lat="43.96672262560363" lon="12.190604021461349"><ele>290.0</ele><time>2026-03-28T15:28:09Z</time></trkpt><trkpt lat="43.96675719626181" lon="12.190509754922806"><ele>292.0</ele><time>2026-03-28T15:28:10Z</time></trkpt><trkpt lat="43.966761163912274" lon="12.190406862533544"><ele>294.0</ele><time>2026-03-28T15:28:11Z</time></trkpt><trkpt lat="43.966711704958605" lon="12.1903077044572"><ele>296.0</ele><time>2026-03-28T15:28:12Z</time></trkpt><trkpt lat="43.966653989386124" lon="12.190241576255591"><ele>298.0</ele><time>2026-03-28T15:28:13Z</time></trkpt><trkpt lat="43.96654932060264" lon="12.190242294333979"><ele>300.0</ele><time>2026-03-28T15:28:14Z</time></trkpt><trkpt lat="43.9664448198293" lon="12.190351705131432"><ele>302.25</ele><time>2026-03-28T15:28:15Z</time></trkpt><trkpt lat="43.96634188751413" lon="12.190480119340593"><ele>304.5</ele><time>2026-03-28T15:28:16Z</time></trkpt><trkpt lat="43.96624311038607" lon="12.190628278669067"><ele>306.75</ele><time>2026-03-28T15:28:17Z</time></trkpt><trkpt lat="43.966139975975466" lon="12.190711064215094"><ele>309.0</ele><time>2026-03-28T15:28:18Z</time></trkpt><trkpt lat="43.96605233099784" lon="12.190766797099819"><ele>309.0</ele><time>2026-03-28T15:28:19Z</time></trkpt><trkpt lat="43.965946711820386" lon="12.190776564366294"><ele>309.0</ele><time>2026-03-28T15:28:20Z</time></trkpt><trkpt lat="43.96581980324305" lon="12.190762340413924"><ele>309.0</ele><time>2026-03-28T15:28:21Z</time></trkpt><trkpt lat="43.96566919763936" lon="12.190747387308887"><ele>309.0</ele><time>2026-03-28T15:28:22Z</time></trkpt><trkpt lat="43.965508202169474" lon="12.1907446652617"><ele>309.0</ele><time>2026-03-28T15:28:23Z</time></trkpt><trkpt lat="43.96534329001243" lon="12.190730872418717"><ele>309.0</ele><time>2026-03-28T15:28:24Z</time></trkpt><trkpt lat="43.96517815176447" lon="12.190717119381405"><ele>309.0</ele><time>2026-03-28T15:28:25Z</time></trkpt><trkpt lat="43.96501112248975" lon="12.190676408716305"><ele>312.0</ele><time>2026-03-28T15:28:26Z</time></trkpt><trkpt lat="43.96485448385385" lon="12.190688797220409"><ele>315.0</ele><time>2026-03-28T15:28:27Z</time></trkpt><trkpt lat="43.96471908671898" lon="12.19069350993663"><ele>318.0</ele><time>2026-03-28T15:28:28Z</time></trkpt><trkpt lat="43.96456111790815" lon="12.190736679233025"><ele>318.0</ele><time>2026-03-28T15:28:29Z</time></trkpt><trkpt lat="43.96441644266125" lon="12.19079930390095"><ele>318.0</ele><time>2026-03-28T15:28:30Z</time></trkpt><trkpt lat="43.964281876588835" lon="12.190817683408204"><ele>318.0</ele><time>2026-03-28T15:28:31Z</time></trkpt><trkpt lat="43.96416737432432" lon="12.19083036133462"><ele>318.0</ele><time>2026-03-28T15:28:32Z</time></trkpt><trkpt lat="43.96405044742465" lon="12.190798165141281"><ele>318.8</ele><time>2026-03-28T15:28:33Z</time></trkpt><trkpt lat="43.96394567861012" lon="12.190779488855993"><ele>319.6</ele><time>2026-03-28T15:28:34Z</time></trkpt><trkpt lat="43.96387214631772" lon="12.190697282757554"><ele>320.40000000000003</ele><time>2026-03-28T15:28:35Z</time></trkpt><trkpt lat="43.963801845956056" lon="12.190630517851499"><ele>321.20000000000005</ele><time>2026-03-28T15:28:36Z</time></trkpt><trkpt lat="43.96377237429602" lon="12.190509453963438"><ele>322.0</ele><time>2026-03-28T15:28:37Z</time></trkpt><trkpt lat="43.963749089479776" lon="12.190375521972644"><ele>326.75</ele><time>2026-03-28T15:28:38Z</time></trkpt><trkpt lat="43.963732061689555" lon="12.190217332778818"><ele>331.5</ele><time>2026-03-28T15:28:39Z</time></trkpt><trkpt lat="43.96370069548601" lon="12.19004971683689"><ele>336.25</ele><time>2026-03-28T15:28:40Z</time></trkpt><trkpt lat="43.96368292660183" lon="12.189859767636158"><ele>341.0</ele><time>2026-03-28T15:28:41Z</time></trkpt><trkpt lat="43.96366513350208" lon="12.189657862819876"><ele>342.75</ele><time>2026-03-28T15:28:42Z</time></trkpt><trkpt lat="43.963645885931875" lon="12.189433047999263"><ele>344.5</ele><time>2026-03-28T15:28:43Z</time></trkpt><trkpt lat="43.963625791678076" lon="12.189228279313518"><ele>346.25</ele><time>2026-03-28T15:28:44Z</time></trkpt><trkpt lat="43.96360421136868" lon="12.189050191123062"><ele>348.0</ele><time>2026-03-28T15:28:45Z</time></trkpt><trkpt lat="43.96357802514258" lon="12.188835676767933"><ele>348.6666666666667</ele><time>2026-03-28T15:28:46Z</time></trkpt><trkpt lat="43.96354706557594" lon="12.188612865907201"><ele>349.33333333333337</ele><time>2026-03-28T15:28:47Z</time></trkpt><trkpt lat="43.96352900673813" lon="12.188358354436026"><ele>350.0</ele><time>2026-03-28T15:28:48Z</time></trkpt><trkpt lat="43.963484986320026" lon="12.188109294793898"><ele>351.0</ele><time>2026-03-28T15:28:49Z</time></trkpt><trkpt lat="43.963474066926786" lon="12.187839429779773"><ele>352.0</ele><time>2026-03-28T15:28:50Z</time></trkpt><trkpt lat="43.96344837010276" lon="12.187588621540044"><ele>353.0</ele><time>2026-03-28T15:28:51Z</time></trkpt><trkpt lat="43.9634276423774" lon="12.187356210770071"><ele>355.0</ele><time>2026-03-28T15:28:52Z</time></trkpt><trkpt lat="43.96342617260748" lon="12.187109029399853"><ele>357.0</ele><time>2026-03-28T15:28:53Z</time></trkpt><trkpt lat="43.963444984853965" lon="12.186863948673059"><ele>359.0</ele><time>2026-03-28T15:28:54Z</time></trkpt><trkpt lat="43.96347862521766" lon="12.186605484215514"><ele>360.33333333333337</ele><time>2026-03-28T15:28:55Z</time></trkpt><trkpt lat="43.96350483614017" lon="12.18632188455013"><ele>361.6666666666667</ele><time>2026-03-28T15:28:56Z</time></trkpt><trkpt lat="43.96354615469873" lon="12.186067393983514"><ele>363.0</ele><time>2026-03-28T15:28:57Z</time></trkpt><trkpt lat="43.963581050837355" lon="12.185848251033217"><ele>364.0</ele><time>2026-03-28T15:28:58Z</time></trkpt><trkpt lat="43.963610087883225" lon="12.185639841429314"><ele>365.0</ele><time>2026-03-28T15:28:59Z</time></trkpt><trkpt lat="43.963633667876515" lon="12.185456634699873"><ele>366.0</ele><time>2026-03-28T15:29:00Z</time></trkpt><trkpt lat="43.96364194583982" lon="12.185279761752387"><ele>367.0</ele><time>2026-03-28T15:29:01Z</time></trkpt><trkpt lat="43.9636243731622" lon="12.185083975472002"><ele>367.0</ele><time>2026-03-28T15:29:02Z</time></trkpt><trkpt lat="43.96358224468289" lon="12.18490706488047"><ele>367.0</ele><time>2026-03-28T15:29:03Z</time></trkpt><trkpt lat="43.96351762773243" lon="12.184754231019085"><ele>367.0</ele><time>2026-03-28T15:29:04Z</time></trkpt><trkpt lat="43.96343058414893" lon="12.184619928776282"><ele>367.0</ele><time>2026-03-28T15:29:05Z</time></trkpt><trkpt lat="43.963327587075284" lon="12.184503567569568"><ele>367.66666666666663</ele><time>2026-03-28T15:29:06Z</time></trkpt><trkpt lat="43.963202568742965" lon="12.184384586864047"><ele>368.3333333333333</ele><time>2026-03-28T15:29:07Z</time></trkpt><trkpt lat="43.963066431836126" lon="12.18425197157301"><ele>369.0</ele><time>2026-03-28T15:29:08Z</time></trkpt><trkpt lat="43.96294643370524" lon="12.1841035199458"><ele>372.0</ele><time>2026-03-28T15:29:09Z</time></trkpt><trkpt lat="43.9628262255082" lon="12.183987011524042"><ele>375.0</ele><time>2026-03-28T15:29:10Z</time></trkpt><trkpt lat="43.96271485900753" lon="12.183865580519486"><ele>378.0</ele><time>2026-03-28T15:29:11Z</time></trkpt><trkpt lat="43.962619777740926" lon="12.183767390957573"><ele>381.0</ele><time>2026-03-28T15:29:12Z</time></trkpt><trkpt lat="43.96255414240486" lon="12.183688757941798"><ele>381.0</ele><time>2026-03-28T15:29:13Z</time></trkpt><trkpt lat="43.962514897306804" lon="12.183597991858289"><ele>381.0</ele><time>2026-03-28T15:29:14Z</time></trkpt><trkpt lat="43.962507518620725" lon="12.183495074008855"><ele>381.0</ele><time>2026-03-28T15:29:15Z</time></trkpt><trkpt lat="43.96253357902464" lon="12.183400789176439"><ele>381.0</ele><time>2026-03-28T15:29:16Z</time></trkpt><trkpt lat="43.96258878806605" lon="12.183328787847344"><ele>381.0</ele><time>2026-03-28T15:29:17Z</time></trkpt><trkpt lat="43.96266896274575" lon="12.183330428474079"><ele>381.0</ele><time>2026-03-28T15:29:18Z</time></trkpt><trkpt lat="43.96274709324783" lon="12.183316206392426"><ele>381.0</ele><time>2026-03-28T15:29:19Z</time></trkpt><trkpt lat="43.96283299303484" lon="12.183335114262167"><ele>381.0</ele><time>2026-03-28T15:29:20Z</time></trkpt><trkpt lat="43.96293214497003" lon="12.183355117145165"><ele>381.0</ele><time>2026-03-28T15:29:21Z</time></trkpt><trkpt lat="43.96303538718562" lon="12.183350150210629"><ele>381.0</ele><time>2026-03-28T15:29:22Z</time></trkpt><trkpt lat="43.96314093689539" lon="12.18334981317342"><ele>381.0</ele><time>2026-03-28T15:29:23Z</time></trkpt><trkpt lat="43.96325106626707" lon="12.18336007888839"><ele>381.0</ele><time>2026-03-28T15:29:24Z</time></trkpt><trkpt lat="43.963362159640894" lon="12.183356518966692"><ele>381.0</ele><time>2026-03-28T15:29:25Z</time></trkpt><trkpt lat="43.96347642214203" lon="12.18335386799448"><ele>381.0</ele><time>2026-03-28T15:29:26Z</time></trkpt><trkpt lat="43.963596613744876" lon="12.18334586784317"><ele>381.0</ele><time>2026-03-28T15:29:27Z</time></trkpt><trkpt lat="43.963748325034985" lon="12.183339901525187"><ele>383.66666666666663</ele><time>2026-03-28T15:29:28Z</time></trkpt><trkpt lat="43.96391247329819" lon="12.183344851751652"><ele>386.3333333333333</ele><time>2026-03-28T15:29:29Z</time></trkpt><trkpt lat="43.964073245002325" lon="12.183349156916327"><ele>389.0</ele><time>2026-03-28T15:29:30Z</time></trkpt><trkpt lat="43.96422074830124" lon="12.183352187007284"><ele>390.0</ele><time>2026-03-28T15:29:31Z</time></trkpt><trkpt lat="43.9643614701875" lon="12.1833526104556"><ele>391.0</ele><time>2026-03-28T15:29:32Z</time></trkpt><trkpt lat="43.964496215653135" lon="12.183357633351463"><ele>392.0</ele><time>2026-03-28T15:29:33Z</time></trkpt><trkpt lat="43.9646303843186" lon="12.183364244398039"><ele>393.0</ele><time>2026-03-28T15:29:34Z</time></trkpt><trkpt lat="43.964765449646336" lon="12.183362324384301"><ele>393.0</ele><time>2026-03-28T15:29:35Z</time></trkpt><trkpt lat="43.964899395819785" lon="12.183359206659166"><ele>393.0</ele><time>2026-03-28T15:29:36Z</time></trkpt><trkpt lat="43.96503596230494" lon="12.183356378097276"><ele>393.0</ele><time>2026-03-28T15:29:37Z</time></trkpt><trkpt lat="43.965171604055" lon="12.183354480127617"><ele>393.0</ele><time>2026-03-28T15:29:38Z</time></trkpt><trkpt lat="43.965304444073304" lon="12.183351882636826"><ele>395.0</ele><time>2026-03-28T15:29:39Z</time></trkpt><trkpt lat="43.96543388939884" lon="12.183345614248925"><ele>397.0</ele><time>2026-03-28T15:29:40Z</time></trkpt><trkpt lat="43.9655622284727" lon="12.183345548781254"><ele>399.0</ele><time>2026-03-28T15:29:41Z</time></trkpt><trkpt lat="43.965694842239515" lon="12.183348856731287"><ele>401.0</ele><time>2026-03-28T15:29:42Z</time></trkpt><trkpt lat="43.965838995203114" lon="12.183378177389802"><ele>403.75</ele><time>2026-03-28T15:29:43Z</time></trkpt><trkpt lat="43.965953252788886" lon="12.183433997911614"><ele>406.5</ele><time>2026-03-28T15:29:44Z</time></trkpt><trkpt lat="43.96606532550524" lon="12.183476416457582"><ele>409.25</ele><time>2026-03-28T15:29:45Z</time></trkpt><trkpt lat="43.9661647798555" lon="12.183539646116781"><ele>412.0</ele><time>2026-03-28T15:29:46Z</time></trkpt><trkpt lat="43.96625275998015" lon="12.183613798075625"><ele>412.0</ele><time>2026-03-28T15:29:47Z</time></trkpt><trkpt lat="43.9663460672979" lon="12.183670774895598"><ele>412.0</ele><time>2026-03-28T15:29:48Z</time></trkpt><trkpt lat="43.96642949180644" lon="12.183757974908284"><ele>412.0</ele><time>2026-03-28T15:29:49Z</time></trkpt><trkpt lat="43.96651847070139" lon="12.183828663277046"><ele>412.0</ele><time>2026-03-28T15:29:50Z</time></trkpt><trkpt lat="43.96661197860229" lon="12.183895924355953"><ele>412.0</ele><time>2026-03-28T15:29:51Z</time></trkpt><trkpt lat="43.96672384463682" lon="12.183980540243695"><ele>412.5</ele><time>2026-03-28T15:29:52Z</time></trkpt><trkpt lat="43.96683818329746" lon="12.184057922198507"><ele>413.0</ele><time>2026-03-28T15:29:53Z</time></trkpt><trkpt lat="43.96695900017656" lon="12.18414035695802"><ele>413.5</ele><time>2026-03-28T15:29:54Z</time></trkpt><trkpt lat="43.96707890908665" lon="12.184213398546678"><ele>414.0</ele><time>2026-03-28T15:29:55Z</time></trkpt><trkpt lat="43.96719451637819" lon="12.184271962929673"><ele>414.0</ele><time>2026-03-28T15:29:56Z</time></trkpt><trkpt lat="43.967321867924746" lon="12.184303747945913"><ele>414.0</ele><time>2026-03-28T15:29:57Z</time></trkpt><trkpt lat="43.967456155748145" lon="12.18429739323969"><ele>414.0</ele><time>2026-03-28T15:29:58Z</time></trkpt><trkpt lat="43.96760623989047" lon="12.184250725214675"><ele>414.0</ele><time>2026-03-28T15:29:59Z</time></trkpt><trkpt lat="43.96775378653502" lon="12.1841848929652"><ele>414.0</ele><time>2026-03-28T15:30:00Z</time></trkpt><trkpt lat="43.96787340468713" lon="12.184119708759685"><ele>414.0</ele><time>2026-03-28T15:30:01Z</time></trkpt><trkpt lat="43.967973269620245" lon="12.184062329499458"><ele>414.0</ele><time>2026-03-28T15:30:02Z</time></trkpt><trkpt lat="43.96805202833981" lon="12.183987861071707"><ele>414.0</ele><time>2026-03-28T15:30:03Z</time></trkpt><trkpt lat="43.968120537845856" lon="12.183861016052944"><ele>414.0</ele><time>2026-03-28T15:30:04Z</time></trkpt><trkpt lat="43.968189842230395" lon="12.18371896984069"><ele>415.5</ele><time>2026-03-28T15:30:05Z</time></trkpt><trkpt lat="43.96827350051202" lon="12.18360571347306"><ele>417.0</ele><time>2026-03-28T15:30:06Z</time></trkpt><trkpt lat="43.96839108353609" lon="12.18353398518539"><ele>418.5</ele><time>2026-03-28T15:30:07Z</time></trkpt><trkpt lat="43.96848177373961" lon="12.183408304642722"><ele>420.0</ele><time>2026-03-28T15:30:08Z</time></trkpt><trkpt lat="43.968590661115826" lon="12.183284029874244"><ele>421.0</ele><time>2026-03-28T15:30:09Z</time></trkpt><trkpt lat="43.96868828310564" lon="12.183154417556478"><ele>422.0</ele><time>2026-03-28T15:30:10Z</time></trkpt><trkpt lat="43.96876404357546" lon="12.183036006962748"><ele>423.0</ele><time>2026-03-28T15:30:11Z</time></trkpt><trkpt lat="43.968825352358245" lon="12.182903727900158"><ele>424.0</ele><time>2026-03-28T15:30:12Z</time></trkpt><trkpt lat="43.96888817500796" lon="12.182711292229104"><ele>424.0</ele><time>2026-03-28T15:30:13Z</time></trkpt><trkpt lat="43.968949102400906" lon="12.1824841235871"><ele>424.0</ele><time>2026-03-28T15:30:14Z</time></trkpt><trkpt lat="43.96904038121173" lon="12.182268113935496"><ele>424.0</ele><time>2026-03-28T15:30:15Z</time></trkpt><trkpt lat="43.969103358204784" lon="12.182069596423961"><ele>426.5</ele><time>2026-03-28T15:30:16Z</time></trkpt><trkpt lat="43.96917370362309" lon="12.18190972893151"><ele>429.0</ele><time>2026-03-28T15:30:17Z</time></trkpt><trkpt lat="43.969221914175506" lon="12.181747785153258"><ele>431.5</ele><time>2026-03-28T15:30:18Z</time></trkpt><trkpt lat="43.969238083643035" lon="12.181567440230785"><ele>434.0</ele><time>2026-03-28T15:30:19Z</time></trkpt><trkpt lat="43.969218523017254" lon="12.181395866363264"><ele>434.25</ele><time>2026-03-28T15:30:20Z</time></trkpt><trkpt lat="43.96915608251614" lon="12.18121396676217"><ele>434.5</ele><time>2026-03-28T15:30:21Z</time></trkpt><trkpt lat="43.969075344172204" lon="12.181027766001653"><ele>434.75</ele><time>2026-03-28T15:30:22Z</time></trkpt><trkpt lat="43.96902887170859" lon="12.180844551600607"><ele>435.0</ele><time>2026-03-28T15:30:23Z</time></trkpt><trkpt lat="43.96901417777453" lon="12.180662308366404"><ele>436.0</ele><time>2026-03-28T15:30:24Z</time></trkpt><trkpt lat="43.9690281243142" lon="12.180463953300292"><ele>437.0</ele><time>2026-03-28T15:30:25Z</time></trkpt><trkpt lat="43.96906819332145" lon="12.180258506250551"><ele>438.0</ele><time>2026-03-28T15:30:26Z</time></trkpt><trkpt lat="43.969128482561494" lon="12.180032234098428"><ele>433.33333333333337</ele><time>2026-03-28T15:30:27Z</time></trkpt><trkpt lat="43.969208036526" lon="12.179813564250091"><ele>428.6666666666667</ele><time>2026-03-28T15:30:28Z</time></trkpt><trkpt lat="43.96929989814282" lon="12.179632970283615"><ele>424.0</ele><time>2026-03-28T15:30:29Z</time></trkpt><trkpt lat="43.96939288859556" lon="12.17944037965572"><ele>424.0</ele><time>2026-03-28T15:30:30Z</time></trkpt><trkpt lat="43.96950150358613" lon="12.179261868414864"><ele>424.0</ele><time>2026-03-28T15:30:31Z</time></trkpt><trkpt lat="43.969622865638854" lon="12.1790767856969"><ele>424.0</ele><time>2026-03-28T15:30:32Z</time></trkpt><trkpt lat="43.96972672696499" lon="12.17888303886653"><ele>426.5</ele><time>2026-03-28T15:30:33Z</time></trkpt><trkpt lat="43.969818633000244" lon="12.178701981317813"><ele>429.0</ele><time>2026-03-28T15:30:34Z</time></trkpt><trkpt lat="43.969896095777905" lon="12.178531619954578"><ele>431.5</ele><time>2026-03-28T15:30:35Z</time></trkpt><trkpt lat="43.96996078062471" lon="12.178374488199978"><ele>434.0</ele><time>2026-03-28T15:30:36Z</time></trkpt><trkpt lat="43.970018091373554" lon="12.178171811489735"><ele>432.66666666666663</ele><time>2026-03-28T15:30:37Z</time></trkpt><trkpt lat="43.97006211450036" lon="12.177948788291436"><ele>431.33333333333337</ele><time>2026-03-28T15:30:38Z</time></trkpt><trkpt lat="43.97011295690395" lon="12.177740929870321"><ele>430.0</ele><time>2026-03-28T15:30:39Z</time></trkpt><trkpt lat="43.97017935420487" lon="12.177543379112759"><ele>430.0</ele><time>2026-03-28T15:30:40Z</time></trkpt><trkpt lat="43.970269297083945" lon="12.177354998771104"><ele>430.0</ele><time>2026-03-28T15:30:41Z</time></trkpt><trkpt lat="43.97036129027451" lon="12.177186125926216"><ele>430.0</ele><time>2026-03-28T15:30:42Z</time></trkpt><trkpt lat="43.97045277899953" lon="12.177023862239002"><ele>435.6666666666667</ele><time>2026-03-28T15:30:43Z</time></trkpt><trkpt lat="43.970540242579425" lon="12.176868401052625"><ele>441.33333333333337</ele><time>2026-03-28T15:30:44Z</time></trkpt><trkpt lat="43.970633243058586" lon="12.176702545879836"><ele>447.0</ele><time>2026-03-28T15:30:45Z</time></trkpt><trkpt lat="43.970729814128816" lon="12.176522667975679"><ele>446.66666666666663</ele><time>2026-03-28T15:30:46Z</time></trkpt><trkpt lat="43.97078550655967" lon="12.176310435814408"><ele>446.3333333333333</ele><time>2026-03-28T15:30:47Z</time></trkpt><trkpt lat="43.97084358806691" lon="12.176101709470494"><ele>446.0</ele><time>2026-03-28T15:30:48Z</time></trkpt><trkpt lat="43.97087893926375" lon="12.175930157632207"><ele>449.6</ele><time>2026-03-28T15:30:49Z</time></trkpt><trkpt lat="43.97089994140286" lon="12.175786738706263"><ele>453.20000000000005</ele><time>2026-03-28T15:30:50Z</time></trkpt><trkpt lat="43.97092002333768" lon="12.175667182055626"><ele>456.79999999999995</ele><time>2026-03-28T15:30:51Z</time></trkpt><trkpt lat="43.97096238354537" lon="12.175553552967864"><ele>460.4</ele><time>2026-03-28T15:30:53Z</time></trkpt><trkpt lat="43.97102659476977" lon="12.175548186584502"><ele>464.0</ele><time>2026-03-28T15:30:55Z</time></trkpt><trkpt lat="43.971065320675514" lon="12.175713413776283"><ele>464.0</ele><time>2026-03-28T15:30:57Z</time></trkpt><trkpt lat="43.971025504539284" lon="12.175824657229946"><ele>464.0</ele><time>2026-03-28T15:30:58Z</time></trkpt><trkpt lat="43.97099911320596" lon="12.175965695047651"><ele>464.0</ele><time>2026-03-28T15:30:59Z</time></trkpt><trkpt lat="43.97099034769772" lon="12.176117369639945"><ele>464.0</ele><time>2026-03-28T15:31:00Z</time></trkpt><trkpt lat="43.970995091665124" lon="12.17623104700348"><ele>464.0</ele><time>2026-03-28T15:31:01Z</time></trkpt><trkpt lat="43.97099804495629" lon="12.176336407870917"><ele>463.99999999999994</ele><time>2026-03-28T15:31:02Z</time></trkpt><trkpt lat="43.971002558404734" lon="12.176438222693347"><ele>464.0</ele><time>2026-03-28T15:31:03Z</time></trkpt><trkpt lat="43.97101773792897" lon="12.176547297171552"><ele>464.0</ele><time>2026-03-28T15:31:04Z</time></trkpt><trkpt lat="43.97105824807943" lon="12.176646380236825"><ele>464.0</ele><time>2026-03-28T15:31:05Z</time></trkpt><trkpt lat="43.97112718836386" lon="12.176701615454627"><ele>463.99999999999994</ele><time>2026-03-28T15:31:06Z</time></trkpt><trkpt lat="43.971217607358106" lon="12.17670714285096"><ele>464.0</ele><time>2026-03-28T15:31:07Z</time></trkpt><trkpt lat="43.971305762929966" lon="12.176668654329125"><ele>464.0</ele><time>2026-03-28T15:31:08Z</time></trkpt><trkpt lat="43.97138308248189" lon="12.176591663249066"><ele>464.0</ele><time>2026-03-28T15:31:09Z</time></trkpt><trkpt lat="43.971449617008524" lon="12.176476679932664"><ele>464.0</ele><time>2026-03-28T15:31:10Z</time></trkpt><trkpt lat="43.9714953730267" lon="12.17631920935642"><ele>464.0</ele><time>2026-03-28T15:31:11Z</time></trkpt><trkpt lat="43.97152200529913" lon="12.176130376692571"><ele>464.0</ele><time>2026-03-28T15:31:12Z</time></trkpt><trkpt lat="43.97153862662312" lon="12.17591557491787"><ele>464.0</ele><time>2026-03-28T15:31:13Z</time></trkpt><trkpt lat="43.97158782872917" lon="12.17575969813998"><ele>464.0</ele><time>2026-03-28T15:31:14Z</time></trkpt><trkpt lat="43.97163356890809" lon="12.175640959318978"><ele>464.0</ele><time>2026-03-28T15:31:15Z</time></trkpt><trkpt lat="43.97169165392724" lon="12.175551008308037"><ele>464.79999999999995</ele><time>2026-03-28T15:31:16Z</time></trkpt><trkpt lat="43.97176218748211" lon="12.175500765151039"><ele>465.59999999999997</ele><time>2026-03-28T15:31:17Z</time></trkpt><trkpt lat="43.97184856536357" lon="12.175497922302887"><ele>466.4</ele><time>2026-03-28T15:31:18Z</time></trkpt><trkpt lat="43.971947615476466" lon="12.175517200154388"><ele>467.2</ele><time>2026-03-28T15:31:19Z</time></trkpt><trkpt lat="43.97205222586115" lon="12.175596777924357"><ele>468.0</ele><time>2026-03-28T15:31:20Z</time></trkpt><trkpt lat="43.97216597729863" lon="12.175688144837165"><ele>468.0</ele><time>2026-03-28T15:31:21Z</time></trkpt><trkpt lat="43.97227034244836" lon="12.175756779705647"><ele>467.99999999999994</ele><time>2026-03-28T15:31:22Z</time></trkpt><trkpt lat="43.9723606982972" lon="12.175844094987449"><ele>467.99999999999994</ele><time>2026-03-28T15:31:23Z</time></trkpt><trkpt lat="43.97244216642109" lon="12.17590490847555"><ele>468.0</ele><time>2026-03-28T15:31:24Z</time></trkpt><trkpt lat="43.97251222197286" lon="12.175944234605067"><ele>468.0</ele><time>2026-03-28T15:31:25Z</time></trkpt><trkpt lat="43.972569200720585" lon="12.175985019964816"><ele>469.59999999999997</ele><time>2026-03-28T15:31:26Z</time></trkpt><trkpt lat="43.97265355245515" lon="12.175966252324285"><ele>471.19999999999993</ele><time>2026-03-28T15:31:28Z</time></trkpt><trkpt lat="43.972637407106895" lon="12.17575600659246"><ele>472.8</ele><time>2026-03-28T15:31:29Z</time></trkpt><trkpt lat="43.97258769376429" lon="12.175670070565527"><ele>474.4</ele><time>2026-03-28T15:31:30Z</time></trkpt><trkpt lat="43.9724956030988" lon="12.175575284747344"><ele>476.0</ele><time>2026-03-28T15:31:31Z</time></trkpt><trkpt lat="43.97237943158799" lon="12.175475291173475"><ele>476.0</ele><time>2026-03-28T15:31:32Z</time></trkpt><trkpt lat="43.97227473221351" lon="12.175365348337346"><ele>476.0</ele><time>2026-03-28T15:31:33Z</time></trkpt><trkpt lat="43.97217342444624" lon="12.17523033211293"><ele>476.0</ele><time>2026-03-28T15:31:34Z</time></trkpt><trkpt lat="43.97206592703982" lon="12.175097686941891"><ele>476.0</ele><time>2026-03-28T15:31:35Z</time></trkpt><trkpt lat="43.971976440682035" lon="12.174987377449122"><ele>476.0</ele><time>2026-03-28T15:31:36Z</time></trkpt><trkpt lat="43.97190638808173" lon="12.174886260119763"><ele>476.0</ele><time>2026-03-28T15:31:37Z</time></trkpt><trkpt lat="43.97188410071245" lon="12.174762766612991"><ele>476.0</ele><time>2026-03-28T15:31:38Z</time></trkpt><trkpt lat="43.971866450323795" lon="12.174616000054707"><ele>476.0</ele><time>2026-03-28T15:31:39Z</time></trkpt><trkpt lat="43.97186294274899" lon="12.1744210564266"><ele>476.0</ele><time>2026-03-28T15:31:40Z</time></trkpt><trkpt lat="43.9718535145834" lon="12.174210336896468"><ele>476.75</ele><time>2026-03-28T15:31:41Z</time></trkpt><trkpt lat="43.97185441085654" lon="12.174031075787914"><ele>477.5</ele><time>2026-03-28T15:31:42Z</time></trkpt><trkpt lat="43.97189206899008" lon="12.173868346035071"><ele>478.25</ele><time>2026-03-28T15:31:43Z</time></trkpt><trkpt lat="43.97194654567051" lon="12.17370638161953"><ele>479.0</ele><time>2026-03-28T15:31:44Z</time></trkpt><trkpt lat="43.971998296329986" lon="12.173493240451089"><ele>479.0</ele><time>2026-03-28T15:31:45Z</time></trkpt><trkpt lat="43.972058592130125" lon="12.173280905706669"><ele>479.0</ele><time>2026-03-28T15:31:46Z</time></trkpt><trkpt lat="43.97209274404413" lon="12.173046157106699"><ele>479.0</ele><time>2026-03-28T15:31:47Z</time></trkpt><trkpt lat="43.97210156269654" lon="12.172785115207947"><ele>480.66666666666663</ele><time>2026-03-28T15:31:48Z</time></trkpt><trkpt lat="43.97213023964498" lon="12.172518019805619"><ele>482.33333333333337</ele><time>2026-03-28T15:31:49Z</time></trkpt><trkpt lat="43.97219782444556" lon="12.172259817150337"><ele>484.0</ele><time>2026-03-28T15:31:50Z</time></trkpt><trkpt lat="43.97226603411041" lon="12.17200612930154"><ele>486.33333333333337</ele><time>2026-03-28T15:31:51Z</time></trkpt><trkpt lat="43.97233655369328" lon="12.171763136569883"><ele>488.66666666666663</ele><time>2026-03-28T15:31:52Z</time></trkpt><trkpt lat="43.972408324800675" lon="12.171528308249025"><ele>491.0</ele><time>2026-03-28T15:31:53Z</time></trkpt><trkpt lat="43.97248474910051" lon="12.171306410172546"><ele>488.66666666666663</ele><time>2026-03-28T15:31:54Z</time></trkpt><trkpt lat="43.97256624807967" lon="12.171089982058655"><ele>486.33333333333337</ele><time>2026-03-28T15:31:55Z</time></trkpt><trkpt lat="43.97264748623362" lon="12.170889314082276"><ele>484.0</ele><time>2026-03-28T15:31:56Z</time></trkpt><trkpt lat="43.97272051588855" lon="12.170712206294017"><ele>487.75</ele><time>2026-03-28T15:31:57Z</time></trkpt><trkpt lat="43.97278178567817" lon="12.170551112983118"><ele>491.5</ele><time>2026-03-28T15:31:58Z</time></trkpt><trkpt lat="43.97282537287998" lon="12.17040798358791"><ele>495.25</ele><time>2026-03-28T15:31:59Z</time></trkpt><trkpt lat="43.972860517436395" lon="12.170266918981582"><ele>499.0</ele><time>2026-03-28T15:32:00Z</time></trkpt><trkpt lat="43.972867211790344" lon="12.170090412958414"><ele>499.0</ele><time>2026-03-28T15:32:01Z</time></trkpt><trkpt lat="43.97288329884639" lon="12.169914523327929"><ele>499.0</ele><time>2026-03-28T15:32:02Z</time></trkpt><trkpt lat="43.97287686231527" lon="12.169729639551523"><ele>499.0</ele><time>2026-03-28T15:32:03Z</time></trkpt><trkpt lat="43.97284777254666" lon="12.169560737576637"><ele>499.0</ele><time>2026-03-28T15:32:04Z</time></trkpt><trkpt lat="43.97282880054017" lon="12.169420149271984"><ele>500.00000000000006</ele><time>2026-03-28T15:32:05Z</time></trkpt><trkpt lat="43.97284641118808" lon="12.169299184481504"><ele>501.0</ele><time>2026-03-28T15:32:06Z</time></trkpt><trkpt lat="43.97286454428365" lon="12.169208311183118"><ele>502.0</ele><time>2026-03-28T15:32:07Z</time></trkpt><trkpt lat="43.972917098537074" lon="12.169145863161003"><ele>503.0</ele><time>2026-03-28T15:32:08Z</time></trkpt><trkpt lat="43.973002385969004" lon="12.169124188214148"><ele>504.00000000000006</ele><time>2026-03-28T15:32:09Z</time></trkpt><trkpt lat="43.97310721254833" lon="12.16911030677152"><ele>505.0</ele><time>2026-03-28T15:32:10Z</time></trkpt><trkpt lat="43.97320455948935" lon="12.169038592764545"><ele>503.8</ele><time>2026-03-28T15:32:11Z</time></trkpt><trkpt lat="43.973279622119705" lon="12.16894670752023"><ele>502.6</ele><time>2026-03-28T15:32:12Z</time></trkpt><trkpt lat="43.97331507657311" lon="12.16881985863214"><ele>501.4</ele><time>2026-03-28T15:32:13Z</time></trkpt><trkpt lat="43.97334027164288" lon="12.168683108604155"><ele>500.2</ele><time>2026-03-28T15:32:14Z</time></trkpt><trkpt lat="43.97339853211652" lon="12.168603566374237"><ele>499.0</ele><time>2026-03-28T15:32:15Z</time></trkpt><trkpt lat="43.97347225289955" lon="12.168573456000015"><ele>499.0</ele><time>2026-03-28T15:32:16Z</time></trkpt><trkpt lat="43.97355372126577" lon="12.168604312953168"><ele>499.0</ele><time>2026-03-28T15:32:17Z</time></trkpt><trkpt lat="43.97367835351942" lon="12.16861906457668"><ele>499.0</ele><time>2026-03-28T15:32:18Z</time></trkpt><trkpt lat="43.97381510239404" lon="12.1685888650063"><ele>499.0</ele><time>2026-03-28T15:32:19Z</time></trkpt><trkpt lat="43.97394735857444" lon="12.168554279998189"><ele>499.0</ele><time>2026-03-28T15:32:20Z</time></trkpt><trkpt lat="43.97406724613495" lon="12.168486975734536"><ele>499.0</ele><time>2026-03-28T15:32:21Z</time></trkpt><trkpt lat="43.97417718110198" lon="12.168398612581639"><ele>499.0</ele><time>2026-03-28T15:32:22Z</time></trkpt><trkpt lat="43.97427887053815" lon="12.168301007957414"><ele>499.0</ele><time>2026-03-28T15:32:23Z</time></trkpt><trkpt lat="43.97437489092748" lon="12.168182650468989"><ele>497.0</ele><time>2026-03-28T15:32:24Z</time></trkpt><trkpt lat="43.97449740067885" lon="12.168049777304736"><ele>495.0</ele><time>2026-03-28T15:32:25Z</time></trkpt><trkpt lat="43.97460895899659" lon="12.167886351797758"><ele>493.0</ele><time>2026-03-28T15:32:26Z</time></trkpt><trkpt lat="43.97468114115952" lon="12.167700861500112"><ele>493.0</ele><time>2026-03-28T15:32:27Z</time></trkpt><trkpt lat="43.97473998935419" lon="12.167517258117792"><ele>493.0</ele><time>2026-03-28T15:32:28Z</time></trkpt><trkpt lat="43.97476865817827" lon="12.167312950237523"><ele>493.0</ele><time>2026-03-28T15:32:29Z</time></trkpt><trkpt lat="43.97476809012339" lon="12.167089930246437"><ele>489.33333333333337</ele><time>2026-03-28T15:32:30Z</time></trkpt><trkpt lat="43.974783234295316" lon="12.166857810501536"><ele>485.66666666666663</ele><time>2026-03-28T15:32:31Z</time></trkpt><trkpt lat="43.974804091935084" lon="12.166623184082187"><ele>482.0</ele><time>2026-03-28T15:32:32Z</time></trkpt><trkpt lat="43.97484022997774" lon="12.166380310091622"><ele>482.0</ele><time>2026-03-28T15:32:33Z</time></trkpt><trkpt lat="43.97488512934654" lon="12.166136680233066"><ele>482.0</ele><time>2026-03-28T15:32:34Z</time></trkpt><trkpt lat="43.974935374400935" lon="12.165887947420575"><ele>482.0</ele><time>2026-03-28T15:32:35Z</time></trkpt><trkpt lat="43.97499341832099" lon="12.165612027460295"><ele>477.0</ele><time>2026-03-28T15:32:36Z</time></trkpt><trkpt lat="43.97505875862288" lon="12.165363315229706"><ele>472.0</ele><time>2026-03-28T15:32:37Z</time></trkpt><trkpt lat="43.975137038895504" lon="12.165121162023611"><ele>467.0</ele><time>2026-03-28T15:32:38Z</time></trkpt><trkpt lat="43.97522721749179" lon="12.16486562062371"><ele>472.3333333333333</ele><time>2026-03-28T15:32:39Z</time></trkpt><trkpt lat="43.97532067921588" lon="12.164626049490407"><ele>477.66666666666663</ele><time>2026-03-28T15:32:40Z</time></trkpt><trkpt lat="43.975409254007936" lon="12.164411158279288"><ele>483.0</ele><time>2026-03-28T15:32:41Z</time></trkpt><trkpt lat="43.97549529269365" lon="12.164211142101244"><ele>483.0</ele><time>2026-03-28T15:32:42Z</time></trkpt><trkpt lat="43.97557760644971" lon="12.164031633254245"><ele>483.0</ele><time>2026-03-28T15:32:43Z</time></trkpt><trkpt lat="43.975649651742195" lon="12.163864857060233"><ele>483.0</ele><time>2026-03-28T15:32:44Z</time></trkpt><trkpt lat="43.97575556123623" lon="12.163726445348512"><ele>483.0</ele><time>2026-03-28T15:32:45Z</time></trkpt><trkpt lat="43.975901573274164" lon="12.163630049347676"><ele>481.0</ele><time>2026-03-28T15:32:46Z</time></trkpt><trkpt lat="43.97603551571544" lon="12.163536295022148"><ele>479.0</ele><time>2026-03-28T15:32:47Z</time></trkpt><trkpt lat="43.97614300031275" lon="12.163451607276434"><ele>477.0</ele><time>2026-03-28T15:32:48Z</time></trkpt><trkpt lat="43.97622427338225" lon="12.163341186247967"><ele>475.0</ele><time>2026-03-28T15:32:49Z</time></trkpt><trkpt lat="43.97626544041345" lon="12.163204252782648"><ele>476.8</ele><time>2026-03-28T15:32:50Z</time></trkpt><trkpt lat="43.97625693173048" lon="12.163055834934406"><ele>478.6</ele><time>2026-03-28T15:32:51Z</time></trkpt><trkpt lat="43.97623121147117" lon="12.162905570409066"><ele>480.4</ele><time>2026-03-28T15:32:52Z</time></trkpt><trkpt lat="43.976167528700195" lon="12.162802376387376"><ele>482.2</ele><time>2026-03-28T15:32:53Z</time></trkpt><trkpt lat="43.97609276909596" lon="12.162728457291616"><ele>484.0</ele><time>2026-03-28T15:32:54Z</time></trkpt><trkpt lat="43.97600604800906" lon="12.162714719771248"><ele>484.00000000000006</ele><time>2026-03-28T15:32:55Z</time></trkpt><trkpt lat="43.97593397788424" lon="12.162727866284431"><ele>484.0</ele><time>2026-03-28T15:32:56Z</time></trkpt><trkpt lat="43.975872194706476" lon="12.162687126848398"><ele>484.0</ele><time>2026-03-28T15:32:58Z</time></trkpt><trkpt lat="43.975870706107656" lon="12.162598610076751"><ele>484.0</ele><time>2026-03-28T15:33:02Z</time></trkpt><trkpt lat="43.97575117609345" lon="12.162556722459659"><ele>484.00000000000006</ele><time>2026-03-28T15:33:04Z</time></trkpt><trkpt lat="43.97567544486599" lon="12.162541763283565"><ele>484.0</ele><time>2026-03-28T15:33:05Z</time></trkpt><trkpt lat="43.975607807060456" lon="12.162510870654417"><ele>484.33333333333337</ele><time>2026-03-28T15:33:06Z</time></trkpt><trkpt lat="43.97553554644346" lon="12.162477744780478"><ele>484.6666666666667</ele><time>2026-03-28T15:33:07Z</time></trkpt><trkpt lat="43.97545725115985" lon="12.16246984074608"><ele>485.0</ele><time>2026-03-28T15:33:08Z</time></trkpt><trkpt lat="43.97537770988128" lon="12.16247057489983"><ele>485.33333333333337</ele><time>2026-03-28T15:33:09Z</time></trkpt><trkpt lat="43.975291276894616" lon="12.162482393586012"><ele>485.6666666666667</ele><time>2026-03-28T15:33:10Z</time></trkpt><trkpt lat="43.97518891833009" lon="12.162493627480346"><ele>486.0</ele><time>2026-03-28T15:33:11Z</time></trkpt><trkpt lat="43.97508190494873" lon="12.162461035608219"><ele>487.8</ele><time>2026-03-28T15:33:12Z</time></trkpt><trkpt lat="43.97496813048254" lon="12.162426545526282"><ele>489.6</ele><time>2026-03-28T15:33:13Z</time></trkpt><trkpt lat="43.97485969408287" lon="12.162390021930962"><ele>491.4</ele><time>2026-03-28T15:33:14Z</time></trkpt><trkpt lat="43.9747721219793" lon="12.162354851931632"><ele>493.2</ele><time>2026-03-28T15:33:15Z</time></trkpt><trkpt lat="43.974667735585356" lon="12.162284495892411"><ele>495.0</ele><time>2026-03-28T15:33:17Z</time></trkpt><trkpt lat="43.974605066910954" lon="12.162222711476346"><ele>475.0</ele><time>2026-03-28T15:33:19Z</time></trkpt><trkpt lat="43.97455843771071" lon="12.162132476993444"><ele>475.0</ele><time>2026-03-28T15:33:38Z</time></trkpt><trkpt lat="43.97451317950028" lon="12.162071532924864"><ele>475.0</ele><time>2026-03-28T15:33:42Z</time></trkpt></trkseg><trkseg><trkpt lat="43.97680585277704" lon="12.160087359385171"><ele>449.0</ele><time>2026-03-28T15:47:01Z</time></trkpt><trkpt lat="43.976829461844346" lon="12.159959065030657"><ele>449.0</ele><time>2026-03-28T15:47:02Z</time></trkpt><trkpt lat="43.976855066848316" lon="12.159832174844915"><ele>449.0</ele><time>2026-03-28T15:47:03Z</time></trkpt><trkpt lat="43.97691488176074" lon="12.159576784448513"><ele>449.0</ele><time>2026-03-28T15:47:05Z</time></trkpt><trkpt lat="43.976962823449966" lon="12.159413319406951"><ele>447.66666666666663</ele><time>2026-03-28T15:47:06Z</time></trkpt><trkpt lat="43.977024008120736" lon="12.159226680395083"><ele>446.33333333333337</ele><time>2026-03-28T15:47:07Z</time></trkpt><trkpt lat="43.97709201861271" lon="12.159022561957048"><ele>445.0</ele><time>2026-03-28T15:47:08Z</time></trkpt><trkpt lat="43.977158172213535" lon="12.15881696954121"><ele>448.6666666666667</ele><time>2026-03-28T15:47:09Z</time></trkpt><trkpt lat="43.97722129697017" lon="12.15862011355589"><ele>452.33333333333337</ele><time>2026-03-28T15:47:10Z</time></trkpt><trkpt lat="43.977280541111945" lon="12.158393813407868"><ele>456.0</ele><time>2026-03-28T15:47:11Z</time></trkpt><trkpt lat="43.97737335832652" lon="12.158181590418112"><ele>459.0</ele><time>2026-03-28T15:47:12Z</time></trkpt><trkpt lat="43.97746313178015" lon="12.157948328573783"><ele>462.0</ele><time>2026-03-28T15:47:13Z</time></trkpt><trkpt lat="43.977547785317604" lon="12.15771927835256"><ele>465.0</ele><time>2026-03-28T15:47:14Z</time></trkpt><trkpt lat="43.97762825422399" lon="12.157506594545117"><ele>462.66666666666663</ele><time>2026-03-28T15:47:15Z</time></trkpt><trkpt lat="43.977706010495794" lon="12.157322464972427"><ele>460.3333333333333</ele><time>2026-03-28T15:47:16Z</time></trkpt><trkpt lat="43.97779416531114" lon="12.157167442054309"><ele>458.0</ele><time>2026-03-28T15:47:17Z</time></trkpt><trkpt lat="43.977899995647974" lon="12.157006601347689"><ele>458.0</ele><time>2026-03-28T15:47:18Z</time></trkpt><trkpt lat="43.97800721286326" lon="12.156833870011571"><ele>458.0</ele><time>2026-03-28T15:47:19Z</time></trkpt><trkpt lat="43.978112896585415" lon="12.156660504296148"><ele>458.0</ele><time>2026-03-28T15:47:20Z</time></trkpt><trkpt lat="43.978211227490384" lon="12.156508046648804"><ele>459.5</ele><time>2026-03-28T15:47:21Z</time></trkpt><trkpt lat="43.978295203692056" lon="12.156364601786438"><ele>461.0</ele><time>2026-03-28T15:47:22Z</time></trkpt><trkpt lat="43.978395316553" lon="12.15624135971031"><ele>462.5</ele><time>2026-03-28T15:47:23Z</time></trkpt><trkpt lat="43.97847852290486" lon="12.156074424951385"><ele>464.0</ele><time>2026-03-28T15:47:24Z</time></trkpt><trkpt lat="43.97855299611798" lon="12.155871064727842"><ele>468.75</ele><time>2026-03-28T15:47:25Z</time></trkpt><trkpt lat="43.9786204172728" lon="12.155671480590279"><ele>473.5</ele><time>2026-03-28T15:47:26Z</time></trkpt><trkpt lat="43.97868560502716" lon="12.15552421042233"><ele>478.25</ele><time>2026-03-28T15:47:27Z</time></trkpt><trkpt lat="43.97873137615511" lon="12.155407769116339"><ele>483.0</ele><time>2026-03-28T15:47:28Z</time></trkpt><trkpt lat="43.97877012365815" lon="12.155291339878511"><ele>483.0</ele><time>2026-03-28T15:47:29Z</time></trkpt><trkpt lat="43.97880302487862" lon="12.155151346476122"><ele>483.0</ele><time>2026-03-28T15:47:30Z</time></trkpt><trkpt lat="43.97881171978247" lon="12.15497295636053"><ele>483.0</ele><time>2026-03-28T15:47:31Z</time></trkpt><trkpt lat="43.97884355785313" lon="12.154794817999251"><ele>483.0</ele><time>2026-03-28T15:47:32Z</time></trkpt><trkpt lat="43.97884656929934" lon="12.154633497052412"><ele>483.0</ele><time>2026-03-28T15:47:33Z</time></trkpt><trkpt lat="43.97885531883289" lon="12.154504260328679"><ele>483.0</ele><time>2026-03-28T15:47:34Z</time></trkpt><trkpt lat="43.978909032854965" lon="12.154414275096435"><ele>483.0</ele><time>2026-03-28T15:47:35Z</time></trkpt><trkpt lat="43.978965710101306" lon="12.154355941644988"><ele>483.0</ele><time>2026-03-28T15:47:36Z</time></trkpt><trkpt lat="43.97904128308494" lon="12.15431458830388"><ele>483.0</ele><time>2026-03-28T15:47:37Z</time></trkpt><trkpt lat="43.97912989495828" lon="12.154268180170135"><ele>483.0</ele><time>2026-03-28T15:47:38Z</time></trkpt><trkpt lat="43.97923438615157" lon="12.154205154917006"><ele>484.75</ele><time>2026-03-28T15:47:39Z</time></trkpt><trkpt lat="43.97934944790744" lon="12.15412425076477"><ele>486.5</ele><time>2026-03-28T15:47:40Z</time></trkpt><trkpt lat="43.979448605927594" lon="12.153991009877622"><ele>488.25</ele><time>2026-03-28T15:47:41Z</time></trkpt><trkpt lat="43.97953250273056" lon="12.153850109855922"><ele>490.0</ele><time>2026-03-28T15:47:42Z</time></trkpt><trkpt lat="43.979588384072095" lon="12.153733388518457"><ele>490.0</ele><time>2026-03-28T15:47:43Z</time></trkpt><trkpt lat="43.97962141892673" lon="12.15362075056313"><ele>490.0</ele><time>2026-03-28T15:47:44Z</time></trkpt><trkpt lat="43.9796438167787" lon="12.153512046794615"><ele>490.0</ele><time>2026-03-28T15:47:45Z</time></trkpt><trkpt lat="43.979652412756934" lon="12.153359780072778"><ele>490.0</ele><time>2026-03-28T15:47:46Z</time></trkpt><trkpt lat="43.97963608899655" lon="12.153165207356372"><ele>490.0</ele><time>2026-03-28T15:47:47Z</time></trkpt><trkpt lat="43.979662729797866" lon="12.152967094915885"><ele>487.0</ele><time>2026-03-28T15:47:48Z</time></trkpt><trkpt lat="43.97969693827382" lon="12.152735459426143"><ele>484.0</ele><time>2026-03-28T15:47:49Z</time></trkpt><trkpt lat="43.97970928691739" lon="12.152521640514507"><ele>481.0</ele><time>2026-03-28T15:47:50Z</time></trkpt><trkpt lat="43.97972469654734" lon="12.152344352500675"><ele>479.75</ele><time>2026-03-28T15:47:51Z</time></trkpt><trkpt lat="43.97972552085017" lon="12.152203053839242"><ele>478.5</ele><time>2026-03-28T15:47:52Z</time></trkpt><trkpt lat="43.97970117619462" lon="12.152077211820695"><ele>477.25</ele><time>2026-03-28T15:47:53Z</time></trkpt><trkpt lat="43.97963600761663" lon="12.151942355489462"><ele>476.0</ele><time>2026-03-28T15:47:54Z</time></trkpt><trkpt lat="43.97952998692676" lon="12.151819167900243"><ele>476.0</ele><time>2026-03-28T15:47:55Z</time></trkpt><trkpt lat="43.979404563655535" lon="12.151693610839613"><ele>476.0</ele><time>2026-03-28T15:47:56Z</time></trkpt><trkpt lat="43.97929680115379" lon="12.151536355764486"><ele>476.0</ele><time>2026-03-28T15:47:57Z</time></trkpt><trkpt lat="43.97918084693493" lon="12.15140567072464"><ele>483.0</ele><time>2026-03-28T15:47:58Z</time></trkpt><trkpt lat="43.9790457056243" lon="12.151312785119956"><ele>490.0</ele><time>2026-03-28T15:47:59Z</time></trkpt><trkpt lat="43.97892196596575" lon="12.151244363757407"><ele>497.0</ele><time>2026-03-28T15:48:00Z</time></trkpt><trkpt lat="43.978823759523195" lon="12.151200016063056"><ele>504.0</ele><time>2026-03-28T15:48:01Z</time></trkpt><trkpt lat="43.97875965597209" lon="12.151141782939382"><ele>504.0</ele><time>2026-03-28T15:48:02Z</time></trkpt><trkpt lat="43.978726745501795" lon="12.151012390334255"><ele>504.0</ele><time>2026-03-28T15:48:03Z</time></trkpt><trkpt lat="43.97873825817587" lon="12.150868577335586"><ele>504.0</ele><time>2026-03-28T15:48:04Z</time></trkpt><trkpt lat="43.978693498997075" lon="12.150724698900547"><ele>504.0</ele><time>2026-03-28T15:48:05Z</time></trkpt><trkpt lat="43.97865135535698" lon="12.15058922450333"><ele>504.0</ele><time>2026-03-28T15:48:06Z</time></trkpt><trkpt lat="43.97857242823431" lon="12.150486827427091"><ele>503.25</ele><time>2026-03-28T15:48:07Z</time></trkpt><trkpt lat="43.978459702016536" lon="12.150386369360247"><ele>502.5</ele><time>2026-03-28T15:48:08Z</time></trkpt><trkpt lat="43.97833484869668" lon="12.150276795041496"><ele>501.75</ele><time>2026-03-28T15:48:09Z</time></trkpt><trkpt lat="43.97821193674666" lon="12.15015579450407"><ele>501.0</ele><time>2026-03-28T15:48:10Z</time></trkpt><trkpt lat="43.9780984478388" lon="12.150033408857377"><ele>504.5</ele><time>2026-03-28T15:48:11Z</time></trkpt><trkpt lat="43.97799038558954" lon="12.149899273481857"><ele>508.0</ele><time>2026-03-28T15:48:12Z</time></trkpt><trkpt lat="43.977869229007155" lon="12.149800168528651"><ele>511.5</ele><time>2026-03-28T15:48:13Z</time></trkpt><trkpt lat="43.97774718482088" lon="12.149721364017285"><ele>515.0</ele><time>2026-03-28T15:48:14Z</time></trkpt><trkpt lat="43.97763167425549" lon="12.149641443788273"><ele>515.6666666666666</ele><time>2026-03-28T15:48:15Z</time></trkpt><trkpt lat="43.97754742477464" lon="12.149489058408573"><ele>516.3333333333334</ele><time>2026-03-28T15:48:16Z</time></trkpt><trkpt lat="43.97742627793033" lon="12.149313685356669"><ele>517.0</ele><time>2026-03-28T15:48:17Z</time></trkpt><trkpt lat="43.977339557557166" lon="12.149136639956675"><ele>519.75</ele><time>2026-03-28T15:48:18Z</time></trkpt><trkpt lat="43.977268754766065" lon="12.14898450144814"><ele>522.5</ele><time>2026-03-28T15:48:19Z</time></trkpt><trkpt lat="43.97721373215322" lon="12.148829360074695"><ele>525.25</ele><time>2026-03-28T15:48:20Z</time></trkpt><trkpt lat="43.97716400251839" lon="12.148639842913594"><ele>528.0</ele><time>2026-03-28T15:48:21Z</time></trkpt><trkpt lat="43.977128093998445" lon="12.148410948367223"><ele>525.0</ele><time>2026-03-28T15:48:22Z</time></trkpt><trkpt lat="43.9770818015265" lon="12.1481915403333"><ele>522.0</ele><time>2026-03-28T15:48:23Z</time></trkpt><trkpt lat="43.97703412749446" lon="12.147960936649284"><ele>519.0</ele><time>2026-03-28T15:48:24Z</time></trkpt><trkpt lat="43.977011518207334" lon="12.147756534104648"><ele>519.0</ele><time>2026-03-28T15:48:25Z</time></trkpt><trkpt lat="43.976977596596086" lon="12.14758222608144"><ele>519.0</ele><time>2026-03-28T15:48:26Z</time></trkpt><trkpt lat="43.97693103598114" lon="12.14742041103734"><ele>519.0</ele><time>2026-03-28T15:48:27Z</time></trkpt><trkpt lat="43.97690387923738" lon="12.147239541464131"><ele>519.0</ele><time>2026-03-28T15:48:28Z</time></trkpt><trkpt lat="43.97687317664857" lon="12.147054135390652"><ele>518.25</ele><time>2026-03-28T15:48:29Z</time></trkpt><trkpt lat="43.976848110430524" lon="12.14688194818539"><ele>517.5</ele><time>2026-03-28T15:48:30Z</time></trkpt><trkpt lat="43.97685624849211" lon="12.146727767845798"><ele>516.75</ele><time>2026-03-28T15:48:31Z</time></trkpt><trkpt lat="43.97685624849139" lon="12.146571173831413"><ele>516.0</ele><time>2026-03-28T15:48:32Z</time></trkpt><trkpt lat="43.97689632502577" lon="12.14639534806066"><ele>516.0</ele><time>2026-03-28T15:48:33Z</time></trkpt><trkpt lat="43.97692939437037" lon="12.146187562307487"><ele>516.0</ele><time>2026-03-28T15:48:34Z</time></trkpt><trkpt lat="43.97696585378049" lon="12.145966160661322"><ele>516.0</ele><time>2026-03-28T15:48:35Z</time></trkpt><trkpt lat="43.97700151657829" lon="12.145758147986916"><ele>519.75</ele><time>2026-03-28T15:48:36Z</time></trkpt><trkpt lat="43.97703692656018" lon="12.145561846669912"><ele>523.5</ele><time>2026-03-28T15:48:37Z</time></trkpt><trkpt lat="43.97707686173146" lon="12.145375387917364"><ele>527.25</ele><time>2026-03-28T15:48:38Z</time></trkpt><trkpt lat="43.97713256171805" lon="12.145182891062438"><ele>531.0</ele><time>2026-03-28T15:48:39Z</time></trkpt><trkpt lat="43.977181176368866" lon="12.144974256107945"><ele>534.6666666666666</ele><time>2026-03-28T15:48:40Z</time></trkpt><trkpt lat="43.977214754236165" lon="12.144752325425062"><ele>538.3333333333333</ele><time>2026-03-28T15:48:41Z</time></trkpt><trkpt lat="43.97723936796487" lon="12.144506285025063"><ele>542.0</ele><time>2026-03-28T15:48:42Z</time></trkpt><trkpt lat="43.97724740770359" lon="12.144262712651514"><ele>544.6666666666666</ele><time>2026-03-28T15:48:43Z</time></trkpt><trkpt lat="43.97729612228635" lon="12.144023857855803"><ele>547.3333333333334</ele><time>2026-03-28T15:48:44Z</time></trkpt><trkpt lat="43.977363909921195" lon="12.143803272593361"><ele>550.0</ele><time>2026-03-28T15:48:45Z</time></trkpt><trkpt lat="43.97743354171366" lon="12.143617462102151"><ele>550.0</ele><time>2026-03-28T15:48:46Z</time></trkpt><trkpt lat="43.97749238367865" lon="12.143438081908911"><ele>550.0</ele><time>2026-03-28T15:48:47Z</time></trkpt><trkpt lat="43.97753634168591" lon="12.1432550032584"><ele>550.0</ele><time>2026-03-28T15:48:48Z</time></trkpt><trkpt lat="43.97755503012163" lon="12.143053064309882"><ele>550.0</ele><time>2026-03-28T15:48:49Z</time></trkpt><trkpt lat="43.97756870582537" lon="12.14287206326584"><ele>550.25</ele><time>2026-03-28T15:48:50Z</time></trkpt><trkpt lat="43.977625175765695" lon="12.142696866691612"><ele>550.5</ele><time>2026-03-28T15:48:51Z</time></trkpt><trkpt lat="43.977678920804294" lon="12.142503119343102"><ele>550.75</ele><time>2026-03-28T15:48:52Z</time></trkpt><trkpt lat="43.97773910701331" lon="12.142307939911406"><ele>551.0</ele><time>2026-03-28T15:48:53Z</time></trkpt><trkpt lat="43.97778313780965" lon="12.14211352431666"><ele>551.0</ele><time>2026-03-28T15:48:54Z</time></trkpt><trkpt lat="43.9778285339121" lon="12.141951532610907"><ele>551.0</ele><time>2026-03-28T15:48:55Z</time></trkpt><trkpt lat="43.977904521639026" lon="12.141833308524662"><ele>551.0</ele><time>2026-03-28T15:48:56Z</time></trkpt><trkpt lat="43.977982522361245" lon="12.141753667076042"><ele>551.0</ele><time>2026-03-28T15:48:57Z</time></trkpt><trkpt lat="43.97806546856253" lon="12.14169356593647"><ele>551.0</ele><time>2026-03-28T15:48:58Z</time></trkpt><trkpt lat="43.978157165400674" lon="12.141727365630949"><ele>551.0</ele><time>2026-03-28T15:48:59Z</time></trkpt><trkpt lat="43.97828531540686" lon="12.14172968794869"><ele>551.0</ele><time>2026-03-28T15:49:00Z</time></trkpt><trkpt lat="43.978401892142564" lon="12.14177737757207"><ele>551.0</ele><time>2026-03-28T15:49:01Z</time></trkpt><trkpt lat="43.9785119641023" lon="12.14180048953174"><ele>551.0</ele><time>2026-03-28T15:49:02Z</time></trkpt><trkpt lat="43.97861147579214" lon="12.141796070042162"><ele>550.8</ele><time>2026-03-28T15:49:03Z</time></trkpt><trkpt lat="43.978692240374905" lon="12.14177154070732"><ele>550.6</ele><time>2026-03-28T15:49:04Z</time></trkpt><trkpt lat="43.97878511255351" lon="12.141709302607287"><ele>550.4</ele><time>2026-03-28T15:49:06Z</time></trkpt><trkpt lat="43.97881762788201" lon="12.141547785193948"><ele>550.2</ele><time>2026-03-28T15:49:09Z</time></trkpt><trkpt lat="43.978848891177265" lon="12.141442792133532"><ele>550.0</ele><time>2026-03-28T15:49:10Z</time></trkpt><trkpt lat="43.97888259426446" lon="12.141330070144475"><ele>550.0</ele><time>2026-03-28T15:49:11Z</time></trkpt><trkpt lat="43.978916974830156" lon="12.141194889103732"><ele>550.0</ele><time>2026-03-28T15:49:12Z</time></trkpt><trkpt lat="43.97899617096295" lon="12.141080431262466"><ele>550.0</ele><time>2026-03-28T15:49:13Z</time></trkpt><trkpt lat="43.979075345646805" lon="12.140961568035587"><ele>550.0</ele><time>2026-03-28T15:49:14Z</time></trkpt><trkpt lat="43.97917447535951" lon="12.140833930946311"><ele>547.75</ele><time>2026-03-28T15:49:15Z</time></trkpt><trkpt lat="43.979286907423116" lon="12.140714706625527"><ele>545.5</ele><time>2026-03-28T15:49:16Z</time></trkpt><trkpt lat="43.979380247720876" lon="12.14056046217725"><ele>543.25</ele><time>2026-03-28T15:49:17Z</time></trkpt><trkpt lat="43.979478923916815" lon="12.140429958502715"><ele>541.0</ele><time>2026-03-28T15:49:18Z</time></trkpt><trkpt lat="43.97955346404844" lon="12.140287874699109"><ele>541.0</ele><time>2026-03-28T15:49:19Z</time></trkpt><trkpt lat="43.97960991495839" lon="12.140154152425119"><ele>541.0</ele><time>2026-03-28T15:49:20Z</time></trkpt><trkpt lat="43.97963598168943" lon="12.140003569834539"><ele>541.0</ele><time>2026-03-28T15:49:21Z</time></trkpt><trkpt lat="43.97966533775537" lon="12.13987987569135"><ele>541.0</ele><time>2026-03-28T15:49:22Z</time></trkpt><trkpt lat="43.97968135491177" lon="12.139769761358423"><ele>541.0</ele><time>2026-03-28T15:49:23Z</time></trkpt><trkpt lat="43.97967166505732" lon="12.13963014470292"><ele>539.8</ele><time>2026-03-28T15:49:25Z</time></trkpt><trkpt lat="43.97960786826205" lon="12.1395696685555"><ele>538.6</ele><time>2026-03-28T15:49:26Z</time></trkpt><trkpt lat="43.97955654570292" lon="12.139500541861777"><ele>537.4</ele><time>2026-03-28T15:49:27Z</time></trkpt><trkpt lat="43.979510742798965" lon="12.139405586598725"><ele>536.2</ele><time>2026-03-28T15:49:28Z</time></trkpt><trkpt lat="43.979435222144325" lon="12.139293148577728"><ele>535.0</ele><time>2026-03-28T15:49:29Z</time></trkpt><trkpt lat="43.979368482987674" lon="12.139136799770055"><ele>530.75</ele><time>2026-03-28T15:49:30Z</time></trkpt><trkpt lat="43.979314420472875" lon="12.138956935860135"><ele>526.5</ele><time>2026-03-28T15:49:31Z</time></trkpt><trkpt lat="43.97926529198839" lon="12.138797322895885"><ele>522.25</ele><time>2026-03-28T15:49:32Z</time></trkpt><trkpt lat="43.97920585066122" lon="12.138682013893417"><ele>518.0</ele><time>2026-03-28T15:49:33Z</time></trkpt><trkpt lat="43.979169317069065" lon="12.13857473862818"><ele>526.5</ele><time>2026-03-28T15:49:34Z</time></trkpt><trkpt lat="43.97906604741626" lon="12.13849783158883"><ele>535.0</ele><time>2026-03-28T15:49:35Z</time></trkpt><trkpt lat="43.978955592040016" lon="12.138412397360277"><ele>543.5</ele><time>2026-03-28T15:49:36Z</time></trkpt><trkpt lat="43.97882974846284" lon="12.1383338743824"><ele>552.0</ele><time>2026-03-28T15:49:37Z</time></trkpt><trkpt lat="43.97867785330693" lon="12.13827352132702"><ele>552.0</ele><time>2026-03-28T15:49:38Z</time></trkpt><trkpt lat="43.97854582208805" lon="12.138224789194588"><ele>552.0</ele><time>2026-03-28T15:49:39Z</time></trkpt><trkpt lat="43.978444101376624" lon="12.138180694846987"><ele>552.0</ele><time>2026-03-28T15:49:40Z</time></trkpt><trkpt lat="43.97836353122725" lon="12.138136612206042"><ele>552.0</ele><time>2026-03-28T15:49:41Z</time></trkpt><trkpt lat="43.978303481432114" lon="12.138056956497184"><ele>552.0</ele><time>2026-03-28T15:49:42Z</time></trkpt><trkpt lat="43.97825533417845" lon="12.137975083281074"><ele>551.6</ele><time>2026-03-28T15:49:43Z</time></trkpt><trkpt lat="43.978190488213606" lon="12.13787845503098"><ele>551.2</ele><time>2026-03-28T15:49:44Z</time></trkpt><trkpt lat="43.97812024131343" lon="12.137766176363408"><ele>550.8</ele><time>2026-03-28T15:49:45Z</time></trkpt><trkpt lat="43.97803077028398" lon="12.137680309112708"><ele>550.4</ele><time>2026-03-28T15:49:46Z</time></trkpt><trkpt lat="43.97794371560865" lon="12.137611233033443"><ele>550.0</ele><time>2026-03-28T15:49:47Z</time></trkpt><trkpt lat="43.97784500098052" lon="12.137562298004683"><ele>550.0</ele><time>2026-03-28T15:49:48Z</time></trkpt><trkpt lat="43.97774153054221" lon="12.137541935021492"><ele>550.0</ele><time>2026-03-28T15:49:49Z</time></trkpt><trkpt lat="43.977639346197876" lon="12.137546163136864"><ele>550.0</ele><time>2026-03-28T15:49:50Z</time></trkpt><trkpt lat="43.97753757685007" lon="12.13756945093378"><ele>550.0</ele><time>2026-03-28T15:49:51Z</time></trkpt><trkpt lat="43.977451538074696" lon="12.13756257617672"><ele>550.0</ele><time>2026-03-28T15:49:52Z</time></trkpt><trkpt lat="43.9773768909078" lon="12.137552713276383"><ele>549.4</ele><time>2026-03-28T15:49:53Z</time></trkpt><trkpt lat="43.9773068167204" lon="12.137530445768553"><ele>548.8</ele><time>2026-03-28T15:49:54Z</time></trkpt><trkpt lat="43.97726397489771" lon="12.137442667392037"><ele>548.2</ele><time>2026-03-28T15:49:55Z</time></trkpt><trkpt lat="43.97728380083658" lon="12.137301620387456"><ele>547.6</ele><time>2026-03-28T15:49:56Z</time></trkpt><trkpt lat="43.977265758357134" lon="12.137131833712775"><ele>547.0</ele><time>2026-03-28T15:49:57Z</time></trkpt><trkpt lat="43.97723648578434" lon="12.136937713470845"><ele>547.0</ele><time>2026-03-28T15:49:58Z</time></trkpt><trkpt lat="43.97717142805175" lon="12.136751589635413"><ele>547.0</ele><time>2026-03-28T15:49:59Z</time></trkpt><trkpt lat="43.97710388114102" lon="12.136576524061873"><ele>547.0</ele><time>2026-03-28T15:50:00Z</time></trkpt><trkpt lat="43.97701593615191" lon="12.136407918768457"><ele>547.0</ele><time>2026-03-28T15:50:01Z</time></trkpt><trkpt lat="43.97693428953685" lon="12.136208166480627"><ele>547.6666666666667</ele><time>2026-03-28T15:50:02Z</time></trkpt><trkpt lat="43.97684028344316" lon="12.136011543045232"><ele>548.3333333333334</ele><time>2026-03-28T15:50:03Z</time></trkpt><trkpt lat="43.976743834882825" lon="12.135813121604023"><ele>549.0</ele><time>2026-03-28T15:50:04Z</time></trkpt><trkpt lat="43.976653412926815" lon="12.135627273256844"><ele>549.0</ele><time>2026-03-28T15:50:05Z</time></trkpt><trkpt lat="43.976563945897695" lon="12.135445381890117"><ele>549.0</ele><time>2026-03-28T15:50:06Z</time></trkpt><trkpt lat="43.97647555974582" lon="12.135266669113392"><ele>549.0</ele><time>2026-03-28T15:50:07Z</time></trkpt><trkpt lat="43.97639102734173" lon="12.135095748429427"><ele>549.0</ele><time>2026-03-28T15:50:08Z</time></trkpt><trkpt lat="43.9763102515266" lon="12.13493242339951"><ele>549.0</ele><time>2026-03-28T15:50:09Z</time></trkpt><trkpt lat="43.976232659928705" lon="12.134776056086226"><ele>549.0</ele><time>2026-03-28T15:50:10Z</time></trkpt><trkpt lat="43.97616251376157" lon="12.134636312290418"><ele>549.0</ele><time>2026-03-28T15:50:11Z</time></trkpt><trkpt lat="43.97609652065648" lon="12.134498682441588"><ele>547.6</ele><time>2026-03-28T15:50:12Z</time></trkpt><trkpt lat="43.9760546194586" lon="12.134377583601394"><ele>546.2</ele><time>2026-03-28T15:50:13Z</time></trkpt><trkpt lat="43.97604176564369" lon="12.134285141708567"><ele>544.8000000000001</ele><time>2026-03-28T15:50:14Z</time></trkpt><trkpt lat="43.97614290903077" lon="12.134181167499579"><ele>543.4</ele><time>2026-03-28T15:50:16Z</time></trkpt><trkpt lat="43.97623994256926" lon="12.134116465991404"><ele>542.0</ele><time>2026-03-28T15:50:17Z</time></trkpt><trkpt lat="43.97635348352938" lon="12.13408594101692"><ele>540.2</ele><time>2026-03-28T15:50:18Z</time></trkpt><trkpt lat="43.97645346674715" lon="12.134046741167156"><ele>538.4000000000001</ele><time>2026-03-28T15:50:19Z</time></trkpt><trkpt lat="43.97655023150336" lon="12.133990990767185"><ele>536.5999999999999</ele><time>2026-03-28T15:50:20Z</time></trkpt><trkpt lat="43.976639786642195" lon="12.133922929643049"><ele>534.8</ele><time>2026-03-28T15:50:21Z</time></trkpt><trkpt lat="43.97670233941295" lon="12.133805555396581"><ele>533.0</ele><time>2026-03-28T15:50:22Z</time></trkpt><trkpt lat="43.97671073615132" lon="12.133656476744322"><ele>532.0</ele><time>2026-03-28T15:50:23Z</time></trkpt><trkpt lat="43.97672126465605" lon="12.133497761129961"><ele>531.0</ele><time>2026-03-28T15:50:24Z</time></trkpt><trkpt lat="43.97674144848787" lon="12.13334983788098"><ele>530.0</ele><time>2026-03-28T15:50:25Z</time></trkpt><trkpt lat="43.976724047963984" lon="12.133209510538512"><ele>529.0</ele><time>2026-03-28T15:50:26Z</time></trkpt><trkpt lat="43.97670451188214" lon="12.13307725952994"><ele>528.0</ele><time>2026-03-28T15:50:27Z</time></trkpt><trkpt lat="43.976645905060835" lon="12.132940566747278"><ele>532.0</ele><time>2026-03-28T15:50:28Z</time></trkpt><trkpt lat="43.97654757884429" lon="12.13281348866626"><ele>536.0</ele><time>2026-03-28T15:50:29Z</time></trkpt><trkpt lat="43.97642080303502" lon="12.132714099275978"><ele>540.0</ele><time>2026-03-28T15:50:30Z</time></trkpt><trkpt lat="43.976268449765236" lon="12.132605291760667"><ele>540.0</ele><time>2026-03-28T15:50:31Z</time></trkpt><trkpt lat="43.976111587601046" lon="12.132483061762512"><ele>540.0</ele><time>2026-03-28T15:50:32Z</time></trkpt><trkpt lat="43.97596845002" lon="12.132374770613923"><ele>540.0</ele><time>2026-03-28T15:50:33Z</time></trkpt><trkpt lat="43.97584224767931" lon="12.132285213168533"><ele>539.8</ele><time>2026-03-28T15:50:34Z</time></trkpt><trkpt lat="43.97573644356004" lon="12.132203785215086"><ele>539.6</ele><time>2026-03-28T15:50:35Z</time></trkpt><trkpt lat="43.97565243627068" lon="12.13210989804757"><ele>539.4</ele><time>2026-03-28T15:50:36Z</time></trkpt><trkpt lat="43.97557878467352" lon="12.132054198810007"><ele>539.2</ele><time>2026-03-28T15:50:37Z</time></trkpt><trkpt lat="43.97555686224168" lon="12.13194694404959"><ele>539.0</ele><time>2026-03-28T15:50:38Z</time></trkpt><trkpt lat="43.97556160218745" lon="12.13185564348001"><ele>539.0</ele><time>2026-03-28T15:50:39Z</time></trkpt><trkpt lat="43.9755969415937" lon="12.13175727113169"><ele>539.0</ele><time>2026-03-28T15:50:40Z</time></trkpt><trkpt lat="43.97567040307273" lon="12.131666113401877"><ele>539.0</ele><time>2026-03-28T15:50:41Z</time></trkpt><trkpt lat="43.97577994123638" lon="12.131566195778866"><ele>539.0</ele><time>2026-03-28T15:50:42Z</time></trkpt><trkpt lat="43.97591425100239" lon="12.131480435517373"><ele>538.75</ele><time>2026-03-28T15:50:43Z</time></trkpt><trkpt lat="43.97605305528371" lon="12.131406809085126"><ele>538.5</ele><time>2026-03-28T15:50:44Z</time></trkpt><trkpt lat="43.97617269810421" lon="12.131321646508834"><ele>538.25</ele><time>2026-03-28T15:50:45Z</time></trkpt><trkpt lat="43.976281660667816" lon="12.131260547482231"><ele>538.0</ele><time>2026-03-28T15:50:46Z</time></trkpt><trkpt lat="43.9763599173771" lon="12.131147026888394"><ele>538.0</ele><time>2026-03-28T15:50:47Z</time></trkpt><trkpt lat="43.976412231556424" lon="12.131004011760252"><ele>538.0</ele><time>2026-03-28T15:50:48Z</time></trkpt><trkpt lat="43.976433939170256" lon="12.130842275369465"><ele>538.0</ele><time>2026-03-28T15:50:49Z</time></trkpt><trkpt lat="43.97642999215448" lon="12.13066533415303"><ele>538.0</ele><time>2026-03-28T15:50:50Z</time></trkpt><trkpt lat="43.976394585708604" lon="12.130485904591968"><ele>538.5</ele><time>2026-03-28T15:50:51Z</time></trkpt><trkpt lat="43.976329957272725" lon="12.130318920342223"><ele>539.0</ele><time>2026-03-28T15:50:52Z</time></trkpt><trkpt lat="43.976246137519475" lon="12.130161952950596"><ele>539.5</ele><time>2026-03-28T15:50:53Z</time></trkpt><trkpt lat="43.97614833205763" lon="12.130004558247913"><ele>540.0</ele><time>2026-03-28T15:50:54Z</time></trkpt><trkpt lat="43.976053088783445" lon="12.129834067493233"><ele>541.5</ele><time>2026-03-28T15:50:55Z</time></trkpt><trkpt lat="43.97597016943318" lon="12.12966906589905"><ele>543.0</ele><time>2026-03-28T15:50:56Z</time></trkpt><trkpt lat="43.97591506124415" lon="12.129514258242489"><ele>544.5</ele><time>2026-03-28T15:50:57Z</time></trkpt><trkpt lat="43.97585207888622" lon="12.129378917451044"><ele>546.0</ele><time>2026-03-28T15:50:58Z</time></trkpt><trkpt lat="43.97580600324947" lon="12.129249909489497"><ele>544.25</ele><time>2026-03-28T15:50:59Z</time></trkpt><trkpt lat="43.975802944438826" lon="12.129124889648937"><ele>542.5</ele><time>2026-03-28T15:51:00Z</time></trkpt><trkpt lat="43.97581104299723" lon="12.128989672421875"><ele>540.75</ele><time>2026-03-28T15:51:01Z</time></trkpt><trkpt lat="43.97592036869387" lon="12.128896028144776"><ele>539.0</ele><time>2026-03-28T15:51:02Z</time></trkpt><trkpt lat="43.9760243869305" lon="12.128770644601492"><ele>539.0</ele><time>2026-03-28T15:51:03Z</time></trkpt><trkpt lat="43.97612642774397" lon="12.128649136389557"><ele>539.0</ele><time>2026-03-28T15:51:04Z</time></trkpt><trkpt lat="43.976203233984336" lon="12.1285182675735"><ele>539.0</ele><time>2026-03-28T15:51:05Z</time></trkpt><trkpt lat="43.97627744729359" lon="12.128395994026448"><ele>539.0</ele><time>2026-03-28T15:51:06Z</time></trkpt><trkpt lat="43.97628571076991" lon="12.128207200908744"><ele>535.0</ele><time>2026-03-28T15:51:07Z</time></trkpt><trkpt lat="43.976243821944266" lon="12.12801498901629"><ele>531.0</ele><time>2026-03-28T15:51:08Z</time></trkpt><trkpt lat="43.9762373964831" lon="12.127834617367327"><ele>527.0</ele><time>2026-03-28T15:51:09Z</time></trkpt><trkpt lat="43.97625483766437" lon="12.127683341533727"><ele>523.0</ele><time>2026-03-28T15:51:10Z</time></trkpt><trkpt lat="43.97631832977047" lon="12.127558378711841"><ele>523.0</ele><time>2026-03-28T15:51:11Z</time></trkpt><trkpt lat="43.976407922492754" lon="12.127460936139729"><ele>523.0</ele><time>2026-03-28T15:51:12Z</time></trkpt><trkpt lat="43.976528584595904" lon="12.127370333893031"><ele>523.0</ele><time>2026-03-28T15:51:13Z</time></trkpt><trkpt lat="43.976670436141276" lon="12.1272656629686"><ele>523.0</ele><time>2026-03-28T15:51:14Z</time></trkpt><trkpt lat="43.976818156854456" lon="12.127155873428315"><ele>517.3333333333334</ele><time>2026-03-28T15:51:15Z</time></trkpt><trkpt lat="43.97696668783066" lon="12.127037504380692"><ele>511.66666666666663</ele><time>2026-03-28T15:51:16Z</time></trkpt><trkpt lat="43.97709740618531" lon="12.126931467968802"><ele>506.0</ele><time>2026-03-28T15:51:17Z</time></trkpt><trkpt lat="43.977217368648475" lon="12.12685902175884"><ele>506.0</ele><time>2026-03-28T15:51:18Z</time></trkpt><trkpt lat="43.97732731158275" lon="12.126813854251793"><ele>506.0</ele><time>2026-03-28T15:51:19Z</time></trkpt><trkpt lat="43.97743187045087" lon="12.126797493397929"><ele>506.0</ele><time>2026-03-28T15:51:20Z</time></trkpt><trkpt lat="43.97752022357549" lon="12.12686535599826"><ele>506.0</ele><time>2026-03-28T15:51:21Z</time></trkpt><trkpt lat="43.97760713853584" lon="12.126971168206016"><ele>506.0</ele><time>2026-03-28T15:51:22Z</time></trkpt><trkpt lat="43.9777362540789" lon="12.127129561571309"><ele>502.5</ele><time>2026-03-28T15:51:23Z</time></trkpt><trkpt lat="43.97785124467381" lon="12.127243568870663"><ele>499.0</ele><time>2026-03-28T15:51:24Z</time></trkpt><trkpt lat="43.977959812832374" lon="12.12732627298991"><ele>495.5</ele><time>2026-03-28T15:51:25Z</time></trkpt><trkpt lat="43.97806975560417" lon="12.127369178267358"><ele>492.0</ele><time>2026-03-28T15:51:26Z</time></trkpt><trkpt lat="43.978187642893545" lon="12.12736349908712"><ele>492.0</ele><time>2026-03-28T15:51:27Z</time></trkpt><trkpt lat="43.97831299160045" lon="12.12734088466381"><ele>492.0</ele><time>2026-03-28T15:51:28Z</time></trkpt><trkpt lat="43.97843853713152" lon="12.127329553506984"><ele>492.0</ele><time>2026-03-28T15:51:29Z</time></trkpt><trkpt lat="43.97856205060381" lon="12.127334891481407"><ele>492.0</ele><time>2026-03-28T15:51:30Z</time></trkpt><trkpt lat="43.97867713264832" lon="12.12731771050285"><ele>494.20000000000005</ele><time>2026-03-28T15:51:31Z</time></trkpt><trkpt lat="43.97878076038717" lon="12.127332877175741"><ele>496.40000000000003</ele><time>2026-03-28T15:51:32Z</time></trkpt><trkpt lat="43.978879908582705" lon="12.127332501565135"><ele>498.59999999999997</ele><time>2026-03-28T15:51:33Z</time></trkpt><trkpt lat="43.978979022527106" lon="12.12731860154338"><ele>500.79999999999995</ele><time>2026-03-28T15:51:34Z</time></trkpt><trkpt lat="43.979071969901334" lon="12.127305742422038"><ele>503.0</ele><time>2026-03-28T15:51:35Z</time></trkpt><trkpt lat="43.97915915887512" lon="12.127273621955148"><ele>501.59999999999997</ele><time>2026-03-28T15:51:36Z</time></trkpt><trkpt lat="43.97923852286415" lon="12.12723306363266"><ele>500.19999999999993</ele><time>2026-03-28T15:51:37Z</time></trkpt><trkpt lat="43.97931348011854" lon="12.127180100398157"><ele>498.8</ele><time>2026-03-28T15:51:38Z</time></trkpt><trkpt lat="43.97941654530274" lon="12.1270807753894"><ele>497.4</ele><time>2026-03-28T15:51:39Z</time></trkpt><trkpt lat="43.979525576927095" lon="12.126934775119565"><ele>496.0</ele><time>2026-03-28T15:51:40Z</time></trkpt><trkpt lat="43.9796437028217" lon="12.126777405710351"><ele>496.0</ele><time>2026-03-28T15:51:41Z</time></trkpt><trkpt lat="43.979746742953125" lon="12.126627148884186"><ele>496.0</ele><time>2026-03-28T15:51:42Z</time></trkpt><trkpt lat="43.979862470570396" lon="12.126485370390977"><ele>496.0</ele><time>2026-03-28T15:51:43Z</time></trkpt><trkpt lat="43.97996923342757" lon="12.12631929952231"><ele>493.0</ele><time>2026-03-28T15:51:44Z</time></trkpt><trkpt lat="43.98007965131191" lon="12.126134711213973"><ele>490.0</ele><time>2026-03-28T15:51:45Z</time></trkpt><trkpt lat="43.98018433341145" lon="12.125906026860177"><ele>487.0</ele><time>2026-03-28T15:51:46Z</time></trkpt><trkpt lat="43.980308024471626" lon="12.12570500708509"><ele>487.0</ele><time>2026-03-28T15:51:47Z</time></trkpt><trkpt lat="43.98041009200238" lon="12.12550008881843"><ele>487.0</ele><time>2026-03-28T15:51:48Z</time></trkpt><trkpt lat="43.98050106042896" lon="12.125312028309644"><ele>487.0</ele><time>2026-03-28T15:51:49Z</time></trkpt><trkpt lat="43.98058423926128" lon="12.125136973557275"><ele>487.0</ele><time>2026-03-28T15:51:50Z</time></trkpt><trkpt lat="43.98064009711407" lon="12.12497813878049"><ele>487.00000000000006</ele><time>2026-03-28T15:51:51Z</time></trkpt><trkpt lat="43.980663821764914" lon="12.124820630099629"><ele>487.00000000000006</ele><time>2026-03-28T15:51:52Z</time></trkpt><trkpt lat="43.98071240527835" lon="12.124686529398598"><ele>487.0</ele><time>2026-03-28T15:51:53Z</time></trkpt><trkpt lat="43.98075990199195" lon="12.124570069986293"><ele>487.0</ele><time>2026-03-28T15:51:54Z</time></trkpt><trkpt lat="43.98080797122751" lon="12.124496135208153"><ele>487.1666666666667</ele><time>2026-03-28T15:51:55Z</time></trkpt><trkpt lat="43.98087948355684" lon="12.124374390248208"><ele>487.33333333333337</ele><time>2026-03-28T15:51:57Z</time></trkpt><trkpt lat="43.98093187512983" lon="12.124323909833008"><ele>487.5</ele><time>2026-03-28T15:51:59Z</time></trkpt><trkpt lat="43.98092028035275" lon="12.124189537739039"><ele>487.66666666666663</ele><time>2026-03-28T15:52:00Z</time></trkpt><trkpt lat="43.980953045393846" lon="12.124094745814848"><ele>487.8333333333333</ele><time>2026-03-28T15:52:01Z</time></trkpt><trkpt lat="43.98099656072528" lon="12.123979862330986"><ele>488.0</ele><time>2026-03-28T15:52:02Z</time></trkpt><trkpt lat="43.981043844970166" lon="12.123847489482843"><ele>489.75</ele><time>2026-03-28T15:52:03Z</time></trkpt><trkpt lat="43.98109225842918" lon="12.123706900907575"><ele>491.5</ele><time>2026-03-28T15:52:04Z</time></trkpt><trkpt lat="43.981133768742126" lon="12.123577430662152"><ele>493.25</ele><time>2026-03-28T15:52:05Z</time></trkpt><trkpt lat="43.98117270629106" lon="12.1234246450042"><ele>495.0</ele><time>2026-03-28T15:52:06Z</time></trkpt><trkpt lat="43.9812126508748" lon="12.12323790876321"><ele>497.25</ele><time>2026-03-28T15:52:07Z</time></trkpt><trkpt lat="43.98127506705683" lon="12.123057807799528"><ele>499.5</ele><time>2026-03-28T15:52:08Z</time></trkpt><trkpt lat="43.9813306145932" lon="12.122875806908535"><ele>501.75</ele><time>2026-03-28T15:52:09Z</time></trkpt><trkpt lat="43.981380211520104" lon="12.122726820175062"><ele>504.0</ele><time>2026-03-28T15:52:10Z</time></trkpt><trkpt lat="43.98142456123348" lon="12.122611142303237"><ele>504.0</ele><time>2026-03-28T15:52:11Z</time></trkpt><trkpt lat="43.98147833515433" lon="12.122465762117491"><ele>504.0</ele><time>2026-03-28T15:52:12Z</time></trkpt><trkpt lat="43.98155989417569" lon="12.122328994269248"><ele>504.0</ele><time>2026-03-28T15:52:13Z</time></trkpt><trkpt lat="43.98163500536566" lon="12.122202960554256"><ele>504.0</ele><time>2026-03-28T15:52:14Z</time></trkpt><trkpt lat="43.98172231139056" lon="12.122094132571398"><ele>503.25</ele><time>2026-03-28T15:52:15Z</time></trkpt><trkpt lat="43.98179414296097" lon="12.121981640646778"><ele>502.5</ele><time>2026-03-28T15:52:16Z</time></trkpt><trkpt lat="43.98186806452645" lon="12.121849980254348"><ele>501.75</ele><time>2026-03-28T15:52:17Z</time></trkpt><trkpt lat="43.981922348046346" lon="12.12168063563043"><ele>501.0</ele><time>2026-03-28T15:52:18Z</time></trkpt><trkpt lat="43.981981610214156" lon="12.121541874583217"><ele>503.8</ele><time>2026-03-28T15:52:19Z</time></trkpt><trkpt lat="43.98203667354909" lon="12.121437991103246"><ele>506.6</ele><time>2026-03-28T15:52:20Z</time></trkpt><trkpt lat="43.98209649277417" lon="12.121315988303532"><ele>509.4</ele><time>2026-03-28T15:52:21Z</time></trkpt><trkpt lat="43.98215633779855" lon="12.121186707233031"><ele>512.2</ele><time>2026-03-28T15:52:22Z</time></trkpt><trkpt lat="43.9822025244324" lon="12.121039685063026"><ele>515.0</ele><time>2026-03-28T15:52:23Z</time></trkpt><trkpt lat="43.98227244685035" lon="12.120900985833673"><ele>515.0</ele><time>2026-03-28T15:52:24Z</time></trkpt><trkpt lat="43.98232623723727" lon="12.120756720973866"><ele>515.0</ele><time>2026-03-28T15:52:25Z</time></trkpt><trkpt lat="43.9823905665488" lon="12.120599889646366"><ele>515.0</ele><time>2026-03-28T15:52:26Z</time></trkpt><trkpt lat="43.98247301982036" lon="12.120445364130726"><ele>515.0</ele><time>2026-03-28T15:52:27Z</time></trkpt><trkpt lat="43.982564422019756" lon="12.120301520377662"><ele>516.25</ele><time>2026-03-28T15:52:28Z</time></trkpt><trkpt lat="43.98266067417984" lon="12.120149651001094"><ele>517.5</ele><time>2026-03-28T15:52:29Z</time></trkpt><trkpt lat="43.982741353393514" lon="12.120025289113926"><ele>518.75</ele><time>2026-03-28T15:52:30Z</time></trkpt><trkpt lat="43.98281282224669" lon="12.119916708032656"><ele>520.0</ele><time>2026-03-28T15:52:31Z</time></trkpt><trkpt lat="43.98288937461456" lon="12.119804619600371"><ele>520.6</ele><time>2026-03-28T15:52:32Z</time></trkpt><trkpt lat="43.982957374736735" lon="12.11971012384415"><ele>521.2</ele><time>2026-03-28T15:52:33Z</time></trkpt><trkpt lat="43.98302323999657" lon="12.119613936228186"><ele>521.8</ele><time>2026-03-28T15:52:34Z</time></trkpt><trkpt lat="43.98306959528837" lon="12.119533298048024"><ele>522.4</ele><time>2026-03-28T15:52:35Z</time></trkpt><trkpt lat="43.983129651734075" lon="12.11940771063012"><ele>523.0</ele><time>2026-03-28T15:52:37Z</time></trkpt><trkpt lat="43.9831466105155" lon="12.119300312266201"><ele>523.0</ele><time>2026-03-28T15:52:40Z</time></trkpt><trkpt lat="43.9831620167277" lon="12.11939482007731"><ele>523.0</ele><time>2026-03-28T15:53:43Z</time></trkpt><trkpt lat="43.98352933005487" lon="12.119631581045933"><ele>521.1999999999999</ele><time>2026-03-28T15:53:48Z</time></trkpt><trkpt lat="43.98361460057995" lon="12.119735207717797"><ele>519.4</ele><time>2026-03-28T15:53:50Z</time></trkpt><trkpt lat="43.98371467831905" lon="12.119834225462773"><ele>517.5999999999999</ele><time>2026-03-28T15:53:52Z</time></trkpt><trkpt lat="43.98377449132548" lon="12.119884814413012"><ele>515.8</ele><time>2026-03-28T15:53:53Z</time></trkpt><trkpt lat="43.98387604481058" lon="12.119976800118732"><ele>514.0</ele><time>2026-03-28T15:53:55Z</time></trkpt><trkpt lat="43.983965492337596" lon="12.120076222831143"><ele>514.0</ele><time>2026-03-28T15:53:57Z</time></trkpt><trkpt lat="43.98404780198508" lon="12.12016916099525"><ele>514.0</ele><time>2026-03-28T15:53:59Z</time></trkpt><trkpt lat="43.98411233358294" lon="12.120253950793794"><ele>514.0</ele><time>2026-03-28T15:54:01Z</time></trkpt><trkpt lat="43.984170664103516" lon="12.120328629298415"><ele>514.0</ele><time>2026-03-28T15:54:09Z</time></trkpt><trkpt lat="43.98422563479663" lon="12.120373695614921"><ele>514.0</ele><time>2026-03-28T15:57:17Z</time></trkpt><trkpt lat="43.984299481178056" lon="12.120422973595133"><ele>514.0</ele><time>2026-03-28T15:57:19Z</time></trkpt><trkpt lat="43.98436482060498" lon="12.12047260805699"><ele>512.1666666666667</ele><time>2026-03-28T15:57:21Z</time></trkpt><trkpt lat="43.98442998159039" lon="12.12050474473233"><ele>510.33333333333337</ele><time>2026-03-28T15:57:23Z</time></trkpt><trkpt lat="43.984496737000896" lon="12.120537254958261"><ele>508.5</ele><time>2026-03-28T15:57:25Z</time></trkpt><trkpt lat="43.98456763929606" lon="12.120560432577927"><ele>506.66666666666663</ele><time>2026-03-28T15:57:27Z</time></trkpt><trkpt lat="43.984654910607205" lon="12.120614144346066"><ele>504.8333333333333</ele><time>2026-03-28T15:57:30Z</time></trkpt><trkpt lat="43.98474554248651" lon="12.120675958534656"><ele>503.0</ele><time>2026-03-28T15:57:33Z</time></trkpt><trkpt lat="43.9848108122829" lon="12.120704085474504"><ele>503.3333333333333</ele><time>2026-03-28T15:57:43Z</time></trkpt><trkpt lat="43.98488546680057" lon="12.120742076687064"><ele>503.66666666666663</ele><time>2026-03-28T15:57:46Z</time></trkpt><trkpt lat="43.98497841463944" lon="12.12079535104746"><ele>504.0</ele><time>2026-03-28T15:57:49Z</time></trkpt><trkpt lat="43.98504601278376" lon="12.120813580750887"><ele>504.33333333333337</ele><time>2026-03-28T15:57:51Z</time></trkpt><trkpt lat="43.98512013969042" lon="12.120846008258262"><ele>504.6666666666667</ele><time>2026-03-28T15:57:53Z</time></trkpt><trkpt lat="43.985192122500955" lon="12.120862755122836"><ele>505.0</ele><time>2026-03-28T15:57:55Z</time></trkpt><trkpt lat="43.98525248247482" lon="12.12090535256511"><ele>505.00000000000006</ele><time>2026-03-28T15:58:08Z</time></trkpt><trkpt lat="43.98518547351695" lon="12.120876950786938"><ele>505.0</ele><time>2026-03-28T15:58:40Z</time></trkpt><trkpt lat="43.98510521289999" lon="12.120825209295205"><ele>505.0</ele><time>2026-03-28T15:58:43Z</time></trkpt><trkpt lat="43.985034156198594" lon="12.120789428061054"><ele>505.0</ele><time>2026-03-28T15:58:45Z</time></trkpt><trkpt lat="43.98495976128546" lon="12.120761467981787"><ele>505.00000000000006</ele><time>2026-03-28T15:58:48Z</time></trkpt><trkpt lat="43.98488754005881" lon="12.120729705974085"><ele>505.0</ele><time>2026-03-28T15:58:50Z</time></trkpt><trkpt lat="43.98479890156317" lon="12.120697467643259"><ele>504.6666666666667</ele><time>2026-03-28T15:58:53Z</time></trkpt><trkpt lat="43.98474215027685" lon="12.120659251500095"><ele>504.33333333333337</ele><time>2026-03-28T15:58:56Z</time></trkpt><trkpt lat="43.984662396169995" lon="12.120628323972117"><ele>504.0</ele><time>2026-03-28T15:58:58Z</time></trkpt><trkpt lat="43.98459905703759" lon="12.120592230629327"><ele>503.66666666666663</ele><time>2026-03-28T15:59:00Z</time></trkpt><trkpt lat="43.984539107824546" lon="12.12054894546171"><ele>503.3333333333333</ele><time>2026-03-28T15:59:02Z</time></trkpt><trkpt lat="43.98445077481826" lon="12.120505793932875"><ele>503.0</ele><time>2026-03-28T15:59:04Z</time></trkpt><trkpt lat="43.984357918615956" lon="12.12045541873114"><ele>503.0</ele><time>2026-03-28T15:59:06Z</time></trkpt><trkpt lat="43.98425986647603" lon="12.12040263844852"><ele>502.99999999999994</ele><time>2026-03-28T15:59:08Z</time></trkpt><trkpt lat="43.98418390053845" lon="12.120351648530223"><ele>502.99999999999994</ele><time>2026-03-28T15:59:10Z</time></trkpt><trkpt lat="43.98410406102348" lon="12.120262716631759"><ele>503.0</ele><time>2026-03-28T15:59:12Z</time></trkpt><trkpt lat="43.98402823054357" lon="12.12017172423558"><ele>503.0</ele><time>2026-03-28T15:59:14Z</time></trkpt><trkpt lat="43.98397951020626" lon="12.120112503916276"><ele>502.4</ele><time>2026-03-28T15:59:16Z</time></trkpt><trkpt lat="43.983909531021034" lon="12.120045299775455"><ele>501.79999999999995</ele><time>2026-03-28T15:59:18Z</time></trkpt><trkpt lat="43.983828244200936" lon="12.119947063005556"><ele>501.2</ele><time>2026-03-28T15:59:20Z</time></trkpt><trkpt lat="43.98372187037836" lon="12.119859378397182"><ele>500.6</ele><time>2026-03-28T15:59:22Z</time></trkpt><trkpt lat="43.98366202331673" lon="12.119788192837131"><ele>500.0</ele><time>2026-03-28T15:59:23Z</time></trkpt><trkpt lat="43.983594022869624" lon="12.119706095061598"><ele>499.99999999999994</ele><time>2026-03-28T15:59:24Z</time></trkpt><trkpt lat="43.983534817333506" lon="12.119633789846258"><ele>500.0</ele><time>2026-03-28T15:59:25Z</time></trkpt><trkpt lat="43.98347496189735" lon="12.119560971360507"><ele>500.0</ele><time>2026-03-28T15:59:26Z</time></trkpt><trkpt lat="43.98342292324236" lon="12.119509798394825"><ele>500.0</ele><time>2026-03-28T15:59:27Z</time></trkpt><trkpt lat="43.98337055281272" lon="12.119457756011041"><ele>499.99999999999994</ele><time>2026-03-28T15:59:28Z</time></trkpt><trkpt lat="43.98331193741847" lon="12.119402045061369"><ele>500.0</ele><time>2026-03-28T15:59:29Z</time></trkpt><trkpt lat="43.98322445779419" lon="12.119322211752253"><ele>503.8333333333333</ele><time>2026-03-28T15:59:31Z</time></trkpt><trkpt lat="43.983158087763236" lon="12.119262282058981"><ele>507.66666666666663</ele><time>2026-03-28T15:59:33Z</time></trkpt><trkpt lat="43.983096006507424" lon="12.119324824078767"><ele>511.5</ele><time>2026-03-28T15:59:37Z</time></trkpt><trkpt lat="43.983077499307456" lon="12.119418694686175"><ele>515.3333333333334</ele><time>2026-03-28T15:59:39Z</time></trkpt><trkpt lat="43.98300792886349" lon="12.119585692884595"><ele>519.1666666666667</ele><time>2026-03-28T15:59:41Z</time></trkpt><trkpt lat="43.98295039683386" lon="12.119666178659829"><ele>523.0</ele><time>2026-03-28T15:59:42Z</time></trkpt><trkpt lat="43.9828911984885" lon="12.119747046153572"><ele>523.0</ele><time>2026-03-28T15:59:43Z</time></trkpt><trkpt lat="43.98282911487907" lon="12.119843566490902"><ele>523.0</ele><time>2026-03-28T15:59:44Z</time></trkpt><trkpt lat="43.98276758689441" lon="12.119927854884033"><ele>523.0</ele><time>2026-03-28T15:59:45Z</time></trkpt><trkpt lat="43.98270350685065" lon="12.120008340086757"><ele>523.0</ele><time>2026-03-28T15:59:46Z</time></trkpt><trkpt lat="43.982652481925584" lon="12.12008011845941"><ele>523.0</ele><time>2026-03-28T15:59:47Z</time></trkpt><trkpt lat="43.982606007031684" lon="12.120161128946634"><ele>523.0</ele><time>2026-03-28T15:59:48Z</time></trkpt><trkpt lat="43.98255767546589" lon="12.120243029805136"><ele>522.4</ele><time>2026-03-28T15:59:49Z</time></trkpt><trkpt lat="43.98251914832719" lon="12.12032900236382"><ele>521.8</ele><time>2026-03-28T15:59:50Z</time></trkpt><trkpt lat="43.98246337723954" lon="12.120391048482768"><ele>521.2</ele><time>2026-03-28T15:59:51Z</time></trkpt><trkpt lat="43.98241734119907" lon="12.120467154982684"><ele>520.6</ele><time>2026-03-28T15:59:52Z</time></trkpt><trkpt lat="43.98234557325927" lon="12.12064220016061"><ele>520.0</ele><time>2026-03-28T15:59:54Z</time></trkpt><trkpt lat="43.982277146051544" lon="12.120773244810907"><ele>518.75</ele><time>2026-03-28T15:59:55Z</time></trkpt><trkpt lat="43.98221941991885" lon="12.12093162298538"><ele>517.5</ele><time>2026-03-28T15:59:56Z</time></trkpt><trkpt lat="43.98217112956572" lon="12.121086720510938"><ele>516.25</ele><time>2026-03-28T15:59:57Z</time></trkpt><trkpt lat="43.98211045358557" lon="12.121200882734609"><ele>515.0</ele><time>2026-03-28T15:59:58Z</time></trkpt><trkpt lat="43.98205482624779" lon="12.121320090677859"><ele>515.0</ele><time>2026-03-28T15:59:59Z</time></trkpt><trkpt lat="43.98199510796506" lon="12.121438912083379"><ele>515.0</ele><time>2026-03-28T16:00:00Z</time></trkpt><trkpt lat="43.981938855239" lon="12.121551371323799"><ele>515.0</ele><time>2026-03-28T16:00:01Z</time></trkpt><trkpt lat="43.981895313271195" lon="12.121666357410636"><ele>515.0</ele><time>2026-03-28T16:00:02Z</time></trkpt><trkpt lat="43.98185069602872" lon="12.121781989416887"><ele>515.0</ele><time>2026-03-28T16:00:03Z</time></trkpt><trkpt lat="43.98180517398571" lon="12.121898935613372"><ele>516.4</ele><time>2026-03-28T16:00:04Z</time></trkpt><trkpt lat="43.98175076469789" lon="12.12200544905438"><ele>517.8</ele><time>2026-03-28T16:00:05Z</time></trkpt><trkpt lat="43.98168386470792" lon="12.122084652170427"><ele>519.2</ele><time>2026-03-28T16:00:06Z</time></trkpt><trkpt lat="43.981634017617914" lon="12.122190168826076"><ele>520.6</ele><time>2026-03-28T16:00:07Z</time></trkpt><trkpt lat="43.98154614547518" lon="12.122318097840163"><ele>522.0</ele><time>2026-03-28T16:00:08Z</time></trkpt><trkpt lat="43.98147461046484" lon="12.12245568440134"><ele>518.4</ele><time>2026-03-28T16:00:09Z</time></trkpt><trkpt lat="43.9814125570223" lon="12.12258250640507"><ele>514.8000000000001</ele><time>2026-03-28T16:00:10Z</time></trkpt><trkpt lat="43.98135494172869" lon="12.122710914832782"><ele>511.2</ele><time>2026-03-28T16:00:11Z</time></trkpt><trkpt lat="43.981306023206166" lon="12.122834655600117"><ele>507.6</ele><time>2026-03-28T16:00:12Z</time></trkpt><trkpt lat="43.981269213118836" lon="12.122952672115442"><ele>504.0</ele><time>2026-03-28T16:00:13Z</time></trkpt><trkpt lat="43.98122726691299" lon="12.123113804337414"><ele>501.75</ele><time>2026-03-28T16:00:14Z</time></trkpt><trkpt lat="43.98117938223191" lon="12.123290881952693"><ele>499.5</ele><time>2026-03-28T16:00:15Z</time></trkpt><trkpt lat="43.98112910171835" lon="12.12345972290521"><ele>497.25</ele><time>2026-03-28T16:00:16Z</time></trkpt><trkpt lat="43.981082645294" lon="12.1236169570881"><ele>495.0</ele><time>2026-03-28T16:00:17Z</time></trkpt><trkpt lat="43.98104257983265" lon="12.123742325469728"><ele>495.0</ele><time>2026-03-28T16:00:18Z</time></trkpt><trkpt lat="43.9810054514758" lon="12.123856993088651"><ele>495.0</ele><time>2026-03-28T16:00:19Z</time></trkpt><trkpt lat="43.98097002142464" lon="12.123958623182011"><ele>495.0</ele><time>2026-03-28T16:00:20Z</time></trkpt><trkpt lat="43.980928676083316" lon="12.12407002341172"><ele>495.0</ele><time>2026-03-28T16:00:21Z</time></trkpt><trkpt lat="43.980892691270455" lon="12.124157224674697"><ele>495.0</ele><time>2026-03-28T16:00:22Z</time></trkpt><trkpt lat="43.98085396218106" lon="12.124272374417393"><ele>495.0</ele><time>2026-03-28T16:00:24Z</time></trkpt><trkpt lat="43.98095976419504" lon="12.124326975372254"><ele>495.0</ele><time>2026-03-28T16:00:28Z</time></trkpt><trkpt lat="43.981019177606235" lon="12.124282316252662"><ele>495.0</ele><time>2026-03-28T16:00:29Z</time></trkpt><trkpt lat="43.98109505219828" lon="12.124189549318244"><ele>495.0</ele><time>2026-03-28T16:00:30Z</time></trkpt><trkpt lat="43.98117438648217" lon="12.124089266580262"><ele>495.0</ele><time>2026-03-28T16:00:31Z</time></trkpt><trkpt lat="43.98128884575174" lon="12.1240003492089"><ele>495.0</ele><time>2026-03-28T16:00:32Z</time></trkpt><trkpt lat="43.98140483509812" lon="12.123908711799535"><ele>495.0</ele><time>2026-03-28T16:00:33Z</time></trkpt><trkpt lat="43.98152289597703" lon="12.123830186147758"><ele>495.0</ele><time>2026-03-28T16:00:34Z</time></trkpt><trkpt lat="43.981645725776644" lon="12.123747008325642"><ele>495.0</ele><time>2026-03-28T16:00:35Z</time></trkpt><trkpt lat="43.98177369424291" lon="12.123683816062451"><ele>495.0</ele><time>2026-03-28T16:00:36Z</time></trkpt><trkpt lat="43.981899811771136" lon="12.123618504953097"><ele>492.5</ele><time>2026-03-28T16:00:37Z</time></trkpt><trkpt lat="43.98203227616497" lon="12.123556948189078"><ele>490.0</ele><time>2026-03-28T16:00:38Z</time></trkpt><trkpt lat="43.98216575378925" lon="12.123492002392354"><ele>487.5</ele><time>2026-03-28T16:00:39Z</time></trkpt><trkpt lat="43.98231093597429" lon="12.12343822709341"><ele>485.0</ele><time>2026-03-28T16:00:40Z</time></trkpt><trkpt lat="43.982462782837636" lon="12.123380090140563"><ele>485.0</ele><time>2026-03-28T16:00:41Z</time></trkpt><trkpt lat="43.982627398298675" lon="12.123342187282399"><ele>485.0</ele><time>2026-03-28T16:00:42Z</time></trkpt><trkpt lat="43.98278147070601" lon="12.123266542478463"><ele>485.0</ele><time>2026-03-28T16:00:43Z</time></trkpt><trkpt lat="43.98295082511007" lon="12.123208433736194"><ele>485.0</ele><time>2026-03-28T16:00:44Z</time></trkpt><trkpt lat="43.98311650528003" lon="12.123157703755188"><ele>485.0</ele><time>2026-03-28T16:00:45Z</time></trkpt><trkpt lat="43.98326864873004" lon="12.12310521926476"><ele>485.0</ele><time>2026-03-28T16:00:46Z</time></trkpt><trkpt lat="43.983404710327186" lon="12.12306267128135"><ele>482.5</ele><time>2026-03-28T16:00:47Z</time></trkpt><trkpt lat="43.98355408482364" lon="12.123011200346793"><ele>480.0</ele><time>2026-03-28T16:00:48Z</time></trkpt><trkpt lat="43.98368978108013" lon="12.122969291160537"><ele>477.5</ele><time>2026-03-28T16:00:49Z</time></trkpt><trkpt lat="43.983811040922475" lon="12.122912140633364"><ele>475.0</ele><time>2026-03-28T16:00:50Z</time></trkpt><trkpt lat="43.983929658692986" lon="12.122829710678497"><ele>475.0</ele><time>2026-03-28T16:00:51Z</time></trkpt><trkpt lat="43.984060201739666" lon="12.122701382028533"><ele>475.0</ele><time>2026-03-28T16:00:52Z</time></trkpt><trkpt lat="43.984179125744035" lon="12.122581643804734"><ele>475.0</ele><time>2026-03-28T16:00:53Z</time></trkpt><trkpt lat="43.984261147909265" lon="12.122464841526112"><ele>475.0</ele><time>2026-03-28T16:00:54Z</time></trkpt><trkpt lat="43.984354801889864" lon="12.12238946222618"><ele>474.4</ele><time>2026-03-28T16:00:55Z</time></trkpt><trkpt lat="43.984441573473696" lon="12.122347414182551"><ele>473.8</ele><time>2026-03-28T16:00:56Z</time></trkpt><trkpt lat="43.984527800803285" lon="12.122343188354035"><ele>473.20000000000005</ele><time>2026-03-28T16:00:57Z</time></trkpt><trkpt lat="43.98462739263438" lon="12.122374439995543"><ele>472.6</ele><time>2026-03-28T16:00:58Z</time></trkpt><trkpt lat="43.98471831294407" lon="12.122456184515238"><ele>472.0</ele><time>2026-03-28T16:00:59Z</time></trkpt><trkpt lat="43.984790993641184" lon="12.122579512959078"><ele>472.0</ele><time>2026-03-28T16:01:00Z</time></trkpt><trkpt lat="43.98485163880347" lon="12.122729692545727"><ele>472.0</ele><time>2026-03-28T16:01:01Z</time></trkpt><trkpt lat="43.98492370065023" lon="12.122865977523485"><ele>472.0</ele><time>2026-03-28T16:01:02Z</time></trkpt><trkpt lat="43.98502710814558" lon="12.122987333591386"><ele>472.0</ele><time>2026-03-28T16:01:03Z</time></trkpt><trkpt lat="43.98517361958905" lon="12.123102519688736"><ele>469.75</ele><time>2026-03-28T16:01:04Z</time></trkpt><trkpt lat="43.98531400917991" lon="12.123210354425039"><ele>467.5</ele><time>2026-03-28T16:01:05Z</time></trkpt><trkpt lat="43.98544924885697" lon="12.123312231354047"><ele>465.25</ele><time>2026-03-28T16:01:06Z</time></trkpt><trkpt lat="43.985563595170014" lon="12.123394796715685"><ele>463.0</ele><time>2026-03-28T16:01:07Z</time></trkpt><trkpt lat="43.98565102258484" lon="12.123455212509635"><ele>463.0</ele><time>2026-03-28T16:01:08Z</time></trkpt><trkpt lat="43.98576262476022" lon="12.123461336647972"><ele>463.0</ele><time>2026-03-28T16:01:10Z</time></trkpt><trkpt lat="43.98586885836636" lon="12.123344374974886"><ele>463.0</ele><time>2026-03-28T16:01:12Z</time></trkpt><trkpt lat="43.985931233792975" lon="12.123234969892504"><ele>463.0</ele><time>2026-03-28T16:01:13Z</time></trkpt><trkpt lat="43.98601092036896" lon="12.123146300033904"><ele>465.79999999999995</ele><time>2026-03-28T16:01:14Z</time></trkpt><trkpt lat="43.9860771337315" lon="12.123090107692857"><ele>468.59999999999997</ele><time>2026-03-28T16:01:15Z</time></trkpt><trkpt lat="43.98618333832766" lon="12.123054617281634"><ele>471.40000000000003</ele><time>2026-03-28T16:01:17Z</time></trkpt><trkpt lat="43.98632089396105" lon="12.122967273567971"><ele>474.20000000000005</ele><time>2026-03-28T16:01:19Z</time></trkpt><trkpt lat="43.98641994022691" lon="12.12291791855317"><ele>477.0</ele><time>2026-03-28T16:01:20Z</time></trkpt><trkpt lat="43.986522270440865" lon="12.122918824965241"><ele>477.0</ele><time>2026-03-28T16:01:21Z</time></trkpt><trkpt lat="43.98661109990636" lon="12.122927902204408"><ele>477.0</ele><time>2026-03-28T16:01:22Z</time></trkpt><trkpt lat="43.98667516446336" lon="12.122998093715974"><ele>477.0</ele><time>2026-03-28T16:01:23Z</time></trkpt><trkpt lat="43.986732938988375" lon="12.123069938086793"><ele>477.0</ele><time>2026-03-28T16:01:24Z</time></trkpt><trkpt lat="43.98678227049827" lon="12.123176859957288"><ele>477.0</ele><time>2026-03-28T16:01:25Z</time></trkpt><trkpt lat="43.98682442971738" lon="12.123278663911394"><ele>477.0</ele><time>2026-03-28T16:01:26Z</time></trkpt><trkpt lat="43.986865711277105" lon="12.123380797362742"><ele>474.3333333333333</ele><time>2026-03-28T16:01:27Z</time></trkpt><trkpt lat="43.98691671514145" lon="12.123458911985026"><ele>471.66666666666663</ele><time>2026-03-28T16:01:28Z</time></trkpt><trkpt lat="43.986966202580845" lon="12.123536640939017"><ele>469.0</ele><time>2026-03-28T16:01:29Z</time></trkpt><trkpt lat="43.98702183005331" lon="12.1236177609158"><ele>466.3333333333333</ele><time>2026-03-28T16:01:30Z</time></trkpt><trkpt lat="43.987122698605674" lon="12.123637007953828"><ele>463.66666666666663</ele><time>2026-03-28T16:01:31Z</time></trkpt><trkpt lat="43.98722733801764" lon="12.12367048584133"><ele>461.0</ele><time>2026-03-28T16:01:32Z</time></trkpt><trkpt lat="43.987329399236664" lon="12.123706348584895"><ele>461.0</ele><time>2026-03-28T16:01:33Z</time></trkpt><trkpt lat="43.98742409268934" lon="12.123751498991352"><ele>461.0</ele><time>2026-03-28T16:01:34Z</time></trkpt><trkpt lat="43.98751074372787" lon="12.123750109780433"><ele>461.0</ele><time>2026-03-28T16:01:35Z</time></trkpt><trkpt lat="43.987585496299005" lon="12.123760186504713"><ele>461.0</ele><time>2026-03-28T16:01:36Z</time></trkpt><trkpt lat="43.98766266605199" lon="12.12365064415388"><ele>461.0</ele><time>2026-03-28T16:01:37Z</time></trkpt><trkpt lat="43.98774675413793" lon="12.123554421152635"><ele>458.75</ele><time>2026-03-28T16:01:38Z</time></trkpt><trkpt lat="43.987837269639144" lon="12.123456732367409"><ele>456.5</ele><time>2026-03-28T16:01:39Z</time></trkpt><trkpt lat="43.987937341262445" lon="12.123338221773329"><ele>454.25</ele><time>2026-03-28T16:01:40Z</time></trkpt><trkpt lat="43.98803966320077" lon="12.123225427573527"><ele>452.0</ele><time>2026-03-28T16:01:41Z</time></trkpt><trkpt lat="43.9881358099407" lon="12.123134405086564"><ele>452.0</ele><time>2026-03-28T16:01:42Z</time></trkpt><trkpt lat="43.988245477755676" lon="12.12307111723208"><ele>452.0</ele><time>2026-03-28T16:01:43Z</time></trkpt><trkpt lat="43.988370274951805" lon="12.123030389020764"><ele>452.0</ele><time>2026-03-28T16:01:44Z</time></trkpt><trkpt lat="43.98849175833537" lon="12.122988091486132"><ele>452.0</ele><time>2026-03-28T16:01:45Z</time></trkpt><trkpt lat="43.988591811848714" lon="12.122927525843199"><ele>449.8</ele><time>2026-03-28T16:01:46Z</time></trkpt><trkpt lat="43.988675901114284" lon="12.122847340008326"><ele>447.6</ele><time>2026-03-28T16:01:47Z</time></trkpt><trkpt lat="43.988763910896104" lon="12.12272219835312"><ele>445.40000000000003</ele><time>2026-03-28T16:01:48Z</time></trkpt><trkpt lat="43.988859774553276" lon="12.122612166631024"><ele>443.20000000000005</ele><time>2026-03-28T16:01:49Z</time></trkpt><trkpt lat="43.98893735009813" lon="12.122533839060967"><ele>441.0</ele><time>2026-03-28T16:01:50Z</time></trkpt><trkpt lat="43.989004172073685" lon="12.12249561065188"><ele>441.0</ele><time>2026-03-28T16:01:51Z</time></trkpt><trkpt lat="43.989082175034184" lon="12.122464154388705"><ele>441.0</ele><time>2026-03-28T16:01:52Z</time></trkpt><trkpt lat="43.98918146353105" lon="12.122468768763262"><ele>441.0</ele><time>2026-03-28T16:01:53Z</time></trkpt><trkpt lat="43.989283828962556" lon="12.122484067697588"><ele>441.0</ele><time>2026-03-28T16:01:54Z</time></trkpt><trkpt lat="43.98937613201699" lon="12.122508069708468"><ele>441.0</ele><time>2026-03-28T16:01:55Z</time></trkpt><trkpt lat="43.98946072786315" lon="12.122545951552643"><ele>440.0</ele><time>2026-03-28T16:01:56Z</time></trkpt><trkpt lat="43.98953680559791" lon="12.122601256182056"><ele>439.0</ele><time>2026-03-28T16:01:57Z</time></trkpt><trkpt lat="43.98961901493994" lon="12.12267153647691"><ele>438.0</ele><time>2026-03-28T16:01:58Z</time></trkpt><trkpt lat="43.98971431723668" lon="12.122804276165226"><ele>437.0</ele><time>2026-03-28T16:01:59Z</time></trkpt><trkpt lat="43.98978844159666" lon="12.122950944470025"><ele>436.0</ele><time>2026-03-28T16:02:00Z</time></trkpt><trkpt lat="43.989869121493605" lon="12.123106621876271"><ele>434.5</ele><time>2026-03-28T16:02:01Z</time></trkpt><trkpt lat="43.9899491469163" lon="12.123241847170815"><ele>433.0</ele><time>2026-03-28T16:02:02Z</time></trkpt><trkpt lat="43.9900147684865" lon="12.123381660009256"><ele>431.5</ele><time>2026-03-28T16:02:03Z</time></trkpt><trkpt lat="43.99007697345153" lon="12.123517928302686"><ele>430.0</ele><time>2026-03-28T16:02:04Z</time></trkpt><trkpt lat="43.99013710227713" lon="12.123634862477523"><ele>429.2</ele><time>2026-03-28T16:02:05Z</time></trkpt><trkpt lat="43.99021072438561" lon="12.123731353144477"><ele>428.4</ele><time>2026-03-28T16:02:06Z</time></trkpt><trkpt lat="43.990305528081855" lon="12.123784393884625"><ele>427.6</ele><time>2026-03-28T16:02:07Z</time></trkpt><trkpt lat="43.99040824482033" lon="12.123791258684706"><ele>426.8</ele><time>2026-03-28T16:02:08Z</time></trkpt><trkpt lat="43.99052338636514" lon="12.123759430734621"><ele>426.0</ele><time>2026-03-28T16:02:09Z</time></trkpt><trkpt lat="43.99066168690403" lon="12.123690205931668"><ele>426.0</ele><time>2026-03-28T16:02:10Z</time></trkpt><trkpt lat="43.990811079398334" lon="12.123589056084587"><ele>426.0</ele><time>2026-03-28T16:02:11Z</time></trkpt><trkpt lat="43.99094017521291" lon="12.123490072459047"><ele>426.0</ele><time>2026-03-28T16:02:12Z</time></trkpt><trkpt lat="43.99102976979937" lon="12.123387886625697"><ele>426.0</ele><time>2026-03-28T16:02:13Z</time></trkpt><trkpt lat="43.99111254561811" lon="12.123286603495565"><ele>416.0</ele><time>2026-03-28T16:02:14Z</time></trkpt><trkpt lat="43.99116779240006" lon="12.123161282970356"><ele>406.0</ele><time>2026-03-28T16:02:15Z</time></trkpt><trkpt lat="43.991202210310604" lon="12.123003856573595"><ele>396.0</ele><time>2026-03-28T16:02:16Z</time></trkpt><trkpt lat="43.99120336819753" lon="12.122818747677911"><ele>386.0</ele><time>2026-03-28T16:02:17Z</time></trkpt><trkpt lat="43.99117957575773" lon="12.122590317527285"><ele>385.3333333333333</ele><time>2026-03-28T16:02:18Z</time></trkpt><trkpt lat="43.991151670121454" lon="12.122345595934627"><ele>384.66666666666663</ele><time>2026-03-28T16:02:19Z</time></trkpt><trkpt lat="43.99110369387349" lon="12.122118872423519"><ele>384.0</ele><time>2026-03-28T16:02:20Z</time></trkpt><trkpt lat="43.99105808122743" lon="12.121910652783201"><ele>384.0</ele><time>2026-03-28T16:02:21Z</time></trkpt><trkpt lat="43.99099965159122" lon="12.12171093245275"><ele>384.0</ele><time>2026-03-28T16:02:22Z</time></trkpt><trkpt lat="43.9909478075877" lon="12.121525775325644"><ele>384.0</ele><time>2026-03-28T16:02:23Z</time></trkpt><trkpt lat="43.990903729438315" lon="12.121361706200547"><ele>384.0</ele><time>2026-03-28T16:02:24Z</time></trkpt><trkpt lat="43.990894014238854" lon="12.121210886446015"><ele>385.2</ele><time>2026-03-28T16:02:25Z</time></trkpt><trkpt lat="43.99088010171505" lon="12.1210667925139"><ele>386.4</ele><time>2026-03-28T16:02:26Z</time></trkpt><trkpt lat="43.99088244201132" lon="12.120928634861542"><ele>387.6</ele><time>2026-03-28T16:02:27Z</time></trkpt><trkpt lat="43.990911909498024" lon="12.120808612016434"><ele>388.8</ele><time>2026-03-28T16:02:28Z</time></trkpt><trkpt lat="43.99095668172675" lon="12.120709207081491"><ele>390.0</ele><time>2026-03-28T16:02:29Z</time></trkpt><trkpt lat="43.99101435069571" lon="12.120629929687608"><ele>391.75</ele><time>2026-03-28T16:02:30Z</time></trkpt><trkpt lat="43.99113177827291" lon="12.120618626944134"><ele>393.5</ele><time>2026-03-28T16:02:31Z</time></trkpt><trkpt lat="43.991273952553186" lon="12.120618646204072"><ele>395.25</ele><time>2026-03-28T16:02:32Z</time></trkpt><trkpt lat="43.991433724849486" lon="12.120593551962243"><ele>397.0</ele><time>2026-03-28T16:02:33Z</time></trkpt><trkpt lat="43.99158486362251" lon="12.120547479863339"><ele>391.75</ele><time>2026-03-28T16:02:34Z</time></trkpt><trkpt lat="43.99170998185472" lon="12.12052610323646"><ele>386.5</ele><time>2026-03-28T16:02:35Z</time></trkpt><trkpt lat="43.991815949305774" lon="12.120490510144037"><ele>381.25</ele><time>2026-03-28T16:02:36Z</time></trkpt><trkpt lat="43.99190375469864" lon="12.120417415351088"><ele>376.0</ele><time>2026-03-28T16:02:37Z</time></trkpt><trkpt lat="43.99199128832025" lon="12.120298100257775"><ele>376.0</ele><time>2026-03-28T16:02:38Z</time></trkpt><trkpt lat="43.99207444716916" lon="12.120153376095073"><ele>376.0</ele><time>2026-03-28T16:02:39Z</time></trkpt><trkpt lat="43.992166471989826" lon="12.119976560340632"><ele>376.0</ele><time>2026-03-28T16:02:40Z</time></trkpt><trkpt lat="43.992251336392506" lon="12.119796907330736"><ele>376.0</ele><time>2026-03-28T16:02:41Z</time></trkpt><trkpt lat="43.99232540041074" lon="12.119617911091447"><ele>377.25</ele><time>2026-03-28T16:02:42Z</time></trkpt><trkpt lat="43.992397979853465" lon="12.119457059560581"><ele>378.5</ele><time>2026-03-28T16:02:43Z</time></trkpt><trkpt lat="43.99246584583963" lon="12.119308756728659"><ele>379.75</ele><time>2026-03-28T16:02:44Z</time></trkpt><trkpt lat="43.99251991971743" lon="12.119159436225921"><ele>381.0</ele><time>2026-03-28T16:02:45Z</time></trkpt><trkpt lat="43.9925516754271" lon="12.119013696876742"><ele>379.20000000000005</ele><time>2026-03-28T16:02:46Z</time></trkpt><trkpt lat="43.99255222431316" lon="12.118854575302914"><ele>377.40000000000003</ele><time>2026-03-28T16:02:47Z</time></trkpt><trkpt lat="43.99252321775868" lon="12.11870991865747"><ele>375.6</ele><time>2026-03-28T16:02:48Z</time></trkpt><trkpt lat="43.99246174442017" lon="12.118595555677349"><ele>373.8</ele><time>2026-03-28T16:02:49Z</time></trkpt><trkpt lat="43.99236744414228" lon="12.118499964375276"><ele>372.0</ele><time>2026-03-28T16:02:50Z</time></trkpt><trkpt lat="43.992250088017414" lon="12.11844955902916"><ele>372.0</ele><time>2026-03-28T16:02:51Z</time></trkpt><trkpt lat="43.992106980770544" lon="12.118433286976487"><ele>372.0</ele><time>2026-03-28T16:02:52Z</time></trkpt><trkpt lat="43.991950023345204" lon="12.11842983393699"><ele>372.0</ele><time>2026-03-28T16:02:53Z</time></trkpt><trkpt lat="43.99181017057237" lon="12.118430905497897"><ele>372.0</ele><time>2026-03-28T16:02:54Z</time></trkpt><trkpt lat="43.991694991958695" lon="12.118438349196152"><ele>371.25</ele><time>2026-03-28T16:02:55Z</time></trkpt><trkpt lat="43.99158965963113" lon="12.118497486452991"><ele>370.5</ele><time>2026-03-28T16:02:56Z</time></trkpt><trkpt lat="43.9914971400689" lon="12.11858998950731"><ele>369.75</ele><time>2026-03-28T16:02:57Z</time></trkpt><trkpt lat="43.991419067148854" lon="12.118724002323841"><ele>369.0</ele><time>2026-03-28T16:02:58Z</time></trkpt><trkpt lat="43.99136533323234" lon="12.11885639363563"><ele>369.0</ele><time>2026-03-28T16:02:59Z</time></trkpt><trkpt lat="43.99131828562361" lon="12.118962347206534"><ele>369.0</ele><time>2026-03-28T16:03:00Z</time></trkpt><trkpt lat="43.99124002757106" lon="12.119055232332022"><ele>369.0</ele><time>2026-03-28T16:03:02Z</time></trkpt><trkpt lat="43.99115922224768" lon="12.119003265528553"><ele>369.0</ele><time>2026-03-28T16:03:04Z</time></trkpt><trkpt lat="43.99114678858527" lon="12.118834883838078"><ele>369.0</ele><time>2026-03-28T16:03:06Z</time></trkpt><trkpt lat="43.99118828528352" lon="12.118754185795048"><ele>369.0</ele><time>2026-03-28T16:03:07Z</time></trkpt><trkpt lat="43.99123734276792" lon="12.118630956587452"><ele>369.0</ele><time>2026-03-28T16:03:08Z</time></trkpt><trkpt lat="43.99128362221512" lon="12.118462207979812"><ele>369.0</ele><time>2026-03-28T16:03:09Z</time></trkpt><trkpt lat="43.99135600980748" lon="12.118336737697136"><ele>369.0</ele><time>2026-03-28T16:03:10Z</time></trkpt><trkpt lat="43.99142016394143" lon="12.118225203123759"><ele>367.2</ele><time>2026-03-28T16:03:11Z</time></trkpt><trkpt lat="43.991499102594425" lon="12.118150714379981"><ele>365.4</ele><time>2026-03-28T16:03:12Z</time></trkpt><trkpt lat="43.99159093379953" lon="12.118081507668128"><ele>363.6</ele><time>2026-03-28T16:03:13Z</time></trkpt><trkpt lat="43.99169705396247" lon="12.11801675502155"><ele>361.8</ele><time>2026-03-28T16:03:14Z</time></trkpt><trkpt lat="43.991789364491154" lon="12.11791386293017"><ele>360.0</ele><time>2026-03-28T16:03:15Z</time></trkpt><trkpt lat="43.991877781665764" lon="12.117819429329451"><ele>360.0</ele><time>2026-03-28T16:03:16Z</time></trkpt><trkpt lat="43.99191549898149" lon="12.117646516411362"><ele>360.0</ele><time>2026-03-28T16:03:17Z</time></trkpt><trkpt lat="43.991942749470205" lon="12.117465105087243"><ele>360.0</ele><time>2026-03-28T16:03:18Z</time></trkpt><trkpt lat="43.99197557399809" lon="12.117291671185956"><ele>360.0</ele><time>2026-03-28T16:03:19Z</time></trkpt><trkpt lat="43.99201797625208" lon="12.117119750938333"><ele>358.0</ele><time>2026-03-28T16:03:20Z</time></trkpt><trkpt lat="43.99207722823053" lon="12.116954651208706"><ele>356.0</ele><time>2026-03-28T16:03:21Z</time></trkpt><trkpt lat="43.99210678342062" lon="12.116778689706939"><ele>354.0</ele><time>2026-03-28T16:03:22Z</time></trkpt><trkpt lat="43.99210647862542" lon="12.116602045149309"><ele>352.0</ele><time>2026-03-28T16:03:23Z</time></trkpt><trkpt lat="43.992126416775875" lon="12.116445388626095"><ele>349.20000000000005</ele><time>2026-03-28T16:03:24Z</time></trkpt><trkpt lat="43.99216749976757" lon="12.116332388219401"><ele>346.4</ele><time>2026-03-28T16:03:25Z</time></trkpt><trkpt lat="43.99221889680857" lon="12.116230759723333"><ele>343.6</ele><time>2026-03-28T16:03:26Z</time></trkpt><trkpt lat="43.992312875064606" lon="12.116144775080187"><ele>340.79999999999995</ele><time>2026-03-28T16:03:27Z</time></trkpt><trkpt lat="43.99244548008753" lon="12.116048484108775"><ele>338.0</ele><time>2026-03-28T16:03:28Z</time></trkpt><trkpt lat="43.99256898504246" lon="12.115899207785349"><ele>336.5</ele><time>2026-03-28T16:03:29Z</time></trkpt><trkpt lat="43.99267651396983" lon="12.1157632185431"><ele>335.0</ele><time>2026-03-28T16:03:30Z</time></trkpt><trkpt lat="43.99276173600821" lon="12.115614647119052"><ele>333.5</ele><time>2026-03-28T16:03:31Z</time></trkpt><trkpt lat="43.99281675380724" lon="12.115459811423852"><ele>332.0</ele><time>2026-03-28T16:03:32Z</time></trkpt><trkpt lat="43.992837061194464" lon="12.115259305810623"><ele>330.25</ele><time>2026-03-28T16:03:33Z</time></trkpt><trkpt lat="43.99281972125497" lon="12.115051464727534"><ele>328.5</ele><time>2026-03-28T16:03:34Z</time></trkpt><trkpt lat="43.9927929422955" lon="12.114868917458418"><ele>326.75</ele><time>2026-03-28T16:03:35Z</time></trkpt><trkpt lat="43.99280916484017" lon="12.114722978072388"><ele>325.0</ele><time>2026-03-28T16:03:36Z</time></trkpt><trkpt lat="43.99281398447444" lon="12.114577671171084"><ele>323.2</ele><time>2026-03-28T16:03:37Z</time></trkpt><trkpt lat="43.99287674883902" lon="12.114454698943351"><ele>321.4</ele><time>2026-03-28T16:03:38Z</time></trkpt><trkpt lat="43.992950417865" lon="12.114348469418903"><ele>319.6</ele><time>2026-03-28T16:03:39Z</time></trkpt><trkpt lat="43.99300967653192" lon="12.11430606807527"><ele>317.8</ele><time>2026-03-28T16:03:40Z</time></trkpt><trkpt lat="43.99314132877204" lon="12.114306293581121"><ele>316.0</ele><time>2026-03-28T16:03:42Z</time></trkpt><trkpt lat="43.99322410497537" lon="12.114404305416695"><ele>316.0</ele><time>2026-03-28T16:03:43Z</time></trkpt><trkpt lat="43.99333094024212" lon="12.114500716981778"><ele>316.0</ele><time>2026-03-28T16:03:44Z</time></trkpt><trkpt lat="43.99345305442443" lon="12.11459112406392"><ele>316.0</ele><time>2026-03-28T16:03:45Z</time></trkpt><trkpt lat="43.99357477118414" lon="12.114704070393055"><ele>316.0</ele><time>2026-03-28T16:03:46Z</time></trkpt><trkpt lat="43.99369245156854" lon="12.11481352016645"><ele>312.5</ele><time>2026-03-28T16:03:47Z</time></trkpt><trkpt lat="43.993801186058526" lon="12.11492679505845"><ele>309.0</ele><time>2026-03-28T16:03:48Z</time></trkpt><trkpt lat="43.99391089314324" lon="12.115031279711635"><ele>305.5</ele><time>2026-03-28T16:03:49Z</time></trkpt><trkpt lat="43.994008651353944" lon="12.115151748049769"><ele>302.0</ele><time>2026-03-28T16:03:50Z</time></trkpt><trkpt lat="43.99409903304613" lon="12.115279012467285"><ele>302.0</ele><time>2026-03-28T16:03:51Z</time></trkpt><trkpt lat="43.99416815612185" lon="12.115407568301803"><ele>302.0</ele><time>2026-03-28T16:03:52Z</time></trkpt><trkpt lat="43.994214378847666" lon="12.115552302375896"><ele>302.0</ele><time>2026-03-28T16:03:53Z</time></trkpt><trkpt lat="43.99423163798541" lon="12.115716974749699"><ele>302.0</ele><time>2026-03-28T16:03:54Z</time></trkpt><trkpt lat="43.99423176020392" lon="12.115862894921849"><ele>296.8</ele><time>2026-03-28T16:03:55Z</time></trkpt><trkpt lat="43.994232989078064" lon="12.115972039423129"><ele>291.6</ele><time>2026-03-28T16:03:56Z</time></trkpt><trkpt lat="43.99426826369055" lon="12.116049204127817"><ele>286.40000000000003</ele><time>2026-03-28T16:03:57Z</time></trkpt><trkpt lat="43.994390846984125" lon="12.11609515006881"><ele>281.2</ele><time>2026-03-28T16:03:59Z</time></trkpt><trkpt lat="43.99444065952858" lon="12.115986392520565"><ele>276.0</ele><time>2026-03-28T16:04:00Z</time></trkpt><trkpt lat="43.99445907758763" lon="12.115860581602158"><ele>273.3333333333333</ele><time>2026-03-28T16:04:01Z</time></trkpt><trkpt lat="43.99444390554594" lon="12.115700802896946"><ele>270.66666666666663</ele><time>2026-03-28T16:04:02Z</time></trkpt><trkpt lat="43.994423192463856" lon="12.115477102945933"><ele>268.0</ele><time>2026-03-28T16:04:03Z</time></trkpt><trkpt lat="43.99441460580358" lon="12.115227253277869"><ele>268.0</ele><time>2026-03-28T16:04:04Z</time></trkpt><trkpt lat="43.99439785161123" lon="12.11499577775149"><ele>268.0</ele><time>2026-03-28T16:04:05Z</time></trkpt><trkpt lat="43.994352743102134" lon="12.114789040004263"><ele>268.0</ele><time>2026-03-28T16:04:06Z</time></trkpt><trkpt lat="43.99429169487509" lon="12.114594993799006"><ele>271.5</ele><time>2026-03-28T16:04:07Z</time></trkpt><trkpt lat="43.99421183027332" lon="12.114424092088933"><ele>275.0</ele><time>2026-03-28T16:04:08Z</time></trkpt><trkpt lat="43.994156312057605" lon="12.114241513546009"><ele>278.5</ele><time>2026-03-28T16:04:09Z</time></trkpt><trkpt lat="43.994116035838346" lon="12.114058519072614"><ele>282.0</ele><time>2026-03-28T16:04:10Z</time></trkpt><trkpt lat="43.99409993550955" lon="12.113875309090753"><ele>282.0</ele><time>2026-03-28T16:04:11Z</time></trkpt><trkpt lat="43.994105169447856" lon="12.113694172860857"><ele>282.0</ele><time>2026-03-28T16:04:12Z</time></trkpt><trkpt lat="43.99415035112662" lon="12.113530626553947"><ele>282.0</ele><time>2026-03-28T16:04:13Z</time></trkpt><trkpt lat="43.99422756825709" lon="12.113354392848057"><ele>282.0</ele><time>2026-03-28T16:04:14Z</time></trkpt><trkpt lat="43.99427965912313" lon="12.11316934233411"><ele>272.75</ele><time>2026-03-28T16:04:15Z</time></trkpt><trkpt lat="43.994289557302665" lon="12.11297247666067"><ele>263.5</ele><time>2026-03-28T16:04:16Z</time></trkpt><trkpt lat="43.994315283179645" lon="12.112788271146872"><ele>254.25</ele><time>2026-03-28T16:04:17Z</time></trkpt><trkpt lat="43.99431736681691" lon="12.112621100476495"><ele>245.0</ele><time>2026-03-28T16:04:18Z</time></trkpt><trkpt lat="43.994330568475576" lon="12.11251183335422"><ele>245.0</ele><time>2026-03-28T16:04:19Z</time></trkpt><trkpt lat="43.99438733067507" lon="12.112428279721257"><ele>245.0</ele><time>2026-03-28T16:04:21Z</time></trkpt><trkpt lat="43.99449332309755" lon="12.112557332206757"><ele>245.0</ele><time>2026-03-28T16:04:23Z</time></trkpt><trkpt lat="43.99448018131964" lon="12.112686074943761"><ele>245.0</ele><time>2026-03-28T16:04:24Z</time></trkpt><trkpt lat="43.994494059757834" lon="12.112833216520114"><ele>245.0</ele><time>2026-03-28T16:04:25Z</time></trkpt><trkpt lat="43.994485975463995" lon="12.112975753813094"><ele>245.00000000000003</ele><time>2026-03-28T16:04:26Z</time></trkpt><trkpt lat="43.99447195940144" lon="12.113100370085409"><ele>245.0</ele><time>2026-03-28T16:04:27Z</time></trkpt><trkpt lat="43.99445247538216" lon="12.11321136426356"><ele>245.0</ele><time>2026-03-28T16:04:28Z</time></trkpt><trkpt lat="43.9944349558886" lon="12.11331773818519"><ele>245.0</ele><time>2026-03-28T16:04:29Z</time></trkpt><trkpt lat="43.99440178689451" lon="12.113459485116625"><ele>245.00000000000003</ele><time>2026-03-28T16:04:31Z</time></trkpt><trkpt lat="43.99443144943423" lon="12.113569587493808"><ele>245.0</ele><time>2026-03-28T16:04:33Z</time></trkpt><trkpt lat="43.99453206051754" lon="12.11358256074145"><ele>245.0</ele><time>2026-03-28T16:04:35Z</time></trkpt><trkpt lat="43.99458879914563" lon="12.113478362084255"><ele>245.0</ele><time>2026-03-28T16:04:36Z</time></trkpt><trkpt lat="43.99461396942167" lon="12.113290908153804"><ele>245.0</ele><time>2026-03-28T16:04:37Z</time></trkpt><trkpt lat="43.994649639350584" lon="12.11314107122655"><ele>245.0</ele><time>2026-03-28T16:04:38Z</time></trkpt><trkpt lat="43.99467258113824" lon="12.11298981803138"><ele>245.0</ele><time>2026-03-28T16:04:39Z</time></trkpt><trkpt lat="43.99470118191197" lon="12.112844585331572"><ele>245.0</ele><time>2026-03-28T16:04:40Z</time></trkpt><trkpt lat="43.99471319522075" lon="12.112680951258264"><ele>245.0</ele><time>2026-03-28T16:04:41Z</time></trkpt><trkpt lat="43.99471759004586" lon="12.112526755130231"><ele>245.0</ele><time>2026-03-28T16:04:42Z</time></trkpt><trkpt lat="43.994705251807844" lon="12.112379198469112"><ele>245.0</ele><time>2026-03-28T16:04:43Z</time></trkpt><trkpt lat="43.99468599717627" lon="12.112228497630705"><ele>242.75</ele><time>2026-03-28T16:04:44Z</time></trkpt><trkpt lat="43.994654473690396" lon="12.112060249322806"><ele>240.5</ele><time>2026-03-28T16:04:45Z</time></trkpt><trkpt lat="43.99463222607043" lon="12.11190481750507"><ele>238.25</ele><time>2026-03-28T16:04:46Z</time></trkpt><trkpt lat="43.99459197133702" lon="12.111762978987159"><ele>236.0</ele><time>2026-03-28T16:04:47Z</time></trkpt><trkpt lat="43.99454776088843" lon="12.111629714566517"><ele>233.0</ele><time>2026-03-28T16:04:48Z</time></trkpt><trkpt lat="43.994499791452874" lon="12.11150300746697"><ele>230.00000000000003</ele><time>2026-03-28T16:04:49Z</time></trkpt><trkpt lat="43.99443408415354" lon="12.111400899487164"><ele>227.00000000000003</ele><time>2026-03-28T16:04:50Z</time></trkpt><trkpt lat="43.99438343008441" lon="12.11128501454757"><ele>224.0</ele><time>2026-03-28T16:04:51Z</time></trkpt><trkpt lat="43.99431861289935" lon="12.111184975446436"><ele>221.0</ele><time>2026-03-28T16:04:52Z</time></trkpt><trkpt lat="43.994256295704545" lon="12.11108419371255"><ele>221.00000000000003</ele><time>2026-03-28T16:04:53Z</time></trkpt><trkpt lat="43.99420113559926" lon="12.110987801533344"><ele>221.0</ele><time>2026-03-28T16:04:54Z</time></trkpt><trkpt lat="43.99415118459295" lon="12.110888991467117"><ele>221.0</ele><time>2026-03-28T16:04:55Z</time></trkpt><trkpt lat="43.99409486852091" lon="12.110806813159373"><ele>221.0</ele><time>2026-03-28T16:04:56Z</time></trkpt><trkpt lat="43.99404421347654" lon="12.11071661741852"><ele>221.00000000000003</ele><time>2026-03-28T16:04:57Z</time></trkpt><trkpt lat="43.99401702931305" lon="12.110620975529683"><ele>221.0</ele><time>2026-03-28T16:04:58Z</time></trkpt><trkpt lat="43.994047374496866" lon="12.110518171404578"><ele>219.50000000000003</ele><time>2026-03-28T16:04:59Z</time></trkpt><trkpt lat="43.99409633258257" lon="12.110435552045768"><ele>218.0</ele><time>2026-03-28T16:05:00Z</time></trkpt><trkpt lat="43.99415842079082" lon="12.11036312356969"><ele>216.5</ele><time>2026-03-28T16:05:01Z</time></trkpt><trkpt lat="43.99424951865457" lon="12.110372092316153"><ele>215.0</ele><time>2026-03-28T16:05:02Z</time></trkpt><trkpt lat="43.99432337303587" lon="12.110441769911171"><ele>213.50000000000003</ele><time>2026-03-28T16:05:03Z</time></trkpt><trkpt lat="43.99439209930216" lon="12.110532851244598"><ele>212.0</ele><time>2026-03-28T16:05:04Z</time></trkpt><trkpt lat="43.99445453378035" lon="12.110637571288178"><ele>213.8</ele><time>2026-03-28T16:05:05Z</time></trkpt><trkpt lat="43.99447606596419" lon="12.110768042427337"><ele>215.6</ele><time>2026-03-28T16:05:06Z</time></trkpt><trkpt lat="43.9944752397285" lon="12.110870487353388"><ele>217.40000000000003</ele><time>2026-03-28T16:05:07Z</time></trkpt><trkpt lat="43.99450744882306" lon="12.111012798488835"><ele>219.20000000000002</ele><time>2026-03-28T16:05:09Z</time></trkpt><trkpt lat="43.99462370614536" lon="12.110991129525493"><ele>221.0</ele><time>2026-03-28T16:05:11Z</time></trkpt><trkpt lat="43.99466278364016" lon="12.110879346091158"><ele>221.00000000000003</ele><time>2026-03-28T16:05:12Z</time></trkpt><trkpt lat="43.99462878733704" lon="12.110760473374762"><ele>221.0</ele><time>2026-03-28T16:05:13Z</time></trkpt><trkpt lat="43.994628492633474" lon="12.110646205104135"><ele>221.0</ele><time>2026-03-28T16:05:14Z</time></trkpt><trkpt lat="43.994602224090286" lon="12.110537944679443"><ele>221.0</ele><time>2026-03-28T16:05:15Z</time></trkpt><trkpt lat="43.99459032679858" lon="12.110425815801907"><ele>221.00000000000003</ele><time>2026-03-28T16:05:16Z</time></trkpt><trkpt lat="43.99457098592242" lon="12.110318025946416"><ele>221.0</ele><time>2026-03-28T16:05:17Z</time></trkpt><trkpt lat="43.994543180001756" lon="12.110215602113136"><ele>219.50000000000003</ele><time>2026-03-28T16:05:18Z</time></trkpt><trkpt lat="43.994494099316455" lon="12.110139682295845"><ele>218.0</ele><time>2026-03-28T16:05:19Z</time></trkpt><trkpt lat="43.9944167330816" lon="12.110099440896951"><ele>216.5</ele><time>2026-03-28T16:05:20Z</time></trkpt><trkpt lat="43.99431050474959" lon="12.110093073148908"><ele>215.0</ele><time>2026-03-28T16:05:21Z</time></trkpt><trkpt lat="43.99423629581471" lon="12.11006661933765"><ele>213.50000000000003</ele><time>2026-03-28T16:05:22Z</time></trkpt><trkpt lat="43.994149747356225" lon="12.110022925546916"><ele>212.0</ele><time>2026-03-28T16:05:24Z</time></trkpt><trkpt lat="43.99414964548326" lon="12.109917244942428"><ele>207.0</ele><time>2026-03-28T16:05:26Z</time></trkpt><trkpt lat="43.994211006288566" lon="12.109860482067274"><ele>202.0</ele><time>2026-03-28T16:05:27Z</time></trkpt><trkpt lat="43.994302052365484" lon="12.109835623968758"><ele>197.0</ele><time>2026-03-28T16:05:28Z</time></trkpt><trkpt lat="43.99439539699915" lon="12.109835513791438"><ele>192.0</ele><time>2026-03-28T16:05:29Z</time></trkpt><trkpt lat="43.994504224773536" lon="12.10983929804893"><ele>187.0</ele><time>2026-03-28T16:05:30Z</time></trkpt><trkpt lat="43.994603437299226" lon="12.109864501913169"><ele>193.25</ele><time>2026-03-28T16:05:31Z</time></trkpt><trkpt lat="43.99469207000559" lon="12.109924077155503"><ele>199.5</ele><time>2026-03-28T16:05:32Z</time></trkpt><trkpt lat="43.99476919101092" lon="12.110026540932038"><ele>205.75</ele><time>2026-03-28T16:05:33Z</time></trkpt><trkpt lat="43.99483867236524" lon="12.110167232701013"><ele>212.0</ele><time>2026-03-28T16:05:34Z</time></trkpt><trkpt lat="43.99490582481028" lon="12.11030903192435"><ele>212.0</ele><time>2026-03-28T16:05:35Z</time></trkpt><trkpt lat="43.99497887009389" lon="12.110436137098207"><ele>212.0</ele><time>2026-03-28T16:05:36Z</time></trkpt><trkpt lat="43.995047646468166" lon="12.110562672775696"><ele>212.0</ele><time>2026-03-28T16:05:37Z</time></trkpt><trkpt lat="43.995114735822284" lon="12.11068754177612"><ele>212.0</ele><time>2026-03-28T16:05:38Z</time></trkpt><trkpt lat="43.99517575588854" lon="12.110807080148687"><ele>212.0</ele><time>2026-03-28T16:05:39Z</time></trkpt><trkpt lat="43.99525131609487" lon="12.110918997813894"><ele>210.00000000000003</ele><time>2026-03-28T16:05:40Z</time></trkpt><trkpt lat="43.995323035789546" lon="12.11102133703125"><ele>208.0</ele><time>2026-03-28T16:05:41Z</time></trkpt><trkpt lat="43.9954013127246" lon="12.111106885724743"><ele>206.0</ele><time>2026-03-28T16:05:42Z</time></trkpt><trkpt lat="43.99547676496657" lon="12.1111751393889"><ele>204.0</ele><time>2026-03-28T16:05:43Z</time></trkpt><trkpt lat="43.99554314864607" lon="12.111235565021541"><ele>202.00000000000003</ele><time>2026-03-28T16:05:44Z</time></trkpt><trkpt lat="43.995604666967495" lon="12.111272902623753"><ele>200.0</ele><time>2026-03-28T16:05:45Z</time></trkpt><trkpt lat="43.99572074671424" lon="12.11125350080363"><ele>200.0</ele><time>2026-03-28T16:05:47Z</time></trkpt><trkpt lat="43.99575199065541" lon="12.111170816974742"><ele>200.0</ele><time>2026-03-28T16:05:48Z</time></trkpt><trkpt lat="43.99576030090647" lon="12.111058336275812"><ele>200.0</ele><time>2026-03-28T16:05:49Z</time></trkpt><trkpt lat="43.995674663279566" lon="12.1109461747193"><ele>200.0</ele><time>2026-03-28T16:05:50Z</time></trkpt><trkpt lat="43.99560052005979" lon="12.110852738724859"><ele>200.0</ele><time>2026-03-28T16:05:51Z</time></trkpt><trkpt lat="43.99554406190313" lon="12.11074924217505"><ele>198.0</ele><time>2026-03-28T16:05:52Z</time></trkpt><trkpt lat="43.99551102252647" lon="12.110617909534044"><ele>196.0</ele><time>2026-03-28T16:05:53Z</time></trkpt><trkpt lat="43.99549824780413" lon="12.110493930789554"><ele>194.0</ele><time>2026-03-28T16:05:54Z</time></trkpt><trkpt lat="43.9954978824744" lon="12.110359212176416"><ele>192.0</ele><time>2026-03-28T16:05:55Z</time></trkpt><trkpt lat="43.99551293222115" lon="12.110212248194193"><ele>190.0</ele><time>2026-03-28T16:05:56Z</time></trkpt><trkpt lat="43.99554081174683" lon="12.110083237728965"><ele>190.0</ele><time>2026-03-28T16:05:57Z</time></trkpt><trkpt lat="43.99557547989566" lon="12.109963772845726"><ele>190.0</ele><time>2026-03-28T16:05:58Z</time></trkpt><trkpt lat="43.9956159236524" lon="12.10983822632689"><ele>190.0</ele><time>2026-03-28T16:05:59Z</time></trkpt><trkpt lat="43.9956317159113" lon="12.109720221082094"><ele>190.0</ele><time>2026-03-28T16:06:00Z</time></trkpt><trkpt lat="43.99564683493274" lon="12.109631357298767"><ele>190.0</ele><time>2026-03-28T16:06:01Z</time></trkpt><trkpt lat="43.995658047090565" lon="12.109474663836039"><ele>187.4</ele><time>2026-03-28T16:06:03Z</time></trkpt><trkpt lat="43.995637732717974" lon="12.109363667643187"><ele>184.8</ele><time>2026-03-28T16:06:04Z</time></trkpt><trkpt lat="43.99558496117303" lon="12.109238058781077"><ele>182.2</ele><time>2026-03-28T16:06:05Z</time></trkpt><trkpt lat="43.99552628200427" lon="12.109105121652913"><ele>179.6</ele><time>2026-03-28T16:06:06Z</time></trkpt><trkpt lat="43.99545931709322" lon="12.10900076265827"><ele>177.0</ele><time>2026-03-28T16:06:07Z</time></trkpt><trkpt lat="43.995394297630384" lon="12.108952157017292"><ele>177.0</ele><time>2026-03-28T16:06:08Z</time></trkpt><trkpt lat="43.995319091461724" lon="12.10894704486476"><ele>177.0</ele><time>2026-03-28T16:06:09Z</time></trkpt><trkpt lat="43.99521968107468" lon="12.108986716440702"><ele>177.0</ele><time>2026-03-28T16:06:10Z</time></trkpt><trkpt lat="43.9951053132982" lon="12.109053420354313"><ele>177.0</ele><time>2026-03-28T16:06:11Z</time></trkpt><trkpt lat="43.99500879621333" lon="12.10911160742363"><ele>177.0</ele><time>2026-03-28T16:06:12Z</time></trkpt><trkpt lat="43.99491334701905" lon="12.109149482578061"><ele>175.39999999999998</ele><time>2026-03-28T16:06:13Z</time></trkpt><trkpt lat="43.99481436994143" lon="12.10915716827879"><ele>173.79999999999998</ele><time>2026-03-28T16:06:14Z</time></trkpt><trkpt lat="43.99470993686024" lon="12.109173246997551"><ele>172.2</ele><time>2026-03-28T16:06:15Z</time></trkpt><trkpt lat="43.994613399524106" lon="12.109163924717823"><ele>170.6</ele><time>2026-03-28T16:06:16Z</time></trkpt><trkpt lat="43.99452468472632" lon="12.109119025376396"><ele>169.0</ele><time>2026-03-28T16:06:17Z</time></trkpt><trkpt lat="43.99444967667342" lon="12.109047246313027"><ele>169.0</ele><time>2026-03-28T16:06:18Z</time></trkpt><trkpt lat="43.994364455612185" lon="12.108935201053606"><ele>169.0</ele><time>2026-03-28T16:06:19Z</time></trkpt><trkpt lat="43.99427500711464" lon="12.108800003469494"><ele>169.0</ele><time>2026-03-28T16:06:20Z</time></trkpt><trkpt lat="43.994194917630814" lon="12.1086891890573"><ele>169.0</ele><time>2026-03-28T16:06:21Z</time></trkpt><trkpt lat="43.994101194396535" lon="12.108611862795536"><ele>170.79999999999998</ele><time>2026-03-28T16:06:22Z</time></trkpt><trkpt lat="43.994009000460586" lon="12.108550248271419"><ele>172.6</ele><time>2026-03-28T16:06:23Z</time></trkpt><trkpt lat="43.993908174379236" lon="12.108520003936334"><ele>174.4</ele><time>2026-03-28T16:06:24Z</time></trkpt><trkpt lat="43.99383614156898" lon="12.10846917687459"><ele>176.2</ele><time>2026-03-28T16:06:25Z</time></trkpt><trkpt lat="43.993743582342894" lon="12.108381260706784"><ele>178.0</ele><time>2026-03-28T16:06:27Z</time></trkpt><trkpt lat="43.99370607139724" lon="12.108218362955071"><ele>179.0</ele><time>2026-03-28T16:06:29Z</time></trkpt><trkpt lat="43.99370885323234" lon="12.108123100858348"><ele>180.0</ele><time>2026-03-28T16:06:30Z</time></trkpt><trkpt lat="43.99372943220476" lon="12.107998868900687"><ele>181.0</ele><time>2026-03-28T16:06:31Z</time></trkpt><trkpt lat="43.99373337420709" lon="12.107865346098118"><ele>182.0</ele><time>2026-03-28T16:06:32Z</time></trkpt><trkpt lat="43.99374987201006" lon="12.10773406724841"><ele>183.0</ele><time>2026-03-28T16:06:33Z</time></trkpt><trkpt lat="43.99380954194304" lon="12.10760385724575"><ele>183.0</ele><time>2026-03-28T16:06:34Z</time></trkpt><trkpt lat="43.993891173901595" lon="12.107473883049375"><ele>183.0</ele><time>2026-03-28T16:06:35Z</time></trkpt><trkpt lat="43.993996040897194" lon="12.107341807201255"><ele>183.0</ele><time>2026-03-28T16:06:36Z</time></trkpt><trkpt lat="43.99408948612003" lon="12.10720322762123"><ele>183.0</ele><time>2026-03-28T16:06:37Z</time></trkpt><trkpt lat="43.99418191687927" lon="12.107061158210922"><ele>179.0</ele><time>2026-03-28T16:06:38Z</time></trkpt><trkpt lat="43.99427523761567" lon="12.106918737205504"><ele>175.0</ele><time>2026-03-28T16:06:39Z</time></trkpt><trkpt lat="43.9943629127614" lon="12.1067878030334"><ele>171.0</ele><time>2026-03-28T16:06:40Z</time></trkpt><trkpt lat="43.99444145730206" lon="12.106695007818647"><ele>167.0</ele><time>2026-03-28T16:06:41Z</time></trkpt><trkpt lat="43.99452222339382" lon="12.106602611544803"><ele>166.2</ele><time>2026-03-28T16:06:42Z</time></trkpt><trkpt lat="43.994591496221744" lon="12.106529524848577"><ele>165.39999999999998</ele><time>2026-03-28T16:06:43Z</time></trkpt><trkpt lat="43.99464482201207" lon="12.106467093601015"><ele>164.60000000000002</ele><time>2026-03-28T16:06:44Z</time></trkpt><trkpt lat="43.99471187931998" lon="12.10635084914755"><ele>163.8</ele><time>2026-03-28T16:06:46Z</time></trkpt><trkpt lat="43.9946931762215" lon="12.106167078084274"><ele>163.0</ele><time>2026-03-28T16:06:48Z</time></trkpt><trkpt lat="43.99463313812737" lon="12.106087942767347"><ele>163.0</ele><time>2026-03-28T16:06:49Z</time></trkpt><trkpt lat="43.99457549756257" lon="12.106012249374963"><ele>163.0</ele><time>2026-03-28T16:06:50Z</time></trkpt><trkpt lat="43.994523531542896" lon="12.10596114528793"><ele>163.0</ele><time>2026-03-28T16:06:51Z</time></trkpt><trkpt lat="43.99441099704001" lon="12.106011831086409"><ele>163.0</ele><time>2026-03-28T16:06:53Z</time></trkpt><trkpt lat="43.994366627828434" lon="12.106107059680273"><ele>163.0</ele><time>2026-03-28T16:06:54Z</time></trkpt><trkpt lat="43.99429089555841" lon="12.106202735295938"><ele>163.0</ele><time>2026-03-28T16:06:55Z</time></trkpt><trkpt lat="43.9942348191918" lon="12.106308378881106"><ele>163.0</ele><time>2026-03-28T16:06:56Z</time></trkpt><trkpt lat="43.9941841609848" lon="12.106429475171597"><ele>163.0</ele><time>2026-03-28T16:06:57Z</time></trkpt><trkpt lat="43.99410522507628" lon="12.106550683915847"><ele>163.0</ele><time>2026-03-28T16:06:58Z</time></trkpt><trkpt lat="43.994019909828246" lon="12.106655168784355"><ele>163.0</ele><time>2026-03-28T16:06:59Z</time></trkpt><trkpt lat="43.99394257212993" lon="12.10677176285957"><ele>163.0</ele><time>2026-03-28T16:07:00Z</time></trkpt><trkpt lat="43.99389263815179" lon="12.10690581348081"><ele>167.83333333333334</ele><time>2026-03-28T16:07:01Z</time></trkpt><trkpt lat="43.993868287305325" lon="12.10702656893436"><ele>172.66666666666669</ele><time>2026-03-28T16:07:02Z</time></trkpt><trkpt lat="43.99382094075353" lon="12.107100723686374"><ele>177.5</ele><time>2026-03-28T16:07:03Z</time></trkpt><trkpt lat="43.99375727468895" lon="12.10713010735504"><ele>182.33333333333334</ele><time>2026-03-28T16:07:04Z</time></trkpt><trkpt lat="43.99366899518599" lon="12.107111163619907"><ele>187.16666666666666</ele><time>2026-03-28T16:07:05Z</time></trkpt><trkpt lat="43.993548367981646" lon="12.107086936402395"><ele>192.0</ele><time>2026-03-28T16:07:06Z</time></trkpt><trkpt lat="43.99343546174306" lon="12.107042208071476"><ele>192.0</ele><time>2026-03-28T16:07:07Z</time></trkpt><trkpt lat="43.99333972411236" lon="12.106987502088833"><ele>192.0</ele><time>2026-03-28T16:07:08Z</time></trkpt><trkpt lat="43.99324826590119" lon="12.10688436242504"><ele>192.0</ele><time>2026-03-28T16:07:09Z</time></trkpt><trkpt lat="43.993171706124606" lon="12.106729414398256"><ele>192.0</ele><time>2026-03-28T16:07:10Z</time></trkpt><trkpt lat="43.993109229175516" lon="12.106560430383333"><ele>192.25</ele><time>2026-03-28T16:07:11Z</time></trkpt><trkpt lat="43.99306973287241" lon="12.10637996132301"><ele>192.5</ele><time>2026-03-28T16:07:12Z</time></trkpt><trkpt lat="43.99305482392748" lon="12.106177657351841"><ele>192.75</ele><time>2026-03-28T16:07:13Z</time></trkpt><trkpt lat="43.99303659620328" lon="12.106000675446007"><ele>193.0</ele><time>2026-03-28T16:07:14Z</time></trkpt><trkpt lat="43.99300010494403" lon="12.105833947661324"><ele>190.33333333333331</ele><time>2026-03-28T16:07:15Z</time></trkpt><trkpt lat="43.9929258358" lon="12.105642507637853"><ele>187.66666666666666</ele><time>2026-03-28T16:07:16Z</time></trkpt><trkpt lat="43.99284221915596" lon="12.105448274414845"><ele>185.0</ele><time>2026-03-28T16:07:17Z</time></trkpt><trkpt lat="43.99275342458045" lon="12.105254857115224"><ele>185.0</ele><time>2026-03-28T16:07:18Z</time></trkpt><trkpt lat="43.99268106783399" lon="12.105051391574396"><ele>185.0</ele><time>2026-03-28T16:07:19Z</time></trkpt><trkpt lat="43.99263033020575" lon="12.104831844743757"><ele>185.0</ele><time>2026-03-28T16:07:20Z</time></trkpt><trkpt lat="43.99259253766668" lon="12.104605825795124"><ele>182.33333333333331</ele><time>2026-03-28T16:07:21Z</time></trkpt><trkpt lat="43.992551120653715" lon="12.104390865376574"><ele>179.66666666666666</ele><time>2026-03-28T16:07:22Z</time></trkpt><trkpt lat="43.99247295041642" lon="12.10418518881526"><ele>177.0</ele><time>2026-03-28T16:07:23Z</time></trkpt><trkpt lat="43.992348332613325" lon="12.103989971974409"><ele>188.33333333333331</ele><time>2026-03-28T16:07:24Z</time></trkpt><trkpt lat="43.99222201497587" lon="12.103797214881968"><ele>199.66666666666666</ele><time>2026-03-28T16:07:25Z</time></trkpt><trkpt lat="43.992078379026886" lon="12.103593109936739"><ele>211.0</ele><time>2026-03-28T16:07:26Z</time></trkpt><trkpt lat="43.99194432226368" lon="12.103414673304242"><ele>211.0</ele><time>2026-03-28T16:07:27Z</time></trkpt><trkpt lat="43.99181862394319" lon="12.103259978144319"><ele>211.0</ele><time>2026-03-28T16:07:28Z</time></trkpt><trkpt lat="43.99169068762887" lon="12.103127508028473"><ele>211.0</ele><time>2026-03-28T16:07:29Z</time></trkpt><trkpt lat="43.9915511100278" lon="12.103035546483012"><ele>211.66666666666666</ele><time>2026-03-28T16:07:30Z</time></trkpt><trkpt lat="43.99140236442648" lon="12.10297226344484"><ele>212.33333333333331</ele><time>2026-03-28T16:07:31Z</time></trkpt><trkpt lat="43.99126757602219" lon="12.102899045189481"><ele>213.0</ele><time>2026-03-28T16:07:32Z</time></trkpt><trkpt lat="43.99114716474682" lon="12.102776109073012"><ele>213.0</ele><time>2026-03-28T16:07:33Z</time></trkpt><trkpt lat="43.99103152112328" lon="12.10261573064334"><ele>213.0</ele><time>2026-03-28T16:07:34Z</time></trkpt><trkpt lat="43.99092625533285" lon="12.102453339214211"><ele>213.0</ele><time>2026-03-28T16:07:35Z</time></trkpt><trkpt lat="43.99080765102116" lon="12.10231449956066"><ele>212.5</ele><time>2026-03-28T16:07:36Z</time></trkpt><trkpt lat="43.99067850435542" lon="12.102202297509166"><ele>212.0</ele><time>2026-03-28T16:07:37Z</time></trkpt><trkpt lat="43.99054895769752" lon="12.10212333132237"><ele>211.5</ele><time>2026-03-28T16:07:38Z</time></trkpt><trkpt lat="43.99042501127802" lon="12.102094607270615"><ele>211.0</ele><time>2026-03-28T16:07:39Z</time></trkpt><trkpt lat="43.99031293934508" lon="12.102104861908499"><ele>211.0</ele><time>2026-03-28T16:07:40Z</time></trkpt><trkpt lat="43.99022630992923" lon="12.102082379369106"><ele>211.0</ele><time>2026-03-28T16:07:41Z</time></trkpt><trkpt lat="43.99016358328649" lon="12.101994449434834"><ele>211.0</ele><time>2026-03-28T16:07:42Z</time></trkpt><trkpt lat="43.99012302148237" lon="12.101865234365434"><ele>211.0</ele><time>2026-03-28T16:07:43Z</time></trkpt><trkpt lat="43.99010183151568" lon="12.10168664969025"><ele>211.0</ele><time>2026-03-28T16:07:44Z</time></trkpt><trkpt lat="43.99008706190145" lon="12.10148047870571"><ele>216.33333333333331</ele><time>2026-03-28T16:07:45Z</time></trkpt><trkpt lat="43.9900735733715" lon="12.101276921114797"><ele>221.66666666666669</ele><time>2026-03-28T16:07:46Z</time></trkpt><trkpt lat="43.99004861505202" lon="12.101071041557972"><ele>227.0</ele><time>2026-03-28T16:07:47Z</time></trkpt><trkpt lat="43.99000216942251" lon="12.100845076581813"><ele>221.5</ele><time>2026-03-28T16:07:48Z</time></trkpt><trkpt lat="43.98996232217841" lon="12.100633774461453"><ele>216.0</ele><time>2026-03-28T16:07:49Z</time></trkpt><trkpt lat="43.989942761706814" lon="12.100448302776247"><ele>210.5</ele><time>2026-03-28T16:07:50Z</time></trkpt><trkpt lat="43.98992685854255" lon="12.100318943018372"><ele>205.0</ele><time>2026-03-28T16:07:51Z</time></trkpt><trkpt lat="43.98988912417735" lon="12.100202621065867"><ele>205.0</ele><time>2026-03-28T16:07:52Z</time></trkpt><trkpt lat="43.9898090034562" lon="12.100112137132532"><ele>205.0</ele><time>2026-03-28T16:07:53Z</time></trkpt><trkpt lat="43.989706429702096" lon="12.100063984682173"><ele>205.0</ele><time>2026-03-28T16:07:54Z</time></trkpt><trkpt lat="43.98958699772669" lon="12.100065405339693"><ele>205.0</ele><time>2026-03-28T16:07:55Z</time></trkpt><trkpt lat="43.98947188410319" lon="12.100095692257916"><ele>205.0</ele><time>2026-03-28T16:07:56Z</time></trkpt><trkpt lat="43.98934734192157" lon="12.100070446876543"><ele>205.0</ele><time>2026-03-28T16:07:57Z</time></trkpt><trkpt lat="43.9892414558471" lon="12.100006511130935"><ele>205.0</ele><time>2026-03-28T16:07:58Z</time></trkpt><trkpt lat="43.989102713921405" lon="12.09999214763"><ele>205.0</ele><time>2026-03-28T16:07:59Z</time></trkpt><trkpt lat="43.988964637359096" lon="12.100022848154309"><ele>205.0</ele><time>2026-03-28T16:08:00Z</time></trkpt><trkpt lat="43.98882300629017" lon="12.100101110687875"><ele>206.75</ele><time>2026-03-28T16:08:01Z</time></trkpt><trkpt lat="43.98868963704923" lon="12.100186307596742"><ele>208.5</ele><time>2026-03-28T16:08:02Z</time></trkpt><trkpt lat="43.9885633895015" lon="12.10024666186908"><ele>210.25</ele><time>2026-03-28T16:08:03Z</time></trkpt><trkpt lat="43.98844309094439" lon="12.100273155738307"><ele>212.0</ele><time>2026-03-28T16:08:04Z</time></trkpt><trkpt lat="43.988344630498645" lon="12.100262529871115"><ele>211.6</ele><time>2026-03-28T16:08:05Z</time></trkpt><trkpt lat="43.98824681471926" lon="12.100210672871729"><ele>211.2</ele><time>2026-03-28T16:08:06Z</time></trkpt><trkpt lat="43.98815200326433" lon="12.100123062504304"><ele>210.8</ele><time>2026-03-28T16:08:07Z</time></trkpt><trkpt lat="43.98807910666933" lon="12.099987938543503"><ele>210.4</ele><time>2026-03-28T16:08:08Z</time></trkpt><trkpt lat="43.98800299751562" lon="12.09989731026004"><ele>210.0</ele><time>2026-03-28T16:08:09Z</time></trkpt><trkpt lat="43.98791193447833" lon="12.099841164721735"><ele>210.25</ele><time>2026-03-28T16:08:10Z</time></trkpt><trkpt lat="43.98780682090775" lon="12.099805992348587"><ele>210.5</ele><time>2026-03-28T16:08:11Z</time></trkpt><trkpt lat="43.987676725026915" lon="12.099819473617265"><ele>210.75</ele><time>2026-03-28T16:08:12Z</time></trkpt><trkpt lat="43.98754179248213" lon="12.099879950449568"><ele>211.0</ele><time>2026-03-28T16:08:13Z</time></trkpt><trkpt lat="43.987412841544426" lon="12.099956031082423"><ele>211.0</ele><time>2026-03-28T16:08:14Z</time></trkpt><trkpt lat="43.987291324168666" lon="12.100028984512036"><ele>211.0</ele><time>2026-03-28T16:08:15Z</time></trkpt><trkpt lat="43.987166874941295" lon="12.10004539608559"><ele>211.0</ele><time>2026-03-28T16:08:16Z</time></trkpt><trkpt lat="43.98701928341919" lon="12.100013822728872"><ele>211.0</ele><time>2026-03-28T16:08:17Z</time></trkpt><trkpt lat="43.98686652161934" lon="12.099959293116306"><ele>203.0</ele><time>2026-03-28T16:08:18Z</time></trkpt><trkpt lat="43.98672253701323" lon="12.099869479028394"><ele>195.0</ele><time>2026-03-28T16:08:19Z</time></trkpt><trkpt lat="43.98659040589227" lon="12.099748060422252"><ele>187.0</ele><time>2026-03-28T16:08:20Z</time></trkpt><trkpt lat="43.986440510008585" lon="12.099580979086305"><ele>187.0</ele><time>2026-03-28T16:08:21Z</time></trkpt><trkpt lat="43.986311655031486" lon="12.09943622902563"><ele>187.0</ele><time>2026-03-28T16:08:22Z</time></trkpt><trkpt lat="43.986189910564946" lon="12.099307355924193"><ele>187.0</ele><time>2026-03-28T16:08:23Z</time></trkpt><trkpt lat="43.98609521502842" lon="12.099176010422502"><ele>187.25</ele><time>2026-03-28T16:08:24Z</time></trkpt><trkpt lat="43.98599527881616" lon="12.099054991278086"><ele>187.5</ele><time>2026-03-28T16:08:25Z</time></trkpt><trkpt lat="43.98589474835155" lon="12.098917233035078"><ele>187.75</ele><time>2026-03-28T16:08:26Z</time></trkpt><trkpt lat="43.98577883744615" lon="12.098772741016269"><ele>188.0</ele><time>2026-03-28T16:08:27Z</time></trkpt><trkpt lat="43.98566578752748" lon="12.09862828030703"><ele>188.25</ele><time>2026-03-28T16:08:28Z</time></trkpt><trkpt lat="43.98556073990306" lon="12.098483922123135"><ele>188.5</ele><time>2026-03-28T16:08:29Z</time></trkpt><trkpt lat="43.98547496811453" lon="12.098350618202677"><ele>188.75</ele><time>2026-03-28T16:08:30Z</time></trkpt><trkpt lat="43.98539924433659" lon="12.098217895420698"><ele>189.0</ele><time>2026-03-28T16:08:31Z</time></trkpt><trkpt lat="43.98533779263145" lon="12.098114915654683"><ele>190.16666666666666</ele><time>2026-03-28T16:08:32Z</time></trkpt><trkpt lat="43.98529349598619" lon="12.098015868646765"><ele>191.33333333333331</ele><time>2026-03-28T16:08:33Z</time></trkpt><trkpt lat="43.98524291261458" lon="12.097907813319603"><ele>192.5</ele><time>2026-03-28T16:08:35Z</time></trkpt><trkpt lat="43.9851618571734" lon="12.097942087919519"><ele>193.66666666666666</ele><time>2026-03-28T16:08:36Z</time></trkpt><trkpt lat="43.98517032135804" lon="12.098046485933743"><ele>194.83333333333331</ele><time>2026-03-28T16:08:42Z</time></trkpt><trkpt lat="43.98523670086638" lon="12.098121750092725"><ele>196.0</ele><time>2026-03-28T16:08:43Z</time></trkpt><trkpt lat="43.98532083165131" lon="12.098208610223457"><ele>194.25</ele><time>2026-03-28T16:08:44Z</time></trkpt><trkpt lat="43.98541169919255" lon="12.098323565322515"><ele>192.5</ele><time>2026-03-28T16:08:45Z</time></trkpt><trkpt lat="43.985515478229736" lon="12.098453740576584"><ele>190.75</ele><time>2026-03-28T16:08:46Z</time></trkpt><trkpt lat="43.98562273361182" lon="12.098585651919434"><ele>189.0</ele><time>2026-03-28T16:08:47Z</time></trkpt><trkpt lat="43.98574386931519" lon="12.09872752236916"><ele>188.75</ele><time>2026-03-28T16:08:48Z</time></trkpt><trkpt lat="43.98585565443573" lon="12.098867618451704"><ele>188.5</ele><time>2026-03-28T16:08:49Z</time></trkpt><trkpt lat="43.985960702700595" lon="12.09900228703854"><ele>188.25</ele><time>2026-03-28T16:08:50Z</time></trkpt><trkpt lat="43.986073875935965" lon="12.09913712758789"><ele>188.0</ele><time>2026-03-28T16:08:51Z</time></trkpt><trkpt lat="43.98618378305762" lon="12.099267672029706"><ele>187.75</ele><time>2026-03-28T16:08:52Z</time></trkpt><trkpt lat="43.98630167938154" lon="12.099423905936511"><ele>187.5</ele><time>2026-03-28T16:08:53Z</time></trkpt><trkpt lat="43.986409450592866" lon="12.099556085236822"><ele>187.25</ele><time>2026-03-28T16:08:54Z</time></trkpt><trkpt lat="43.98650898533782" lon="12.099677076090657"><ele>187.0</ele><time>2026-03-28T16:08:55Z</time></trkpt><trkpt lat="43.98659372073466" lon="12.099786223180452"><ele>187.0</ele><time>2026-03-28T16:08:56Z</time></trkpt><trkpt lat="43.98667537205063" lon="12.099885071872539"><ele>187.0</ele><time>2026-03-28T16:08:57Z</time></trkpt><trkpt lat="43.98676737574815" lon="12.099962761564495"><ele>187.0</ele><time>2026-03-28T16:08:58Z</time></trkpt><trkpt lat="43.98686341835211" lon="12.099968859369078"><ele>187.0</ele><time>2026-03-28T16:08:59Z</time></trkpt><trkpt lat="43.986981732318526" lon="12.099998743138238"><ele>187.0</ele><time>2026-03-28T16:09:00Z</time></trkpt><trkpt lat="43.9871002092502" lon="12.100030164405606"><ele>186.75</ele><time>2026-03-28T16:09:01Z</time></trkpt><trkpt lat="43.98721777175212" lon="12.100060063019395"><ele>186.5</ele><time>2026-03-28T16:09:02Z</time></trkpt><trkpt lat="43.98733609889668" lon="12.100036694086581"><ele>186.25</ele><time>2026-03-28T16:09:03Z</time></trkpt><trkpt lat="43.987442707347775" lon="12.099972043114196"><ele>186.0</ele><time>2026-03-28T16:09:04Z</time></trkpt><trkpt lat="43.98754054687197" lon="12.099893345629079"><ele>186.0</ele><time>2026-03-28T16:09:05Z</time></trkpt><trkpt lat="43.987646945281966" lon="12.099836955473743"><ele>186.0</ele><time>2026-03-28T16:09:06Z</time></trkpt><trkpt lat="43.9877637891727" lon="12.099824428303283"><ele>186.0</ele><time>2026-03-28T16:09:07Z</time></trkpt><trkpt lat="43.98788874478552" lon="12.09985147244442"><ele>186.0</ele><time>2026-03-28T16:09:08Z</time></trkpt><trkpt lat="43.98799507631631" lon="12.099901196463714"><ele>192.0</ele><time>2026-03-28T16:09:09Z</time></trkpt><trkpt lat="43.988088256224614" lon="12.099996076223158"><ele>198.0</ele><time>2026-03-28T16:09:10Z</time></trkpt><trkpt lat="43.988183336051925" lon="12.100111770664851"><ele>204.0</ele><time>2026-03-28T16:09:11Z</time></trkpt><trkpt lat="43.988275000340906" lon="12.100221897784996"><ele>210.0</ele><time>2026-03-28T16:09:12Z</time></trkpt><trkpt lat="43.98837448256036" lon="12.100283837029462"><ele>210.4</ele><time>2026-03-28T16:09:13Z</time></trkpt><trkpt lat="43.98847353846715" lon="12.100299479877913"><ele>210.8</ele><time>2026-03-28T16:09:14Z</time></trkpt><trkpt lat="43.988575984448524" lon="12.100272942433488"><ele>211.2</ele><time>2026-03-28T16:09:15Z</time></trkpt><trkpt lat="43.988671231160176" lon="12.100213300521437"><ele>211.6</ele><time>2026-03-28T16:09:16Z</time></trkpt><trkpt lat="43.988779854152206" lon="12.100153520514446"><ele>212.0</ele><time>2026-03-28T16:09:17Z</time></trkpt><trkpt lat="43.988890566709976" lon="12.10009912428586"><ele>212.0</ele><time>2026-03-28T16:09:18Z</time></trkpt><trkpt lat="43.98900074805705" lon="12.100050159450522"><ele>212.0</ele><time>2026-03-28T16:09:19Z</time></trkpt><trkpt lat="43.989110413182836" lon="12.10001082896038"><ele>212.0</ele><time>2026-03-28T16:09:20Z</time></trkpt><trkpt lat="43.98923232998689" lon="12.100003408628048"><ele>212.0</ele><time>2026-03-28T16:09:21Z</time></trkpt><trkpt lat="43.98936841209193" lon="12.10003350055297"><ele>210.6</ele><time>2026-03-28T16:09:22Z</time></trkpt><trkpt lat="43.989489323804136" lon="12.100085619834049"><ele>209.2</ele><time>2026-03-28T16:09:23Z</time></trkpt><trkpt lat="43.98958473115229" lon="12.100128710464332"><ele>207.8</ele><time>2026-03-28T16:09:24Z</time></trkpt><trkpt lat="43.989672989451336" lon="12.100131454191766"><ele>206.4</ele><time>2026-03-28T16:09:25Z</time></trkpt><trkpt lat="43.98975412308158" lon="12.100141524837271"><ele>205.0</ele><time>2026-03-28T16:09:26Z</time></trkpt><trkpt lat="43.98983559268778" lon="12.100195595920425"><ele>205.0</ele><time>2026-03-28T16:09:27Z</time></trkpt><trkpt lat="43.98990979591248" lon="12.10029084688088"><ele>205.0</ele><time>2026-03-28T16:09:28Z</time></trkpt><trkpt lat="43.98995830071591" lon="12.100407187928697"><ele>205.0</ele><time>2026-03-28T16:09:29Z</time></trkpt><trkpt lat="43.989971805558326" lon="12.100540157056628"><ele>205.0</ele><time>2026-03-28T16:09:30Z</time></trkpt><trkpt lat="43.98998639041166" lon="12.100700479431536"><ele>205.0</ele><time>2026-03-28T16:09:31Z</time></trkpt><trkpt lat="43.98999512803481" lon="12.10088512009428"><ele>206.5</ele><time>2026-03-28T16:09:32Z</time></trkpt><trkpt lat="43.99002898466945" lon="12.101064537323953"><ele>208.0</ele><time>2026-03-28T16:09:33Z</time></trkpt><trkpt lat="43.99005981514066" lon="12.10124462194078"><ele>209.5</ele><time>2026-03-28T16:09:34Z</time></trkpt><trkpt lat="43.99008298765964" lon="12.101430164725354"><ele>211.0</ele><time>2026-03-28T16:09:35Z</time></trkpt><trkpt lat="43.99009076565542" lon="12.101617798576548"><ele>211.0</ele><time>2026-03-28T16:09:36Z</time></trkpt><trkpt lat="43.990099805188315" lon="12.10177425817443"><ele>211.0</ele><time>2026-03-28T16:09:37Z</time></trkpt><trkpt lat="43.99012116248814" lon="12.101899540183112"><ele>211.0</ele><time>2026-03-28T16:09:38Z</time></trkpt><trkpt lat="43.990157824348344" lon="12.102007440951363"><ele>211.0</ele><time>2026-03-28T16:09:39Z</time></trkpt><trkpt lat="43.99022141618177" lon="12.102102246137163"><ele>211.0</ele><time>2026-03-28T16:09:40Z</time></trkpt><trkpt lat="43.990307311152236" lon="12.102151378176968"><ele>210.99999999999997</ele><time>2026-03-28T16:09:41Z</time></trkpt><trkpt lat="43.99041096987874" lon="12.102158557732636"><ele>211.0</ele><time>2026-03-28T16:09:42Z</time></trkpt><trkpt lat="43.990498794054304" lon="12.102136707237568"><ele>211.0</ele><time>2026-03-28T16:09:43Z</time></trkpt><trkpt lat="43.9905627782173" lon="12.102130598126573"><ele>211.0</ele><time>2026-03-28T16:09:44Z</time></trkpt><trkpt lat="43.99058523812153" lon="12.102214411120896"><ele>210.99999999999997</ele><time>2026-03-28T16:09:49Z</time></trkpt><trkpt lat="43.99047512501023" lon="12.102245089950356"><ele>211.0</ele><time>2026-03-28T16:09:53Z</time></trkpt><trkpt lat="43.9903944069229" lon="12.10221022905785"><ele>211.0</ele><time>2026-03-28T16:09:54Z</time></trkpt><trkpt lat="43.990283670799776" lon="12.102235038174895"><ele>211.0</ele><time>2026-03-28T16:09:56Z</time></trkpt><trkpt lat="43.990172831027145" lon="12.102265038951712"><ele>211.0</ele><time>2026-03-28T16:09:58Z</time></trkpt><trkpt lat="43.99007073523594" lon="12.10228749509487"><ele>211.0</ele><time>2026-03-28T16:10:00Z</time></trkpt><trkpt lat="43.989957983691276" lon="12.10234269646425"><ele>211.0</ele><time>2026-03-28T16:10:02Z</time></trkpt><trkpt lat="43.98990611276567" lon="12.102436254372618"><ele>217.60000000000002</ele><time>2026-03-28T16:10:04Z</time></trkpt><trkpt lat="43.98993474892464" lon="12.102589417373673"><ele>224.2</ele><time>2026-03-28T16:10:06Z</time></trkpt><trkpt lat="43.989943624645896" lon="12.102702912442526"><ele>230.79999999999998</ele><time>2026-03-28T16:10:08Z</time></trkpt><trkpt lat="43.989856663605764" lon="12.102758143522749"><ele>237.39999999999998</ele><time>2026-03-28T16:10:10Z</time></trkpt><trkpt lat="43.98974632343701" lon="12.102684230904295"><ele>244.0</ele><time>2026-03-28T16:10:12Z</time></trkpt><trkpt lat="43.98968371705594" lon="12.102616803704105"><ele>244.0</ele><time>2026-03-28T16:10:13Z</time></trkpt><trkpt lat="43.98961240320259" lon="12.102576724957615"><ele>243.99999999999997</ele><time>2026-03-28T16:10:14Z</time></trkpt><trkpt lat="43.989520244372905" lon="12.102539259865353"><ele>243.99999999999997</ele><time>2026-03-28T16:10:15Z</time></trkpt><trkpt lat="43.98941613086807" lon="12.102497365594228"><ele>244.0</ele><time>2026-03-28T16:10:16Z</time></trkpt><trkpt lat="43.989309192325265" lon="12.10243382272262"><ele>244.0</ele><time>2026-03-28T16:10:17Z</time></trkpt><trkpt lat="43.989218070557904" lon="12.102368294717492"><ele>245.83333333333331</ele><time>2026-03-28T16:10:18Z</time></trkpt><trkpt lat="43.98913841098411" lon="12.102305065090873"><ele>247.66666666666666</ele><time>2026-03-28T16:10:19Z</time></trkpt><trkpt lat="43.98906456068261" lon="12.102253321823595"><ele>249.5</ele><time>2026-03-28T16:10:20Z</time></trkpt><trkpt lat="43.988991733112165" lon="12.10218779174783"><ele>251.33333333333331</ele><time>2026-03-28T16:10:21Z</time></trkpt><trkpt lat="43.988925858795774" lon="12.102119923268196"><ele>253.16666666666666</ele><time>2026-03-28T16:10:22Z</time></trkpt><trkpt lat="43.98885742105732" lon="12.102073722649253"><ele>255.0</ele><time>2026-03-28T16:10:23Z</time></trkpt><trkpt lat="43.98879150963447" lon="12.102041939844566"><ele>255.0</ele><time>2026-03-28T16:10:24Z</time></trkpt><trkpt lat="43.988708800594026" lon="12.102021630252976"><ele>255.0</ele><time>2026-03-28T16:10:25Z</time></trkpt><trkpt lat="43.98862384352063" lon="12.10200513388869"><ele>255.0</ele><time>2026-03-28T16:10:26Z</time></trkpt><trkpt lat="43.98853639263558" lon="12.101987501340856"><ele>255.0</ele><time>2026-03-28T16:10:27Z</time></trkpt><trkpt lat="43.98844430187956" lon="12.101963928096842"><ele>255.0</ele><time>2026-03-28T16:10:28Z</time></trkpt><trkpt lat="43.98834556645065" lon="12.10195533053485"><ele>256.8333333333333</ele><time>2026-03-28T16:10:29Z</time></trkpt><trkpt lat="43.98824389532928" lon="12.101963260379902"><ele>258.6666666666667</ele><time>2026-03-28T16:10:30Z</time></trkpt><trkpt lat="43.98814785828703" lon="12.101983518125792"><ele>260.5</ele><time>2026-03-28T16:10:31Z</time></trkpt><trkpt lat="43.98805343731228" lon="12.10198304842606"><ele>262.33333333333337</ele><time>2026-03-28T16:10:32Z</time></trkpt><trkpt lat="43.987975023662884" lon="12.101964307755681"><ele>264.1666666666667</ele><time>2026-03-28T16:10:33Z</time></trkpt><trkpt lat="43.98790097897276" lon="12.101941237871685"><ele>266.0</ele><time>2026-03-28T16:10:34Z</time></trkpt><trkpt lat="43.987820520815625" lon="12.10189763279501"><ele>266.0</ele><time>2026-03-28T16:10:35Z</time></trkpt><trkpt lat="43.98773927033372" lon="12.101839816279266"><ele>266.0</ele><time>2026-03-28T16:10:36Z</time></trkpt><trkpt lat="43.98767157166806" lon="12.101771061037281"><ele>266.0</ele><time>2026-03-28T16:10:37Z</time></trkpt><trkpt lat="43.98761030032846" lon="12.101702112928217"><ele>266.0</ele><time>2026-03-28T16:10:38Z</time></trkpt><trkpt lat="43.987556825847754" lon="12.101636478848539"><ele>266.0</ele><time>2026-03-28T16:10:39Z</time></trkpt><trkpt lat="43.98752780384971" lon="12.101541561830105"><ele>266.0</ele><time>2026-03-28T16:10:40Z</time></trkpt><trkpt lat="43.987394224616395" lon="12.101474224355115"><ele>268.2</ele><time>2026-03-28T16:10:42Z</time></trkpt><trkpt lat="43.98730363139273" lon="12.101543621221637"><ele>270.40000000000003</ele><time>2026-03-28T16:10:43Z</time></trkpt><trkpt lat="43.987246767947546" lon="12.101657049022744"><ele>272.6</ele><time>2026-03-28T16:10:44Z</time></trkpt><trkpt lat="43.98717572919594" lon="12.101757468835208"><ele>274.8</ele><time>2026-03-28T16:10:45Z</time></trkpt><trkpt lat="43.98708671321937" lon="12.101872316295136"><ele>277.0</ele><time>2026-03-28T16:10:46Z</time></trkpt><trkpt lat="43.98700884591006" lon="12.102005130534273"><ele>277.0</ele><time>2026-03-28T16:10:47Z</time></trkpt><trkpt lat="43.98693769628924" lon="12.102127529648094"><ele>277.0</ele><time>2026-03-28T16:10:48Z</time></trkpt><trkpt lat="43.98685817730228" lon="12.102254069200841"><ele>277.0</ele><time>2026-03-28T16:10:49Z</time></trkpt><trkpt lat="43.98680640831237" lon="12.102405200264853"><ele>277.0</ele><time>2026-03-28T16:10:50Z</time></trkpt><trkpt lat="43.98673387334741" lon="12.102535075189186"><ele>279.8333333333333</ele><time>2026-03-28T16:10:51Z</time></trkpt><trkpt lat="43.98665550042271" lon="12.102629571619328"><ele>282.66666666666663</ele><time>2026-03-28T16:10:52Z</time></trkpt><trkpt lat="43.98658809600708" lon="12.102717461552755"><ele>285.5</ele><time>2026-03-28T16:10:53Z</time></trkpt><trkpt lat="43.986545062362715" lon="12.102788298552959"><ele>288.3333333333333</ele><time>2026-03-28T16:10:54Z</time></trkpt><trkpt lat="43.98650643562001" lon="12.10288610334794"><ele>291.1666666666667</ele><time>2026-03-28T16:10:56Z</time></trkpt><trkpt lat="43.98654717786659" lon="12.10297686993443"><ele>294.0</ele><time>2026-03-28T16:10:58Z</time></trkpt><trkpt lat="43.98669923547469" lon="12.102985010762792"><ele>294.0</ele><time>2026-03-28T16:11:01Z</time></trkpt><trkpt lat="43.986770623440115" lon="12.102937294565471"><ele>294.0</ele><time>2026-03-28T16:11:02Z</time></trkpt><trkpt lat="43.98683481606898" lon="12.102915248166841"><ele>294.0</ele><time>2026-03-28T16:11:03Z</time></trkpt><trkpt lat="43.98694248229241" lon="12.102882062832"><ele>294.0</ele><time>2026-03-28T16:11:05Z</time></trkpt><trkpt lat="43.987017968532676" lon="12.102918867624672"><ele>294.0</ele><time>2026-03-28T16:11:06Z</time></trkpt><trkpt lat="43.9870821414059" lon="12.102988851419855"><ele>294.0</ele><time>2026-03-28T16:11:07Z</time></trkpt><trkpt lat="43.98713024968263" lon="12.103074374662393"><ele>294.0</ele><time>2026-03-28T16:11:08Z</time></trkpt><trkpt lat="43.98715681462506" lon="12.103194066786987"><ele>294.0</ele><time>2026-03-28T16:11:09Z</time></trkpt><trkpt lat="43.9871969932542" lon="12.10329583067812"><ele>294.0</ele><time>2026-03-28T16:11:10Z</time></trkpt><trkpt lat="43.98724547994321" lon="12.103414926504618"><ele>294.0</ele><time>2026-03-28T16:11:11Z</time></trkpt><trkpt lat="43.98728429615575" lon="12.103527026549763"><ele>294.0</ele><time>2026-03-28T16:11:12Z</time></trkpt><trkpt lat="43.9872971039858" lon="12.103649396805075"><ele>296.1666666666667</ele><time>2026-03-28T16:11:13Z</time></trkpt><trkpt lat="43.98733281317978" lon="12.103760468013819"><ele>298.3333333333333</ele><time>2026-03-28T16:11:14Z</time></trkpt><trkpt lat="43.98738020039456" lon="12.103863591321561"><ele>300.5</ele><time>2026-03-28T16:11:15Z</time></trkpt><trkpt lat="43.98742666766611" lon="12.103932952918804"><ele>302.66666666666663</ele><time>2026-03-28T16:11:16Z</time></trkpt><trkpt lat="43.987478365400236" lon="12.104001664872703"><ele>304.8333333333333</ele><time>2026-03-28T16:11:17Z</time></trkpt><trkpt lat="43.98755014877614" lon="12.104072248145755"><ele>307.0</ele><time>2026-03-28T16:11:18Z</time></trkpt><trkpt lat="43.98763618966463" lon="12.104150050651715"><ele>311.6</ele><time>2026-03-28T16:11:19Z</time></trkpt><trkpt lat="43.98773835837863" lon="12.104229140988839"><ele>316.2</ele><time>2026-03-28T16:11:20Z</time></trkpt><trkpt lat="43.98784161932679" lon="12.104294459943825"><ele>320.8</ele><time>2026-03-28T16:11:21Z</time></trkpt><trkpt lat="43.98794341185191" lon="12.104347653597552"><ele>325.4</ele><time>2026-03-28T16:11:22Z</time></trkpt><trkpt lat="43.98803201057335" lon="12.10438369358924"><ele>330.0</ele><time>2026-03-28T16:11:23Z</time></trkpt><trkpt lat="43.98811112869815" lon="12.104375331768074"><ele>330.0</ele><time>2026-03-28T16:11:24Z</time></trkpt><trkpt lat="43.98818613007361" lon="12.104369260196446"><ele>330.0</ele><time>2026-03-28T16:11:25Z</time></trkpt><trkpt lat="43.98827385920033" lon="12.104351345699149"><ele>330.0</ele><time>2026-03-28T16:11:26Z</time></trkpt><trkpt lat="43.98835246474633" lon="12.104308099199708"><ele>330.0</ele><time>2026-03-28T16:11:27Z</time></trkpt><trkpt lat="43.98842370807311" lon="12.1042697364266"><ele>330.0</ele><time>2026-03-28T16:11:28Z</time></trkpt><trkpt lat="43.98854007005917" lon="12.10433877511357"><ele>327.25</ele><time>2026-03-28T16:11:30Z</time></trkpt><trkpt lat="43.988600830695596" lon="12.104439270696497"><ele>324.5</ele><time>2026-03-28T16:11:31Z</time></trkpt><trkpt lat="43.988664460737034" lon="12.104551134356978"><ele>321.75</ele><time>2026-03-28T16:11:32Z</time></trkpt><trkpt lat="43.98874738047293" lon="12.104686969555273"><ele>319.0</ele><time>2026-03-28T16:11:33Z</time></trkpt><trkpt lat="43.98884079949811" lon="12.104828655741095"><ele>323.2</ele><time>2026-03-28T16:11:34Z</time></trkpt><trkpt lat="43.98891326935168" lon="12.104948026111105"><ele>327.4</ele><time>2026-03-28T16:11:35Z</time></trkpt><trkpt lat="43.98896186294456" lon="12.105053854944245"><ele>331.6</ele><time>2026-03-28T16:11:36Z</time></trkpt><trkpt lat="43.98898511352602" lon="12.105136119545046"><ele>335.8</ele><time>2026-03-28T16:11:37Z</time></trkpt><trkpt lat="43.98892293783869" lon="12.105205845091584"><ele>340.0</ele><time>2026-03-28T16:11:40Z</time></trkpt><trkpt lat="43.988818791423434" lon="12.105096929649575"><ele>340.0</ele><time>2026-03-28T16:11:42Z</time></trkpt><trkpt lat="43.988706562635734" lon="12.10502008020823"><ele>340.0</ele><time>2026-03-28T16:11:44Z</time></trkpt><trkpt lat="43.988615545114136" lon="12.105003134106628"><ele>340.0</ele><time>2026-03-28T16:11:45Z</time></trkpt><trkpt lat="43.988505996656365" lon="12.105004620887236"><ele>340.0</ele><time>2026-03-28T16:11:46Z</time></trkpt><trkpt lat="43.98838377362846" lon="12.104998734165353"><ele>340.0</ele><time>2026-03-28T16:11:47Z</time></trkpt><trkpt lat="43.98829069756436" lon="12.105060311947323"><ele>344.5</ele><time>2026-03-28T16:11:48Z</time></trkpt><trkpt lat="43.98822244921724" lon="12.105193970408449"><ele>349.0</ele><time>2026-03-28T16:11:49Z</time></trkpt><trkpt lat="43.988154053847026" lon="12.105351012213166"><ele>353.5</ele><time>2026-03-28T16:11:50Z</time></trkpt><trkpt lat="43.98806514157047" lon="12.105533932262242"><ele>358.0</ele><time>2026-03-28T16:11:51Z</time></trkpt><trkpt lat="43.98797016196337" lon="12.105719978119572"><ele>364.5</ele><time>2026-03-28T16:11:52Z</time></trkpt><trkpt lat="43.98787583322024" lon="12.105905770805089"><ele>371.0</ele><time>2026-03-28T16:11:53Z</time></trkpt><trkpt lat="43.98777135867935" lon="12.10607661623357"><ele>377.5</ele><time>2026-03-28T16:11:54Z</time></trkpt><trkpt lat="43.98770537008339" lon="12.106221769225021"><ele>384.0</ele><time>2026-03-28T16:11:55Z</time></trkpt><trkpt lat="43.98765630602274" lon="12.10633873680602"><ele>384.0</ele><time>2026-03-28T16:11:56Z</time></trkpt><trkpt lat="43.98761430313047" lon="12.10644529709821"><ele>384.0</ele><time>2026-03-28T16:11:57Z</time></trkpt><trkpt lat="43.987572753690316" lon="12.106559655844315"><ele>384.0</ele><time>2026-03-28T16:11:58Z</time></trkpt><trkpt lat="43.98752852326906" lon="12.106709162072981"><ele>384.0</ele><time>2026-03-28T16:11:59Z</time></trkpt><trkpt lat="43.98750465204116" lon="12.106861992540768"><ele>384.0</ele><time>2026-03-28T16:12:00Z</time></trkpt><trkpt lat="43.98745923005682" lon="12.106972974992933"><ele>384.4</ele><time>2026-03-28T16:12:01Z</time></trkpt><trkpt lat="43.987466502393154" lon="12.107091662340652"><ele>384.79999999999995</ele><time>2026-03-28T16:12:02Z</time></trkpt><trkpt lat="43.987438981644424" lon="12.107200306051983"><ele>385.20000000000005</ele><time>2026-03-28T16:12:03Z</time></trkpt><trkpt lat="43.98742917120319" lon="12.107345954524678"><ele>385.6</ele><time>2026-03-28T16:12:04Z</time></trkpt><trkpt lat="43.98738171579513" lon="12.107494684768625"><ele>386.0</ele><time>2026-03-28T16:12:05Z</time></trkpt><trkpt lat="43.987291220287084" lon="12.107621087141368"><ele>388.4</ele><time>2026-03-28T16:12:06Z</time></trkpt><trkpt lat="43.98723319615308" lon="12.107766156373982"><ele>390.8</ele><time>2026-03-28T16:12:07Z</time></trkpt><trkpt lat="43.987177551930834" lon="12.107884410265392"><ele>393.2</ele><time>2026-03-28T16:12:08Z</time></trkpt><trkpt lat="43.98714708750172" lon="12.107989510163584"><ele>395.59999999999997</ele><time>2026-03-28T16:12:09Z</time></trkpt><trkpt lat="43.98713758407202" lon="12.108116309308942"><ele>398.0</ele><time>2026-03-28T16:12:10Z</time></trkpt><trkpt lat="43.98714403974744" lon="12.108240538339214"><ele>399.0</ele><time>2026-03-28T16:12:11Z</time></trkpt><trkpt lat="43.98713542008921" lon="12.10838534337951"><ele>400.0</ele><time>2026-03-28T16:12:12Z</time></trkpt><trkpt lat="43.98710715966591" lon="12.108556967761688"><ele>401.0</ele><time>2026-03-28T16:12:13Z</time></trkpt><trkpt lat="43.98704312383308" lon="12.10873297330302"><ele>402.0</ele><time>2026-03-28T16:12:14Z</time></trkpt><trkpt lat="43.987001467847605" lon="12.108921381707075"><ele>402.40000000000003</ele><time>2026-03-28T16:12:15Z</time></trkpt><trkpt lat="43.98698778685599" lon="12.109109620699936"><ele>402.8</ele><time>2026-03-28T16:12:16Z</time></trkpt><trkpt lat="43.98697068720631" lon="12.109259999525921"><ele>403.2</ele><time>2026-03-28T16:12:17Z</time></trkpt><trkpt lat="43.98696343385392" lon="12.109384423821568"><ele>403.6</ele><time>2026-03-28T16:12:18Z</time></trkpt><trkpt lat="43.98697226964192" lon="12.109481323279837"><ele>404.0</ele><time>2026-03-28T16:12:19Z</time></trkpt><trkpt lat="43.98700980635879" lon="12.109573970454584"><ele>403.99999999999994</ele><time>2026-03-28T16:12:20Z</time></trkpt><trkpt lat="43.98704837856828" lon="12.109691803091112"><ele>404.0</ele><time>2026-03-28T16:12:21Z</time></trkpt><trkpt lat="43.9870857387299" lon="12.109804945455556"><ele>404.0</ele><time>2026-03-28T16:12:22Z</time></trkpt><trkpt lat="43.98712407568575" lon="12.109890846091336"><ele>404.0</ele><time>2026-03-28T16:12:23Z</time></trkpt><trkpt lat="43.98714991369979" lon="12.109981420716718"><ele>403.99999999999994</ele><time>2026-03-28T16:12:24Z</time></trkpt><trkpt lat="43.987170228383846" lon="12.110077615322032"><ele>404.0</ele><time>2026-03-28T16:12:26Z</time></trkpt><trkpt lat="43.98710743210824" lon="12.110231473997738"><ele>406.66666666666663</ele><time>2026-03-28T16:12:28Z</time></trkpt><trkpt lat="43.98708667948632" lon="12.110407202684467"><ele>409.3333333333333</ele><time>2026-03-28T16:12:30Z</time></trkpt><trkpt lat="43.98708118210729" lon="12.11050175451498"><ele>412.0</ele><time>2026-03-28T16:12:31Z</time></trkpt><trkpt lat="43.98707153436305" lon="12.110599537676915"><ele>414.66666666666663</ele><time>2026-03-28T16:12:32Z</time></trkpt><trkpt lat="43.9870534782509" lon="12.11069296128929"><ele>417.3333333333333</ele><time>2026-03-28T16:12:33Z</time></trkpt><trkpt lat="43.987042410408016" lon="12.110789515524823"><ele>420.0</ele><time>2026-03-28T16:12:34Z</time></trkpt><trkpt lat="43.98704513248905" lon="12.110918939546426"><ele>420.0</ele><time>2026-03-28T16:12:36Z</time></trkpt><trkpt lat="43.98704613065476" lon="12.110761511822552"><ele>420.0</ele><time>2026-03-28T16:12:55Z</time></trkpt><trkpt lat="43.98706776756242" lon="12.110576781458397"><ele>420.0</ele><time>2026-03-28T16:12:56Z</time></trkpt><trkpt lat="43.98707553823663" lon="12.110434509648202"><ele>420.0</ele><time>2026-03-28T16:12:57Z</time></trkpt><trkpt lat="43.98708797784943" lon="12.11033605647523"><ele>420.0</ele><time>2026-03-28T16:12:58Z</time></trkpt><trkpt lat="43.98709405920602" lon="12.110238794635318"><ele>420.0</ele><time>2026-03-28T16:12:59Z</time></trkpt><trkpt lat="43.98710568561796" lon="12.11014614297938"><ele>420.0</ele><time>2026-03-28T16:13:00Z</time></trkpt><trkpt lat="43.98718221338451" lon="12.11008767591739"><ele>420.0</ele><time>2026-03-28T16:13:01Z</time></trkpt><trkpt lat="43.987158138326436" lon="12.109904215204697"><ele>420.0</ele><time>2026-03-28T16:13:03Z</time></trkpt><trkpt lat="43.98711513934718" lon="12.10979785477889"><ele>420.0</ele><time>2026-03-28T16:13:04Z</time></trkpt><trkpt lat="43.98707675683365" lon="12.109682988089872"><ele>416.8</ele><time>2026-03-28T16:13:05Z</time></trkpt><trkpt lat="43.987039571249305" lon="12.109560318611408"><ele>413.6</ele><time>2026-03-28T16:13:06Z</time></trkpt><trkpt lat="43.9870096193339" lon="12.10943466600499"><ele>410.4</ele><time>2026-03-28T16:13:07Z</time></trkpt><trkpt lat="43.98698725827585" lon="12.109306266721097"><ele>407.2</ele><time>2026-03-28T16:13:08Z</time></trkpt><trkpt lat="43.987021447357684" lon="12.109193905775085"><ele>404.0</ele><time>2026-03-28T16:13:09Z</time></trkpt><trkpt lat="43.98701677659875" lon="12.109041855090567"><ele>403.6</ele><time>2026-03-28T16:13:10Z</time></trkpt><trkpt lat="43.98703802122769" lon="12.108911971432528"><ele>403.2</ele><time>2026-03-28T16:13:11Z</time></trkpt><trkpt lat="43.987069842999276" lon="12.108769142581762"><ele>402.8</ele><time>2026-03-28T16:13:12Z</time></trkpt><trkpt lat="43.98710854276798" lon="12.108639882519684"><ele>402.40000000000003</ele><time>2026-03-28T16:13:13Z</time></trkpt><trkpt lat="43.987147076584925" lon="12.108522392549935"><ele>402.0</ele><time>2026-03-28T16:13:14Z</time></trkpt><trkpt lat="43.98716906275422" lon="12.108431565682203"><ele>402.0</ele><time>2026-03-28T16:13:15Z</time></trkpt><trkpt lat="43.987183048783784" lon="12.10826808864666"><ele>402.0</ele><time>2026-03-28T16:13:17Z</time></trkpt><trkpt lat="43.98717086071168" lon="12.10810923124226"><ele>402.0</ele><time>2026-03-28T16:13:19Z</time></trkpt><trkpt lat="43.987175762765425" lon="12.108002236651865"><ele>402.0</ele><time>2026-03-28T16:13:20Z</time></trkpt><trkpt lat="43.98719700372011" lon="12.107905519362724"><ele>402.0</ele><time>2026-03-28T16:13:21Z</time></trkpt><trkpt lat="43.98723309387048" lon="12.107817636658895"><ele>401.0</ele><time>2026-03-28T16:13:22Z</time></trkpt><trkpt lat="43.9872871642574" lon="12.107704557675625"><ele>400.0</ele><time>2026-03-28T16:13:23Z</time></trkpt><trkpt lat="43.98736500967432" lon="12.107571010267021"><ele>399.0</ele><time>2026-03-28T16:13:24Z</time></trkpt><trkpt lat="43.987433217948414" lon="12.107419613455608"><ele>398.0</ele><time>2026-03-28T16:13:25Z</time></trkpt><trkpt lat="43.98744930433759" lon="12.107245099359707"><ele>397.75</ele><time>2026-03-28T16:13:26Z</time></trkpt><trkpt lat="43.987479471725955" lon="12.10707374944782"><ele>397.5</ele><time>2026-03-28T16:13:27Z</time></trkpt><trkpt lat="43.98749788338" lon="12.106902289293492"><ele>397.25</ele><time>2026-03-28T16:13:28Z</time></trkpt><trkpt lat="43.98754898864259" lon="12.106764764375692"><ele>397.0</ele><time>2026-03-28T16:13:29Z</time></trkpt><trkpt lat="43.987578942764884" lon="12.10662270328113"><ele>393.75</ele><time>2026-03-28T16:13:30Z</time></trkpt><trkpt lat="43.98763400620527" lon="12.10648136759973"><ele>390.5</ele><time>2026-03-28T16:13:31Z</time></trkpt><trkpt lat="43.98768313097915" lon="12.106334689528403"><ele>387.25</ele><time>2026-03-28T16:13:32Z</time></trkpt><trkpt lat="43.98774265451873" lon="12.106187279333856"><ele>384.0</ele><time>2026-03-28T16:13:33Z</time></trkpt><trkpt lat="43.98781193543732" lon="12.106043569518528"><ele>384.0</ele><time>2026-03-28T16:13:34Z</time></trkpt><trkpt lat="43.98789812753378" lon="12.10590712311102"><ele>384.0</ele><time>2026-03-28T16:13:35Z</time></trkpt><trkpt lat="43.98797487525548" lon="12.10575513303583"><ele>384.0</ele><time>2026-03-28T16:13:36Z</time></trkpt><trkpt lat="43.98805152694685" lon="12.10560231070298"><ele>384.0</ele><time>2026-03-28T16:13:37Z</time></trkpt><trkpt lat="43.988125083297966" lon="12.10546105271904"><ele>378.79999999999995</ele><time>2026-03-28T16:13:38Z</time></trkpt><trkpt lat="43.988191796404735" lon="12.105337785761046"><ele>373.59999999999997</ele><time>2026-03-28T16:13:39Z</time></trkpt><trkpt lat="43.988255099892825" lon="12.105224959528352"><ele>368.4</ele><time>2026-03-28T16:13:40Z</time></trkpt><trkpt lat="43.98831611726573" lon="12.105128036041084"><ele>363.2</ele><time>2026-03-28T16:13:41Z</time></trkpt><trkpt lat="43.98837261017435" lon="12.105038513529358"><ele>358.0</ele><time>2026-03-28T16:13:42Z</time></trkpt><trkpt lat="43.98846409117971" lon="12.105003631441914"><ele>355.0</ele><time>2026-03-28T16:13:43Z</time></trkpt><trkpt lat="43.98856940326136" lon="12.10502785947136"><ele>352.0</ele><time>2026-03-28T16:13:44Z</time></trkpt><trkpt lat="43.9886590928774" lon="12.105071438759946"><ele>349.0</ele><time>2026-03-28T16:13:45Z</time></trkpt><trkpt lat="43.98874154682129" lon="12.105106996146427"><ele>346.0</ele><time>2026-03-28T16:13:46Z</time></trkpt><trkpt lat="43.98881449337111" lon="12.105143828001008"><ele>343.0</ele><time>2026-03-28T16:13:47Z</time></trkpt><trkpt lat="43.98887939552497" lon="12.105170333803422"><ele>340.0</ele><time>2026-03-28T16:13:48Z</time></trkpt><trkpt lat="43.988954390373564" lon="12.105218636568107"><ele>340.0</ele><time>2026-03-28T16:13:50Z</time></trkpt><trkpt lat="43.98899727931997" lon="12.10514427660117"><ele>340.0</ele><time>2026-03-28T16:13:53Z</time></trkpt><trkpt lat="43.98897232491368" lon="12.104977240851312"><ele>340.0</ele><time>2026-03-28T16:13:55Z</time></trkpt><trkpt lat="43.98889585319956" lon="12.10485327895945"><ele>340.0</ele><time>2026-03-28T16:13:56Z</time></trkpt><trkpt lat="43.98880898936287" lon="12.104706132110234"><ele>340.0</ele><time>2026-03-28T16:13:57Z</time></trkpt><trkpt lat="43.9887298666903" lon="12.10458277568509"><ele>338.3333333333333</ele><time>2026-03-28T16:13:58Z</time></trkpt><trkpt lat="43.98865425912533" lon="12.104467755635742"><ele>336.66666666666663</ele><time>2026-03-28T16:13:59Z</time></trkpt><trkpt lat="43.988587951956816" lon="12.104369924235632"><ele>335.0</ele><time>2026-03-28T16:14:00Z</time></trkpt><trkpt lat="43.988536962270345" lon="12.104296587000144"><ele>333.3333333333333</ele><time>2026-03-28T16:14:01Z</time></trkpt><trkpt lat="43.9884782528252" lon="12.104240190575387"><ele>331.6666666666667</ele><time>2026-03-28T16:14:02Z</time></trkpt><trkpt lat="43.988385076727006" lon="12.104224344445994"><ele>330.0</ele><time>2026-03-28T16:14:03Z</time></trkpt><trkpt lat="43.98829322785228" lon="12.10426132096404"><ele>330.0</ele><time>2026-03-28T16:14:04Z</time></trkpt><trkpt lat="43.98820367720715" lon="12.104324145377241"><ele>330.0</ele><time>2026-03-28T16:14:05Z</time></trkpt><trkpt lat="43.98812032873314" lon="12.104350384239611"><ele>330.0</ele><time>2026-03-28T16:14:06Z</time></trkpt><trkpt lat="43.98803816747669" lon="12.104336925859467"><ele>330.0</ele><time>2026-03-28T16:14:07Z</time></trkpt><trkpt lat="43.98795693780577" lon="12.104306567344121"><ele>330.0</ele><time>2026-03-28T16:14:08Z</time></trkpt><trkpt lat="43.98787454446279" lon="12.104240081835112"><ele>330.0</ele><time>2026-03-28T16:14:09Z</time></trkpt><trkpt lat="43.98778876686405" lon="12.104165734534858"><ele>330.0</ele><time>2026-03-28T16:14:10Z</time></trkpt><trkpt lat="43.98768996055236" lon="12.104112124643835"><ele>330.0</ele><time>2026-03-28T16:14:11Z</time></trkpt><trkpt lat="43.98760170367227" lon="12.104038249496938"><ele>330.0</ele><time>2026-03-28T16:14:12Z</time></trkpt><trkpt lat="43.98752235100316" lon="12.103959750786222"><ele>330.0</ele><time>2026-03-28T16:14:13Z</time></trkpt><trkpt lat="43.98746959892033" lon="12.103898139139394"><ele>330.0</ele><time>2026-03-28T16:14:14Z</time></trkpt><trkpt lat="43.98741527680107" lon="12.103809277950353"><ele>326.1666666666667</ele><time>2026-03-28T16:14:15Z</time></trkpt><trkpt lat="43.987372187601096" lon="12.103721203466167"><ele>322.3333333333333</ele><time>2026-03-28T16:14:16Z</time></trkpt><trkpt lat="43.98733932434651" lon="12.103610284265882"><ele>318.5</ele><time>2026-03-28T16:14:17Z</time></trkpt><trkpt lat="43.98732062516573" lon="12.103488844048478"><ele>314.66666666666663</ele><time>2026-03-28T16:14:18Z</time></trkpt><trkpt lat="43.9872804750045" lon="12.103392664567641"><ele>310.8333333333333</ele><time>2026-03-28T16:14:19Z</time></trkpt><trkpt lat="43.987234492952425" lon="12.103297477738149"><ele>307.0</ele><time>2026-03-28T16:14:20Z</time></trkpt><trkpt lat="43.98717916180678" lon="12.103198905565135"><ele>304.8333333333333</ele><time>2026-03-28T16:14:21Z</time></trkpt><trkpt lat="43.987144840576434" lon="12.103062220962373"><ele>302.66666666666663</ele><time>2026-03-28T16:14:22Z</time></trkpt><trkpt lat="43.98710067088318" lon="12.102967687856507"><ele>300.5</ele><time>2026-03-28T16:14:23Z</time></trkpt><trkpt lat="43.987048466461744" lon="12.102896247672764"><ele>298.3333333333333</ele><time>2026-03-28T16:14:24Z</time></trkpt><trkpt lat="43.98697269343542" lon="12.102846689850669"><ele>296.1666666666667</ele><time>2026-03-28T16:14:25Z</time></trkpt><trkpt lat="43.986871329696854" lon="12.10283306854334"><ele>294.0</ele><time>2026-03-28T16:14:26Z</time></trkpt><trkpt lat="43.98676820705897" lon="12.102886178053732"><ele>294.0</ele><time>2026-03-28T16:14:27Z</time></trkpt><trkpt lat="43.98668712117933" lon="12.102910729954814"><ele>294.0</ele><time>2026-03-28T16:14:28Z</time></trkpt><trkpt lat="43.986575038681416" lon="12.102935428323393"><ele>294.0</ele><time>2026-03-28T16:14:30Z</time></trkpt><trkpt lat="43.98654223801466" lon="12.102855434331461"><ele>294.0</ele><time>2026-03-28T16:14:32Z</time></trkpt><trkpt lat="43.986575518841605" lon="12.10275624784534"><ele>294.0</ele><time>2026-03-28T16:14:33Z</time></trkpt><trkpt lat="43.986681226970475" lon="12.102659575668806"><ele>294.0</ele><time>2026-03-28T16:14:34Z</time></trkpt><trkpt lat="43.986807743934044" lon="12.102478177464565"><ele>294.0</ele><time>2026-03-28T16:14:35Z</time></trkpt><trkpt lat="43.98688943292026" lon="12.102286095288177"><ele>294.0</ele><time>2026-03-28T16:14:36Z</time></trkpt><trkpt lat="43.986972708193434" lon="12.102116635008567"><ele>289.75</ele><time>2026-03-28T16:14:37Z</time></trkpt><trkpt lat="43.98705976181047" lon="12.101963649147478"><ele>285.5</ele><time>2026-03-28T16:14:38Z</time></trkpt><trkpt lat="43.98715861432354" lon="12.101821210203784"><ele>281.25</ele><time>2026-03-28T16:14:39Z</time></trkpt><trkpt lat="43.9872455451944" lon="12.101709563311474"><ele>277.0</ele><time>2026-03-28T16:14:40Z</time></trkpt><trkpt lat="43.98731130889988" lon="12.101625278076359"><ele>275.16666666666663</ele><time>2026-03-28T16:14:41Z</time></trkpt><trkpt lat="43.987370295352136" lon="12.101561427846828"><ele>273.3333333333333</ele><time>2026-03-28T16:14:42Z</time></trkpt><trkpt lat="43.98743661259377" lon="12.101514584667491"><ele>271.5</ele><time>2026-03-28T16:14:43Z</time></trkpt><trkpt lat="43.98751239437217" lon="12.101533048574277"><ele>269.6666666666667</ele><time>2026-03-28T16:14:44Z</time></trkpt><trkpt lat="43.98758403782333" lon="12.101610650592919"><ele>267.83333333333337</ele><time>2026-03-28T16:14:45Z</time></trkpt><trkpt lat="43.98760844510324" lon="12.101750305889801"><ele>266.0</ele><time>2026-03-28T16:14:46Z</time></trkpt><trkpt lat="43.987680615786914" lon="12.10182412258699"><ele>266.0</ele><time>2026-03-28T16:14:47Z</time></trkpt><trkpt lat="43.987757688520716" lon="12.101892367852225"><ele>266.0</ele><time>2026-03-28T16:14:48Z</time></trkpt><trkpt lat="43.98784906875684" lon="12.101956185112149"><ele>266.0</ele><time>2026-03-28T16:14:49Z</time></trkpt><trkpt lat="43.98794132875999" lon="12.102005978090302"><ele>266.0</ele><time>2026-03-28T16:14:50Z</time></trkpt><trkpt lat="43.98803370948007" lon="12.102029565797931"><ele>266.0</ele><time>2026-03-28T16:14:51Z</time></trkpt><trkpt lat="43.98812697043124" lon="12.102026159793377"><ele>266.0</ele><time>2026-03-28T16:14:52Z</time></trkpt><trkpt lat="43.98819118877191" lon="12.102004389104266"><ele>266.0</ele><time>2026-03-28T16:14:53Z</time></trkpt><trkpt lat="43.98826002795382" lon="12.10198928086684"><ele>266.0</ele><time>2026-03-28T16:14:55Z</time></trkpt><trkpt lat="43.988322464711935" lon="12.10197709285487"><ele>266.0</ele><time>2026-03-28T16:16:06Z</time></trkpt><trkpt lat="43.988435309149715" lon="12.10197398495346"><ele>266.0</ele><time>2026-03-28T16:16:08Z</time></trkpt><trkpt lat="43.98849949034845" lon="12.101988350643"><ele>266.0</ele><time>2026-03-28T16:16:09Z</time></trkpt><trkpt lat="43.98857268279258" lon="12.102020839392392"><ele>264.1666666666667</ele><time>2026-03-28T16:16:10Z</time></trkpt><trkpt lat="43.98864114143756" lon="12.102051731268702"><ele>262.33333333333337</ele><time>2026-03-28T16:16:11Z</time></trkpt><trkpt lat="43.98870562029294" lon="12.102079000802766"><ele>260.5</ele><time>2026-03-28T16:16:12Z</time></trkpt><trkpt lat="43.9887690049571" lon="12.102105807619337"><ele>258.6666666666667</ele><time>2026-03-28T16:16:13Z</time></trkpt><trkpt lat="43.988843748048026" lon="12.102137418188985"><ele>256.8333333333333</ele><time>2026-03-28T16:16:14Z</time></trkpt><trkpt lat="43.988919285428935" lon="12.102181363152082"><ele>255.0</ele><time>2026-03-28T16:16:15Z</time></trkpt><trkpt lat="43.989002966016706" lon="12.102232486713499"><ele>255.0</ele><time>2026-03-28T16:16:16Z</time></trkpt><trkpt lat="43.989089270791695" lon="12.10228067173932"><ele>255.0</ele><time>2026-03-28T16:16:17Z</time></trkpt><trkpt lat="43.9891695168556" lon="12.102341024330508"><ele>255.0</ele><time>2026-03-28T16:16:18Z</time></trkpt><trkpt lat="43.989262267135466" lon="12.1023973040143"><ele>255.0</ele><time>2026-03-28T16:16:19Z</time></trkpt><trkpt lat="43.989350201157876" lon="12.1024858512222"><ele>255.0</ele><time>2026-03-28T16:16:20Z</time></trkpt><trkpt lat="43.98944583966416" lon="12.102560485493283"><ele>252.8</ele><time>2026-03-28T16:16:21Z</time></trkpt><trkpt lat="43.98953734716589" lon="12.10263189600208"><ele>250.6</ele><time>2026-03-28T16:16:22Z</time></trkpt><trkpt lat="43.989627562692604" lon="12.102698983522505"><ele>248.39999999999998</ele><time>2026-03-28T16:16:23Z</time></trkpt><trkpt lat="43.98971895320535" lon="12.102751136668143"><ele>246.2</ele><time>2026-03-28T16:16:24Z</time></trkpt><trkpt lat="43.989790405924595" lon="12.102787017142752"><ele>244.0</ele><time>2026-03-28T16:16:25Z</time></trkpt><trkpt lat="43.98990512541623" lon="12.102811751845113"><ele>243.99999999999997</ele><time>2026-03-28T16:16:27Z</time></trkpt><trkpt lat="43.98996867184836" lon="12.102760865732812"><ele>244.0</ele><time>2026-03-28T16:16:28Z</time></trkpt><trkpt lat="43.989995013291" lon="12.10262337243304"><ele>244.0</ele><time>2026-03-28T16:16:29Z</time></trkpt><trkpt lat="43.98995309620191" lon="12.102509196996241"><ele>244.0</ele><time>2026-03-28T16:16:30Z</time></trkpt><trkpt lat="43.98995033718219" lon="12.102420357108867"><ele>243.99999999999997</ele><time>2026-03-28T16:16:31Z</time></trkpt><trkpt lat="43.990033615017474" lon="12.102353737120463"><ele>244.0</ele><time>2026-03-28T16:16:33Z</time></trkpt><trkpt lat="43.99010265809412" lon="12.102314808072979"><ele>238.49999999999997</ele><time>2026-03-28T16:16:34Z</time></trkpt><trkpt lat="43.990167362532844" lon="12.102269977203093"><ele>233.0</ele><time>2026-03-28T16:16:35Z</time></trkpt><trkpt lat="43.99024662521093" lon="12.102252422732342"><ele>227.5</ele><time>2026-03-28T16:16:36Z</time></trkpt><trkpt lat="43.99032310731713" lon="12.102235481233736"><ele>222.0</ele><time>2026-03-28T16:16:37Z</time></trkpt><trkpt lat="43.990393641540535" lon="12.10222860735556"><ele>216.49999999999997</ele><time>2026-03-28T16:16:38Z</time></trkpt><trkpt lat="43.99049854599661" lon="12.102226235060408"><ele>211.0</ele><time>2026-03-28T16:16:40Z</time></trkpt><trkpt lat="43.99057267696525" lon="12.102235220731204"><ele>211.0</ele><time>2026-03-28T16:16:42Z</time></trkpt><trkpt lat="43.990693933525854" lon="12.10223108290402"><ele>211.0</ele><time>2026-03-28T16:16:58Z</time></trkpt><trkpt lat="43.99076317787386" lon="12.102293571874174"><ele>211.0</ele><time>2026-03-28T16:16:59Z</time></trkpt><trkpt lat="43.990835346526275" lon="12.102362621239374"><ele>211.0</ele><time>2026-03-28T16:17:00Z</time></trkpt><trkpt lat="43.990899632778785" lon="12.10246654323286"><ele>211.0</ele><time>2026-03-28T16:17:01Z</time></trkpt><trkpt lat="43.990966325737006" lon="12.102560853384146"><ele>211.33333333333331</ele><time>2026-03-28T16:17:02Z</time></trkpt><trkpt lat="43.99103668159595" lon="12.102634333444561"><ele>211.66666666666666</ele><time>2026-03-28T16:17:03Z</time></trkpt><trkpt lat="43.99108316237352" lon="12.10273134049778"><ele>212.0</ele><time>2026-03-28T16:17:04Z</time></trkpt><trkpt lat="43.99113288036182" lon="12.10281301793062"><ele>212.33333333333331</ele><time>2026-03-28T16:17:05Z</time></trkpt><trkpt lat="43.99119944038479" lon="12.102893240266798"><ele>212.66666666666666</ele><time>2026-03-28T16:17:06Z</time></trkpt><trkpt lat="43.991293049497024" lon="12.102960944857562"><ele>213.0</ele><time>2026-03-28T16:17:07Z</time></trkpt><trkpt lat="43.99141152517829" lon="12.103004098622108"><ele>213.0</ele><time>2026-03-28T16:17:08Z</time></trkpt><trkpt lat="43.9915301567351" lon="12.103057658074366"><ele>213.0</ele><time>2026-03-28T16:17:09Z</time></trkpt><trkpt lat="43.99166312520168" lon="12.103129234785076"><ele>213.0</ele><time>2026-03-28T16:17:10Z</time></trkpt><trkpt lat="43.99178996145369" lon="12.103242645006883"><ele>213.0</ele><time>2026-03-28T16:17:11Z</time></trkpt><trkpt lat="43.99190038817941" lon="12.103381049007709"><ele>212.5</ele><time>2026-03-28T16:17:12Z</time></trkpt><trkpt lat="43.991997581434035" lon="12.103524955401799"><ele>212.0</ele><time>2026-03-28T16:17:13Z</time></trkpt><trkpt lat="43.992095228624024" lon="12.103663232530348"><ele>211.5</ele><time>2026-03-28T16:17:14Z</time></trkpt><trkpt lat="43.99219817749181" lon="12.103809590343136"><ele>211.0</ele><time>2026-03-28T16:17:15Z</time></trkpt><trkpt lat="43.992299070845526" lon="12.10394945349435"><ele>212.75</ele><time>2026-03-28T16:17:16Z</time></trkpt><trkpt lat="43.99238403262139" lon="12.104095202176328"><ele>214.5</ele><time>2026-03-28T16:17:17Z</time></trkpt><trkpt lat="43.99245468920551" lon="12.104249895913142"><ele>216.25</ele><time>2026-03-28T16:17:18Z</time></trkpt><trkpt lat="43.992554719990956" lon="12.104452078516452"><ele>218.0</ele><time>2026-03-28T16:17:19Z</time></trkpt><trkpt lat="43.9925911715927" lon="12.104692190696973"><ele>207.0</ele><time>2026-03-28T16:17:20Z</time></trkpt><trkpt lat="43.99263565558588" lon="12.104925371642048"><ele>196.0</ele><time>2026-03-28T16:17:21Z</time></trkpt><trkpt lat="43.99271234522633" lon="12.105152888596985"><ele>185.0</ele><time>2026-03-28T16:17:22Z</time></trkpt><trkpt lat="43.992781287916" lon="12.105367853034124"><ele>185.0</ele><time>2026-03-28T16:17:23Z</time></trkpt><trkpt lat="43.992858245046136" lon="12.105561818727033"><ele>185.0</ele><time>2026-03-28T16:17:24Z</time></trkpt><trkpt lat="43.99293337286241" lon="12.105734434575446"><ele>185.0</ele><time>2026-03-28T16:17:25Z</time></trkpt><trkpt lat="43.992996833389476" lon="12.105891949162116"><ele>185.0</ele><time>2026-03-28T16:17:26Z</time></trkpt><trkpt lat="43.99304508435421" lon="12.106044230204635"><ele>187.0</ele><time>2026-03-28T16:17:27Z</time></trkpt><trkpt lat="43.9930527512297" lon="12.106213949545902"><ele>189.0</ele><time>2026-03-28T16:17:28Z</time></trkpt><trkpt lat="43.99308125767198" lon="12.106398226165016"><ele>191.0</ele><time>2026-03-28T16:17:29Z</time></trkpt><trkpt lat="43.99310255897271" lon="12.10657590172923"><ele>193.0</ele><time>2026-03-28T16:17:30Z</time></trkpt><trkpt lat="43.99314767331817" lon="12.106738443733736"><ele>192.8</ele><time>2026-03-28T16:17:31Z</time></trkpt><trkpt lat="43.99321577322717" lon="12.10688183227305"><ele>192.60000000000002</ele><time>2026-03-28T16:17:32Z</time></trkpt><trkpt lat="43.993284201430114" lon="12.106983952268994"><ele>192.39999999999998</ele><time>2026-03-28T16:17:33Z</time></trkpt><trkpt lat="43.99335103704604" lon="12.10706030173128"><ele>192.2</ele><time>2026-03-28T16:17:34Z</time></trkpt><trkpt lat="43.99341970150522" lon="12.107111402066865"><ele>192.0</ele><time>2026-03-28T16:17:35Z</time></trkpt><trkpt lat="43.993501351162195" lon="12.107118497170427"><ele>192.0</ele><time>2026-03-28T16:17:36Z</time></trkpt><trkpt lat="43.99358963533947" lon="12.107122683096554"><ele>192.0</ele><time>2026-03-28T16:17:37Z</time></trkpt><trkpt lat="43.99367203331721" lon="12.107139457373739"><ele>192.0</ele><time>2026-03-28T16:17:38Z</time></trkpt><trkpt lat="43.993750774278304" lon="12.107150409839994"><ele>192.0</ele><time>2026-03-28T16:17:39Z</time></trkpt><trkpt lat="43.99382264313233" lon="12.107132949740697"><ele>192.0</ele><time>2026-03-28T16:17:40Z</time></trkpt><trkpt lat="43.99388258135208" lon="12.107079373991315"><ele>192.0</ele><time>2026-03-28T16:17:41Z</time></trkpt><trkpt lat="43.99392347489374" lon="12.10697550717002"><ele>192.0</ele><time>2026-03-28T16:17:42Z</time></trkpt><trkpt lat="43.993945979133024" lon="12.106832498399427"><ele>192.0</ele><time>2026-03-28T16:17:43Z</time></trkpt><trkpt lat="43.99401389819685" lon="12.106723631008583"><ele>192.0</ele><time>2026-03-28T16:17:44Z</time></trkpt><trkpt lat="43.994087906360456" lon="12.106621226911464"><ele>192.0</ele><time>2026-03-28T16:17:45Z</time></trkpt><trkpt lat="43.994168039953934" lon="12.106516996755829"><ele>192.0</ele><time>2026-03-28T16:17:46Z</time></trkpt><trkpt lat="43.99422495539441" lon="12.106396348713577"><ele>187.16666666666666</ele><time>2026-03-28T16:17:47Z</time></trkpt><trkpt lat="43.99429175009604" lon="12.106303501560163"><ele>182.33333333333334</ele><time>2026-03-28T16:17:48Z</time></trkpt><trkpt lat="43.99433931211667" lon="12.106201019456723"><ele>177.5</ele><time>2026-03-28T16:17:49Z</time></trkpt><trkpt lat="43.99439278498192" lon="12.106111462223197"><ele>172.66666666666669</ele><time>2026-03-28T16:17:50Z</time></trkpt><trkpt lat="43.99445146424588" lon="12.106052404769379"><ele>167.83333333333334</ele><time>2026-03-28T16:17:51Z</time></trkpt><trkpt lat="43.994527344472566" lon="12.105976797921544"><ele>163.0</ele><time>2026-03-28T16:17:53Z</time></trkpt><trkpt lat="43.994614768674104" lon="12.106046674966429"><ele>163.0</ele><time>2026-03-28T16:17:55Z</time></trkpt><trkpt lat="43.9946527248469" lon="12.106146637647079"><ele>163.0</ele><time>2026-03-28T16:17:56Z</time></trkpt><trkpt lat="43.99469723133491" lon="12.10623898652862"><ele>163.0</ele><time>2026-03-28T16:17:57Z</time></trkpt><trkpt lat="43.994714980075315" lon="12.106334590386776"><ele>163.0</ele><time>2026-03-28T16:17:58Z</time></trkpt><trkpt lat="43.99467595918117" lon="12.106418146192576"><ele>163.0</ele><time>2026-03-28T16:17:59Z</time></trkpt><trkpt lat="43.99458774960409" lon="12.106498782750025"><ele>163.0</ele><time>2026-03-28T16:18:01Z</time></trkpt><trkpt lat="43.99447019826" lon="12.106648456812477"><ele>164.33333333333334</ele><time>2026-03-28T16:18:03Z</time></trkpt><trkpt lat="43.994365306435874" lon="12.106773941071038"><ele>165.66666666666666</ele><time>2026-03-28T16:18:04Z</time></trkpt><trkpt lat="43.994230690695666" lon="12.106925044215544"><ele>167.0</ele><time>2026-03-28T16:18:05Z</time></trkpt><trkpt lat="43.994084461999115" lon="12.107098733667481"><ele>172.33333333333331</ele><time>2026-03-28T16:18:06Z</time></trkpt><trkpt lat="43.993963454035686" lon="12.107296578782778"><ele>177.66666666666666</ele><time>2026-03-28T16:18:07Z</time></trkpt><trkpt lat="43.99387340894319" lon="12.107455840161002"><ele>183.0</ele><time>2026-03-28T16:18:08Z</time></trkpt><trkpt lat="43.99378977619092" lon="12.107571256488422"><ele>183.0</ele><time>2026-03-28T16:18:09Z</time></trkpt><trkpt lat="43.99372773238276" lon="12.107667868626537"><ele>183.0</ele><time>2026-03-28T16:18:10Z</time></trkpt><trkpt lat="43.9936950048974" lon="12.107768503997807"><ele>183.0</ele><time>2026-03-28T16:18:11Z</time></trkpt><trkpt lat="43.99365541998425" lon="12.10783743894143"><ele>183.0</ele><time>2026-03-28T16:18:12Z</time></trkpt><trkpt lat="43.993703701239575" lon="12.107895117619524"><ele>183.0</ele><time>2026-03-28T16:18:13Z</time></trkpt><trkpt lat="43.99380266786831" lon="12.107958379067457"><ele>183.0</ele><time>2026-03-28T16:18:15Z</time></trkpt><trkpt lat="43.99388761207239" lon="12.107935231289364"><ele>183.0</ele><time>2026-03-28T16:18:16Z</time></trkpt><trkpt lat="43.993989025523" lon="12.107888848564775"><ele>183.0</ele><time>2026-03-28T16:18:17Z</time></trkpt><trkpt lat="43.994119800909225" lon="12.107827174053961"><ele>183.0</ele><time>2026-03-28T16:18:18Z</time></trkpt><trkpt lat="43.99425831073423" lon="12.107753554973705"><ele>183.0</ele><time>2026-03-28T16:18:19Z</time></trkpt><trkpt lat="43.994415249076965" lon="12.107701020572257"><ele>179.0</ele><time>2026-03-28T16:18:20Z</time></trkpt><trkpt lat="43.994551636240374" lon="12.10764598298479"><ele>175.0</ele><time>2026-03-28T16:18:21Z</time></trkpt><trkpt lat="43.994681849421326" lon="12.107598124182053"><ele>171.0</ele><time>2026-03-28T16:18:22Z</time></trkpt><trkpt lat="43.99481404587809" lon="12.10757410206466"><ele>167.0</ele><time>2026-03-28T16:18:23Z</time></trkpt><trkpt lat="43.99492652519997" lon="12.107700463134222"><ele>165.66666666666666</ele><time>2026-03-28T16:18:24Z</time></trkpt><trkpt lat="43.9950510070342" lon="12.10781578241913"><ele>164.33333333333334</ele><time>2026-03-28T16:18:25Z</time></trkpt><trkpt lat="43.99518858182177" lon="12.107941423440492"><ele>163.0</ele><time>2026-03-28T16:18:26Z</time></trkpt><trkpt lat="43.9953170503608" lon="12.108057480378607"><ele>163.0</ele><time>2026-03-28T16:18:27Z</time></trkpt><trkpt lat="43.99544462844935" lon="12.108164448026999"><ele>163.0</ele><time>2026-03-28T16:18:28Z</time></trkpt><trkpt lat="43.99556121542897" lon="12.108256970891437"><ele>163.0</ele><time>2026-03-28T16:18:29Z</time></trkpt><trkpt lat="43.99567564282893" lon="12.108338344166754"><ele>163.0</ele><time>2026-03-28T16:18:30Z</time></trkpt><trkpt lat="43.9957957854523" lon="12.108414960935402"><ele>161.75</ele><time>2026-03-28T16:18:31Z</time></trkpt><trkpt lat="43.99591156025195" lon="12.108495262940279"><ele>160.5</ele><time>2026-03-28T16:18:32Z</time></trkpt><trkpt lat="43.996022608075876" lon="12.108577589557987"><ele>159.25</ele><time>2026-03-28T16:18:33Z</time></trkpt><trkpt lat="43.99612929676522" lon="12.10866884161817"><ele>158.0</ele><time>2026-03-28T16:18:34Z</time></trkpt><trkpt lat="43.9962291695618" lon="12.108767323206768"><ele>158.0</ele><time>2026-03-28T16:18:35Z</time></trkpt><trkpt lat="43.99632649857008" lon="12.10886663927562"><ele>158.0</ele><time>2026-03-28T16:18:36Z</time></trkpt><trkpt lat="43.99642090227549" lon="12.108971522488012"><ele>158.0</ele><time>2026-03-28T16:18:37Z</time></trkpt><trkpt lat="43.99651060393733" lon="12.1090743634246"><ele>158.0</ele><time>2026-03-28T16:18:38Z</time></trkpt><trkpt lat="43.9966009384393" lon="12.109177585811807"><ele>157.4</ele><time>2026-03-28T16:18:39Z</time></trkpt><trkpt lat="43.996688516091" lon="12.109278674080898"><ele>156.8</ele><time>2026-03-28T16:18:40Z</time></trkpt><trkpt lat="43.99677474647503" lon="12.109376040162507"><ele>156.2</ele><time>2026-03-28T16:18:41Z</time></trkpt><trkpt lat="43.99685734410403" lon="12.109481715428458"><ele>155.6</ele><time>2026-03-28T16:18:42Z</time></trkpt><trkpt lat="43.9969393748969" lon="12.109575348162666"><ele>155.0</ele><time>2026-03-28T16:18:43Z</time></trkpt><trkpt lat="43.99702060686591" lon="12.10966997380876"><ele>155.0</ele><time>2026-03-28T16:18:44Z</time></trkpt><trkpt lat="43.99711019920698" lon="12.109772627025778"><ele>155.0</ele><time>2026-03-28T16:18:45Z</time></trkpt><trkpt lat="43.99720705364584" lon="12.1098700343214"><ele>155.0</ele><time>2026-03-28T16:18:46Z</time></trkpt><trkpt lat="43.99729456735687" lon="12.109971716204635"><ele>155.0</ele><time>2026-03-28T16:18:47Z</time></trkpt><trkpt lat="43.99738711118807" lon="12.110075568576327"><ele>155.0</ele><time>2026-03-28T16:18:48Z</time></trkpt><trkpt lat="43.99748072980083" lon="12.110183638163488"><ele>155.0</ele><time>2026-03-28T16:18:49Z</time></trkpt><trkpt lat="43.99757560381594" lon="12.110290977316742"><ele>155.0</ele><time>2026-03-28T16:18:50Z</time></trkpt><trkpt lat="43.997673729093286" lon="12.110402954602089"><ele>155.0</ele><time>2026-03-28T16:18:51Z</time></trkpt><trkpt lat="43.99778042502457" lon="12.110523086198532"><ele>154.33333333333331</ele><time>2026-03-28T16:18:52Z</time></trkpt><trkpt lat="43.99789852553781" lon="12.110659121484057"><ele>153.66666666666666</ele><time>2026-03-28T16:18:53Z</time></trkpt><trkpt lat="43.99801347534004" lon="12.110798132469593"><ele>153.0</ele><time>2026-03-28T16:18:54Z</time></trkpt><trkpt lat="43.998143129503866" lon="12.110932365847649"><ele>153.0</ele><time>2026-03-28T16:18:55Z</time></trkpt><trkpt lat="43.99828221170953" lon="12.111087639031041"><ele>153.0</ele><time>2026-03-28T16:18:56Z</time></trkpt><trkpt lat="43.99842633449407" lon="12.111246264507407"><ele>153.0</ele><time>2026-03-28T16:18:57Z</time></trkpt><trkpt lat="43.998574454899384" lon="12.111416886515586"><ele>152.33333333333334</ele><time>2026-03-28T16:18:58Z</time></trkpt><trkpt lat="43.9987271176618" lon="12.111586607910985"><ele>151.66666666666669</ele><time>2026-03-28T16:18:59Z</time></trkpt><trkpt lat="43.99888038812799" lon="12.111759154798275"><ele>151.0</ele><time>2026-03-28T16:19:00Z</time></trkpt><trkpt lat="43.99903321915213" lon="12.111931627362063"><ele>150.0</ele><time>2026-03-28T16:19:01Z</time></trkpt><trkpt lat="43.99917852289479" lon="12.112097635144556"><ele>149.0</ele><time>2026-03-28T16:19:02Z</time></trkpt><trkpt lat="43.99931563776082" lon="12.112254461860761"><ele>148.0</ele><time>2026-03-28T16:19:03Z</time></trkpt><trkpt lat="43.99943968923254" lon="12.112400547745622"><ele>148.25</ele><time>2026-03-28T16:19:04Z</time></trkpt><trkpt lat="43.99955898024608" lon="12.112535544422464"><ele>148.5</ele><time>2026-03-28T16:19:05Z</time></trkpt><trkpt lat="43.99967338388962" lon="12.112664454382472"><ele>148.75</ele><time>2026-03-28T16:19:06Z</time></trkpt><trkpt lat="43.99977497222492" lon="12.112785958763013"><ele>149.0</ele><time>2026-03-28T16:19:07Z</time></trkpt><trkpt lat="43.9998763230467" lon="12.112904696223712"><ele>149.0</ele><time>2026-03-28T16:19:08Z</time></trkpt><trkpt lat="43.99997040595128" lon="12.113011944467141"><ele>149.0</ele><time>2026-03-28T16:19:09Z</time></trkpt><trkpt lat="44.000062398877034" lon="12.113091762341785"><ele>149.0</ele><time>2026-03-28T16:19:10Z</time></trkpt><trkpt lat="44.00016259967886" lon="12.113130915961063"><ele>149.0</ele><time>2026-03-28T16:19:11Z</time></trkpt><trkpt lat="44.00026809565203" lon="12.113138350658991"><ele>149.0</ele><time>2026-03-28T16:19:12Z</time></trkpt><trkpt lat="44.00038169804457" lon="12.113107401047882"><ele>149.0</ele><time>2026-03-28T16:19:13Z</time></trkpt><trkpt lat="44.00049802725485" lon="12.113041762313284"><ele>149.0</ele><time>2026-03-28T16:19:14Z</time></trkpt><trkpt lat="44.00061006900173" lon="12.112959159796247"><ele>149.0</ele><time>2026-03-28T16:19:15Z</time></trkpt><trkpt lat="44.000728923403265" lon="12.112865961351403"><ele>149.0</ele><time>2026-03-28T16:19:16Z</time></trkpt><trkpt lat="44.00085495776808" lon="12.112776103384205"><ele>148.4</ele><time>2026-03-28T16:19:17Z</time></trkpt><trkpt lat="44.00097220363987" lon="12.11269744686955"><ele>147.8</ele><time>2026-03-28T16:19:18Z</time></trkpt><trkpt lat="44.00107855415665" lon="12.112622549170622"><ele>147.2</ele><time>2026-03-28T16:19:19Z</time></trkpt><trkpt lat="44.001169962549724" lon="12.112565799316657"><ele>146.6</ele><time>2026-03-28T16:19:20Z</time></trkpt><trkpt lat="44.00125867578584" lon="12.112541215352422"><ele>146.0</ele><time>2026-03-28T16:19:21Z</time></trkpt><trkpt lat="44.001346448127606" lon="12.112533551084073"><ele>146.0</ele><time>2026-03-28T16:19:22Z</time></trkpt><trkpt lat="44.00144191962759" lon="12.112544871182765"><ele>146.0</ele><time>2026-03-28T16:19:23Z</time></trkpt><trkpt lat="44.0015289631072" lon="12.112569245947167"><ele>146.0</ele><time>2026-03-28T16:19:24Z</time></trkpt><trkpt lat="44.00161395430788" lon="12.112599377996485"><ele>146.0</ele><time>2026-03-28T16:19:25Z</time></trkpt><trkpt lat="44.001712135970344" lon="12.112630444153512"><ele>146.0</ele><time>2026-03-28T16:19:26Z</time></trkpt><trkpt lat="44.00183690530576" lon="12.112672221213037"><ele>146.0</ele><time>2026-03-28T16:19:27Z</time></trkpt><trkpt lat="44.00196572157252" lon="12.112739969371585"><ele>146.0</ele><time>2026-03-28T16:19:28Z</time></trkpt><trkpt lat="44.002095405159245" lon="12.112824482785607"><ele>146.0</ele><time>2026-03-28T16:19:29Z</time></trkpt><trkpt lat="44.002226719668045" lon="12.112914214143318"><ele>146.0</ele><time>2026-03-28T16:19:30Z</time></trkpt><trkpt lat="44.00237836939047" lon="12.113011308444573"><ele>145.33333333333331</ele><time>2026-03-28T16:19:31Z</time></trkpt><trkpt lat="44.00254078179045" lon="12.113134880104086"><ele>144.66666666666666</ele><time>2026-03-28T16:19:32Z</time></trkpt><trkpt lat="44.00269764585502" lon="12.113284006996567"><ele>144.0</ele><time>2026-03-28T16:19:33Z</time></trkpt><trkpt lat="44.002845067941415" lon="12.113454918618581"><ele>144.0</ele><time>2026-03-28T16:19:34Z</time></trkpt><trkpt lat="44.00299283739574" lon="12.113641050755895"><ele>144.0</ele><time>2026-03-28T16:19:35Z</time></trkpt><trkpt lat="44.00313034651303" lon="12.113818100141549"><ele>144.0</ele><time>2026-03-28T16:19:36Z</time></trkpt><trkpt lat="44.00325758033333" lon="12.113983335334234"><ele>144.33333333333334</ele><time>2026-03-28T16:19:37Z</time></trkpt><trkpt lat="44.00338064493067" lon="12.114147170125085"><ele>144.66666666666669</ele><time>2026-03-28T16:19:38Z</time></trkpt><trkpt lat="44.00348689842642" lon="12.114336031461782"><ele>145.0</ele><time>2026-03-28T16:19:39Z</time></trkpt><trkpt lat="44.003569624464305" lon="12.114554686509312"><ele>145.0</ele><time>2026-03-28T16:19:40Z</time></trkpt><trkpt lat="44.00363172765283" lon="12.114805894937374"><ele>145.0</ele><time>2026-03-28T16:19:41Z</time></trkpt><trkpt lat="44.003684527465346" lon="12.115059101159252"><ele>145.0</ele><time>2026-03-28T16:19:42Z</time></trkpt><trkpt lat="44.00373047919339" lon="12.115273169864865"><ele>144.0</ele><time>2026-03-28T16:19:43Z</time></trkpt><trkpt lat="44.00380054053001" lon="12.115467075445194"><ele>143.0</ele><time>2026-03-28T16:19:44Z</time></trkpt><trkpt lat="44.0038877996809" lon="12.115638269501146"><ele>142.0</ele><time>2026-03-28T16:19:45Z</time></trkpt><trkpt lat="44.00398883700134" lon="12.115789148894047"><ele>141.33333333333334</ele><time>2026-03-28T16:19:46Z</time></trkpt><trkpt lat="44.00411071713313" lon="12.115926928609198"><ele>140.66666666666666</ele><time>2026-03-28T16:19:47Z</time></trkpt><trkpt lat="44.0042611377998" lon="12.116061005552442"><ele>140.0</ele><time>2026-03-28T16:19:48Z</time></trkpt><trkpt lat="44.00442965255094" lon="12.116214181670497"><ele>139.66666666666666</ele><time>2026-03-28T16:19:49Z</time></trkpt><trkpt lat="44.00460179799704" lon="12.116379410751126"><ele>139.33333333333334</ele><time>2026-03-28T16:19:50Z</time></trkpt><trkpt lat="44.00476301486525" lon="12.116543025660722"><ele>139.0</ele><time>2026-03-28T16:19:51Z</time></trkpt><trkpt lat="44.00491602826934" lon="12.116696415840622"><ele>140.0</ele><time>2026-03-28T16:19:52Z</time></trkpt><trkpt lat="44.00506472572146" lon="12.116833377603417"><ele>141.0</ele><time>2026-03-28T16:19:53Z</time></trkpt><trkpt lat="44.00521871461226" lon="12.11695130586939"><ele>142.0</ele><time>2026-03-28T16:19:54Z</time></trkpt><trkpt lat="44.005392287287144" lon="12.117030874107103"><ele>142.0</ele><time>2026-03-28T16:19:55Z</time></trkpt><trkpt lat="44.00558331945199" lon="12.117080469956406"><ele>142.0</ele><time>2026-03-28T16:19:56Z</time></trkpt><trkpt lat="44.00577022151901" lon="12.117108721070593"><ele>142.0</ele><time>2026-03-28T16:19:57Z</time></trkpt><trkpt lat="44.005939734004784" lon="12.117135302784746"><ele>142.25</ele><time>2026-03-28T16:19:58Z</time></trkpt><trkpt lat="44.00609927358569" lon="12.117169895421279"><ele>142.5</ele><time>2026-03-28T16:19:59Z</time></trkpt><trkpt lat="44.00624364028383" lon="12.117204476989356"><ele>142.75</ele><time>2026-03-28T16:20:00Z</time></trkpt><trkpt lat="44.0063827075317" lon="12.117234994467516"><ele>143.0</ele><time>2026-03-28T16:20:01Z</time></trkpt><trkpt lat="44.006521898911025" lon="12.117258803503642"><ele>142.25</ele><time>2026-03-28T16:20:02Z</time></trkpt><trkpt lat="44.00666265193212" lon="12.11727437162775"><ele>141.5</ele><time>2026-03-28T16:20:03Z</time></trkpt><trkpt lat="44.00680602141327" lon="12.117279080119552"><ele>140.75</ele><time>2026-03-28T16:20:04Z</time></trkpt><trkpt lat="44.00694790891423" lon="12.117282437678094"><ele>140.0</ele><time>2026-03-28T16:20:05Z</time></trkpt><trkpt lat="44.0070781027077" lon="12.117275602405272"><ele>140.0</ele><time>2026-03-28T16:20:06Z</time></trkpt><trkpt lat="44.0071832059216" lon="12.117259234958295"><ele>140.0</ele><time>2026-03-28T16:20:07Z</time></trkpt><trkpt lat="44.00728153765224" lon="12.117243682682176"><ele>140.0</ele><time>2026-03-28T16:20:08Z</time></trkpt><trkpt lat="44.00737474834967" lon="12.117225641407456"><ele>140.0</ele><time>2026-03-28T16:20:09Z</time></trkpt><trkpt lat="44.0074540462332" lon="12.117204390409986"><ele>140.0</ele><time>2026-03-28T16:20:10Z</time></trkpt><trkpt lat="44.007517285695556" lon="12.117092707704069"><ele>140.0</ele><time>2026-03-28T16:20:12Z</time></trkpt><trkpt lat="44.00751515293738" lon="12.117001763209"><ele>140.0</ele><time>2026-03-28T16:20:13Z</time></trkpt><trkpt lat="44.007511080561414" lon="12.116859259987091"><ele>140.0</ele><time>2026-03-28T16:20:14Z</time></trkpt><trkpt lat="44.00751066194112" lon="12.116668424238748"><ele>140.0</ele><time>2026-03-28T16:20:15Z</time></trkpt><trkpt lat="44.00750493318701" lon="12.116480865921035"><ele>140.0</ele><time>2026-03-28T16:20:16Z</time></trkpt><trkpt lat="44.00749357526455" lon="12.116291603262436"><ele>143.0</ele><time>2026-03-28T16:20:17Z</time></trkpt><trkpt lat="44.0074820300969" lon="12.116109610389824"><ele>146.0</ele><time>2026-03-28T16:20:18Z</time></trkpt><trkpt lat="44.00745687798268" lon="12.11593823685359"><ele>149.0</ele><time>2026-03-28T16:20:19Z</time></trkpt><trkpt lat="44.0074076559586" lon="12.1157508679716"><ele>152.0</ele><time>2026-03-28T16:20:20Z</time></trkpt><trkpt lat="44.0073338757293" lon="12.115576475849176"><ele>155.0</ele><time>2026-03-28T16:20:21Z</time></trkpt><trkpt lat="44.0072367290766" lon="12.115407189233956"><ele>158.0</ele><time>2026-03-28T16:20:22Z</time></trkpt><trkpt lat="44.007123221701924" lon="12.115226399997539"><ele>161.0</ele><time>2026-03-28T16:20:23Z</time></trkpt><trkpt lat="44.00701366356324" lon="12.11503931181153"><ele>159.0</ele><time>2026-03-28T16:20:24Z</time></trkpt><trkpt lat="44.00690160829676" lon="12.114843677735937"><ele>157.0</ele><time>2026-03-28T16:20:25Z</time></trkpt><trkpt lat="44.00680887029923" lon="12.11466952621072"><ele>155.0</ele><time>2026-03-28T16:20:26Z</time></trkpt><trkpt lat="44.006723072281" lon="12.11450626315952"><ele>160.0</ele><time>2026-03-28T16:20:27Z</time></trkpt><trkpt lat="44.00664119558421" lon="12.114365963669204"><ele>165.0</ele><time>2026-03-28T16:20:28Z</time></trkpt><trkpt lat="44.006577009122374" lon="12.114286599567427"><ele>170.0</ele><time>2026-03-28T16:20:29Z</time></trkpt><trkpt lat="44.00648196474997" lon="12.114315425782323"><ele>175.0</ele><time>2026-03-28T16:20:31Z</time></trkpt><trkpt lat="44.006451120319156" lon="12.114403218076237"><ele>180.0</ele><time>2026-03-28T16:20:32Z</time></trkpt><trkpt lat="44.006466173011106" lon="12.114513079135003"><ele>180.0</ele><time>2026-03-28T16:20:33Z</time></trkpt><trkpt lat="44.00650295321266" lon="12.11465262193253"><ele>180.0</ele><time>2026-03-28T16:20:34Z</time></trkpt><trkpt lat="44.00653858705202" lon="12.114822379379321"><ele>180.0</ele><time>2026-03-28T16:20:35Z</time></trkpt><trkpt lat="44.00655734736426" lon="12.114989101227764"><ele>180.0</ele><time>2026-03-28T16:20:36Z</time></trkpt><trkpt lat="44.00655329767916" lon="12.11511119873015"><ele>180.0</ele><time>2026-03-28T16:20:37Z</time></trkpt><trkpt lat="44.00652519160055" lon="12.115191351144825"><ele>180.0</ele><time>2026-03-28T16:20:38Z</time></trkpt><trkpt lat="44.006419551836224" lon="12.11521583399901"><ele>180.0</ele><time>2026-03-28T16:20:40Z</time></trkpt><trkpt lat="44.00638688740777" lon="12.115080517620072"><ele>180.0</ele><time>2026-03-28T16:20:42Z</time></trkpt><trkpt lat="44.00637703282578" lon="12.114961278541813"><ele>180.0</ele><time>2026-03-28T16:20:43Z</time></trkpt><trkpt lat="44.0063451810271" lon="12.114837718553456"><ele>180.0</ele><time>2026-03-28T16:20:44Z</time></trkpt><trkpt lat="44.006266749669145" lon="12.114702596188593"><ele>180.0</ele><time>2026-03-28T16:20:45Z</time></trkpt><trkpt lat="44.006156104491204" lon="12.114558364677773"><ele>180.0</ele><time>2026-03-28T16:20:46Z</time></trkpt><trkpt lat="44.006051310660766" lon="12.114414060871582"><ele>180.0</ele><time>2026-03-28T16:20:47Z</time></trkpt><trkpt lat="44.005968437304496" lon="12.114232846712715"><ele>179.0</ele><time>2026-03-28T16:20:48Z</time></trkpt><trkpt lat="44.00589953480814" lon="12.114025010227914"><ele>178.0</ele><time>2026-03-28T16:20:49Z</time></trkpt><trkpt lat="44.00581963350616" lon="12.11383188766838"><ele>177.0</ele><time>2026-03-28T16:20:50Z</time></trkpt><trkpt lat="44.00572102909087" lon="12.113650719862031"><ele>180.0</ele><time>2026-03-28T16:20:51Z</time></trkpt><trkpt lat="44.005626662493555" lon="12.113487851766541"><ele>183.0</ele><time>2026-03-28T16:20:52Z</time></trkpt><trkpt lat="44.00554357714443" lon="12.113325684172079"><ele>186.0</ele><time>2026-03-28T16:20:53Z</time></trkpt><trkpt lat="44.00545876768838" lon="12.113182207046846"><ele>189.0</ele><time>2026-03-28T16:20:54Z</time></trkpt><trkpt lat="44.005361210428624" lon="12.113067687958784"><ele>188.25</ele><time>2026-03-28T16:20:55Z</time></trkpt><trkpt lat="44.00524642111346" lon="12.112988976195025"><ele>187.5</ele><time>2026-03-28T16:20:56Z</time></trkpt><trkpt lat="44.00511588675538" lon="12.112933260500386"><ele>186.75</ele><time>2026-03-28T16:20:57Z</time></trkpt><trkpt lat="44.00499000916633" lon="12.112868439673745"><ele>186.0</ele><time>2026-03-28T16:20:58Z</time></trkpt><trkpt lat="44.00488740266058" lon="12.112773334800819"><ele>186.0</ele><time>2026-03-28T16:20:59Z</time></trkpt><trkpt lat="44.00479240703882" lon="12.112640781110631"><ele>186.0</ele><time>2026-03-28T16:21:00Z</time></trkpt><trkpt lat="44.0046995705415" lon="12.112495116445931"><ele>186.0</ele><time>2026-03-28T16:21:01Z</time></trkpt><trkpt lat="44.00461507698247" lon="12.11234662984754"><ele>186.0</ele><time>2026-03-28T16:21:02Z</time></trkpt><trkpt lat="44.00452795338491" lon="12.112211356566952"><ele>185.25</ele><time>2026-03-28T16:21:03Z</time></trkpt><trkpt lat="44.00443677610094" lon="12.112064707307068"><ele>184.5</ele><time>2026-03-28T16:21:04Z</time></trkpt><trkpt lat="44.00434017778692" lon="12.111918280839776"><ele>183.75</ele><time>2026-03-28T16:21:05Z</time></trkpt><trkpt lat="44.004242216411456" lon="12.111755304270885"><ele>183.0</ele><time>2026-03-28T16:21:06Z</time></trkpt><trkpt lat="44.004135946837714" lon="12.111574813521848"><ele>187.0</ele><time>2026-03-28T16:21:07Z</time></trkpt><trkpt lat="44.004029712263524" lon="12.111400561417753"><ele>191.0</ele><time>2026-03-28T16:21:08Z</time></trkpt><trkpt lat="44.003939126493144" lon="12.111253966476104"><ele>195.0</ele><time>2026-03-28T16:21:09Z</time></trkpt><trkpt lat="44.00383879579149" lon="12.111116715200573"><ele>199.0</ele><time>2026-03-28T16:21:10Z</time></trkpt><trkpt lat="44.00374774096295" lon="12.110973787055109"><ele>199.0</ele><time>2026-03-28T16:21:11Z</time></trkpt><trkpt lat="44.00364965683333" lon="12.110822299087303"><ele>199.0</ele><time>2026-03-28T16:21:12Z</time></trkpt><trkpt lat="44.00355855139587" lon="12.110660988858042"><ele>199.0</ele><time>2026-03-28T16:21:13Z</time></trkpt><trkpt lat="44.003464461673" lon="12.11050872919256"><ele>199.0</ele><time>2026-03-28T16:21:14Z</time></trkpt><trkpt lat="44.003362365371345" lon="12.110358517962592"><ele>200.0</ele><time>2026-03-28T16:21:15Z</time></trkpt><trkpt lat="44.003261981762954" lon="12.110216525665344"><ele>201.0</ele><time>2026-03-28T16:21:16Z</time></trkpt><trkpt lat="44.00316869045043" lon="12.11006354767662"><ele>202.0</ele><time>2026-03-28T16:21:17Z</time></trkpt><trkpt lat="44.00309508487022" lon="12.109918962925443"><ele>203.0</ele><time>2026-03-28T16:21:18Z</time></trkpt><trkpt lat="44.00304718324609" lon="12.109747727153385"><ele>203.0</ele><time>2026-03-28T16:21:19Z</time></trkpt><trkpt lat="44.002992963321724" lon="12.109535844110095"><ele>203.0</ele><time>2026-03-28T16:21:20Z</time></trkpt><trkpt lat="44.002949144164724" lon="12.109301328293725"><ele>203.0</ele><time>2026-03-28T16:21:21Z</time></trkpt><trkpt lat="44.00291314559881" lon="12.10907708610849"><ele>205.0</ele><time>2026-03-28T16:21:22Z</time></trkpt><trkpt lat="44.002907954324556" lon="12.108853906061167"><ele>207.0</ele><time>2026-03-28T16:21:23Z</time></trkpt><trkpt lat="44.00292988835613" lon="12.108610276822272"><ele>209.0</ele><time>2026-03-28T16:21:24Z</time></trkpt><trkpt lat="44.00299148174825" lon="12.10837334411464"><ele>212.33333333333334</ele><time>2026-03-28T16:21:25Z</time></trkpt><trkpt lat="44.003070949335445" lon="12.108169412897722"><ele>215.66666666666669</ele><time>2026-03-28T16:21:26Z</time></trkpt><trkpt lat="44.00314055835759" lon="12.107984648708937"><ele>219.0</ele><time>2026-03-28T16:21:27Z</time></trkpt><trkpt lat="44.003194442545194" lon="12.107811510115557"><ele>219.0</ele><time>2026-03-28T16:21:28Z</time></trkpt><trkpt lat="44.00321922312053" lon="12.107664440081637"><ele>218.99999999999997</ele><time>2026-03-28T16:21:29Z</time></trkpt><trkpt lat="44.00320457573052" lon="12.107564425306089"><ele>218.99999999999997</ele><time>2026-03-28T16:21:30Z</time></trkpt><trkpt lat="44.00315035609057" lon="12.107485452661125"><ele>219.0</ele><time>2026-03-28T16:21:31Z</time></trkpt><trkpt lat="44.00305683198787" lon="12.107438378426002"><ele>219.0</ele><time>2026-03-28T16:21:32Z</time></trkpt><trkpt lat="44.00294100298299" lon="12.107395286378296"><ele>220.5</ele><time>2026-03-28T16:21:33Z</time></trkpt><trkpt lat="44.00279683747811" lon="12.107331985262743"><ele>222.0</ele><time>2026-03-28T16:21:34Z</time></trkpt><trkpt lat="44.002665918896405" lon="12.1072546231167"><ele>223.5</ele><time>2026-03-28T16:21:35Z</time></trkpt><trkpt lat="44.00253715510423" lon="12.10716165960995"><ele>225.0</ele><time>2026-03-28T16:21:36Z</time></trkpt><trkpt lat="44.002425358599695" lon="12.107051703305402"><ele>225.0</ele><time>2026-03-28T16:21:37Z</time></trkpt><trkpt lat="44.00233835180004" lon="12.106905591414113"><ele>225.0</ele><time>2026-03-28T16:21:38Z</time></trkpt><trkpt lat="44.00226412177419" lon="12.106718448194725"><ele>225.0</ele><time>2026-03-28T16:21:39Z</time></trkpt><trkpt lat="44.00218865913854" lon="12.106509298697663"><ele>228.0</ele><time>2026-03-28T16:21:40Z</time></trkpt><trkpt lat="44.00213508013853" lon="12.106338347622895"><ele>231.0</ele><time>2026-03-28T16:21:41Z</time></trkpt><trkpt lat="44.00209600092957" lon="12.106204899396099"><ele>234.0</ele><time>2026-03-28T16:21:42Z</time></trkpt><trkpt lat="44.00208895636229" lon="12.106101254238661"><ele>237.0</ele><time>2026-03-28T16:21:43Z</time></trkpt><trkpt lat="44.002202506630724" lon="12.106008059580367"><ele>240.0</ele><time>2026-03-28T16:21:45Z</time></trkpt><trkpt lat="44.00230009466819" lon="12.106019593194514"><ele>240.0</ele><time>2026-03-28T16:21:46Z</time></trkpt><trkpt lat="44.00241765854988" lon="12.106078716217976"><ele>240.0</ele><time>2026-03-28T16:21:47Z</time></trkpt><trkpt lat="44.00253799551926" lon="12.1061188402834"><ele>240.0</ele><time>2026-03-28T16:21:48Z</time></trkpt><trkpt lat="44.002652136976714" lon="12.106103666880633"><ele>240.0</ele><time>2026-03-28T16:21:49Z</time></trkpt><trkpt lat="44.002755599148806" lon="12.106057100781156"><ele>240.6</ele><time>2026-03-28T16:21:50Z</time></trkpt><trkpt lat="44.00280975613724" lon="12.105981417531536"><ele>241.2</ele><time>2026-03-28T16:21:51Z</time></trkpt><trkpt lat="44.002827004348546" lon="12.105873879541491"><ele>241.8</ele><time>2026-03-28T16:21:52Z</time></trkpt><trkpt lat="44.00282221636633" lon="12.105738383827763"><ele>242.4</ele><time>2026-03-28T16:21:53Z</time></trkpt><trkpt lat="44.00279221122828" lon="12.105577155263106"><ele>243.0</ele><time>2026-03-28T16:21:54Z</time></trkpt><trkpt lat="44.00275817612277" lon="12.10539965203734"><ele>244.2</ele><time>2026-03-28T16:21:55Z</time></trkpt><trkpt lat="44.002732129189084" lon="12.105215539223721"><ele>245.4</ele><time>2026-03-28T16:21:56Z</time></trkpt><trkpt lat="44.00271102758783" lon="12.105058135142574"><ele>246.59999999999997</ele><time>2026-03-28T16:21:57Z</time></trkpt><trkpt lat="44.00268537565575" lon="12.104942330231014"><ele>247.79999999999998</ele><time>2026-03-28T16:21:58Z</time></trkpt><trkpt lat="44.00262517696261" lon="12.10484000853577"><ele>249.0</ele><time>2026-03-28T16:21:59Z</time></trkpt><trkpt lat="44.00253126270632" lon="12.104734661624752"><ele>250.25</ele><time>2026-03-28T16:22:00Z</time></trkpt><trkpt lat="44.0024145007519" lon="12.104639982537842"><ele>251.5</ele><time>2026-03-28T16:22:01Z</time></trkpt><trkpt lat="44.002300558905624" lon="12.104564955636668"><ele>252.75</ele><time>2026-03-28T16:22:02Z</time></trkpt><trkpt lat="44.002196499808065" lon="12.104488551351153"><ele>254.0</ele><time>2026-03-28T16:22:03Z</time></trkpt><trkpt lat="44.00212935888616" lon="12.10440079684466"><ele>254.0</ele><time>2026-03-28T16:22:04Z</time></trkpt><trkpt lat="44.00210216584719" lon="12.104268708675082"><ele>254.0</ele><time>2026-03-28T16:22:05Z</time></trkpt><trkpt lat="44.00205515987526" lon="12.104115409714515"><ele>254.0</ele><time>2026-03-28T16:22:06Z</time></trkpt><trkpt lat="44.00202141155656" lon="12.103930673026625"><ele>254.0</ele><time>2026-03-28T16:22:07Z</time></trkpt><trkpt lat="44.00198625382185" lon="12.10372978440853"><ele>257.33333333333337</ele><time>2026-03-28T16:22:08Z</time></trkpt><trkpt lat="44.00194790492773" lon="12.103526831409447"><ele>260.6666666666667</ele><time>2026-03-28T16:22:09Z</time></trkpt><trkpt lat="44.00190576348088" lon="12.103317256200613"><ele>264.0</ele><time>2026-03-28T16:22:10Z</time></trkpt><trkpt lat="44.00184957279564" lon="12.103102556280424"><ele>267.3333333333333</ele><time>2026-03-28T16:22:11Z</time></trkpt><trkpt lat="44.00180870568054" lon="12.102873654754632"><ele>270.66666666666663</ele><time>2026-03-28T16:22:12Z</time></trkpt><trkpt lat="44.00176121565265" lon="12.102663716483544"><ele>274.0</ele><time>2026-03-28T16:22:13Z</time></trkpt><trkpt lat="44.00172099141026" lon="12.102474936495875"><ele>276.25</ele><time>2026-03-28T16:22:14Z</time></trkpt><trkpt lat="44.00169497431588" lon="12.10231945184301"><ele>278.5</ele><time>2026-03-28T16:22:15Z</time></trkpt><trkpt lat="44.00172274779504" lon="12.102174922553875"><ele>280.75</ele><time>2026-03-28T16:22:16Z</time></trkpt><trkpt lat="44.00174526175897" lon="12.102012252181305"><ele>283.0</ele><time>2026-03-28T16:22:17Z</time></trkpt><trkpt lat="44.00176997299132" lon="12.101822768171848"><ele>283.0</ele><time>2026-03-28T16:22:18Z</time></trkpt><trkpt lat="44.00179153052567" lon="12.1016434275823"><ele>283.0</ele><time>2026-03-28T16:22:19Z</time></trkpt><trkpt lat="44.00180630333416" lon="12.10146695314921"><ele>283.0</ele><time>2026-03-28T16:22:20Z</time></trkpt><trkpt lat="44.00179220766023" lon="12.10128619455936"><ele>283.0</ele><time>2026-03-28T16:22:21Z</time></trkpt><trkpt lat="44.00178450461734" lon="12.101080023714701"><ele>285.3333333333333</ele><time>2026-03-28T16:22:22Z</time></trkpt><trkpt lat="44.00177053415835" lon="12.100866879095737"><ele>287.6666666666667</ele><time>2026-03-28T16:22:23Z</time></trkpt><trkpt lat="44.00173717099809" lon="12.100642831601409"><ele>290.0</ele><time>2026-03-28T16:22:24Z</time></trkpt><trkpt lat="44.00168571729662" lon="12.100417241944456"><ele>287.33333333333337</ele><time>2026-03-28T16:22:25Z</time></trkpt><trkpt lat="44.001621954568726" lon="12.100193767104722"><ele>284.6666666666667</ele><time>2026-03-28T16:22:26Z</time></trkpt><trkpt lat="44.00154992474327" lon="12.099963715890947"><ele>282.0</ele><time>2026-03-28T16:22:27Z</time></trkpt><trkpt lat="44.001472716714474" lon="12.099725001616607"><ele>287.3333333333333</ele><time>2026-03-28T16:22:28Z</time></trkpt><trkpt lat="44.001396811599676" lon="12.099500457388011"><ele>292.66666666666663</ele><time>2026-03-28T16:22:29Z</time></trkpt><trkpt lat="44.00133841250309" lon="12.099297434887886"><ele>298.0</ele><time>2026-03-28T16:22:30Z</time></trkpt><trkpt lat="44.0012867059339" lon="12.09912088944639"><ele>302.25</ele><time>2026-03-28T16:22:31Z</time></trkpt><trkpt lat="44.00123408861687" lon="12.098945136733443"><ele>306.5</ele><time>2026-03-28T16:22:32Z</time></trkpt><trkpt lat="44.001177974045575" lon="12.098776353958598"><ele>310.75</ele><time>2026-03-28T16:22:33Z</time></trkpt><trkpt lat="44.001122718862604" lon="12.098606696899088"><ele>315.0</ele><time>2026-03-28T16:22:34Z</time></trkpt><trkpt lat="44.00106553760687" lon="12.098460610361235"><ele>315.0</ele><time>2026-03-28T16:22:35Z</time></trkpt><trkpt lat="44.00105017342834" lon="12.09830712168655"><ele>315.0</ele><time>2026-03-28T16:22:36Z</time></trkpt><trkpt lat="44.00103875263539" lon="12.098113925530388"><ele>315.0</ele><time>2026-03-28T16:22:37Z</time></trkpt><trkpt lat="44.00102662782851" lon="12.097900708141976"><ele>315.0</ele><time>2026-03-28T16:22:38Z</time></trkpt><trkpt lat="44.001015494738645" lon="12.097704928040953"><ele>318.0</ele><time>2026-03-28T16:22:39Z</time></trkpt><trkpt lat="44.00098715344753" lon="12.097553389934186"><ele>321.0</ele><time>2026-03-28T16:22:40Z</time></trkpt><trkpt lat="44.000961707271706" lon="12.0974422796608"><ele>324.0</ele><time>2026-03-28T16:22:41Z</time></trkpt><trkpt lat="44.000907588517535" lon="12.097377191240108"><ele>327.0</ele><time>2026-03-28T16:22:42Z</time></trkpt><trkpt lat="44.000827739001835" lon="12.097347201862895"><ele>330.0</ele><time>2026-03-28T16:22:43Z</time></trkpt><trkpt lat="44.00071838636084" lon="12.097337986854916"><ele>335.0</ele><time>2026-03-28T16:22:44Z</time></trkpt><trkpt lat="44.000602000890694" lon="12.097326738837822"><ele>340.0</ele><time>2026-03-28T16:22:45Z</time></trkpt><trkpt lat="44.00048282683083" lon="12.09728641016292"><ele>345.0</ele><time>2026-03-28T16:22:46Z</time></trkpt><trkpt lat="44.00036319519976" lon="12.097191044061518"><ele>350.0</ele><time>2026-03-28T16:22:47Z</time></trkpt><trkpt lat="44.00022794867863" lon="12.097110914588878"><ele>350.0</ele><time>2026-03-28T16:22:48Z</time></trkpt><trkpt lat="44.00008795838501" lon="12.097081019579631"><ele>350.0</ele><time>2026-03-28T16:22:49Z</time></trkpt><trkpt lat="43.999941445450965" lon="12.097062189493812"><ele>350.0</ele><time>2026-03-28T16:22:50Z</time></trkpt><trkpt lat="43.99978752232107" lon="12.0970715006184"><ele>350.0</ele><time>2026-03-28T16:22:51Z</time></trkpt><trkpt lat="43.99965604981116" lon="12.097092158306042"><ele>350.0</ele><time>2026-03-28T16:22:52Z</time></trkpt><trkpt lat="43.99953858389185" lon="12.097069438979297"><ele>350.0</ele><time>2026-03-28T16:22:53Z</time></trkpt><trkpt lat="43.999433169262026" lon="12.09705403124504"><ele>350.0</ele><time>2026-03-28T16:22:54Z</time></trkpt><trkpt lat="43.99934472882381" lon="12.097007217852285"><ele>350.0</ele><time>2026-03-28T16:22:55Z</time></trkpt><trkpt lat="43.999264371402234" lon="12.096922721183166"><ele>350.0</ele><time>2026-03-28T16:22:56Z</time></trkpt><trkpt lat="43.99919709441667" lon="12.096810937979539"><ele>350.0</ele><time>2026-03-28T16:22:57Z</time></trkpt><trkpt lat="43.999148246356945" lon="12.096679299811008"><ele>350.0</ele><time>2026-03-28T16:22:58Z</time></trkpt><trkpt lat="43.99911768653271" lon="12.096508881503926"><ele>350.0</ele><time>2026-03-28T16:22:59Z</time></trkpt><trkpt lat="43.999085960138935" lon="12.096311932869048"><ele>350.0</ele><time>2026-03-28T16:23:00Z</time></trkpt><trkpt lat="43.999059571483805" lon="12.096142668466406"><ele>350.0</ele><time>2026-03-28T16:23:01Z</time></trkpt><trkpt lat="43.99903707828425" lon="12.095992759221572"><ele>350.0</ele><time>2026-03-28T16:23:02Z</time></trkpt><trkpt lat="43.999023294272675" lon="12.095853525802108"><ele>350.0</ele><time>2026-03-28T16:23:03Z</time></trkpt><trkpt lat="43.99903363466269" lon="12.095720834542808"><ele>350.0</ele><time>2026-03-28T16:23:04Z</time></trkpt><trkpt lat="43.99906674273175" lon="12.095593158787763"><ele>350.0</ele><time>2026-03-28T16:23:05Z</time></trkpt><trkpt lat="43.99913162589317" lon="12.095457562477122"><ele>346.25</ele><time>2026-03-28T16:23:06Z</time></trkpt><trkpt lat="43.99920606533609" lon="12.095315428619175"><ele>342.5</ele><time>2026-03-28T16:23:07Z</time></trkpt><trkpt lat="43.99927735137365" lon="12.095164134848392"><ele>338.75</ele><time>2026-03-28T16:23:08Z</time></trkpt><trkpt lat="43.99934278066836" lon="12.095031035806207"><ele>335.0</ele><time>2026-03-28T16:23:09Z</time></trkpt><trkpt lat="43.99939657459708" lon="12.094905186341899"><ele>334.25</ele><time>2026-03-28T16:23:10Z</time></trkpt><trkpt lat="43.9994546697358" lon="12.094800063127252"><ele>333.5</ele><time>2026-03-28T16:23:11Z</time></trkpt><trkpt lat="43.99950991746567" lon="12.094677429855059"><ele>332.75</ele><time>2026-03-28T16:23:12Z</time></trkpt><trkpt lat="43.99957801068123" lon="12.094484646543822"><ele>332.0</ele><time>2026-03-28T16:23:13Z</time></trkpt><trkpt lat="43.99965681076376" lon="12.094258751474749"><ele>334.0</ele><time>2026-03-28T16:23:14Z</time></trkpt><trkpt lat="43.99973109799866" lon="12.094002423474537"><ele>336.0</ele><time>2026-03-28T16:23:15Z</time></trkpt><trkpt lat="43.99980289136188" lon="12.093759904937455"><ele>338.0</ele><time>2026-03-28T16:23:16Z</time></trkpt><trkpt lat="43.9998728547012" lon="12.093541166207036"><ele>338.0</ele><time>2026-03-28T16:23:17Z</time></trkpt><trkpt lat="43.99993186880244" lon="12.093333662164964"><ele>338.0</ele><time>2026-03-28T16:23:18Z</time></trkpt><trkpt lat="43.99997108767447" lon="12.0931330069204"><ele>338.0</ele><time>2026-03-28T16:23:19Z</time></trkpt><trkpt lat="43.99999488194573" lon="12.092934419320187"><ele>341.0</ele><time>2026-03-28T16:23:20Z</time></trkpt><trkpt lat="43.9999968538954" lon="12.092742266818828"><ele>344.0</ele><time>2026-03-28T16:23:21Z</time></trkpt><trkpt lat="43.999973901385026" lon="12.092527698909407"><ele>347.0</ele><time>2026-03-28T16:23:22Z</time></trkpt><trkpt lat="43.99994609428885" lon="12.092307914938129"><ele>347.5</ele><time>2026-03-28T16:23:23Z</time></trkpt><trkpt lat="43.999958973898096" lon="12.092131674257741"><ele>348.0</ele><time>2026-03-28T16:23:24Z</time></trkpt><trkpt lat="43.99996860454742" lon="12.09199157512907"><ele>348.5</ele><time>2026-03-28T16:23:25Z</time></trkpt><trkpt lat="43.99998950296393" lon="12.091824014936671"><ele>349.0</ele><time>2026-03-28T16:23:26Z</time></trkpt><trkpt lat="44.00000941596578" lon="12.091623216207834"><ele>348.25</ele><time>2026-03-28T16:23:27Z</time></trkpt><trkpt lat="44.0000590234712" lon="12.091411493927094"><ele>347.5</ele><time>2026-03-28T16:23:28Z</time></trkpt><trkpt lat="44.00007607396936" lon="12.091197966774692"><ele>346.75</ele><time>2026-03-28T16:23:29Z</time></trkpt><trkpt lat="44.00008817471567" lon="12.091032289586666"><ele>346.0</ele><time>2026-03-28T16:23:30Z</time></trkpt><trkpt lat="44.00011187109772" lon="12.09088131701214"><ele>343.5</ele><time>2026-03-28T16:23:31Z</time></trkpt><trkpt lat="44.0001837358028" lon="12.09075373758416"><ele>341.0</ele><time>2026-03-28T16:23:32Z</time></trkpt><trkpt lat="44.000279544521405" lon="12.090594236509466"><ele>338.5</ele><time>2026-03-28T16:23:33Z</time></trkpt><trkpt lat="44.00036743367464" lon="12.090403837747322"><ele>336.0</ele><time>2026-03-28T16:23:34Z</time></trkpt><trkpt lat="44.00044727872972" lon="12.090213899919043"><ele>336.0</ele><time>2026-03-28T16:23:35Z</time></trkpt><trkpt lat="44.00051030525548" lon="12.089989591302297"><ele>336.0</ele><time>2026-03-28T16:23:36Z</time></trkpt><trkpt lat="44.00057013900162" lon="12.089734592246494"><ele>336.0</ele><time>2026-03-28T16:23:37Z</time></trkpt><trkpt lat="44.000630132822785" lon="12.089478229637066"><ele>335.75</ele><time>2026-03-28T16:23:38Z</time></trkpt><trkpt lat="44.00067021288179" lon="12.089249999756266"><ele>335.5</ele><time>2026-03-28T16:23:39Z</time></trkpt><trkpt lat="44.00070251511132" lon="12.089055818893069"><ele>335.25</ele><time>2026-03-28T16:23:40Z</time></trkpt><trkpt lat="44.000737414271896" lon="12.088887527068602"><ele>335.0</ele><time>2026-03-28T16:23:41Z</time></trkpt><trkpt lat="44.00076382227898" lon="12.08869581827804"><ele>335.0</ele><time>2026-03-28T16:23:42Z</time></trkpt><trkpt lat="44.000778234429774" lon="12.088476031767671"><ele>335.0</ele><time>2026-03-28T16:23:43Z</time></trkpt><trkpt lat="44.000774132884885" lon="12.08826867355827"><ele>335.0</ele><time>2026-03-28T16:23:44Z</time></trkpt><trkpt lat="44.0007511518468" lon="12.08809726715915"><ele>335.0</ele><time>2026-03-28T16:23:45Z</time></trkpt><trkpt lat="44.000717336495995" lon="12.087916337011515"><ele>337.0</ele><time>2026-03-28T16:23:46Z</time></trkpt><trkpt lat="44.00066335464967" lon="12.087735582763296"><ele>339.0</ele><time>2026-03-28T16:23:47Z</time></trkpt><trkpt lat="44.0006087590999" lon="12.087529999344728"><ele>341.0</ele><time>2026-03-28T16:23:48Z</time></trkpt><trkpt lat="44.00055033011967" lon="12.087367530967612"><ele>343.0</ele><time>2026-03-28T16:23:49Z</time></trkpt><trkpt lat="44.00049875963084" lon="12.087226214428144"><ele>345.25</ele><time>2026-03-28T16:23:50Z</time></trkpt><trkpt lat="44.00044480139899" lon="12.087105043984385"><ele>347.5</ele><time>2026-03-28T16:23:51Z</time></trkpt><trkpt lat="44.000411647058016" lon="12.08694980618633"><ele>349.75</ele><time>2026-03-28T16:23:52Z</time></trkpt><trkpt lat="44.00040746688169" lon="12.086747293448292"><ele>352.0</ele><time>2026-03-28T16:23:53Z</time></trkpt><trkpt lat="44.00038195773743" lon="12.086542429609295"><ele>353.3333333333333</ele><time>2026-03-28T16:23:54Z</time></trkpt><trkpt lat="44.00037717783349" lon="12.086329677926667"><ele>354.6666666666667</ele><time>2026-03-28T16:23:55Z</time></trkpt><trkpt lat="44.00038102341544" lon="12.08612404964111"><ele>356.0</ele><time>2026-03-28T16:23:56Z</time></trkpt><trkpt lat="44.00038599265677" lon="12.085916995518206"><ele>355.6666666666667</ele><time>2026-03-28T16:23:57Z</time></trkpt><trkpt lat="44.00040748421799" lon="12.085716112829589"><ele>355.3333333333333</ele><time>2026-03-28T16:23:58Z</time></trkpt><trkpt lat="44.00047561227399" lon="12.085523229297534"><ele>355.0</ele><time>2026-03-28T16:23:59Z</time></trkpt><trkpt lat="44.000545280308444" lon="12.085315534111372"><ele>355.0</ele><time>2026-03-28T16:24:00Z</time></trkpt><trkpt lat="44.00061262030938" lon="12.085111676265585"><ele>355.0</ele><time>2026-03-28T16:24:01Z</time></trkpt><trkpt lat="44.000705936181475" lon="12.084952332966907"><ele>355.0</ele><time>2026-03-28T16:24:02Z</time></trkpt><trkpt lat="44.00076442627703" lon="12.084778580494827"><ele>355.0</ele><time>2026-03-28T16:24:03Z</time></trkpt><trkpt lat="44.00081884208967" lon="12.084626256381988"><ele>357.66666666666663</ele><time>2026-03-28T16:24:04Z</time></trkpt><trkpt lat="44.00083879603457" lon="12.08445560964455"><ele>360.3333333333333</ele><time>2026-03-28T16:24:05Z</time></trkpt><trkpt lat="44.00083373442797" lon="12.084244505449787"><ele>363.0</ele><time>2026-03-28T16:24:06Z</time></trkpt><trkpt lat="44.00082529362813" lon="12.08399751008246"><ele>363.0</ele><time>2026-03-28T16:24:07Z</time></trkpt><trkpt lat="44.00082157946531" lon="12.083734295421275"><ele>363.0</ele><time>2026-03-28T16:24:08Z</time></trkpt><trkpt lat="44.00083365117788" lon="12.083479690915254"><ele>363.0</ele><time>2026-03-28T16:24:09Z</time></trkpt><trkpt lat="44.00084226209586" lon="12.08321680651883"><ele>366.6666666666667</ele><time>2026-03-28T16:24:10Z</time></trkpt><trkpt lat="44.00082719217282" lon="12.082964390606305"><ele>370.33333333333337</ele><time>2026-03-28T16:24:11Z</time></trkpt><trkpt lat="44.00081269183011" lon="12.082722759241832"><ele>374.0</ele><time>2026-03-28T16:24:12Z</time></trkpt><trkpt lat="44.000813766656925" lon="12.082492706235273"><ele>374.6666666666667</ele><time>2026-03-28T16:24:13Z</time></trkpt><trkpt lat="44.00081911597316" lon="12.082277920461113"><ele>375.3333333333333</ele><time>2026-03-28T16:24:14Z</time></trkpt><trkpt lat="44.00082911205071" lon="12.082067169094401"><ele>376.0</ele><time>2026-03-28T16:24:15Z</time></trkpt><trkpt lat="44.00083586976049" lon="12.081862971899595"><ele>383.0</ele><time>2026-03-28T16:24:16Z</time></trkpt><trkpt lat="44.00084874741811" lon="12.081653100587292"><ele>390.0</ele><time>2026-03-28T16:24:17Z</time></trkpt><trkpt lat="44.00089173603888" lon="12.08145395393467"><ele>397.0</ele><time>2026-03-28T16:24:18Z</time></trkpt><trkpt lat="44.00093063198236" lon="12.081250527303714"><ele>397.0</ele><time>2026-03-28T16:24:19Z</time></trkpt><trkpt lat="44.00098255830986" lon="12.08102522638104"><ele>397.0</ele><time>2026-03-28T16:24:20Z</time></trkpt><trkpt lat="44.00104851779582" lon="12.080786138600672"><ele>397.0</ele><time>2026-03-28T16:24:21Z</time></trkpt><trkpt lat="44.00112911981216" lon="12.080538803706432"><ele>394.33333333333337</ele><time>2026-03-28T16:24:22Z</time></trkpt><trkpt lat="44.001197962753665" lon="12.08030209524622"><ele>391.66666666666663</ele><time>2026-03-28T16:24:23Z</time></trkpt><trkpt lat="44.00126931373577" lon="12.08008276858396"><ele>389.0</ele><time>2026-03-28T16:24:24Z</time></trkpt><trkpt lat="44.001331891759484" lon="12.079883330347988"><ele>388.0</ele><time>2026-03-28T16:24:25Z</time></trkpt><trkpt lat="44.00137299419773" lon="12.07968727821733"><ele>387.0</ele><time>2026-03-28T16:24:26Z</time></trkpt><trkpt lat="44.00138754454528" lon="12.07946517719926"><ele>386.0</ele><time>2026-03-28T16:24:27Z</time></trkpt><trkpt lat="44.00136540658268" lon="12.07922980697583"><ele>385.0</ele><time>2026-03-28T16:24:28Z</time></trkpt><trkpt lat="44.00133565492459" lon="12.079023164530241"><ele>384.0</ele><time>2026-03-28T16:24:29Z</time></trkpt><trkpt lat="44.001355755693154" lon="12.078855475807035"><ele>383.0</ele><time>2026-03-28T16:24:30Z</time></trkpt><trkpt lat="44.00137656912077" lon="12.078678674347866"><ele>382.0</ele><time>2026-03-28T16:24:31Z</time></trkpt><trkpt lat="44.001427228858766" lon="12.078492527699959"><ele>382.0</ele><time>2026-03-28T16:24:32Z</time></trkpt><trkpt lat="44.00150237154314" lon="12.078299881782877"><ele>382.0</ele><time>2026-03-28T16:24:33Z</time></trkpt><trkpt lat="44.001571403350574" lon="12.078119008900991"><ele>382.0</ele><time>2026-03-28T16:24:34Z</time></trkpt><trkpt lat="44.001619523499855" lon="12.077964033555773"><ele>382.0</ele><time>2026-03-28T16:24:35Z</time></trkpt><trkpt lat="44.00166071653186" lon="12.07783620964332"><ele>384.5</ele><time>2026-03-28T16:24:36Z</time></trkpt><trkpt lat="44.00168239358182" lon="12.077736744758909"><ele>387.0</ele><time>2026-03-28T16:24:37Z</time></trkpt><trkpt lat="44.00170155351632" lon="12.077610982102014"><ele>389.5</ele><time>2026-03-28T16:24:39Z</time></trkpt><trkpt lat="44.00179104740352" lon="12.077604217722742"><ele>392.0</ele><time>2026-03-28T16:24:40Z</time></trkpt><trkpt lat="44.001849253046224" lon="12.077548547868759"><ele>394.50000000000006</ele><time>2026-03-28T16:24:43Z</time></trkpt><trkpt lat="44.00190594903527" lon="12.077474750176705"><ele>397.0</ele><time>2026-03-28T16:24:44Z</time></trkpt><trkpt lat="44.001974268316836" lon="12.07739278139184"><ele>399.5</ele><time>2026-03-28T16:24:45Z</time></trkpt><trkpt lat="44.002017119544455" lon="12.077247495955707"><ele>402.0</ele><time>2026-03-28T16:24:46Z</time></trkpt><trkpt lat="44.00207075177886" lon="12.077093367811008"><ele>404.5</ele><time>2026-03-28T16:24:47Z</time></trkpt><trkpt lat="44.00213459566709" lon="12.076930634465368"><ele>407.0</ele><time>2026-03-28T16:24:48Z</time></trkpt><trkpt lat="44.00220075674638" lon="12.076778627654992"><ele>407.0</ele><time>2026-03-28T16:24:49Z</time></trkpt><trkpt lat="44.00228772392346" lon="12.076623066590784"><ele>407.0</ele><time>2026-03-28T16:24:50Z</time></trkpt><trkpt lat="44.00239186051465" lon="12.076473111207049"><ele>407.0</ele><time>2026-03-28T16:24:51Z</time></trkpt><trkpt lat="44.00251001372528" lon="12.076350536432102"><ele>407.0</ele><time>2026-03-28T16:24:52Z</time></trkpt><trkpt lat="44.00262395010147" lon="12.076273488149626"><ele>405.0</ele><time>2026-03-28T16:24:53Z</time></trkpt><trkpt lat="44.00271986710592" lon="12.076200055873201"><ele>403.0</ele><time>2026-03-28T16:24:54Z</time></trkpt><trkpt lat="44.00277396355193" lon="12.076101197052349"><ele>401.0</ele><time>2026-03-28T16:24:55Z</time></trkpt><trkpt lat="44.00281334041954" lon="12.076006637765527"><ele>399.0</ele><time>2026-03-28T16:24:56Z</time></trkpt><trkpt lat="44.00283020668059" lon="12.075890126492531"><ele>397.0</ele><time>2026-03-28T16:24:57Z</time></trkpt><trkpt lat="44.002823550020466" lon="12.075746055425007"><ele>397.0</ele><time>2026-03-28T16:24:58Z</time></trkpt><trkpt lat="44.00280273138403" lon="12.075567372504096"><ele>397.0</ele><time>2026-03-28T16:24:59Z</time></trkpt><trkpt lat="44.00282352481992" lon="12.075378667804415"><ele>397.0</ele><time>2026-03-28T16:25:00Z</time></trkpt><trkpt lat="44.00287009752573" lon="12.075184105421464"><ele>397.0</ele><time>2026-03-28T16:25:01Z</time></trkpt><trkpt lat="44.00291202859269" lon="12.074977784106787"><ele>397.6666666666667</ele><time>2026-03-28T16:25:02Z</time></trkpt><trkpt lat="44.002936977260276" lon="12.074831698569993"><ele>398.33333333333337</ele><time>2026-03-28T16:25:03Z</time></trkpt><trkpt lat="44.00294462616815" lon="12.074712828096736"><ele>399.0</ele><time>2026-03-28T16:25:04Z</time></trkpt><trkpt lat="44.0030228718906" lon="12.07463888284882"><ele>399.66666666666663</ele><time>2026-03-28T16:25:06Z</time></trkpt><trkpt lat="44.00308175740711" lon="12.07467671310271"><ele>400.3333333333333</ele><time>2026-03-28T16:25:07Z</time></trkpt><trkpt lat="44.00312620892263" lon="12.074752864709371"><ele>401.0</ele><time>2026-03-28T16:25:08Z</time></trkpt><trkpt lat="44.003149612987585" lon="12.074866614603696"><ele>400.20000000000005</ele><time>2026-03-28T16:25:09Z</time></trkpt><trkpt lat="44.00312565166367" lon="12.075039102142876"><ele>399.40000000000003</ele><time>2026-03-28T16:25:10Z</time></trkpt><trkpt lat="44.003116583050215" lon="12.07518315050576"><ele>398.6</ele><time>2026-03-28T16:25:11Z</time></trkpt><trkpt lat="44.00311323998603" lon="12.075317145095736"><ele>397.8</ele><time>2026-03-28T16:25:12Z</time></trkpt><trkpt lat="44.00312990583008" lon="12.075431334584268"><ele>397.0</ele><time>2026-03-28T16:25:13Z</time></trkpt><trkpt lat="44.00316646306259" lon="12.075541754465787"><ele>397.0</ele><time>2026-03-28T16:25:14Z</time></trkpt><trkpt lat="44.003229058155696" lon="12.075652700010876"><ele>397.0</ele><time>2026-03-28T16:25:15Z</time></trkpt><trkpt lat="44.00335369424857" lon="12.075691476479085"><ele>397.0</ele><time>2026-03-28T16:25:16Z</time></trkpt><trkpt lat="44.00348089747196" lon="12.075773439660347"><ele>397.0</ele><time>2026-03-28T16:25:17Z</time></trkpt><trkpt lat="44.003594944183426" lon="12.075835567031564"><ele>388.75</ele><time>2026-03-28T16:25:18Z</time></trkpt><trkpt lat="44.003705478168705" lon="12.075900265190397"><ele>380.5</ele><time>2026-03-28T16:25:19Z</time></trkpt><trkpt lat="44.00379070948049" lon="12.076015469188759"><ele>372.25</ele><time>2026-03-28T16:25:20Z</time></trkpt><trkpt lat="44.00387230876448" lon="12.076152073602536"><ele>364.0</ele><time>2026-03-28T16:25:21Z</time></trkpt><trkpt lat="44.0039548704554" lon="12.076280746568456"><ele>364.0</ele><time>2026-03-28T16:25:22Z</time></trkpt><trkpt lat="44.00403380234206" lon="12.076386758133491"><ele>364.0</ele><time>2026-03-28T16:25:23Z</time></trkpt><trkpt lat="44.004104653703145" lon="12.07649252567135"><ele>364.0</ele><time>2026-03-28T16:25:24Z</time></trkpt><trkpt lat="44.00419427558279" lon="12.076564796909768"><ele>364.0</ele><time>2026-03-28T16:25:25Z</time></trkpt><trkpt lat="44.00429754781363" lon="12.076555132137043"><ele>364.0</ele><time>2026-03-28T16:25:26Z</time></trkpt><trkpt lat="44.004410270577765" lon="12.076523669350397"><ele>358.75</ele><time>2026-03-28T16:25:27Z</time></trkpt><trkpt lat="44.00453356812438" lon="12.076475719393843"><ele>353.5</ele><time>2026-03-28T16:25:28Z</time></trkpt><trkpt lat="44.00467214104449" lon="12.076456355520337"><ele>348.25</ele><time>2026-03-28T16:25:29Z</time></trkpt><trkpt lat="44.004787231604595" lon="12.076437256487209"><ele>343.0</ele><time>2026-03-28T16:25:30Z</time></trkpt><trkpt lat="44.00490055382127" lon="12.076420522817743"><ele>343.0</ele><time>2026-03-28T16:25:31Z</time></trkpt><trkpt lat="44.00503008492977" lon="12.07646746972849"><ele>343.0</ele><time>2026-03-28T16:25:32Z</time></trkpt><trkpt lat="44.0051653898909" lon="12.076529937291994"><ele>343.0</ele><time>2026-03-28T16:25:33Z</time></trkpt><trkpt lat="44.005293279642515" lon="12.076585413602068"><ele>343.0</ele><time>2026-03-28T16:25:34Z</time></trkpt><trkpt lat="44.00541946342314" lon="12.076634087724097"><ele>343.0</ele><time>2026-03-28T16:25:35Z</time></trkpt><trkpt lat="44.00554213033113" lon="12.076697021449055"><ele>343.0</ele><time>2026-03-28T16:25:36Z</time></trkpt><trkpt lat="44.005656702606856" lon="12.076791292679431"><ele>343.0</ele><time>2026-03-28T16:25:37Z</time></trkpt><trkpt lat="44.005771422022086" lon="12.076921336906745"><ele>343.0</ele><time>2026-03-28T16:25:38Z</time></trkpt><trkpt lat="44.00588220885796" lon="12.077058961792334"><ele>339.3333333333333</ele><time>2026-03-28T16:25:39Z</time></trkpt><trkpt lat="44.00600032169007" lon="12.077179553253428"><ele>335.6666666666667</ele><time>2026-03-28T16:25:40Z</time></trkpt><trkpt lat="44.00612741097066" lon="12.077305164070106"><ele>332.0</ele><time>2026-03-28T16:25:41Z</time></trkpt><trkpt lat="44.00627362350671" lon="12.077389848287657"><ele>332.0</ele><time>2026-03-28T16:25:42Z</time></trkpt><trkpt lat="44.006402028053934" lon="12.077491089580569"><ele>332.0</ele><time>2026-03-28T16:25:43Z</time></trkpt><trkpt lat="44.00650525791334" lon="12.077618904611866"><ele>332.0</ele><time>2026-03-28T16:25:44Z</time></trkpt><trkpt lat="44.00660386613993" lon="12.077759804243106"><ele>332.0</ele><time>2026-03-28T16:25:45Z</time></trkpt><trkpt lat="44.00670341855662" lon="12.077915790320553"><ele>332.0</ele><time>2026-03-28T16:25:46Z</time></trkpt><trkpt lat="44.006808874055544" lon="12.07804984617262"><ele>332.0</ele><time>2026-03-28T16:25:47Z</time></trkpt><trkpt lat="44.00690588089191" lon="12.078175546745962"><ele>332.0</ele><time>2026-03-28T16:25:48Z</time></trkpt><trkpt lat="44.0070201505919" lon="12.078273416229635"><ele>332.0</ele><time>2026-03-28T16:25:49Z</time></trkpt><trkpt lat="44.007160571479325" lon="12.078337601564249"><ele>331.0</ele><time>2026-03-28T16:25:50Z</time></trkpt><trkpt lat="44.00729951414158" lon="12.078391349167967"><ele>330.0</ele><time>2026-03-28T16:25:51Z</time></trkpt><trkpt lat="44.00741499899028" lon="12.078462319680636"><ele>329.0</ele><time>2026-03-28T16:25:52Z</time></trkpt><trkpt lat="44.00751787645607" lon="12.07850745551849"><ele>328.0</ele><time>2026-03-28T16:25:53Z</time></trkpt><trkpt lat="44.00760014142073" lon="12.078587896512266"><ele>328.0</ele><time>2026-03-28T16:25:54Z</time></trkpt><trkpt lat="44.00767732103904" lon="12.078680412558267"><ele>328.0</ele><time>2026-03-28T16:25:55Z</time></trkpt><trkpt lat="44.00773285554709" lon="12.078766570612672"><ele>328.0</ele><time>2026-03-28T16:25:56Z</time></trkpt><trkpt lat="44.00777418659282" lon="12.078877296431953"><ele>328.0</ele><time>2026-03-28T16:25:58Z</time></trkpt><trkpt lat="44.00786268594829" lon="12.079042463711154"><ele>328.0</ele><time>2026-03-28T16:26:08Z</time></trkpt><trkpt lat="44.007915702360066" lon="12.079155199141823"><ele>323.66666666666663</ele><time>2026-03-28T16:26:09Z</time></trkpt><trkpt lat="44.007988977812566" lon="12.079308602403891"><ele>319.3333333333333</ele><time>2026-03-28T16:26:10Z</time></trkpt><trkpt lat="44.008087264496154" lon="12.079502927383754"><ele>315.0</ele><time>2026-03-28T16:26:11Z</time></trkpt><trkpt lat="44.0081879892905" lon="12.079718396214588"><ele>319.0</ele><time>2026-03-28T16:26:12Z</time></trkpt><trkpt lat="44.0082864759772" lon="12.079939221494241"><ele>323.0</ele><time>2026-03-28T16:26:13Z</time></trkpt><trkpt lat="44.008383226714244" lon="12.080135396608519"><ele>327.0</ele><time>2026-03-28T16:26:14Z</time></trkpt><trkpt lat="44.00848467302691" lon="12.080350753015237"><ele>327.0</ele><time>2026-03-28T16:26:15Z</time></trkpt><trkpt lat="44.008572294098315" lon="12.080534326678567"><ele>327.0</ele><time>2026-03-28T16:26:16Z</time></trkpt><trkpt lat="44.00866868173151" lon="12.080727343646757"><ele>327.0</ele><time>2026-03-28T16:26:17Z</time></trkpt><trkpt lat="44.00877623890907" lon="12.080905251332608"><ele>325.6666666666667</ele><time>2026-03-28T16:26:18Z</time></trkpt><trkpt lat="44.00885785146542" lon="12.08108857092013"><ele>324.33333333333337</ele><time>2026-03-28T16:26:19Z</time></trkpt><trkpt lat="44.008938329393224" lon="12.08124317448218"><ele>323.0</ele><time>2026-03-28T16:26:20Z</time></trkpt><trkpt lat="44.009113375699116" lon="12.081308410872431"><ele>326.0</ele><time>2026-03-28T16:26:21Z</time></trkpt><trkpt lat="44.00927039482792" lon="12.081423265515125"><ele>329.0</ele><time>2026-03-28T16:26:22Z</time></trkpt><trkpt lat="44.00941445304511" lon="12.081575517599402"><ele>332.0</ele><time>2026-03-28T16:26:23Z</time></trkpt><trkpt lat="44.00955355693167" lon="12.0817347615186"><ele>332.0</ele><time>2026-03-28T16:26:24Z</time></trkpt><trkpt lat="44.0096853389183" lon="12.08188700888121"><ele>332.0</ele><time>2026-03-28T16:26:25Z</time></trkpt><trkpt lat="44.00981649385819" lon="12.082021853207381"><ele>332.0</ele><time>2026-03-28T16:26:26Z</time></trkpt><trkpt lat="44.009936532555244" lon="12.082141761992133"><ele>332.75</ele><time>2026-03-28T16:26:27Z</time></trkpt><trkpt lat="44.01005268131404" lon="12.082264718008044"><ele>333.5</ele><time>2026-03-28T16:26:28Z</time></trkpt><trkpt lat="44.01015386421571" lon="12.082387544359111"><ele>334.25</ele><time>2026-03-28T16:26:29Z</time></trkpt><trkpt lat="44.01025812858311" lon="12.082516507488466"><ele>335.0</ele><time>2026-03-28T16:26:30Z</time></trkpt><trkpt lat="44.01035973040841" lon="12.082621653796743"><ele>333.5</ele><time>2026-03-28T16:26:31Z</time></trkpt><trkpt lat="44.0104554282978" lon="12.082740452950532"><ele>332.0</ele><time>2026-03-28T16:26:32Z</time></trkpt><trkpt lat="44.01052324024634" lon="12.082878076926185"><ele>330.5</ele><time>2026-03-28T16:26:33Z</time></trkpt><trkpt lat="44.01059369864436" lon="12.082978719359557"><ele>329.0</ele><time>2026-03-28T16:26:34Z</time></trkpt><trkpt lat="44.01065446366108" lon="12.0831224806604"><ele>329.0</ele><time>2026-03-28T16:26:35Z</time></trkpt><trkpt lat="44.01073009080797" lon="12.083256174991158"><ele>329.0</ele><time>2026-03-28T16:26:36Z</time></trkpt><trkpt lat="44.01078427298007" lon="12.083402866435403"><ele>329.0</ele><time>2026-03-28T16:26:37Z</time></trkpt><trkpt lat="44.01085881511933" lon="12.083552110816962"><ele>329.0</ele><time>2026-03-28T16:26:38Z</time></trkpt><trkpt lat="44.01093718216794" lon="12.08369933153407"><ele>329.33333333333337</ele><time>2026-03-28T16:26:39Z</time></trkpt><trkpt lat="44.01102299089965" lon="12.083869940664446"><ele>329.6666666666667</ele><time>2026-03-28T16:26:40Z</time></trkpt><trkpt lat="44.011129318894326" lon="12.08405793116821"><ele>330.0</ele><time>2026-03-28T16:26:41Z</time></trkpt><trkpt lat="44.01123558068844" lon="12.084244629654838"><ele>327.6666666666667</ele><time>2026-03-28T16:26:42Z</time></trkpt><trkpt lat="44.01133619849464" lon="12.08442086110829"><ele>325.33333333333337</ele><time>2026-03-28T16:26:43Z</time></trkpt><trkpt lat="44.0114272306713" lon="12.084593626091609"><ele>323.0</ele><time>2026-03-28T16:26:44Z</time></trkpt><trkpt lat="44.01151191304258" lon="12.084739220153038"><ele>323.0</ele><time>2026-03-28T16:26:45Z</time></trkpt><trkpt lat="44.01158732784327" lon="12.084871511785114"><ele>323.0</ele><time>2026-03-28T16:26:46Z</time></trkpt><trkpt lat="44.01165572527645" lon="12.085025921498922"><ele>323.0</ele><time>2026-03-28T16:26:47Z</time></trkpt><trkpt lat="44.01171723422916" lon="12.085203408654362"><ele>323.0</ele><time>2026-03-28T16:26:48Z</time></trkpt><trkpt lat="44.01176764477981" lon="12.085392499460417"><ele>326.33333333333337</ele><time>2026-03-28T16:26:49Z</time></trkpt><trkpt lat="44.01180814245198" lon="12.085583579975422"><ele>329.6666666666667</ele><time>2026-03-28T16:26:50Z</time></trkpt><trkpt lat="44.0118390521143" lon="12.085791615895056"><ele>333.0</ele><time>2026-03-28T16:26:51Z</time></trkpt><trkpt lat="44.01187424547256" lon="12.086020579517779"><ele>333.25</ele><time>2026-03-28T16:26:52Z</time></trkpt><trkpt lat="44.011909519436045" lon="12.086232660697755"><ele>333.5</ele><time>2026-03-28T16:26:53Z</time></trkpt><trkpt lat="44.01194577715874" lon="12.08643033440183"><ele>333.75</ele><time>2026-03-28T16:26:54Z</time></trkpt><trkpt lat="44.01198104547336" lon="12.086620905623619"><ele>334.0</ele><time>2026-03-28T16:26:55Z</time></trkpt><trkpt lat="44.012021751148175" lon="12.086789161954309"><ele>333.0</ele><time>2026-03-28T16:26:56Z</time></trkpt><trkpt lat="44.01207622483074" lon="12.086947887681328"><ele>332.0</ele><time>2026-03-28T16:26:57Z</time></trkpt><trkpt lat="44.012143684198314" lon="12.087105412456593"><ele>331.0</ele><time>2026-03-28T16:26:58Z</time></trkpt><trkpt lat="44.01221645051082" lon="12.087266918322088"><ele>330.0</ele><time>2026-03-28T16:26:59Z</time></trkpt><trkpt lat="44.012297936098314" lon="12.087447558802833"><ele>330.0</ele><time>2026-03-28T16:27:00Z</time></trkpt><trkpt lat="44.012374201525404" lon="12.087619395402632"><ele>330.0</ele><time>2026-03-28T16:27:01Z</time></trkpt><trkpt lat="44.01244070493146" lon="12.087763388756454"><ele>330.0</ele><time>2026-03-28T16:27:02Z</time></trkpt><trkpt lat="44.0125124452903" lon="12.087927473035045"><ele>330.0</ele><time>2026-03-28T16:27:03Z</time></trkpt><trkpt lat="44.01258697949384" lon="12.088088947472064"><ele>330.0</ele><time>2026-03-28T16:27:04Z</time></trkpt><trkpt lat="44.012635048024066" lon="12.08819558016114"><ele>330.0</ele><time>2026-03-28T16:27:05Z</time></trkpt><trkpt lat="44.01269055987991" lon="12.088319686261956"><ele>330.0</ele><time>2026-03-28T16:27:07Z</time></trkpt><trkpt lat="44.012731367705065" lon="12.088434900806083"><ele>330.0</ele><time>2026-03-28T16:27:53Z</time></trkpt><trkpt lat="44.012774462251365" lon="12.088526512695395"><ele>330.0</ele><time>2026-03-28T16:27:54Z</time></trkpt><trkpt lat="44.012821767235216" lon="12.088631594978366"><ele>329.8</ele><time>2026-03-28T16:27:55Z</time></trkpt><trkpt lat="44.01286922098355" lon="12.08872656933594"><ele>329.6</ele><time>2026-03-28T16:27:56Z</time></trkpt><trkpt lat="44.012905454695684" lon="12.088832605862587"><ele>329.4</ele><time>2026-03-28T16:27:57Z</time></trkpt><trkpt lat="44.012930588075925" lon="12.08895875202947"><ele>329.2</ele><time>2026-03-28T16:27:58Z</time></trkpt><trkpt lat="44.012941666398206" lon="12.089133007467783"><ele>329.0</ele><time>2026-03-28T16:27:59Z</time></trkpt><trkpt lat="44.01293778965207" lon="12.089322048479024"><ele>329.0</ele><time>2026-03-28T16:28:00Z</time></trkpt><trkpt lat="44.012933901506706" lon="12.089528389680089"><ele>329.0</ele><time>2026-03-28T16:28:01Z</time></trkpt><trkpt lat="44.0129362527808" lon="12.089749833765705"><ele>329.0</ele><time>2026-03-28T16:28:02Z</time></trkpt><trkpt lat="44.01293728732913" lon="12.089983239031971"><ele>328.0</ele><time>2026-03-28T16:28:03Z</time></trkpt><trkpt lat="44.01293802596263" lon="12.090216623104808"><ele>327.0</ele><time>2026-03-28T16:28:04Z</time></trkpt><trkpt lat="44.01294245130532" lon="12.090454927497818"><ele>326.0</ele><time>2026-03-28T16:28:05Z</time></trkpt><trkpt lat="44.012945266969375" lon="12.090687343604765"><ele>327.0</ele><time>2026-03-28T16:28:06Z</time></trkpt><trkpt lat="44.012940415110606" lon="12.090902393723999"><ele>328.0</ele><time>2026-03-28T16:28:07Z</time></trkpt><trkpt lat="44.01291697593878" lon="12.091091391306687"><ele>329.0</ele><time>2026-03-28T16:28:08Z</time></trkpt><trkpt lat="44.012892850182666" lon="12.091268516829757"><ele>330.0</ele><time>2026-03-28T16:28:09Z</time></trkpt><trkpt lat="44.012884328898416" lon="12.091417905643151"><ele>330.0</ele><time>2026-03-28T16:28:10Z</time></trkpt><trkpt lat="44.01290421850777" lon="12.091559025221073"><ele>330.0</ele><time>2026-03-28T16:28:11Z</time></trkpt><trkpt lat="44.01294801917484" lon="12.09168142095744"><ele>330.0</ele><time>2026-03-28T16:28:12Z</time></trkpt><trkpt lat="44.013034160948806" lon="12.091775850197667"><ele>330.0</ele><time>2026-03-28T16:28:13Z</time></trkpt><trkpt lat="44.01313343739004" lon="12.091889723057411"><ele>330.0</ele><time>2026-03-28T16:28:14Z</time></trkpt><trkpt lat="44.0132537676278" lon="12.092011375059634"><ele>333.5</ele><time>2026-03-28T16:28:15Z</time></trkpt><trkpt lat="44.01336863324429" lon="12.092133805952948"><ele>337.0</ele><time>2026-03-28T16:28:16Z</time></trkpt><trkpt lat="44.01346711644039" lon="12.092261368739088"><ele>340.5</ele><time>2026-03-28T16:28:17Z</time></trkpt><trkpt lat="44.01354912631624" lon="12.092369194310864"><ele>344.0</ele><time>2026-03-28T16:28:18Z</time></trkpt><trkpt lat="44.013638318236566" lon="12.092449390112495"><ele>344.0</ele><time>2026-03-28T16:28:19Z</time></trkpt><trkpt lat="44.01375094968457" lon="12.09251667951743"><ele>344.0</ele><time>2026-03-28T16:28:20Z</time></trkpt><trkpt lat="44.01387458065636" lon="12.092546119384416"><ele>344.0</ele><time>2026-03-28T16:28:21Z</time></trkpt><trkpt lat="44.014014799177" lon="12.092547883340727"><ele>344.0</ele><time>2026-03-28T16:28:22Z</time></trkpt><trkpt lat="44.01417253286894" lon="12.092547961280422"><ele>347.25</ele><time>2026-03-28T16:28:23Z</time></trkpt><trkpt lat="44.014337912681306" lon="12.092547304343894"><ele>350.5</ele><time>2026-03-28T16:28:24Z</time></trkpt><trkpt lat="44.01449144490944" lon="12.092546559993472"><ele>353.75</ele><time>2026-03-28T16:28:25Z</time></trkpt><trkpt lat="44.01462189905055" lon="12.092546565274466"><ele>357.0</ele><time>2026-03-28T16:28:26Z</time></trkpt><trkpt lat="44.0147473607796" lon="12.092541961035828"><ele>357.0</ele><time>2026-03-28T16:28:27Z</time></trkpt><trkpt lat="44.01486277478995" lon="12.092545327133477"><ele>357.0</ele><time>2026-03-28T16:28:28Z</time></trkpt><trkpt lat="44.01496721334977" lon="12.09254826808972"><ele>357.0</ele><time>2026-03-28T16:28:29Z</time></trkpt><trkpt lat="44.015069656131224" lon="12.092589078559723"><ele>357.0</ele><time>2026-03-28T16:28:30Z</time></trkpt><trkpt lat="44.01517691700623" lon="12.092613971558784"><ele>357.0</ele><time>2026-03-28T16:28:31Z</time></trkpt><trkpt lat="44.01529363167805" lon="12.092641058593994"><ele>357.5</ele><time>2026-03-28T16:28:32Z</time></trkpt><trkpt lat="44.015416863393796" lon="12.09266199768203"><ele>358.0</ele><time>2026-03-28T16:28:33Z</time></trkpt><trkpt lat="44.015550416242725" lon="12.092684549903236"><ele>358.5</ele><time>2026-03-28T16:28:34Z</time></trkpt><trkpt lat="44.01569050907292" lon="12.09273316554208"><ele>359.0</ele><time>2026-03-28T16:28:35Z</time></trkpt><trkpt lat="44.015826553692214" lon="12.092765327287896"><ele>359.0</ele><time>2026-03-28T16:28:36Z</time></trkpt><trkpt lat="44.015939794954875" lon="12.092789369173497"><ele>359.0</ele><time>2026-03-28T16:28:37Z</time></trkpt><trkpt lat="44.01604385958228" lon="12.092819287809151"><ele>359.0</ele><time>2026-03-28T16:28:38Z</time></trkpt><trkpt lat="44.01614650662785" lon="12.092868313175094"><ele>359.0</ele><time>2026-03-28T16:28:39Z</time></trkpt><trkpt lat="44.01623699311332" lon="12.092937371524691"><ele>359.0</ele><time>2026-03-28T16:28:40Z</time></trkpt><trkpt lat="44.01632231071822" lon="12.093039413058593"><ele>359.0</ele><time>2026-03-28T16:28:41Z</time></trkpt><trkpt lat="44.01642682548753" lon="12.093168366389664"><ele>359.0</ele><time>2026-03-28T16:28:42Z</time></trkpt><trkpt lat="44.01653588284114" lon="12.093283428725622"><ele>359.0</ele><time>2026-03-28T16:28:43Z</time></trkpt><trkpt lat="44.016674269792006" lon="12.093363355212386"><ele>359.0</ele><time>2026-03-28T16:28:44Z</time></trkpt><trkpt lat="44.016847473860004" lon="12.09343104461683"><ele>359.33333333333337</ele><time>2026-03-28T16:28:45Z</time></trkpt><trkpt lat="44.01702450974653" lon="12.093505214195876"><ele>359.6666666666667</ele><time>2026-03-28T16:28:46Z</time></trkpt><trkpt lat="44.0172123648525" lon="12.093602813920722"><ele>360.0</ele><time>2026-03-28T16:28:47Z</time></trkpt><trkpt lat="44.017395985938435" lon="12.093692339197018"><ele>357.6666666666667</ele><time>2026-03-28T16:28:48Z</time></trkpt><trkpt lat="44.0175687453484" lon="12.093776531140529"><ele>355.33333333333337</ele><time>2026-03-28T16:28:49Z</time></trkpt><trkpt lat="44.01773450723839" lon="12.093862003053658"><ele>353.0</ele><time>2026-03-28T16:28:50Z</time></trkpt><trkpt lat="44.01788527446929" lon="12.093938353849493"><ele>353.0</ele><time>2026-03-28T16:28:51Z</time></trkpt><trkpt lat="44.01803213712965" lon="12.093993659948996"><ele>353.0</ele><time>2026-03-28T16:28:52Z</time></trkpt><trkpt lat="44.0181766463037" lon="12.094020434942719"><ele>353.0</ele><time>2026-03-28T16:28:53Z</time></trkpt><trkpt lat="44.018316519250206" lon="12.09402729524133"><ele>353.0</ele><time>2026-03-28T16:28:54Z</time></trkpt><trkpt lat="44.01845763146877" lon="12.094052116797632"><ele>352.25</ele><time>2026-03-28T16:28:55Z</time></trkpt><trkpt lat="44.01859732077899" lon="12.094061909020091"><ele>351.5</ele><time>2026-03-28T16:28:56Z</time></trkpt><trkpt lat="44.01872911457044" lon="12.09408196423929"><ele>350.75</ele><time>2026-03-28T16:28:57Z</time></trkpt><trkpt lat="44.01885045116458" lon="12.094138988312302"><ele>350.0</ele><time>2026-03-28T16:28:58Z</time></trkpt><trkpt lat="44.01895657725833" lon="12.094226527003514"><ele>350.75</ele><time>2026-03-28T16:28:59Z</time></trkpt><trkpt lat="44.01906787112708" lon="12.094277643825542"><ele>351.5</ele><time>2026-03-28T16:29:00Z</time></trkpt><trkpt lat="44.01919174279104" lon="12.0943199236944"><ele>352.25</ele><time>2026-03-28T16:29:01Z</time></trkpt><trkpt lat="44.019321423246105" lon="12.09434308307563"><ele>353.0</ele><time>2026-03-28T16:29:02Z</time></trkpt><trkpt lat="44.019453133093116" lon="12.094354135979211"><ele>353.0</ele><time>2026-03-28T16:29:03Z</time></trkpt><trkpt lat="44.01958253248397" lon="12.09435817109897"><ele>353.0</ele><time>2026-03-28T16:29:04Z</time></trkpt><trkpt lat="44.0197085389615" lon="12.09435817109825"><ele>353.0</ele><time>2026-03-28T16:29:05Z</time></trkpt><trkpt lat="44.019841530021516" lon="12.094358171098015"><ele>353.0</ele><time>2026-03-28T16:29:06Z</time></trkpt><trkpt lat="44.01998118363688" lon="12.094358171097387"><ele>353.6666666666667</ele><time>2026-03-28T16:29:07Z</time></trkpt><trkpt lat="44.020129304924346" lon="12.094358171094461"><ele>354.3333333333333</ele><time>2026-03-28T16:29:08Z</time></trkpt><trkpt lat="44.02030251842236" lon="12.09433733655142"><ele>355.0</ele><time>2026-03-28T16:29:09Z</time></trkpt><trkpt lat="44.02049333414953" lon="12.094342545903205"><ele>355.0</ele><time>2026-03-28T16:29:10Z</time></trkpt><trkpt lat="44.02068118004363" lon="12.094350433832542"><ele>355.0</ele><time>2026-03-28T16:29:11Z</time></trkpt><trkpt lat="44.02087826051753" lon="12.094346437826022"><ele>355.0</ele><time>2026-03-28T16:29:12Z</time></trkpt><trkpt lat="44.02107333504111" lon="12.09434923644586"><ele>356.3333333333333</ele><time>2026-03-28T16:29:13Z</time></trkpt><trkpt lat="44.02127390529204" lon="12.09437602395327"><ele>357.6666666666667</ele><time>2026-03-28T16:29:14Z</time></trkpt><trkpt lat="44.02146764252509" lon="12.09438129810245"><ele>359.0</ele><time>2026-03-28T16:29:15Z</time></trkpt><trkpt lat="44.02165626382208" lon="12.094364111832713"><ele>360.0</ele><time>2026-03-28T16:29:16Z</time></trkpt><trkpt lat="44.021821782049074" lon="12.094372340832397"><ele>361.0</ele><time>2026-03-28T16:29:17Z</time></trkpt><trkpt lat="44.02197563618303" lon="12.094372230871691"><ele>362.0</ele><time>2026-03-28T16:29:18Z</time></trkpt><trkpt lat="44.02211490385281" lon="12.09434662408448"><ele>362.0</ele><time>2026-03-28T16:29:19Z</time></trkpt><trkpt lat="44.02225946114995" lon="12.09427920088663"><ele>362.0</ele><time>2026-03-28T16:29:20Z</time></trkpt><trkpt lat="44.02241371545795" lon="12.094174666925753"><ele>362.0</ele><time>2026-03-28T16:29:21Z</time></trkpt><trkpt lat="44.02256309771111" lon="12.094069098061194"><ele>362.25</ele><time>2026-03-28T16:29:22Z</time></trkpt><trkpt lat="44.022689296612114" lon="12.093970074828162"><ele>362.5</ele><time>2026-03-28T16:29:23Z</time></trkpt><trkpt lat="44.0227849541133" lon="12.093853551547594"><ele>362.75</ele><time>2026-03-28T16:29:24Z</time></trkpt><trkpt lat="44.02286668507548" lon="12.093685658423029"><ele>363.0</ele><time>2026-03-28T16:29:25Z</time></trkpt><trkpt lat="44.02294976372988" lon="12.09349738227606"><ele>363.0</ele><time>2026-03-28T16:29:26Z</time></trkpt><trkpt lat="44.02303456171527" lon="12.093371013520938"><ele>363.0</ele><time>2026-03-28T16:29:27Z</time></trkpt><trkpt lat="44.02310000197987" lon="12.093292135703189"><ele>363.0</ele><time>2026-03-28T16:29:28Z</time></trkpt><trkpt lat="44.02317764804773" lon="12.093252220968155"><ele>363.0</ele><time>2026-03-28T16:29:29Z</time></trkpt><trkpt lat="44.02325936761745" lon="12.09325171325588"><ele>363.0</ele><time>2026-03-28T16:29:30Z</time></trkpt><trkpt lat="44.02336002037331" lon="12.093259085159504"><ele>366.5</ele><time>2026-03-28T16:29:31Z</time></trkpt><trkpt lat="44.02345549157814" lon="12.093324984472858"><ele>370.0</ele><time>2026-03-28T16:29:32Z</time></trkpt><trkpt lat="44.02354497856881" lon="12.093427190955603"><ele>373.5</ele><time>2026-03-28T16:29:33Z</time></trkpt><trkpt lat="44.02366592002805" lon="12.093553513394983"><ele>377.0</ele><time>2026-03-28T16:29:34Z</time></trkpt><trkpt lat="44.02379791663361" lon="12.093690861602537"><ele>377.0</ele><time>2026-03-28T16:29:35Z</time></trkpt><trkpt lat="44.0239528695248" lon="12.09381950911929"><ele>377.0</ele><time>2026-03-28T16:29:36Z</time></trkpt><trkpt lat="44.02410573734422" lon="12.09397955692926"><ele>377.0</ele><time>2026-03-28T16:29:37Z</time></trkpt><trkpt lat="44.0242493086908" lon="12.094120017909658"><ele>378.6666666666667</ele><time>2026-03-28T16:29:38Z</time></trkpt><trkpt lat="44.02438150481331" lon="12.094230853034679"><ele>380.3333333333333</ele><time>2026-03-28T16:29:39Z</time></trkpt><trkpt lat="44.024515111860914" lon="12.09430638000876"><ele>382.0</ele><time>2026-03-28T16:29:40Z</time></trkpt><trkpt lat="44.024672136922355" lon="12.094366558646318"><ele>382.0</ele><time>2026-03-28T16:29:41Z</time></trkpt><trkpt lat="44.024847052156076" lon="12.09441190802548"><ele>382.0</ele><time>2026-03-28T16:29:42Z</time></trkpt><trkpt lat="44.025001370574806" lon="12.094471006653803"><ele>382.0</ele><time>2026-03-28T16:29:43Z</time></trkpt><trkpt lat="44.025137827898334" lon="12.09451355412943"><ele>380.66666666666663</ele><time>2026-03-28T16:29:44Z</time></trkpt><trkpt lat="44.02527207767472" lon="12.094570190541187"><ele>379.3333333333333</ele><time>2026-03-28T16:29:45Z</time></trkpt><trkpt lat="44.025410916349855" lon="12.094657336857258"><ele>378.0</ele><time>2026-03-28T16:29:46Z</time></trkpt><trkpt lat="44.025551081775" lon="12.094760338677162"><ele>378.0</ele><time>2026-03-28T16:29:47Z</time></trkpt><trkpt lat="44.025706923782685" lon="12.094875211166478"><ele>378.0</ele><time>2026-03-28T16:29:48Z</time></trkpt><trkpt lat="44.02587067532315" lon="12.094974065372464"><ele>378.0</ele><time>2026-03-28T16:29:49Z</time></trkpt><trkpt lat="44.02602510967356" lon="12.095074893039659"><ele>379.6666666666667</ele><time>2026-03-28T16:29:50Z</time></trkpt><trkpt lat="44.02617101917412" lon="12.095142597782141"><ele>381.33333333333337</ele><time>2026-03-28T16:29:51Z</time></trkpt><trkpt lat="44.0263314739385" lon="12.095201497950152"><ele>383.0</ele><time>2026-03-28T16:29:52Z</time></trkpt><trkpt lat="44.02651355833554" lon="12.095242783337902"><ele>382.6666666666667</ele><time>2026-03-28T16:29:53Z</time></trkpt><trkpt lat="44.0266891492344" lon="12.095281888327946"><ele>382.3333333333333</ele><time>2026-03-28T16:29:54Z</time></trkpt><trkpt lat="44.026868610265225" lon="12.095324410329939"><ele>382.0</ele><time>2026-03-28T16:29:55Z</time></trkpt><trkpt lat="44.02704009214369" lon="12.095360545995034"><ele>382.0</ele><time>2026-03-28T16:29:56Z</time></trkpt><trkpt lat="44.02721277860307" lon="12.095388334369217"><ele>382.0</ele><time>2026-03-28T16:29:57Z</time></trkpt><trkpt lat="44.02740092444549" lon="12.095404527026753"><ele>382.0</ele><time>2026-03-28T16:29:58Z</time></trkpt><trkpt lat="44.0275822127079" lon="12.095413878505461"><ele>383.0</ele><time>2026-03-28T16:29:59Z</time></trkpt><trkpt lat="44.02776669305994" lon="12.095424446069405"><ele>384.0</ele><time>2026-03-28T16:30:00Z</time></trkpt><trkpt lat="44.02795693147379" lon="12.095435343451278"><ele>385.0</ele><time>2026-03-28T16:30:01Z</time></trkpt><trkpt lat="44.0281351625475" lon="12.095447301258858"><ele>385.0</ele><time>2026-03-28T16:30:02Z</time></trkpt><trkpt lat="44.02830194066577" lon="12.095461881819263"><ele>385.0</ele><time>2026-03-28T16:30:03Z</time></trkpt><trkpt lat="44.02845325111843" lon="12.095477223513772"><ele>385.0</ele><time>2026-03-28T16:30:04Z</time></trkpt><trkpt lat="44.02858081355829" lon="12.09546952142674"><ele>385.0</ele><time>2026-03-28T16:30:05Z</time></trkpt><trkpt lat="44.028719388075686" lon="12.095435373683262"><ele>387.0</ele><time>2026-03-28T16:30:06Z</time></trkpt><trkpt lat="44.02886884152062" lon="12.095350263049086"><ele>389.0</ele><time>2026-03-28T16:30:07Z</time></trkpt><trkpt lat="44.02901048798755" lon="12.095258635591204"><ele>391.0</ele><time>2026-03-28T16:30:08Z</time></trkpt><trkpt lat="44.02914473441216" lon="12.095178270485986"><ele>391.25</ele><time>2026-03-28T16:30:09Z</time></trkpt><trkpt lat="44.02926664946679" lon="12.095138135581484"><ele>391.5</ele><time>2026-03-28T16:30:10Z</time></trkpt><trkpt lat="44.02938711868199" lon="12.095137794897221"><ele>391.75</ele><time>2026-03-28T16:30:11Z</time></trkpt><trkpt lat="44.02953476611419" lon="12.095146608712326"><ele>392.0</ele><time>2026-03-28T16:30:12Z</time></trkpt><trkpt lat="44.02970846340706" lon="12.095165544851865"><ele>392.0</ele><time>2026-03-28T16:30:13Z</time></trkpt><trkpt lat="44.029891676017094" lon="12.095185594543544"><ele>392.0</ele><time>2026-03-28T16:30:14Z</time></trkpt><trkpt lat="44.03007190198505" lon="12.095205317371788"><ele>392.0</ele><time>2026-03-28T16:30:15Z</time></trkpt><trkpt lat="44.03023524472133" lon="12.095222967799934"><ele>391.0</ele><time>2026-03-28T16:30:16Z</time></trkpt><trkpt lat="44.030384551240786" lon="12.095238385318291"><ele>390.0</ele><time>2026-03-28T16:30:17Z</time></trkpt><trkpt lat="44.030517515372836" lon="12.095253172944647"><ele>389.0</ele><time>2026-03-28T16:30:18Z</time></trkpt><trkpt lat="44.03063368050037" lon="12.095269215075668"><ele>388.0</ele><time>2026-03-28T16:30:19Z</time></trkpt><trkpt lat="44.030729777812056" lon="12.095287643605834"><ele>386.79999999999995</ele><time>2026-03-28T16:30:20Z</time></trkpt><trkpt lat="44.030820086631216" lon="12.095315315955876"><ele>385.6</ele><time>2026-03-28T16:30:21Z</time></trkpt><trkpt lat="44.030922161194916" lon="12.095365200675841"><ele>384.4</ele><time>2026-03-28T16:30:22Z</time></trkpt><trkpt lat="44.031036352526634" lon="12.095424346453958"><ele>383.20000000000005</ele><time>2026-03-28T16:30:23Z</time></trkpt><trkpt lat="44.03114766542588" lon="12.095483449109041"><ele>382.0</ele><time>2026-03-28T16:30:24Z</time></trkpt><trkpt lat="44.031257337535216" lon="12.095535064418277"><ele>382.0</ele><time>2026-03-28T16:30:25Z</time></trkpt><trkpt lat="44.03136770558638" lon="12.095631416155728"><ele>382.0</ele><time>2026-03-28T16:30:26Z</time></trkpt><trkpt lat="44.03147852676791" lon="12.095749884407283"><ele>382.0</ele><time>2026-03-28T16:30:27Z</time></trkpt><trkpt lat="44.03158644667206" lon="12.095838102106896"><ele>382.0</ele><time>2026-03-28T16:30:28Z</time></trkpt><trkpt lat="44.03168114819335" lon="12.09590928225645"><ele>384.25</ele><time>2026-03-28T16:30:29Z</time></trkpt><trkpt lat="44.031788871428034" lon="12.095929628484015"><ele>386.5</ele><time>2026-03-28T16:30:30Z</time></trkpt><trkpt lat="44.03191078877298" lon="12.095905989815083"><ele>388.75</ele><time>2026-03-28T16:30:31Z</time></trkpt><trkpt lat="44.03205039656056" lon="12.095853092704507"><ele>391.0</ele><time>2026-03-28T16:30:32Z</time></trkpt><trkpt lat="44.032180553770104" lon="12.09583886799861"><ele>391.0</ele><time>2026-03-28T16:30:33Z</time></trkpt><trkpt lat="44.03228821560768" lon="12.095813247972048"><ele>391.0</ele><time>2026-03-28T16:30:34Z</time></trkpt><trkpt lat="44.03239211666959" lon="12.095816526913435"><ele>391.0</ele><time>2026-03-28T16:30:35Z</time></trkpt><trkpt lat="44.032505977549995" lon="12.095847900891336"><ele>391.0</ele><time>2026-03-28T16:30:36Z</time></trkpt><trkpt lat="44.03262488196475" lon="12.09593076425226"><ele>391.6666666666667</ele><time>2026-03-28T16:30:37Z</time></trkpt><trkpt lat="44.032770578140166" lon="12.096027838949952"><ele>392.33333333333337</ele><time>2026-03-28T16:30:38Z</time></trkpt><trkpt lat="44.03291315879876" lon="12.096061071099282"><ele>393.0</ele><time>2026-03-28T16:30:39Z</time></trkpt><trkpt lat="44.033062345756505" lon="12.096084218599694"><ele>393.0</ele><time>2026-03-28T16:30:40Z</time></trkpt><trkpt lat="44.03322931103753" lon="12.096085268923414"><ele>393.0</ele><time>2026-03-28T16:30:41Z</time></trkpt><trkpt lat="44.03336429480679" lon="12.09609791834965"><ele>393.0</ele><time>2026-03-28T16:30:42Z</time></trkpt><trkpt lat="44.03348448121156" lon="12.096086087073685"><ele>393.0</ele><time>2026-03-28T16:30:43Z</time></trkpt><trkpt lat="44.033598071094154" lon="12.096051070338854"><ele>392.0</ele><time>2026-03-28T16:30:44Z</time></trkpt><trkpt lat="44.03372213662626" lon="12.096028966318903"><ele>391.0</ele><time>2026-03-28T16:30:45Z</time></trkpt><trkpt lat="44.03384655544826" lon="12.095992184523826"><ele>390.0</ele><time>2026-03-28T16:30:46Z</time></trkpt><trkpt lat="44.033956899730605" lon="12.095944300771936"><ele>389.0</ele><time>2026-03-28T16:30:47Z</time></trkpt><trkpt lat="44.034065287046985" lon="12.09586256190001"><ele>386.66666666666663</ele><time>2026-03-28T16:30:48Z</time></trkpt><trkpt lat="44.03417582073359" lon="12.095734466838561"><ele>384.3333333333333</ele><time>2026-03-28T16:30:49Z</time></trkpt><trkpt lat="44.03428925365927" lon="12.095569164345306"><ele>382.0</ele><time>2026-03-28T16:30:50Z</time></trkpt><trkpt lat="44.03439313431941" lon="12.095399040087363"><ele>382.0</ele><time>2026-03-28T16:30:51Z</time></trkpt><trkpt lat="44.034482800421664" lon="12.09524341660971"><ele>382.0</ele><time>2026-03-28T16:30:52Z</time></trkpt><trkpt lat="44.03457973419511" lon="12.095124792098785"><ele>382.0</ele><time>2026-03-28T16:30:53Z</time></trkpt><trkpt lat="44.034668936957864" lon="12.095017330136464"><ele>382.0</ele><time>2026-03-28T16:30:54Z</time></trkpt><trkpt lat="44.03476921613027" lon="12.094933767539205"><ele>378.25</ele><time>2026-03-28T16:30:55Z</time></trkpt><trkpt lat="44.03487342566542" lon="12.094876253715462"><ele>374.5</ele><time>2026-03-28T16:30:56Z</time></trkpt><trkpt lat="44.03497754325692" lon="12.09486210947916"><ele>370.75</ele><time>2026-03-28T16:30:57Z</time></trkpt><trkpt lat="44.035096165640326" lon="12.094870985706317"><ele>367.0</ele><time>2026-03-28T16:30:58Z</time></trkpt><trkpt lat="44.03523072858083" lon="12.094918074714627"><ele>371.40000000000003</ele><time>2026-03-28T16:30:59Z</time></trkpt><trkpt lat="44.035366041220854" lon="12.094980037940772"><ele>375.8</ele><time>2026-03-28T16:31:00Z</time></trkpt><trkpt lat="44.03547440504817" lon="12.095032097931023"><ele>380.2</ele><time>2026-03-28T16:31:01Z</time></trkpt><trkpt lat="44.03555643971464" lon="12.095069893497614"><ele>384.6</ele><time>2026-03-28T16:31:02Z</time></trkpt><trkpt lat="44.035623582143856" lon="12.095098523882898"><ele>389.0</ele><time>2026-03-28T16:31:03Z</time></trkpt><trkpt lat="44.03569098872448" lon="12.095109927383092"><ele>389.0</ele><time>2026-03-28T16:31:04Z</time></trkpt><trkpt lat="44.03576842244429" lon="12.095107678948844"><ele>389.0</ele><time>2026-03-28T16:31:05Z</time></trkpt><trkpt lat="44.035852352430275" lon="12.095087923834408"><ele>389.0</ele><time>2026-03-28T16:31:06Z</time></trkpt><trkpt lat="44.03594537306942" lon="12.095028210881274"><ele>389.0</ele><time>2026-03-28T16:31:07Z</time></trkpt><trkpt lat="44.036033012747964" lon="12.094955347627725"><ele>389.0</ele><time>2026-03-28T16:31:08Z</time></trkpt><trkpt lat="44.03611639897317" lon="12.094859193797102"><ele>386.6</ele><time>2026-03-28T16:31:09Z</time></trkpt><trkpt lat="44.03616976709066" lon="12.09476327717261"><ele>384.2</ele><time>2026-03-28T16:31:10Z</time></trkpt><trkpt lat="44.036238262487" lon="12.094672102997842"><ele>381.8</ele><time>2026-03-28T16:31:11Z</time></trkpt><trkpt lat="44.03627881907833" lon="12.094541107648173"><ele>379.40000000000003</ele><time>2026-03-28T16:31:12Z</time></trkpt><trkpt lat="44.036321596853014" lon="12.094382755874623"><ele>377.0</ele><time>2026-03-28T16:31:13Z</time></trkpt><trkpt lat="44.03637990657417" lon="12.094250297790877"><ele>377.0</ele><time>2026-03-28T16:31:14Z</time></trkpt><trkpt lat="44.03644769928355" lon="12.094114993612902"><ele>377.0</ele><time>2026-03-28T16:31:15Z</time></trkpt><trkpt lat="44.03651590862809" lon="12.093991536426769"><ele>377.0</ele><time>2026-03-28T16:31:16Z</time></trkpt><trkpt lat="44.03659236227831" lon="12.093880905471181"><ele>377.0</ele><time>2026-03-28T16:31:17Z</time></trkpt><trkpt lat="44.03668302546115" lon="12.093771230755241"><ele>376.0</ele><time>2026-03-28T16:31:18Z</time></trkpt><trkpt lat="44.03678024609438" lon="12.093652229520417"><ele>375.0</ele><time>2026-03-28T16:31:19Z</time></trkpt><trkpt lat="44.03688701592634" lon="12.093583264682975"><ele>374.0</ele><time>2026-03-28T16:31:20Z</time></trkpt><trkpt lat="44.036998588715434" lon="12.09352986341121"><ele>373.0</ele><time>2026-03-28T16:31:21Z</time></trkpt><trkpt lat="44.03714448979268" lon="12.09348164663724"><ele>373.0</ele><time>2026-03-28T16:31:22Z</time></trkpt><trkpt lat="44.03730098873513" lon="12.093443049699728"><ele>373.0</ele><time>2026-03-28T16:31:23Z</time></trkpt><trkpt lat="44.03744679193582" lon="12.093405275936739"><ele>373.0</ele><time>2026-03-28T16:31:24Z</time></trkpt><trkpt lat="44.03757564951999" lon="12.093339642390587"><ele>373.0</ele><time>2026-03-28T16:31:25Z</time></trkpt><trkpt lat="44.0377023606358" lon="12.093305166429257"><ele>373.66666666666663</ele><time>2026-03-28T16:31:26Z</time></trkpt><trkpt lat="44.03782927652136" lon="12.093217487845052"><ele>374.3333333333333</ele><time>2026-03-28T16:31:27Z</time></trkpt><trkpt lat="44.03795696556215" lon="12.093076257549727"><ele>375.0</ele><time>2026-03-28T16:31:28Z</time></trkpt><trkpt lat="44.03808171127429" lon="12.092930793458521"><ele>375.0</ele><time>2026-03-28T16:31:29Z</time></trkpt><trkpt lat="44.03818546899782" lon="12.092799166352622"><ele>375.0</ele><time>2026-03-28T16:31:30Z</time></trkpt><trkpt lat="44.03827310789508" lon="12.092685699340167"><ele>375.0</ele><time>2026-03-28T16:31:31Z</time></trkpt><trkpt lat="44.038354915936935" lon="12.09259092510013"><ele>375.0</ele><time>2026-03-28T16:31:32Z</time></trkpt><trkpt lat="44.03843952432344" lon="12.092522970014574"><ele>372.2</ele><time>2026-03-28T16:31:33Z</time></trkpt><trkpt lat="44.03852880336577" lon="12.092508502103927"><ele>369.4</ele><time>2026-03-28T16:31:34Z</time></trkpt><trkpt lat="44.0386225284701" lon="12.092533878808688"><ele>366.6</ele><time>2026-03-28T16:31:35Z</time></trkpt><trkpt lat="44.03870184898907" lon="12.092624725601704"><ele>363.8</ele><time>2026-03-28T16:31:36Z</time></trkpt><trkpt lat="44.03879366406053" lon="12.092699028836318"><ele>361.0</ele><time>2026-03-28T16:31:37Z</time></trkpt><trkpt lat="44.03889749201277" lon="12.092732816871017"><ele>361.0</ele><time>2026-03-28T16:31:38Z</time></trkpt><trkpt lat="44.03900052828437" lon="12.092731790716565"><ele>361.0</ele><time>2026-03-28T16:31:39Z</time></trkpt><trkpt lat="44.039110248666645" lon="12.092699310746651"><ele>361.0</ele><time>2026-03-28T16:31:40Z</time></trkpt><trkpt lat="44.03917887937246" lon="12.092683671950363"><ele>361.0</ele><time>2026-03-28T16:31:41Z</time></trkpt><trkpt lat="44.039247498535964" lon="12.09266812065569"><ele>361.0</ele><time>2026-03-28T16:31:42Z</time></trkpt><trkpt lat="44.039320031353085" lon="12.09271110332379"><ele>361.0</ele><time>2026-03-28T16:31:44Z</time></trkpt><trkpt lat="44.039354920886566" lon="12.092846877752295"><ele>361.0</ele><time>2026-03-28T16:31:47Z</time></trkpt><trkpt lat="44.039272719778374" lon="12.092988283748047"><ele>361.0</ele><time>2026-03-28T16:31:49Z</time></trkpt><trkpt lat="44.039180745419394" lon="12.093031879746237"><ele>361.0</ele><time>2026-03-28T16:31:50Z</time></trkpt><trkpt lat="44.03906767660554" lon="12.093058924122554"><ele>361.0</ele><time>2026-03-28T16:31:51Z</time></trkpt><trkpt lat="44.03894957140334" lon="12.093083972176485"><ele>361.0</ele><time>2026-03-28T16:31:52Z</time></trkpt><trkpt lat="44.038837519093924" lon="12.093124990592786"><ele>361.0</ele><time>2026-03-28T16:31:53Z</time></trkpt><trkpt lat="44.038725690532" lon="12.093186562827542"><ele>361.0</ele><time>2026-03-28T16:31:54Z</time></trkpt><trkpt lat="44.03863801280357" lon="12.093268458233913"><ele>361.0</ele><time>2026-03-28T16:31:55Z</time></trkpt><trkpt lat="44.038571042909886" lon="12.093361083810176"><ele>361.0</ele><time>2026-03-28T16:31:56Z</time></trkpt><trkpt lat="44.03852913411576" lon="12.093452751946694"><ele>360.16666666666663</ele><time>2026-03-28T16:31:57Z</time></trkpt><trkpt lat="44.03851166480892" lon="12.093549670032333"><ele>359.3333333333333</ele><time>2026-03-28T16:31:58Z</time></trkpt><trkpt lat="44.038578428769675" lon="12.093697751569918"><ele>358.5</ele><time>2026-03-28T16:32:00Z</time></trkpt><trkpt lat="44.03865340472357" lon="12.09372265658859"><ele>357.6666666666667</ele><time>2026-03-28T16:32:01Z</time></trkpt><trkpt lat="44.038729638892896" lon="12.093689844903674"><ele>356.83333333333337</ele><time>2026-03-28T16:32:02Z</time></trkpt><trkpt lat="44.038798324413335" lon="12.093617933049641"><ele>356.0</ele><time>2026-03-28T16:32:03Z</time></trkpt><trkpt lat="44.038893148649386" lon="12.09356015908027"><ele>356.0</ele><time>2026-03-28T16:32:04Z</time></trkpt><trkpt lat="44.03899115026947" lon="12.093511363208608"><ele>356.0</ele><time>2026-03-28T16:32:05Z</time></trkpt><trkpt lat="44.03910558563517" lon="12.093523252820718"><ele>356.0</ele><time>2026-03-28T16:32:06Z</time></trkpt><trkpt lat="44.0392461124448" lon="12.093545865989718"><ele>356.0</ele><time>2026-03-28T16:32:07Z</time></trkpt><trkpt lat="44.03938457219385" lon="12.093575794171128"><ele>352.5</ele><time>2026-03-28T16:32:08Z</time></trkpt><trkpt lat="44.0395189706848" lon="12.093595782521996"><ele>349.0</ele><time>2026-03-28T16:32:09Z</time></trkpt><trkpt lat="44.03963739338798" lon="12.093651760456467"><ele>345.5</ele><time>2026-03-28T16:32:10Z</time></trkpt><trkpt lat="44.03976052458667" lon="12.09375025368435"><ele>342.0</ele><time>2026-03-28T16:32:11Z</time></trkpt><trkpt lat="44.03989431452071" lon="12.093846292386377"><ele>339.75</ele><time>2026-03-28T16:32:12Z</time></trkpt><trkpt lat="44.04002654724039" lon="12.09392356563045"><ele>337.5</ele><time>2026-03-28T16:32:13Z</time></trkpt><trkpt lat="44.040128667991844" lon="12.093995520379503"><ele>335.25</ele><time>2026-03-28T16:32:14Z</time></trkpt><trkpt lat="44.040221689463884" lon="12.094034187145674"><ele>333.0</ele><time>2026-03-28T16:32:15Z</time></trkpt><trkpt lat="44.040319752049534" lon="12.094049389797002"><ele>333.0</ele><time>2026-03-28T16:32:16Z</time></trkpt><trkpt lat="44.0404274442069" lon="12.094038767171966"><ele>333.0</ele><time>2026-03-28T16:32:17Z</time></trkpt><trkpt lat="44.040557617511325" lon="12.094020103327946"><ele>333.0</ele><time>2026-03-28T16:32:18Z</time></trkpt><trkpt lat="44.04069341054101" lon="12.093963413967911"><ele>333.0</ele><time>2026-03-28T16:32:19Z</time></trkpt><trkpt lat="44.04081999351536" lon="12.093906105683834"><ele>330.0</ele><time>2026-03-28T16:32:20Z</time></trkpt><trkpt lat="44.0409365835363" lon="12.093837870123183"><ele>327.0</ele><time>2026-03-28T16:32:21Z</time></trkpt><trkpt lat="44.04106607985996" lon="12.093810065963906"><ele>324.0</ele><time>2026-03-28T16:32:22Z</time></trkpt><trkpt lat="44.04120902426267" lon="12.093821421745112"><ele>321.0</ele><time>2026-03-28T16:32:23Z</time></trkpt><trkpt lat="44.04135535593222" lon="12.093830783550898"><ele>321.0</ele><time>2026-03-28T16:32:24Z</time></trkpt><trkpt lat="44.04148984462045" lon="12.093858191069197"><ele>321.0</ele><time>2026-03-28T16:32:25Z</time></trkpt><trkpt lat="44.041605484386785" lon="12.093912146383854"><ele>321.0</ele><time>2026-03-28T16:32:26Z</time></trkpt><trkpt lat="44.041708588579475" lon="12.093982656595994"><ele>321.0</ele><time>2026-03-28T16:32:27Z</time></trkpt><trkpt lat="44.04179620736604" lon="12.094064513494624"><ele>318.5</ele><time>2026-03-28T16:32:28Z</time></trkpt><trkpt lat="44.04189928740797" lon="12.094154325023856"><ele>316.0</ele><time>2026-03-28T16:32:29Z</time></trkpt><trkpt lat="44.04202233818476" lon="12.094274749769472"><ele>313.5</ele><time>2026-03-28T16:32:30Z</time></trkpt><trkpt lat="44.04213686366341" lon="12.094393722192558"><ele>311.0</ele><time>2026-03-28T16:32:31Z</time></trkpt><trkpt lat="44.042231935651515" lon="12.094501743875192"><ele>311.0</ele><time>2026-03-28T16:32:32Z</time></trkpt><trkpt lat="44.042313352472505" lon="12.094605208443369"><ele>311.0</ele><time>2026-03-28T16:32:33Z</time></trkpt><trkpt lat="44.042410995760015" lon="12.094683097569709"><ele>311.0</ele><time>2026-03-28T16:32:34Z</time></trkpt><trkpt lat="44.04252515174293" lon="12.094747083300463"><ele>311.0</ele><time>2026-03-28T16:32:35Z</time></trkpt><trkpt lat="44.04266341040849" lon="12.094773015080449"><ele>309.75</ele><time>2026-03-28T16:32:36Z</time></trkpt><trkpt lat="44.04280438129775" lon="12.094802292503106"><ele>308.5</ele><time>2026-03-28T16:32:37Z</time></trkpt><trkpt lat="44.04295025421785" lon="12.09481371959718"><ele>307.25</ele><time>2026-03-28T16:32:38Z</time></trkpt><trkpt lat="44.043077260137984" lon="12.094802596405142"><ele>306.0</ele><time>2026-03-28T16:32:39Z</time></trkpt><trkpt lat="44.0431989244549" lon="12.094798802754564"><ele>304.25</ele><time>2026-03-28T16:32:40Z</time></trkpt><trkpt lat="44.04331591800798" lon="12.094750732631542"><ele>302.5</ele><time>2026-03-28T16:32:41Z</time></trkpt><trkpt lat="44.04343185176424" lon="12.094666177919608"><ele>300.75</ele><time>2026-03-28T16:32:42Z</time></trkpt><trkpt lat="44.0435353199088" lon="12.094542809628827"><ele>299.0</ele><time>2026-03-28T16:32:43Z</time></trkpt><trkpt lat="44.04362693652635" lon="12.094413754660469"><ele>299.0</ele><time>2026-03-28T16:32:44Z</time></trkpt><trkpt lat="44.04370359711151" lon="12.094301636491904"><ele>299.0</ele><time>2026-03-28T16:32:45Z</time></trkpt><trkpt lat="44.04378209895816" lon="12.094192263035131"><ele>299.0</ele><time>2026-03-28T16:32:46Z</time></trkpt><trkpt lat="44.043864509404415" lon="12.094083129857585"><ele>299.0</ele><time>2026-03-28T16:32:47Z</time></trkpt><trkpt lat="44.043979541256626" lon="12.093998235136526"><ele>296.0</ele><time>2026-03-28T16:32:48Z</time></trkpt><trkpt lat="44.04410667757303" lon="12.093931366921547"><ele>293.0</ele><time>2026-03-28T16:32:49Z</time></trkpt><trkpt lat="44.04424236630208" lon="12.093912935314039"><ele>290.0</ele><time>2026-03-28T16:32:50Z</time></trkpt><trkpt lat="44.044390602933426" lon="12.09388851417643"><ele>287.0</ele><time>2026-03-28T16:32:51Z</time></trkpt><trkpt lat="44.044525341051354" lon="12.09387377175003"><ele>286.8</ele><time>2026-03-28T16:32:52Z</time></trkpt><trkpt lat="44.04464765701158" lon="12.093863913593383"><ele>286.6</ele><time>2026-03-28T16:32:53Z</time></trkpt><trkpt lat="44.0447622007579" lon="12.093857413737648"><ele>286.40000000000003</ele><time>2026-03-28T16:32:54Z</time></trkpt><trkpt lat="44.04485613657757" lon="12.093865705372176"><ele>286.2</ele><time>2026-03-28T16:32:55Z</time></trkpt><trkpt lat="44.04493555850807" lon="12.09388616844734"><ele>286.0</ele><time>2026-03-28T16:32:56Z</time></trkpt><trkpt lat="44.04499004163976" lon="12.093949479747657"><ele>286.0</ele><time>2026-03-28T16:32:57Z</time></trkpt><trkpt lat="44.04503622083622" lon="12.094049190552134"><ele>286.0</ele><time>2026-03-28T16:32:58Z</time></trkpt><trkpt lat="44.04506927317183" lon="12.094182900277437"><ele>286.0</ele><time>2026-03-28T16:32:59Z</time></trkpt><trkpt lat="44.04509713910642" lon="12.094370566023816"><ele>286.0</ele><time>2026-03-28T16:33:00Z</time></trkpt><trkpt lat="44.04512664549427" lon="12.094538311411446"><ele>286.0</ele><time>2026-03-28T16:33:01Z</time></trkpt><trkpt lat="44.04517042733641" lon="12.094654559936645"><ele>286.8333333333333</ele><time>2026-03-28T16:33:02Z</time></trkpt><trkpt lat="44.04521874034647" lon="12.094739231762192"><ele>287.66666666666663</ele><time>2026-03-28T16:33:03Z</time></trkpt><trkpt lat="44.045294350724475" lon="12.094777855587207"><ele>288.5</ele><time>2026-03-28T16:33:04Z</time></trkpt><trkpt lat="44.045368080615404" lon="12.094750992764096"><ele>289.3333333333333</ele><time>2026-03-28T16:33:05Z</time></trkpt><trkpt lat="44.04543442795772" lon="12.094673122053408"><ele>290.1666666666667</ele><time>2026-03-28T16:33:06Z</time></trkpt><trkpt lat="44.04547529021595" lon="12.09454238724217"><ele>291.0</ele><time>2026-03-28T16:33:07Z</time></trkpt><trkpt lat="44.045500198360095" lon="12.094396034864008"><ele>291.0</ele><time>2026-03-28T16:33:08Z</time></trkpt><trkpt lat="44.045506682855134" lon="12.094228737410653"><ele>291.0</ele><time>2026-03-28T16:33:09Z</time></trkpt><trkpt lat="44.045512698833925" lon="12.094077464410276"><ele>291.0</ele><time>2026-03-28T16:33:10Z</time></trkpt><trkpt lat="44.04557494393298" lon="12.09395717967739"><ele>291.0</ele><time>2026-03-28T16:33:11Z</time></trkpt><trkpt lat="44.04564955454499" lon="12.093832358477464"><ele>289.75</ele><time>2026-03-28T16:33:12Z</time></trkpt><trkpt lat="44.04570448520056" lon="12.093710921377701"><ele>288.5</ele><time>2026-03-28T16:33:13Z</time></trkpt><trkpt lat="44.0457297350053" lon="12.093557886188368"><ele>287.25</ele><time>2026-03-28T16:33:14Z</time></trkpt><trkpt lat="44.04576359777144" lon="12.093368720920582"><ele>286.0</ele><time>2026-03-28T16:33:15Z</time></trkpt><trkpt lat="44.045774153250235" lon="12.093195542591298"><ele>283.6</ele><time>2026-03-28T16:33:16Z</time></trkpt><trkpt lat="44.04580223428983" lon="12.093056246729716"><ele>281.20000000000005</ele><time>2026-03-28T16:33:17Z</time></trkpt><trkpt lat="44.04583917998498" lon="12.092958105210025"><ele>278.79999999999995</ele><time>2026-03-28T16:33:18Z</time></trkpt><trkpt lat="44.045898293668294" lon="12.092887294811362"><ele>276.4</ele><time>2026-03-28T16:33:19Z</time></trkpt><trkpt lat="44.04597382647958" lon="12.092811747108026"><ele>274.0</ele><time>2026-03-28T16:33:20Z</time></trkpt><trkpt lat="44.04608001311085" lon="12.0927835706464"><ele>274.0</ele><time>2026-03-28T16:33:21Z</time></trkpt><trkpt lat="44.04619300464426" lon="12.092727651208689"><ele>274.0</ele><time>2026-03-28T16:33:22Z</time></trkpt><trkpt lat="44.04627447159255" lon="12.092669880216732"><ele>274.0</ele><time>2026-03-28T16:33:23Z</time></trkpt><trkpt lat="44.046338831146215" lon="12.092581772348248"><ele>274.0</ele><time>2026-03-28T16:33:24Z</time></trkpt><trkpt lat="44.046385504937774" lon="12.092428180009625"><ele>274.0</ele><time>2026-03-28T16:33:25Z</time></trkpt><trkpt lat="44.04638808968033" lon="12.092270123210794"><ele>271.8333333333333</ele><time>2026-03-28T16:33:26Z</time></trkpt><trkpt lat="44.04641771821082" lon="12.092149836271366"><ele>269.66666666666663</ele><time>2026-03-28T16:33:27Z</time></trkpt><trkpt lat="44.046442267796216" lon="12.092047398089523"><ele>267.5</ele><time>2026-03-28T16:33:28Z</time></trkpt><trkpt lat="44.04648057932179" lon="12.091959368541719"><ele>265.3333333333333</ele><time>2026-03-28T16:33:29Z</time></trkpt><trkpt lat="44.04656580131662" lon="12.091894691006209"><ele>263.1666666666667</ele><time>2026-03-28T16:33:30Z</time></trkpt><trkpt lat="44.04667056039279" lon="12.091882307377523"><ele>261.0</ele><time>2026-03-28T16:33:31Z</time></trkpt><trkpt lat="44.04680398584185" lon="12.091864057353463"><ele>260.8</ele><time>2026-03-28T16:33:32Z</time></trkpt><trkpt lat="44.0469300357568" lon="12.091854322469095"><ele>260.6</ele><time>2026-03-28T16:33:33Z</time></trkpt><trkpt lat="44.04703136822498" lon="12.091850622358768"><ele>260.4</ele><time>2026-03-28T16:33:34Z</time></trkpt><trkpt lat="44.04710406459182" lon="12.091820295700076"><ele>260.2</ele><time>2026-03-28T16:33:35Z</time></trkpt><trkpt lat="44.04723574804286" lon="12.091764974792767"><ele>260.0</ele><time>2026-03-28T16:33:37Z</time></trkpt><trkpt lat="44.04729617588198" lon="12.091666541218947"><ele>257.6</ele><time>2026-03-28T16:33:38Z</time></trkpt><trkpt lat="44.04731475507656" lon="12.091531159418707"><ele>255.2</ele><time>2026-03-28T16:33:39Z</time></trkpt><trkpt lat="44.04731728757328" lon="12.091381240654105"><ele>252.8</ele><time>2026-03-28T16:33:40Z</time></trkpt><trkpt lat="44.04733124901486" lon="12.091227709749473"><ele>250.4</ele><time>2026-03-28T16:33:41Z</time></trkpt><trkpt lat="44.04732385959428" lon="12.091093283603715"><ele>248.0</ele><time>2026-03-28T16:33:42Z</time></trkpt><trkpt lat="44.04728358019247" lon="12.090971873766412"><ele>248.00000000000003</ele><time>2026-03-28T16:33:43Z</time></trkpt><trkpt lat="44.0472344489224" lon="12.09089016283536"><ele>248.0</ele><time>2026-03-28T16:33:44Z</time></trkpt><trkpt lat="44.04715401017691" lon="12.090831648631832"><ele>248.0</ele><time>2026-03-28T16:33:45Z</time></trkpt><trkpt lat="44.04705181672449" lon="12.09082510219426"><ele>248.0</ele><time>2026-03-28T16:33:46Z</time></trkpt><trkpt lat="44.04695754007615" lon="12.090850293737851"><ele>248.00000000000003</ele><time>2026-03-28T16:33:47Z</time></trkpt><trkpt lat="44.04687792290916" lon="12.090877984025486"><ele>248.0</ele><time>2026-03-28T16:33:48Z</time></trkpt><trkpt lat="44.046813040028155" lon="12.090875669950103"><ele>248.0</ele><time>2026-03-28T16:33:49Z</time></trkpt><trkpt lat="44.04672238137808" lon="12.090781949018586"><ele>248.0</ele><time>2026-03-28T16:33:51Z</time></trkpt><trkpt lat="44.0467196481201" lon="12.09063281257418"><ele>248.0</ele><time>2026-03-28T16:33:53Z</time></trkpt><trkpt lat="44.04679260569359" lon="12.090538007351414"><ele>248.0</ele><time>2026-03-28T16:33:55Z</time></trkpt><trkpt lat="44.04685910677974" lon="12.090490850126438"><ele>248.0</ele><time>2026-03-28T16:33:56Z</time></trkpt><trkpt lat="44.04695934999738" lon="12.090422348183171"><ele>245.25</ele><time>2026-03-28T16:33:57Z</time></trkpt><trkpt lat="44.04708535587265" lon="12.090341365345882"><ele>242.5</ele><time>2026-03-28T16:33:58Z</time></trkpt><trkpt lat="44.04720186171382" lon="12.09026362036618"><ele>239.75</ele><time>2026-03-28T16:33:59Z</time></trkpt><trkpt lat="44.047299223208135" lon="12.090190196656835"><ele>237.0</ele><time>2026-03-28T16:34:00Z</time></trkpt><trkpt lat="44.04739920984819" lon="12.090157383463893"><ele>237.39999999999998</ele><time>2026-03-28T16:34:01Z</time></trkpt><trkpt lat="44.0474948351924" lon="12.090129011969125"><ele>237.79999999999998</ele><time>2026-03-28T16:34:02Z</time></trkpt><trkpt lat="44.04759915542312" lon="12.090110618239144"><ele>238.2</ele><time>2026-03-28T16:34:03Z</time></trkpt><trkpt lat="44.047699558558826" lon="12.090080869166517"><ele>238.6</ele><time>2026-03-28T16:34:04Z</time></trkpt><trkpt lat="44.04780082345674" lon="12.09005837227517"><ele>239.0</ele><time>2026-03-28T16:34:05Z</time></trkpt><trkpt lat="44.047916392339616" lon="12.090050134229815"><ele>239.0</ele><time>2026-03-28T16:34:06Z</time></trkpt><trkpt lat="44.048027235244106" lon="12.090033765158669"><ele>238.99999999999997</ele><time>2026-03-28T16:34:07Z</time></trkpt><trkpt lat="44.04813085819059" lon="12.09001557460848"><ele>238.99999999999997</ele><time>2026-03-28T16:34:08Z</time></trkpt><trkpt lat="44.04822369845266" lon="12.089997611708627"><ele>239.0</ele><time>2026-03-28T16:34:09Z</time></trkpt><trkpt lat="44.0483197519647" lon="12.08996347584373"><ele>239.0</ele><time>2026-03-28T16:34:10Z</time></trkpt><trkpt lat="44.04840386485823" lon="12.0899072694361"><ele>236.6</ele><time>2026-03-28T16:34:11Z</time></trkpt><trkpt lat="44.04849299594001" lon="12.089833562614453"><ele>234.2</ele><time>2026-03-28T16:34:12Z</time></trkpt><trkpt lat="44.04858300983362" lon="12.089753243866975"><ele>231.79999999999998</ele><time>2026-03-28T16:34:13Z</time></trkpt><trkpt lat="44.04868785154882" lon="12.089679378813791"><ele>229.39999999999998</ele><time>2026-03-28T16:34:14Z</time></trkpt><trkpt lat="44.04878439182757" lon="12.089588233546184"><ele>227.0</ele><time>2026-03-28T16:34:15Z</time></trkpt><trkpt lat="44.04888283572264" lon="12.089495875962886"><ele>227.0</ele><time>2026-03-28T16:34:16Z</time></trkpt><trkpt lat="44.04898549334174" lon="12.089402057142484"><ele>227.0</ele><time>2026-03-28T16:34:17Z</time></trkpt><trkpt lat="44.049073383480106" lon="12.089321733605349"><ele>227.0</ele><time>2026-03-28T16:34:18Z</time></trkpt><trkpt lat="44.04916507988699" lon="12.089237932448592"><ele>227.0</ele><time>2026-03-28T16:34:19Z</time></trkpt><trkpt lat="44.04925459875212" lon="12.08915299396466"><ele>227.0</ele><time>2026-03-28T16:34:20Z</time></trkpt><trkpt lat="44.04932717796904" lon="12.08903953977098"><ele>226.39999999999998</ele><time>2026-03-28T16:34:21Z</time></trkpt><trkpt lat="44.04939031467359" lon="12.088922054331022"><ele>225.79999999999998</ele><time>2026-03-28T16:34:22Z</time></trkpt><trkpt lat="44.04943528986359" lon="12.088781636184395"><ele>225.2</ele><time>2026-03-28T16:34:23Z</time></trkpt><trkpt lat="44.0494741039128" lon="12.08864483301196"><ele>224.6</ele><time>2026-03-28T16:34:24Z</time></trkpt><trkpt lat="44.049533782433" lon="12.08850902317224"><ele>224.0</ele><time>2026-03-28T16:34:25Z</time></trkpt><trkpt lat="44.04958145526837" lon="12.088357235675298"><ele>221.79999999999998</ele><time>2026-03-28T16:34:26Z</time></trkpt><trkpt lat="44.0496302076227" lon="12.088207128306966"><ele>219.59999999999997</ele><time>2026-03-28T16:34:27Z</time></trkpt><trkpt lat="44.049665727426074" lon="12.088058567164547"><ele>217.4</ele><time>2026-03-28T16:34:28Z</time></trkpt><trkpt lat="44.049734184468825" lon="12.087958897615037"><ele>215.2</ele><time>2026-03-28T16:34:29Z</time></trkpt><trkpt lat="44.04979658912149" lon="12.087884486186145"><ele>213.0</ele><time>2026-03-28T16:34:30Z</time></trkpt><trkpt lat="44.04987207591178" lon="12.087850464330968"><ele>213.0</ele><time>2026-03-28T16:34:31Z</time></trkpt><trkpt lat="44.04995592999683" lon="12.087839071626268"><ele>213.0</ele><time>2026-03-28T16:34:32Z</time></trkpt><trkpt lat="44.05004146847913" lon="12.08783781682099"><ele>213.0</ele><time>2026-03-28T16:34:33Z</time></trkpt><trkpt lat="44.050122672350106" lon="12.087874791086259"><ele>213.0</ele><time>2026-03-28T16:34:34Z</time></trkpt><trkpt lat="44.05019317694066" lon="12.087924425394872"><ele>213.0</ele><time>2026-03-28T16:34:35Z</time></trkpt><trkpt lat="44.05026813049812" lon="12.08799678203615"><ele>213.0</ele><time>2026-03-28T16:34:36Z</time></trkpt><trkpt lat="44.0503225040407" lon="12.088077251125851"><ele>213.66666666666666</ele><time>2026-03-28T16:34:37Z</time></trkpt><trkpt lat="44.05037684429642" lon="12.088174015720465"><ele>214.33333333333331</ele><time>2026-03-28T16:34:38Z</time></trkpt><trkpt lat="44.0504231468572" lon="12.088279112502434"><ele>215.0</ele><time>2026-03-28T16:34:39Z</time></trkpt><trkpt lat="44.05046843031385" lon="12.088367246128003"><ele>215.66666666666666</ele><time>2026-03-28T16:34:40Z</time></trkpt><trkpt lat="44.050511434397805" lon="12.088463578844694"><ele>216.33333333333331</ele><time>2026-03-28T16:34:41Z</time></trkpt><trkpt lat="44.050555021394416" lon="12.088559346352165"><ele>217.0</ele><time>2026-03-28T16:34:42Z</time></trkpt><trkpt lat="44.050602905585556" lon="12.088680952296448"><ele>215.66666666666666</ele><time>2026-03-28T16:34:43Z</time></trkpt><trkpt lat="44.050644155096776" lon="12.088812640569566"><ele>214.33333333333331</ele><time>2026-03-28T16:34:44Z</time></trkpt><trkpt lat="44.05068396375043" lon="12.088933286589626"><ele>213.0</ele><time>2026-03-28T16:34:45Z</time></trkpt><trkpt lat="44.05072139610812" lon="12.089018500268217"><ele>211.66666666666669</ele><time>2026-03-28T16:34:46Z</time></trkpt><trkpt lat="44.050779077715596" lon="12.089072271697935"><ele>210.33333333333334</ele><time>2026-03-28T16:34:47Z</time></trkpt><trkpt lat="44.050846525659686" lon="12.089081510220897"><ele>209.0</ele><time>2026-03-28T16:34:48Z</time></trkpt><trkpt lat="44.05096584228334" lon="12.089016695904105"><ele>209.0</ele><time>2026-03-28T16:34:50Z</time></trkpt><trkpt lat="44.05096923188441" lon="12.088855725297222"><ele>209.0</ele><time>2026-03-28T16:34:51Z</time></trkpt><trkpt lat="44.05094647498445" lon="12.088739475774602"><ele>209.0</ele><time>2026-03-28T16:34:52Z</time></trkpt><trkpt lat="44.05090076609992" lon="12.088626555134852"><ele>209.0</ele><time>2026-03-28T16:34:53Z</time></trkpt><trkpt lat="44.05088029151993" lon="12.088515645824875"><ele>209.0</ele><time>2026-03-28T16:34:54Z</time></trkpt><trkpt lat="44.050842757645185" lon="12.088402435805502"><ele>209.0</ele><time>2026-03-28T16:34:55Z</time></trkpt><trkpt lat="44.05080635293436" lon="12.088286896804485"><ele>209.0</ele><time>2026-03-28T16:34:56Z</time></trkpt><trkpt lat="44.05077804272914" lon="12.08814551590972"><ele>209.0</ele><time>2026-03-28T16:34:57Z</time></trkpt><trkpt lat="44.05076270265137" lon="12.088000786425985"><ele>209.0</ele><time>2026-03-28T16:34:58Z</time></trkpt><trkpt lat="44.05075100728088" lon="12.087862876289844"><ele>209.0</ele><time>2026-03-28T16:34:59Z</time></trkpt><trkpt lat="44.0507398465642" lon="12.08773045951116"><ele>208.39999999999998</ele><time>2026-03-28T16:35:00Z</time></trkpt><trkpt lat="44.05072689135592" lon="12.087596941115722"><ele>207.8</ele><time>2026-03-28T16:35:01Z</time></trkpt><trkpt lat="44.05071257750068" lon="12.087455662173333"><ele>207.2</ele><time>2026-03-28T16:35:02Z</time></trkpt><trkpt lat="44.05067747814755" lon="12.087327379991274"><ele>206.60000000000002</ele><time>2026-03-28T16:35:03Z</time></trkpt><trkpt lat="44.05066359705951" lon="12.087177825636168"><ele>206.0</ele><time>2026-03-28T16:35:04Z</time></trkpt><trkpt lat="44.05062497004603" lon="12.087042694477589"><ele>206.0</ele><time>2026-03-28T16:35:05Z</time></trkpt><trkpt lat="44.05055501157227" lon="12.086934977260054"><ele>206.0</ele><time>2026-03-28T16:35:06Z</time></trkpt><trkpt lat="44.05049713192107" lon="12.086826670882424"><ele>206.0</ele><time>2026-03-28T16:35:07Z</time></trkpt><trkpt lat="44.05044818645667" lon="12.086707375059513"><ele>206.0</ele><time>2026-03-28T16:35:08Z</time></trkpt><trkpt lat="44.05040174978079" lon="12.086611154829747"><ele>206.0</ele><time>2026-03-28T16:35:09Z</time></trkpt><trkpt lat="44.05037552002502" lon="12.086523354865445"><ele>203.60000000000002</ele><time>2026-03-28T16:35:10Z</time></trkpt><trkpt lat="44.050415305509766" lon="12.086369257025627"><ele>201.2</ele><time>2026-03-28T16:35:12Z</time></trkpt><trkpt lat="44.05047611151349" lon="12.0863396662247"><ele>198.8</ele><time>2026-03-28T16:35:13Z</time></trkpt><trkpt lat="44.05059552159115" lon="12.086367163427257"><ele>196.39999999999998</ele><time>2026-03-28T16:35:15Z</time></trkpt><trkpt lat="44.05063969616055" lon="12.086429585264119"><ele>194.0</ele><time>2026-03-28T16:35:16Z</time></trkpt><trkpt lat="44.05071381026302" lon="12.086555429707591"><ele>194.6</ele><time>2026-03-28T16:35:18Z</time></trkpt><trkpt lat="44.05078085269759" lon="12.086674909723007"><ele>195.2</ele><time>2026-03-28T16:35:20Z</time></trkpt><trkpt lat="44.050850690201614" lon="12.086821591504952"><ele>195.79999999999998</ele><time>2026-03-28T16:35:22Z</time></trkpt><trkpt lat="44.050918254358045" lon="12.086912737783203"><ele>196.39999999999998</ele><time>2026-03-28T16:35:23Z</time></trkpt><trkpt lat="44.050997251357515" lon="12.08699149863847"><ele>197.0</ele><time>2026-03-28T16:35:24Z</time></trkpt><trkpt lat="44.05108423095896" lon="12.087062274661491"><ele>197.00000000000003</ele><time>2026-03-28T16:35:25Z</time></trkpt><trkpt lat="44.05116903555699" lon="12.087129578694189"><ele>197.0</ele><time>2026-03-28T16:35:26Z</time></trkpt><trkpt lat="44.051247687696055" lon="12.087190453283227"><ele>197.0</ele><time>2026-03-28T16:35:27Z</time></trkpt><trkpt lat="44.05132348329487" lon="12.087250153836308"><ele>197.0</ele><time>2026-03-28T16:35:28Z</time></trkpt><trkpt lat="44.05139415279066" lon="12.087310558613842"><ele>197.00000000000003</ele><time>2026-03-28T16:35:29Z</time></trkpt><trkpt lat="44.05145200174567" lon="12.087401010013707"><ele>197.0</ele><time>2026-03-28T16:35:30Z</time></trkpt><trkpt lat="44.05148782592045" lon="12.087515863201343"><ele>199.0</ele><time>2026-03-28T16:35:31Z</time></trkpt><trkpt lat="44.05152256260299" lon="12.087645918013305"><ele>201.0</ele><time>2026-03-28T16:35:32Z</time></trkpt><trkpt lat="44.05158167211393" lon="12.08777177886167"><ele>203.0</ele><time>2026-03-28T16:35:33Z</time></trkpt><trkpt lat="44.05168395971516" lon="12.087878217220084"><ele>205.0</ele><time>2026-03-28T16:35:34Z</time></trkpt><trkpt lat="44.05179562642657" lon="12.08797612943024"><ele>202.6</ele><time>2026-03-28T16:35:35Z</time></trkpt><trkpt lat="44.0519008166314" lon="12.088080237854554"><ele>200.2</ele><time>2026-03-28T16:35:36Z</time></trkpt><trkpt lat="44.05197519266802" lon="12.088205462840484"><ele>197.8</ele><time>2026-03-28T16:35:37Z</time></trkpt><trkpt lat="44.052057237206704" lon="12.088299128456196"><ele>195.4</ele><time>2026-03-28T16:35:38Z</time></trkpt><trkpt lat="44.052109162037226" lon="12.088382294801796"><ele>193.0</ele><time>2026-03-28T16:35:39Z</time></trkpt><trkpt lat="44.052221070835564" lon="12.08842681012621"><ele>193.0</ele><time>2026-03-28T16:35:41Z</time></trkpt><trkpt lat="44.05232918273507" lon="12.088322263212275"><ele>193.0</ele><time>2026-03-28T16:35:43Z</time></trkpt><trkpt lat="44.05233097247867" lon="12.088201733750003"><ele>193.0</ele><time>2026-03-28T16:35:44Z</time></trkpt><trkpt lat="44.05227132735102" lon="12.088077524715093"><ele>193.0</ele><time>2026-03-28T16:35:45Z</time></trkpt><trkpt lat="44.052194299573664" lon="12.088004748286611"><ele>193.0</ele><time>2026-03-28T16:35:46Z</time></trkpt><trkpt lat="44.05211887606545" lon="12.087916776866802"><ele>191.60000000000002</ele><time>2026-03-28T16:35:47Z</time></trkpt><trkpt lat="44.05205105890294" lon="12.087825513142176"><ele>190.20000000000002</ele><time>2026-03-28T16:35:48Z</time></trkpt><trkpt lat="44.052019169206496" lon="12.087697019142785"><ele>188.8</ele><time>2026-03-28T16:35:49Z</time></trkpt><trkpt lat="44.05199808292268" lon="12.08755165369612"><ele>187.4</ele><time>2026-03-28T16:35:50Z</time></trkpt><trkpt lat="44.05199875635623" lon="12.08737694525064"><ele>186.0</ele><time>2026-03-28T16:35:51Z</time></trkpt><trkpt lat="44.05199849538859" lon="12.087171823591971"><ele>183.33333333333334</ele><time>2026-03-28T16:35:52Z</time></trkpt><trkpt lat="44.05199970284673" lon="12.086955147845348"><ele>180.66666666666669</ele><time>2026-03-28T16:35:53Z</time></trkpt><trkpt lat="44.05198446913648" lon="12.086737790754734"><ele>178.0</ele><time>2026-03-28T16:35:54Z</time></trkpt><trkpt lat="44.052000373415716" lon="12.086533472870476"><ele>176.0</ele><time>2026-03-28T16:35:55Z</time></trkpt><trkpt lat="44.051981952998766" lon="12.086346394013546"><ele>174.0</ele><time>2026-03-28T16:35:56Z</time></trkpt><trkpt lat="44.05196706994626" lon="12.086189749183191"><ele>172.0</ele><time>2026-03-28T16:35:57Z</time></trkpt><trkpt lat="44.051927316225886" lon="12.08605919622335"><ele>170.0</ele><time>2026-03-28T16:35:58Z</time></trkpt><trkpt lat="44.05186153080837" lon="12.085954164239933"><ele>170.0</ele><time>2026-03-28T16:35:59Z</time></trkpt><trkpt lat="44.0518080237913" lon="12.085840280602962"><ele>170.0</ele><time>2026-03-28T16:36:00Z</time></trkpt><trkpt lat="44.051771699913516" lon="12.085768654940082"><ele>170.0</ele><time>2026-03-28T16:36:01Z</time></trkpt><trkpt lat="44.051780067261916" lon="12.085669278926046"><ele>170.0</ele><time>2026-03-28T16:36:02Z</time></trkpt><trkpt lat="44.05182738259639" lon="12.085585063563272"><ele>170.0</ele><time>2026-03-28T16:36:03Z</time></trkpt><trkpt lat="44.0519066139301" lon="12.085573562899434"><ele>170.0</ele><time>2026-03-28T16:36:04Z</time></trkpt><trkpt lat="44.0519662456456" lon="12.085607572646177"><ele>170.0</ele><time>2026-03-28T16:36:05Z</time></trkpt><trkpt lat="44.052026592088154" lon="12.085679228101155"><ele>170.0</ele><time>2026-03-28T16:36:06Z</time></trkpt><trkpt lat="44.052085601632214" lon="12.085793818413084"><ele>170.0</ele><time>2026-03-28T16:36:07Z</time></trkpt><trkpt lat="44.052158917295806" lon="12.0859180011821"><ele>170.0</ele><time>2026-03-28T16:36:08Z</time></trkpt><trkpt lat="44.05223001743883" lon="12.086032472819188"><ele>170.0</ele><time>2026-03-28T16:36:09Z</time></trkpt><trkpt lat="44.05230930775275" lon="12.086131211960806"><ele>170.0</ele><time>2026-03-28T16:36:10Z</time></trkpt><trkpt lat="44.052349100978965" lon="12.08624373690242"><ele>170.0</ele><time>2026-03-28T16:36:11Z</time></trkpt><trkpt lat="44.05236741046322" lon="12.086363123669075"><ele>170.0</ele><time>2026-03-28T16:36:12Z</time></trkpt><trkpt lat="44.052376022182635" lon="12.086482522073348"><ele>170.0</ele><time>2026-03-28T16:36:13Z</time></trkpt><trkpt lat="44.05238562509905" lon="12.086598164908368"><ele>170.0</ele><time>2026-03-28T16:36:14Z</time></trkpt><trkpt lat="44.05241989346652" lon="12.086723391050143"><ele>170.0</ele><time>2026-03-28T16:36:15Z</time></trkpt><trkpt lat="44.052489710026954" lon="12.086844103019375"><ele>167.25</ele><time>2026-03-28T16:36:16Z</time></trkpt><trkpt lat="44.05257735283957" lon="12.086947652600143"><ele>164.5</ele><time>2026-03-28T16:36:17Z</time></trkpt><trkpt lat="44.05267521854662" lon="12.087055451843485"><ele>161.75</ele><time>2026-03-28T16:36:18Z</time></trkpt><trkpt lat="44.05276716817835" lon="12.087169534812867"><ele>159.0</ele><time>2026-03-28T16:36:19Z</time></trkpt><trkpt lat="44.052843782354245" lon="12.087278715298552"><ele>159.0</ele><time>2026-03-28T16:36:20Z</time></trkpt><trkpt lat="44.0529035534486" lon="12.087360265227655"><ele>159.0</ele><time>2026-03-28T16:36:21Z</time></trkpt><trkpt lat="44.05295962720695" lon="12.087406613463598"><ele>159.0</ele><time>2026-03-28T16:36:22Z</time></trkpt><trkpt lat="44.053027108029845" lon="12.087417247589268"><ele>159.0</ele><time>2026-03-28T16:36:23Z</time></trkpt><trkpt lat="44.053093661350516" lon="12.08740714361772"><ele>159.0</ele><time>2026-03-28T16:36:24Z</time></trkpt><trkpt lat="44.05314354791955" lon="12.087310624169778"><ele>159.0</ele><time>2026-03-28T16:36:25Z</time></trkpt><trkpt lat="44.05313780053758" lon="12.087180426884899"><ele>159.0</ele><time>2026-03-28T16:36:26Z</time></trkpt><trkpt lat="44.053121999187155" lon="12.087061701369386"><ele>159.0</ele><time>2026-03-28T16:36:27Z</time></trkpt><trkpt lat="44.05303855847676" lon="12.086976113806347"><ele>159.0</ele><time>2026-03-28T16:36:28Z</time></trkpt><trkpt lat="44.052964815130906" lon="12.086894901969526"><ele>159.0</ele><time>2026-03-28T16:36:29Z</time></trkpt><trkpt lat="44.05293467221538" lon="12.086794987071272"><ele>159.0</ele><time>2026-03-28T16:36:30Z</time></trkpt><trkpt lat="44.05291051390081" lon="12.08670515499514"><ele>159.0</ele><time>2026-03-28T16:36:31Z</time></trkpt><trkpt lat="44.052925305086795" lon="12.086605037794158"><ele>158.2</ele><time>2026-03-28T16:36:32Z</time></trkpt><trkpt lat="44.05297551208892" lon="12.086509343965405"><ele>157.4</ele><time>2026-03-28T16:36:33Z</time></trkpt><trkpt lat="44.05303544396513" lon="12.08641891889944"><ele>156.6</ele><time>2026-03-28T16:36:34Z</time></trkpt><trkpt lat="44.053110289442934" lon="12.08631863030213"><ele>155.8</ele><time>2026-03-28T16:36:35Z</time></trkpt><trkpt lat="44.053185286639156" lon="12.086212341957037"><ele>155.0</ele><time>2026-03-28T16:36:36Z</time></trkpt><trkpt lat="44.0532418863306" lon="12.08611509926993"><ele>155.0</ele><time>2026-03-28T16:36:37Z</time></trkpt><trkpt lat="44.05328780665628" lon="12.0860027007493"><ele>155.0</ele><time>2026-03-28T16:36:38Z</time></trkpt><trkpt lat="44.05331452104464" lon="12.08588320593259"><ele>155.0</ele><time>2026-03-28T16:36:39Z</time></trkpt><trkpt lat="44.05332380264153" lon="12.085757746848273"><ele>155.0</ele><time>2026-03-28T16:36:40Z</time></trkpt><trkpt lat="44.05329022420253" lon="12.085620954497552"><ele>155.0</ele><time>2026-03-28T16:36:41Z</time></trkpt><trkpt lat="44.05324973202684" lon="12.08550077855602"><ele>153.33333333333331</ele><time>2026-03-28T16:36:42Z</time></trkpt><trkpt lat="44.05319360794201" lon="12.085411621642438"><ele>151.66666666666666</ele><time>2026-03-28T16:36:43Z</time></trkpt><trkpt lat="44.053128909049185" lon="12.085353132252013"><ele>150.0</ele><time>2026-03-28T16:36:44Z</time></trkpt><trkpt lat="44.053075612655036" lon="12.085268190887655"><ele>148.33333333333334</ele><time>2026-03-28T16:36:45Z</time></trkpt><trkpt lat="44.05299737449934" lon="12.085206979098958"><ele>146.66666666666669</ele><time>2026-03-28T16:36:46Z</time></trkpt><trkpt lat="44.052916115006106" lon="12.08510554722854"><ele>145.0</ele><time>2026-03-28T16:36:47Z</time></trkpt><trkpt lat="44.05284652122723" lon="12.085000560140445"><ele>142.6</ele><time>2026-03-28T16:36:48Z</time></trkpt><trkpt lat="44.05278905475931" lon="12.084923094041022"><ele>140.2</ele><time>2026-03-28T16:36:49Z</time></trkpt><trkpt lat="44.05274276130068" lon="12.084778510521609"><ele>137.8</ele><time>2026-03-28T16:36:51Z</time></trkpt><trkpt lat="44.05280320691315" lon="12.084641730781856"><ele>135.4</ele><time>2026-03-28T16:36:53Z</time></trkpt><trkpt lat="44.05288819511619" lon="12.084621586844953"><ele>133.0</ele><time>2026-03-28T16:36:54Z</time></trkpt><trkpt lat="44.05297513125609" lon="12.084697335169453"><ele>133.0</ele><time>2026-03-28T16:36:55Z</time></trkpt><trkpt lat="44.053022949519914" lon="12.084783298094731"><ele>133.0</ele><time>2026-03-28T16:36:56Z</time></trkpt><trkpt lat="44.05311448237822" lon="12.084872996359255"><ele>133.0</ele><time>2026-03-28T16:36:57Z</time></trkpt><trkpt lat="44.05322770141496" lon="12.0850244024204"><ele>133.0</ele><time>2026-03-28T16:36:58Z</time></trkpt><trkpt lat="44.0533231036466" lon="12.08514731625042"><ele>133.20000000000002</ele><time>2026-03-28T16:36:59Z</time></trkpt><trkpt lat="44.05338417309693" lon="12.085238638972497"><ele>133.4</ele><time>2026-03-28T16:37:00Z</time></trkpt><trkpt lat="44.05343149665872" lon="12.085360082287142"><ele>133.60000000000002</ele><time>2026-03-28T16:37:02Z</time></trkpt><trkpt lat="44.053493134925944" lon="12.085242926151116"><ele>133.8</ele><time>2026-03-28T16:37:09Z</time></trkpt><trkpt lat="44.053450036199294" lon="12.08513419644871"><ele>134.0</ele><time>2026-03-28T16:37:10Z</time></trkpt><trkpt lat="44.05339850107263" lon="12.085028509966346"><ele>133.83333333333331</ele><time>2026-03-28T16:37:11Z</time></trkpt><trkpt lat="44.0533466236898" lon="12.084922391736242"><ele>133.66666666666666</ele><time>2026-03-28T16:37:12Z</time></trkpt><trkpt lat="44.05329470878585" lon="12.084816743713162"><ele>133.5</ele><time>2026-03-28T16:37:13Z</time></trkpt><trkpt lat="44.05324559225955" lon="12.084712789969972"><ele>133.33333333333334</ele><time>2026-03-28T16:37:14Z</time></trkpt><trkpt lat="44.053188301846326" lon="12.08461981782135"><ele>133.16666666666669</ele><time>2026-03-28T16:37:15Z</time></trkpt><trkpt lat="44.05315331837804" lon="12.08451512564968"><ele>133.0</ele><time>2026-03-28T16:37:16Z</time></trkpt><trkpt lat="44.053105580210044" lon="12.084414219958418"><ele>133.0</ele><time>2026-03-28T16:37:17Z</time></trkpt><trkpt lat="44.05305770759199" lon="12.084330713189086"><ele>133.0</ele><time>2026-03-28T16:37:18Z</time></trkpt><trkpt lat="44.05299209231012" lon="12.08426979264722"><ele>133.0</ele><time>2026-03-28T16:37:19Z</time></trkpt><trkpt lat="44.05293706202052" lon="12.08418400572325"><ele>133.0</ele><time>2026-03-28T16:37:20Z</time></trkpt><trkpt lat="44.05288011515351" lon="12.084074448373553"><ele>133.0</ele><time>2026-03-28T16:37:21Z</time></trkpt><trkpt lat="44.052791392726284" lon="12.083914027587129"><ele>131.0</ele><time>2026-03-28T16:37:22Z</time></trkpt><trkpt lat="44.05271717955829" lon="12.08370913963142"><ele>129.0</ele><time>2026-03-28T16:37:23Z</time></trkpt><trkpt lat="44.052634084482264" lon="12.083512179130016"><ele>127.0</ele><time>2026-03-28T16:37:24Z</time></trkpt><trkpt lat="44.052572452053596" lon="12.083328086074925"><ele>127.0</ele><time>2026-03-28T16:37:25Z</time></trkpt><trkpt lat="44.0525119798399" lon="12.083157936660106"><ele>127.0</ele><time>2026-03-28T16:37:26Z</time></trkpt><trkpt lat="44.05244754770004" lon="12.082986920485917"><ele>127.0</ele><time>2026-03-28T16:37:27Z</time></trkpt><trkpt lat="44.05237205439067" lon="12.08280923100866"><ele>127.0</ele><time>2026-03-28T16:37:28Z</time></trkpt><trkpt lat="44.05227169177332" lon="12.082643340888518"><ele>127.0</ele><time>2026-03-28T16:37:29Z</time></trkpt><trkpt lat="44.05215319800149" lon="12.082492003066655"><ele>127.0</ele><time>2026-03-28T16:37:30Z</time></trkpt><trkpt lat="44.05202616564523" lon="12.082369296728105"><ele>127.0</ele><time>2026-03-28T16:37:31Z</time></trkpt><trkpt lat="44.05188326650177" lon="12.082286758289184"><ele>127.25</ele><time>2026-03-28T16:37:32Z</time></trkpt><trkpt lat="44.051740047143234" lon="12.082222146320765"><ele>127.5</ele><time>2026-03-28T16:37:33Z</time></trkpt><trkpt lat="44.05161244020958" lon="12.08212133767429"><ele>127.75</ele><time>2026-03-28T16:37:34Z</time></trkpt><trkpt lat="44.05148234401465" lon="12.0820424464515"><ele>128.0</ele><time>2026-03-28T16:37:35Z</time></trkpt><trkpt lat="44.05138923345791" lon="12.081982441608902"><ele>127.66666666666666</ele><time>2026-03-28T16:37:36Z</time></trkpt><trkpt lat="44.05135172687149" lon="12.081911036667945"><ele>127.33333333333333</ele><time>2026-03-28T16:37:37Z</time></trkpt><trkpt lat="44.051327899363855" lon="12.081738016547606"><ele>127.0</ele><time>2026-03-28T16:37:39Z</time></trkpt><trkpt lat="44.051332277282626" lon="12.081605194785537"><ele>126.66666666666666</ele><time>2026-03-28T16:37:40Z</time></trkpt><trkpt lat="44.05130965579037" lon="12.081472868597102"><ele>126.33333333333333</ele><time>2026-03-28T16:37:41Z</time></trkpt><trkpt lat="44.051313049175185" lon="12.081382431382501"><ele>126.0</ele><time>2026-03-28T16:37:42Z</time></trkpt><trkpt lat="44.05138208484011" lon="12.08127364998051"><ele>127.83333333333333</ele><time>2026-03-28T16:37:44Z</time></trkpt><trkpt lat="44.05149315519893" lon="12.081310683852045"><ele>129.66666666666666</ele><time>2026-03-28T16:37:46Z</time></trkpt><trkpt lat="44.0515638380616" lon="12.081401069635051"><ele>131.5</ele><time>2026-03-28T16:37:47Z</time></trkpt><trkpt lat="44.05162302938739" lon="12.081504917288242"><ele>133.33333333333331</ele><time>2026-03-28T16:37:48Z</time></trkpt><trkpt lat="44.05169010753152" lon="12.081547170268262"><ele>135.16666666666666</ele><time>2026-03-28T16:37:49Z</time></trkpt><trkpt lat="44.05175917420457" lon="12.081528218798788"><ele>137.0</ele><time>2026-03-28T16:37:50Z</time></trkpt><trkpt lat="44.05181185497174" lon="12.081466675592116"><ele>138.6</ele><time>2026-03-28T16:37:51Z</time></trkpt><trkpt lat="44.05182286764438" lon="12.08128353803363"><ele>140.2</ele><time>2026-03-28T16:37:53Z</time></trkpt><trkpt lat="44.05174941801623" lon="12.081193710809929"><ele>141.8</ele><time>2026-03-28T16:37:54Z</time></trkpt><trkpt lat="44.05169867045386" lon="12.081099763360482"><ele>143.4</ele><time>2026-03-28T16:37:55Z</time></trkpt><trkpt lat="44.051627358514445" lon="12.080964755562931"><ele>145.0</ele><time>2026-03-28T16:37:57Z</time></trkpt><trkpt lat="44.05166421500584" lon="12.080859444109525"><ele>145.0</ele><time>2026-03-28T16:37:59Z</time></trkpt><trkpt lat="44.05176867335082" lon="12.080849115035011"><ele>145.0</ele><time>2026-03-28T16:38:00Z</time></trkpt><trkpt lat="44.05185272731391" lon="12.080887663053565"><ele>145.0</ele><time>2026-03-28T16:38:01Z</time></trkpt><trkpt lat="44.05194416352451" lon="12.08096336435833"><ele>145.0</ele><time>2026-03-28T16:38:02Z</time></trkpt><trkpt lat="44.05204486829506" lon="12.081001885569977"><ele>145.0</ele><time>2026-03-28T16:38:03Z</time></trkpt><trkpt lat="44.05215672021444" lon="12.080986962043786"><ele>145.0</ele><time>2026-03-28T16:38:04Z</time></trkpt><trkpt lat="44.052248561057944" lon="12.080928717895816"><ele>145.0</ele><time>2026-03-28T16:38:05Z</time></trkpt><trkpt lat="44.052329848459316" lon="12.080823130239061"><ele>145.0</ele><time>2026-03-28T16:38:06Z</time></trkpt><trkpt lat="44.052390187338986" lon="12.08069746121426"><ele>145.0</ele><time>2026-03-28T16:38:07Z</time></trkpt><trkpt lat="44.0524762032417" lon="12.08062166697328"><ele>145.0</ele><time>2026-03-28T16:38:08Z</time></trkpt><trkpt lat="44.052547386639915" lon="12.08051480768452"><ele>148.25</ele><time>2026-03-28T16:38:09Z</time></trkpt><trkpt lat="44.05261902739892" lon="12.080406658181568"><ele>151.5</ele><time>2026-03-28T16:38:10Z</time></trkpt><trkpt lat="44.052664703339" lon="12.080258758457783"><ele>154.75</ele><time>2026-03-28T16:38:11Z</time></trkpt><trkpt lat="44.05267619042944" lon="12.08009021589309"><ele>158.0</ele><time>2026-03-28T16:38:12Z</time></trkpt><trkpt lat="44.052681206936306" lon="12.079934201723882"><ele>159.0</ele><time>2026-03-28T16:38:13Z</time></trkpt><trkpt lat="44.05267175593866" lon="12.079799644336223"><ele>160.0</ele><time>2026-03-28T16:38:14Z</time></trkpt><trkpt lat="44.05265178076404" lon="12.079684191581821"><ele>161.0</ele><time>2026-03-28T16:38:15Z</time></trkpt><trkpt lat="44.05261770855471" lon="12.079591642019848"><ele>162.0</ele><time>2026-03-28T16:38:16Z</time></trkpt><trkpt lat="44.05255886674298" lon="12.079532216949575"><ele>163.0</ele><time>2026-03-28T16:38:17Z</time></trkpt><trkpt lat="44.05248783194767" lon="12.079525129977972"><ele>164.0</ele><time>2026-03-28T16:38:18Z</time></trkpt><trkpt lat="44.05237443181889" lon="12.079704819239026"><ele>164.0</ele><time>2026-03-28T16:38:20Z</time></trkpt><trkpt lat="44.05235529665142" lon="12.079840762295746"><ele>164.0</ele><time>2026-03-28T16:38:21Z</time></trkpt><trkpt lat="44.052343461618754" lon="12.079969382398914"><ele>164.0</ele><time>2026-03-28T16:38:22Z</time></trkpt><trkpt lat="44.05231160785053" lon="12.080058205093136"><ele>164.0</ele><time>2026-03-28T16:38:23Z</time></trkpt><trkpt lat="44.052253748836804" lon="12.080100038066988"><ele>164.0</ele><time>2026-03-28T16:38:24Z</time></trkpt><trkpt lat="44.05218195410322" lon="12.080063008871956"><ele>164.0</ele><time>2026-03-28T16:38:25Z</time></trkpt><trkpt lat="44.05212215076548" lon="12.080026819014194"><ele>164.0</ele><time>2026-03-28T16:38:26Z</time></trkpt><trkpt lat="44.052056818974066" lon="12.079943789207398"><ele>164.0</ele><time>2026-03-28T16:38:27Z</time></trkpt><trkpt lat="44.05198579704493" lon="12.079853258108585"><ele>164.0</ele><time>2026-03-28T16:38:28Z</time></trkpt><trkpt lat="44.05191706385376" lon="12.079767849756836"><ele>164.0</ele><time>2026-03-28T16:38:29Z</time></trkpt><trkpt lat="44.05185477188002" lon="12.079679690820056"><ele>164.0</ele><time>2026-03-28T16:38:30Z</time></trkpt><trkpt lat="44.05182488239596" lon="12.079591248510733"><ele>164.0</ele><time>2026-03-28T16:38:31Z</time></trkpt><trkpt lat="44.05182185570062" lon="12.079482776087449"><ele>166.79999999999998</ele><time>2026-03-28T16:38:32Z</time></trkpt><trkpt lat="44.051857485779124" lon="12.079388463324838"><ele>169.6</ele><time>2026-03-28T16:38:33Z</time></trkpt><trkpt lat="44.051896156329356" lon="12.079281534850427"><ele>172.4</ele><time>2026-03-28T16:38:34Z</time></trkpt><trkpt lat="44.05195334725625" lon="12.079127650601697"><ele>175.2</ele><time>2026-03-28T16:38:35Z</time></trkpt><trkpt lat="44.05200989889513" lon="12.078968168459852"><ele>178.0</ele><time>2026-03-28T16:38:36Z</time></trkpt><trkpt lat="44.05204382500119" lon="12.07881529209555"><ele>179.83333333333334</ele><time>2026-03-28T16:38:37Z</time></trkpt><trkpt lat="44.052074664978974" lon="12.078695388358712"><ele>181.66666666666669</ele><time>2026-03-28T16:38:38Z</time></trkpt><trkpt lat="44.05209098317245" lon="12.078590433091989"><ele>183.5</ele><time>2026-03-28T16:38:39Z</time></trkpt><trkpt lat="44.052063585456374" lon="12.07844883416825"><ele>185.33333333333334</ele><time>2026-03-28T16:38:41Z</time></trkpt><trkpt lat="44.05200416633838" lon="12.078408116029987"><ele>187.16666666666666</ele><time>2026-03-28T16:38:42Z</time></trkpt><trkpt lat="44.051926717763465" lon="12.07841087361319"><ele>189.0</ele><time>2026-03-28T16:38:43Z</time></trkpt><trkpt lat="44.051843421510746" lon="12.07848323823296"><ele>189.0</ele><time>2026-03-28T16:38:44Z</time></trkpt><trkpt lat="44.05176202716783" lon="12.078582747414067"><ele>189.0</ele><time>2026-03-28T16:38:45Z</time></trkpt><trkpt lat="44.05168189322604" lon="12.078671144214962"><ele>189.0</ele><time>2026-03-28T16:38:46Z</time></trkpt><trkpt lat="44.051601829615976" lon="12.078761055706734"><ele>189.0</ele><time>2026-03-28T16:38:47Z</time></trkpt><trkpt lat="44.05152137836712" lon="12.078816164603204"><ele>189.0</ele><time>2026-03-28T16:38:48Z</time></trkpt><trkpt lat="44.05144588980758" lon="12.078831042210172"><ele>190.39999999999998</ele><time>2026-03-28T16:38:49Z</time></trkpt><trkpt lat="44.05137828408459" lon="12.07880923855509"><ele>191.8</ele><time>2026-03-28T16:38:50Z</time></trkpt><trkpt lat="44.05134354516904" lon="12.078723815065608"><ele>193.2</ele><time>2026-03-28T16:38:51Z</time></trkpt><trkpt lat="44.0513187014365" lon="12.078574414938966"><ele>194.60000000000002</ele><time>2026-03-28T16:38:53Z</time></trkpt><trkpt lat="44.0514410220423" lon="12.07850086753921"><ele>196.0</ele><time>2026-03-28T16:38:54Z</time></trkpt><trkpt lat="44.051514360645164" lon="12.07840595382539"><ele>196.0</ele><time>2026-03-28T16:38:55Z</time></trkpt><trkpt lat="44.05154643863758" lon="12.078287540034147"><ele>196.0</ele><time>2026-03-28T16:38:56Z</time></trkpt><trkpt lat="44.05155895826155" lon="12.078150367629405"><ele>196.0</ele><time>2026-03-28T16:38:57Z</time></trkpt><trkpt lat="44.051564221846874" lon="12.077969088183307"><ele>196.0</ele><time>2026-03-28T16:38:58Z</time></trkpt><trkpt lat="44.05156973533692" lon="12.077772937375702"><ele>199.75</ele><time>2026-03-28T16:38:59Z</time></trkpt><trkpt lat="44.05158431598295" lon="12.077577542937773"><ele>203.5</ele><time>2026-03-28T16:39:00Z</time></trkpt><trkpt lat="44.05158165607525" lon="12.077365010861202"><ele>207.25</ele><time>2026-03-28T16:39:01Z</time></trkpt><trkpt lat="44.05158235247048" lon="12.07716183251535"><ele>211.0</ele><time>2026-03-28T16:39:02Z</time></trkpt><trkpt lat="44.05158329305323" lon="12.076963187494577"><ele>212.4</ele><time>2026-03-28T16:39:03Z</time></trkpt><trkpt lat="44.051582237705254" lon="12.076773940153947"><ele>213.8</ele><time>2026-03-28T16:39:04Z</time></trkpt><trkpt lat="44.05157143027497" lon="12.076621432500783"><ele>215.20000000000002</ele><time>2026-03-28T16:39:05Z</time></trkpt><trkpt lat="44.05155543760565" lon="12.076499308384852"><ele>216.60000000000002</ele><time>2026-03-28T16:39:06Z</time></trkpt><trkpt lat="44.05151906964884" lon="12.076403867200561"><ele>218.0</ele><time>2026-03-28T16:39:07Z</time></trkpt><trkpt lat="44.0514578646488" lon="12.07633255364999"><ele>218.0</ele><time>2026-03-28T16:39:08Z</time></trkpt><trkpt lat="44.051381872326665" lon="12.076305882711061"><ele>218.0</ele><time>2026-03-28T16:39:09Z</time></trkpt><trkpt lat="44.05129153268236" lon="12.076385484250341"><ele>218.0</ele><time>2026-03-28T16:39:10Z</time></trkpt><trkpt lat="44.05121643385619" lon="12.076464357550858"><ele>218.0</ele><time>2026-03-28T16:39:11Z</time></trkpt><trkpt lat="44.051127480628374" lon="12.076576642545934"><ele>218.0</ele><time>2026-03-28T16:39:12Z</time></trkpt><trkpt lat="44.051032175992006" lon="12.07670402007897"><ele>218.0</ele><time>2026-03-28T16:39:13Z</time></trkpt><trkpt lat="44.05093746067962" lon="12.076816947740332"><ele>218.0</ele><time>2026-03-28T16:39:14Z</time></trkpt><trkpt lat="44.05083906031653" lon="12.076927845485532"><ele>218.0</ele><time>2026-03-28T16:39:15Z</time></trkpt><trkpt lat="44.05074189513144" lon="12.07702548844148"><ele>218.0</ele><time>2026-03-28T16:39:16Z</time></trkpt><trkpt lat="44.05065923130078" lon="12.077088841489765"><ele>218.2</ele><time>2026-03-28T16:39:17Z</time></trkpt><trkpt lat="44.050584587050494" lon="12.077117687735296"><ele>218.4</ele><time>2026-03-28T16:39:18Z</time></trkpt><trkpt lat="44.05050403261658" lon="12.077068948845048"><ele>218.59999999999997</ele><time>2026-03-28T16:39:19Z</time></trkpt><trkpt lat="44.05043134862951" lon="12.077009962036652"><ele>218.79999999999998</ele><time>2026-03-28T16:39:20Z</time></trkpt><trkpt lat="44.05037018523919" lon="12.076908011439233"><ele>219.0</ele><time>2026-03-28T16:39:21Z</time></trkpt><trkpt lat="44.05031438780463" lon="12.07676493869961"><ele>221.5</ele><time>2026-03-28T16:39:22Z</time></trkpt><trkpt lat="44.050263573184395" lon="12.076594951879573"><ele>224.0</ele><time>2026-03-28T16:39:23Z</time></trkpt><trkpt lat="44.05021005551946" lon="12.076401178138347"><ele>226.5</ele><time>2026-03-28T16:39:24Z</time></trkpt><trkpt lat="44.050152899046836" lon="12.076194228881384"><ele>229.0</ele><time>2026-03-28T16:39:25Z</time></trkpt><trkpt lat="44.050098159426554" lon="12.075996030803864"><ele>229.0</ele><time>2026-03-28T16:39:26Z</time></trkpt><trkpt lat="44.05005133960876" lon="12.075826501403581"><ele>229.0</ele><time>2026-03-28T16:39:27Z</time></trkpt><trkpt lat="44.05001000647078" lon="12.075676838666384"><ele>229.0</ele><time>2026-03-28T16:39:28Z</time></trkpt><trkpt lat="44.04996752243133" lon="12.075528806729647"><ele>229.0</ele><time>2026-03-28T16:39:29Z</time></trkpt><trkpt lat="44.049957054681016" lon="12.075371595567642"><ele>231.25</ele><time>2026-03-28T16:39:30Z</time></trkpt><trkpt lat="44.049960406825285" lon="12.075219902566118"><ele>233.5</ele><time>2026-03-28T16:39:31Z</time></trkpt><trkpt lat="44.0499798559501" lon="12.075063037722892"><ele>235.75</ele><time>2026-03-28T16:39:32Z</time></trkpt><trkpt lat="44.05000661894503" lon="12.074898894827562"><ele>238.0</ele><time>2026-03-28T16:39:33Z</time></trkpt><trkpt lat="44.050035594591506" lon="12.074735517931519"><ele>239.4</ele><time>2026-03-28T16:39:34Z</time></trkpt><trkpt lat="44.05006202443654" lon="12.074579989638188"><ele>240.8</ele><time>2026-03-28T16:39:35Z</time></trkpt><trkpt lat="44.050090121053515" lon="12.074435580679689"><ele>242.2</ele><time>2026-03-28T16:39:36Z</time></trkpt><trkpt lat="44.05011907626996" lon="12.074295813063028"><ele>243.6</ele><time>2026-03-28T16:39:37Z</time></trkpt><trkpt lat="44.050148701931" lon="12.074145045463284"><ele>245.0</ele><time>2026-03-28T16:39:38Z</time></trkpt><trkpt lat="44.050168391821664" lon="12.073984587767438"><ele>246.2</ele><time>2026-03-28T16:39:39Z</time></trkpt><trkpt lat="44.05016630784042" lon="12.073838058861751"><ele>247.4</ele><time>2026-03-28T16:39:40Z</time></trkpt><trkpt lat="44.050142397960116" lon="12.073718580423934"><ele>248.60000000000002</ele><time>2026-03-28T16:39:41Z</time></trkpt><trkpt lat="44.050091745892374" lon="12.073614671251136"><ele>249.8</ele><time>2026-03-28T16:39:42Z</time></trkpt><trkpt lat="44.05001882824534" lon="12.073535513660113"><ele>251.0</ele><time>2026-03-28T16:39:43Z</time></trkpt><trkpt lat="44.04994115863568" lon="12.073509681965495"><ele>253.8</ele><time>2026-03-28T16:39:44Z</time></trkpt><trkpt lat="44.04986544379411" lon="12.073540251061086"><ele>256.6</ele><time>2026-03-28T16:39:45Z</time></trkpt><trkpt lat="44.049790277985394" lon="12.073610065382443"><ele>259.4</ele><time>2026-03-28T16:39:46Z</time></trkpt><trkpt lat="44.04972274246577" lon="12.07371521326493"><ele>262.2</ele><time>2026-03-28T16:39:47Z</time></trkpt><trkpt lat="44.04965430352215" lon="12.073842684856483"><ele>265.0</ele><time>2026-03-28T16:39:48Z</time></trkpt><trkpt lat="44.049576372042054" lon="12.073948478764756"><ele>265.0</ele><time>2026-03-28T16:39:49Z</time></trkpt><trkpt lat="44.04951289208511" lon="12.074000348281295"><ele>265.0</ele><time>2026-03-28T16:39:50Z</time></trkpt><trkpt lat="44.04943322873338" lon="12.074013440525881"><ele>265.0</ele><time>2026-03-28T16:39:51Z</time></trkpt><trkpt lat="44.04933605754003" lon="12.073984426913087"><ele>265.0</ele><time>2026-03-28T16:39:52Z</time></trkpt><trkpt lat="44.04922743937654" lon="12.073917292574608"><ele>265.0</ele><time>2026-03-28T16:39:53Z</time></trkpt><trkpt lat="44.049101211415966" lon="12.073823897673828"><ele>267.0</ele><time>2026-03-28T16:39:54Z</time></trkpt><trkpt lat="44.0489665641403" lon="12.073734222428254"><ele>269.0</ele><time>2026-03-28T16:39:55Z</time></trkpt><trkpt lat="44.04881885430696" lon="12.073653274607116"><ele>271.0</ele><time>2026-03-28T16:39:56Z</time></trkpt><trkpt lat="44.04866687279015" lon="12.07358784235408"><ele>271.0</ele><time>2026-03-28T16:39:57Z</time></trkpt><trkpt lat="44.048492080664076" lon="12.073547240241888"><ele>271.0</ele><time>2026-03-28T16:39:58Z</time></trkpt><trkpt lat="44.0483079502316" lon="12.073524741662284"><ele>271.0</ele><time>2026-03-28T16:39:59Z</time></trkpt><trkpt lat="44.04815181455589" lon="12.073522511258684"><ele>271.0</ele><time>2026-03-28T16:40:00Z</time></trkpt><trkpt lat="44.048021922734456" lon="12.073529485631353"><ele>271.0</ele><time>2026-03-28T16:40:01Z</time></trkpt><trkpt lat="44.04789964363066" lon="12.073522513707845"><ele>271.0</ele><time>2026-03-28T16:40:02Z</time></trkpt><trkpt lat="44.047769912416605" lon="12.07348597360819"><ele>271.0</ele><time>2026-03-28T16:40:03Z</time></trkpt><trkpt lat="44.0476444558147" lon="12.073427869420614"><ele>271.0</ele><time>2026-03-28T16:40:04Z</time></trkpt><trkpt lat="44.04755007165408" lon="12.073370386743845"><ele>271.0</ele><time>2026-03-28T16:40:05Z</time></trkpt><trkpt lat="44.047492581965855" lon="12.073301148311971"><ele>271.0</ele><time>2026-03-28T16:40:06Z</time></trkpt><trkpt lat="44.04746612491112" lon="12.073200372406593"><ele>271.0</ele><time>2026-03-28T16:40:07Z</time></trkpt><trkpt lat="44.04751336845371" lon="12.073051983477876"><ele>271.0</ele><time>2026-03-28T16:40:09Z</time></trkpt><trkpt lat="44.047649128562675" lon="12.072984323939085"><ele>274.2</ele><time>2026-03-28T16:40:11Z</time></trkpt><trkpt lat="44.047747419274785" lon="12.073001299845762"><ele>277.40000000000003</ele><time>2026-03-28T16:40:12Z</time></trkpt><trkpt lat="44.0478614045109" lon="12.0730181044709"><ele>280.6</ele><time>2026-03-28T16:40:13Z</time></trkpt><trkpt lat="44.047969449781654" lon="12.073001777550893"><ele>283.8</ele><time>2026-03-28T16:40:14Z</time></trkpt><trkpt lat="44.04806912010524" lon="12.072953272233574"><ele>287.0</ele><time>2026-03-28T16:40:15Z</time></trkpt><trkpt lat="44.04818916133816" lon="12.072877959600143"><ele>286.6</ele><time>2026-03-28T16:40:16Z</time></trkpt><trkpt lat="44.04831459332323" lon="12.072793916632623"><ele>286.2</ele><time>2026-03-28T16:40:17Z</time></trkpt><trkpt lat="44.048407538725755" lon="12.072736612771243"><ele>285.8</ele><time>2026-03-28T16:40:18Z</time></trkpt><trkpt lat="44.04847936111358" lon="12.072673634250775"><ele>285.4</ele><time>2026-03-28T16:40:19Z</time></trkpt><trkpt lat="44.04851892393871" lon="12.072587557729742"><ele>285.0</ele><time>2026-03-28T16:40:20Z</time></trkpt><trkpt lat="44.04853299061022" lon="12.07246824966653"><ele>287.0</ele><time>2026-03-28T16:40:21Z</time></trkpt><trkpt lat="44.04851816743279" lon="12.072324227660076"><ele>289.0</ele><time>2026-03-28T16:40:22Z</time></trkpt><trkpt lat="44.04848143537894" lon="12.072153335828427"><ele>291.0</ele><time>2026-03-28T16:40:23Z</time></trkpt><trkpt lat="44.0484541246876" lon="12.071964637394998"><ele>293.0</ele><time>2026-03-28T16:40:24Z</time></trkpt><trkpt lat="44.04844687564993" lon="12.071802999225"><ele>293.0</ele><time>2026-03-28T16:40:25Z</time></trkpt><trkpt lat="44.04845765104092" lon="12.071664283126728"><ele>293.0</ele><time>2026-03-28T16:40:26Z</time></trkpt><trkpt lat="44.04848100457849" lon="12.071528597534387"><ele>293.0</ele><time>2026-03-28T16:40:27Z</time></trkpt><trkpt lat="44.04849302769909" lon="12.071408322075774"><ele>293.0</ele><time>2026-03-28T16:40:28Z</time></trkpt><trkpt lat="44.04847932531712" lon="12.071305487156677"><ele>293.0</ele><time>2026-03-28T16:40:29Z</time></trkpt><trkpt lat="44.048436637613364" lon="12.071237525416013"><ele>293.0</ele><time>2026-03-28T16:40:30Z</time></trkpt><trkpt lat="44.04837423516013" lon="12.071220194556442"><ele>294.2</ele><time>2026-03-28T16:40:31Z</time></trkpt><trkpt lat="44.04831459715311" lon="12.071260525021415"><ele>295.4</ele><time>2026-03-28T16:40:32Z</time></trkpt><trkpt lat="44.048260551864075" lon="12.071334872274951"><ele>296.59999999999997</ele><time>2026-03-28T16:40:33Z</time></trkpt><trkpt lat="44.048203596384546" lon="12.07144088692905"><ele>297.8</ele><time>2026-03-28T16:40:34Z</time></trkpt><trkpt lat="44.04814339626517" lon="12.071563822649042"><ele>299.0</ele><time>2026-03-28T16:40:35Z</time></trkpt><trkpt lat="44.04808249871646" lon="12.07170281496826"><ele>300.0</ele><time>2026-03-28T16:40:36Z</time></trkpt><trkpt lat="44.04802073575471" lon="12.071814532659117"><ele>301.0</ele><time>2026-03-28T16:40:37Z</time></trkpt><trkpt lat="44.04797058670024" lon="12.07187380162729"><ele>302.0</ele><time>2026-03-28T16:40:38Z</time></trkpt><trkpt lat="44.04790772066064" lon="12.071899186905988"><ele>303.0</ele><time>2026-03-28T16:40:39Z</time></trkpt><trkpt lat="44.047832327441476" lon="12.071892388012452"><ele>304.0</ele><time>2026-03-28T16:40:40Z</time></trkpt><trkpt lat="44.04774358081665" lon="12.071839503345636"><ele>305.0</ele><time>2026-03-28T16:40:41Z</time></trkpt><trkpt lat="44.04763854397089" lon="12.071752384267782"><ele>305.0</ele><time>2026-03-28T16:40:42Z</time></trkpt><trkpt lat="44.047556479905815" lon="12.07166809842921"><ele>305.0</ele><time>2026-03-28T16:40:43Z</time></trkpt><trkpt lat="44.04751951250291" lon="12.07158046134659"><ele>305.0</ele><time>2026-03-28T16:40:44Z</time></trkpt><trkpt lat="44.04749886010559" lon="12.07149428007151"><ele>305.0</ele><time>2026-03-28T16:40:45Z</time></trkpt><trkpt lat="44.04752438882958" lon="12.07139170535475"><ele>305.0</ele><time>2026-03-28T16:40:46Z</time></trkpt><trkpt lat="44.047579143889635" lon="12.071306632644585"><ele>305.0</ele><time>2026-03-28T16:40:47Z</time></trkpt><trkpt lat="44.04765421059293" lon="12.071239475152078"><ele>306.83333333333337</ele><time>2026-03-28T16:40:48Z</time></trkpt><trkpt lat="44.04773977617537" lon="12.071184515137816"><ele>308.6666666666667</ele><time>2026-03-28T16:40:49Z</time></trkpt><trkpt lat="44.04781030593403" lon="12.071113735229632"><ele>310.5</ele><time>2026-03-28T16:40:50Z</time></trkpt><trkpt lat="44.047856400276885" lon="12.071020237199695"><ele>312.3333333333333</ele><time>2026-03-28T16:40:51Z</time></trkpt><trkpt lat="44.04789754993291" lon="12.07090504029571"><ele>314.16666666666663</ele><time>2026-03-28T16:40:52Z</time></trkpt><trkpt lat="44.04792838238148" lon="12.070789666134264"><ele>316.0</ele><time>2026-03-28T16:40:53Z</time></trkpt><trkpt lat="44.04793981129997" lon="12.070690965688982"><ele>317.0</ele><time>2026-03-28T16:40:54Z</time></trkpt><trkpt lat="44.04792617092524" lon="12.07060118356255"><ele>318.0</ele><time>2026-03-28T16:40:55Z</time></trkpt><trkpt lat="44.04788170488883" lon="12.070527127201624"><ele>319.0</ele><time>2026-03-28T16:40:56Z</time></trkpt><trkpt lat="44.04781775975961" lon="12.070496925133368"><ele>320.0</ele><time>2026-03-28T16:40:57Z</time></trkpt><trkpt lat="44.04773742518346" lon="12.070503215418267"><ele>321.0</ele><time>2026-03-28T16:40:58Z</time></trkpt><trkpt lat="44.047654904759625" lon="12.07052818867242"><ele>322.0</ele><time>2026-03-28T16:40:59Z</time></trkpt><trkpt lat="44.047561180751046" lon="12.070549361690798"><ele>322.0</ele><time>2026-03-28T16:41:00Z</time></trkpt><trkpt lat="44.04746179437759" lon="12.070530899532825"><ele>322.0</ele><time>2026-03-28T16:41:01Z</time></trkpt><trkpt lat="44.047381303240634" lon="12.070470586430032"><ele>322.0</ele><time>2026-03-28T16:41:02Z</time></trkpt><trkpt lat="44.04732480349951" lon="12.070373692536045"><ele>322.0</ele><time>2026-03-28T16:41:03Z</time></trkpt><trkpt lat="44.04725132142941" lon="12.07023630592949"><ele>322.0</ele><time>2026-03-28T16:41:04Z</time></trkpt><trkpt lat="44.047166929151935" lon="12.070079614069064"><ele>325.5</ele><time>2026-03-28T16:41:05Z</time></trkpt><trkpt lat="44.04707829346785" lon="12.06994086439119"><ele>329.0</ele><time>2026-03-28T16:41:06Z</time></trkpt><trkpt lat="44.04696971123609" lon="12.069793422586134"><ele>332.5</ele><time>2026-03-28T16:41:07Z</time></trkpt><trkpt lat="44.04684740489414" lon="12.069646875080629"><ele>336.0</ele><time>2026-03-28T16:41:08Z</time></trkpt><trkpt lat="44.04672948059747" lon="12.069529213580122"><ele>339.5</ele><time>2026-03-28T16:41:09Z</time></trkpt><trkpt lat="44.046619038458466" lon="12.069432789321622"><ele>343.0</ele><time>2026-03-28T16:41:10Z</time></trkpt><trkpt lat="44.04651233292121" lon="12.069362573467512"><ele>346.5</ele><time>2026-03-28T16:41:11Z</time></trkpt><trkpt lat="44.0464134059394" lon="12.06932520282823"><ele>350.0</ele><time>2026-03-28T16:41:12Z</time></trkpt><trkpt lat="44.04631267339897" lon="12.069307903432614"><ele>350.0</ele><time>2026-03-28T16:41:13Z</time></trkpt><trkpt lat="44.046196369885436" lon="12.069306783385958"><ele>350.0</ele><time>2026-03-28T16:41:14Z</time></trkpt><trkpt lat="44.04609224357169" lon="12.069316310476882"><ele>350.0</ele><time>2026-03-28T16:41:15Z</time></trkpt><trkpt lat="44.046019053697016" lon="12.06933386982395"><ele>350.0</ele><time>2026-03-28T16:41:16Z</time></trkpt><trkpt lat="44.045939359869365" lon="12.06923904346445"><ele>350.0</ele><time>2026-03-28T16:41:18Z</time></trkpt><trkpt lat="44.04598176014566" lon="12.069127010578274"><ele>352.83333333333337</ele><time>2026-03-28T16:41:20Z</time></trkpt><trkpt lat="44.04604663084479" lon="12.069080059270632"><ele>355.6666666666667</ele><time>2026-03-28T16:41:21Z</time></trkpt><trkpt lat="44.04613855650274" lon="12.069020654960122"><ele>358.5</ele><time>2026-03-28T16:41:22Z</time></trkpt><trkpt lat="44.046234229752024" lon="12.068954348225743"><ele>361.3333333333333</ele><time>2026-03-28T16:41:23Z</time></trkpt><trkpt lat="44.04630920721612" lon="12.068899255446796"><ele>364.16666666666663</ele><time>2026-03-28T16:41:24Z</time></trkpt><trkpt lat="44.046370014003514" lon="12.06884769455181"><ele>367.0</ele><time>2026-03-28T16:41:25Z</time></trkpt><trkpt lat="44.04642044787931" lon="12.068717184206061"><ele>367.0</ele><time>2026-03-28T16:41:27Z</time></trkpt><trkpt lat="44.046399960154325" lon="12.06862310289206"><ele>367.0</ele><time>2026-03-28T16:41:28Z</time></trkpt><trkpt lat="44.04635817758593" lon="12.068529914205058"><ele>367.0</ele><time>2026-03-28T16:41:29Z</time></trkpt><trkpt lat="44.04632150993841" lon="12.068441274869004"><ele>367.0</ele><time>2026-03-28T16:41:30Z</time></trkpt><trkpt lat="44.04629794879124" lon="12.068358698053867"><ele>367.0</ele><time>2026-03-28T16:41:31Z</time></trkpt><trkpt lat="44.04622014233849" lon="12.068339883668235"><ele>367.0</ele><time>2026-03-28T16:41:33Z</time></trkpt><trkpt lat="44.04617333848814" lon="12.068405234321528"><ele>367.0</ele><time>2026-03-28T16:41:34Z</time></trkpt><trkpt lat="44.04613913279363" lon="12.068490136403218"><ele>367.0</ele><time>2026-03-28T16:41:35Z</time></trkpt><trkpt lat="44.04611846401538" lon="12.068586470254617"><ele>367.0</ele><time>2026-03-28T16:41:36Z</time></trkpt><trkpt lat="44.04609860666226" lon="12.068676904156831"><ele>367.0</ele><time>2026-03-28T16:41:37Z</time></trkpt><trkpt lat="44.04604767828366" lon="12.068767988629046"><ele>367.0</ele><time>2026-03-28T16:41:38Z</time></trkpt><trkpt lat="44.04596400541283" lon="12.068829922004003"><ele>367.0</ele><time>2026-03-28T16:41:39Z</time></trkpt><trkpt lat="44.045851368888854" lon="12.068853198383652"><ele>367.0</ele><time>2026-03-28T16:41:40Z</time></trkpt><trkpt lat="44.04571267303775" lon="12.06886006804854"><ele>367.0</ele><time>2026-03-28T16:41:41Z</time></trkpt><trkpt lat="44.0455778208697" lon="12.068853756981346"><ele>367.0</ele><time>2026-03-28T16:41:42Z</time></trkpt><trkpt lat="44.04547930581757" lon="12.06882716056871"><ele>367.0</ele><time>2026-03-28T16:41:43Z</time></trkpt><trkpt lat="44.04540032723742" lon="12.068787911801124"><ele>367.0</ele><time>2026-03-28T16:41:44Z</time></trkpt><trkpt lat="44.04534066636072" lon="12.068689339834622"><ele>367.0</ele><time>2026-03-28T16:41:45Z</time></trkpt><trkpt lat="44.04529587034241" lon="12.068554159624005"><ele>367.0</ele><time>2026-03-28T16:41:46Z</time></trkpt><trkpt lat="44.0452590198353" lon="12.068376972975337"><ele>367.0</ele><time>2026-03-28T16:41:47Z</time></trkpt><trkpt lat="44.04523588112275" lon="12.068193232487834"><ele>367.0</ele><time>2026-03-28T16:41:48Z</time></trkpt><trkpt lat="44.045209276156235" lon="12.067998618633432"><ele>367.0</ele><time>2026-03-28T16:41:49Z</time></trkpt><trkpt lat="44.04517998899218" lon="12.067799321307561"><ele>369.20000000000005</ele><time>2026-03-28T16:41:50Z</time></trkpt><trkpt lat="44.04515556982623" lon="12.067627950885136"><ele>371.4</ele><time>2026-03-28T16:41:51Z</time></trkpt><trkpt lat="44.04512770323213" lon="12.067478314783791"><ele>373.6</ele><time>2026-03-28T16:41:52Z</time></trkpt><trkpt lat="44.045112118872154" lon="12.067369698700585"><ele>375.79999999999995</ele><time>2026-03-28T16:41:53Z</time></trkpt><trkpt lat="44.04509196543927" lon="12.067222747810012"><ele>378.0</ele><time>2026-03-28T16:41:54Z</time></trkpt><trkpt lat="44.045060906263295" lon="12.067072661410824"><ele>378.0</ele><time>2026-03-28T16:41:55Z</time></trkpt><trkpt lat="44.04502340111674" lon="12.066936183838159"><ele>378.0</ele><time>2026-03-28T16:41:56Z</time></trkpt><trkpt lat="44.044974591332604" lon="12.066836186550981"><ele>378.0</ele><time>2026-03-28T16:41:57Z</time></trkpt><trkpt lat="44.04490228768873" lon="12.066765152214122"><ele>378.0</ele><time>2026-03-28T16:41:58Z</time></trkpt><trkpt lat="44.04480297193634" lon="12.066708914227553"><ele>378.0</ele><time>2026-03-28T16:41:59Z</time></trkpt><trkpt lat="44.04468700927281" lon="12.066692551809384"><ele>381.25</ele><time>2026-03-28T16:42:00Z</time></trkpt><trkpt lat="44.04455801615295" lon="12.066714962369174"><ele>384.5</ele><time>2026-03-28T16:42:01Z</time></trkpt><trkpt lat="44.04443603504171" lon="12.066775003157806"><ele>387.75</ele><time>2026-03-28T16:42:02Z</time></trkpt><trkpt lat="44.04430839767216" lon="12.066854496751821"><ele>391.0</ele><time>2026-03-28T16:42:03Z</time></trkpt><trkpt lat="44.044203774767475" lon="12.066909569153893"><ele>391.50000000000006</ele><time>2026-03-28T16:42:04Z</time></trkpt><trkpt lat="44.044114115227416" lon="12.066932198448706"><ele>392.0</ele><time>2026-03-28T16:42:05Z</time></trkpt><trkpt lat="44.044042803686985" lon="12.066923494582046"><ele>392.5</ele><time>2026-03-28T16:42:06Z</time></trkpt><trkpt lat="44.04397222516078" lon="12.066915698795269"><ele>393.0</ele><time>2026-03-28T16:42:07Z</time></trkpt><trkpt lat="44.04389674489662" lon="12.066903841449804"><ele>393.50000000000006</ele><time>2026-03-28T16:42:09Z</time></trkpt><trkpt lat="44.04383254407026" lon="12.066879542034219"><ele>394.0</ele><time>2026-03-28T16:43:11Z</time></trkpt><trkpt lat="44.043722731336146" lon="12.066805810624508"><ele>394.00000000000006</ele><time>2026-03-28T16:50:17Z</time></trkpt><trkpt lat="44.0436592557231" lon="12.066773271365383"><ele>394.0</ele><time>2026-03-28T16:50:18Z</time></trkpt><trkpt lat="44.04359271458102" lon="12.066741900595257"><ele>394.0</ele><time>2026-03-28T16:50:19Z</time></trkpt><trkpt lat="44.04351447955887" lon="12.066711134477247"><ele>394.0</ele><time>2026-03-28T16:50:20Z</time></trkpt><trkpt lat="44.043441980304074" lon="12.066677597909687"><ele>394.00000000000006</ele><time>2026-03-28T16:50:21Z</time></trkpt><trkpt lat="44.043353547518265" lon="12.06663602955447"><ele>394.0</ele><time>2026-03-28T16:50:22Z</time></trkpt><trkpt lat="44.043264402107745" lon="12.066597934145998"><ele>393.4</ele><time>2026-03-28T16:50:23Z</time></trkpt><trkpt lat="44.04317748969528" lon="12.066564755079957"><ele>392.79999999999995</ele><time>2026-03-28T16:50:24Z</time></trkpt><trkpt lat="44.0430906130534" lon="12.06649634568847"><ele>392.20000000000005</ele><time>2026-03-28T16:50:25Z</time></trkpt><trkpt lat="44.042998960942874" lon="12.066455937726028"><ele>391.6</ele><time>2026-03-28T16:50:26Z</time></trkpt><trkpt lat="44.04290729526292" lon="12.066414924138863"><ele>391.0</ele><time>2026-03-28T16:50:27Z</time></trkpt><trkpt lat="44.04281452244033" lon="12.066374170255674"><ele>391.0</ele><time>2026-03-28T16:50:28Z</time></trkpt><trkpt lat="44.042720533110554" lon="12.066340566150284"><ele>391.0</ele><time>2026-03-28T16:50:29Z</time></trkpt><trkpt lat="44.04262228640943" lon="12.066316817010387"><ele>391.0</ele><time>2026-03-28T16:50:30Z</time></trkpt><trkpt lat="44.04251787759559" lon="12.06630270461325"><ele>391.0</ele><time>2026-03-28T16:50:31Z</time></trkpt><trkpt lat="44.04241064809355" lon="12.066300918975838"><ele>391.0</ele><time>2026-03-28T16:50:32Z</time></trkpt><trkpt lat="44.04230269240464" lon="12.066323137534317"><ele>392.25</ele><time>2026-03-28T16:50:33Z</time></trkpt><trkpt lat="44.042188327965135" lon="12.066335363810696"><ele>393.5</ele><time>2026-03-28T16:50:34Z</time></trkpt><trkpt lat="44.042075476577914" lon="12.066349303480955"><ele>394.75</ele><time>2026-03-28T16:50:35Z</time></trkpt><trkpt lat="44.041958391156484" lon="12.06633997071042"><ele>396.0</ele><time>2026-03-28T16:50:36Z</time></trkpt><trkpt lat="44.04184061092394" lon="12.066353564917481"><ele>396.0</ele><time>2026-03-28T16:50:37Z</time></trkpt><trkpt lat="44.04171990456321" lon="12.066369885497153"><ele>396.0</ele><time>2026-03-28T16:50:38Z</time></trkpt><trkpt lat="44.04160139772255" lon="12.066377852355986"><ele>396.0</ele><time>2026-03-28T16:50:39Z</time></trkpt><trkpt lat="44.04148057450896" lon="12.066386919277035"><ele>396.0</ele><time>2026-03-28T16:50:40Z</time></trkpt><trkpt lat="44.041355881666675" lon="12.066393668724553"><ele>397.5</ele><time>2026-03-28T16:50:41Z</time></trkpt><trkpt lat="44.04123816543356" lon="12.066403309220929"><ele>399.0</ele><time>2026-03-28T16:50:42Z</time></trkpt><trkpt lat="44.0411208929298" lon="12.066376390028184"><ele>400.5</ele><time>2026-03-28T16:50:43Z</time></trkpt><trkpt lat="44.041001655323" lon="12.066359157541898"><ele>402.0</ele><time>2026-03-28T16:50:44Z</time></trkpt><trkpt lat="44.04088797921646" lon="12.066324286514641"><ele>403.75</ele><time>2026-03-28T16:50:45Z</time></trkpt><trkpt lat="44.040777870373084" lon="12.066271859469799"><ele>405.5</ele><time>2026-03-28T16:50:46Z</time></trkpt><trkpt lat="44.040672836682496" lon="12.066204218541072"><ele>407.25</ele><time>2026-03-28T16:50:47Z</time></trkpt><trkpt lat="44.040575165890324" lon="12.066126726323729"><ele>409.0</ele><time>2026-03-28T16:50:48Z</time></trkpt><trkpt lat="44.04047979551661" lon="12.066042468069883"><ele>409.0</ele><time>2026-03-28T16:50:49Z</time></trkpt><trkpt lat="44.04038228232547" lon="12.065951880536316"><ele>409.0</ele><time>2026-03-28T16:50:50Z</time></trkpt><trkpt lat="44.04028774575611" lon="12.065864058206198"><ele>409.0</ele><time>2026-03-28T16:50:51Z</time></trkpt><trkpt lat="44.04019537401361" lon="12.06577691887779"><ele>409.0</ele><time>2026-03-28T16:50:52Z</time></trkpt><trkpt lat="44.04010053386689" lon="12.065684765426731"><ele>409.79999999999995</ele><time>2026-03-28T16:50:53Z</time></trkpt><trkpt lat="44.04001285521693" lon="12.065598978153252"><ele>410.59999999999997</ele><time>2026-03-28T16:50:54Z</time></trkpt><trkpt lat="44.0399225342442" lon="12.06551074332403"><ele>411.4</ele><time>2026-03-28T16:50:55Z</time></trkpt><trkpt lat="44.039831150401646" lon="12.065423469202454"><ele>412.2</ele><time>2026-03-28T16:50:56Z</time></trkpt><trkpt lat="44.03974338965721" lon="12.06533965523497"><ele>413.0</ele><time>2026-03-28T16:50:57Z</time></trkpt><trkpt lat="44.0396472090494" lon="12.065247800093216"><ele>413.0</ele><time>2026-03-28T16:50:58Z</time></trkpt><trkpt lat="44.03956160450202" lon="12.065164176111274"><ele>413.0</ele><time>2026-03-28T16:50:59Z</time></trkpt><trkpt lat="44.039464817617265" lon="12.065067865486185"><ele>413.0</ele><time>2026-03-28T16:51:00Z</time></trkpt><trkpt lat="44.03936221618721" lon="12.06496576895551"><ele>413.0</ele><time>2026-03-28T16:51:01Z</time></trkpt><trkpt lat="44.03926291313877" lon="12.064864662354317"><ele>413.4</ele><time>2026-03-28T16:51:02Z</time></trkpt><trkpt lat="44.03916171448177" lon="12.064774063840856"><ele>413.79999999999995</ele><time>2026-03-28T16:51:03Z</time></trkpt><trkpt lat="44.039073783820804" lon="12.064680756637564"><ele>414.2</ele><time>2026-03-28T16:51:04Z</time></trkpt><trkpt lat="44.038993097029504" lon="12.064584804851561"><ele>414.6</ele><time>2026-03-28T16:51:05Z</time></trkpt><trkpt lat="44.038913463863416" lon="12.064498674972223"><ele>415.0</ele><time>2026-03-28T16:51:06Z</time></trkpt><trkpt lat="44.038829256790684" lon="12.064435901200737"><ele>417.2</ele><time>2026-03-28T16:51:07Z</time></trkpt><trkpt lat="44.03873329305895" lon="12.064392537694333"><ele>419.4</ele><time>2026-03-28T16:51:08Z</time></trkpt><trkpt lat="44.03863020605037" lon="12.064373712230166"><ele>421.6</ele><time>2026-03-28T16:51:09Z</time></trkpt><trkpt lat="44.03853128293985" lon="12.064362952379167"><ele>423.8</ele><time>2026-03-28T16:51:10Z</time></trkpt><trkpt lat="44.038433936150064" lon="12.064352316029305"><ele>426.0</ele><time>2026-03-28T16:51:11Z</time></trkpt><trkpt lat="44.03834548179904" lon="12.064328898464542"><ele>425.4</ele><time>2026-03-28T16:51:12Z</time></trkpt><trkpt lat="44.03827545703694" lon="12.0642882795688"><ele>424.8</ele><time>2026-03-28T16:51:13Z</time></trkpt><trkpt lat="44.038188914867845" lon="12.06421189476076"><ele>424.2</ele><time>2026-03-28T16:51:14Z</time></trkpt><trkpt lat="44.03812527683291" lon="12.064086278616498"><ele>423.59999999999997</ele><time>2026-03-28T16:51:15Z</time></trkpt><trkpt lat="44.03802858876748" lon="12.063968753078882"><ele>423.0</ele><time>2026-03-28T16:51:16Z</time></trkpt><trkpt lat="44.037943438807616" lon="12.063822114950703"><ele>425.5</ele><time>2026-03-28T16:51:17Z</time></trkpt><trkpt lat="44.03785590956078" lon="12.063660307212269"><ele>428.0</ele><time>2026-03-28T16:51:18Z</time></trkpt><trkpt lat="44.03776744049684" lon="12.063531511666016"><ele>430.5</ele><time>2026-03-28T16:51:19Z</time></trkpt><trkpt lat="44.0376959436145" lon="12.063419096814135"><ele>433.0</ele><time>2026-03-28T16:51:20Z</time></trkpt><trkpt lat="44.03762029075547" lon="12.06333036619805"><ele>432.59999999999997</ele><time>2026-03-28T16:51:21Z</time></trkpt><trkpt lat="44.03754758087684" lon="12.06326456074031"><ele>432.19999999999993</ele><time>2026-03-28T16:51:22Z</time></trkpt><trkpt lat="44.03746664725273" lon="12.06319526721902"><ele>431.8</ele><time>2026-03-28T16:51:23Z</time></trkpt><trkpt lat="44.03738579586551" lon="12.063138250594701"><ele>431.4</ele><time>2026-03-28T16:51:24Z</time></trkpt><trkpt lat="44.03730265050968" lon="12.063086163920543"><ele>431.0</ele><time>2026-03-28T16:51:25Z</time></trkpt><trkpt lat="44.03722127562531" lon="12.063046052102077"><ele>433.66666666666663</ele><time>2026-03-28T16:51:26Z</time></trkpt><trkpt lat="44.03713126436752" lon="12.063012929635542"><ele>436.3333333333333</ele><time>2026-03-28T16:51:27Z</time></trkpt><trkpt lat="44.03704310426291" lon="12.063002123040476"><ele>439.0</ele><time>2026-03-28T16:51:28Z</time></trkpt><trkpt lat="44.036960623358986" lon="12.063003977546737"><ele>441.66666666666663</ele><time>2026-03-28T16:51:29Z</time></trkpt><trkpt lat="44.036881985590014" lon="12.063023115594413"><ele>444.3333333333333</ele><time>2026-03-28T16:51:30Z</time></trkpt><trkpt lat="44.03678715376116" lon="12.063046185981873"><ele>447.0</ele><time>2026-03-28T16:51:31Z</time></trkpt><trkpt lat="44.036666595966246" lon="12.063062114678052"><ele>447.0</ele><time>2026-03-28T16:51:32Z</time></trkpt><trkpt lat="44.03654683113525" lon="12.06307594297509"><ele>447.00000000000006</ele><time>2026-03-28T16:51:33Z</time></trkpt><trkpt lat="44.03644668254908" lon="12.06307634927435"><ele>447.00000000000006</ele><time>2026-03-28T16:51:34Z</time></trkpt><trkpt lat="44.036351518993925" lon="12.063051211728757"><ele>447.0</ele><time>2026-03-28T16:51:35Z</time></trkpt><trkpt lat="44.036261781626244" lon="12.063002135600218"><ele>447.0</ele><time>2026-03-28T16:51:36Z</time></trkpt><trkpt lat="44.036167789244814" lon="12.062938998678653"><ele>447.0</ele><time>2026-03-28T16:51:37Z</time></trkpt><trkpt lat="44.03610209932504" lon="12.0628186268733"><ele>447.0</ele><time>2026-03-28T16:51:38Z</time></trkpt><trkpt lat="44.03602886493524" lon="12.062698225506749"><ele>447.0</ele><time>2026-03-28T16:51:39Z</time></trkpt><trkpt lat="44.03595737408753" lon="12.062551528999862"><ele>447.0</ele><time>2026-03-28T16:51:40Z</time></trkpt><trkpt lat="44.035868469886374" lon="12.062399115719243"><ele>444.33333333333337</ele><time>2026-03-28T16:51:41Z</time></trkpt><trkpt lat="44.03578298787462" lon="12.062227769596836"><ele>441.6666666666667</ele><time>2026-03-28T16:51:42Z</time></trkpt><trkpt lat="44.0356888860772" lon="12.062057009762272"><ele>439.0</ele><time>2026-03-28T16:51:43Z</time></trkpt><trkpt lat="44.035598665772156" lon="12.061877676992623"><ele>439.0</ele><time>2026-03-28T16:51:44Z</time></trkpt><trkpt lat="44.035509632823405" lon="12.061705722712027"><ele>439.0</ele><time>2026-03-28T16:51:45Z</time></trkpt><trkpt lat="44.035427848030324" lon="12.061545134410578"><ele>439.0</ele><time>2026-03-28T16:51:46Z</time></trkpt><trkpt lat="44.03533557767079" lon="12.061382756331128"><ele>439.0</ele><time>2026-03-28T16:51:47Z</time></trkpt><trkpt lat="44.0352434566857" lon="12.061202210489352"><ele>439.6666666666667</ele><time>2026-03-28T16:51:48Z</time></trkpt><trkpt lat="44.035130769919306" lon="12.061016491979204"><ele>440.33333333333337</ele><time>2026-03-28T16:51:49Z</time></trkpt><trkpt lat="44.03501400524247" lon="12.060831480635445"><ele>441.0</ele><time>2026-03-28T16:51:50Z</time></trkpt><trkpt lat="44.03489400316923" lon="12.060644747598792"><ele>442.33333333333337</ele><time>2026-03-28T16:51:51Z</time></trkpt><trkpt lat="44.03477515348954" lon="12.0604622773737"><ele>443.6666666666667</ele><time>2026-03-28T16:51:52Z</time></trkpt><trkpt lat="44.034654194053054" lon="12.060277150889037"><ele>445.0</ele><time>2026-03-28T16:51:53Z</time></trkpt><trkpt lat="44.03453578059946" lon="12.060093824721585"><ele>445.33333333333337</ele><time>2026-03-28T16:51:54Z</time></trkpt><trkpt lat="44.03442109818048" lon="12.059913572756987"><ele>445.66666666666663</ele><time>2026-03-28T16:51:55Z</time></trkpt><trkpt lat="44.0343127539849" lon="12.059734903141807"><ele>446.0</ele><time>2026-03-28T16:51:56Z</time></trkpt><trkpt lat="44.034220968695585" lon="12.059557067044054"><ele>446.0</ele><time>2026-03-28T16:51:57Z</time></trkpt><trkpt lat="44.034145775722884" lon="12.059386946791266"><ele>446.0</ele><time>2026-03-28T16:51:58Z</time></trkpt><trkpt lat="44.03408126529527" lon="12.059238883252144"><ele>446.0</ele><time>2026-03-28T16:51:59Z</time></trkpt><trkpt lat="44.03402002193871" lon="12.059108627386308"><ele>446.0</ele><time>2026-03-28T16:52:00Z</time></trkpt><trkpt lat="44.03396531557999" lon="12.058996523530684"><ele>450.6</ele><time>2026-03-28T16:52:01Z</time></trkpt><trkpt lat="44.03389632537749" lon="12.058935053978571"><ele>455.20000000000005</ele><time>2026-03-28T16:52:02Z</time></trkpt><trkpt lat="44.033785097523186" lon="12.0588877712319"><ele>459.79999999999995</ele><time>2026-03-28T16:52:04Z</time></trkpt><trkpt lat="44.03371625894956" lon="12.058896237878667"><ele>464.4</ele><time>2026-03-28T16:52:05Z</time></trkpt><trkpt lat="44.03363123367908" lon="12.058868973038026"><ele>469.0</ele><time>2026-03-28T16:52:06Z</time></trkpt><trkpt lat="44.03352216875988" lon="12.058845407723398"><ele>469.0</ele><time>2026-03-28T16:52:07Z</time></trkpt><trkpt lat="44.03340119660707" lon="12.058795865467324"><ele>469.0</ele><time>2026-03-28T16:52:08Z</time></trkpt><trkpt lat="44.033276061672446" lon="12.058724925709942"><ele>469.0</ele><time>2026-03-28T16:52:09Z</time></trkpt><trkpt lat="44.03316681619341" lon="12.058633556492902"><ele>469.0</ele><time>2026-03-28T16:52:10Z</time></trkpt><trkpt lat="44.033055813547" lon="12.058517272939845"><ele>469.75</ele><time>2026-03-28T16:52:11Z</time></trkpt><trkpt lat="44.03296869615377" lon="12.05837858703139"><ele>470.5</ele><time>2026-03-28T16:52:12Z</time></trkpt><trkpt lat="44.03290069873818" lon="12.05823344910024"><ele>471.25</ele><time>2026-03-28T16:52:13Z</time></trkpt><trkpt lat="44.03281666743864" lon="12.058049531530378"><ele>472.0</ele><time>2026-03-28T16:52:14Z</time></trkpt><trkpt lat="44.032732107893885" lon="12.057847471436311"><ele>472.0</ele><time>2026-03-28T16:52:15Z</time></trkpt><trkpt lat="44.0326544206783" lon="12.057667283986895"><ele>472.0</ele><time>2026-03-28T16:52:16Z</time></trkpt><trkpt lat="44.03257750834298" lon="12.057516694552666"><ele>472.0</ele><time>2026-03-28T16:52:17Z</time></trkpt><trkpt lat="44.03250588347709" lon="12.057421505575443"><ele>472.0</ele><time>2026-03-28T16:52:18Z</time></trkpt><trkpt lat="44.03244422037277" lon="12.057316727312243"><ele>472.00000000000006</ele><time>2026-03-28T16:52:20Z</time></trkpt><trkpt lat="44.03237977525667" lon="12.05729969625526"><ele>472.0</ele><time>2026-03-28T16:52:23Z</time></trkpt><trkpt lat="44.03244678610446" lon="12.057357419608097"><ele>472.0</ele><time>2026-03-28T16:52:29Z</time></trkpt><trkpt lat="44.0325236806388" lon="12.05731041650189"><ele>472.0</ele><time>2026-03-28T16:52:30Z</time></trkpt><trkpt lat="44.03260409833995" lon="12.057322895120341"><ele>472.00000000000006</ele><time>2026-03-28T16:52:31Z</time></trkpt><trkpt lat="44.03269444420691" lon="12.05737822367997"><ele>472.0</ele><time>2026-03-28T16:52:33Z</time></trkpt><trkpt lat="44.032712141119575" lon="12.057463817490769"><ele>472.0</ele><time>2026-03-28T16:52:40Z</time></trkpt><trkpt lat="44.03276199573094" lon="12.057535211546652"><ele>472.0</ele><time>2026-03-28T16:52:42Z</time></trkpt><trkpt lat="44.03280355962659" lon="12.057604548562836"><ele>472.0</ele><time>2026-03-28T16:52:45Z</time></trkpt><trkpt lat="44.0327532518493" lon="12.057522948664369"><ele>472.0</ele><time>2026-03-28T16:52:52Z</time></trkpt><trkpt lat="44.032709944234774" lon="12.057459110028804"><ele>472.0</ele><time>2026-03-28T16:52:57Z</time></trkpt><trkpt lat="44.03265081800377" lon="12.057377856933181"><ele>472.0</ele><time>2026-03-28T16:53:20Z</time></trkpt><trkpt lat="44.03257788621639" lon="12.05730631367772"><ele>472.0</ele><time>2026-03-28T16:53:22Z</time></trkpt><trkpt lat="44.03248473400297" lon="12.057372310020277"><ele>470.83333333333337</ele><time>2026-03-28T16:53:23Z</time></trkpt><trkpt lat="44.03239623633883" lon="12.057337872733063"><ele>469.6666666666667</ele><time>2026-03-28T16:53:25Z</time></trkpt><trkpt lat="44.032319348057314" lon="12.057309705160144"><ele>468.5</ele><time>2026-03-28T16:53:27Z</time></trkpt><trkpt lat="44.03224455576404" lon="12.057288623060176"><ele>467.33333333333337</ele><time>2026-03-28T16:53:29Z</time></trkpt><trkpt lat="44.03218379636328" lon="12.057263181146475"><ele>466.1666666666667</ele><time>2026-03-28T16:53:31Z</time></trkpt><trkpt lat="44.03207455406262" lon="12.05723468497888"><ele>465.0</ele><time>2026-03-28T16:55:00Z</time></trkpt><trkpt lat="44.03200371536845" lon="12.057207143224934"><ele>465.0</ele><time>2026-03-28T16:55:01Z</time></trkpt><trkpt lat="44.03190399779099" lon="12.057174452769745"><ele>465.0</ele><time>2026-03-28T16:55:02Z</time></trkpt><trkpt lat="44.03178073047413" lon="12.057107686726244"><ele>465.0</ele><time>2026-03-28T16:55:03Z</time></trkpt><trkpt lat="44.03165334788266" lon="12.057070102297788"><ele>465.0</ele><time>2026-03-28T16:55:04Z</time></trkpt><trkpt lat="44.031527729642065" lon="12.057037356556476"><ele>463.0</ele><time>2026-03-28T16:55:05Z</time></trkpt><trkpt lat="44.03141828244248" lon="12.05700815970466"><ele>461.0</ele><time>2026-03-28T16:55:06Z</time></trkpt><trkpt lat="44.03131116982585" lon="12.057008721383816"><ele>459.0</ele><time>2026-03-28T16:55:07Z</time></trkpt><trkpt lat="44.031211106633194" lon="12.057011147246902"><ele>457.0</ele><time>2026-03-28T16:55:08Z</time></trkpt><trkpt lat="44.03110247022002" lon="12.057039243764038"><ele>455.0</ele><time>2026-03-28T16:55:09Z</time></trkpt><trkpt lat="44.0309874043406" lon="12.057089980368028"><ele>455.0</ele><time>2026-03-28T16:55:10Z</time></trkpt><trkpt lat="44.030877341858385" lon="12.057147904351751"><ele>455.0</ele><time>2026-03-28T16:55:11Z</time></trkpt><trkpt lat="44.0307744744329" lon="12.057206397006725"><ele>455.0</ele><time>2026-03-28T16:55:12Z</time></trkpt><trkpt lat="44.030670223812635" lon="12.057258552925926"><ele>455.0</ele><time>2026-03-28T16:55:13Z</time></trkpt><trkpt lat="44.03056365946208" lon="12.057294652557509"><ele>455.0</ele><time>2026-03-28T16:55:14Z</time></trkpt><trkpt lat="44.03046224781021" lon="12.057318596202625"><ele>453.4</ele><time>2026-03-28T16:55:15Z</time></trkpt><trkpt lat="44.030359521357326" lon="12.057338191894061"><ele>451.8</ele><time>2026-03-28T16:55:16Z</time></trkpt><trkpt lat="44.030251614268956" lon="12.05734718934876"><ele>450.20000000000005</ele><time>2026-03-28T16:55:17Z</time></trkpt><trkpt lat="44.03015703628609" lon="12.057305729091594"><ele>448.6</ele><time>2026-03-28T16:55:18Z</time></trkpt><trkpt lat="44.03006272878202" lon="12.057275632029917"><ele>447.0</ele><time>2026-03-28T16:55:19Z</time></trkpt><trkpt lat="44.02997085255262" lon="12.057246019258365"><ele>446.1666666666667</ele><time>2026-03-28T16:55:20Z</time></trkpt><trkpt lat="44.02987857280223" lon="12.057230155310304"><ele>445.33333333333337</ele><time>2026-03-28T16:55:21Z</time></trkpt><trkpt lat="44.02979356132201" lon="12.057230551609257"><ele>444.5</ele><time>2026-03-28T16:55:22Z</time></trkpt><trkpt lat="44.0297212026183" lon="12.057207693350115"><ele>443.6666666666667</ele><time>2026-03-28T16:55:23Z</time></trkpt><trkpt lat="44.02965136941588" lon="12.057208715963275"><ele>442.83333333333337</ele><time>2026-03-28T16:55:24Z</time></trkpt><trkpt lat="44.029585160693266" lon="12.057240445896463"><ele>442.0</ele><time>2026-03-28T16:55:25Z</time></trkpt><trkpt lat="44.02951789995497" lon="12.05728347449926"><ele>442.00000000000006</ele><time>2026-03-28T16:55:26Z</time></trkpt><trkpt lat="44.02944274286519" lon="12.057299159341806"><ele>442.0</ele><time>2026-03-28T16:55:27Z</time></trkpt><trkpt lat="44.02936763486552" lon="12.057336914083795"><ele>442.0</ele><time>2026-03-28T16:55:28Z</time></trkpt><trkpt lat="44.029289440798486" lon="12.057379035931772"><ele>442.0</ele><time>2026-03-28T16:55:29Z</time></trkpt><trkpt lat="44.0292164724411" lon="12.05744267047878"><ele>442.00000000000006</ele><time>2026-03-28T16:55:30Z</time></trkpt><trkpt lat="44.029132800476916" lon="12.057490643704698"><ele>442.0</ele><time>2026-03-28T16:55:31Z</time></trkpt><trkpt lat="44.029042599358895" lon="12.057517568903732"><ele>442.50000000000006</ele><time>2026-03-28T16:55:32Z</time></trkpt><trkpt lat="44.02896706645928" lon="12.057560745267892"><ele>443.0</ele><time>2026-03-28T16:55:33Z</time></trkpt><trkpt lat="44.02889560503789" lon="12.057601543174307"><ele>443.5</ele><time>2026-03-28T16:55:34Z</time></trkpt><trkpt lat="44.02877976419546" lon="12.057683322027355"><ele>444.0</ele><time>2026-03-28T16:55:36Z</time></trkpt><trkpt lat="44.02871074315718" lon="12.057687033695316"><ele>444.50000000000006</ele><time>2026-03-28T16:55:38Z</time></trkpt><trkpt lat="44.02868269471718" lon="12.057577833118867"><ele>445.0</ele><time>2026-03-28T16:55:40Z</time></trkpt><trkpt lat="44.02872447282675" lon="12.057450555145877"><ele>442.83333333333337</ele><time>2026-03-28T16:55:42Z</time></trkpt><trkpt lat="44.028778166806354" lon="12.057360688163461"><ele>440.6666666666667</ele><time>2026-03-28T16:55:43Z</time></trkpt><trkpt lat="44.0288359811301" lon="12.057277106623623"><ele>438.5</ele><time>2026-03-28T16:55:44Z</time></trkpt><trkpt lat="44.0288948596226" lon="12.05719074945661"><ele>436.33333333333337</ele><time>2026-03-28T16:55:45Z</time></trkpt><trkpt lat="44.02896117304408" lon="12.057099122893625"><ele>434.1666666666667</ele><time>2026-03-28T16:55:46Z</time></trkpt><trkpt lat="44.02899864471208" lon="12.056972418551284"><ele>432.0</ele><time>2026-03-28T16:55:47Z</time></trkpt><trkpt lat="44.029031158456434" lon="12.056837087172"><ele>432.0</ele><time>2026-03-28T16:55:48Z</time></trkpt><trkpt lat="44.02906100896497" lon="12.056697056366907"><ele>432.00000000000006</ele><time>2026-03-28T16:55:49Z</time></trkpt><trkpt lat="44.029081641264284" lon="12.056547456606767"><ele>432.00000000000006</ele><time>2026-03-28T16:55:50Z</time></trkpt><trkpt lat="44.029091429398626" lon="12.056426899741869"><ele>432.0</ele><time>2026-03-28T16:55:51Z</time></trkpt><trkpt lat="44.02909982512086" lon="12.056307674870169"><ele>432.0</ele><time>2026-03-28T16:55:52Z</time></trkpt><trkpt lat="44.02910615519187" lon="12.056193972542218"><ele>431.0</ele><time>2026-03-28T16:55:53Z</time></trkpt><trkpt lat="44.02911799600241" lon="12.056072656958662"><ele>430.0</ele><time>2026-03-28T16:55:54Z</time></trkpt><trkpt lat="44.02915184619986" lon="12.05595899131589"><ele>429.0</ele><time>2026-03-28T16:55:55Z</time></trkpt><trkpt lat="44.029192194099146" lon="12.055840653704232"><ele>428.0</ele><time>2026-03-28T16:55:56Z</time></trkpt><trkpt lat="44.02926044120281" lon="12.055756078602691"><ele>427.0</ele><time>2026-03-28T16:55:57Z</time></trkpt><trkpt lat="44.029302906734955" lon="12.055680286406538"><ele>426.0</ele><time>2026-03-28T16:55:58Z</time></trkpt><trkpt lat="44.02932383331683" lon="12.05558706677626"><ele>424.20000000000005</ele><time>2026-03-28T16:55:59Z</time></trkpt><trkpt lat="44.029344544902855" lon="12.055475163956766"><ele>422.40000000000003</ele><time>2026-03-28T16:56:00Z</time></trkpt><trkpt lat="44.02930098926034" lon="12.055349284960853"><ele>420.6</ele><time>2026-03-28T16:56:01Z</time></trkpt><trkpt lat="44.0292613801795" lon="12.05522967822287"><ele>418.8</ele><time>2026-03-28T16:56:02Z</time></trkpt><trkpt lat="44.02922832697455" lon="12.055110372429981"><ele>417.0</ele><time>2026-03-28T16:56:03Z</time></trkpt><trkpt lat="44.02923077815675" lon="12.05498034810908"><ele>415.1666666666667</ele><time>2026-03-28T16:56:04Z</time></trkpt><trkpt lat="44.02922116154992" lon="12.05486393460954"><ele>413.33333333333337</ele><time>2026-03-28T16:56:05Z</time></trkpt><trkpt lat="44.02921434757329" lon="12.054758362009874"><ele>411.5</ele><time>2026-03-28T16:56:06Z</time></trkpt><trkpt lat="44.02921205427516" lon="12.054659208337585"><ele>409.6666666666667</ele><time>2026-03-28T16:56:07Z</time></trkpt><trkpt lat="44.02924272709861" lon="12.054491912801417"><ele>407.83333333333337</ele><time>2026-03-28T16:56:09Z</time></trkpt><trkpt lat="44.02931450361845" lon="12.05443070702287"><ele>406.0</ele><time>2026-03-28T16:56:10Z</time></trkpt><trkpt lat="44.02940755880563" lon="12.054430310067076"><ele>406.0</ele><time>2026-03-28T16:56:11Z</time></trkpt><trkpt lat="44.02946242279589" lon="12.054356760883293"><ele>406.0</ele><time>2026-03-28T16:56:12Z</time></trkpt><trkpt lat="44.029481828575584" lon="12.054228105004567"><ele>406.0</ele><time>2026-03-28T16:56:13Z</time></trkpt><trkpt lat="44.02943531489363" lon="12.054084856144653"><ele>406.0</ele><time>2026-03-28T16:56:14Z</time></trkpt><trkpt lat="44.02938767703906" lon="12.053950900436828"><ele>406.0</ele><time>2026-03-28T16:56:15Z</time></trkpt><trkpt lat="44.02934365795809" lon="12.053799209277528"><ele>404.25</ele><time>2026-03-28T16:56:16Z</time></trkpt><trkpt lat="44.02929603926308" lon="12.053620362442611"><ele>402.5</ele><time>2026-03-28T16:56:17Z</time></trkpt><trkpt lat="44.02925148285753" lon="12.05345828212701"><ele>400.75</ele><time>2026-03-28T16:56:18Z</time></trkpt><trkpt lat="44.029214530127604" lon="12.05330150888778"><ele>399.0</ele><time>2026-03-28T16:56:19Z</time></trkpt><trkpt lat="44.02917746919304" lon="12.053154686530878"><ele>396.0</ele><time>2026-03-28T16:56:20Z</time></trkpt><trkpt lat="44.029139916520656" lon="12.052971873034869"><ele>393.0</ele><time>2026-03-28T16:56:21Z</time></trkpt><trkpt lat="44.02910930975394" lon="12.05277683961216"><ele>390.0</ele><time>2026-03-28T16:56:22Z</time></trkpt><trkpt lat="44.029083059045256" lon="12.052603462927632"><ele>387.0</ele><time>2026-03-28T16:56:23Z</time></trkpt><trkpt lat="44.029044741042284" lon="12.052425956783178"><ele>385.3333333333333</ele><time>2026-03-28T16:56:24Z</time></trkpt><trkpt lat="44.029014347786756" lon="12.052211052680057"><ele>383.66666666666663</ele><time>2026-03-28T16:56:25Z</time></trkpt><trkpt lat="44.02899173792641" lon="12.051987008871134"><ele>382.0</ele><time>2026-03-28T16:56:26Z</time></trkpt><trkpt lat="44.02898993029992" lon="12.051768291659757"><ele>381.5</ele><time>2026-03-28T16:56:27Z</time></trkpt><trkpt lat="44.02896911538152" lon="12.051554616052353"><ele>381.0</ele><time>2026-03-28T16:56:28Z</time></trkpt><trkpt lat="44.02893657361908" lon="12.051356637407798"><ele>380.5</ele><time>2026-03-28T16:56:29Z</time></trkpt><trkpt lat="44.028904737690915" lon="12.05116645424801"><ele>380.0</ele><time>2026-03-28T16:56:30Z</time></trkpt><trkpt lat="44.028877114574264" lon="12.050984924712496"><ele>380.0</ele><time>2026-03-28T16:56:31Z</time></trkpt><trkpt lat="44.02885361108456" lon="12.050829881750865"><ele>380.0</ele><time>2026-03-28T16:56:32Z</time></trkpt><trkpt lat="44.02885993334395" lon="12.050680928647626"><ele>380.0</ele><time>2026-03-28T16:56:33Z</time></trkpt><trkpt lat="44.02885013856108" lon="12.050518044360144"><ele>380.0</ele><time>2026-03-28T16:56:34Z</time></trkpt><trkpt lat="44.02891025067155" lon="12.050345498868046"><ele>378.75</ele><time>2026-03-28T16:56:35Z</time></trkpt><trkpt lat="44.028968623254286" lon="12.050152654868006"><ele>377.5</ele><time>2026-03-28T16:56:36Z</time></trkpt><trkpt lat="44.029022819971004" lon="12.04995788125308"><ele>376.25</ele><time>2026-03-28T16:56:37Z</time></trkpt><trkpt lat="44.02907341495507" lon="12.049776004999034"><ele>375.0</ele><time>2026-03-28T16:56:38Z</time></trkpt><trkpt lat="44.02912033052577" lon="12.049607342572793"><ele>371.75</ele><time>2026-03-28T16:56:39Z</time></trkpt><trkpt lat="44.02916716295682" lon="12.04944248296911"><ele>368.5</ele><time>2026-03-28T16:56:40Z</time></trkpt><trkpt lat="44.02922249832527" lon="12.049262069201854"><ele>365.25</ele><time>2026-03-28T16:56:41Z</time></trkpt><trkpt lat="44.0292858886903" lon="12.04906561298845"><ele>362.0</ele><time>2026-03-28T16:56:42Z</time></trkpt><trkpt lat="44.029350812492986" lon="12.048874446644183"><ele>358.75</ele><time>2026-03-28T16:56:43Z</time></trkpt><trkpt lat="44.02941547763146" lon="12.048685916845224"><ele>355.5</ele><time>2026-03-28T16:56:44Z</time></trkpt><trkpt lat="44.02947591139526" lon="12.048500002328353"><ele>352.25</ele><time>2026-03-28T16:56:45Z</time></trkpt><trkpt lat="44.02953204362261" lon="12.048325120635544"><ele>349.0</ele><time>2026-03-28T16:56:46Z</time></trkpt><trkpt lat="44.02959456308267" lon="12.048156122228662"><ele>345.0</ele><time>2026-03-28T16:56:47Z</time></trkpt><trkpt lat="44.02966505672866" lon="12.047987193911627"><ele>341.0</ele><time>2026-03-28T16:56:48Z</time></trkpt><trkpt lat="44.029734371755886" lon="12.047830038341228"><ele>337.0</ele><time>2026-03-28T16:56:49Z</time></trkpt><trkpt lat="44.02979927212363" lon="12.047694101610642"><ele>333.0</ele><time>2026-03-28T16:56:50Z</time></trkpt><trkpt lat="44.02985819098339" lon="12.047589398588116"><ele>333.0</ele><time>2026-03-28T16:56:51Z</time></trkpt><trkpt lat="44.02992001892316" lon="12.047515377969617"><ele>333.0</ele><time>2026-03-28T16:56:52Z</time></trkpt><trkpt lat="44.029989796129236" lon="12.047528038936841"><ele>333.0</ele><time>2026-03-28T16:56:53Z</time></trkpt><trkpt lat="44.03005259173119" lon="12.047544434033323"><ele>333.0</ele><time>2026-03-28T16:56:54Z</time></trkpt><trkpt lat="44.030110452487996" lon="12.047633798985158"><ele>333.0</ele><time>2026-03-28T16:56:55Z</time></trkpt><trkpt lat="44.03013928930191" lon="12.04776930258955"><ele>333.0</ele><time>2026-03-28T16:56:56Z</time></trkpt><trkpt lat="44.0301896404017" lon="12.047926157774809"><ele>333.6666666666667</ele><time>2026-03-28T16:56:57Z</time></trkpt><trkpt lat="44.030221287144435" lon="12.048066642712069"><ele>334.3333333333333</ele><time>2026-03-28T16:56:58Z</time></trkpt><trkpt lat="44.03023733244214" lon="12.048173754503955"><ele>335.0</ele><time>2026-03-28T16:56:59Z</time></trkpt><trkpt lat="44.030297742972955" lon="12.048228171243384"><ele>335.66666666666663</ele><time>2026-03-28T16:57:00Z</time></trkpt><trkpt lat="44.03036637790917" lon="12.04825696054018"><ele>336.3333333333333</ele><time>2026-03-28T16:57:01Z</time></trkpt><trkpt lat="44.030432996804656" lon="12.048229631957575"><ele>337.0</ele><time>2026-03-28T16:57:02Z</time></trkpt><trkpt lat="44.030511196649066" lon="12.048172695781663"><ele>337.0</ele><time>2026-03-28T16:57:03Z</time></trkpt><trkpt lat="44.0305467503172" lon="12.048010738055739"><ele>337.0</ele><time>2026-03-28T16:57:04Z</time></trkpt><trkpt lat="44.03058348562181" lon="12.047831902812906"><ele>337.0</ele><time>2026-03-28T16:57:05Z</time></trkpt><trkpt lat="44.03062784929106" lon="12.047608450158622"><ele>337.0</ele><time>2026-03-28T16:57:06Z</time></trkpt><trkpt lat="44.03068384756726" lon="12.047407571963594"><ele>334.0</ele><time>2026-03-28T16:57:07Z</time></trkpt><trkpt lat="44.03070182165366" lon="12.047245129562954"><ele>331.0</ele><time>2026-03-28T16:57:08Z</time></trkpt><trkpt lat="44.03071110979756" lon="12.047132684591551"><ele>328.0</ele><time>2026-03-28T16:57:09Z</time></trkpt><trkpt lat="44.03064292129428" lon="12.047003080253344"><ele>325.0</ele><time>2026-03-28T16:57:11Z</time></trkpt><trkpt lat="44.03057831134695" lon="12.046965523256894"><ele>322.0</ele><time>2026-03-28T16:57:12Z</time></trkpt><trkpt lat="44.0305243847466" lon="12.046918909505912"><ele>319.0</ele><time>2026-03-28T16:57:13Z</time></trkpt><trkpt lat="44.03047052171591" lon="12.046809632074059"><ele>319.0</ele><time>2026-03-28T16:57:15Z</time></trkpt><trkpt lat="44.03052686949173" lon="12.046744647181853"><ele>319.0</ele><time>2026-03-28T16:57:17Z</time></trkpt><trkpt lat="44.03067645827832" lon="12.046758355280428"><ele>319.0</ele><time>2026-03-28T16:57:19Z</time></trkpt><trkpt lat="44.0307704533471" lon="12.046763043107612"><ele>319.0</ele><time>2026-03-28T16:57:20Z</time></trkpt><trkpt lat="44.03085741372679" lon="12.046734002026913"><ele>319.0</ele><time>2026-03-28T16:57:21Z</time></trkpt><trkpt lat="44.030930746118365" lon="12.046659287753009"><ele>314.5</ele><time>2026-03-28T16:57:22Z</time></trkpt><trkpt lat="44.03100752105276" lon="12.046561552068622"><ele>310.0</ele><time>2026-03-28T16:57:23Z</time></trkpt><trkpt lat="44.03106379511973" lon="12.046400627960077"><ele>305.5</ele><time>2026-03-28T16:57:24Z</time></trkpt><trkpt lat="44.03113415102714" lon="12.046236811635456"><ele>301.0</ele><time>2026-03-28T16:57:25Z</time></trkpt><trkpt lat="44.03121163995933" lon="12.046069607950171"><ele>301.0</ele><time>2026-03-28T16:57:26Z</time></trkpt><trkpt lat="44.031297062411305" lon="12.045901385659306"><ele>301.0</ele><time>2026-03-28T16:57:27Z</time></trkpt><trkpt lat="44.03137037116879" lon="12.045701653691587"><ele>301.0</ele><time>2026-03-28T16:57:28Z</time></trkpt><trkpt lat="44.031452109363094" lon="12.0455152165101"><ele>297.66666666666663</ele><time>2026-03-28T16:57:29Z</time></trkpt><trkpt lat="44.03151827458568" lon="12.045325428977852"><ele>294.3333333333333</ele><time>2026-03-28T16:57:30Z</time></trkpt><trkpt lat="44.031590880321495" lon="12.045139771967602"><ele>291.0</ele><time>2026-03-28T16:57:31Z</time></trkpt><trkpt lat="44.03165955819502" lon="12.044949584037576"><ele>287.3333333333333</ele><time>2026-03-28T16:57:32Z</time></trkpt><trkpt lat="44.03172656929626" lon="12.04476139690059"><ele>283.66666666666663</ele><time>2026-03-28T16:57:33Z</time></trkpt><trkpt lat="44.0317956312662" lon="12.044579190897116"><ele>280.0</ele><time>2026-03-28T16:57:34Z</time></trkpt><trkpt lat="44.03186590368497" lon="12.044393652363938"><ele>280.0</ele><time>2026-03-28T16:57:35Z</time></trkpt><trkpt lat="44.031931255102236" lon="12.04420769049526"><ele>280.0</ele><time>2026-03-28T16:57:36Z</time></trkpt><trkpt lat="44.031990595390575" lon="12.044035563449283"><ele>280.0</ele><time>2026-03-28T16:57:37Z</time></trkpt><trkpt lat="44.032040867466904" lon="12.043889686332482"><ele>280.0</ele><time>2026-03-28T16:57:38Z</time></trkpt><trkpt lat="44.032081871737944" lon="12.043757447667856"><ele>278.3333333333333</ele><time>2026-03-28T16:57:39Z</time></trkpt><trkpt lat="44.03212734420268" lon="12.043631532471972"><ele>276.66666666666663</ele><time>2026-03-28T16:57:40Z</time></trkpt><trkpt lat="44.03216561242454" lon="12.043524201751733"><ele>275.0</ele><time>2026-03-28T16:57:41Z</time></trkpt><trkpt lat="44.03220348418522" lon="12.043452121106233"><ele>273.3333333333333</ele><time>2026-03-28T16:57:42Z</time></trkpt><trkpt lat="44.03226506551111" lon="12.043385223307276"><ele>271.6666666666667</ele><time>2026-03-28T16:57:43Z</time></trkpt><trkpt lat="44.032345332503084" lon="12.04336904499681"><ele>270.0</ele><time>2026-03-28T16:57:44Z</time></trkpt><trkpt lat="44.03243017843972" lon="12.0433987683667"><ele>269.0</ele><time>2026-03-28T16:57:45Z</time></trkpt><trkpt lat="44.03249978741408" lon="12.043394307988393"><ele>268.0</ele><time>2026-03-28T16:57:46Z</time></trkpt><trkpt lat="44.032627151546386" lon="12.043376047807216"><ele>267.0</ele><time>2026-03-28T16:57:48Z</time></trkpt><trkpt lat="44.032673586899" lon="12.043171314948237"><ele>266.0</ele><time>2026-03-28T16:57:50Z</time></trkpt><trkpt lat="44.03265078396679" lon="12.04301350870619"><ele>264.25</ele><time>2026-03-28T16:57:51Z</time></trkpt><trkpt lat="44.03264357464741" lon="12.042840501636443"><ele>262.5</ele><time>2026-03-28T16:57:52Z</time></trkpt><trkpt lat="44.03266571105301" lon="12.04264673040074"><ele>260.75</ele><time>2026-03-28T16:57:53Z</time></trkpt><trkpt lat="44.032701379480045" lon="12.042438741352957"><ele>259.0</ele><time>2026-03-28T16:57:54Z</time></trkpt><trkpt lat="44.03274008838765" lon="12.042233733221346"><ele>257.25</ele><time>2026-03-28T16:57:55Z</time></trkpt><trkpt lat="44.032776592064096" lon="12.042037789116838"><ele>255.5</ele><time>2026-03-28T16:57:56Z</time></trkpt><trkpt lat="44.03281142002028" lon="12.04184244673628"><ele>253.75</ele><time>2026-03-28T16:57:57Z</time></trkpt><trkpt lat="44.03284449121314" lon="12.04164206048278"><ele>252.0</ele><time>2026-03-28T16:57:58Z</time></trkpt><trkpt lat="44.032876019038795" lon="12.041445553938953"><ele>250.0</ele><time>2026-03-28T16:57:59Z</time></trkpt><trkpt lat="44.032910680868454" lon="12.041273300664868"><ele>248.0</ele><time>2026-03-28T16:58:00Z</time></trkpt><trkpt lat="44.03293693068315" lon="12.041130085267577"><ele>246.0</ele><time>2026-03-28T16:58:01Z</time></trkpt><trkpt lat="44.03295911080312" lon="12.040992805665708"><ele>244.0</ele><time>2026-03-28T16:58:02Z</time></trkpt><trkpt lat="44.032998695893326" lon="12.040859319273519"><ele>242.0</ele><time>2026-03-28T16:58:03Z</time></trkpt><trkpt lat="44.033064624152104" lon="12.040761364403274"><ele>239.39999999999998</ele><time>2026-03-28T16:58:04Z</time></trkpt><trkpt lat="44.033145167406275" lon="12.040682405192287"><ele>236.79999999999998</ele><time>2026-03-28T16:58:05Z</time></trkpt><trkpt lat="44.03320674355342" lon="12.040597386253816"><ele>234.2</ele><time>2026-03-28T16:58:06Z</time></trkpt><trkpt lat="44.03322961387401" lon="12.040498623730432"><ele>231.6</ele><time>2026-03-28T16:58:07Z</time></trkpt><trkpt lat="44.03321213098604" lon="12.040375198469219"><ele>229.0</ele><time>2026-03-28T16:58:08Z</time></trkpt><trkpt lat="44.03315997445899" lon="12.040246989195026"><ele>229.0</ele><time>2026-03-28T16:58:09Z</time></trkpt><trkpt lat="44.033088057550735" lon="12.040112860199136"><ele>228.99999999999997</ele><time>2026-03-28T16:58:10Z</time></trkpt><trkpt lat="44.03301733625504" lon="12.03997840526389"><ele>228.99999999999997</ele><time>2026-03-28T16:58:11Z</time></trkpt><trkpt lat="44.032963234704226" lon="12.03985595913316"><ele>229.0</ele><time>2026-03-28T16:58:12Z</time></trkpt><trkpt lat="44.03292764838598" lon="12.03975111355597"><ele>229.0</ele><time>2026-03-28T16:58:13Z</time></trkpt><trkpt lat="44.03291914812781" lon="12.039649899729833"><ele>227.16666666666666</ele><time>2026-03-28T16:58:14Z</time></trkpt><trkpt lat="44.03294150946149" lon="12.039535456305133"><ele>225.33333333333331</ele><time>2026-03-28T16:58:15Z</time></trkpt><trkpt lat="44.03299522100298" lon="12.039433048973155"><ele>223.5</ele><time>2026-03-28T16:58:16Z</time></trkpt><trkpt lat="44.03306521802985" lon="12.039360387760356"><ele>221.66666666666669</ele><time>2026-03-28T16:58:17Z</time></trkpt><trkpt lat="44.03311909160363" lon="12.039282509002796"><ele>219.83333333333334</ele><time>2026-03-28T16:58:18Z</time></trkpt><trkpt lat="44.03310757251401" lon="12.039150888810822"><ele>218.0</ele><time>2026-03-28T16:58:20Z</time></trkpt><trkpt lat="44.03301468904021" lon="12.039061956765774"><ele>217.0</ele><time>2026-03-28T16:58:22Z</time></trkpt><trkpt lat="44.03293980381824" lon="12.03903141681654"><ele>216.0</ele><time>2026-03-28T16:58:23Z</time></trkpt><trkpt lat="44.03286875396898" lon="12.03900064824662"><ele>215.0</ele><time>2026-03-28T16:58:24Z</time></trkpt><trkpt lat="44.03275468580238" lon="12.03893931264672"><ele>214.0</ele><time>2026-03-28T16:58:26Z</time></trkpt><trkpt lat="44.032646123729556" lon="12.038872656448056"><ele>213.0</ele><time>2026-03-28T16:58:28Z</time></trkpt><trkpt lat="44.0325504518764" lon="12.038836043066745"><ele>213.0</ele><time>2026-03-28T16:58:30Z</time></trkpt><trkpt lat="44.03251822985785" lon="12.038739556584787"><ele>213.0</ele><time>2026-03-28T16:58:32Z</time></trkpt><trkpt lat="44.03253579171404" lon="12.03862259366859"><ele>213.0</ele><time>2026-03-28T16:58:33Z</time></trkpt><trkpt lat="44.03259266029204" lon="12.03848034649815"><ele>213.0</ele><time>2026-03-28T16:58:34Z</time></trkpt><trkpt lat="44.03264374672696" lon="12.03828360748428"><ele>213.0</ele><time>2026-03-28T16:58:35Z</time></trkpt><trkpt lat="44.03269006064911" lon="12.038069114788096"><ele>212.33333333333331</ele><time>2026-03-28T16:58:36Z</time></trkpt><trkpt lat="44.03274468631883" lon="12.037839532768471"><ele>211.66666666666666</ele><time>2026-03-28T16:58:37Z</time></trkpt><trkpt lat="44.032790088860864" lon="12.037647319437035"><ele>211.0</ele><time>2026-03-28T16:58:38Z</time></trkpt><trkpt lat="44.03283311980507" lon="12.037469676072178"><ele>212.5</ele><time>2026-03-28T16:58:39Z</time></trkpt><trkpt lat="44.03287061612372" lon="12.037314007019155"><ele>214.0</ele><time>2026-03-28T16:58:40Z</time></trkpt><trkpt lat="44.032918546868764" lon="12.037173318789407"><ele>215.5</ele><time>2026-03-28T16:58:41Z</time></trkpt><trkpt lat="44.032986638942944" lon="12.037052616215577"><ele>217.0</ele><time>2026-03-28T16:58:42Z</time></trkpt><trkpt lat="44.03307207509884" lon="12.03695101855286"><ele>217.0</ele><time>2026-03-28T16:58:43Z</time></trkpt><trkpt lat="44.033153916474" lon="12.03687277415475"><ele>217.0</ele><time>2026-03-28T16:58:44Z</time></trkpt><trkpt lat="44.033231877144765" lon="12.036804652715748"><ele>217.0</ele><time>2026-03-28T16:58:45Z</time></trkpt><trkpt lat="44.033313145688034" lon="12.03672805985917"><ele>217.0</ele><time>2026-03-28T16:58:46Z</time></trkpt><trkpt lat="44.033397959026146" lon="12.036653244433628"><ele>217.0</ele><time>2026-03-28T16:58:47Z</time></trkpt><trkpt lat="44.03348830591584" lon="12.036550200380086"><ele>216.0</ele><time>2026-03-28T16:58:48Z</time></trkpt><trkpt lat="44.033573518044165" lon="12.03642435434225"><ele>215.0</ele><time>2026-03-28T16:58:49Z</time></trkpt><trkpt lat="44.03365913762215" lon="12.036276029078598"><ele>214.0</ele><time>2026-03-28T16:58:50Z</time></trkpt><trkpt lat="44.03372111691193" lon="12.036139540649566"><ele>213.0</ele><time>2026-03-28T16:58:51Z</time></trkpt><trkpt lat="44.0337807906848" lon="12.036060073245965"><ele>213.0</ele><time>2026-03-28T16:58:52Z</time></trkpt><trkpt lat="44.03385678007898" lon="12.036056521474707"><ele>213.0</ele><time>2026-03-28T16:58:53Z</time></trkpt><trkpt lat="44.033936049896695" lon="12.036089995330485"><ele>213.0</ele><time>2026-03-28T16:58:54Z</time></trkpt><trkpt lat="44.03400760555191" lon="12.036103425173827"><ele>213.0</ele><time>2026-03-28T16:58:55Z</time></trkpt><trkpt lat="44.034047661487655" lon="12.036032034060868"><ele>213.0</ele><time>2026-03-28T16:58:56Z</time></trkpt><trkpt lat="44.03405083423099" lon="12.035922597489064"><ele>213.0</ele><time>2026-03-28T16:58:57Z</time></trkpt><trkpt lat="44.03401544823387" lon="12.035810436870845"><ele>215.0</ele><time>2026-03-28T16:58:58Z</time></trkpt><trkpt lat="44.03396429090343" lon="12.035708008591156"><ele>217.0</ele><time>2026-03-28T16:58:59Z</time></trkpt><trkpt lat="44.03394799811756" lon="12.03561263368713"><ele>219.0</ele><time>2026-03-28T16:59:00Z</time></trkpt><trkpt lat="44.03398647952988" lon="12.035508229185949"><ele>221.0</ele><time>2026-03-28T16:59:01Z</time></trkpt><trkpt lat="44.034057861335405" lon="12.035386611999668"><ele>223.0</ele><time>2026-03-28T16:59:02Z</time></trkpt><trkpt lat="44.03415674296619" lon="12.035255469798395"><ele>224.0</ele><time>2026-03-28T16:59:03Z</time></trkpt><trkpt lat="44.0342770486081" lon="12.035121226985984"><ele>225.0</ele><time>2026-03-28T16:59:04Z</time></trkpt><trkpt lat="44.034407719776326" lon="12.035008292693766"><ele>226.0</ele><time>2026-03-28T16:59:05Z</time></trkpt><trkpt lat="44.034554705020675" lon="12.034914683773877"><ele>226.0</ele><time>2026-03-28T16:59:06Z</time></trkpt><trkpt lat="44.03471090249209" lon="12.03481935580884"><ele>226.0</ele><time>2026-03-28T16:59:07Z</time></trkpt><trkpt lat="44.03484236650172" lon="12.034717592467194"><ele>226.0</ele><time>2026-03-28T16:59:08Z</time></trkpt><trkpt lat="44.03494857967467" lon="12.034615979191406"><ele>229.25</ele><time>2026-03-28T16:59:09Z</time></trkpt><trkpt lat="44.03504020193986" lon="12.034506313838046"><ele>232.5</ele><time>2026-03-28T16:59:10Z</time></trkpt><trkpt lat="44.03510439665887" lon="12.034395755099462"><ele>235.75</ele><time>2026-03-28T16:59:11Z</time></trkpt><trkpt lat="44.035149530170216" lon="12.034264404850894"><ele>239.0</ele><time>2026-03-28T16:59:12Z</time></trkpt><trkpt lat="44.03518557475575" lon="12.03407169427358"><ele>239.0</ele><time>2026-03-28T16:59:13Z</time></trkpt><trkpt lat="44.03521735012359" lon="12.033853011574925"><ele>239.0</ele><time>2026-03-28T16:59:14Z</time></trkpt><trkpt lat="44.03525806743531" lon="12.033623694823374"><ele>239.0</ele><time>2026-03-28T16:59:15Z</time></trkpt><trkpt lat="44.03529590465826" lon="12.03339792548846"><ele>239.0</ele><time>2026-03-28T16:59:16Z</time></trkpt><trkpt lat="44.03532694025862" lon="12.033180897146842"><ele>239.0</ele><time>2026-03-28T16:59:17Z</time></trkpt><trkpt lat="44.035345522581494" lon="12.032952212573438"><ele>239.0</ele><time>2026-03-28T16:59:18Z</time></trkpt><trkpt lat="44.03535265582759" lon="12.03273324281789"><ele>239.0</ele><time>2026-03-28T16:59:19Z</time></trkpt><trkpt lat="44.03535627163199" lon="12.032535212983777"><ele>239.0</ele><time>2026-03-28T16:59:20Z</time></trkpt><trkpt lat="44.03535528397461" lon="12.03237378061048"><ele>239.0</ele><time>2026-03-28T16:59:21Z</time></trkpt><trkpt lat="44.03534172775703" lon="12.032248615602745"><ele>239.0</ele><time>2026-03-28T16:59:22Z</time></trkpt><trkpt lat="44.03529160697855" lon="12.032119882048416"><ele>240.33333333333334</ele><time>2026-03-28T16:59:23Z</time></trkpt><trkpt lat="44.03521361854223" lon="12.031964435017088"><ele>241.66666666666669</ele><time>2026-03-28T16:59:24Z</time></trkpt><trkpt lat="44.03511472332065" lon="12.03177661227296"><ele>243.0</ele><time>2026-03-28T16:59:25Z</time></trkpt><trkpt lat="44.03502328569488" lon="12.031586093345686"><ele>240.25</ele><time>2026-03-28T16:59:26Z</time></trkpt><trkpt lat="44.034950373744834" lon="12.031417738002135"><ele>237.5</ele><time>2026-03-28T16:59:27Z</time></trkpt><trkpt lat="44.03488833794149" lon="12.031259695932407"><ele>234.75</ele><time>2026-03-28T16:59:28Z</time></trkpt><trkpt lat="44.03484440317256" lon="12.031111049041382"><ele>232.0</ele><time>2026-03-28T16:59:29Z</time></trkpt><trkpt lat="44.0348174480996" lon="12.030949351797487"><ele>232.0</ele><time>2026-03-28T16:59:30Z</time></trkpt><trkpt lat="44.03481317863041" lon="12.030768390571282"><ele>232.0</ele><time>2026-03-28T16:59:31Z</time></trkpt><trkpt lat="44.03484621878598" lon="12.03054910616454"><ele>232.0</ele><time>2026-03-28T16:59:32Z</time></trkpt><trkpt lat="44.03488866349587" lon="12.030318120285742"><ele>232.0</ele><time>2026-03-28T16:59:33Z</time></trkpt><trkpt lat="44.0349102207886" lon="12.030095133507848"><ele>232.0</ele><time>2026-03-28T16:59:34Z</time></trkpt><trkpt lat="44.034899748406104" lon="12.029833904507631"><ele>232.0</ele><time>2026-03-28T16:59:35Z</time></trkpt><trkpt lat="44.03486160525536" lon="12.029579470807024"><ele>233.66666666666666</ele><time>2026-03-28T16:59:36Z</time></trkpt><trkpt lat="44.03480384051429" lon="12.029314098770838"><ele>235.33333333333331</ele><time>2026-03-28T16:59:37Z</time></trkpt><trkpt lat="44.03473000314794" lon="12.029045162898303"><ele>237.0</ele><time>2026-03-28T16:59:38Z</time></trkpt><trkpt lat="44.0346541786018" lon="12.028802206430079"><ele>238.25</ele><time>2026-03-28T16:59:39Z</time></trkpt><trkpt lat="44.03459990926179" lon="12.028604253684225"><ele>239.5</ele><time>2026-03-28T16:59:40Z</time></trkpt><trkpt lat="44.03457183066675" lon="12.028457252050721"><ele>240.75</ele><time>2026-03-28T16:59:41Z</time></trkpt><trkpt lat="44.03456979043628" lon="12.02834354770356"><ele>242.0</ele><time>2026-03-28T16:59:42Z</time></trkpt><trkpt lat="44.034654269598704" lon="12.028235292061417"><ele>242.0</ele><time>2026-03-28T16:59:44Z</time></trkpt><trkpt lat="44.03471953520109" lon="12.0282425273656"><ele>241.99999999999997</ele><time>2026-03-28T16:59:45Z</time></trkpt><trkpt lat="44.03478582436174" lon="12.028309581598663"><ele>242.0</ele><time>2026-03-28T16:59:46Z</time></trkpt><trkpt lat="44.03484282793511" lon="12.028384910051463"><ele>242.0</ele><time>2026-03-28T16:59:47Z</time></trkpt><trkpt lat="44.034906076786825" lon="12.02840268626696"><ele>241.99999999999997</ele><time>2026-03-28T16:59:48Z</time></trkpt><trkpt lat="44.03496598244314" lon="12.028351801093589"><ele>242.0</ele><time>2026-03-28T16:59:49Z</time></trkpt><trkpt lat="44.03500900841453" lon="12.028251441277002"><ele>242.0</ele><time>2026-03-28T16:59:50Z</time></trkpt><trkpt lat="44.03501732546871" lon="12.02812247355428"><ele>247.25</ele><time>2026-03-28T16:59:51Z</time></trkpt><trkpt lat="44.03500196350389" lon="12.027958692737778"><ele>252.5</ele><time>2026-03-28T16:59:52Z</time></trkpt><trkpt lat="44.03498727055828" lon="12.02775324298746"><ele>257.75</ele><time>2026-03-28T16:59:53Z</time></trkpt><trkpt lat="44.03497776581416" lon="12.02752713843594"><ele>263.0</ele><time>2026-03-28T16:59:54Z</time></trkpt><trkpt lat="44.03497456506304" lon="12.027271500421168"><ele>264.6666666666667</ele><time>2026-03-28T16:59:55Z</time></trkpt><trkpt lat="44.03497415519745" lon="12.027014088774187"><ele>266.3333333333333</ele><time>2026-03-28T16:59:56Z</time></trkpt><trkpt lat="44.03497191725901" lon="12.026735547380591"><ele>268.0</ele><time>2026-03-28T16:59:57Z</time></trkpt><trkpt lat="44.03496193900041" lon="12.026430362675121"><ele>266.66666666666663</ele><time>2026-03-28T16:59:58Z</time></trkpt><trkpt lat="44.03495006481102" lon="12.026122752927556"><ele>265.3333333333333</ele><time>2026-03-28T16:59:59Z</time></trkpt><trkpt lat="44.03494478810397" lon="12.025828109871677"><ele>264.0</ele><time>2026-03-28T17:00:00Z</time></trkpt><trkpt lat="44.03495973296069" lon="12.025525226068135"><ele>274.0</ele><time>2026-03-28T17:00:01Z</time></trkpt><trkpt lat="44.0349909364216" lon="12.025216665968898"><ele>284.0</ele><time>2026-03-28T17:00:02Z</time></trkpt><trkpt lat="44.03503046291886" lon="12.024906959637711"><ele>285.6666666666667</ele><time>2026-03-28T17:00:03Z</time></trkpt><trkpt lat="44.03507473174263" lon="12.02460254281293"><ele>287.3333333333333</ele><time>2026-03-28T17:00:04Z</time></trkpt><trkpt lat="44.03512880558574" lon="12.024308947303503"><ele>289.0</ele><time>2026-03-28T17:00:05Z</time></trkpt><trkpt lat="44.035186999825285" lon="12.024055859374116"><ele>291.66666666666663</ele><time>2026-03-28T17:00:06Z</time></trkpt><trkpt lat="44.03524627493159" lon="12.0238019355909"><ele>294.3333333333333</ele><time>2026-03-28T17:00:07Z</time></trkpt><trkpt lat="44.035306099988595" lon="12.023547604359502"><ele>297.0</ele><time>2026-03-28T17:00:08Z</time></trkpt><trkpt lat="44.03536079859293" lon="12.023335828211257"><ele>298.5</ele><time>2026-03-28T17:00:09Z</time></trkpt><trkpt lat="44.03541254763073" lon="12.02316386602076"><ele>300.0</ele><time>2026-03-28T17:00:10Z</time></trkpt><trkpt lat="44.03545886071782" lon="12.02300300960407"><ele>301.5</ele><time>2026-03-28T17:00:11Z</time></trkpt><trkpt lat="44.035491395977026" lon="12.022871523120362"><ele>303.0</ele><time>2026-03-28T17:00:12Z</time></trkpt><trkpt lat="44.0355050755847" lon="12.022742519560856"><ele>303.0</ele><time>2026-03-28T17:00:13Z</time></trkpt><trkpt lat="44.035503633508185" lon="12.022594960785474"><ele>303.0</ele><time>2026-03-28T17:00:14Z</time></trkpt><trkpt lat="44.03548104007885" lon="12.022434082104377"><ele>303.0</ele><time>2026-03-28T17:00:15Z</time></trkpt><trkpt lat="44.03544078716353" lon="12.022272274510321"><ele>303.0</ele><time>2026-03-28T17:00:16Z</time></trkpt><trkpt lat="44.03538986357348" lon="12.022117914439105"><ele>303.0</ele><time>2026-03-28T17:00:17Z</time></trkpt><trkpt lat="44.03532613828212" lon="12.021973348819596"><ele>303.0</ele><time>2026-03-28T17:00:18Z</time></trkpt><trkpt lat="44.03525282096378" lon="12.021821973088098"><ele>303.0</ele><time>2026-03-28T17:00:19Z</time></trkpt><trkpt lat="44.03517212088064" lon="12.021664659969353"><ele>303.0</ele><time>2026-03-28T17:00:20Z</time></trkpt><trkpt lat="44.03509945391108" lon="12.02148857432411"><ele>302.75</ele><time>2026-03-28T17:00:21Z</time></trkpt><trkpt lat="44.035015568919206" lon="12.021302162836113"><ele>302.5</ele><time>2026-03-28T17:00:22Z</time></trkpt><trkpt lat="44.03494612451954" lon="12.021126632094644"><ele>302.25</ele><time>2026-03-28T17:00:23Z</time></trkpt><trkpt lat="44.03490852657349" lon="12.020969756252496"><ele>302.0</ele><time>2026-03-28T17:00:24Z</time></trkpt><trkpt lat="44.0348949401679" lon="12.020831366820145"><ele>302.6</ele><time>2026-03-28T17:00:25Z</time></trkpt><trkpt lat="44.03490465404071" lon="12.020700741330813"><ele>303.2</ele><time>2026-03-28T17:00:26Z</time></trkpt><trkpt lat="44.03493415884004" lon="12.02056381039639"><ele>303.8</ele><time>2026-03-28T17:00:27Z</time></trkpt><trkpt lat="44.03498096519811" lon="12.02042618182682"><ele>304.4</ele><time>2026-03-28T17:00:28Z</time></trkpt><trkpt lat="44.035040750207564" lon="12.020309556821221"><ele>305.0</ele><time>2026-03-28T17:00:29Z</time></trkpt><trkpt lat="44.03512048917341" lon="12.020206184232284"><ele>305.0</ele><time>2026-03-28T17:00:30Z</time></trkpt><trkpt lat="44.0352297499181" lon="12.020098111323076"><ele>305.0</ele><time>2026-03-28T17:00:31Z</time></trkpt><trkpt lat="44.035378578768466" lon="12.019977991859504"><ele>305.0</ele><time>2026-03-28T17:00:32Z</time></trkpt><trkpt lat="44.03553113061642" lon="12.019853511480106"><ele>306.33333333333337</ele><time>2026-03-28T17:00:33Z</time></trkpt><trkpt lat="44.03568499113708" lon="12.019714100091422"><ele>307.6666666666667</ele><time>2026-03-28T17:00:34Z</time></trkpt><trkpt lat="44.03584479188762" lon="12.019537137459771"><ele>309.0</ele><time>2026-03-28T17:00:35Z</time></trkpt><trkpt lat="44.03599095481995" lon="12.019368949880324"><ele>302.6666666666667</ele><time>2026-03-28T17:00:36Z</time></trkpt><trkpt lat="44.036137367984246" lon="12.019199555032465"><ele>296.33333333333337</ele><time>2026-03-28T17:00:37Z</time></trkpt><trkpt lat="44.0362773210016" lon="12.019028828451763"><ele>290.0</ele><time>2026-03-28T17:00:38Z</time></trkpt><trkpt lat="44.036417266177246" lon="12.018865365604439"><ele>290.0</ele><time>2026-03-28T17:00:39Z</time></trkpt><trkpt lat="44.03654406862625" lon="12.018719235358967"><ele>290.0</ele><time>2026-03-28T17:00:40Z</time></trkpt><trkpt lat="44.03666182298868" lon="12.018585005024798"><ele>290.0</ele><time>2026-03-28T17:00:41Z</time></trkpt><trkpt lat="44.036777934106375" lon="12.018448945472523"><ele>245.0</ele><time>2026-03-28T17:00:42Z</time></trkpt><trkpt lat="44.038048598384194" lon="12.016855509552919"><ele>245.0</ele><time>2026-03-28T17:00:55.153Z</time></trkpt><trkpt lat="44.03814156658364" lon="12.016772961776061"><ele>245.0</ele><time>2026-03-28T17:00:56.342Z</time></trkpt><trkpt lat="44.038223034384885" lon="12.016652999627102"><ele>245.0</ele><time>2026-03-28T17:00:57.967Z</time></trkpt><trkpt lat="44.0387832094394" lon="12.01742358506845"><ele>242.0</ele><time>2026-03-28T17:00:59.149Z</time></trkpt><trkpt lat="44.038959732320194" lon="12.017249325301513"><ele>239.0</ele><time>2026-03-28T17:01:00.41Z</time></trkpt><trkpt lat="44.03907963544506" lon="12.017110688623056"><ele>236.0</ele><time>2026-03-28T17:01:01.421Z</time></trkpt><trkpt lat="44.039138183038716" lon="12.01700633392857"><ele>232.66666666666669</ele><time>2026-03-28T17:01:02Z</time></trkpt><trkpt lat="44.039254710966034" lon="12.016835699874049"><ele>229.33333333333331</ele><time>2026-03-28T17:01:03Z</time></trkpt><trkpt lat="44.039348233532195" lon="12.016673488553629"><ele>226.0</ele><time>2026-03-28T17:01:04Z</time></trkpt><trkpt lat="44.03943263929713" lon="12.016492942359314"><ele>224.0</ele><time>2026-03-28T17:01:05Z</time></trkpt><trkpt lat="44.03951008808244" lon="12.016288591559992"><ele>222.0</ele><time>2026-03-28T17:01:06Z</time></trkpt><trkpt lat="44.039585902396624" lon="12.01605448500441"><ele>220.0</ele><time>2026-03-28T17:01:07Z</time></trkpt><trkpt lat="44.0396484733038" lon="12.01580830850826"><ele>216.0</ele><time>2026-03-28T17:01:08Z</time></trkpt><trkpt lat="44.03971485797692" lon="12.015567664068206"><ele>212.0</ele><time>2026-03-28T17:01:09Z</time></trkpt><trkpt lat="44.03977969199795" lon="12.015328612189753"><ele>208.0</ele><time>2026-03-28T17:01:10Z</time></trkpt><trkpt lat="44.03984607667107" lon="12.015091739606126"><ele>205.33333333333331</ele><time>2026-03-28T17:01:11Z</time></trkpt><trkpt lat="44.039915291145626" lon="12.014856014080102"><ele>202.66666666666669</ele><time>2026-03-28T17:01:12Z</time></trkpt><trkpt lat="44.03998658180242" lon="12.014628783980612"><ele>200.0</ele><time>2026-03-28T17:01:13Z</time></trkpt><trkpt lat="44.04009553745818" lon="12.014444248237053"><ele>200.0</ele><time>2026-03-28T17:01:14Z</time></trkpt><trkpt lat="44.040224792589605" lon="12.014233183759712"><ele>200.0</ele><time>2026-03-28T17:01:15Z</time></trkpt><trkpt lat="44.040379397422505" lon="12.013999633922786"><ele>200.0</ele><time>2026-03-28T17:01:16Z</time></trkpt><trkpt lat="44.040516311003415" lon="12.013752457953242"><ele>196.66666666666669</ele><time>2026-03-28T17:01:17Z</time></trkpt><trkpt lat="44.04064960221546" lon="12.01355087555625"><ele>193.33333333333334</ele><time>2026-03-28T17:01:18Z</time></trkpt><trkpt lat="44.04076418951629" lon="12.013362903835466"><ele>190.0</ele><time>2026-03-28T17:01:19Z</time></trkpt><trkpt lat="44.0408791874404" lon="12.01315801360353"><ele>188.33333333333334</ele><time>2026-03-28T17:01:20Z</time></trkpt><trkpt lat="44.04098691062696" lon="12.012962968989854"><ele>186.66666666666666</ele><time>2026-03-28T17:01:21Z</time></trkpt><trkpt lat="44.04109324931142" lon="12.012773029869543"><ele>185.0</ele><time>2026-03-28T17:01:22Z</time></trkpt><trkpt lat="44.04119882322976" lon="12.01259180050202"><ele>181.33333333333331</ele><time>2026-03-28T17:01:23Z</time></trkpt><trkpt lat="44.041298181703425" lon="12.012424826944136"><ele>177.66666666666666</ele><time>2026-03-28T17:01:24Z</time></trkpt><trkpt lat="44.041418571298586" lon="12.012272533730469"><ele>174.0</ele><time>2026-03-28T17:01:25Z</time></trkpt><trkpt lat="44.04153806752133" lon="12.01213932782251"><ele>175.5</ele><time>2026-03-28T17:01:26Z</time></trkpt><trkpt lat="44.041674366892885" lon="12.012046153210433"><ele>177.0</ele><time>2026-03-28T17:01:27Z</time></trkpt><trkpt lat="44.04180978811374" lon="12.011967903045827"><ele>178.5</ele><time>2026-03-28T17:01:28Z</time></trkpt><trkpt lat="44.04192869445346" lon="12.01184376094805"><ele>180.0</ele><time>2026-03-28T17:01:29Z</time></trkpt><trkpt lat="44.042075051872736" lon="12.011681671816202"><ele>177.75</ele><time>2026-03-28T17:01:30Z</time></trkpt><trkpt lat="44.04217495921777" lon="12.011539396311068"><ele>175.5</ele><time>2026-03-28T17:01:31Z</time></trkpt><trkpt lat="44.04226855684821" lon="12.011399256232028"><ele>173.25</ele><time>2026-03-28T17:01:32Z</time></trkpt><trkpt lat="44.042361655097345" lon="12.0112368154995"><ele>171.0</ele><time>2026-03-28T17:01:33Z</time></trkpt><trkpt lat="44.042424871443224" lon="12.01107007016398"><ele>170.25</ele><time>2026-03-28T17:01:34Z</time></trkpt><trkpt lat="44.04246992980391" lon="12.01088789051275"><ele>169.5</ele><time>2026-03-28T17:01:35Z</time></trkpt><trkpt lat="44.0424773456375" lon="12.010710286006605"><ele>168.75</ele><time>2026-03-28T17:01:36Z</time></trkpt><trkpt lat="44.04247177660499" lon="12.010534600550418"><ele>168.0</ele><time>2026-03-28T17:01:37Z</time></trkpt><trkpt lat="44.04245847844526" lon="12.010378700825077"><ele>167.0</ele><time>2026-03-28T17:01:38Z</time></trkpt><trkpt lat="44.04245119453449" lon="12.010237070100635"><ele>166.0</ele><time>2026-03-28T17:01:39Z</time></trkpt><trkpt lat="44.042454181435666" lon="12.010111521202276"><ele>165.0</ele><time>2026-03-28T17:01:40Z</time></trkpt><trkpt lat="44.04246872293622" lon="12.01000471169629"><ele>164.0</ele><time>2026-03-28T17:01:41Z</time></trkpt><trkpt lat="44.04251508320044" lon="12.00994266406217"><ele>163.0</ele><time>2026-03-28T17:01:42Z</time></trkpt><trkpt lat="44.04264436032425" lon="12.009922712738833"><ele>163.0</ele><time>2026-03-28T17:01:44Z</time></trkpt><trkpt lat="44.042717457510825" lon="12.009994145200471"><ele>163.0</ele><time>2026-03-28T17:01:45Z</time></trkpt><trkpt lat="44.04277849812619" lon="12.010077668353253"><ele>163.0</ele><time>2026-03-28T17:01:46Z</time></trkpt><trkpt lat="44.04284357241661" lon="12.010128364996536"><ele>163.0</ele><time>2026-03-28T17:01:47Z</time></trkpt><trkpt lat="44.042911039275374" lon="12.010119070574358"><ele>163.0</ele><time>2026-03-28T17:01:48Z</time></trkpt><trkpt lat="44.042967351248066" lon="12.010058194627717"><ele>163.0</ele><time>2026-03-28T17:01:49Z</time></trkpt><trkpt lat="44.04301205103953" lon="12.009954416145682"><ele>160.8</ele><time>2026-03-28T17:01:50Z</time></trkpt><trkpt lat="44.04305143431993" lon="12.00982600690314"><ele>158.60000000000002</ele><time>2026-03-28T17:01:51Z</time></trkpt><trkpt lat="44.04310168158854" lon="12.009688155695562"><ele>156.39999999999998</ele><time>2026-03-28T17:01:52Z</time></trkpt><trkpt lat="44.043162109745516" lon="12.00954644720595"><ele>154.2</ele><time>2026-03-28T17:01:53Z</time></trkpt><trkpt lat="44.043220549967025" lon="12.009415927681847"><ele>152.0</ele><time>2026-03-28T17:01:54Z</time></trkpt><trkpt lat="44.043276739323616" lon="12.00928970016044"><ele>150.0</ele><time>2026-03-28T17:01:55Z</time></trkpt><trkpt lat="44.04332547677851" lon="12.009169861993716"><ele>148.0</ele><time>2026-03-28T17:01:56Z</time></trkpt><trkpt lat="44.04337613933033" lon="12.009035638459055"><ele>146.0</ele><time>2026-03-28T17:01:57Z</time></trkpt><trkpt lat="44.04343568090695" lon="12.008880386618188"><ele>144.0</ele><time>2026-03-28T17:01:58Z</time></trkpt><trkpt lat="44.04348498460486" lon="12.008721086487219"><ele>143.5</ele><time>2026-03-28T17:01:59Z</time></trkpt><trkpt lat="44.04351753675417" lon="12.008515375545404"><ele>143.0</ele><time>2026-03-28T17:02:00Z</time></trkpt><trkpt lat="44.04354265674385" lon="12.00831069314762"><ele>142.5</ele><time>2026-03-28T17:02:01Z</time></trkpt><trkpt lat="44.043537900256716" lon="12.008113660039008"><ele>142.0</ele><time>2026-03-28T17:02:02Z</time></trkpt><trkpt lat="44.04353325392649" lon="12.007934080081899"><ele>141.0</ele><time>2026-03-28T17:02:03Z</time></trkpt><trkpt lat="44.043534252229605" lon="12.0077763984087"><ele>140.0</ele><time>2026-03-28T17:02:04Z</time></trkpt><trkpt lat="44.04354905936786" lon="12.007640424726514"><ele>139.0</ele><time>2026-03-28T17:02:05Z</time></trkpt><trkpt lat="44.04362466327767" lon="12.007512720817983"><ele>138.0</ele><time>2026-03-28T17:02:06Z</time></trkpt><trkpt lat="44.043746059633655" lon="12.007420644998454"><ele>135.66666666666666</ele><time>2026-03-28T17:02:07Z</time></trkpt><trkpt lat="44.04388448595338" lon="12.007279777965977"><ele>133.33333333333331</ele><time>2026-03-28T17:02:08Z</time></trkpt><trkpt lat="44.044022623607624" lon="12.007172829881235"><ele>131.0</ele><time>2026-03-28T17:02:09Z</time></trkpt><trkpt lat="44.04414281664182" lon="12.00706894575758"><ele>129.2</ele><time>2026-03-28T17:02:10Z</time></trkpt><trkpt lat="44.04424584685352" lon="12.006970162587795"><ele>127.39999999999999</ele><time>2026-03-28T17:02:11Z</time></trkpt><trkpt lat="44.04433176994697" lon="12.006863621992332"><ele>125.6</ele><time>2026-03-28T17:02:12Z</time></trkpt><trkpt lat="44.04439929222512" lon="12.00676132231831"><ele>123.8</ele><time>2026-03-28T17:02:13Z</time></trkpt><trkpt lat="44.04445114757321" lon="12.006663166831599"><ele>122.0</ele><time>2026-03-28T17:02:14Z</time></trkpt><trkpt lat="44.04448724214794" lon="12.006561355538796"><ele>122.0</ele><time>2026-03-28T17:02:15Z</time></trkpt><trkpt lat="44.044497281013705" lon="12.006466895100742"><ele>121.99999999999999</ele><time>2026-03-28T17:02:16Z</time></trkpt><trkpt lat="44.0445316284661" lon="12.006351130360077"><ele>121.99999999999999</ele><time>2026-03-28T17:02:18Z</time></trkpt><trkpt lat="44.04462430412258" lon="12.006514283056662"><ele>122.0</ele><time>2026-03-28T17:02:22Z</time></trkpt><trkpt lat="44.044669214278535" lon="12.0066754839996"><ele>122.0</ele><time>2026-03-28T17:02:23Z</time></trkpt><trkpt lat="44.04469820536994" lon="12.006865786103091"><ele>122.0</ele><time>2026-03-28T17:02:24Z</time></trkpt><trkpt lat="44.04474193611967" lon="12.007077539843399"><ele>122.0</ele><time>2026-03-28T17:02:25Z</time></trkpt><trkpt lat="44.044795778051444" lon="12.0073108554725"><ele>122.0</ele><time>2026-03-28T17:02:26Z</time></trkpt><trkpt lat="44.04484685681126" lon="12.007541830229288"><ele>122.33333333333333</ele><time>2026-03-28T17:02:27Z</time></trkpt><trkpt lat="44.044902307295544" lon="12.007776569269645"><ele>122.66666666666666</ele><time>2026-03-28T17:02:28Z</time></trkpt><trkpt lat="44.04495310150572" lon="12.008009672309202"><ele>123.0</ele><time>2026-03-28T17:02:29Z</time></trkpt><trkpt lat="44.04499899163465" lon="12.008224132821566"><ele>120.0</ele><time>2026-03-28T17:02:30Z</time></trkpt><trkpt lat="44.045046454509695" lon="12.008427005464783"><ele>117.0</ele><time>2026-03-28T17:02:31Z</time></trkpt><trkpt lat="44.04508740525605" lon="12.008627486556062"><ele>114.0</ele><time>2026-03-28T17:02:32Z</time></trkpt><trkpt lat="44.04514212843824" lon="12.008826241017665"><ele>114.0</ele><time>2026-03-28T17:02:33Z</time></trkpt><trkpt lat="44.04520201486217" lon="12.0090399802254"><ele>114.0</ele><time>2026-03-28T17:02:34Z</time></trkpt><trkpt lat="44.04525795698414" lon="12.009257379995447"><ele>114.0</ele><time>2026-03-28T17:02:35Z</time></trkpt><trkpt lat="44.045314993475074" lon="12.009462428124273"><ele>114.33333333333334</ele><time>2026-03-28T17:02:36Z</time></trkpt><trkpt lat="44.045376572341645" lon="12.009663102030538"><ele>114.66666666666667</ele><time>2026-03-28T17:02:37Z</time></trkpt><trkpt lat="44.045444042673104" lon="12.00985863286789"><ele>115.0</ele><time>2026-03-28T17:02:38Z</time></trkpt><trkpt lat="44.04551687565257" lon="12.010045346140503"><ele>115.66666666666667</ele><time>2026-03-28T17:02:39Z</time></trkpt><trkpt lat="44.04559695126791" lon="12.010237056884446"><ele>116.33333333333334</ele><time>2026-03-28T17:02:40Z</time></trkpt><trkpt lat="44.0456816909569" lon="12.01043464081411"><ele>117.0</ele><time>2026-03-28T17:02:41Z</time></trkpt><trkpt lat="44.04577581906001" lon="12.010635063403898"><ele>116.0</ele><time>2026-03-28T17:02:42Z</time></trkpt><trkpt lat="44.04588075787508" lon="12.010832975340076"><ele>115.0</ele><time>2026-03-28T17:02:43Z</time></trkpt><trkpt lat="44.045996886464714" lon="12.011037568397734"><ele>114.0</ele><time>2026-03-28T17:02:44Z</time></trkpt><trkpt lat="44.0461231118988" lon="12.011251559368048"><ele>114.0</ele><time>2026-03-28T17:02:45Z</time></trkpt><trkpt lat="44.04624971703496" lon="12.011449796805323"><ele>114.0</ele><time>2026-03-28T17:02:46Z</time></trkpt><trkpt lat="44.04638525780692" lon="12.011643053460936"><ele>114.0</ele><time>2026-03-28T17:02:47Z</time></trkpt><trkpt lat="44.046522512578605" lon="12.011818720024488"><ele>113.66666666666666</ele><time>2026-03-28T17:02:48Z</time></trkpt><trkpt lat="44.046678102444524" lon="12.011995613648125"><ele>113.33333333333333</ele><time>2026-03-28T17:02:49Z</time></trkpt><trkpt lat="44.046854333696814" lon="12.012183654833045"><ele>113.0</ele><time>2026-03-28T17:02:50Z</time></trkpt><trkpt lat="44.04705017759641" lon="12.01237515582597"><ele>113.0</ele><time>2026-03-28T17:02:51Z</time></trkpt><trkpt lat="44.04724637599845" lon="12.012549927517185"><ele>113.0</ele><time>2026-03-28T17:02:52Z</time></trkpt><trkpt lat="44.047422648783" lon="12.012682949744265"><ele>113.0</ele><time>2026-03-28T17:02:53Z</time></trkpt><trkpt lat="44.0476037488577" lon="12.012802898529388"><ele>112.33333333333333</ele><time>2026-03-28T17:02:54Z</time></trkpt><trkpt lat="44.047790215184655" lon="12.012920101981887"><ele>111.66666666666666</ele><time>2026-03-28T17:02:55Z</time></trkpt><trkpt lat="44.047971679842775" lon="12.013033818599526"><ele>111.0</ele><time>2026-03-28T17:02:56Z</time></trkpt><trkpt lat="44.04815362309394" lon="12.0131436321892"><ele>110.66666666666666</ele><time>2026-03-28T17:02:57Z</time></trkpt><trkpt lat="44.04834392442564" lon="12.013256628825477"><ele>110.33333333333333</ele><time>2026-03-28T17:02:58Z</time></trkpt><trkpt lat="44.04854630200126" lon="12.013384398245888"><ele>110.0</ele><time>2026-03-28T17:02:59Z</time></trkpt><trkpt lat="44.04874111251544" lon="12.01350967438726"><ele>110.0</ele><time>2026-03-28T17:03:00Z</time></trkpt><trkpt lat="44.048942832950196" lon="12.013634800764937"><ele>110.0</ele><time>2026-03-28T17:03:01Z</time></trkpt><trkpt lat="44.049142314510114" lon="12.013756955250722"><ele>110.0</ele><time>2026-03-28T17:03:02Z</time></trkpt><trkpt lat="44.04934131101476" lon="12.01388259315638"><ele>109.66666666666666</ele><time>2026-03-28T17:03:03Z</time></trkpt><trkpt lat="44.049537196684064" lon="12.013999892081857"><ele>109.33333333333334</ele><time>2026-03-28T17:03:04Z</time></trkpt><trkpt lat="44.04973292878839" lon="12.014116927729214"><ele>109.0</ele><time>2026-03-28T17:03:05Z</time></trkpt><trkpt lat="44.04992818485821" lon="12.014242178568342"><ele>109.0</ele><time>2026-03-28T17:03:06Z</time></trkpt><trkpt lat="44.050122903118" lon="12.01436410732689"><ele>109.0</ele><time>2026-03-28T17:03:07Z</time></trkpt><trkpt lat="44.05031783210235" lon="12.01448152309186"><ele>109.0</ele><time>2026-03-28T17:03:08Z</time></trkpt><trkpt lat="44.05051436249601" lon="12.0146055200623"><ele>109.0</ele><time>2026-03-28T17:03:09Z</time></trkpt><trkpt lat="44.05071112951739" lon="12.014729199675497"><ele>109.0</ele><time>2026-03-28T17:03:10Z</time></trkpt><trkpt lat="44.050912671621425" lon="12.014859726752347"><ele>109.0</ele><time>2026-03-28T17:03:11Z</time></trkpt><trkpt lat="44.051114188594475" lon="12.014993834215073"><ele>108.66666666666667</ele><time>2026-03-28T17:03:12Z</time></trkpt><trkpt lat="44.05131265004268" lon="12.015134223474272"><ele>108.33333333333334</ele><time>2026-03-28T17:03:13Z</time></trkpt><trkpt lat="44.05151320873289" lon="12.01527804748676"><ele>108.0</ele><time>2026-03-28T17:03:14Z</time></trkpt><trkpt lat="44.051705508480545" lon="12.015428772570305"><ele>108.0</ele><time>2026-03-28T17:03:15Z</time></trkpt><trkpt lat="44.05189392563032" lon="12.015591585341967"><ele>108.0</ele><time>2026-03-28T17:03:16Z</time></trkpt><trkpt lat="44.052076507955206" lon="12.015768738892543"><ele>108.0</ele><time>2026-03-28T17:03:17Z</time></trkpt><trkpt lat="44.05225466803264" lon="12.015955713161485"><ele>108.0</ele><time>2026-03-28T17:03:18Z</time></trkpt><trkpt lat="44.05242885537831" lon="12.01615419897205"><ele>108.0</ele><time>2026-03-28T17:03:19Z</time></trkpt><trkpt lat="44.052593187916685" lon="12.016352296415103"><ele>108.0</ele><time>2026-03-28T17:03:20Z</time></trkpt><trkpt lat="44.0527421324181" lon="12.01654596527544"><ele>109.33333333333334</ele><time>2026-03-28T17:03:21Z</time></trkpt><trkpt lat="44.05289096361881" lon="12.016758763088532"><ele>110.66666666666667</ele><time>2026-03-28T17:03:22Z</time></trkpt><trkpt lat="44.05303632751586" lon="12.016983270267184"><ele>112.0</ele><time>2026-03-28T17:03:23Z</time></trkpt><trkpt lat="44.05318222534321" lon="12.017202105705167"><ele>111.66666666666667</ele><time>2026-03-28T17:03:24Z</time></trkpt><trkpt lat="44.05332865395936" lon="12.017415837011992"><ele>111.33333333333334</ele><time>2026-03-28T17:03:25Z</time></trkpt><trkpt lat="44.053467803177384" lon="12.017617892166149"><ele>111.0</ele><time>2026-03-28T17:03:26Z</time></trkpt><trkpt lat="44.05359648762035" lon="12.017810195882605"><ele>111.0</ele><time>2026-03-28T17:03:27Z</time></trkpt><trkpt lat="44.05371766681098" lon="12.01798862181493"><ele>111.0</ele><time>2026-03-28T17:03:28Z</time></trkpt><trkpt lat="44.053830535061614" lon="12.018154321852249"><ele>111.0</ele><time>2026-03-28T17:03:29Z</time></trkpt><trkpt lat="44.05395967063822" lon="12.018331173682958"><ele>110.33333333333334</ele><time>2026-03-28T17:03:30Z</time></trkpt><trkpt lat="44.054094826794945" lon="12.018500410122655"><ele>109.66666666666667</ele><time>2026-03-28T17:03:31Z</time></trkpt><trkpt lat="44.05425035813565" lon="12.018668925179863"><ele>109.0</ele><time>2026-03-28T17:03:32Z</time></trkpt><trkpt lat="44.0544069895597" lon="12.018839036477159"><ele>109.0</ele><time>2026-03-28T17:03:33Z</time></trkpt><trkpt lat="44.0545545361066" lon="12.01899035307623"><ele>109.0</ele><time>2026-03-28T17:03:34Z</time></trkpt><trkpt lat="44.054688417003796" lon="12.019124580994944"><ele>109.0</ele><time>2026-03-28T17:03:35Z</time></trkpt><trkpt lat="44.054803473029295" lon="12.019272671021325"><ele>108.0</ele><time>2026-03-28T17:03:36Z</time></trkpt><trkpt lat="44.054946492714535" lon="12.01939385674738"><ele>107.0</ele><time>2026-03-28T17:03:37Z</time></trkpt><trkpt lat="44.055094535270456" lon="12.01956522384306"><ele>106.0</ele><time>2026-03-28T17:03:38Z</time></trkpt><trkpt lat="44.055243441371154" lon="12.019777294381539"><ele>107.66666666666667</ele><time>2026-03-28T17:03:39Z</time></trkpt><trkpt lat="44.05538511776316" lon="12.019993924897708"><ele>109.33333333333334</ele><time>2026-03-28T17:03:40Z</time></trkpt><trkpt lat="44.055538890975065" lon="12.02022204027301"><ele>111.0</ele><time>2026-03-28T17:03:41Z</time></trkpt><trkpt lat="44.05568429557466" lon="12.02046683547423"><ele>110.0</ele><time>2026-03-28T17:03:42Z</time></trkpt><trkpt lat="44.05582219219931" lon="12.020739497437182"><ele>109.0</ele><time>2026-03-28T17:03:43Z</time></trkpt><trkpt lat="44.05596850412213" lon="12.021020966482757"><ele>109.0</ele><time>2026-03-28T17:03:44Z</time></trkpt><trkpt lat="44.056120358875496" lon="12.021310242677"><ele>109.0</ele><time>2026-03-28T17:03:45Z</time></trkpt><trkpt lat="44.056270084159785" lon="12.021584477181285"><ele>111.0</ele><time>2026-03-28T17:03:46Z</time></trkpt><trkpt lat="44.056414228085856" lon="12.021857661723919"><ele>113.0</ele><time>2026-03-28T17:03:47Z</time></trkpt><trkpt lat="44.05655160976939" lon="12.02210739444657"><ele>111.66666666666666</ele><time>2026-03-28T17:03:48Z</time></trkpt><trkpt lat="44.056688706591096" lon="12.022339247823393"><ele>110.33333333333334</ele><time>2026-03-28T17:03:49Z</time></trkpt><trkpt lat="44.056828795690905" lon="12.022557002255153"><ele>109.0</ele><time>2026-03-28T17:03:50Z</time></trkpt><trkpt lat="44.05697937822348" lon="12.02275722967636"><ele>109.0</ele><time>2026-03-28T17:03:51Z</time></trkpt><trkpt lat="44.0571449279566" lon="12.022926067172165"><ele>109.0</ele><time>2026-03-28T17:03:52Z</time></trkpt><trkpt lat="44.05733238043972" lon="12.023070795397265"><ele>109.0</ele><time>2026-03-28T17:03:53Z</time></trkpt><trkpt lat="44.05754291815167" lon="12.02318685733456"><ele>108.5</ele><time>2026-03-28T17:03:54Z</time></trkpt><trkpt lat="44.05776598463103" lon="12.023271370331084"><ele>108.0</ele><time>2026-03-28T17:03:55Z</time></trkpt><trkpt lat="44.057997507774935" lon="12.02334327140997"><ele>108.0</ele><time>2026-03-28T17:03:56Z</time></trkpt><trkpt lat="44.05823700687865" lon="12.023430200217456"><ele>108.0</ele><time>2026-03-28T17:03:57Z</time></trkpt><trkpt lat="44.05847983027965" lon="12.023530890775552"><ele>107.5</ele><time>2026-03-28T17:03:58Z</time></trkpt><trkpt lat="44.058724192221675" lon="12.023644310168125"><ele>107.0</ele><time>2026-03-28T17:03:59Z</time></trkpt><trkpt lat="44.05896818171565" lon="12.023777049045705"><ele>106.0</ele><time>2026-03-28T17:04:00Z</time></trkpt><trkpt lat="44.059203087641045" lon="12.023912058823477"><ele>105.0</ele><time>2026-03-28T17:04:01Z</time></trkpt><trkpt lat="44.059438456394304" lon="12.024054818048928"><ele>108.5</ele><time>2026-03-28T17:04:02Z</time></trkpt><trkpt lat="44.059678743059216" lon="12.024198553552848"><ele>112.0</ele><time>2026-03-28T17:04:03Z</time></trkpt><trkpt lat="44.05992246859308" lon="12.024345799974634"><ele>109.0</ele><time>2026-03-28T17:04:04Z</time></trkpt><trkpt lat="44.06017341269941" lon="12.024513171363798"><ele>106.0</ele><time>2026-03-28T17:04:05Z</time></trkpt><trkpt lat="44.060423263422294" lon="12.02468401495785"><ele>106.0</ele><time>2026-03-28T17:04:06Z</time></trkpt><trkpt lat="44.06065244109776" lon="12.024838760064446"><ele>106.0</ele><time>2026-03-28T17:04:07Z</time></trkpt><trkpt lat="44.06087129091451" lon="12.024984599390862"><ele>108.5</ele><time>2026-03-28T17:04:08Z</time></trkpt><trkpt lat="44.0610876870852" lon="12.025125068541954"><ele>111.0</ele><time>2026-03-28T17:04:09Z</time></trkpt><trkpt lat="44.06130704078501" lon="12.025269601386247"><ele>111.0</ele><time>2026-03-28T17:04:10Z</time></trkpt><trkpt lat="44.06152252505252" lon="12.025414976515364"><ele>111.0</ele><time>2026-03-28T17:04:11Z</time></trkpt><trkpt lat="44.061748882273974" lon="12.025564151602277"><ele>110.0</ele><time>2026-03-28T17:04:12Z</time></trkpt><trkpt lat="44.06198070281535" lon="12.025718711624659"><ele>109.0</ele><time>2026-03-28T17:04:13Z</time></trkpt><trkpt lat="44.062209330510136" lon="12.025867070463693"><ele>111.0</ele><time>2026-03-28T17:04:14Z</time></trkpt><trkpt lat="44.0624533711107" lon="12.026028039474404"><ele>113.0</ele><time>2026-03-28T17:04:15Z</time></trkpt><trkpt lat="44.06269684460767" lon="12.026189645007024"><ele>113.0</ele><time>2026-03-28T17:04:16Z</time></trkpt><trkpt lat="44.06294080845616" lon="12.026347875320944"><ele>113.0</ele><time>2026-03-28T17:04:17Z</time></trkpt><trkpt lat="44.063175522572905" lon="12.026498860111856"><ele>114.0</ele><time>2026-03-28T17:04:18Z</time></trkpt><trkpt lat="44.06340681518704" lon="12.026638777217203"><ele>115.0</ele><time>2026-03-28T17:04:19Z</time></trkpt><trkpt lat="44.06364009961242" lon="12.02677329676482"><ele>115.0</ele><time>2026-03-28T17:04:20Z</time></trkpt><trkpt lat="44.0638656155163" lon="12.026896240958362"><ele>115.0</ele><time>2026-03-28T17:04:21Z</time></trkpt><trkpt lat="44.06408906605195" lon="12.027010375660874"><ele>114.5</ele><time>2026-03-28T17:04:22Z</time></trkpt><trkpt lat="44.064308878940274" lon="12.027121926800403"><ele>114.0</ele><time>2026-03-28T17:04:23Z</time></trkpt><trkpt lat="44.06452601164331" lon="12.027225241320224"><ele>114.0</ele><time>2026-03-28T17:04:24Z</time></trkpt><trkpt lat="44.06473775102599" lon="12.027332550356125"><ele>114.0</ele><time>2026-03-28T17:04:25Z</time></trkpt><trkpt lat="44.06496788517393" lon="12.02744598580645"><ele>114.0</ele><time>2026-03-28T17:04:26Z</time></trkpt><trkpt lat="44.0652056978918" lon="12.027576326911042"><ele>114.0</ele><time>2026-03-28T17:04:27Z</time></trkpt><trkpt lat="44.065450180860346" lon="12.027698297589678"><ele>114.0</ele><time>2026-03-28T17:04:28Z</time></trkpt><trkpt lat="44.065702214072054" lon="12.027827131648381"><ele>114.0</ele><time>2026-03-28T17:04:29Z</time></trkpt><trkpt lat="44.065963193670825" lon="12.027962167976417"><ele>113.0</ele><time>2026-03-28T17:04:30Z</time></trkpt><trkpt lat="44.06622964470587" lon="12.028101555715242"><ele>112.0</ele><time>2026-03-28T17:04:31Z</time></trkpt><trkpt lat="44.066493476828356" lon="12.028251482768196"><ele>113.0</ele><time>2026-03-28T17:04:32Z</time></trkpt><trkpt lat="44.06675304372746" lon="12.028421922709725"><ele>114.0</ele><time>2026-03-28T17:04:33Z</time></trkpt><trkpt lat="44.067018137984526" lon="12.028616879835619"><ele>114.0</ele><time>2026-03-28T17:04:34Z</time></trkpt><trkpt lat="44.06728287804985" lon="12.028817000798055"><ele>114.0</ele><time>2026-03-28T17:04:35Z</time></trkpt><trkpt lat="44.06755174314669" lon="12.029009621771854"><ele>114.5</ele><time>2026-03-28T17:04:36Z</time></trkpt><trkpt lat="44.06782345030853" lon="12.029215390416077"><ele>115.0</ele><time>2026-03-28T17:04:37Z</time></trkpt><trkpt lat="44.06807951099196" lon="12.029399355541097"><ele>114.0</ele><time>2026-03-28T17:04:38Z</time></trkpt><trkpt lat="44.06831173947091" lon="12.0295617942892"><ele>113.0</ele><time>2026-03-28T17:04:39Z</time></trkpt><trkpt lat="44.06851796201179" lon="12.029704332107364"><ele>113.0</ele><time>2026-03-28T17:04:40Z</time></trkpt><trkpt lat="44.068712213976816" lon="12.029841703846575"><ele>113.0</ele><time>2026-03-28T17:04:41Z</time></trkpt><trkpt lat="44.06889596116677" lon="12.029975691843612"><ele>113.0</ele><time>2026-03-28T17:04:42Z</time></trkpt><trkpt lat="44.06906826681176" lon="12.030102330183317"><ele>113.66666666666666</ele><time>2026-03-28T17:04:43Z</time></trkpt><trkpt lat="44.06923036975554" lon="12.030218732148368"><ele>114.33333333333334</ele><time>2026-03-28T17:04:44Z</time></trkpt><trkpt lat="44.06939218213831" lon="12.030341689296803"><ele>115.0</ele><time>2026-03-28T17:04:45Z</time></trkpt><trkpt lat="44.069546067499914" lon="12.030452059213415"><ele>115.0</ele><time>2026-03-28T17:04:46Z</time></trkpt><trkpt lat="44.069698365854435" lon="12.03056149235662"><ele>115.0</ele><time>2026-03-28T17:04:47Z</time></trkpt><trkpt lat="44.06985810544215" lon="12.030672804002117"><ele>115.0</ele><time>2026-03-28T17:04:48Z</time></trkpt><trkpt lat="44.070014738127895" lon="12.030783621241987"><ele>115.0</ele><time>2026-03-28T17:04:49Z</time></trkpt><trkpt lat="44.07016769052952" lon="12.030891840249996"><ele>115.0</ele><time>2026-03-28T17:04:50Z</time></trkpt><trkpt lat="44.07030809453673" lon="12.030997546722517"><ele>115.0</ele><time>2026-03-28T17:04:51Z</time></trkpt><trkpt lat="44.07045508704393" lon="12.031107834771497"><ele>115.0</ele><time>2026-03-28T17:04:52Z</time></trkpt><trkpt lat="44.07061082048762" lon="12.031218151735004"><ele>115.0</ele><time>2026-03-28T17:04:53Z</time></trkpt><trkpt lat="44.070768209668714" lon="12.031315284291706"><ele>115.0</ele><time>2026-03-28T17:04:54Z</time></trkpt><trkpt lat="44.07092164697226" lon="12.031411160075022"><ele>115.33333333333334</ele><time>2026-03-28T17:04:55Z</time></trkpt><trkpt lat="44.071082807719705" lon="12.03150025526486"><ele>115.66666666666666</ele><time>2026-03-28T17:04:56Z</time></trkpt><trkpt lat="44.07123397804758" lon="12.031580360294985"><ele>116.0</ele><time>2026-03-28T17:04:57Z</time></trkpt><trkpt lat="44.07138898192114" lon="12.031663972853417"><ele>116.0</ele><time>2026-03-28T17:04:58Z</time></trkpt><trkpt lat="44.07154370405728" lon="12.031742123693933"><ele>116.0</ele><time>2026-03-28T17:04:59Z</time></trkpt><trkpt lat="44.07172322670513" lon="12.031820016342984"><ele>116.0</ele><time>2026-03-28T17:05:00Z</time></trkpt><trkpt lat="44.071914419584516" lon="12.031907062498565"><ele>115.0</ele><time>2026-03-28T17:05:01Z</time></trkpt><trkpt lat="44.0721140230726" lon="12.032008480700028"><ele>114.0</ele><time>2026-03-28T17:05:02Z</time></trkpt><trkpt lat="44.07232912156912" lon="12.032114891258873"><ele>113.0</ele><time>2026-03-28T17:05:03Z</time></trkpt><trkpt lat="44.07255738290419" lon="12.032202944234834"><ele>109.0</ele><time>2026-03-28T17:05:04Z</time></trkpt><trkpt lat="44.07280398253338" lon="12.032283413897435"><ele>105.0</ele><time>2026-03-28T17:05:05Z</time></trkpt><trkpt lat="44.07306494653592" lon="12.032354949001274"><ele>99.0</ele><time>2026-03-28T17:05:06Z</time></trkpt><trkpt lat="44.073328065873355" lon="12.032425521326585"><ele>93.0</ele><time>2026-03-28T17:05:07Z</time></trkpt><trkpt lat="44.07359781803169" lon="12.032483929330503"><ele>93.0</ele><time>2026-03-28T17:05:08Z</time></trkpt><trkpt lat="44.07387354430434" lon="12.032527853559735"><ele>93.0</ele><time>2026-03-28T17:05:09Z</time></trkpt><trkpt lat="44.07415911382467" lon="12.032566067277541"><ele>93.0</ele><time>2026-03-28T17:05:10Z</time></trkpt><trkpt lat="44.07444493423121" lon="12.032598000092968"><ele>93.0</ele><time>2026-03-28T17:05:11Z</time></trkpt><trkpt lat="44.07473114479274" lon="12.032630812828213"><ele>96.5</ele><time>2026-03-28T17:05:12Z</time></trkpt><trkpt lat="44.07501255451433" lon="12.03266778672053"><ele>100.0</ele><time>2026-03-28T17:05:13Z</time></trkpt><trkpt lat="44.075293982501094" lon="12.032710606398412"><ele>100.0</ele><time>2026-03-28T17:05:14Z</time></trkpt><trkpt lat="44.07556644073653" lon="12.032752081746509"><ele>100.0</ele><time>2026-03-28T17:05:15Z</time></trkpt><trkpt lat="44.07583404010065" lon="12.032787645224522"><ele>100.0</ele><time>2026-03-28T17:05:16Z</time></trkpt><trkpt lat="44.076096560396785" lon="12.032820029664915"><ele>100.0</ele><time>2026-03-28T17:05:17Z</time></trkpt><trkpt lat="44.07634538642128" lon="12.03285405194727"><ele>100.0</ele><time>2026-03-28T17:05:18Z</time></trkpt><trkpt lat="44.07658575334428" lon="12.032893272816695"><ele>100.0</ele><time>2026-03-28T17:05:19Z</time></trkpt><trkpt lat="44.076822326733414" lon="12.032941113026105"><ele>101.0</ele><time>2026-03-28T17:05:20Z</time></trkpt><trkpt lat="44.077052637305236" lon="12.033001083516762"><ele>102.0</ele><time>2026-03-28T17:05:21Z</time></trkpt><trkpt lat="44.077279398743336" lon="12.03308357497633"><ele>103.0</ele><time>2026-03-28T17:05:22Z</time></trkpt><trkpt lat="44.07750695903778" lon="12.03318489856318"><ele>104.0</ele><time>2026-03-28T17:05:23Z</time></trkpt><trkpt lat="44.07774355876162" lon="12.033301838327695"><ele>101.5</ele><time>2026-03-28T17:05:24Z</time></trkpt><trkpt lat="44.07797916165466" lon="12.033427435515776"><ele>99.0</ele><time>2026-03-28T17:05:25Z</time></trkpt><trkpt lat="44.078200957231935" lon="12.03356313731273"><ele>101.0</ele><time>2026-03-28T17:05:26Z</time></trkpt><trkpt lat="44.07841921582563" lon="12.033710315523152"><ele>103.0</ele><time>2026-03-28T17:05:27Z</time></trkpt><trkpt lat="44.078638070570236" lon="12.033871743754247"><ele>103.0</ele><time>2026-03-28T17:05:28Z</time></trkpt><trkpt lat="44.07884400326524" lon="12.034038523680803"><ele>103.0</ele><time>2026-03-28T17:05:29Z</time></trkpt><trkpt lat="44.07903901190271" lon="12.034217654730009"><ele>104.0</ele><time>2026-03-28T17:05:30Z</time></trkpt><trkpt lat="44.079231170148" lon="12.034400866473225"><ele>105.0</ele><time>2026-03-28T17:05:31Z</time></trkpt><trkpt lat="44.07941488934414" lon="12.034580715619768"><ele>105.0</ele><time>2026-03-28T17:05:32Z</time></trkpt><trkpt lat="44.079591643332286" lon="12.034767934090493"><ele>105.0</ele><time>2026-03-28T17:05:33Z</time></trkpt><trkpt lat="44.079758907305084" lon="12.034956880880141"><ele>105.0</ele><time>2026-03-28T17:05:34Z</time></trkpt><trkpt lat="44.07992519058221" lon="12.0351560466356"><ele>105.5</ele><time>2026-03-28T17:05:35Z</time></trkpt><trkpt lat="44.08009747362334" lon="12.035361914226915"><ele>106.0</ele><time>2026-03-28T17:05:36Z</time></trkpt><trkpt lat="44.08028102100689" lon="12.035569361025232"><ele>106.0</ele><time>2026-03-28T17:05:37Z</time></trkpt><trkpt lat="44.08047237833949" lon="12.035786680027481"><ele>106.0</ele><time>2026-03-28T17:05:38Z</time></trkpt><trkpt lat="44.08067285916968" lon="12.036006853984484"><ele>103.5</ele><time>2026-03-28T17:05:39Z</time></trkpt><trkpt lat="44.080877946321074" lon="12.036231935154651"><ele>101.0</ele><time>2026-03-28T17:05:40Z</time></trkpt><trkpt lat="44.081088572391394" lon="12.036473853802272"><ele>101.0</ele><time>2026-03-28T17:05:41Z</time></trkpt><trkpt lat="44.08130682441073" lon="12.036721670574684"><ele>101.0</ele><time>2026-03-28T17:05:42Z</time></trkpt><trkpt lat="44.0815275827998" lon="12.0369727673959"><ele>100.0</ele><time>2026-03-28T17:05:43Z</time></trkpt><trkpt lat="44.08175223089624" lon="12.037223248855033"><ele>99.0</ele><time>2026-03-28T17:05:44Z</time></trkpt><trkpt lat="44.08197688189521" lon="12.037470273327164"><ele>99.0</ele><time>2026-03-28T17:05:45Z</time></trkpt><trkpt lat="44.08220920130108" lon="12.037721694923983"><ele>99.0</ele><time>2026-03-28T17:05:46Z</time></trkpt><trkpt lat="44.08244337620636" lon="12.03796453832077"><ele>100.0</ele><time>2026-03-28T17:05:47Z</time></trkpt><trkpt lat="44.08268096083855" lon="12.038207778955925"><ele>101.0</ele><time>2026-03-28T17:05:48Z</time></trkpt><trkpt lat="44.08291361027571" lon="12.038455131135832"><ele>101.0</ele><time>2026-03-28T17:05:49Z</time></trkpt><trkpt lat="44.08314849819342" lon="12.038695952272167"><ele>101.0</ele><time>2026-03-28T17:05:50Z</time></trkpt><trkpt lat="44.08338394363087" lon="12.038935567354681"><ele>97.0</ele><time>2026-03-28T17:05:51Z</time></trkpt><trkpt lat="44.08361909828376" lon="12.039171720917551"><ele>93.0</ele><time>2026-03-28T17:05:52Z</time></trkpt><trkpt lat="44.083849523856564" lon="12.039400305366303"><ele>93.0</ele><time>2026-03-28T17:05:53Z</time></trkpt><trkpt lat="44.08407745679765" lon="12.039632643206804"><ele>93.0</ele><time>2026-03-28T17:05:54Z</time></trkpt><trkpt lat="44.08430638469291" lon="12.039862412453008"><ele>90.5</ele><time>2026-03-28T17:05:55Z</time></trkpt><trkpt lat="44.08454099487479" lon="12.040091086027537"><ele>88.0</ele><time>2026-03-28T17:05:56Z</time></trkpt><trkpt lat="44.084780618816346" lon="12.040314961667393"><ele>90.0</ele><time>2026-03-28T17:05:57Z</time></trkpt><trkpt lat="44.08502439194579" lon="12.040536716087582"><ele>92.0</ele><time>2026-03-28T17:05:58Z</time></trkpt><trkpt lat="44.085271100801826" lon="12.040760126672764"><ele>91.5</ele><time>2026-03-28T17:05:59Z</time></trkpt><trkpt lat="44.085511015741545" lon="12.040971254189362"><ele>91.0</ele><time>2026-03-28T17:06:00Z</time></trkpt><trkpt lat="44.08575131450155" lon="12.041173514257812"><ele>94.5</ele><time>2026-03-28T17:06:01Z</time></trkpt><trkpt lat="44.08600638005887" lon="12.04137990639286"><ele>98.0</ele><time>2026-03-28T17:06:02Z</time></trkpt><trkpt lat="44.0862645444536" lon="12.04158487781347"><ele>96.5</ele><time>2026-03-28T17:06:03Z</time></trkpt><trkpt lat="44.086519859172995" lon="12.041784332330693"><ele>95.0</ele><time>2026-03-28T17:06:04Z</time></trkpt><trkpt lat="44.086774905488696" lon="12.041992272441627"><ele>98.0</ele><time>2026-03-28T17:06:05Z</time></trkpt><trkpt lat="44.087033588568914" lon="12.042211774833088"><ele>101.0</ele><time>2026-03-28T17:06:06Z</time></trkpt><trkpt lat="44.08728860749181" lon="12.042431840988556"><ele>100.0</ele><time>2026-03-28T17:06:07Z</time></trkpt><trkpt lat="44.087543879544505" lon="12.04265214788429"><ele>99.0</ele><time>2026-03-28T17:06:08Z</time></trkpt><trkpt lat="44.08778966825171" lon="12.04286078573354"><ele>99.0</ele><time>2026-03-28T17:06:09Z</time></trkpt><trkpt lat="44.08803073994523" lon="12.043064501758579"><ele>99.0</ele><time>2026-03-28T17:06:10Z</time></trkpt><trkpt lat="44.08826778035498" lon="12.043259508983137"><ele>99.0</ele><time>2026-03-28T17:06:11Z</time></trkpt><trkpt lat="44.08850068323421" lon="12.043448357317676"><ele>99.0</ele><time>2026-03-28T17:06:12Z</time></trkpt><trkpt lat="44.08873169019466" lon="12.043635916636825"><ele>99.0</ele><time>2026-03-28T17:06:13Z</time></trkpt><trkpt lat="44.08895207413053" lon="12.043820008214253"><ele>99.0</ele><time>2026-03-28T17:06:14Z</time></trkpt><trkpt lat="44.089173267248924" lon="12.044006582854447"><ele>99.0</ele><time>2026-03-28T17:06:15Z</time></trkpt><trkpt lat="44.08940430723584" lon="12.04419889093777"><ele>99.0</ele><time>2026-03-28T17:06:16Z</time></trkpt><trkpt lat="44.08962445444638" lon="12.044378031006273"><ele>99.0</ele><time>2026-03-28T17:06:17Z</time></trkpt><trkpt lat="44.08982355627997" lon="12.044536937351818"><ele>99.0</ele><time>2026-03-28T17:06:18Z</time></trkpt><trkpt lat="44.09000422643257" lon="12.044689885380937"><ele>99.0</ele><time>2026-03-28T17:06:19Z</time></trkpt><trkpt lat="44.090182126263215" lon="12.044832004781059"><ele>98.66666666666666</ele><time>2026-03-28T17:06:20Z</time></trkpt><trkpt lat="44.09036191638224" lon="12.044966166890552"><ele>98.33333333333333</ele><time>2026-03-28T17:06:21Z</time></trkpt><trkpt lat="44.09053016767415" lon="12.045087768019288"><ele>98.0</ele><time>2026-03-28T17:06:22Z</time></trkpt><trkpt lat="44.09068720429026" lon="12.045192348510046"><ele>99.33333333333333</ele><time>2026-03-28T17:06:23Z</time></trkpt><trkpt lat="44.09083028115379" lon="12.045290535549789"><ele>100.66666666666666</ele><time>2026-03-28T17:06:24Z</time></trkpt><trkpt lat="44.09097216783297" lon="12.045389859443183"><ele>102.0</ele><time>2026-03-28T17:06:25Z</time></trkpt><trkpt lat="44.091101095274816" lon="12.045485458585777"><ele>102.0</ele><time>2026-03-28T17:06:26Z</time></trkpt><trkpt lat="44.09121307096062" lon="12.045575124582289"><ele>102.0</ele><time>2026-03-28T17:06:27Z</time></trkpt><trkpt lat="44.091301275125645" lon="12.045701875433442"><ele>102.0</ele><time>2026-03-28T17:06:28Z</time></trkpt><trkpt lat="44.09138434704517" lon="12.045866238004509"><ele>102.0</ele><time>2026-03-28T17:06:29Z</time></trkpt><trkpt lat="44.09149505857458" lon="12.046004889471071"><ele>102.33333333333334</ele><time>2026-03-28T17:06:30Z</time></trkpt><trkpt lat="44.09164134352804" lon="12.046109750528808"><ele>102.66666666666667</ele><time>2026-03-28T17:06:31Z</time></trkpt><trkpt lat="44.09178894058944" lon="12.046186490955892"><ele>103.0</ele><time>2026-03-28T17:06:32Z</time></trkpt><trkpt lat="44.09192404290867" lon="12.046255110768039"><ele>103.0</ele><time>2026-03-28T17:06:33Z</time></trkpt><trkpt lat="44.09203524985006" lon="12.046342639527237"><ele>103.0</ele><time>2026-03-28T17:06:34Z</time></trkpt><trkpt lat="44.092148874694075" lon="12.046449067030673"><ele>103.0</ele><time>2026-03-28T17:06:35Z</time></trkpt><trkpt lat="44.092277701153456" lon="12.046564882359101"><ele>103.0</ele><time>2026-03-28T17:06:36Z</time></trkpt><trkpt lat="44.09242943953567" lon="12.046697904071399"><ele>103.33333333333334</ele><time>2026-03-28T17:06:37Z</time></trkpt><trkpt lat="44.092586734021054" lon="12.046840940218765"><ele>103.66666666666666</ele><time>2026-03-28T17:06:38Z</time></trkpt><trkpt lat="44.09276050747289" lon="12.046977773313973"><ele>104.0</ele><time>2026-03-28T17:06:39Z</time></trkpt><trkpt lat="44.092932261587364" lon="12.047120962573988"><ele>104.0</ele><time>2026-03-28T17:06:40Z</time></trkpt><trkpt lat="44.09310356056471" lon="12.047266510787264"><ele>104.0</ele><time>2026-03-28T17:06:41Z</time></trkpt><trkpt lat="44.09327766362777" lon="12.047412441312956"><ele>104.0</ele><time>2026-03-28T17:06:42Z</time></trkpt><trkpt lat="44.0934427537694" lon="12.047551375257822"><ele>103.66666666666666</ele><time>2026-03-28T17:06:43Z</time></trkpt><trkpt lat="44.09361114301913" lon="12.047694407664107"><ele>103.33333333333334</ele><time>2026-03-28T17:06:44Z</time></trkpt><trkpt lat="44.09377319497863" lon="12.047838436776559"><ele>103.0</ele><time>2026-03-28T17:06:45Z</time></trkpt><trkpt lat="44.093936648736424" lon="12.04797516072473"><ele>102.33333333333334</ele><time>2026-03-28T17:06:46Z</time></trkpt><trkpt lat="44.09409177728353" lon="12.048106903100672"><ele>101.66666666666666</ele><time>2026-03-28T17:06:47Z</time></trkpt><trkpt lat="44.09423947010636" lon="12.048235072575817"><ele>101.0</ele><time>2026-03-28T17:06:48Z</time></trkpt><trkpt lat="44.094372293291684" lon="12.048360172321226"><ele>100.75</ele><time>2026-03-28T17:06:49Z</time></trkpt><trkpt lat="44.09449700804877" lon="12.048461574957315"><ele>100.5</ele><time>2026-03-28T17:06:50Z</time></trkpt><trkpt lat="44.094637876788035" lon="12.048556177058053"><ele>100.25</ele><time>2026-03-28T17:06:51Z</time></trkpt><trkpt lat="44.09476638999991" lon="12.048635965234164"><ele>100.0</ele><time>2026-03-28T17:06:52Z</time></trkpt><trkpt lat="44.094901413802106" lon="12.048696952401986"><ele>99.5</ele><time>2026-03-28T17:06:53Z</time></trkpt><trkpt lat="44.095031345089986" lon="12.048748325566066"><ele>99.0</ele><time>2026-03-28T17:06:54Z</time></trkpt><trkpt lat="44.09515623158648" lon="12.04879257166247"><ele>98.5</ele><time>2026-03-28T17:06:55Z</time></trkpt><trkpt lat="44.09528302164521" lon="12.048829419922669"><ele>98.0</ele><time>2026-03-28T17:06:56Z</time></trkpt><trkpt lat="44.095412869837716" lon="12.048866342934144"><ele>98.0</ele><time>2026-03-28T17:06:57Z</time></trkpt><trkpt lat="44.095551581199324" lon="12.048911438059859"><ele>98.0</ele><time>2026-03-28T17:06:58Z</time></trkpt><trkpt lat="44.09569102880363" lon="12.048960500380103"><ele>98.0</ele><time>2026-03-28T17:06:59Z</time></trkpt><trkpt lat="44.09583433265173" lon="12.04901233422456"><ele>98.0</ele><time>2026-03-28T17:07:00Z</time></trkpt><trkpt lat="44.09598196061864" lon="12.049052919298559"><ele>97.66666666666666</ele><time>2026-03-28T17:07:01Z</time></trkpt><trkpt lat="44.09613693475344" lon="12.049101368935364"><ele>97.33333333333334</ele><time>2026-03-28T17:07:02Z</time></trkpt><trkpt lat="44.096305505681684" lon="12.049148676259119"><ele>97.0</ele><time>2026-03-28T17:07:03Z</time></trkpt><trkpt lat="44.09647791840895" lon="12.049191591231065"><ele>95.33333333333334</ele><time>2026-03-28T17:07:04Z</time></trkpt><trkpt lat="44.09665118610965" lon="12.049246676977463"><ele>93.66666666666667</ele><time>2026-03-28T17:07:05Z</time></trkpt><trkpt lat="44.096830321755576" lon="12.04930155765006"><ele>92.0</ele><time>2026-03-28T17:07:06Z</time></trkpt><trkpt lat="44.09701301589539" lon="12.049348998578099"><ele>92.0</ele><time>2026-03-28T17:07:07Z</time></trkpt><trkpt lat="44.09718120542345" lon="12.049393579142603"><ele>92.0</ele><time>2026-03-28T17:07:08Z</time></trkpt><trkpt lat="44.09734431132366" lon="12.049453670735721"><ele>92.0</ele><time>2026-03-28T17:07:09Z</time></trkpt><trkpt lat="44.09751186708762" lon="12.049512260911575"><ele>91.75</ele><time>2026-03-28T17:07:10Z</time></trkpt><trkpt lat="44.09766480587365" lon="12.049559707598432"><ele>91.5</ele><time>2026-03-28T17:07:11Z</time></trkpt><trkpt lat="44.097806675988764" lon="12.049596691655015"><ele>91.25</ele><time>2026-03-28T17:07:12Z</time></trkpt><trkpt lat="44.097918187117465" lon="12.049629996309132"><ele>91.0</ele><time>2026-03-28T17:07:13Z</time></trkpt><trkpt lat="44.09800471699309" lon="12.049656041139624"><ele>91.0</ele><time>2026-03-28T17:07:14Z</time></trkpt><trkpt lat="44.09808790515944" lon="12.049686131582895"><ele>91.0</ele><time>2026-03-28T17:07:16Z</time></trkpt><trkpt lat="44.098120678120274" lon="12.049545899086757"><ele>91.0</ele><time>2026-03-28T17:07:17Z</time></trkpt><trkpt lat="44.09811779532788" lon="12.049417729213863"><ele>91.0</ele><time>2026-03-28T17:07:18Z</time></trkpt><trkpt lat="44.098141140966405" lon="12.04925019642891"><ele>91.0</ele><time>2026-03-28T17:07:19Z</time></trkpt><trkpt lat="44.09815243249938" lon="12.049058699177756"><ele>91.25</ele><time>2026-03-28T17:07:20Z</time></trkpt><trkpt lat="44.098162543783246" lon="12.048845897266828"><ele>91.5</ele><time>2026-03-28T17:07:21Z</time></trkpt><trkpt lat="44.09817079809579" lon="12.048632286618128"><ele>91.75</ele><time>2026-03-28T17:07:22Z</time></trkpt><trkpt lat="44.09817649310738" lon="12.048447001363758"><ele>92.0</ele><time>2026-03-28T17:07:23Z</time></trkpt><trkpt lat="44.09816496037449" lon="12.04828576531302"><ele>93.39999999999999</ele><time>2026-03-28T17:07:24Z</time></trkpt><trkpt lat="44.09817187581081" lon="12.048144890293386"><ele>94.8</ele><time>2026-03-28T17:07:25Z</time></trkpt><trkpt lat="44.09818693945044" lon="12.048036195472466"><ele>96.2</ele><time>2026-03-28T17:07:26Z</time></trkpt><trkpt lat="44.09818085102823" lon="12.04789918283632"><ele>97.6</ele><time>2026-03-28T17:07:30Z</time></trkpt><trkpt lat="44.098039891502026" lon="12.047885251017934"><ele>99.0</ele><time>2026-03-28T17:07:33Z</time></trkpt><trkpt lat="44.09793415951092" lon="12.047890628083683"><ele>99.0</ele><time>2026-03-28T17:07:35Z</time></trkpt><trkpt lat="44.097828307328534" lon="12.04787878019775"><ele>99.0</ele><time>2026-03-28T17:07:36Z</time></trkpt><trkpt lat="44.09769871842744" lon="12.047852641381567"><ele>99.0</ele><time>2026-03-28T17:07:37Z</time></trkpt><trkpt lat="44.09756718836897" lon="12.04782388939219"><ele>99.0</ele><time>2026-03-28T17:07:38Z</time></trkpt><trkpt lat="44.09745309279572" lon="12.047813596516047"><ele>98.2</ele><time>2026-03-28T17:07:39Z</time></trkpt><trkpt lat="44.09735459850156" lon="12.047805824109336"><ele>97.4</ele><time>2026-03-28T17:07:40Z</time></trkpt><trkpt lat="44.09725151434371" lon="12.047787230144955"><ele>96.6</ele><time>2026-03-28T17:07:41Z</time></trkpt><trkpt lat="44.0971534014802" lon="12.047770227603682"><ele>95.8</ele><time>2026-03-28T17:07:42Z</time></trkpt><trkpt lat="44.09705338769656" lon="12.047759433781595"><ele>95.0</ele><time>2026-03-28T17:07:43Z</time></trkpt><trkpt lat="44.09697841138655" lon="12.047725765046277"><ele>95.0</ele><time>2026-03-28T17:07:44Z</time></trkpt><trkpt lat="44.09690289519931" lon="12.047708119028439"><ele>95.0</ele><time>2026-03-28T17:07:45Z</time></trkpt><trkpt lat="44.09683302118646" lon="12.047688557839777"><ele>95.0</ele><time>2026-03-28T17:07:46Z</time></trkpt><trkpt lat="44.096769991663926" lon="12.047667492067845"><ele>95.0</ele><time>2026-03-28T17:07:47Z</time></trkpt><trkpt lat="44.09668480092268" lon="12.047628593235947"><ele>95.0</ele><time>2026-03-28T17:07:49Z</time></trkpt><trkpt lat="44.09675914845098" lon="12.047664349731347"><ele>95.0</ele><time>2026-03-28T17:07:58Z</time></trkpt><trkpt lat="44.09682950301743" lon="12.047687434997172"><ele>95.0</ele><time>2026-03-28T17:08:00Z</time></trkpt><trkpt lat="44.09693638291581" lon="12.047715944155783"><ele>95.0</ele><time>2026-03-28T17:08:02Z</time></trkpt><trkpt lat="44.09699880593825" lon="12.047730530654718"><ele>95.0</ele><time>2026-03-28T17:08:03Z</time></trkpt><trkpt lat="44.09711984633271" lon="12.047775291892952"><ele>95.0</ele><time>2026-03-28T17:08:04Z</time></trkpt><trkpt lat="44.09721207777076" lon="12.047779480411142"><ele>95.0</ele><time>2026-03-28T17:08:05Z</time></trkpt><trkpt lat="44.09729895490121" lon="12.047791938908386"><ele>95.0</ele><time>2026-03-28T17:08:06Z</time></trkpt><trkpt lat="44.09739225955754" lon="12.04780825327796"><ele>95.0</ele><time>2026-03-28T17:08:07Z</time></trkpt><trkpt lat="44.09749591583953" lon="12.04781196234062"><ele>95.0</ele><time>2026-03-28T17:08:08Z</time></trkpt><trkpt lat="44.097593867260564" lon="12.047827599546876"><ele>95.0</ele><time>2026-03-28T17:08:09Z</time></trkpt><trkpt lat="44.09769837770079" lon="12.047842992534333"><ele>95.0</ele><time>2026-03-28T17:08:10Z</time></trkpt><trkpt lat="44.09781012374379" lon="12.047855201280518"><ele>95.66666666666667</ele><time>2026-03-28T17:08:11Z</time></trkpt><trkpt lat="44.097912348753674" lon="12.04786828798754"><ele>96.33333333333334</ele><time>2026-03-28T17:08:12Z</time></trkpt><trkpt lat="44.09799532222322" lon="12.04788149126175"><ele>97.0</ele><time>2026-03-28T17:08:13Z</time></trkpt><trkpt lat="44.09807096800813" lon="12.047901268947365"><ele>97.66666666666667</ele><time>2026-03-28T17:08:14Z</time></trkpt><trkpt lat="44.09816739382115" lon="12.047938151756588"><ele>98.33333333333333</ele><time>2026-03-28T17:08:16Z</time></trkpt><trkpt lat="44.098206725573895" lon="12.048020792523829"><ele>99.0</ele><time>2026-03-28T17:08:19Z</time></trkpt><trkpt lat="44.09825198375391" lon="12.04794645409597"><ele>99.0</ele><time>2026-03-28T17:08:22Z</time></trkpt><trkpt lat="44.098146200999714" lon="12.047832956027175"><ele>99.0</ele><time>2026-03-28T17:08:24Z</time></trkpt><trkpt lat="44.098073453636424" lon="12.047751680991253"><ele>99.0</ele><time>2026-03-28T17:08:25Z</time></trkpt><trkpt lat="44.09799821802561" lon="12.047626749024149"><ele>99.0</ele><time>2026-03-28T17:08:26Z</time></trkpt><trkpt lat="44.09790030938229" lon="12.047470309559655"><ele>102.0</ele><time>2026-03-28T17:08:27Z</time></trkpt><trkpt lat="44.09780021543129" lon="12.047311668086936"><ele>105.0</ele><time>2026-03-28T17:08:28Z</time></trkpt><trkpt lat="44.0977184090863" lon="12.04716961387634"><ele>108.0</ele><time>2026-03-28T17:08:29Z</time></trkpt><trkpt lat="44.097649422880366" lon="12.047038248236179"><ele>111.0</ele><time>2026-03-28T17:08:30Z</time></trkpt><trkpt lat="44.097590824953" lon="12.046913240860981"><ele>111.0</ele><time>2026-03-28T17:08:31Z</time></trkpt><trkpt lat="44.097552501345334" lon="12.046816108817836"><ele>111.0</ele><time>2026-03-28T17:08:32Z</time></trkpt><trkpt lat="44.097549849245155" lon="12.046710598466774"><ele>111.0</ele><time>2026-03-28T17:08:34Z</time></trkpt><trkpt lat="44.09763541013384" lon="12.046631906808795"><ele>111.0</ele><time>2026-03-28T17:08:36Z</time></trkpt><trkpt lat="44.09770879698559" lon="12.046631309857464"><ele>111.0</ele><time>2026-03-28T17:08:37Z</time></trkpt><trkpt lat="44.09780824592151" lon="12.046647420289228"><ele>111.0</ele><time>2026-03-28T17:08:38Z</time></trkpt><trkpt lat="44.09792005210693" lon="12.046657576756168"><ele>114.25</ele><time>2026-03-28T17:08:39Z</time></trkpt><trkpt lat="44.09805484906197" lon="12.04662273850263"><ele>117.5</ele><time>2026-03-28T17:08:40Z</time></trkpt><trkpt lat="44.09819223493005" lon="12.046562579651354"><ele>120.75</ele><time>2026-03-28T17:08:41Z</time></trkpt><trkpt lat="44.09833062381048" lon="12.046513370071063"><ele>124.0</ele><time>2026-03-28T17:08:42Z</time></trkpt><trkpt lat="44.09847718519079" lon="12.046443385487084"><ele>126.0</ele><time>2026-03-28T17:08:43Z</time></trkpt><trkpt lat="44.09863023426543" lon="12.046372599534193"><ele>128.0</ele><time>2026-03-28T17:08:44Z</time></trkpt><trkpt lat="44.098749916918756" lon="12.046313597699259"><ele>130.0</ele><time>2026-03-28T17:08:45Z</time></trkpt><trkpt lat="44.09883615283142" lon="12.046253003169978"><ele>132.0</ele><time>2026-03-28T17:08:46Z</time></trkpt><trkpt lat="44.098894721736414" lon="12.046191144076452"><ele>132.0</ele><time>2026-03-28T17:08:47Z</time></trkpt><trkpt lat="44.09893838845269" lon="12.046112479338658"><ele>132.0</ele><time>2026-03-28T17:08:48Z</time></trkpt><trkpt lat="44.09895090969767" lon="12.04595058753239"><ele>132.0</ele><time>2026-03-28T17:08:50Z</time></trkpt><trkpt lat="44.09892993505217" lon="12.04583085718608"><ele>132.0</ele><time>2026-03-28T17:08:51Z</time></trkpt><trkpt lat="44.098854250789564" lon="12.04568855579622"><ele>132.0</ele><time>2026-03-28T17:08:52Z</time></trkpt><trkpt lat="44.09875540806057" lon="12.045556605399694"><ele>136.5</ele><time>2026-03-28T17:08:53Z</time></trkpt><trkpt lat="44.09864469070138" lon="12.045415442407574"><ele>141.0</ele><time>2026-03-28T17:08:54Z</time></trkpt><trkpt lat="44.09853704578813" lon="12.045279366506614"><ele>145.5</ele><time>2026-03-28T17:08:55Z</time></trkpt><trkpt lat="44.09843279970523" lon="12.04514964800593"><ele>150.0</ele><time>2026-03-28T17:08:56Z</time></trkpt><trkpt lat="44.09831383047253" lon="12.045005672666413"><ele>150.5</ele><time>2026-03-28T17:08:57Z</time></trkpt><trkpt lat="44.0981763513105" lon="12.044870014584001"><ele>151.0</ele><time>2026-03-28T17:08:58Z</time></trkpt><trkpt lat="44.098073600439875" lon="12.044742126016198"><ele>151.5</ele><time>2026-03-28T17:08:59Z</time></trkpt><trkpt lat="44.097982024042906" lon="12.044647797411493"><ele>152.0</ele><time>2026-03-28T17:09:00Z</time></trkpt><trkpt lat="44.097891162738456" lon="12.044567694726805"><ele>152.0</ele><time>2026-03-28T17:09:01Z</time></trkpt><trkpt lat="44.09781581060916" lon="12.044487707321787"><ele>152.0</ele><time>2026-03-28T17:09:02Z</time></trkpt><trkpt lat="44.09775488894072" lon="12.04440912830376"><ele>152.0</ele><time>2026-03-28T17:09:03Z</time></trkpt><trkpt lat="44.09771983826145" lon="12.044323708966436"><ele>152.0</ele><time>2026-03-28T17:09:04Z</time></trkpt><trkpt lat="44.097707713282006" lon="12.044226116655624"><ele>152.0</ele><time>2026-03-28T17:09:05Z</time></trkpt><trkpt lat="44.09776598257191" lon="12.044046386079804"><ele>152.0</ele><time>2026-03-28T17:09:07Z</time></trkpt><trkpt lat="44.09778575301218" lon="12.043907741123087"><ele>152.0</ele><time>2026-03-28T17:09:08Z</time></trkpt><trkpt lat="44.09782727451892" lon="12.04376810930792"><ele>152.0</ele><time>2026-03-28T17:09:09Z</time></trkpt><trkpt lat="44.09787030189994" lon="12.043645756551332"><ele>152.0</ele><time>2026-03-28T17:09:10Z</time></trkpt><trkpt lat="44.09791722561558" lon="12.043571635762355"><ele>152.0</ele><time>2026-03-28T17:09:11Z</time></trkpt><trkpt lat="44.09796153881539" lon="12.043509054663527"><ele>152.0</ele><time>2026-03-28T17:09:12Z</time></trkpt><trkpt lat="44.098016006273674" lon="12.04345657082949"><ele>152.0</ele><time>2026-03-28T17:09:13Z</time></trkpt><trkpt lat="44.0980877412525" lon="12.043421910281193"><ele>152.0</ele><time>2026-03-28T17:09:14Z</time></trkpt><trkpt lat="44.09817009450979" lon="12.043382602493992"><ele>152.0</ele><time>2026-03-28T17:09:15Z</time></trkpt><trkpt lat="44.09827120289668" lon="12.04333910334952"><ele>152.0</ele><time>2026-03-28T17:09:16Z</time></trkpt><trkpt lat="44.098383714159155" lon="12.043271941859018"><ele>152.0</ele><time>2026-03-28T17:09:17Z</time></trkpt><trkpt lat="44.09849569671145" lon="12.043208500187681"><ele>153.6</ele><time>2026-03-28T17:09:18Z</time></trkpt><trkpt lat="44.09858394273219" lon="12.04315188813685"><ele>155.2</ele><time>2026-03-28T17:09:19Z</time></trkpt><trkpt lat="44.09867138006872" lon="12.043083262369194"><ele>156.8</ele><time>2026-03-28T17:09:20Z</time></trkpt><trkpt lat="44.09876319330035" lon="12.043015786636365"><ele>158.4</ele><time>2026-03-28T17:09:21Z</time></trkpt><trkpt lat="44.098852194930075" lon="12.04293777517117"><ele>160.0</ele><time>2026-03-28T17:09:22Z</time></trkpt><trkpt lat="44.09894358252595" lon="12.04283683477509"><ele>160.0</ele><time>2026-03-28T17:09:23Z</time></trkpt><trkpt lat="44.09904168013512" lon="12.04271228994141"><ele>160.0</ele><time>2026-03-28T17:09:24Z</time></trkpt><trkpt lat="44.09915296506682" lon="12.042576507023483"><ele>160.0</ele><time>2026-03-28T17:09:25Z</time></trkpt><trkpt lat="44.09925859368161" lon="12.042448337795694"><ele>160.0</ele><time>2026-03-28T17:09:26Z</time></trkpt><trkpt lat="44.09937025580273" lon="12.04234061555131"><ele>160.5</ele><time>2026-03-28T17:09:27Z</time></trkpt><trkpt lat="44.09946841920096" lon="12.042225641668342"><ele>161.0</ele><time>2026-03-28T17:09:28Z</time></trkpt><trkpt lat="44.099571645521124" lon="12.042118958690548"><ele>161.5</ele><time>2026-03-28T17:09:29Z</time></trkpt><trkpt lat="44.099676053338506" lon="12.042011220653945"><ele>162.0</ele><time>2026-03-28T17:09:30Z</time></trkpt><trkpt lat="44.099777848484834" lon="12.041898539078769"><ele>162.0</ele><time>2026-03-28T17:09:31Z</time></trkpt><trkpt lat="44.09987245035236" lon="12.04178629390908"><ele>162.0</ele><time>2026-03-28T17:09:32Z</time></trkpt><trkpt lat="44.09997332671238" lon="12.041704853721845"><ele>162.0</ele><time>2026-03-28T17:09:33Z</time></trkpt><trkpt lat="44.100071022840126" lon="12.041620189899215"><ele>162.0</ele><time>2026-03-28T17:09:34Z</time></trkpt><trkpt lat="44.100176502144876" lon="12.041557103280839"><ele>163.25</ele><time>2026-03-28T17:09:35Z</time></trkpt><trkpt lat="44.1002960797621" lon="12.041539218626816"><ele>164.5</ele><time>2026-03-28T17:09:36Z</time></trkpt><trkpt lat="44.1004213655975" lon="12.041555306825922"><ele>165.75</ele><time>2026-03-28T17:09:37Z</time></trkpt><trkpt lat="44.100549255821505" lon="12.041579840462715"><ele>167.0</ele><time>2026-03-28T17:09:38Z</time></trkpt><trkpt lat="44.100687950491995" lon="12.041592186443404"><ele>168.75</ele><time>2026-03-28T17:09:39Z</time></trkpt><trkpt lat="44.100824994351015" lon="12.04161113923251"><ele>170.5</ele><time>2026-03-28T17:09:40Z</time></trkpt><trkpt lat="44.10096998066559" lon="12.041605491798796"><ele>172.25</ele><time>2026-03-28T17:09:41Z</time></trkpt><trkpt lat="44.101123287256144" lon="12.041580621698504"><ele>174.0</ele><time>2026-03-28T17:09:42Z</time></trkpt><trkpt lat="44.10128608058219" lon="12.041543135858126"><ele>174.0</ele><time>2026-03-28T17:09:43Z</time></trkpt><trkpt lat="44.10144498304841" lon="12.041494707225304"><ele>174.0</ele><time>2026-03-28T17:09:44Z</time></trkpt><trkpt lat="44.1015809040357" lon="12.041470761602863"><ele>174.0</ele><time>2026-03-28T17:09:45Z</time></trkpt><trkpt lat="44.10169128371137" lon="12.041411559569342"><ele>174.0</ele><time>2026-03-28T17:09:46Z</time></trkpt><trkpt lat="44.10179093423282" lon="12.04138112617959"><ele>176.0</ele><time>2026-03-28T17:09:47Z</time></trkpt><trkpt lat="44.101883730709" lon="12.041355249710358"><ele>178.0</ele><time>2026-03-28T17:09:48Z</time></trkpt><trkpt lat="44.10195978877377" lon="12.041325539114315"><ele>180.0</ele><time>2026-03-28T17:09:49Z</time></trkpt><trkpt lat="44.102061180261394" lon="12.04126125657973"><ele>182.0</ele><time>2026-03-28T17:09:51Z</time></trkpt><trkpt lat="44.10212246835735" lon="12.041213498040035"><ele>184.0</ele><time>2026-03-28T17:09:53Z</time></trkpt><trkpt lat="44.10205933051197" lon="12.04126065182367"><ele>186.0</ele><time>2026-03-28T17:10:00Z</time></trkpt><trkpt lat="44.10197695452203" lon="12.04126954157877"><ele>186.0</ele><time>2026-03-28T17:10:01Z</time></trkpt><trkpt lat="44.101897777874576" lon="12.041340392388006"><ele>186.0</ele><time>2026-03-28T17:10:02Z</time></trkpt><trkpt lat="44.10180321538754" lon="12.0413914772596"><ele>186.0</ele><time>2026-03-28T17:10:03Z</time></trkpt><trkpt lat="44.10169856062149" lon="12.041426481640503"><ele>186.0</ele><time>2026-03-28T17:10:04Z</time></trkpt><trkpt lat="44.101586806022425" lon="12.041421852766984"><ele>186.0</ele><time>2026-03-28T17:10:05Z</time></trkpt><trkpt lat="44.10148169836529" lon="12.04145416671919"><ele>183.0</ele><time>2026-03-28T17:10:06Z</time></trkpt><trkpt lat="44.1013874345649" lon="12.04147824025417"><ele>180.0</ele><time>2026-03-28T17:10:07Z</time></trkpt><trkpt lat="44.10127435071995" lon="12.041503447326427"><ele>177.0</ele><time>2026-03-28T17:10:08Z</time></trkpt><trkpt lat="44.101139312088016" lon="12.04153130743661"><ele>174.0</ele><time>2026-03-28T17:10:09Z</time></trkpt><trkpt lat="44.10101114259841" lon="12.041557750328469"><ele>174.0</ele><time>2026-03-28T17:10:10Z</time></trkpt><trkpt lat="44.10089711356138" lon="12.041575153012335"><ele>174.0</ele><time>2026-03-28T17:10:11Z</time></trkpt><trkpt lat="44.10079233877414" lon="12.041582315309828"><ele>174.0</ele><time>2026-03-28T17:10:12Z</time></trkpt><trkpt lat="44.10070414734787" lon="12.041558613190027"><ele>174.0</ele><time>2026-03-28T17:10:13Z</time></trkpt><trkpt lat="44.100593131302226" lon="12.041540480356565"><ele>174.0</ele><time>2026-03-28T17:10:14Z</time></trkpt><trkpt lat="44.10046791996167" lon="12.041518967365816"><ele>172.6</ele><time>2026-03-28T17:10:15Z</time></trkpt><trkpt lat="44.100366043569224" lon="12.041523443978038"><ele>171.2</ele><time>2026-03-28T17:10:16Z</time></trkpt><trkpt lat="44.10028439637972" lon="12.041513319769567"><ele>169.79999999999998</ele><time>2026-03-28T17:10:17Z</time></trkpt><trkpt lat="44.100208492089685" lon="12.041527843302411"><ele>168.39999999999998</ele><time>2026-03-28T17:10:18Z</time></trkpt><trkpt lat="44.10010854377681" lon="12.041538515714317"><ele>167.0</ele><time>2026-03-28T17:10:19Z</time></trkpt><trkpt lat="44.100013692083394" lon="12.04163119970282"><ele>165.75</ele><time>2026-03-28T17:10:20Z</time></trkpt><trkpt lat="44.099910672698215" lon="12.04173286587677"><ele>164.5</ele><time>2026-03-28T17:10:21Z</time></trkpt><trkpt lat="44.09980754885669" lon="12.041842836312663"><ele>163.25</ele><time>2026-03-28T17:10:22Z</time></trkpt><trkpt lat="44.09969173107453" lon="12.041937940447353"><ele>162.0</ele><time>2026-03-28T17:10:23Z</time></trkpt><trkpt lat="44.09958942930478" lon="12.04204696380636"><ele>162.0</ele><time>2026-03-28T17:10:24Z</time></trkpt><trkpt lat="44.09949349162095" lon="12.042149541486602"><ele>162.0</ele><time>2026-03-28T17:10:25Z</time></trkpt><trkpt lat="44.09940385428561" lon="12.042247272480427"><ele>162.0</ele><time>2026-03-28T17:10:26Z</time></trkpt><trkpt lat="44.099327630633404" lon="12.042351864156887"><ele>162.0</ele><time>2026-03-28T17:10:27Z</time></trkpt><trkpt lat="44.09925805827161" lon="12.042411359795844"><ele>162.0</ele><time>2026-03-28T17:10:28Z</time></trkpt><trkpt lat="44.09920167374613" lon="12.042480776638394"><ele>161.66666666666666</ele><time>2026-03-28T17:10:29Z</time></trkpt><trkpt lat="44.09913692767444" lon="12.042552880755444"><ele>161.33333333333334</ele><time>2026-03-28T17:10:30Z</time></trkpt><trkpt lat="44.09908278566977" lon="12.042623169966827"><ele>161.0</ele><time>2026-03-28T17:10:31Z</time></trkpt><trkpt lat="44.09902283768698" lon="12.042700354151892"><ele>160.66666666666669</ele><time>2026-03-28T17:10:32Z</time></trkpt><trkpt lat="44.09895672736995" lon="12.042749134188737"><ele>160.33333333333334</ele><time>2026-03-28T17:10:33Z</time></trkpt><trkpt lat="44.098899094122956" lon="12.042809958054747"><ele>160.0</ele><time>2026-03-28T17:10:34Z</time></trkpt><trkpt lat="44.09884112985427" lon="12.042868662088523"><ele>160.0</ele><time>2026-03-28T17:10:35Z</time></trkpt><trkpt lat="44.09874754263812" lon="12.04296010764379"><ele>160.0</ele><time>2026-03-28T17:10:37Z</time></trkpt><trkpt lat="44.09867821443808" lon="12.043048562451693"><ele>160.0</ele><time>2026-03-28T17:10:38Z</time></trkpt><trkpt lat="44.09856912784042" lon="12.043121854463681"><ele>160.0</ele><time>2026-03-28T17:10:39Z</time></trkpt><trkpt lat="44.09846657824517" lon="12.043203305155977"><ele>160.0</ele><time>2026-03-28T17:10:40Z</time></trkpt><trkpt lat="44.09835431511259" lon="12.043263475932147"><ele>158.4</ele><time>2026-03-28T17:10:41Z</time></trkpt><trkpt lat="44.09825301146931" lon="12.043318286428452"><ele>156.8</ele><time>2026-03-28T17:10:42Z</time></trkpt><trkpt lat="44.09814662302843" lon="12.043344593247085"><ele>155.2</ele><time>2026-03-28T17:10:43Z</time></trkpt><trkpt lat="44.09804478891802" lon="12.04340886829238"><ele>153.6</ele><time>2026-03-28T17:10:44Z</time></trkpt><trkpt lat="44.0979614680388" lon="12.04345884605273"><ele>152.0</ele><time>2026-03-28T17:10:45Z</time></trkpt><trkpt lat="44.0978966058076" lon="12.043519462819882"><ele>152.0</ele><time>2026-03-28T17:10:46Z</time></trkpt><trkpt lat="44.097852352940656" lon="12.043597413350225"><ele>152.0</ele><time>2026-03-28T17:10:47Z</time></trkpt><trkpt lat="44.09781577566363" lon="12.04371533574987"><ele>152.0</ele><time>2026-03-28T17:10:48Z</time></trkpt></trkseg><trkseg><trkpt lat="44.099140504052635" lon="12.050012777065309"><ele>95.0</ele><time>2026-03-28T17:12:10Z</time></trkpt><trkpt lat="44.09930043487809" lon="12.050060275943554"><ele>95.0</ele><time>2026-03-28T17:12:11Z</time></trkpt><trkpt lat="44.09944355121701" lon="12.050105998294681"><ele>95.0</ele><time>2026-03-28T17:12:12Z</time></trkpt><trkpt lat="44.09958728816482" lon="12.050150711522214"><ele>95.0</ele><time>2026-03-28T17:12:13Z</time></trkpt><trkpt lat="44.09972139320728" lon="12.05019198379821"><ele>95.0</ele><time>2026-03-28T17:12:14Z</time></trkpt><trkpt lat="44.099853112012816" lon="12.05023413884933"><ele>95.0</ele><time>2026-03-28T17:12:15Z</time></trkpt><trkpt lat="44.09998153555057" lon="12.050294426970753"><ele>95.0</ele><time>2026-03-28T17:12:16Z</time></trkpt><trkpt lat="44.10012831139347" lon="12.050341302743243"><ele>95.0</ele><time>2026-03-28T17:12:17Z</time></trkpt><trkpt lat="44.100304202951406" lon="12.05039740030463"><ele>95.0</ele><time>2026-03-28T17:12:18Z</time></trkpt><trkpt lat="44.10050421402825" lon="12.05045942137456"><ele>95.0</ele><time>2026-03-28T17:12:19Z</time></trkpt><trkpt lat="44.10070787479432" lon="12.050522574163312"><ele>95.0</ele><time>2026-03-28T17:12:20Z</time></trkpt><trkpt lat="44.10090650008523" lon="12.050563586885088"><ele>95.0</ele><time>2026-03-28T17:12:21Z</time></trkpt><trkpt lat="44.10109878245388" lon="12.050645692955847"><ele>95.0</ele><time>2026-03-28T17:12:22Z</time></trkpt><trkpt lat="44.10131861333869" lon="12.05071681422145"><ele>95.0</ele><time>2026-03-28T17:12:23Z</time></trkpt><trkpt lat="44.101547146271145" lon="12.050788605731114"><ele>95.0</ele><time>2026-03-28T17:12:24Z</time></trkpt><trkpt lat="44.10178802568531" lon="12.050852266681021"><ele>94.0</ele><time>2026-03-28T17:12:25Z</time></trkpt><trkpt lat="44.102031841999256" lon="12.050939945925354"><ele>93.0</ele><time>2026-03-28T17:12:26Z</time></trkpt><trkpt lat="44.10227570107175" lon="12.051012906081318"><ele>92.66666666666667</ele><time>2026-03-28T17:12:27Z</time></trkpt><trkpt lat="44.102495214120516" lon="12.05108406268098"><ele>92.33333333333334</ele><time>2026-03-28T17:12:28Z</time></trkpt><trkpt lat="44.102697454557045" lon="12.051146214311357"><ele>92.0</ele><time>2026-03-28T17:12:29Z</time></trkpt><trkpt lat="44.102884952038856" lon="12.051203166954057"><ele>92.0</ele><time>2026-03-28T17:12:30Z</time></trkpt><trkpt lat="44.103066333976386" lon="12.051260569762883"><ele>92.0</ele><time>2026-03-28T17:12:31Z</time></trkpt><trkpt lat="44.103237819453575" lon="12.05131586469495"><ele>92.0</ele><time>2026-03-28T17:12:32Z</time></trkpt><trkpt lat="44.10340250317355" lon="12.051369009907493"><ele>92.0</ele><time>2026-03-28T17:12:33Z</time></trkpt><trkpt lat="44.103556881577354" lon="12.051415646760983"><ele>92.0</ele><time>2026-03-28T17:12:34Z</time></trkpt><trkpt lat="44.10370916103382" lon="12.051468479115108"><ele>92.0</ele><time>2026-03-28T17:12:35Z</time></trkpt><trkpt lat="44.103871005972" lon="12.051522698249844"><ele>92.0</ele><time>2026-03-28T17:12:36Z</time></trkpt><trkpt lat="44.104059034829746" lon="12.051577797308953"><ele>92.0</ele><time>2026-03-28T17:12:37Z</time></trkpt><trkpt lat="44.104266311474156" lon="12.051634886784075"><ele>92.0</ele><time>2026-03-28T17:12:38Z</time></trkpt><trkpt lat="44.10446805214609" lon="12.051695554622922"><ele>92.0</ele><time>2026-03-28T17:12:39Z</time></trkpt><trkpt lat="44.10468067658026" lon="12.051753721181228"><ele>92.0</ele><time>2026-03-28T17:12:40Z</time></trkpt><trkpt lat="44.10491480487031" lon="12.051833791031644"><ele>92.0</ele><time>2026-03-28T17:12:41Z</time></trkpt><trkpt lat="44.105155570280175" lon="12.05194217534446"><ele>92.0</ele><time>2026-03-28T17:12:42Z</time></trkpt><trkpt lat="44.10539423379866" lon="12.052065656114744"><ele>92.0</ele><time>2026-03-28T17:12:43Z</time></trkpt><trkpt lat="44.10564226312126" lon="12.052193150143934"><ele>92.0</ele><time>2026-03-28T17:12:44Z</time></trkpt><trkpt lat="44.10589437170381" lon="12.052351330442882"><ele>90.5</ele><time>2026-03-28T17:12:45Z</time></trkpt><trkpt lat="44.10614962117073" lon="12.052516247166952"><ele>89.0</ele><time>2026-03-28T17:12:46Z</time></trkpt><trkpt lat="44.10640774120647" lon="12.052683701592953"><ele>88.5</ele><time>2026-03-28T17:12:47Z</time></trkpt><trkpt lat="44.106675643248636" lon="12.052862817818303"><ele>88.0</ele><time>2026-03-28T17:12:48Z</time></trkpt><trkpt lat="44.106935260709584" lon="12.053030836434157"><ele>88.0</ele><time>2026-03-28T17:12:49Z</time></trkpt><trkpt lat="44.10718618465677" lon="12.053193002087987"><ele>88.0</ele><time>2026-03-28T17:12:50Z</time></trkpt><trkpt lat="44.10742076845833" lon="12.053345943932063"><ele>87.0</ele><time>2026-03-28T17:12:51Z</time></trkpt><trkpt lat="44.10764992152949" lon="12.053498003306537"><ele>86.0</ele><time>2026-03-28T17:12:52Z</time></trkpt><trkpt lat="44.10787201692949" lon="12.053643144575304"><ele>86.0</ele><time>2026-03-28T17:12:53Z</time></trkpt><trkpt lat="44.108096054101466" lon="12.05378739286926"><ele>86.0</ele><time>2026-03-28T17:12:54Z</time></trkpt><trkpt lat="44.10831717015415" lon="12.05392923001734"><ele>85.5</ele><time>2026-03-28T17:12:55Z</time></trkpt><trkpt lat="44.108532046507456" lon="12.054073672217967"><ele>85.0</ele><time>2026-03-28T17:12:56Z</time></trkpt><trkpt lat="44.10874017924817" lon="12.054210528522567"><ele>84.5</ele><time>2026-03-28T17:12:57Z</time></trkpt><trkpt lat="44.1089458296892" lon="12.054344537275613"><ele>84.0</ele><time>2026-03-28T17:12:58Z</time></trkpt><trkpt lat="44.109148703583756" lon="12.054474884079214"><ele>84.0</ele><time>2026-03-28T17:12:59Z</time></trkpt><trkpt lat="44.10934855790076" lon="12.054601437928893"><ele>84.0</ele><time>2026-03-28T17:13:00Z</time></trkpt><trkpt lat="44.1095449630908" lon="12.054726635683137"><ele>84.0</ele><time>2026-03-28T17:13:01Z</time></trkpt><trkpt lat="44.10973485890007" lon="12.054849882898273"><ele>83.66666666666667</ele><time>2026-03-28T17:13:02Z</time></trkpt><trkpt lat="44.109926370156096" lon="12.054974345224581"><ele>83.33333333333334</ele><time>2026-03-28T17:13:03Z</time></trkpt><trkpt lat="44.11011154616701" lon="12.055092961465721"><ele>83.0</ele><time>2026-03-28T17:13:04Z</time></trkpt><trkpt lat="44.11029345086563" lon="12.055206291124664"><ele>83.0</ele><time>2026-03-28T17:13:05Z</time></trkpt><trkpt lat="44.11047213047403" lon="12.055307948886089"><ele>83.0</ele><time>2026-03-28T17:13:06Z</time></trkpt><trkpt lat="44.11063402611429" lon="12.055420675607124"><ele>83.0</ele><time>2026-03-28T17:13:07Z</time></trkpt><trkpt lat="44.11078497714228" lon="12.055523135125963"><ele>83.0</ele><time>2026-03-28T17:13:08Z</time></trkpt><trkpt lat="44.11092894133512" lon="12.055610012226252"><ele>83.0</ele><time>2026-03-28T17:13:09Z</time></trkpt><trkpt lat="44.111075873934325" lon="12.055704336731482"><ele>83.0</ele><time>2026-03-28T17:13:10Z</time></trkpt><trkpt lat="44.111227333847395" lon="12.05580823974241"><ele>83.33333333333334</ele><time>2026-03-28T17:13:11Z</time></trkpt><trkpt lat="44.11138901700138" lon="12.055920119947885"><ele>83.66666666666667</ele><time>2026-03-28T17:13:12Z</time></trkpt><trkpt lat="44.1115687281571" lon="12.056038974554875"><ele>84.0</ele><time>2026-03-28T17:13:13Z</time></trkpt><trkpt lat="44.111758366384876" lon="12.056156208607627"><ele>83.33333333333333</ele><time>2026-03-28T17:13:14Z</time></trkpt><trkpt lat="44.11194891243011" lon="12.056279083475333"><ele>82.66666666666666</ele><time>2026-03-28T17:13:15Z</time></trkpt><trkpt lat="44.1121376555341" lon="12.056397186690091"><ele>82.0</ele><time>2026-03-28T17:13:16Z</time></trkpt><trkpt lat="44.11232786112512" lon="12.056518624524388"><ele>81.33333333333333</ele><time>2026-03-28T17:13:17Z</time></trkpt><trkpt lat="44.11251759453768" lon="12.056638016318214"><ele>80.66666666666667</ele><time>2026-03-28T17:13:18Z</time></trkpt><trkpt lat="44.11270530661694" lon="12.056758260414675"><ele>80.0</ele><time>2026-03-28T17:13:19Z</time></trkpt><trkpt lat="44.112905857535324" lon="12.056886555986988"><ele>80.0</ele><time>2026-03-28T17:13:20Z</time></trkpt><trkpt lat="44.1131192986436" lon="12.057024238022061"><ele>80.0</ele><time>2026-03-28T17:13:21Z</time></trkpt><trkpt lat="44.11333783187853" lon="12.057168144631113"><ele>79.5</ele><time>2026-03-28T17:13:22Z</time></trkpt><trkpt lat="44.11356183211642" lon="12.057315388932354"><ele>79.0</ele><time>2026-03-28T17:13:23Z</time></trkpt><trkpt lat="44.11378327658531" lon="12.057461915161019"><ele>79.0</ele><time>2026-03-28T17:13:24Z</time></trkpt><trkpt lat="44.11399131285562" lon="12.057604230227513"><ele>79.0</ele><time>2026-03-28T17:13:25Z</time></trkpt><trkpt lat="44.11419530175415" lon="12.057738647193979"><ele>79.0</ele><time>2026-03-28T17:13:26Z</time></trkpt><trkpt lat="44.11437866056058" lon="12.057861538567366"><ele>79.0</ele><time>2026-03-28T17:13:27Z</time></trkpt><trkpt lat="44.11456284578005" lon="12.057981433390093"><ele>79.0</ele><time>2026-03-28T17:13:28Z</time></trkpt><trkpt lat="44.11475577139455" lon="12.058096480505348"><ele>78.33333333333333</ele><time>2026-03-28T17:13:29Z</time></trkpt><trkpt lat="44.11495314640448" lon="12.058193168257171"><ele>77.66666666666667</ele><time>2026-03-28T17:13:30Z</time></trkpt><trkpt lat="44.11514530922394" lon="12.058261304872275"><ele>77.0</ele><time>2026-03-28T17:13:31Z</time></trkpt><trkpt lat="44.11534090808751" lon="12.058311524518984"><ele>77.0</ele><time>2026-03-28T17:13:32Z</time></trkpt><trkpt lat="44.11553523393815" lon="12.058342219533252"><ele>77.0</ele><time>2026-03-28T17:13:33Z</time></trkpt><trkpt lat="44.115723549568735" lon="12.058352633758641"><ele>77.0</ele><time>2026-03-28T17:13:34Z</time></trkpt><trkpt lat="44.1159118841373" lon="12.058344608400196"><ele>77.33333333333334</ele><time>2026-03-28T17:13:35Z</time></trkpt><trkpt lat="44.116093957971664" lon="12.058318254923437"><ele>77.66666666666667</ele><time>2026-03-28T17:13:36Z</time></trkpt><trkpt lat="44.116272286104554" lon="12.058273436399904"><ele>78.0</ele><time>2026-03-28T17:13:37Z</time></trkpt><trkpt lat="44.11644463729063" lon="12.058217860529869"><ele>78.33333333333333</ele><time>2026-03-28T17:13:38Z</time></trkpt><trkpt lat="44.11659483596117" lon="12.058147773755739"><ele>78.66666666666666</ele><time>2026-03-28T17:13:39Z</time></trkpt><trkpt lat="44.11673709766607" lon="12.05809024364611"><ele>79.0</ele><time>2026-03-28T17:13:40Z</time></trkpt><trkpt lat="44.11687655272229" lon="12.058034316675412"><ele>79.0</ele><time>2026-03-28T17:13:41Z</time></trkpt><trkpt lat="44.11705329614423" lon="12.05796982850645"><ele>79.0</ele><time>2026-03-28T17:13:42Z</time></trkpt><trkpt lat="44.11725910457126" lon="12.057890746971214"><ele>79.0</ele><time>2026-03-28T17:13:43Z</time></trkpt><trkpt lat="44.11745715537467" lon="12.05780861380751"><ele>77.0</ele><time>2026-03-28T17:13:44Z</time></trkpt><trkpt lat="44.117635144832526" lon="12.057735682121653"><ele>75.0</ele><time>2026-03-28T17:13:45Z</time></trkpt><trkpt lat="44.11780790536125" lon="12.057677296711926"><ele>73.0</ele><time>2026-03-28T17:13:46Z</time></trkpt><trkpt lat="44.11796989068266" lon="12.057634009553718"><ele>73.0</ele><time>2026-03-28T17:13:47Z</time></trkpt><trkpt lat="44.11812780686996" lon="12.057620605083939"><ele>73.0</ele><time>2026-03-28T17:13:48Z</time></trkpt><trkpt lat="44.11827048773335" lon="12.057640374453836"><ele>73.0</ele><time>2026-03-28T17:13:49Z</time></trkpt><trkpt lat="44.11841000455967" lon="12.057679792380643"><ele>73.0</ele><time>2026-03-28T17:13:50Z</time></trkpt><trkpt lat="44.118542304982725" lon="12.057741731925423"><ele>71.0</ele><time>2026-03-28T17:13:51Z</time></trkpt><trkpt lat="44.11865748481221" lon="12.05782813212706"><ele>69.0</ele><time>2026-03-28T17:13:52Z</time></trkpt><trkpt lat="44.11876321673692" lon="12.057921652786975"><ele>67.0</ele><time>2026-03-28T17:13:53Z</time></trkpt><trkpt lat="44.118864701143025" lon="12.058028935201595"><ele>65.0</ele><time>2026-03-28T17:13:54Z</time></trkpt><trkpt lat="44.11897373047216" lon="12.058157404739827"><ele>66.0</ele><time>2026-03-28T17:13:55Z</time></trkpt><trkpt lat="44.11910822897697" lon="12.05832299682575"><ele>67.0</ele><time>2026-03-28T17:13:56Z</time></trkpt><trkpt lat="44.119260225522176" lon="12.058495710878809"><ele>68.0</ele><time>2026-03-28T17:13:57Z</time></trkpt><trkpt lat="44.11940722715801" lon="12.058658584455946"><ele>68.0</ele><time>2026-03-28T17:13:58Z</time></trkpt><trkpt lat="44.119536737293245" lon="12.058807440392696"><ele>68.0</ele><time>2026-03-28T17:13:59Z</time></trkpt><trkpt lat="44.11965414401534" lon="12.058942028233075"><ele>68.0</ele><time>2026-03-28T17:14:00Z</time></trkpt><trkpt lat="44.11976623801822" lon="12.05906285757287"><ele>67.0</ele><time>2026-03-28T17:14:01Z</time></trkpt><trkpt lat="44.11988109019477" lon="12.059165925984741"><ele>66.0</ele><time>2026-03-28T17:14:02Z</time></trkpt><trkpt lat="44.12003524572552" lon="12.059249026910829"><ele>65.0</ele><time>2026-03-28T17:14:03Z</time></trkpt><trkpt lat="44.12022186025773" lon="12.05931101652995"><ele>65.0</ele><time>2026-03-28T17:14:04Z</time></trkpt><trkpt lat="44.120397115037385" lon="12.059358009775234"><ele>65.0</ele><time>2026-03-28T17:14:05Z</time></trkpt><trkpt lat="44.120543530551416" lon="12.059394620101846"><ele>65.0</ele><time>2026-03-28T17:14:06Z</time></trkpt><trkpt lat="44.12067859645526" lon="12.05941677977776"><ele>65.4</ele><time>2026-03-28T17:14:07Z</time></trkpt><trkpt lat="44.12079000646634" lon="12.059435849061876"><ele>65.8</ele><time>2026-03-28T17:14:08Z</time></trkpt><trkpt lat="44.1208883468723" lon="12.059455880408175"><ele>66.2</ele><time>2026-03-28T17:14:09Z</time></trkpt><trkpt lat="44.12096492772669" lon="12.05946232899171"><ele>66.6</ele><time>2026-03-28T17:14:10Z</time></trkpt><trkpt lat="44.12102884713277" lon="12.059460802531737"><ele>67.0</ele><time>2026-03-28T17:14:12Z</time></trkpt><trkpt lat="44.12117792649327" lon="12.059443616518879"><ele>67.0</ele><time>2026-03-28T17:15:27Z</time></trkpt><trkpt lat="44.1212842550269" lon="12.059441105472155"><ele>67.0</ele><time>2026-03-28T17:15:28Z</time></trkpt><trkpt lat="44.12143083224386" lon="12.059431261554941"><ele>67.0</ele><time>2026-03-28T17:15:29Z</time></trkpt><trkpt lat="44.12157611249069" lon="12.059426550291612"><ele>67.0</ele><time>2026-03-28T17:15:30Z</time></trkpt><trkpt lat="44.12171875532914" lon="12.059420148071567"><ele>67.75</ele><time>2026-03-28T17:15:31Z</time></trkpt><trkpt lat="44.121861201705165" lon="12.05940615325196"><ele>68.5</ele><time>2026-03-28T17:15:32Z</time></trkpt><trkpt lat="44.12200476477876" lon="12.059394055333025"><ele>69.25</ele><time>2026-03-28T17:15:33Z</time></trkpt><trkpt lat="44.122142220559944" lon="12.059387829052708"><ele>70.0</ele><time>2026-03-28T17:15:34Z</time></trkpt><trkpt lat="44.122284171083685" lon="12.059373702532206"><ele>70.25</ele><time>2026-03-28T17:15:35Z</time></trkpt><trkpt lat="44.12243017603827" lon="12.059359291655298"><ele>70.5</ele><time>2026-03-28T17:15:36Z</time></trkpt><trkpt lat="44.12257714632373" lon="12.059345641407585"><ele>70.75</ele><time>2026-03-28T17:15:37Z</time></trkpt><trkpt lat="44.1227261231005" lon="12.059344084748414"><ele>71.0</ele><time>2026-03-28T17:15:38Z</time></trkpt><trkpt lat="44.122876518487566" lon="12.05931830962704"><ele>71.0</ele><time>2026-03-28T17:15:39Z</time></trkpt><trkpt lat="44.12303457100186" lon="12.059275707987247"><ele>71.0</ele><time>2026-03-28T17:15:40Z</time></trkpt><trkpt lat="44.12320155383318" lon="12.059218317490446"><ele>71.0</ele><time>2026-03-28T17:15:41Z</time></trkpt><trkpt lat="44.12337812947057" lon="12.059159572909744"><ele>73.33333333333334</ele><time>2026-03-28T17:15:42Z</time></trkpt><trkpt lat="44.12356934075088" lon="12.05909190491751"><ele>75.66666666666667</ele><time>2026-03-28T17:15:43Z</time></trkpt><trkpt lat="44.12377396925113" lon="12.059018149824206"><ele>78.0</ele><time>2026-03-28T17:15:44Z</time></trkpt><trkpt lat="44.12398513393185" lon="12.058946072867167"><ele>77.66666666666667</ele><time>2026-03-28T17:15:45Z</time></trkpt><trkpt lat="44.124187050409645" lon="12.058875235778547"><ele>77.33333333333334</ele><time>2026-03-28T17:15:46Z</time></trkpt><trkpt lat="44.124389690649565" lon="12.058804804700065"><ele>77.0</ele><time>2026-03-28T17:15:47Z</time></trkpt><trkpt lat="44.12459868602154" lon="12.0587286165686"><ele>77.0</ele><time>2026-03-28T17:15:48Z</time></trkpt><trkpt lat="44.12480657238262" lon="12.058654347444385"><ele>77.0</ele><time>2026-03-28T17:15:49Z</time></trkpt><trkpt lat="44.12500452161092" lon="12.058576935853171"><ele>77.0</ele><time>2026-03-28T17:15:50Z</time></trkpt><trkpt lat="44.12519541820789" lon="12.058508284441288"><ele>76.33333333333334</ele><time>2026-03-28T17:15:51Z</time></trkpt><trkpt lat="44.125378347379154" lon="12.05845208497224"><ele>75.66666666666667</ele><time>2026-03-28T17:15:52Z</time></trkpt><trkpt lat="44.12556671829611" lon="12.058420286150119"><ele>75.0</ele><time>2026-03-28T17:15:53Z</time></trkpt><trkpt lat="44.12576238976289" lon="12.058408437291654"><ele>74.0</ele><time>2026-03-28T17:15:54Z</time></trkpt><trkpt lat="44.125965981223914" lon="12.05841381424799"><ele>73.0</ele><time>2026-03-28T17:15:55Z</time></trkpt><trkpt lat="44.1261643559456" lon="12.058430081540589"><ele>72.0</ele><time>2026-03-28T17:15:56Z</time></trkpt><trkpt lat="44.126360521301095" lon="12.058467577463235"><ele>73.0</ele><time>2026-03-28T17:15:57Z</time></trkpt><trkpt lat="44.126563063814906" lon="12.058531593012823"><ele>74.0</ele><time>2026-03-28T17:15:58Z</time></trkpt><trkpt lat="44.12677221952353" lon="12.058610344083982"><ele>75.0</ele><time>2026-03-28T17:15:59Z</time></trkpt><trkpt lat="44.12697668991604" lon="12.058679584376936"><ele>75.0</ele><time>2026-03-28T17:16:00Z</time></trkpt><trkpt lat="44.12717341710016" lon="12.05874719105161"><ele>75.0</ele><time>2026-03-28T17:16:01Z</time></trkpt><trkpt lat="44.127365281748006" lon="12.058813141889267"><ele>75.0</ele><time>2026-03-28T17:16:02Z</time></trkpt><trkpt lat="44.127554962139655" lon="12.05887536620858"><ele>77.0</ele><time>2026-03-28T17:16:03Z</time></trkpt><trkpt lat="44.127728803239386" lon="12.058928303149948"><ele>79.0</ele><time>2026-03-28T17:16:04Z</time></trkpt><trkpt lat="44.12789108746696" lon="12.058981313020308"><ele>81.0</ele><time>2026-03-28T17:16:05Z</time></trkpt><trkpt lat="44.12804179887168" lon="12.05903211670598"><ele>81.0</ele><time>2026-03-28T17:16:06Z</time></trkpt><trkpt lat="44.128182896184434" lon="12.05907636422588"><ele>81.0</ele><time>2026-03-28T17:16:07Z</time></trkpt><trkpt lat="44.12831519040265" lon="12.059118753164624"><ele>81.0</ele><time>2026-03-28T17:16:08Z</time></trkpt><trkpt lat="44.12842099654552" lon="12.059160006043077"><ele>81.0</ele><time>2026-03-28T17:16:09Z</time></trkpt><trkpt lat="44.128502822674484" lon="12.059196772460915"><ele>80.2</ele><time>2026-03-28T17:16:10Z</time></trkpt><trkpt lat="44.128592749982886" lon="12.059259210366546"><ele>79.39999999999999</ele><time>2026-03-28T17:16:12Z</time></trkpt><trkpt lat="44.128518800445406" lon="12.059296513944947"><ele>78.6</ele><time>2026-03-28T17:16:21Z</time></trkpt><trkpt lat="44.12851559129789" lon="12.059207007770956"><ele>77.8</ele><time>2026-03-28T17:16:23Z</time></trkpt><trkpt lat="44.1283871667684" lon="12.059086369238752"><ele>77.0</ele><time>2026-03-28T17:16:25Z</time></trkpt><trkpt lat="44.12827232136511" lon="12.059033190375043"><ele>78.0</ele><time>2026-03-28T17:16:26Z</time></trkpt><trkpt lat="44.12815164558419" lon="12.058954740576544"><ele>79.0</ele><time>2026-03-28T17:16:27Z</time></trkpt><trkpt lat="44.12806088957911" lon="12.058844558281244"><ele>80.0</ele><time>2026-03-28T17:16:28Z</time></trkpt><trkpt lat="44.12797751630836" lon="12.058694604285831"><ele>81.0</ele><time>2026-03-28T17:16:29Z</time></trkpt><trkpt lat="44.12788425872773" lon="12.058504922404115"><ele>81.0</ele><time>2026-03-28T17:16:30Z</time></trkpt><trkpt lat="44.12779195403383" lon="12.05831229238801"><ele>81.0</ele><time>2026-03-28T17:16:31Z</time></trkpt><trkpt lat="44.12769778371571" lon="12.05811245079047"><ele>81.0</ele><time>2026-03-28T17:16:32Z</time></trkpt><trkpt lat="44.12761604833432" lon="12.05795239037876"><ele>82.75</ele><time>2026-03-28T17:16:33Z</time></trkpt><trkpt lat="44.12754375126622" lon="12.0578169604678"><ele>84.5</ele><time>2026-03-28T17:16:34Z</time></trkpt><trkpt lat="44.12746996824785" lon="12.057703562529175"><ele>86.25</ele><time>2026-03-28T17:16:35Z</time></trkpt><trkpt lat="44.127390387780856" lon="12.057599794506284"><ele>88.0</ele><time>2026-03-28T17:16:36Z</time></trkpt><trkpt lat="44.127250002232195" lon="12.057569951044774"><ele>88.0</ele><time>2026-03-28T17:16:37Z</time></trkpt><trkpt lat="44.12709293945838" lon="12.057537702027311"><ele>88.0</ele><time>2026-03-28T17:16:38Z</time></trkpt><trkpt lat="44.12694053715211" lon="12.057497612855405"><ele>88.0</ele><time>2026-03-28T17:16:39Z</time></trkpt><trkpt lat="44.126812681144216" lon="12.057437651924925"><ele>88.0</ele><time>2026-03-28T17:16:40Z</time></trkpt><trkpt lat="44.126693058818034" lon="12.057342296507919"><ele>88.25</ele><time>2026-03-28T17:16:41Z</time></trkpt><trkpt lat="44.12659854004728" lon="12.05719529361231"><ele>88.5</ele><time>2026-03-28T17:16:42Z</time></trkpt><trkpt lat="44.12650670291497" lon="12.05704625859716"><ele>88.75</ele><time>2026-03-28T17:16:43Z</time></trkpt><trkpt lat="44.12643891169974" lon="12.056853769140883"><ele>89.0</ele><time>2026-03-28T17:16:44Z</time></trkpt><trkpt lat="44.1263700442577" lon="12.056619493410878"><ele>92.0</ele><time>2026-03-28T17:16:45Z</time></trkpt><trkpt lat="44.126284617820744" lon="12.056362812592734"><ele>95.0</ele><time>2026-03-28T17:16:46Z</time></trkpt><trkpt lat="44.12621419259294" lon="12.056071901040516"><ele>98.0</ele><time>2026-03-28T17:16:47Z</time></trkpt><trkpt lat="44.12613497997934" lon="12.055800411284519"><ele>101.33333333333333</ele><time>2026-03-28T17:16:48Z</time></trkpt><trkpt lat="44.12606686433701" lon="12.05556633843643"><ele>104.66666666666666</ele><time>2026-03-28T17:16:49Z</time></trkpt><trkpt lat="44.125995802178934" lon="12.055352475708101"><ele>108.0</ele><time>2026-03-28T17:16:50Z</time></trkpt><trkpt lat="44.12590133624972" lon="12.055138503984159"><ele>111.0</ele><time>2026-03-28T17:16:51Z</time></trkpt><trkpt lat="44.125785754042326" lon="12.05495143917892"><ele>114.0</ele><time>2026-03-28T17:16:52Z</time></trkpt><trkpt lat="44.12565163787788" lon="12.05478274007448"><ele>117.0</ele><time>2026-03-28T17:16:53Z</time></trkpt><trkpt lat="44.12550305360937" lon="12.054615214101409"><ele>117.0</ele><time>2026-03-28T17:16:54Z</time></trkpt><trkpt lat="44.125347410709665" lon="12.054448547110377"><ele>117.0</ele><time>2026-03-28T17:16:55Z</time></trkpt><trkpt lat="44.125221680517136" lon="12.054304347835599"><ele>117.0</ele><time>2026-03-28T17:16:56Z</time></trkpt><trkpt lat="44.12511165472429" lon="12.054188025357536"><ele>118.75</ele><time>2026-03-28T17:16:57Z</time></trkpt><trkpt lat="44.12499560003444" lon="12.054121486005341"><ele>120.5</ele><time>2026-03-28T17:16:58Z</time></trkpt><trkpt lat="44.12486281985166" lon="12.05410664427221"><ele>122.25</ele><time>2026-03-28T17:16:59Z</time></trkpt><trkpt lat="44.12472521881854" lon="12.054137582186806"><ele>124.0</ele><time>2026-03-28T17:17:00Z</time></trkpt><trkpt lat="44.124613912757425" lon="12.054208350131121"><ele>124.0</ele><time>2026-03-28T17:17:01Z</time></trkpt><trkpt lat="44.12452412638149" lon="12.054322823799282"><ele>124.0</ele><time>2026-03-28T17:17:02Z</time></trkpt><trkpt lat="44.12446284973665" lon="12.054492343574747"><ele>124.0</ele><time>2026-03-28T17:17:03Z</time></trkpt><trkpt lat="44.124407959481324" lon="12.054626798330077"><ele>124.0</ele><time>2026-03-28T17:17:04Z</time></trkpt><trkpt lat="44.124357756773115" lon="12.054722364747361"><ele>124.0</ele><time>2026-03-28T17:17:05Z</time></trkpt><trkpt lat="44.12426113698431" lon="12.054762597350749"><ele>124.0</ele><time>2026-03-28T17:17:06Z</time></trkpt><trkpt lat="44.124161058455094" lon="12.054700066135904"><ele>124.0</ele><time>2026-03-28T17:17:07Z</time></trkpt><trkpt lat="44.12404897492317" lon="12.054632462965788"><ele>124.0</ele><time>2026-03-28T17:17:08Z</time></trkpt><trkpt lat="44.12391929450594" lon="12.05455762512316"><ele>125.6</ele><time>2026-03-28T17:17:09Z</time></trkpt><trkpt lat="44.1237846649307" lon="12.05449228581694"><ele>127.2</ele><time>2026-03-28T17:17:10Z</time></trkpt><trkpt lat="44.123679484376964" lon="12.054468385521231"><ele>128.79999999999998</ele><time>2026-03-28T17:17:11Z</time></trkpt><trkpt lat="44.12359364896564" lon="12.054473084666594"><ele>130.4</ele><time>2026-03-28T17:17:12Z</time></trkpt><trkpt lat="44.12349462415978" lon="12.054531872401485"><ele>132.0</ele><time>2026-03-28T17:17:13Z</time></trkpt><trkpt lat="44.12339619688923" lon="12.05464957316364"><ele>132.0</ele><time>2026-03-28T17:17:14Z</time></trkpt><trkpt lat="44.123301996778586" lon="12.054805851195022"><ele>132.0</ele><time>2026-03-28T17:17:15Z</time></trkpt><trkpt lat="44.12322036986736" lon="12.05493107283029"><ele>132.0</ele><time>2026-03-28T17:17:16Z</time></trkpt><trkpt lat="44.12311043078437" lon="12.054958772204055"><ele>132.0</ele><time>2026-03-28T17:17:17Z</time></trkpt><trkpt lat="44.123013483109105" lon="12.054930475758574"><ele>132.5</ele><time>2026-03-28T17:17:18Z</time></trkpt><trkpt lat="44.122917499581426" lon="12.054861442595547"><ele>133.0</ele><time>2026-03-28T17:17:19Z</time></trkpt><trkpt lat="44.12284597103042" lon="12.054720061930443"><ele>133.5</ele><time>2026-03-28T17:17:20Z</time></trkpt><trkpt lat="44.12275355052775" lon="12.054554142536663"><ele>134.0</ele><time>2026-03-28T17:17:21Z</time></trkpt><trkpt lat="44.122651094512726" lon="12.054367135374427"><ele>134.0</ele><time>2026-03-28T17:17:22Z</time></trkpt><trkpt lat="44.122530964710336" lon="12.054158809758013"><ele>134.0</ele><time>2026-03-28T17:17:23Z</time></trkpt><trkpt lat="44.12241324892758" lon="12.053934177240919"><ele>134.0</ele><time>2026-03-28T17:17:24Z</time></trkpt><trkpt lat="44.12229205914159" lon="12.053717183608228"><ele>135.33333333333331</ele><time>2026-03-28T17:17:25Z</time></trkpt><trkpt lat="44.12218419388751" lon="12.053529790727026"><ele>136.66666666666666</ele><time>2026-03-28T17:17:26Z</time></trkpt><trkpt lat="44.12208061772923" lon="12.053372695674462"><ele>138.0</ele><time>2026-03-28T17:17:27Z</time></trkpt><trkpt lat="44.12198603972818" lon="12.05319986744688"><ele>138.66666666666666</ele><time>2026-03-28T17:17:28Z</time></trkpt><trkpt lat="44.121905108933596" lon="12.053008159515441"><ele>139.33333333333331</ele><time>2026-03-28T17:17:29Z</time></trkpt><trkpt lat="44.12183210878739" lon="12.052809421761959"><ele>140.0</ele><time>2026-03-28T17:17:30Z</time></trkpt><trkpt lat="44.1217824866098" lon="12.052579983895154"><ele>140.33333333333331</ele><time>2026-03-28T17:17:31Z</time></trkpt><trkpt lat="44.121771349094566" lon="12.052338859270971"><ele>140.66666666666666</ele><time>2026-03-28T17:17:32Z</time></trkpt><trkpt lat="44.12179027486253" lon="12.05207852504748"><ele>141.0</ele><time>2026-03-28T17:17:33Z</time></trkpt><trkpt lat="44.12181894298551" lon="12.05177682523333"><ele>141.66666666666666</ele><time>2026-03-28T17:17:34Z</time></trkpt><trkpt lat="44.121847368715684" lon="12.051478407148183"><ele>142.33333333333331</ele><time>2026-03-28T17:17:35Z</time></trkpt><trkpt lat="44.121875702742436" lon="12.051180951776338"><ele>143.0</ele><time>2026-03-28T17:17:36Z</time></trkpt><trkpt lat="44.121901918052885" lon="12.050906311465456"><ele>143.66666666666666</ele><time>2026-03-28T17:17:37Z</time></trkpt><trkpt lat="44.1219287386422" lon="12.050663296125283"><ele>144.33333333333334</ele><time>2026-03-28T17:17:38Z</time></trkpt><trkpt lat="44.12197358247614" lon="12.050429630305398"><ele>145.0</ele><time>2026-03-28T17:17:39Z</time></trkpt><trkpt lat="44.12205128142628" lon="12.050203979191439"><ele>145.0</ele><time>2026-03-28T17:17:40Z</time></trkpt><trkpt lat="44.12215622620686" lon="12.049988069485133"><ele>145.0</ele><time>2026-03-28T17:17:41Z</time></trkpt><trkpt lat="44.1222865046532" lon="12.049763042690843"><ele>145.0</ele><time>2026-03-28T17:17:42Z</time></trkpt><trkpt lat="44.12241208240758" lon="12.049531000459394"><ele>144.33333333333334</ele><time>2026-03-28T17:17:43Z</time></trkpt><trkpt lat="44.12251747182432" lon="12.049325009247985"><ele>143.66666666666666</ele><time>2026-03-28T17:17:44Z</time></trkpt><trkpt lat="44.12260394556786" lon="12.04909107025113"><ele>143.0</ele><time>2026-03-28T17:17:45Z</time></trkpt><trkpt lat="44.122683169223784" lon="12.048840694830087"><ele>143.0</ele><time>2026-03-28T17:17:46Z</time></trkpt><trkpt lat="44.12275088786299" lon="12.048607068856866"><ele>143.0</ele><time>2026-03-28T17:17:47Z</time></trkpt><trkpt lat="44.12281314519704" lon="12.048392247049422"><ele>143.0</ele><time>2026-03-28T17:17:48Z</time></trkpt><trkpt lat="44.12285573695233" lon="12.048191309637941"><ele>143.66666666666666</ele><time>2026-03-28T17:17:49Z</time></trkpt><trkpt lat="44.12286544375686" lon="12.047990429516116"><ele>144.33333333333334</ele><time>2026-03-28T17:17:50Z</time></trkpt><trkpt lat="44.122840153629795" lon="12.047767513640485"><ele>145.0</ele><time>2026-03-28T17:17:51Z</time></trkpt><trkpt lat="44.122783134260914" lon="12.047533719282141"><ele>145.33333333333334</ele><time>2026-03-28T17:17:52Z</time></trkpt><trkpt lat="44.12269528093642" lon="12.047291604611221"><ele>145.66666666666666</ele><time>2026-03-28T17:17:53Z</time></trkpt><trkpt lat="44.122582400441885" lon="12.047048846003078"><ele>146.0</ele><time>2026-03-28T17:17:54Z</time></trkpt><trkpt lat="44.12246023455396" lon="12.04680240665759"><ele>148.33333333333331</ele><time>2026-03-28T17:17:55Z</time></trkpt><trkpt lat="44.122362851124215" lon="12.04654859526047"><ele>150.66666666666666</ele><time>2026-03-28T17:17:56Z</time></trkpt><trkpt lat="44.12225783605616" lon="12.046316601482815"><ele>153.0</ele><time>2026-03-28T17:17:57Z</time></trkpt><trkpt lat="44.12216863996469" lon="12.046103240266886"><ele>153.0</ele><time>2026-03-28T17:17:58Z</time></trkpt><trkpt lat="44.12210378708369" lon="12.045905253316803"><ele>153.0</ele><time>2026-03-28T17:17:59Z</time></trkpt><trkpt lat="44.12205999752614" lon="12.045679397000535"><ele>153.0</ele><time>2026-03-28T17:18:00Z</time></trkpt><trkpt lat="44.12204062921039" lon="12.045431710140308"><ele>153.66666666666666</ele><time>2026-03-28T17:18:01Z</time></trkpt><trkpt lat="44.122055429688075" lon="12.045198923530675"><ele>154.33333333333331</ele><time>2026-03-28T17:18:02Z</time></trkpt><trkpt lat="44.122099311345536" lon="12.044947680721654"><ele>155.0</ele><time>2026-03-28T17:18:03Z</time></trkpt><trkpt lat="44.122152421622076" lon="12.044681742776229"><ele>153.33333333333331</ele><time>2026-03-28T17:18:04Z</time></trkpt><trkpt lat="44.12219507550313" lon="12.044395825430636"><ele>151.66666666666666</ele><time>2026-03-28T17:18:05Z</time></trkpt><trkpt lat="44.12225614895294" lon="12.044102466650953"><ele>150.0</ele><time>2026-03-28T17:18:06Z</time></trkpt><trkpt lat="44.12232159623487" lon="12.043792722052872"><ele>147.0</ele><time>2026-03-28T17:18:07Z</time></trkpt><trkpt lat="44.12238794607397" lon="12.043466266936933"><ele>144.0</ele><time>2026-03-28T17:18:08Z</time></trkpt><trkpt lat="44.122459347825824" lon="12.043134716339212"><ele>154.5</ele><time>2026-03-28T17:18:09Z</time></trkpt><trkpt lat="44.12252744401153" lon="12.04281397754858"><ele>165.0</ele><time>2026-03-28T17:18:10Z</time></trkpt><trkpt lat="44.12259304179258" lon="12.042489977183177"><ele>165.5</ele><time>2026-03-28T17:18:11Z</time></trkpt><trkpt lat="44.12265760922395" lon="12.042168708181462"><ele>166.0</ele><time>2026-03-28T17:18:12Z</time></trkpt><trkpt lat="44.122732226896616" lon="12.04188737067589"><ele>165.33333333333334</ele><time>2026-03-28T17:18:13Z</time></trkpt><trkpt lat="44.122790680586455" lon="12.041607477344305"><ele>164.66666666666666</ele><time>2026-03-28T17:18:14Z</time></trkpt><trkpt lat="44.12283346611055" lon="12.041327658889625"><ele>164.0</ele><time>2026-03-28T17:18:15Z</time></trkpt><trkpt lat="44.122888251512784" lon="12.04106546026848"><ele>162.33333333333331</ele><time>2026-03-28T17:18:16Z</time></trkpt><trkpt lat="44.1229675557207" lon="12.040795128472983"><ele>160.66666666666666</ele><time>2026-03-28T17:18:17Z</time></trkpt><trkpt lat="44.12304547728789" lon="12.040514497760851"><ele>159.0</ele><time>2026-03-28T17:18:18Z</time></trkpt><trkpt lat="44.12314018827574" lon="12.0402270166097"><ele>163.33333333333334</ele><time>2026-03-28T17:18:19Z</time></trkpt><trkpt lat="44.12323329602217" lon="12.039953449370168"><ele>167.66666666666669</ele><time>2026-03-28T17:18:20Z</time></trkpt><trkpt lat="44.123301101939866" lon="12.03970029935784"><ele>172.0</ele><time>2026-03-28T17:18:21Z</time></trkpt><trkpt lat="44.12339405739721" lon="12.039442571161223"><ele>172.0</ele><time>2026-03-28T17:18:22Z</time></trkpt><trkpt lat="44.12349304457509" lon="12.039158154472464"><ele>172.0</ele><time>2026-03-28T17:18:23Z</time></trkpt><trkpt lat="44.12360594727462" lon="12.038889605781465"><ele>170.0</ele><time>2026-03-28T17:18:24Z</time></trkpt><trkpt lat="44.12371235915338" lon="12.038626608133084"><ele>168.0</ele><time>2026-03-28T17:18:25Z</time></trkpt><trkpt lat="44.12381181259417" lon="12.038398423788001"><ele>166.0</ele><time>2026-03-28T17:18:26Z</time></trkpt><trkpt lat="44.123898596003734" lon="12.038167314632807"><ele>163.33333333333334</ele><time>2026-03-28T17:18:27Z</time></trkpt><trkpt lat="44.124007675888976" lon="12.037941489549924"><ele>160.66666666666666</ele><time>2026-03-28T17:18:28Z</time></trkpt><trkpt lat="44.12413789152413" lon="12.037737640469224"><ele>158.0</ele><time>2026-03-28T17:18:29Z</time></trkpt><trkpt lat="44.12426567095087" lon="12.037554710940517"><ele>164.33333333333331</ele><time>2026-03-28T17:18:30Z</time></trkpt><trkpt lat="44.12441890412597" lon="12.037376604824065"><ele>170.66666666666666</ele><time>2026-03-28T17:18:31Z</time></trkpt><trkpt lat="44.12457686083657" lon="12.037173061074224"><ele>177.0</ele><time>2026-03-28T17:18:32Z</time></trkpt><trkpt lat="44.1247392126633" lon="12.037005107660082"><ele>177.0</ele><time>2026-03-28T17:18:33Z</time></trkpt><trkpt lat="44.124880330088565" lon="12.036855154685233"><ele>177.0</ele><time>2026-03-28T17:18:34Z</time></trkpt><trkpt lat="44.1250084849439" lon="12.036705223985027"><ele>177.0</ele><time>2026-03-28T17:18:35Z</time></trkpt><trkpt lat="44.12515263097675" lon="12.036546676577537"><ele>183.33333333333331</ele><time>2026-03-28T17:18:36Z</time></trkpt><trkpt lat="44.125323603098536" lon="12.036402504509997"><ele>189.66666666666666</ele><time>2026-03-28T17:18:37Z</time></trkpt><trkpt lat="44.12551387145964" lon="12.036283442276412"><ele>196.0</ele><time>2026-03-28T17:18:38Z</time></trkpt><trkpt lat="44.125714763764904" lon="12.03616170981885"><ele>198.0</ele><time>2026-03-28T17:18:39Z</time></trkpt><trkpt lat="44.125910835135166" lon="12.036046337560691"><ele>200.0</ele><time>2026-03-28T17:18:40Z</time></trkpt><trkpt lat="44.12607225797415" lon="12.035910496161117"><ele>202.0</ele><time>2026-03-28T17:18:41Z</time></trkpt><trkpt lat="44.12625301924931" lon="12.035750876190297"><ele>204.33333333333331</ele><time>2026-03-28T17:18:42Z</time></trkpt><trkpt lat="44.126429871856764" lon="12.035570966742265"><ele>206.66666666666669</ele><time>2026-03-28T17:18:43Z</time></trkpt><trkpt lat="44.12661303010004" lon="12.035381731187067"><ele>209.0</ele><time>2026-03-28T17:18:44Z</time></trkpt><trkpt lat="44.12679609544209" lon="12.035194650776988"><ele>209.0</ele><time>2026-03-28T17:18:45Z</time></trkpt><trkpt lat="44.12698273435632" lon="12.035009003509318"><ele>209.0</ele><time>2026-03-28T17:18:46Z</time></trkpt><trkpt lat="44.12716620829272" lon="12.034832852483087"><ele>211.0</ele><time>2026-03-28T17:18:47Z</time></trkpt><trkpt lat="44.12733569008751" lon="12.034664257818028"><ele>213.0</ele><time>2026-03-28T17:18:48Z</time></trkpt><trkpt lat="44.12748901065696" lon="12.034508319894833"><ele>215.0</ele><time>2026-03-28T17:18:49Z</time></trkpt><trkpt lat="44.127636121226864" lon="12.034374583106233"><ele>215.0</ele><time>2026-03-28T17:18:50Z</time></trkpt><trkpt lat="44.12779747179787" lon="12.034277163324548"><ele>215.0</ele><time>2026-03-28T17:18:51Z</time></trkpt><trkpt lat="44.12798460412749" lon="12.03420993702147"><ele>215.0</ele><time>2026-03-28T17:18:52Z</time></trkpt><trkpt lat="44.128188643901915" lon="12.034154104629177"><ele>218.33333333333334</ele><time>2026-03-28T17:18:53Z</time></trkpt><trkpt lat="44.12836695237097" lon="12.034111109545467"><ele>221.66666666666669</ele><time>2026-03-28T17:18:54Z</time></trkpt><trkpt lat="44.128522717152855" lon="12.034077048816878"><ele>225.0</ele><time>2026-03-28T17:18:55Z</time></trkpt><trkpt lat="44.12865848671803" lon="12.034054072764905"><ele>225.0</ele><time>2026-03-28T17:18:56Z</time></trkpt><trkpt lat="44.12876321436699" lon="12.03404285215854"><ele>225.0</ele><time>2026-03-28T17:18:57Z</time></trkpt><trkpt lat="44.12883718922527" lon="12.034019034884963"><ele>225.0</ele><time>2026-03-28T17:18:58Z</time></trkpt><trkpt lat="44.12886701616333" lon="12.033845913491435"><ele>225.0</ele><time>2026-03-28T17:19:00Z</time></trkpt><trkpt lat="44.128839916648005" lon="12.033732277627362"><ele>225.0</ele><time>2026-03-28T17:19:01Z</time></trkpt><trkpt lat="44.12877312560659" lon="12.033637690384257"><ele>225.0</ele><time>2026-03-28T17:19:02Z</time></trkpt><trkpt lat="44.12866974153973" lon="12.03356982635278"><ele>225.0</ele><time>2026-03-28T17:19:03Z</time></trkpt><trkpt lat="44.128526793077896" lon="12.033516782273335"><ele>225.0</ele><time>2026-03-28T17:19:04Z</time></trkpt><trkpt lat="44.12837041780113" lon="12.03346330072703"><ele>225.0</ele><time>2026-03-28T17:19:05Z</time></trkpt><trkpt lat="44.12820467739614" lon="12.033369629090313"><ele>228.33333333333331</ele><time>2026-03-28T17:19:06Z</time></trkpt><trkpt lat="44.128028309535715" lon="12.03324499057542"><ele>231.66666666666666</ele><time>2026-03-28T17:19:07Z</time></trkpt><trkpt lat="44.127843347612895" lon="12.033088045969698"><ele>235.0</ele><time>2026-03-28T17:19:08Z</time></trkpt><trkpt lat="44.12765192532126" lon="12.032924909973822"><ele>235.0</ele><time>2026-03-28T17:19:09Z</time></trkpt><trkpt lat="44.12745754459036" lon="12.03276582680174"><ele>235.0</ele><time>2026-03-28T17:19:10Z</time></trkpt><trkpt lat="44.12728930182624" lon="12.032627839538304"><ele>235.0</ele><time>2026-03-28T17:19:11Z</time></trkpt><trkpt lat="44.12713742975879" lon="12.032507269103013"><ele>238.0</ele><time>2026-03-28T17:19:12Z</time></trkpt><trkpt lat="44.12699147586219" lon="12.03241620720988"><ele>241.0</ele><time>2026-03-28T17:19:13Z</time></trkpt><trkpt lat="44.12682615309736" lon="12.032360939284196"><ele>244.0</ele><time>2026-03-28T17:19:14Z</time></trkpt><trkpt lat="44.126634050324164" lon="12.032349528591729"><ele>243.33333333333331</ele><time>2026-03-28T17:19:15Z</time></trkpt><trkpt lat="44.126433365112646" lon="12.032367407990504"><ele>242.66666666666669</ele><time>2026-03-28T17:19:16Z</time></trkpt><trkpt lat="44.12626164204606" lon="12.032381812649943"><ele>242.0</ele><time>2026-03-28T17:19:17Z</time></trkpt><trkpt lat="44.12611776379215" lon="12.032358396116152"><ele>242.0</ele><time>2026-03-28T17:19:18Z</time></trkpt><trkpt lat="44.125991570336" lon="12.032316515196998"><ele>242.0</ele><time>2026-03-28T17:19:19Z</time></trkpt><trkpt lat="44.12588678687545" lon="12.03222830213378"><ele>242.0</ele><time>2026-03-28T17:19:20Z</time></trkpt><trkpt lat="44.12580841877483" lon="12.03208549821907"><ele>242.0</ele><time>2026-03-28T17:19:21Z</time></trkpt><trkpt lat="44.12576312407143" lon="12.03192453001426"><ele>242.0</ele><time>2026-03-28T17:19:22Z</time></trkpt><trkpt lat="44.12574011182073" lon="12.03172764899983"><ele>242.0</ele><time>2026-03-28T17:19:23Z</time></trkpt><trkpt lat="44.12575652286174" lon="12.031497234735115"><ele>242.0</ele><time>2026-03-28T17:19:24Z</time></trkpt><trkpt lat="44.12578983154367" lon="12.031258856841259"><ele>243.66666666666669</ele><time>2026-03-28T17:19:25Z</time></trkpt><trkpt lat="44.12583751661025" lon="12.03098656540363"><ele>245.33333333333331</ele><time>2026-03-28T17:19:26Z</time></trkpt><trkpt lat="44.12588073234763" lon="12.03071496365727"><ele>247.0</ele><time>2026-03-28T17:19:27Z</time></trkpt><trkpt lat="44.125911533434355" lon="12.030457559446658"><ele>247.0</ele><time>2026-03-28T17:19:28Z</time></trkpt><trkpt lat="44.1259397551037" lon="12.030210477924413"><ele>247.0</ele><time>2026-03-28T17:19:29Z</time></trkpt><trkpt lat="44.12596877632858" lon="12.029941738869818"><ele>247.0</ele><time>2026-03-28T17:19:30Z</time></trkpt><trkpt lat="44.12600245780497" lon="12.029661499435797"><ele>247.0</ele><time>2026-03-28T17:19:31Z</time></trkpt><trkpt lat="44.12603614082599" lon="12.029387243508598"><ele>247.0</ele><time>2026-03-28T17:19:32Z</time></trkpt><trkpt lat="44.1260627554388" lon="12.02914778420594"><ele>247.0</ele><time>2026-03-28T17:19:33Z</time></trkpt><trkpt lat="44.1260677103994" lon="12.028921914625784"><ele>247.66666666666666</ele><time>2026-03-28T17:19:34Z</time></trkpt><trkpt lat="44.12604486796414" lon="12.02869133609666"><ele>248.33333333333331</ele><time>2026-03-28T17:19:35Z</time></trkpt><trkpt lat="44.12599813730975" lon="12.028450633131268"><ele>249.0</ele><time>2026-03-28T17:19:36Z</time></trkpt><trkpt lat="44.12593011503667" lon="12.028222399830607"><ele>250.33333333333331</ele><time>2026-03-28T17:19:37Z</time></trkpt><trkpt lat="44.12585641745131" lon="12.027973387571764"><ele>251.66666666666666</ele><time>2026-03-28T17:19:38Z</time></trkpt><trkpt lat="44.1257850200494" lon="12.027705882877923"><ele>253.0</ele><time>2026-03-28T17:19:39Z</time></trkpt><trkpt lat="44.125712703536074" lon="12.027453770253826"><ele>253.0</ele><time>2026-03-28T17:19:40Z</time></trkpt><trkpt lat="44.12563047131303" lon="12.027211213854201"><ele>253.0</ele><time>2026-03-28T17:19:41Z</time></trkpt><trkpt lat="44.12552398859519" lon="12.02697121865104"><ele>253.0</ele><time>2026-03-28T17:19:42Z</time></trkpt><trkpt lat="44.12540042694008" lon="12.026731797232442"><ele>255.33333333333331</ele><time>2026-03-28T17:19:43Z</time></trkpt><trkpt lat="44.125276369122275" lon="12.026488740465565"><ele>257.6666666666667</ele><time>2026-03-28T17:19:44Z</time></trkpt><trkpt lat="44.125156597348195" lon="12.026268401492057"><ele>260.0</ele><time>2026-03-28T17:19:45Z</time></trkpt><trkpt lat="44.12504014553129" lon="12.026040170199716"><ele>259.33333333333337</ele><time>2026-03-28T17:19:46Z</time></trkpt><trkpt lat="44.124939639071556" lon="12.025793886862377"><ele>258.6666666666667</ele><time>2026-03-28T17:19:47Z</time></trkpt><trkpt lat="44.1248391402315" lon="12.025523353979661"><ele>258.0</ele><time>2026-03-28T17:19:48Z</time></trkpt><trkpt lat="44.12476150120793" lon="12.025238714032827"><ele>263.0</ele><time>2026-03-28T17:19:49Z</time></trkpt><trkpt lat="44.12468110776541" lon="12.02493771306482"><ele>268.0</ele><time>2026-03-28T17:19:50Z</time></trkpt><trkpt lat="44.12459587263828" lon="12.024655914026933"><ele>268.0</ele><time>2026-03-28T17:19:51Z</time></trkpt><trkpt lat="44.124509698681045" lon="12.024368635213127"><ele>268.0</ele><time>2026-03-28T17:19:52Z</time></trkpt><trkpt lat="44.12443644366541" lon="12.024097619719996"><ele>268.0</ele><time>2026-03-28T17:19:53Z</time></trkpt><trkpt lat="44.12436990427609" lon="12.023857479301713"><ele>270.0</ele><time>2026-03-28T17:19:54Z</time></trkpt><trkpt lat="44.124318197869556" lon="12.023639850647665"><ele>272.0</ele><time>2026-03-28T17:19:55Z</time></trkpt><trkpt lat="44.12426872920362" lon="12.023437464271552"><ele>274.0</ele><time>2026-03-28T17:19:56Z</time></trkpt><trkpt lat="44.12420946484271" lon="12.023219209090035"><ele>274.66666666666663</ele><time>2026-03-28T17:19:57Z</time></trkpt><trkpt lat="44.12414180146586" lon="12.022973436031464"><ele>275.3333333333333</ele><time>2026-03-28T17:19:58Z</time></trkpt><trkpt lat="44.124071939104475" lon="12.022703738492394"><ele>276.0</ele><time>2026-03-28T17:19:59Z</time></trkpt><trkpt lat="44.12398170323249" lon="12.02242685760515"><ele>276.0</ele><time>2026-03-28T17:20:00Z</time></trkpt><trkpt lat="44.12388501380844" lon="12.022160712361037"><ele>276.0</ele><time>2026-03-28T17:20:01Z</time></trkpt><trkpt lat="44.12379403746803" lon="12.021922082796396"><ele>276.0</ele><time>2026-03-28T17:20:02Z</time></trkpt><trkpt lat="44.12371179695482" lon="12.021706367367978"><ele>277.3333333333333</ele><time>2026-03-28T17:20:03Z</time></trkpt><trkpt lat="44.12363176381308" lon="12.02150894990673"><ele>278.66666666666663</ele><time>2026-03-28T17:20:04Z</time></trkpt><trkpt lat="44.12354925874919" lon="12.021305352177684"><ele>280.0</ele><time>2026-03-28T17:20:05Z</time></trkpt><trkpt lat="44.12347082634045" lon="12.0211182103301"><ele>280.0</ele><time>2026-03-28T17:20:06Z</time></trkpt><trkpt lat="44.123378275528175" lon="12.020964721470358"><ele>280.0</ele><time>2026-03-28T17:20:07Z</time></trkpt><trkpt lat="44.12328082932629" lon="12.020778502690169"><ele>280.0</ele><time>2026-03-28T17:20:08Z</time></trkpt><trkpt lat="44.123153544889576" lon="12.020584499029047"><ele>277.66666666666663</ele><time>2026-03-28T17:20:09Z</time></trkpt><trkpt lat="44.12301221231212" lon="12.02037224786488"><ele>275.3333333333333</ele><time>2026-03-28T17:20:10Z</time></trkpt><trkpt lat="44.122865173314615" lon="12.02015110949086"><ele>273.0</ele><time>2026-03-28T17:20:11Z</time></trkpt><trkpt lat="44.12271640124416" lon="12.019926170976106"><ele>272.6666666666667</ele><time>2026-03-28T17:20:12Z</time></trkpt><trkpt lat="44.12257625151063" lon="12.019714269112995"><ele>272.33333333333337</ele><time>2026-03-28T17:20:13Z</time></trkpt><trkpt lat="44.12243766663008" lon="12.019503991938626"><ele>272.0</ele><time>2026-03-28T17:20:14Z</time></trkpt><trkpt lat="44.12228917532745" lon="12.019276788427478"><ele>274.0</ele><time>2026-03-28T17:20:15Z</time></trkpt><trkpt lat="44.12214025935469" lon="12.01904893508703"><ele>276.0</ele><time>2026-03-28T17:20:16Z</time></trkpt><trkpt lat="44.1220050781215" lon="12.018843819955292"><ele>278.0</ele><time>2026-03-28T17:20:17Z</time></trkpt><trkpt lat="44.12187653909493" lon="12.01865952353282"><ele>278.0</ele><time>2026-03-28T17:20:18Z</time></trkpt><trkpt lat="44.12172454183786" lon="12.018543275908874"><ele>278.0</ele><time>2026-03-28T17:20:19Z</time></trkpt><trkpt lat="44.121554971837085" lon="12.018439034008185"><ele>278.0</ele><time>2026-03-28T17:20:20Z</time></trkpt><trkpt lat="44.12136677169615" lon="12.018326131757831"><ele>278.0</ele><time>2026-03-28T17:20:21Z</time></trkpt><trkpt lat="44.12115814982099" lon="12.018221580542066"><ele>278.0</ele><time>2026-03-28T17:20:22Z</time></trkpt><trkpt lat="44.1209560122031" lon="12.018096294418422"><ele>278.0</ele><time>2026-03-28T17:20:23Z</time></trkpt><trkpt lat="44.12074775077755" lon="12.017961509379491"><ele>276.5</ele><time>2026-03-28T17:20:24Z</time></trkpt><trkpt lat="44.120533553914825" lon="12.017821694179364"><ele>275.0</ele><time>2026-03-28T17:20:25Z</time></trkpt><trkpt lat="44.120327143262685" lon="12.017686945101184"><ele>275.0</ele><time>2026-03-28T17:20:26Z</time></trkpt><trkpt lat="44.1201196508069" lon="12.017553231141001"><ele>275.0</ele><time>2026-03-28T17:20:27Z</time></trkpt><trkpt lat="44.11993065674853" lon="12.017432302865497"><ele>275.0</ele><time>2026-03-28T17:20:28Z</time></trkpt><trkpt lat="44.119747039309054" lon="12.017314814871487"><ele>278.0</ele><time>2026-03-28T17:20:29Z</time></trkpt><trkpt lat="44.119588374856285" lon="12.01720970178254"><ele>281.0</ele><time>2026-03-28T17:20:30Z</time></trkpt><trkpt lat="44.11945841931171" lon="12.017110678297293"><ele>284.0</ele><time>2026-03-28T17:20:31Z</time></trkpt><trkpt lat="44.11935751252308" lon="12.016979062645403"><ele>284.0</ele><time>2026-03-28T17:20:32Z</time></trkpt><trkpt lat="44.119306327241574" lon="12.01682656218692"><ele>284.0</ele><time>2026-03-28T17:20:33Z</time></trkpt><trkpt lat="44.11925510287175" lon="12.016650774860432"><ele>284.0</ele><time>2026-03-28T17:20:34Z</time></trkpt><trkpt lat="44.11919563485065" lon="12.01645298250462"><ele>284.0</ele><time>2026-03-28T17:20:35Z</time></trkpt><trkpt lat="44.11910588481164" lon="12.016270478783344"><ele>289.0</ele><time>2026-03-28T17:20:36Z</time></trkpt><trkpt lat="44.11901384353931" lon="12.016113545667002"><ele>294.0</ele><time>2026-03-28T17:20:37Z</time></trkpt><trkpt lat="44.1189061531099" lon="12.015973209706404"><ele>299.0</ele><time>2026-03-28T17:20:38Z</time></trkpt><trkpt lat="44.1187590811771" lon="12.015844465478978"><ele>298.6666666666667</ele><time>2026-03-28T17:20:39Z</time></trkpt><trkpt lat="44.11860954254268" lon="12.015694611979876"><ele>298.3333333333333</ele><time>2026-03-28T17:20:40Z</time></trkpt><trkpt lat="44.11844186033873" lon="12.015526731751"><ele>298.0</ele><time>2026-03-28T17:20:41Z</time></trkpt><trkpt lat="44.118281614715" lon="12.015366025428216"><ele>301.5</ele><time>2026-03-28T17:20:42Z</time></trkpt><trkpt lat="44.118132775508315" lon="12.015213860208197"><ele>305.0</ele><time>2026-03-28T17:20:43Z</time></trkpt><trkpt lat="44.11801682262699" lon="12.015095316229239"><ele>308.5</ele><time>2026-03-28T17:20:44Z</time></trkpt><trkpt lat="44.11792382903611" lon="12.01501398542172"><ele>312.0</ele><time>2026-03-28T17:20:45Z</time></trkpt><trkpt lat="44.117847110786215" lon="12.014968212803844"><ele>312.25</ele><time>2026-03-28T17:20:46Z</time></trkpt><trkpt lat="44.117750445377276" lon="12.014999888106797"><ele>312.5</ele><time>2026-03-28T17:20:47Z</time></trkpt><trkpt lat="44.11765475740221" lon="12.015065080563506"><ele>312.75</ele><time>2026-03-28T17:20:48Z</time></trkpt><trkpt lat="44.117542191588115" lon="12.015178385814854"><ele>313.0</ele><time>2026-03-28T17:20:49Z</time></trkpt><trkpt lat="44.117419731993294" lon="12.015329084658978"><ele>317.3333333333333</ele><time>2026-03-28T17:20:50Z</time></trkpt><trkpt lat="44.1172824816982" lon="12.01544609682751"><ele>321.6666666666667</ele><time>2026-03-28T17:20:51Z</time></trkpt><trkpt lat="44.11716108478644" lon="12.01559553693153"><ele>326.0</ele><time>2026-03-28T17:20:52Z</time></trkpt><trkpt lat="44.11704621535153" lon="12.015677170912268"><ele>326.0</ele><time>2026-03-28T17:20:53Z</time></trkpt><trkpt lat="44.116951870473606" lon="12.01574688673376"><ele>326.0</ele><time>2026-03-28T17:20:54Z</time></trkpt><trkpt lat="44.11685920782692" lon="12.01577761932978"><ele>326.0</ele><time>2026-03-28T17:20:55Z</time></trkpt><trkpt lat="44.116759984631365" lon="12.015761040571325"><ele>326.0</ele><time>2026-03-28T17:20:56Z</time></trkpt><trkpt lat="44.11665639366646" lon="12.015675911035428"><ele>326.0</ele><time>2026-03-28T17:20:57Z</time></trkpt><trkpt lat="44.116542877545825" lon="12.015571247891867"><ele>325.33333333333337</ele><time>2026-03-28T17:20:58Z</time></trkpt><trkpt lat="44.116411498120335" lon="12.015439638707615"><ele>324.6666666666667</ele><time>2026-03-28T17:20:59Z</time></trkpt><trkpt lat="44.116256341081105" lon="12.015311162076083"><ele>324.0</ele><time>2026-03-28T17:21:00Z</time></trkpt><trkpt lat="44.116098073410484" lon="12.015161248235515"><ele>324.0</ele><time>2026-03-28T17:21:01Z</time></trkpt><trkpt lat="44.11593568398497" lon="12.01500414757916"><ele>324.0</ele><time>2026-03-28T17:21:02Z</time></trkpt><trkpt lat="44.11578320863042" lon="12.014830396446827"><ele>324.0</ele><time>2026-03-28T17:21:03Z</time></trkpt><trkpt lat="44.115612838459356" lon="12.014665900093373"><ele>327.0</ele><time>2026-03-28T17:21:04Z</time></trkpt><trkpt lat="44.115438023783774" lon="12.01449711068651"><ele>330.0</ele><time>2026-03-28T17:21:05Z</time></trkpt><trkpt lat="44.11526625120182" lon="12.014331258561663"><ele>333.0</ele><time>2026-03-28T17:21:06Z</time></trkpt><trkpt lat="44.1151140242173" lon="12.014184810924663"><ele>333.75</ele><time>2026-03-28T17:21:07Z</time></trkpt><trkpt lat="44.11498215620792" lon="12.014058290617099"><ele>334.5</ele><time>2026-03-28T17:21:08Z</time></trkpt><trkpt lat="44.11487738487656" lon="12.013943232892068"><ele>335.25</ele><time>2026-03-28T17:21:09Z</time></trkpt><trkpt lat="44.11480023738717" lon="12.013807040239332"><ele>336.0</ele><time>2026-03-28T17:21:10Z</time></trkpt><trkpt lat="44.114750189290696" lon="12.01363699979698"><ele>340.6666666666667</ele><time>2026-03-28T17:21:11Z</time></trkpt><trkpt lat="44.11472186050275" lon="12.01341727650063"><ele>345.33333333333337</ele><time>2026-03-28T17:21:12Z</time></trkpt><trkpt lat="44.114687927990296" lon="12.013167305882149"><ele>350.0</ele><time>2026-03-28T17:21:13Z</time></trkpt><trkpt lat="44.11464599218867" lon="12.012897583077224"><ele>350.0</ele><time>2026-03-28T17:21:14Z</time></trkpt><trkpt lat="44.11460699754873" lon="12.012653754162672"><ele>350.0</ele><time>2026-03-28T17:21:15Z</time></trkpt><trkpt lat="44.114571061861945" lon="12.012429052532331"><ele>350.0</ele><time>2026-03-28T17:21:16Z</time></trkpt><trkpt lat="44.11452280509093" lon="12.012226956441088"><ele>348.75</ele><time>2026-03-28T17:21:17Z</time></trkpt><trkpt lat="44.11449226351334" lon="12.012027737225068"><ele>347.5</ele><time>2026-03-28T17:21:18Z</time></trkpt><trkpt lat="44.11446954811895" lon="12.011849074775602"><ele>346.25</ele><time>2026-03-28T17:21:19Z</time></trkpt><trkpt lat="44.11444596086793" lon="12.011701489836067"><ele>345.0</ele><time>2026-03-28T17:21:20Z</time></trkpt><trkpt lat="44.114400541303965" lon="12.011582788678918"><ele>343.8</ele><time>2026-03-28T17:21:21Z</time></trkpt><trkpt lat="44.11436444128335" lon="12.011484063949291"><ele>342.6</ele><time>2026-03-28T17:21:22Z</time></trkpt><trkpt lat="44.11426748173849" lon="12.011469344561387"><ele>341.4</ele><time>2026-03-28T17:21:23Z</time></trkpt><trkpt lat="44.114154622020756" lon="12.011519416383951"><ele>340.2</ele><time>2026-03-28T17:21:24Z</time></trkpt><trkpt lat="44.11403895402253" lon="12.011552609325733"><ele>339.0</ele><time>2026-03-28T17:21:25Z</time></trkpt><trkpt lat="44.11393035298898" lon="12.01157261237779"><ele>341.5</ele><time>2026-03-28T17:21:26Z</time></trkpt><trkpt lat="44.113843442191474" lon="12.011537446125196"><ele>344.0</ele><time>2026-03-28T17:21:27Z</time></trkpt><trkpt lat="44.1137755574148" lon="12.01147847262767"><ele>346.5</ele><time>2026-03-28T17:21:28Z</time></trkpt><trkpt lat="44.11372630321281" lon="12.011410398361054"><ele>349.0</ele><time>2026-03-28T17:21:29Z</time></trkpt><trkpt lat="44.113690407867885" lon="12.011324365391634"><ele>351.5</ele><time>2026-03-28T17:21:30Z</time></trkpt><trkpt lat="44.11369217297158" lon="12.011184434058062"><ele>354.0</ele><time>2026-03-28T17:21:31Z</time></trkpt><trkpt lat="44.113740862420535" lon="12.011053973604243"><ele>354.0</ele><time>2026-03-28T17:21:32Z</time></trkpt><trkpt lat="44.113773077788" lon="12.010902142109934"><ele>354.0</ele><time>2026-03-28T17:21:33Z</time></trkpt><trkpt lat="44.11379693894801" lon="12.010728319837002"><ele>354.0</ele><time>2026-03-28T17:21:34Z</time></trkpt><trkpt lat="44.11379511134586" lon="12.010612470475964"><ele>354.0</ele><time>2026-03-28T17:21:35Z</time></trkpt><trkpt lat="44.11377301891066" lon="12.010510083331539"><ele>354.0</ele><time>2026-03-28T17:21:36Z</time></trkpt><trkpt lat="44.113711985354364" lon="12.010404305092235"><ele>354.25</ele><time>2026-03-28T17:21:37Z</time></trkpt><trkpt lat="44.113622451750054" lon="12.010297246562427"><ele>354.5</ele><time>2026-03-28T17:21:38Z</time></trkpt><trkpt lat="44.11352323078427" lon="12.010193785610225"><ele>354.75</ele><time>2026-03-28T17:21:39Z</time></trkpt><trkpt lat="44.113466242892386" lon="12.010074257698319"><ele>355.0</ele><time>2026-03-28T17:21:40Z</time></trkpt><trkpt lat="44.113437555889455" lon="12.009857885526975"><ele>355.0</ele><time>2026-03-28T17:21:42Z</time></trkpt><trkpt lat="44.1134574061906" lon="12.009698439901502"><ele>355.0</ele><time>2026-03-28T17:21:43Z</time></trkpt><trkpt lat="44.113513961853094" lon="12.009517381763883"><ele>355.0</ele><time>2026-03-28T17:21:44Z</time></trkpt><trkpt lat="44.11357762589343" lon="12.009326560106977"><ele>355.0</ele><time>2026-03-28T17:21:45Z</time></trkpt><trkpt lat="44.11364229060363" lon="12.009107194439332"><ele>357.66666666666663</ele><time>2026-03-28T17:21:46Z</time></trkpt><trkpt lat="44.11371417777019" lon="12.008878310923183"><ele>360.3333333333333</ele><time>2026-03-28T17:21:47Z</time></trkpt><trkpt lat="44.11381219788747" lon="12.00866739276175"><ele>363.0</ele><time>2026-03-28T17:21:48Z</time></trkpt><trkpt lat="44.11393915038475" lon="12.008455336551735"><ele>362.0</ele><time>2026-03-28T17:21:49Z</time></trkpt><trkpt lat="44.11403309271782" lon="12.008257944031417"><ele>361.0</ele><time>2026-03-28T17:21:50Z</time></trkpt><trkpt lat="44.114154388511615" lon="12.008116432964275"><ele>360.0</ele><time>2026-03-28T17:21:51Z</time></trkpt><trkpt lat="44.11424561215104" lon="12.00801716153936"><ele>359.0</ele><time>2026-03-28T17:21:52Z</time></trkpt><trkpt lat="44.1143537631584" lon="12.00791270355941"><ele>359.0</ele><time>2026-03-28T17:21:53Z</time></trkpt><trkpt lat="44.11448979820022" lon="12.007849777195759"><ele>359.0</ele><time>2026-03-28T17:21:54Z</time></trkpt><trkpt lat="44.11461118057823" lon="12.007797739278589"><ele>359.0</ele><time>2026-03-28T17:21:55Z</time></trkpt><trkpt lat="44.11469408816061" lon="12.007721926833122"><ele>359.0</ele><time>2026-03-28T17:21:56Z</time></trkpt><trkpt lat="44.114747813361376" lon="12.00759036028899"><ele>362.0</ele><time>2026-03-28T17:21:57Z</time></trkpt><trkpt lat="44.11478082621552" lon="12.007421154086357"><ele>365.0</ele><time>2026-03-28T17:21:58Z</time></trkpt><trkpt lat="44.11478318147678" lon="12.007220529843869"><ele>368.0</ele><time>2026-03-28T17:21:59Z</time></trkpt><trkpt lat="44.11476153911951" lon="12.006978717029066"><ele>371.0</ele><time>2026-03-28T17:22:00Z</time></trkpt><trkpt lat="44.114749587461695" lon="12.006709939329667"><ele>370.33333333333337</ele><time>2026-03-28T17:22:01Z</time></trkpt><trkpt lat="44.11474696199585" lon="12.006418105715401"><ele>369.6666666666667</ele><time>2026-03-28T17:22:02Z</time></trkpt><trkpt lat="44.11474644722917" lon="12.006125286886991"><ele>369.0</ele><time>2026-03-28T17:22:03Z</time></trkpt><trkpt lat="44.114740934233986" lon="12.005818183754918"><ele>366.3333333333333</ele><time>2026-03-28T17:22:04Z</time></trkpt><trkpt lat="44.11473655758534" lon="12.005527792701594"><ele>363.66666666666663</ele><time>2026-03-28T17:22:05Z</time></trkpt><trkpt lat="44.114734408392266" lon="12.005238381913061"><ele>361.0</ele><time>2026-03-28T17:22:06Z</time></trkpt><trkpt lat="44.114732393237034" lon="12.00497512135892"><ele>360.0</ele><time>2026-03-28T17:22:07Z</time></trkpt><trkpt lat="44.114734408220244" lon="12.004727463979144"><ele>359.0</ele><time>2026-03-28T17:22:08Z</time></trkpt><trkpt lat="44.114731268042384" lon="12.004495678143936"><ele>358.0</ele><time>2026-03-28T17:22:09Z</time></trkpt><trkpt lat="44.11472683491301" lon="12.004285171004016"><ele>356.25</ele><time>2026-03-28T17:22:10Z</time></trkpt><trkpt lat="44.11472336212396" lon="12.0040853000974"><ele>354.5</ele><time>2026-03-28T17:22:11Z</time></trkpt><trkpt lat="44.114720717442744" lon="12.003894888512963"><ele>352.75</ele><time>2026-03-28T17:22:12Z</time></trkpt><trkpt lat="44.11471420178654" lon="12.003695513598029"><ele>351.0</ele><time>2026-03-28T17:22:13Z</time></trkpt><trkpt lat="44.11471092096674" lon="12.003500852128917"><ele>351.0</ele><time>2026-03-28T17:22:14Z</time></trkpt><trkpt lat="44.1147169564551" lon="12.003342031902305"><ele>351.0</ele><time>2026-03-28T17:22:15Z</time></trkpt><trkpt lat="44.114718218369546" lon="12.003199606851615"><ele>351.0</ele><time>2026-03-28T17:22:16Z</time></trkpt><trkpt lat="44.11471264042081" lon="12.00306631171319"><ele>351.0</ele><time>2026-03-28T17:22:17Z</time></trkpt><trkpt lat="44.11471007460883" lon="12.002943028552037"><ele>351.0</ele><time>2026-03-28T17:22:18Z</time></trkpt><trkpt lat="44.114706577503796" lon="12.002796319983393"><ele>348.75</ele><time>2026-03-28T17:22:19Z</time></trkpt><trkpt lat="44.11470497949966" lon="12.002637624653248"><ele>346.5</ele><time>2026-03-28T17:22:20Z</time></trkpt><trkpt lat="44.114704974303" lon="12.002458120203698"><ele>344.25</ele><time>2026-03-28T17:22:21Z</time></trkpt><trkpt lat="44.1147057928431" lon="12.002285304987312"><ele>342.0</ele><time>2026-03-28T17:22:22Z</time></trkpt><trkpt lat="44.11471676210402" lon="12.002100951178218"><ele>341.6</ele><time>2026-03-28T17:22:23Z</time></trkpt><trkpt lat="44.11474277232809" lon="12.001899538118524"><ele>341.20000000000005</ele><time>2026-03-28T17:22:24Z</time></trkpt><trkpt lat="44.114784795768934" lon="12.00173575532689"><ele>340.8</ele><time>2026-03-28T17:22:25Z</time></trkpt><trkpt lat="44.11481174830697" lon="12.001619146167075"><ele>340.4</ele><time>2026-03-28T17:22:26Z</time></trkpt><trkpt lat="44.11483457057685" lon="12.00151050055798"><ele>340.0</ele><time>2026-03-28T17:22:27Z</time></trkpt><trkpt lat="44.114846162522646" lon="12.001386474921917"><ele>340.0</ele><time>2026-03-28T17:22:28Z</time></trkpt><trkpt lat="44.114830194343355" lon="12.00123557302618"><ele>340.0</ele><time>2026-03-28T17:22:29Z</time></trkpt><trkpt lat="44.11478395438783" lon="12.001068579500553"><ele>340.0</ele><time>2026-03-28T17:22:30Z</time></trkpt><trkpt lat="44.11474408473227" lon="12.000894507081906"><ele>340.0</ele><time>2026-03-28T17:22:31Z</time></trkpt><trkpt lat="44.114706711070816" lon="12.000717487825092"><ele>341.2</ele><time>2026-03-28T17:22:32Z</time></trkpt><trkpt lat="44.11469240765652" lon="12.000525538585341"><ele>342.4</ele><time>2026-03-28T17:22:33Z</time></trkpt><trkpt lat="44.11468291543981" lon="12.000354046956469"><ele>343.6</ele><time>2026-03-28T17:22:34Z</time></trkpt><trkpt lat="44.11467803797105" lon="12.00021622822852"><ele>344.8</ele><time>2026-03-28T17:22:35Z</time></trkpt><trkpt lat="44.11466780730965" lon="12.0001247288301"><ele>346.0</ele><time>2026-03-28T17:22:36Z</time></trkpt><trkpt lat="44.11468966905854" lon="12.000022401729527"><ele>346.0</ele><time>2026-03-28T17:22:37Z</time></trkpt><trkpt lat="44.114744816687256" lon="11.9999240375659"><ele>346.0</ele><time>2026-03-28T17:22:38Z</time></trkpt><trkpt lat="44.11482373384742" lon="11.999853628283267"><ele>346.0</ele><time>2026-03-28T17:22:39Z</time></trkpt><trkpt lat="44.11488739143973" lon="11.999761796850061"><ele>346.0</ele><time>2026-03-28T17:22:40Z</time></trkpt><trkpt lat="44.11497364281624" lon="11.999687643114749"><ele>346.0</ele><time>2026-03-28T17:22:41Z</time></trkpt><trkpt lat="44.11502987404682" lon="11.999566405533"><ele>349.0</ele><time>2026-03-28T17:22:42Z</time></trkpt><trkpt lat="44.115199277713955" lon="11.99955720699447"><ele>352.0</ele><time>2026-03-28T17:22:43Z</time></trkpt><trkpt lat="44.115334365748275" lon="11.999494229999609"><ele>355.0</ele><time>2026-03-28T17:22:44Z</time></trkpt><trkpt lat="44.11547841032075" lon="11.999427068067538"><ele>355.0</ele><time>2026-03-28T17:22:45Z</time></trkpt><trkpt lat="44.11563457214856" lon="11.999339335601718"><ele>355.0</ele><time>2026-03-28T17:22:46Z</time></trkpt><trkpt lat="44.115777068448054" lon="11.999247569382483"><ele>355.0</ele><time>2026-03-28T17:22:47Z</time></trkpt><trkpt lat="44.11591021511786" lon="11.999127786389018"><ele>354.66666666666663</ele><time>2026-03-28T17:22:48Z</time></trkpt><trkpt lat="44.11604908927747" lon="11.998976118845349"><ele>354.3333333333333</ele><time>2026-03-28T17:22:49Z</time></trkpt><trkpt lat="44.116176869927735" lon="11.998809984820928"><ele>354.0</ele><time>2026-03-28T17:22:50Z</time></trkpt><trkpt lat="44.11629669705793" lon="11.998657930933863"><ele>354.0</ele><time>2026-03-28T17:22:51Z</time></trkpt><trkpt lat="44.11640054408149" lon="11.998536009219508"><ele>354.0</ele><time>2026-03-28T17:22:52Z</time></trkpt><trkpt lat="44.11653109647795" lon="11.998452786153221"><ele>354.0</ele><time>2026-03-28T17:22:53Z</time></trkpt><trkpt lat="44.11667347111191" lon="11.998405061944817"><ele>354.0</ele><time>2026-03-28T17:22:54Z</time></trkpt><trkpt lat="44.1168470237491" lon="11.998379840946647"><ele>354.0</ele><time>2026-03-28T17:22:55Z</time></trkpt><trkpt lat="44.11703914504254" lon="11.998343510501908"><ele>354.0</ele><time>2026-03-28T17:22:56Z</time></trkpt><trkpt lat="44.11724491495188" lon="11.99833100837424"><ele>354.0</ele><time>2026-03-28T17:22:57Z</time></trkpt><trkpt lat="44.11744818947993" lon="11.99833067235434"><ele>355.0</ele><time>2026-03-28T17:22:58Z</time></trkpt><trkpt lat="44.11762776515464" lon="11.99832536813565"><ele>356.0</ele><time>2026-03-28T17:22:59Z</time></trkpt><trkpt lat="44.117792378589655" lon="11.998322346818425"><ele>357.0</ele><time>2026-03-28T17:23:00Z</time></trkpt><trkpt lat="44.11795258964209" lon="11.998309718378318"><ele>357.0</ele><time>2026-03-28T17:23:01Z</time></trkpt><trkpt lat="44.11809753513982" lon="11.99823992158174"><ele>357.0</ele><time>2026-03-28T17:23:02Z</time></trkpt><trkpt lat="44.11823917022131" lon="11.998144591104525"><ele>357.0</ele><time>2026-03-28T17:23:03Z</time></trkpt><trkpt lat="44.11839551783281" lon="11.998000375106004"><ele>356.3333333333333</ele><time>2026-03-28T17:23:04Z</time></trkpt><trkpt lat="44.11855918442127" lon="11.997814680906698"><ele>355.66666666666663</ele><time>2026-03-28T17:23:05Z</time></trkpt><trkpt lat="44.11871359621019" lon="11.997638033055718"><ele>355.0</ele><time>2026-03-28T17:23:06Z</time></trkpt><trkpt lat="44.11886163547221" lon="11.99748558609196"><ele>354.75</ele><time>2026-03-28T17:23:07Z</time></trkpt><trkpt lat="44.119013421710186" lon="11.997355862291558"><ele>354.5</ele><time>2026-03-28T17:23:08Z</time></trkpt><trkpt lat="44.11913729382889" lon="11.997263642983784"><ele>354.25</ele><time>2026-03-28T17:23:09Z</time></trkpt><trkpt lat="44.119252314518654" lon="11.99722110976408"><ele>354.0</ele><time>2026-03-28T17:23:10Z</time></trkpt><trkpt lat="44.119411996317005" lon="11.997236909086732"><ele>354.0</ele><time>2026-03-28T17:23:11Z</time></trkpt><trkpt lat="44.11957431547936" lon="11.997261604141304"><ele>354.0</ele><time>2026-03-28T17:23:12Z</time></trkpt><trkpt lat="44.11976071716161" lon="11.997292443782813"><ele>354.0</ele><time>2026-03-28T17:23:13Z</time></trkpt><trkpt lat="44.119952793703874" lon="11.99733361230118"><ele>352.3333333333333</ele><time>2026-03-28T17:23:14Z</time></trkpt><trkpt lat="44.12013776432966" lon="11.997363412675643"><ele>350.66666666666663</ele><time>2026-03-28T17:23:15Z</time></trkpt><trkpt lat="44.120309820609585" lon="11.997395342702266"><ele>349.0</ele><time>2026-03-28T17:23:16Z</time></trkpt><trkpt lat="44.12046978205186" lon="11.997426395041774"><ele>349.0</ele><time>2026-03-28T17:23:17Z</time></trkpt><trkpt lat="44.120620601922916" lon="11.997453075035004"><ele>349.0</ele><time>2026-03-28T17:23:18Z</time></trkpt><trkpt lat="44.12077819965495" lon="11.997457218389789"><ele>349.0</ele><time>2026-03-28T17:23:19Z</time></trkpt><trkpt lat="44.12095337530682" lon="11.997433079297988"><ele>346.66666666666663</ele><time>2026-03-28T17:23:20Z</time></trkpt><trkpt lat="44.1211375787954" lon="11.997390609252426"><ele>344.3333333333333</ele><time>2026-03-28T17:23:21Z</time></trkpt><trkpt lat="44.12132075113341" lon="11.997338670653138"><ele>342.0</ele><time>2026-03-28T17:23:22Z</time></trkpt><trkpt lat="44.12149269119758" lon="11.997290341450775"><ele>337.6666666666667</ele><time>2026-03-28T17:23:23Z</time></trkpt><trkpt lat="44.121658947572726" lon="11.997245388696616"><ele>333.33333333333337</ele><time>2026-03-28T17:23:24Z</time></trkpt><trkpt lat="44.121819651330746" lon="11.997204100795363"><ele>329.0</ele><time>2026-03-28T17:23:25Z</time></trkpt><trkpt lat="44.121960793652214" lon="11.997176877399827"><ele>329.0</ele><time>2026-03-28T17:23:26Z</time></trkpt><trkpt lat="44.12205867039491" lon="11.997159955777459"><ele>329.0</ele><time>2026-03-28T17:23:27Z</time></trkpt><trkpt lat="44.122147205900816" lon="11.997172232334972"><ele>329.0</ele><time>2026-03-28T17:23:28Z</time></trkpt><trkpt lat="44.12223889654032" lon="11.997236462728884"><ele>329.0</ele><time>2026-03-28T17:23:29Z</time></trkpt><trkpt lat="44.12231217533575" lon="11.99735199773572"><ele>329.0</ele><time>2026-03-28T17:23:30Z</time></trkpt><trkpt lat="44.122317083209865" lon="11.997538466590424"><ele>327.5</ele><time>2026-03-28T17:23:31Z</time></trkpt><trkpt lat="44.122316751371464" lon="11.997711804331672"><ele>326.0</ele><time>2026-03-28T17:23:32Z</time></trkpt><trkpt lat="44.12232759624325" lon="11.997887228824972"><ele>324.5</ele><time>2026-03-28T17:23:33Z</time></trkpt><trkpt lat="44.122337185056764" lon="11.99804711063703"><ele>323.0</ele><time>2026-03-28T17:23:34Z</time></trkpt><trkpt lat="44.12237205405964" lon="11.998201137739981"><ele>317.75</ele><time>2026-03-28T17:23:35Z</time></trkpt><trkpt lat="44.12243772373675" lon="11.998344456289772"><ele>312.5</ele><time>2026-03-28T17:23:36Z</time></trkpt><trkpt lat="44.12252084244539" lon="11.998461626932444"><ele>307.25</ele><time>2026-03-28T17:23:37Z</time></trkpt><trkpt lat="44.12262877400707" lon="11.998560828740688"><ele>302.0</ele><time>2026-03-28T17:23:38Z</time></trkpt><trkpt lat="44.12276008325218" lon="11.998621202128597"><ele>302.0</ele><time>2026-03-28T17:23:39Z</time></trkpt><trkpt lat="44.12291385760963" lon="11.998636279821646"><ele>302.0</ele><time>2026-03-28T17:23:40Z</time></trkpt><trkpt lat="44.12307338573284" lon="11.99864336831174"><ele>302.0</ele><time>2026-03-28T17:23:41Z</time></trkpt><trkpt lat="44.12323401969523" lon="11.99864975106887"><ele>300.0</ele><time>2026-03-28T17:23:42Z</time></trkpt><trkpt lat="44.12339603042469" lon="11.99866118500737"><ele>298.0</ele><time>2026-03-28T17:23:43Z</time></trkpt><trkpt lat="44.12357056270386" lon="11.998692961757671"><ele>296.0</ele><time>2026-03-28T17:23:44Z</time></trkpt><trkpt lat="44.12373336709829" lon="11.998764317841104"><ele>296.0</ele><time>2026-03-28T17:23:45Z</time></trkpt><trkpt lat="44.12391830589305" lon="11.998888834348552"><ele>296.0</ele><time>2026-03-28T17:23:46Z</time></trkpt><trkpt lat="44.12411155062325" lon="11.99903253086986"><ele>296.0</ele><time>2026-03-28T17:23:47Z</time></trkpt><trkpt lat="44.12431351634777" lon="11.999185548757758"><ele>287.0</ele><time>2026-03-28T17:23:48Z</time></trkpt><trkpt lat="44.12452301147489" lon="11.999345166173818"><ele>278.0</ele><time>2026-03-28T17:23:49Z</time></trkpt><trkpt lat="44.12471571075742" lon="11.999491972049519"><ele>282.6666666666667</ele><time>2026-03-28T17:23:50Z</time></trkpt><trkpt lat="44.12489915143818" lon="11.999624675907635"><ele>287.3333333333333</ele><time>2026-03-28T17:23:51Z</time></trkpt><trkpt lat="44.125064948979954" lon="11.999746817866352"><ele>292.0</ele><time>2026-03-28T17:23:52Z</time></trkpt><trkpt lat="44.12522318776534" lon="11.999850026944834"><ele>292.0</ele><time>2026-03-28T17:23:53Z</time></trkpt><trkpt lat="44.12538999318672" lon="11.99992264792248"><ele>292.0</ele><time>2026-03-28T17:23:54Z</time></trkpt><trkpt lat="44.12557925132759" lon="11.999944043123856"><ele>292.0</ele><time>2026-03-28T17:23:55Z</time></trkpt><trkpt lat="44.12578184016809" lon="11.999947086935252"><ele>293.0</ele><time>2026-03-28T17:23:56Z</time></trkpt><trkpt lat="44.12597608781606" lon="11.999956989410848"><ele>294.0</ele><time>2026-03-28T17:23:57Z</time></trkpt><trkpt lat="44.12614429460374" lon="11.999992152865834"><ele>295.0</ele><time>2026-03-28T17:23:58Z</time></trkpt><trkpt lat="44.12629926446194" lon="12.00003660897121"><ele>295.0</ele><time>2026-03-28T17:23:59Z</time></trkpt><trkpt lat="44.12645543096542" lon="12.000078828373393"><ele>295.0</ele><time>2026-03-28T17:24:00Z</time></trkpt><trkpt lat="44.126606181560824" lon="12.000128773805905"><ele>295.0</ele><time>2026-03-28T17:24:01Z</time></trkpt><trkpt lat="44.12674029576425" lon="12.000200053183175"><ele>294.25</ele><time>2026-03-28T17:24:02Z</time></trkpt><trkpt lat="44.12685293933954" lon="12.000310666029169"><ele>293.5</ele><time>2026-03-28T17:24:03Z</time></trkpt><trkpt lat="44.12689390122528" lon="12.000475554272755"><ele>292.75</ele><time>2026-03-28T17:24:04Z</time></trkpt><trkpt lat="44.12693751166309" lon="12.000586895806924"><ele>292.0</ele><time>2026-03-28T17:24:05Z</time></trkpt><trkpt lat="44.12700286288244" lon="12.000724846373473"><ele>291.3333333333333</ele><time>2026-03-28T17:24:06Z</time></trkpt><trkpt lat="44.12709831330828" lon="12.000879485997114"><ele>290.6666666666667</ele><time>2026-03-28T17:24:07Z</time></trkpt><trkpt lat="44.127215603885396" lon="12.001060049051572"><ele>290.0</ele><time>2026-03-28T17:24:08Z</time></trkpt><trkpt lat="44.12734171515257" lon="12.001232164622524"><ele>290.6666666666667</ele><time>2026-03-28T17:24:09Z</time></trkpt><trkpt lat="44.127470952346435" lon="12.001395453416508"><ele>291.3333333333333</ele><time>2026-03-28T17:24:10Z</time></trkpt><trkpt lat="44.127579087671194" lon="12.001554487915463"><ele>292.0</ele><time>2026-03-28T17:24:11Z</time></trkpt><trkpt lat="44.12767596032258" lon="12.001730718653496"><ele>292.0</ele><time>2026-03-28T17:24:12Z</time></trkpt><trkpt lat="44.127756054979514" lon="12.001913040048045"><ele>292.0</ele><time>2026-03-28T17:24:13Z</time></trkpt><trkpt lat="44.127831042656844" lon="12.002084265121011"><ele>292.0</ele><time>2026-03-28T17:24:14Z</time></trkpt><trkpt lat="44.127899437555826" lon="12.002234722667557"><ele>292.0</ele><time>2026-03-28T17:24:15Z</time></trkpt><trkpt lat="44.127975643695" lon="12.002364181382546"><ele>292.0</ele><time>2026-03-28T17:24:16Z</time></trkpt><trkpt lat="44.12807722710777" lon="12.002476786966682"><ele>292.0</ele><time>2026-03-28T17:24:17Z</time></trkpt><trkpt lat="44.12820895224499" lon="12.002582646968182"><ele>292.0</ele><time>2026-03-28T17:24:18Z</time></trkpt><trkpt lat="44.12836229144815" lon="12.00269843552184"><ele>291.0</ele><time>2026-03-28T17:24:19Z</time></trkpt><trkpt lat="44.12852234909035" lon="12.00282160088905"><ele>290.0</ele><time>2026-03-28T17:24:20Z</time></trkpt><trkpt lat="44.12868584622144" lon="12.002976593072699"><ele>289.0</ele><time>2026-03-28T17:24:21Z</time></trkpt><trkpt lat="44.12886289401007" lon="12.003103953951145"><ele>289.0</ele><time>2026-03-28T17:24:22Z</time></trkpt><trkpt lat="44.129033233499015" lon="12.003233964699497"><ele>289.0</ele><time>2026-03-28T17:24:23Z</time></trkpt><trkpt lat="44.1292047014943" lon="12.003372566456273"><ele>289.0</ele><time>2026-03-28T17:24:24Z</time></trkpt><trkpt lat="44.12937889823291" lon="12.003498929047765"><ele>284.0</ele><time>2026-03-28T17:24:25Z</time></trkpt><trkpt lat="44.12953979945682" lon="12.003585592878398"><ele>279.0</ele><time>2026-03-28T17:24:26Z</time></trkpt><trkpt lat="44.12968589155361" lon="12.003654232243836"><ele>274.0</ele><time>2026-03-28T17:24:27Z</time></trkpt><trkpt lat="44.12986205807789" lon="12.003725544254573"><ele>272.66666666666663</ele><time>2026-03-28T17:24:28Z</time></trkpt><trkpt lat="44.13002428457675" lon="12.003784918129366"><ele>271.3333333333333</ele><time>2026-03-28T17:24:29Z</time></trkpt><trkpt lat="44.130183157734756" lon="12.003851012825105"><ele>270.0</ele><time>2026-03-28T17:24:30Z</time></trkpt><trkpt lat="44.13032744889815" lon="12.003904320296597"><ele>270.0</ele><time>2026-03-28T17:24:31Z</time></trkpt><trkpt lat="44.1304850494371" lon="12.003951120950902"><ele>270.0</ele><time>2026-03-28T17:24:32Z</time></trkpt><trkpt lat="44.13066719156902" lon="12.003972683597038"><ele>270.0</ele><time>2026-03-28T17:24:33Z</time></trkpt><trkpt lat="44.130856429393695" lon="12.003973827998879"><ele>267.6666666666667</ele><time>2026-03-28T17:24:34Z</time></trkpt><trkpt lat="44.131028957951166" lon="12.00397696880075"><ele>265.33333333333337</ele><time>2026-03-28T17:24:35Z</time></trkpt><trkpt lat="44.13120312304845" lon="12.003985922933593"><ele>263.0</ele><time>2026-03-28T17:24:36Z</time></trkpt><trkpt lat="44.13138865468817" lon="12.004006324492405"><ele>260.6666666666667</ele><time>2026-03-28T17:24:37Z</time></trkpt><trkpt lat="44.13157077134004" lon="12.004012315049545"><ele>258.3333333333333</ele><time>2026-03-28T17:24:38Z</time></trkpt><trkpt lat="44.131756011577465" lon="12.004019681295736"><ele>256.0</ele><time>2026-03-28T17:24:39Z</time></trkpt><trkpt lat="44.131941517217264" lon="12.004027712798617"><ele>256.0</ele><time>2026-03-28T17:24:40Z</time></trkpt><trkpt lat="44.132124907505364" lon="12.004030058992234"><ele>256.0</ele><time>2026-03-28T17:24:41Z</time></trkpt><trkpt lat="44.13230720852658" lon="12.004034776540887"><ele>256.0</ele><time>2026-03-28T17:24:42Z</time></trkpt><trkpt lat="44.13248724823835" lon="12.004039995282252"><ele>255.33333333333331</ele><time>2026-03-28T17:24:43Z</time></trkpt><trkpt lat="44.13265412603359" lon="12.00405536497708"><ele>254.66666666666669</ele><time>2026-03-28T17:24:44Z</time></trkpt><trkpt lat="44.13281674133332" lon="12.004074975613484"><ele>254.0</ele><time>2026-03-28T17:24:45Z</time></trkpt><trkpt lat="44.132997821740695" lon="12.004090069947585"><ele>254.0</ele><time>2026-03-28T17:24:46Z</time></trkpt><trkpt lat="44.13319866040954" lon="12.004112046146"><ele>254.0</ele><time>2026-03-28T17:24:47Z</time></trkpt><trkpt lat="44.13342101355933" lon="12.004145411805437"><ele>254.0</ele><time>2026-03-28T17:24:48Z</time></trkpt><trkpt lat="44.1336627269896" lon="12.004190557772437"><ele>252.5</ele><time>2026-03-28T17:24:49Z</time></trkpt><trkpt lat="44.13391427701712" lon="12.004235796403137"><ele>251.0</ele><time>2026-03-28T17:24:50Z</time></trkpt><trkpt lat="44.13415317363799" lon="12.004280060584575"><ele>251.0</ele><time>2026-03-28T17:24:51Z</time></trkpt><trkpt lat="44.13438369299471" lon="12.004314763429193"><ele>251.0</ele><time>2026-03-28T17:24:52Z</time></trkpt><trkpt lat="44.13460142620443" lon="12.004351716755204"><ele>251.0</ele><time>2026-03-28T17:24:53Z</time></trkpt><trkpt lat="44.13481749588123" lon="12.00438707716423"><ele>251.0</ele><time>2026-03-28T17:24:54Z</time></trkpt><trkpt lat="44.13504152120498" lon="12.004423784030744"><ele>251.0</ele><time>2026-03-28T17:24:55Z</time></trkpt><trkpt lat="44.13526432081326" lon="12.004463704791974"><ele>249.66666666666669</ele><time>2026-03-28T17:24:56Z</time></trkpt><trkpt lat="44.135483657373655" lon="12.004502488404587"><ele>248.33333333333331</ele><time>2026-03-28T17:24:57Z</time></trkpt><trkpt lat="44.13570083566392" lon="12.0045390109638"><ele>247.0</ele><time>2026-03-28T17:24:58Z</time></trkpt><trkpt lat="44.13591056119254" lon="12.004576435109529"><ele>246.0</ele><time>2026-03-28T17:24:59Z</time></trkpt><trkpt lat="44.13612273380056" lon="12.004611022815784"><ele>245.0</ele><time>2026-03-28T17:25:00Z</time></trkpt><trkpt lat="44.13633814473393" lon="12.004642094284172"><ele>244.0</ele><time>2026-03-28T17:25:01Z</time></trkpt><trkpt lat="44.1365400523908" lon="12.004675880284069"><ele>241.66666666666666</ele><time>2026-03-28T17:25:02Z</time></trkpt><trkpt lat="44.136731162943526" lon="12.004712464756127"><ele>239.33333333333331</ele><time>2026-03-28T17:25:03Z</time></trkpt><trkpt lat="44.136913280590065" lon="12.004747308892403"><ele>237.0</ele><time>2026-03-28T17:25:04Z</time></trkpt><trkpt lat="44.13709376336321" lon="12.004774869038743"><ele>237.0</ele><time>2026-03-28T17:25:05Z</time></trkpt><trkpt lat="44.13726336977771" lon="12.004797339631349"><ele>237.0</ele><time>2026-03-28T17:25:06Z</time></trkpt><trkpt lat="44.137462537302426" lon="12.0048129471565"><ele>237.0</ele><time>2026-03-28T17:25:07Z</time></trkpt><trkpt lat="44.13767389302961" lon="12.004824864689933"><ele>236.0</ele><time>2026-03-28T17:25:08Z</time></trkpt><trkpt lat="44.13787475882453" lon="12.004830688465834"><ele>235.0</ele><time>2026-03-28T17:25:09Z</time></trkpt><trkpt lat="44.13806566728918" lon="12.00483874429203"><ele>234.0</ele><time>2026-03-28T17:25:10Z</time></trkpt><trkpt lat="44.13825024055717" lon="12.004854282000387"><ele>232.0</ele><time>2026-03-28T17:25:11Z</time></trkpt><trkpt lat="44.13842312091391" lon="12.004874247063196"><ele>230.0</ele><time>2026-03-28T17:25:12Z</time></trkpt><trkpt lat="44.138594097581816" lon="12.00488511592524"><ele>228.0</ele><time>2026-03-28T17:25:13Z</time></trkpt><trkpt lat="44.138761212270275" lon="12.004898867711756"><ele>228.0</ele><time>2026-03-28T17:25:14Z</time></trkpt><trkpt lat="44.138932658593646" lon="12.004945207638277"><ele>228.0</ele><time>2026-03-28T17:25:15Z</time></trkpt><trkpt lat="44.139114081468264" lon="12.005022363449736"><ele>228.0</ele><time>2026-03-28T17:25:16Z</time></trkpt><trkpt lat="44.139304487285" lon="12.00514391569732"><ele>227.33333333333331</ele><time>2026-03-28T17:25:17Z</time></trkpt><trkpt lat="44.13949726753081" lon="12.005281518503441"><ele>226.66666666666666</ele><time>2026-03-28T17:25:18Z</time></trkpt><trkpt lat="44.13970007333638" lon="12.005415908586187"><ele>226.0</ele><time>2026-03-28T17:25:19Z</time></trkpt><trkpt lat="44.13991037561869" lon="12.00554633516657"><ele>223.33333333333331</ele><time>2026-03-28T17:25:20Z</time></trkpt><trkpt lat="44.14011180451183" lon="12.005674953527397"><ele>220.66666666666669</ele><time>2026-03-28T17:25:21Z</time></trkpt><trkpt lat="44.1403104438192" lon="12.005800913641675"><ele>218.0</ele><time>2026-03-28T17:25:22Z</time></trkpt><trkpt lat="44.140512569592104" lon="12.005933964165573"><ele>218.0</ele><time>2026-03-28T17:25:23Z</time></trkpt><trkpt lat="44.1407147912755" lon="12.006067773680341"><ele>218.0</ele><time>2026-03-28T17:25:24Z</time></trkpt><trkpt lat="44.14090478815503" lon="12.006201598088104"><ele>218.0</ele><time>2026-03-28T17:25:25Z</time></trkpt><trkpt lat="44.1410802817277" lon="12.006338894080352"><ele>218.0</ele><time>2026-03-28T17:25:26Z</time></trkpt><trkpt lat="44.141255616690906" lon="12.006482594765213"><ele>218.0</ele><time>2026-03-28T17:25:27Z</time></trkpt><trkpt lat="44.14143420147601" lon="12.006625033613371"><ele>218.0</ele><time>2026-03-28T17:25:28Z</time></trkpt><trkpt lat="44.141594439118215" lon="12.006758076268396"><ele>216.25</ele><time>2026-03-28T17:25:29Z</time></trkpt><trkpt lat="44.14173279382684" lon="12.006884205018691"><ele>214.5</ele><time>2026-03-28T17:25:30Z</time></trkpt><trkpt lat="44.14184786017568" lon="12.007004265636692"><ele>212.75</ele><time>2026-03-28T17:25:31Z</time></trkpt><trkpt lat="44.14194355827846" lon="12.007132809030836"><ele>211.0</ele><time>2026-03-28T17:25:32Z</time></trkpt><trkpt lat="44.14202251543973" lon="12.007300049912867"><ele>211.0</ele><time>2026-03-28T17:25:33Z</time></trkpt><trkpt lat="44.142067937008285" lon="12.007493561182152"><ele>211.0</ele><time>2026-03-28T17:25:34Z</time></trkpt><trkpt lat="44.14208084349227" lon="12.007707151499421"><ele>211.0</ele><time>2026-03-28T17:25:35Z</time></trkpt><trkpt lat="44.14207285700817" lon="12.007950336372152"><ele>210.33333333333331</ele><time>2026-03-28T17:25:36Z</time></trkpt><trkpt lat="44.14205401841213" lon="12.008223650303787"><ele>209.66666666666669</ele><time>2026-03-28T17:25:37Z</time></trkpt><trkpt lat="44.1420434875344" lon="12.008468609480063"><ele>209.0</ele><time>2026-03-28T17:25:38Z</time></trkpt><trkpt lat="44.142037579072415" lon="12.008665397717314"><ele>208.5</ele><time>2026-03-28T17:25:39Z</time></trkpt><trkpt lat="44.14205504864907" lon="12.008824348594265"><ele>208.0</ele><time>2026-03-28T17:25:40Z</time></trkpt><trkpt lat="44.142102771869475" lon="12.008962004079752"><ele>207.5</ele><time>2026-03-28T17:25:41Z</time></trkpt><trkpt lat="44.14218643838808" lon="12.009093930111067"><ele>207.0</ele><time>2026-03-28T17:25:42Z</time></trkpt><trkpt lat="44.14231438323026" lon="12.009237924201251"><ele>211.66666666666669</ele><time>2026-03-28T17:25:43Z</time></trkpt><trkpt lat="44.14246880207572" lon="12.009397955277663"><ele>216.33333333333334</ele><time>2026-03-28T17:25:44Z</time></trkpt><trkpt lat="44.14263716790732" lon="12.009589458370149"><ele>221.0</ele><time>2026-03-28T17:25:45Z</time></trkpt><trkpt lat="44.14280686132091" lon="12.009799479387251"><ele>214.0</ele><time>2026-03-28T17:25:46Z</time></trkpt><trkpt lat="44.14299138373339" lon="12.010020785859354"><ele>207.0</ele><time>2026-03-28T17:25:47Z</time></trkpt><trkpt lat="44.143172466753406" lon="12.010248291813184"><ele>209.0</ele><time>2026-03-28T17:25:48Z</time></trkpt><trkpt lat="44.143340808706014" lon="12.010450710326406"><ele>211.0</ele><time>2026-03-28T17:25:49Z</time></trkpt><trkpt lat="44.143488388644116" lon="12.010633674927925"><ele>213.0</ele><time>2026-03-28T17:25:50Z</time></trkpt><trkpt lat="44.14362884068008" lon="12.010804997214702"><ele>212.0</ele><time>2026-03-28T17:25:51Z</time></trkpt><trkpt lat="44.14375925019694" lon="12.010960964410272"><ele>211.0</ele><time>2026-03-28T17:25:52Z</time></trkpt><trkpt lat="44.14388853625382" lon="12.011116242335738"><ele>210.0</ele><time>2026-03-28T17:25:53Z</time></trkpt><trkpt lat="44.14399081529223" lon="12.011250947662157"><ele>211.75</ele><time>2026-03-28T17:25:54Z</time></trkpt><trkpt lat="44.14406840180093" lon="12.011383151785328"><ele>213.5</ele><time>2026-03-28T17:25:55Z</time></trkpt><trkpt lat="44.14410693541796" lon="12.011535418996493"><ele>215.25</ele><time>2026-03-28T17:25:56Z</time></trkpt><trkpt lat="44.14411920319932" lon="12.011707818034163"><ele>217.0</ele><time>2026-03-28T17:25:57Z</time></trkpt><trkpt lat="44.14410277851163" lon="12.011885573011233"><ele>216.66666666666666</ele><time>2026-03-28T17:25:58Z</time></trkpt><trkpt lat="44.14406232307376" lon="12.012087448728876"><ele>216.33333333333331</ele><time>2026-03-28T17:25:59Z</time></trkpt><trkpt lat="44.14401408424217" lon="12.012314135843905"><ele>216.0</ele><time>2026-03-28T17:26:00Z</time></trkpt><trkpt lat="44.14398577455174" lon="12.012514173565432"><ele>216.0</ele><time>2026-03-28T17:26:01Z</time></trkpt><trkpt lat="44.14396675688028" lon="12.012683449044168"><ele>216.0</ele><time>2026-03-28T17:26:02Z</time></trkpt><trkpt lat="44.14395942220727" lon="12.012862516101295"><ele>216.0</ele><time>2026-03-28T17:26:03Z</time></trkpt><trkpt lat="44.143979150167716" lon="12.013036396379048"><ele>216.0</ele><time>2026-03-28T17:26:04Z</time></trkpt><trkpt lat="44.14402455645522" lon="12.013197431479547"><ele>224.0</ele><time>2026-03-28T17:26:05Z</time></trkpt><trkpt lat="44.14409866639098" lon="12.013353299889825"><ele>232.0</ele><time>2026-03-28T17:26:06Z</time></trkpt><trkpt lat="44.144203502605336" lon="12.013519321171556"><ele>240.0</ele><time>2026-03-28T17:26:07Z</time></trkpt><trkpt lat="44.1443274246858" lon="12.01371191313592"><ele>240.0</ele><time>2026-03-28T17:26:08Z</time></trkpt><trkpt lat="44.14445526179652" lon="12.013927702579796"><ele>240.0</ele><time>2026-03-28T17:26:09Z</time></trkpt><trkpt lat="44.14458186550082" lon="12.014152613461658"><ele>240.0</ele><time>2026-03-28T17:26:10Z</time></trkpt><trkpt lat="44.144692557407474" lon="12.014365861724354"><ele>243.0</ele><time>2026-03-28T17:26:11Z</time></trkpt><trkpt lat="44.14479742439608" lon="12.014557393543372"><ele>246.0</ele><time>2026-03-28T17:26:12Z</time></trkpt><trkpt lat="44.144894508573294" lon="12.014719584308477"><ele>249.0</ele><time>2026-03-28T17:26:13Z</time></trkpt><trkpt lat="44.14498962576213" lon="12.01485364669194"><ele>249.0</ele><time>2026-03-28T17:26:14Z</time></trkpt><trkpt lat="44.14508699151713" lon="12.014945055941226"><ele>249.0</ele><time>2026-03-28T17:26:15Z</time></trkpt><trkpt lat="44.14519386438937" lon="12.014998607569343"><ele>249.0</ele><time>2026-03-28T17:26:16Z</time></trkpt><trkpt lat="44.14533400601153" lon="12.015027722217187"><ele>249.0</ele><time>2026-03-28T17:26:17Z</time></trkpt><trkpt lat="44.14549464461085" lon="12.015000836821775"><ele>249.0</ele><time>2026-03-28T17:26:18Z</time></trkpt><trkpt lat="44.145661959463496" lon="12.014939783963278"><ele>249.0</ele><time>2026-03-28T17:26:19Z</time></trkpt><trkpt lat="44.1458355543217" lon="12.014850370506707"><ele>249.0</ele><time>2026-03-28T17:26:20Z</time></trkpt><trkpt lat="44.14603905341124" lon="12.014774770290254"><ele>249.0</ele><time>2026-03-28T17:26:21Z</time></trkpt><trkpt lat="44.14624258341864" lon="12.014694498142953"><ele>249.0</ele><time>2026-03-28T17:26:22Z</time></trkpt><trkpt lat="44.14643410762814" lon="12.014619744913835"><ele>249.0</ele><time>2026-03-28T17:26:23Z</time></trkpt><trkpt lat="44.146608960040716" lon="12.014561000076165"><ele>247.0</ele><time>2026-03-28T17:26:24Z</time></trkpt><trkpt lat="44.14676586006352" lon="12.014504627597931"><ele>245.0</ele><time>2026-03-28T17:26:25Z</time></trkpt><trkpt lat="44.14691449655836" lon="12.014451089317522"><ele>243.0</ele><time>2026-03-28T17:26:26Z</time></trkpt><trkpt lat="44.147056720629436" lon="12.014392431707924"><ele>243.0</ele><time>2026-03-28T17:26:27Z</time></trkpt><trkpt lat="44.14719851887685" lon="12.014336439438887"><ele>243.0</ele><time>2026-03-28T17:26:28Z</time></trkpt><trkpt lat="44.1473453758467" lon="12.014280891973534"><ele>243.0</ele><time>2026-03-28T17:26:29Z</time></trkpt><trkpt lat="44.14746345961502" lon="12.014241417902795"><ele>243.0</ele><time>2026-03-28T17:26:30Z</time></trkpt><trkpt lat="44.14759103570867" lon="12.014223940607167"><ele>242.0</ele><time>2026-03-28T17:26:31Z</time></trkpt><trkpt lat="44.147723557360585" lon="12.014254035667147"><ele>241.0</ele><time>2026-03-28T17:26:32Z</time></trkpt><trkpt lat="44.14785943058923" lon="12.01433282432847"><ele>240.0</ele><time>2026-03-28T17:26:33Z</time></trkpt><trkpt lat="44.14797280801066" lon="12.014448245556258"><ele>239.0</ele><time>2026-03-28T17:26:34Z</time></trkpt><trkpt lat="44.14810269732524" lon="12.014632844526922"><ele>237.0</ele><time>2026-03-28T17:26:35Z</time></trkpt><trkpt lat="44.1482342516768" lon="12.014835702259438"><ele>235.0</ele><time>2026-03-28T17:26:36Z</time></trkpt><trkpt lat="44.14836436524599" lon="12.015046336757738"><ele>233.0</ele><time>2026-03-28T17:26:37Z</time></trkpt><trkpt lat="44.14851111786529" lon="12.015256604700667"><ele>233.0</ele><time>2026-03-28T17:26:38Z</time></trkpt><trkpt lat="44.14863819492509" lon="12.015447489484556"><ele>233.0</ele><time>2026-03-28T17:26:39Z</time></trkpt><trkpt lat="44.148755948103066" lon="12.015631178433056"><ele>233.0</ele><time>2026-03-28T17:26:40Z</time></trkpt><trkpt lat="44.14885454585826" lon="12.015786242244884"><ele>234.0</ele><time>2026-03-28T17:26:41Z</time></trkpt><trkpt lat="44.14896037095898" lon="12.01592147473408"><ele>235.0</ele><time>2026-03-28T17:26:42Z</time></trkpt><trkpt lat="44.14906271881273" lon="12.01602118964842"><ele>236.0</ele><time>2026-03-28T17:26:43Z</time></trkpt><trkpt lat="44.14918446852868" lon="12.016085307082065"><ele>237.0</ele><time>2026-03-28T17:26:44Z</time></trkpt><trkpt lat="44.14933706828476" lon="12.016103341693478"><ele>237.0</ele><time>2026-03-28T17:26:45Z</time></trkpt><trkpt lat="44.149515464811586" lon="12.016075813552463"><ele>237.0</ele><time>2026-03-28T17:26:46Z</time></trkpt><trkpt lat="44.149706573042" lon="12.016039117076549"><ele>237.0</ele><time>2026-03-28T17:26:47Z</time></trkpt><trkpt lat="44.149869488231744" lon="12.016040104870875"><ele>235.66666666666669</ele><time>2026-03-28T17:26:48Z</time></trkpt><trkpt lat="44.15001976609118" lon="12.016086134835916"><ele>234.33333333333334</ele><time>2026-03-28T17:26:49Z</time></trkpt><trkpt lat="44.15017628762533" lon="12.016160880534223"><ele>233.0</ele><time>2026-03-28T17:26:50Z</time></trkpt><trkpt lat="44.150341442386676" lon="12.016250449971142"><ele>233.0</ele><time>2026-03-28T17:26:51Z</time></trkpt><trkpt lat="44.15050432364898" lon="12.01629925578471"><ele>233.0</ele><time>2026-03-28T17:26:52Z</time></trkpt><trkpt lat="44.15066853082691" lon="12.016292178545063"><ele>233.0</ele><time>2026-03-28T17:26:53Z</time></trkpt><trkpt lat="44.15085644190987" lon="12.016251607506842"><ele>230.0</ele><time>2026-03-28T17:26:54Z</time></trkpt><trkpt lat="44.15105473085253" lon="12.016198298041607"><ele>227.0</ele><time>2026-03-28T17:26:55Z</time></trkpt><trkpt lat="44.15124070581691" lon="12.016137180479646"><ele>224.0</ele><time>2026-03-28T17:26:56Z</time></trkpt><trkpt lat="44.15141115307764" lon="12.016086532561472"><ele>223.66666666666669</ele><time>2026-03-28T17:26:57Z</time></trkpt><trkpt lat="44.151569542077155" lon="12.016050103485378"><ele>223.33333333333331</ele><time>2026-03-28T17:26:58Z</time></trkpt><trkpt lat="44.15172519955467" lon="12.016019435558077"><ele>223.0</ele><time>2026-03-28T17:26:59Z</time></trkpt><trkpt lat="44.151887823063" lon="12.01604310452288"><ele>223.0</ele><time>2026-03-28T17:27:00Z</time></trkpt><trkpt lat="44.152059524627525" lon="12.016113907413931"><ele>223.0</ele><time>2026-03-28T17:27:01Z</time></trkpt><trkpt lat="44.152226193069104" lon="12.016221231084863"><ele>223.0</ele><time>2026-03-28T17:27:02Z</time></trkpt><trkpt lat="44.15239617198846" lon="12.016338159254891"><ele>222.33333333333331</ele><time>2026-03-28T17:27:03Z</time></trkpt><trkpt lat="44.15257114543606" lon="12.016457773134062"><ele>221.66666666666669</ele><time>2026-03-28T17:27:04Z</time></trkpt><trkpt lat="44.152749006390884" lon="12.01656408158734"><ele>221.0</ele><time>2026-03-28T17:27:05Z</time></trkpt><trkpt lat="44.15292094693395" lon="12.016681422550654"><ele>218.66666666666669</ele><time>2026-03-28T17:27:06Z</time></trkpt><trkpt lat="44.15308965630073" lon="12.016810757957174"><ele>216.33333333333331</ele><time>2026-03-28T17:27:07Z</time></trkpt><trkpt lat="44.15324014929377" lon="12.01694469064109"><ele>214.0</ele><time>2026-03-28T17:27:08Z</time></trkpt><trkpt lat="44.153382792984516" lon="12.017083393400368"><ele>211.33333333333331</ele><time>2026-03-28T17:27:09Z</time></trkpt><trkpt lat="44.15355917137775" lon="12.017241204489718"><ele>208.66666666666669</ele><time>2026-03-28T17:27:10Z</time></trkpt><trkpt lat="44.15375442964972" lon="12.017419812047207"><ele>206.0</ele><time>2026-03-28T17:27:11Z</time></trkpt><trkpt lat="44.15393627797879" lon="12.017590402830246"><ele>205.33333333333334</ele><time>2026-03-28T17:27:12Z</time></trkpt><trkpt lat="44.154101954345116" lon="12.017750680622212"><ele>204.66666666666669</ele><time>2026-03-28T17:27:13Z</time></trkpt><trkpt lat="44.154266390475016" lon="12.017906728291289"><ele>204.0</ele><time>2026-03-28T17:27:14Z</time></trkpt><trkpt lat="44.15441118926557" lon="12.018054813643714"><ele>204.0</ele><time>2026-03-28T17:27:15Z</time></trkpt><trkpt lat="44.154558173021236" lon="12.018208282400433"><ele>204.0</ele><time>2026-03-28T17:27:16Z</time></trkpt><trkpt lat="44.15469856423826" lon="12.01839276920097"><ele>204.0</ele><time>2026-03-28T17:27:17Z</time></trkpt><trkpt lat="44.15482788591076" lon="12.018599064115165"><ele>202.0</ele><time>2026-03-28T17:27:18Z</time></trkpt><trkpt lat="44.154963580458066" lon="12.01880344100785"><ele>200.0</ele><time>2026-03-28T17:27:19Z</time></trkpt><trkpt lat="44.1551306063092" lon="12.019002616528574"><ele>198.0</ele><time>2026-03-28T17:27:20Z</time></trkpt><trkpt lat="44.155317082881425" lon="12.019194919439416"><ele>191.0</ele><time>2026-03-28T17:27:21Z</time></trkpt><trkpt lat="44.155493445902465" lon="12.01939422273518"><ele>184.0</ele><time>2026-03-28T17:27:22Z</time></trkpt><trkpt lat="44.155671513940256" lon="12.019595730329772"><ele>186.33333333333334</ele><time>2026-03-28T17:27:23Z</time></trkpt><trkpt lat="44.15582081672356" lon="12.019774590146405"><ele>188.66666666666666</ele><time>2026-03-28T17:27:24Z</time></trkpt><trkpt lat="44.1559448312093" lon="12.019920928845146"><ele>191.0</ele><time>2026-03-28T17:27:25Z</time></trkpt><trkpt lat="44.1560759654733" lon="12.020037764159175"><ele>186.0</ele><time>2026-03-28T17:27:26Z</time></trkpt><trkpt lat="44.15622227937653" lon="12.020136848264492"><ele>181.0</ele><time>2026-03-28T17:27:27Z</time></trkpt><trkpt lat="44.15637318899837" lon="12.020209312846584"><ele>176.0</ele><time>2026-03-28T17:27:28Z</time></trkpt><trkpt lat="44.15651884444748" lon="12.020257322032048"><ele>176.0</ele><time>2026-03-28T17:27:29Z</time></trkpt><trkpt lat="44.156684035693246" lon="12.020317750352044"><ele>176.0</ele><time>2026-03-28T17:27:30Z</time></trkpt><trkpt lat="44.15684255488632" lon="12.02038187760226"><ele>176.0</ele><time>2026-03-28T17:27:31Z</time></trkpt><trkpt lat="44.15701279708268" lon="12.020450616279527"><ele>176.0</ele><time>2026-03-28T17:27:32Z</time></trkpt><trkpt lat="44.15720093223012" lon="12.02052513651982"><ele>176.0</ele><time>2026-03-28T17:27:33Z</time></trkpt><trkpt lat="44.15740869041867" lon="12.020603304721854"><ele>176.0</ele><time>2026-03-28T17:27:34Z</time></trkpt><trkpt lat="44.157625198603924" lon="12.020691079601674"><ele>171.33333333333331</ele><time>2026-03-28T17:27:35Z</time></trkpt><trkpt lat="44.15782632293277" lon="12.02076785236911"><ele>166.66666666666666</ele><time>2026-03-28T17:27:36Z</time></trkpt><trkpt lat="44.158016768705835" lon="12.02084782174938"><ele>162.0</ele><time>2026-03-28T17:27:37Z</time></trkpt><trkpt lat="44.15819937588284" lon="12.02093006647708"><ele>159.33333333333334</ele><time>2026-03-28T17:27:38Z</time></trkpt><trkpt lat="44.15837232707747" lon="12.021002976621084"><ele>156.66666666666669</ele><time>2026-03-28T17:27:39Z</time></trkpt><trkpt lat="44.158563113065924" lon="12.021106033002004"><ele>154.0</ele><time>2026-03-28T17:27:40Z</time></trkpt><trkpt lat="44.15871777681419" lon="12.021153634823383"><ele>154.0</ele><time>2026-03-28T17:27:41Z</time></trkpt><trkpt lat="44.158889519873405" lon="12.021219986019863"><ele>154.0</ele><time>2026-03-28T17:27:42Z</time></trkpt><trkpt lat="44.15905184553435" lon="12.02128298240833"><ele>154.0</ele><time>2026-03-28T17:27:43Z</time></trkpt><trkpt lat="44.15921585109688" lon="12.021350471010967"><ele>152.0</ele><time>2026-03-28T17:27:44Z</time></trkpt><trkpt lat="44.159384402784646" lon="12.021417372511555"><ele>150.0</ele><time>2026-03-28T17:27:45Z</time></trkpt><trkpt lat="44.159565281027035" lon="12.021492167750905"><ele>148.0</ele><time>2026-03-28T17:27:46Z</time></trkpt><trkpt lat="44.15976604563753" lon="12.02157325295533"><ele>149.33333333333334</ele><time>2026-03-28T17:27:47Z</time></trkpt><trkpt lat="44.159959037668926" lon="12.02165507200604"><ele>150.66666666666666</ele><time>2026-03-28T17:27:48Z</time></trkpt><trkpt lat="44.16014732473859" lon="12.021735630474373"><ele>152.0</ele><time>2026-03-28T17:27:49Z</time></trkpt><trkpt lat="44.16033800459214" lon="12.021805356209589"><ele>152.0</ele><time>2026-03-28T17:27:50Z</time></trkpt><trkpt lat="44.160512530306754" lon="12.021879826137539"><ele>152.0</ele><time>2026-03-28T17:27:51Z</time></trkpt><trkpt lat="44.160677660862156" lon="12.021950776363909"><ele>152.0</ele><time>2026-03-28T17:27:52Z</time></trkpt><trkpt lat="44.16082865589368" lon="12.02201575253064"><ele>151.5</ele><time>2026-03-28T17:27:53Z</time></trkpt><trkpt lat="44.16096327758781" lon="12.022097283596135"><ele>151.0</ele><time>2026-03-28T17:27:54Z</time></trkpt><trkpt lat="44.161081444131895" lon="12.022201961247417"><ele>150.5</ele><time>2026-03-28T17:27:55Z</time></trkpt><trkpt lat="44.16117784835346" lon="12.022307865212813"><ele>150.0</ele><time>2026-03-28T17:27:56Z</time></trkpt><trkpt lat="44.16125900320936" lon="12.022401929300216"><ele>150.0</ele><time>2026-03-28T17:27:57Z</time></trkpt><trkpt lat="44.16131530871687" lon="12.022482645997407"><ele>150.0</ele><time>2026-03-28T17:27:58Z</time></trkpt><trkpt lat="44.161368135862126" lon="12.02256085676775"><ele>150.0</ele><time>2026-03-28T17:28:00Z</time></trkpt><trkpt lat="44.16132003408279" lon="12.02247478271906"><ele>150.0</ele><time>2026-03-28T17:28:09Z</time></trkpt><trkpt lat="44.1613740270121" lon="12.022553746471747"><ele>150.0</ele><time>2026-03-28T17:31:29Z</time></trkpt><trkpt lat="44.161436095561584" lon="12.02261524947027"><ele>150.0</ele><time>2026-03-28T17:31:30Z</time></trkpt><trkpt lat="44.16149902311486" lon="12.022696129131718"><ele>151.2</ele><time>2026-03-28T17:31:31Z</time></trkpt><trkpt lat="44.16157087335869" lon="12.022774656474981"><ele>152.4</ele><time>2026-03-28T17:31:32Z</time></trkpt><trkpt lat="44.16165422501621" lon="12.02285742752151"><ele>153.6</ele><time>2026-03-28T17:31:33Z</time></trkpt><trkpt lat="44.16174535199159" lon="12.022948106489066"><ele>154.8</ele><time>2026-03-28T17:31:34Z</time></trkpt><trkpt lat="44.16182468802769" lon="12.023048403533718"><ele>156.0</ele><time>2026-03-28T17:31:35Z</time></trkpt><trkpt lat="44.161891033740204" lon="12.023126284232088"><ele>156.0</ele><time>2026-03-28T17:31:36Z</time></trkpt><trkpt lat="44.16195949182378" lon="12.023204854856141"><ele>156.0</ele><time>2026-03-28T17:31:37Z</time></trkpt><trkpt lat="44.16204780892449" lon="12.023298962498442"><ele>156.0</ele><time>2026-03-28T17:31:38Z</time></trkpt><trkpt lat="44.16216752361106" lon="12.023433326690986"><ele>156.0</ele><time>2026-03-28T17:31:39Z</time></trkpt><trkpt lat="44.16229308539483" lon="12.023564985042919"><ele>155.33333333333334</ele><time>2026-03-28T17:31:40Z</time></trkpt><trkpt lat="44.16242104260777" lon="12.023709950792037"><ele>154.66666666666669</ele><time>2026-03-28T17:31:41Z</time></trkpt><trkpt lat="44.16254928111643" lon="12.023863533580263"><ele>154.0</ele><time>2026-03-28T17:31:42Z</time></trkpt><trkpt lat="44.16268868899795" lon="12.024014227110097"><ele>152.0</ele><time>2026-03-28T17:31:43Z</time></trkpt><trkpt lat="44.16282178475405" lon="12.02417848320201"><ele>150.0</ele><time>2026-03-28T17:31:44Z</time></trkpt><trkpt lat="44.16295735454339" lon="12.02436819335069"><ele>148.0</ele><time>2026-03-28T17:31:45Z</time></trkpt><trkpt lat="44.16309601071778" lon="12.024556579630675"><ele>147.0</ele><time>2026-03-28T17:31:46Z</time></trkpt><trkpt lat="44.16322939309416" lon="12.024779172511478"><ele>146.0</ele><time>2026-03-28T17:31:47Z</time></trkpt><trkpt lat="44.16337890595014" lon="12.024978263990256"><ele>145.0</ele><time>2026-03-28T17:31:48Z</time></trkpt><trkpt lat="44.16353574936761" lon="12.025191719928301"><ele>143.66666666666669</ele><time>2026-03-28T17:31:49Z</time></trkpt><trkpt lat="44.16368263453546" lon="12.025401983281077"><ele>142.33333333333334</ele><time>2026-03-28T17:31:50Z</time></trkpt><trkpt lat="44.16383296070683" lon="12.025610223252812"><ele>141.0</ele><time>2026-03-28T17:31:51Z</time></trkpt><trkpt lat="44.16397771475533" lon="12.025821941125221"><ele>139.33333333333334</ele><time>2026-03-28T17:31:52Z</time></trkpt><trkpt lat="44.164128192061646" lon="12.0260345026743"><ele>137.66666666666669</ele><time>2026-03-28T17:31:53Z</time></trkpt><trkpt lat="44.164275982093464" lon="12.026239571947478"><ele>136.0</ele><time>2026-03-28T17:31:54Z</time></trkpt><trkpt lat="44.16442093148877" lon="12.026443002234288"><ele>136.0</ele><time>2026-03-28T17:31:55Z</time></trkpt><trkpt lat="44.164559077744876" lon="12.026640689274224"><ele>136.0</ele><time>2026-03-28T17:31:56Z</time></trkpt><trkpt lat="44.164686224276245" lon="12.026817337184733"><ele>136.0</ele><time>2026-03-28T17:31:57Z</time></trkpt><trkpt lat="44.164795171859744" lon="12.026968382335161"><ele>134.75</ele><time>2026-03-28T17:31:58Z</time></trkpt><trkpt lat="44.16488824493306" lon="12.027092202098439"><ele>133.5</ele><time>2026-03-28T17:31:59Z</time></trkpt><trkpt lat="44.16499132509454" lon="12.027193420523947"><ele>132.25</ele><time>2026-03-28T17:32:00Z</time></trkpt><trkpt lat="44.165121661865655" lon="12.027265681913923"><ele>131.0</ele><time>2026-03-28T17:32:01Z</time></trkpt><trkpt lat="44.1652883192681" lon="12.027302378197454"><ele>131.0</ele><time>2026-03-28T17:32:02Z</time></trkpt><trkpt lat="44.16547276797359" lon="12.027321528881325"><ele>131.0</ele><time>2026-03-28T17:32:03Z</time></trkpt><trkpt lat="44.165655054663" lon="12.027370546302603"><ele>131.0</ele><time>2026-03-28T17:32:04Z</time></trkpt><trkpt lat="44.16582537353984" lon="12.027404678033536"><ele>128.33333333333331</ele><time>2026-03-28T17:32:05Z</time></trkpt><trkpt lat="44.165993055189624" lon="12.02742299575211"><ele>125.66666666666666</ele><time>2026-03-28T17:32:06Z</time></trkpt><trkpt lat="44.166149909166734" lon="12.027458139943631"><ele>123.0</ele><time>2026-03-28T17:32:07Z</time></trkpt><trkpt lat="44.16630883884479" lon="12.027490542845134"><ele>123.0</ele><time>2026-03-28T17:32:08Z</time></trkpt><trkpt lat="44.166449289812036" lon="12.027524794042215"><ele>123.0</ele><time>2026-03-28T17:32:09Z</time></trkpt><trkpt lat="44.16656992510952" lon="12.027570161384437"><ele>123.0</ele><time>2026-03-28T17:32:10Z</time></trkpt><trkpt lat="44.166669398105604" lon="12.027624475532257"><ele>123.0</ele><time>2026-03-28T17:32:11Z</time></trkpt><trkpt lat="44.16675269696249" lon="12.027724694230809"><ele>121.0</ele><time>2026-03-28T17:32:12Z</time></trkpt><trkpt lat="44.16683619239672" lon="12.027819176965831"><ele>119.0</ele><time>2026-03-28T17:32:13Z</time></trkpt><trkpt lat="44.16688847392566" lon="12.02799901739205"><ele>117.0</ele><time>2026-03-28T17:32:14Z</time></trkpt><trkpt lat="44.16692861861649" lon="12.028151774287148"><ele>115.0</ele><time>2026-03-28T17:32:15Z</time></trkpt><trkpt lat="44.16696037029194" lon="12.0283434829911"><ele>115.0</ele><time>2026-03-28T17:32:16Z</time></trkpt><trkpt lat="44.16699725211509" lon="12.028587825980326"><ele>115.0</ele><time>2026-03-28T17:32:17Z</time></trkpt><trkpt lat="44.16702972859094" lon="12.028835472412542"><ele>115.0</ele><time>2026-03-28T17:32:18Z</time></trkpt><trkpt lat="44.16706036019239" lon="12.029091468349861"><ele>116.0</ele><time>2026-03-28T17:32:19Z</time></trkpt><trkpt lat="44.167073206646705" lon="12.029347410595706"><ele>117.0</ele><time>2026-03-28T17:32:20Z</time></trkpt><trkpt lat="44.167118193425274" lon="12.029593471745383"><ele>118.0</ele><time>2026-03-28T17:32:21Z</time></trkpt><trkpt lat="44.167138117453945" lon="12.02984392654943"><ele>116.0</ele><time>2026-03-28T17:32:22Z</time></trkpt><trkpt lat="44.16718154266436" lon="12.030087978186728"><ele>114.0</ele><time>2026-03-28T17:32:23Z</time></trkpt><trkpt lat="44.167212683123566" lon="12.030307268846503"><ele>112.0</ele><time>2026-03-28T17:32:24Z</time></trkpt><trkpt lat="44.16724211099882" lon="12.030520301966053"><ele>112.0</ele><time>2026-03-28T17:32:25Z</time></trkpt><trkpt lat="44.16725417225083" lon="12.03073489372913"><ele>112.0</ele><time>2026-03-28T17:32:26Z</time></trkpt><trkpt lat="44.16729284426305" lon="12.030931750188524"><ele>112.0</ele><time>2026-03-28T17:32:27Z</time></trkpt><trkpt lat="44.16731082227213" lon="12.031138437716322"><ele>110.25</ele><time>2026-03-28T17:32:28Z</time></trkpt><trkpt lat="44.16731043789523" lon="12.031345551442879"><ele>108.5</ele><time>2026-03-28T17:32:29Z</time></trkpt><trkpt lat="44.167286636458236" lon="12.031549437137583"><ele>106.75</ele><time>2026-03-28T17:32:30Z</time></trkpt><trkpt lat="44.1672306854799" lon="12.031744730290844"><ele>105.0</ele><time>2026-03-28T17:32:31Z</time></trkpt><trkpt lat="44.1671714749817" lon="12.031941168284519"><ele>103.5</ele><time>2026-03-28T17:32:32Z</time></trkpt><trkpt lat="44.167125446992856" lon="12.032144484516314"><ele>102.0</ele><time>2026-03-28T17:32:33Z</time></trkpt><trkpt lat="44.16706829774942" lon="12.03233925088102"><ele>100.5</ele><time>2026-03-28T17:32:34Z</time></trkpt><trkpt lat="44.167001117231166" lon="12.032510515755527"><ele>99.0</ele><time>2026-03-28T17:32:35Z</time></trkpt><trkpt lat="44.16694964261874" lon="12.032682371818678"><ele>98.2</ele><time>2026-03-28T17:32:36Z</time></trkpt><trkpt lat="44.166903028644384" lon="12.03283848004465"><ele>97.4</ele><time>2026-03-28T17:32:37Z</time></trkpt><trkpt lat="44.166877567758796" lon="12.03299719604892"><ele>96.6</ele><time>2026-03-28T17:32:38Z</time></trkpt><trkpt lat="44.16684143992059" lon="12.033122849900126"><ele>95.8</ele><time>2026-03-28T17:32:39Z</time></trkpt><trkpt lat="44.166856202612074" lon="12.033253401058897"><ele>95.0</ele><time>2026-03-28T17:32:40Z</time></trkpt><trkpt lat="44.16689749160837" lon="12.033365614146803"><ele>93.75</ele><time>2026-03-28T17:32:41Z</time></trkpt><trkpt lat="44.16702140699182" lon="12.033497221446684"><ele>92.5</ele><time>2026-03-28T17:32:43Z</time></trkpt><trkpt lat="44.167104680848844" lon="12.033548781599073"><ele>91.25</ele><time>2026-03-28T17:32:44Z</time></trkpt><trkpt lat="44.167250661141566" lon="12.033646887678707"><ele>90.0</ele><time>2026-03-28T17:32:45Z</time></trkpt><trkpt lat="44.16742233291629" lon="12.03373035111897"><ele>88.33333333333333</ele><time>2026-03-28T17:32:46Z</time></trkpt><trkpt lat="44.167603081569176" lon="12.033858366907868"><ele>86.66666666666666</ele><time>2026-03-28T17:32:47Z</time></trkpt><trkpt lat="44.16776398553076" lon="12.033957636413612"><ele>85.0</ele><time>2026-03-28T17:32:48Z</time></trkpt><trkpt lat="44.167918390993734" lon="12.034050750323242"><ele>85.0</ele><time>2026-03-28T17:32:49Z</time></trkpt><trkpt lat="44.16805982661631" lon="12.034134970353934"><ele>85.0</ele><time>2026-03-28T17:32:50Z</time></trkpt><trkpt lat="44.16818889791759" lon="12.03419917355495"><ele>85.0</ele><time>2026-03-28T17:32:51Z</time></trkpt><trkpt lat="44.168308091654616" lon="12.034241981041655"><ele>85.0</ele><time>2026-03-28T17:32:52Z</time></trkpt><trkpt lat="44.16843061051392" lon="12.034247977731614"><ele>83.75</ele><time>2026-03-28T17:32:53Z</time></trkpt><trkpt lat="44.16855187990042" lon="12.034202245828594"><ele>82.5</ele><time>2026-03-28T17:32:54Z</time></trkpt><trkpt lat="44.168669419016304" lon="12.034120099151318"><ele>81.25</ele><time>2026-03-28T17:32:55Z</time></trkpt><trkpt lat="44.168770095392475" lon="12.033992696184761"><ele>80.0</ele><time>2026-03-28T17:32:56Z</time></trkpt><trkpt lat="44.168855711449694" lon="12.03382159323073"><ele>80.0</ele><time>2026-03-28T17:32:57Z</time></trkpt><trkpt lat="44.16892046871161" lon="12.03362701332148"><ele>80.0</ele><time>2026-03-28T17:32:58Z</time></trkpt><trkpt lat="44.168985119734174" lon="12.033394150155399"><ele>80.0</ele><time>2026-03-28T17:32:59Z</time></trkpt><trkpt lat="44.169045851702265" lon="12.033158984625643"><ele>74.0</ele><time>2026-03-28T17:33:00Z</time></trkpt><trkpt lat="44.16911928279179" lon="12.032916476598542"><ele>68.0</ele><time>2026-03-28T17:33:01Z</time></trkpt><trkpt lat="44.169196728387284" lon="12.032681654292531"><ele>62.0</ele><time>2026-03-28T17:33:02Z</time></trkpt><trkpt lat="44.16926442177142" lon="12.032475733907056"><ele>62.25</ele><time>2026-03-28T17:33:03Z</time></trkpt><trkpt lat="44.169327678449235" lon="12.032287180594283"><ele>62.5</ele><time>2026-03-28T17:33:04Z</time></trkpt><trkpt lat="44.16938173780886" lon="12.032137781046012"><ele>62.75</ele><time>2026-03-28T17:33:05Z</time></trkpt><trkpt lat="44.16944931989692" lon="12.032023379953872"><ele>63.0</ele><time>2026-03-28T17:33:06Z</time></trkpt><trkpt lat="44.169563201472656" lon="12.031966172846179"><ele>63.0</ele><time>2026-03-28T17:33:07Z</time></trkpt><trkpt lat="44.16968640753984" lon="12.031933929209746"><ele>63.0</ele><time>2026-03-28T17:33:08Z</time></trkpt><trkpt lat="44.16985551776801" lon="12.03190748785723"><ele>63.0</ele><time>2026-03-28T17:33:09Z</time></trkpt><trkpt lat="44.17003677891663" lon="12.031879294542165"><ele>59.66666666666667</ele><time>2026-03-28T17:33:10Z</time></trkpt><trkpt lat="44.1702241545903" lon="12.031829049134544"><ele>56.333333333333336</ele><time>2026-03-28T17:33:11Z</time></trkpt><trkpt lat="44.17041080136144" lon="12.031800579004319"><ele>53.0</ele><time>2026-03-28T17:33:12Z</time></trkpt><trkpt lat="44.17057564574626" lon="12.031776389869018"><ele>52.75</ele><time>2026-03-28T17:33:13Z</time></trkpt><trkpt lat="44.170722650707475" lon="12.03175527881276"><ele>52.5</ele><time>2026-03-28T17:33:14Z</time></trkpt><trkpt lat="44.17086390078744" lon="12.031736375463332"><ele>52.25</ele><time>2026-03-28T17:33:15Z</time></trkpt><trkpt lat="44.17099930031405" lon="12.03171728412758"><ele>52.0</ele><time>2026-03-28T17:33:16Z</time></trkpt><trkpt lat="44.17111794070835" lon="12.031701487967853"><ele>52.0</ele><time>2026-03-28T17:33:17Z</time></trkpt><trkpt lat="44.1712234279497" lon="12.03169095788534"><ele>52.0</ele><time>2026-03-28T17:33:18Z</time></trkpt><trkpt lat="44.17130502927275" lon="12.031685618150266"><ele>52.0</ele><time>2026-03-28T17:33:19Z</time></trkpt><trkpt lat="44.17136843576464" lon="12.031692821047287"><ele>52.0</ele><time>2026-03-28T17:33:20Z</time></trkpt><trkpt lat="44.171491383568224" lon="12.031734333875258"><ele>52.0</ele><time>2026-03-28T17:33:22Z</time></trkpt><trkpt lat="44.17155767275858" lon="12.031789741629169"><ele>51.83333333333333</ele><time>2026-03-28T17:33:23Z</time></trkpt><trkpt lat="44.171623185235646" lon="12.03184794039152"><ele>51.666666666666664</ele><time>2026-03-28T17:33:24Z</time></trkpt><trkpt lat="44.17169155148476" lon="12.031866699649008"><ele>51.5</ele><time>2026-03-28T17:33:25Z</time></trkpt><trkpt lat="44.171755730958395" lon="12.031832450425801"><ele>51.33333333333333</ele><time>2026-03-28T17:33:26Z</time></trkpt><trkpt lat="44.171810284167826" lon="12.031758760225584"><ele>51.166666666666664</ele><time>2026-03-28T17:33:27Z</time></trkpt><trkpt lat="44.171854040434695" lon="12.031653495144058"><ele>51.0</ele><time>2026-03-28T17:33:28Z</time></trkpt><trkpt lat="44.171901331757866" lon="12.031539130247957"><ele>51.0</ele><time>2026-03-28T17:33:29Z</time></trkpt><trkpt lat="44.171959304698" lon="12.031413413194938"><ele>51.0</ele><time>2026-03-28T17:33:30Z</time></trkpt><trkpt lat="44.17211888242504" lon="12.03134178014767"><ele>51.0</ele><time>2026-03-28T17:33:31Z</time></trkpt><trkpt lat="44.172280252204644" lon="12.031255409720472"><ele>51.0</ele><time>2026-03-28T17:33:32Z</time></trkpt><trkpt lat="44.17246723773608" lon="12.03115573373613"><ele>51.0</ele><time>2026-03-28T17:33:33Z</time></trkpt><trkpt lat="44.1726520257611" lon="12.031034599011527"><ele>51.0</ele><time>2026-03-28T17:33:34Z</time></trkpt><trkpt lat="44.17284115470479" lon="12.03089510215458"><ele>51.0</ele><time>2026-03-28T17:33:35Z</time></trkpt><trkpt lat="44.173032554501944" lon="12.03073429949447"><ele>51.0</ele><time>2026-03-28T17:33:36Z</time></trkpt><trkpt lat="44.17320608342982" lon="12.030577856071755"><ele>51.0</ele><time>2026-03-28T17:33:37Z</time></trkpt><trkpt lat="44.17335850627657" lon="12.030430030319865"><ele>51.0</ele><time>2026-03-28T17:33:38Z</time></trkpt><trkpt lat="44.173501386835" lon="12.030287231188963"><ele>51.0</ele><time>2026-03-28T17:33:39Z</time></trkpt><trkpt lat="44.173644161625916" lon="12.030138503441401"><ele>51.0</ele><time>2026-03-28T17:33:40Z</time></trkpt><trkpt lat="44.173776315363206" lon="12.02999323030754"><ele>51.0</ele><time>2026-03-28T17:33:41Z</time></trkpt><trkpt lat="44.17390099150038" lon="12.029854004820066"><ele>51.0</ele><time>2026-03-28T17:33:42Z</time></trkpt><trkpt lat="44.17401044229955" lon="12.029735763922769"><ele>51.0</ele><time>2026-03-28T17:33:43Z</time></trkpt><trkpt lat="44.17410860583303" lon="12.029639991016825"><ele>51.0</ele><time>2026-03-28T17:33:44Z</time></trkpt><trkpt lat="44.174194309749176" lon="12.029571365144319"><ele>51.0</ele><time>2026-03-28T17:33:45Z</time></trkpt><trkpt lat="44.174291975796365" lon="12.029560466512528"><ele>50.75</ele><time>2026-03-28T17:33:46Z</time></trkpt><trkpt lat="44.17440434845736" lon="12.02956863664537"><ele>50.5</ele><time>2026-03-28T17:33:47Z</time></trkpt><trkpt lat="44.174543753255364" lon="12.0295866732865"><ele>50.25</ele><time>2026-03-28T17:33:48Z</time></trkpt><trkpt lat="44.1747025256302" lon="12.029616116415392"><ele>50.0</ele><time>2026-03-28T17:33:49Z</time></trkpt><trkpt lat="44.174873308391824" lon="12.029641313861939"><ele>50.0</ele><time>2026-03-28T17:33:50Z</time></trkpt><trkpt lat="44.17505138023137" lon="12.029670669803593"><ele>50.0</ele><time>2026-03-28T17:33:51Z</time></trkpt><trkpt lat="44.17523692649751" lon="12.029704626860514"><ele>50.0</ele><time>2026-03-28T17:33:52Z</time></trkpt><trkpt lat="44.17542060360037" lon="12.02973830132179"><ele>50.0</ele><time>2026-03-28T17:33:53Z</time></trkpt><trkpt lat="44.17560229705677" lon="12.029768464933053"><ele>50.0</ele><time>2026-03-28T17:33:54Z</time></trkpt><trkpt lat="44.17577159339041" lon="12.02980237805198"><ele>50.0</ele><time>2026-03-28T17:33:55Z</time></trkpt><trkpt lat="44.17593440073941" lon="12.02983076163648"><ele>49.66666666666667</ele><time>2026-03-28T17:33:56Z</time></trkpt><trkpt lat="44.17608502868373" lon="12.02986461602054"><ele>49.33333333333333</ele><time>2026-03-28T17:33:57Z</time></trkpt><trkpt lat="44.176269796805784" lon="12.029895062502849"><ele>49.0</ele><time>2026-03-28T17:33:58Z</time></trkpt><trkpt lat="44.17645714071954" lon="12.02995494288213"><ele>48.666666666666664</ele><time>2026-03-28T17:33:59Z</time></trkpt><trkpt lat="44.1766364632378" lon="12.02998744615945"><ele>48.33333333333333</ele><time>2026-03-28T17:34:00Z</time></trkpt><trkpt lat="44.176815285080515" lon="12.029998446695068"><ele>48.0</ele><time>2026-03-28T17:34:01Z</time></trkpt><trkpt lat="44.17699400664143" lon="12.030035753557982"><ele>48.0</ele><time>2026-03-28T17:34:02Z</time></trkpt><trkpt lat="44.17717038115439" lon="12.030072911331322"><ele>48.0</ele><time>2026-03-28T17:34:03Z</time></trkpt><trkpt lat="44.177346130021746" lon="12.03012013633461"><ele>48.0</ele><time>2026-03-28T17:34:04Z</time></trkpt><trkpt lat="44.17751647426945" lon="12.030152187084653"><ele>48.25</ele><time>2026-03-28T17:34:05Z</time></trkpt><trkpt lat="44.17767079882541" lon="12.030157624657935"><ele>48.5</ele><time>2026-03-28T17:34:06Z</time></trkpt><trkpt lat="44.17780730471174" lon="12.03017590832511"><ele>48.75</ele><time>2026-03-28T17:34:07Z</time></trkpt><trkpt lat="44.17792946670727" lon="12.030192071247372"><ele>49.0</ele><time>2026-03-28T17:34:08Z</time></trkpt><trkpt lat="44.17802967455107" lon="12.030216707055347"><ele>49.0</ele><time>2026-03-28T17:34:09Z</time></trkpt><trkpt lat="44.17810955983885" lon="12.030245192766621"><ele>49.0</ele><time>2026-03-28T17:34:10Z</time></trkpt><trkpt lat="44.1781788536183" lon="12.030288935678664"><ele>49.0</ele><time>2026-03-28T17:34:11Z</time></trkpt><trkpt lat="44.17823341416041" lon="12.030364790232769"><ele>49.0</ele><time>2026-03-28T17:34:12Z</time></trkpt><trkpt lat="44.17832084056793" lon="12.030447217217281"><ele>49.0</ele><time>2026-03-28T17:34:13Z</time></trkpt><trkpt lat="44.17840120781736" lon="12.03055655776333"><ele>49.0</ele><time>2026-03-28T17:34:14Z</time></trkpt><trkpt lat="44.17850260611659" lon="12.030675056763853"><ele>49.0</ele><time>2026-03-28T17:34:15Z</time></trkpt><trkpt lat="44.17862592713374" lon="12.030799136800844"><ele>49.0</ele><time>2026-03-28T17:34:16Z</time></trkpt><trkpt lat="44.178753789028086" lon="12.030925973084901"><ele>49.0</ele><time>2026-03-28T17:34:17Z</time></trkpt><trkpt lat="44.17888841074522" lon="12.031043678630331"><ele>48.33333333333333</ele><time>2026-03-28T17:34:18Z</time></trkpt><trkpt lat="44.179025920649806" lon="12.031149864031851"><ele>47.666666666666664</ele><time>2026-03-28T17:34:19Z</time></trkpt><trkpt lat="44.179156462911976" lon="12.031240617980272"><ele>47.0</ele><time>2026-03-28T17:34:20Z</time></trkpt><trkpt lat="44.179294756142184" lon="12.031337551923425"><ele>47.0</ele><time>2026-03-28T17:34:21Z</time></trkpt><trkpt lat="44.17944244616627" lon="12.031433356226959"><ele>47.0</ele><time>2026-03-28T17:34:22Z</time></trkpt><trkpt lat="44.17958083949459" lon="12.031513931507751"><ele>47.0</ele><time>2026-03-28T17:34:23Z</time></trkpt><trkpt lat="44.17970230757199" lon="12.031588859901742"><ele>47.0</ele><time>2026-03-28T17:34:24Z</time></trkpt><trkpt lat="44.179830389697194" lon="12.031671606588496"><ele>47.5</ele><time>2026-03-28T17:34:25Z</time></trkpt><trkpt lat="44.179954855760265" lon="12.031745700429665"><ele>48.0</ele><time>2026-03-28T17:34:26Z</time></trkpt><trkpt lat="44.180075165821755" lon="12.031816371856323"><ele>48.5</ele><time>2026-03-28T17:34:27Z</time></trkpt><trkpt lat="44.18019141425934" lon="12.031895966047344"><ele>49.0</ele><time>2026-03-28T17:34:28Z</time></trkpt><trkpt lat="44.18030353483288" lon="12.031972758107896"><ele>49.0</ele><time>2026-03-28T17:34:29Z</time></trkpt><trkpt lat="44.18042115968989" lon="12.03203958583581"><ele>49.0</ele><time>2026-03-28T17:34:30Z</time></trkpt><trkpt lat="44.180537608547894" lon="12.03211013939385"><ele>49.0</ele><time>2026-03-28T17:34:31Z</time></trkpt><trkpt lat="44.18065327614983" lon="12.032186234386542"><ele>49.0</ele><time>2026-03-28T17:34:32Z</time></trkpt><trkpt lat="44.18077702247551" lon="12.032257663707911"><ele>48.75</ele><time>2026-03-28T17:34:33Z</time></trkpt><trkpt lat="44.18089833416258" lon="12.03233418617393"><ele>48.5</ele><time>2026-03-28T17:34:34Z</time></trkpt><trkpt lat="44.18101452584538" lon="12.032406496315655"><ele>48.25</ele><time>2026-03-28T17:34:35Z</time></trkpt><trkpt lat="44.18112297784232" lon="12.032477215556984"><ele>48.0</ele><time>2026-03-28T17:34:36Z</time></trkpt><trkpt lat="44.18123375149017" lon="12.032549801805212"><ele>48.0</ele><time>2026-03-28T17:34:37Z</time></trkpt><trkpt lat="44.18134814747733" lon="12.032613768071286"><ele>48.0</ele><time>2026-03-28T17:34:38Z</time></trkpt><trkpt lat="44.18145449360748" lon="12.032681168867667"><ele>48.0</ele><time>2026-03-28T17:34:39Z</time></trkpt><trkpt lat="44.1815509257476" lon="12.032746567771332"><ele>48.0</ele><time>2026-03-28T17:34:40Z</time></trkpt><trkpt lat="44.18164481530366" lon="12.032809435340594"><ele>48.0</ele><time>2026-03-28T17:34:41Z</time></trkpt><trkpt lat="44.1817418859853" lon="12.03287043348952"><ele>48.0</ele><time>2026-03-28T17:34:42Z</time></trkpt><trkpt lat="44.18184090710773" lon="12.032937111575343"><ele>48.0</ele><time>2026-03-28T17:34:43Z</time></trkpt><trkpt lat="44.18193091069758" lon="12.032990954409833"><ele>48.0</ele><time>2026-03-28T17:34:44Z</time></trkpt><trkpt lat="44.18201755382203" lon="12.033049931564307"><ele>48.0</ele><time>2026-03-28T17:34:45Z</time></trkpt><trkpt lat="44.18209319571186" lon="12.033102073153684"><ele>48.0</ele><time>2026-03-28T17:34:46Z</time></trkpt><trkpt lat="44.18218164982071" lon="12.033153358292324"><ele>48.0</ele><time>2026-03-28T17:34:47Z</time></trkpt><trkpt lat="44.18228685002137" lon="12.033214309094442"><ele>48.0</ele><time>2026-03-28T17:34:48Z</time></trkpt><trkpt lat="44.18240413195594" lon="12.033284859360458"><ele>48.0</ele><time>2026-03-28T17:34:49Z</time></trkpt><trkpt lat="44.1825071023337" lon="12.033369128351227"><ele>47.8</ele><time>2026-03-28T17:34:50Z</time></trkpt><trkpt lat="44.182612215810444" lon="12.033413371720062"><ele>47.599999999999994</ele><time>2026-03-28T17:34:51Z</time></trkpt><trkpt lat="44.18270091119058" lon="12.033473823449125"><ele>47.400000000000006</ele><time>2026-03-28T17:34:52Z</time></trkpt><trkpt lat="44.18278301469634" lon="12.033534498169047"><ele>47.2</ele><time>2026-03-28T17:34:53Z</time></trkpt><trkpt lat="44.18287138635318" lon="12.033582664114876"><ele>47.0</ele><time>2026-03-28T17:34:54Z</time></trkpt><trkpt lat="44.18296590327148" lon="12.03364553684568"><ele>47.0</ele><time>2026-03-28T17:34:55Z</time></trkpt><trkpt lat="44.18305770295671" lon="12.033702463263973"><ele>47.0</ele><time>2026-03-28T17:34:56Z</time></trkpt><trkpt lat="44.18314318465139" lon="12.03375731306502"><ele>47.0</ele><time>2026-03-28T17:34:57Z</time></trkpt><trkpt lat="44.183225142304664" lon="12.033804948372163"><ele>47.0</ele><time>2026-03-28T17:34:58Z</time></trkpt><trkpt lat="44.183320050237505" lon="12.033855831615"><ele>47.0</ele><time>2026-03-28T17:34:59Z</time></trkpt><trkpt lat="44.1834291881318" lon="12.03392729488399"><ele>47.25</ele><time>2026-03-28T17:35:00Z</time></trkpt><trkpt lat="44.18356388880285" lon="12.034023083900165"><ele>47.5</ele><time>2026-03-28T17:35:01Z</time></trkpt><trkpt lat="44.1836993612636" lon="12.034103104550084"><ele>47.75</ele><time>2026-03-28T17:35:02Z</time></trkpt><trkpt lat="44.18381250156073" lon="12.03417970990242"><ele>48.0</ele><time>2026-03-28T17:35:03Z</time></trkpt><trkpt lat="44.18393909027551" lon="12.034254681841343"><ele>47.75</ele><time>2026-03-28T17:35:04Z</time></trkpt><trkpt lat="44.184054584505695" lon="12.034348860711836"><ele>47.5</ele><time>2026-03-28T17:35:05Z</time></trkpt><trkpt lat="44.184178092695305" lon="12.034427757480616"><ele>47.25</ele><time>2026-03-28T17:35:06Z</time></trkpt><trkpt lat="44.18431439077548" lon="12.034516125497074"><ele>47.0</ele><time>2026-03-28T17:35:07Z</time></trkpt><trkpt lat="44.184456249310784" lon="12.034593707647616"><ele>47.0</ele><time>2026-03-28T17:35:08Z</time></trkpt><trkpt lat="44.184593217337316" lon="12.034692983410919"><ele>47.0</ele><time>2026-03-28T17:35:09Z</time></trkpt><trkpt lat="44.18472673524856" lon="12.034782392340881"><ele>47.0</ele><time>2026-03-28T17:35:10Z</time></trkpt><trkpt lat="44.1848576033509" lon="12.034867158870265"><ele>47.0</ele><time>2026-03-28T17:35:11Z</time></trkpt><trkpt lat="44.18496612975528" lon="12.034941723103902"><ele>46.75</ele><time>2026-03-28T17:35:12Z</time></trkpt><trkpt lat="44.18507637471861" lon="12.035005564631115"><ele>46.5</ele><time>2026-03-28T17:35:13Z</time></trkpt><trkpt lat="44.185176670762075" lon="12.035074511035718"><ele>46.25</ele><time>2026-03-28T17:35:14Z</time></trkpt><trkpt lat="44.18528531620655" lon="12.035145798338089"><ele>46.0</ele><time>2026-03-28T17:35:15Z</time></trkpt><trkpt lat="44.18538898077385" lon="12.03520900319184"><ele>46.0</ele><time>2026-03-28T17:35:16Z</time></trkpt><trkpt lat="44.18548836814225" lon="12.035271583152852"><ele>46.0</ele><time>2026-03-28T17:35:17Z</time></trkpt><trkpt lat="44.185592011675055" lon="12.035335796564986"><ele>46.0</ele><time>2026-03-28T17:35:18Z</time></trkpt><trkpt lat="44.18569569185607" lon="12.035385924024341"><ele>46.0</ele><time>2026-03-28T17:35:19Z</time></trkpt><trkpt lat="44.185787498472145" lon="12.035417143197968"><ele>46.0</ele><time>2026-03-28T17:35:20Z</time></trkpt><trkpt lat="44.185884630569745" lon="12.035450661506127"><ele>45.599999999999994</ele><time>2026-03-28T17:35:22Z</time></trkpt><trkpt lat="44.186014639813635" lon="12.035488836348046"><ele>45.2</ele><time>2026-03-28T17:35:24Z</time></trkpt><trkpt lat="44.186102468107215" lon="12.03550538021669"><ele>44.8</ele><time>2026-03-28T17:35:25Z</time></trkpt><trkpt lat="44.186203375711706" lon="12.03551743207818"><ele>44.400000000000006</ele><time>2026-03-28T17:35:26Z</time></trkpt><trkpt lat="44.18628695893715" lon="12.035516685227892"><ele>44.0</ele><time>2026-03-28T17:35:27Z</time></trkpt><trkpt lat="44.18636586707332" lon="12.035514825673511"><ele>44.0</ele><time>2026-03-28T17:35:28Z</time></trkpt><trkpt lat="44.18644253756721" lon="12.03551739113146"><ele>44.0</ele><time>2026-03-28T17:35:29Z</time></trkpt><trkpt lat="44.18654678047915" lon="12.035516208490664"><ele>44.0</ele><time>2026-03-28T17:35:31Z</time></trkpt><trkpt lat="44.18661506879176" lon="12.035523316952002"><ele>44.0</ele><time>2026-03-28T17:35:34Z</time></trkpt><trkpt lat="44.186680746113915" lon="12.035504149446451"><ele>44.0</ele><time>2026-03-28T17:35:47Z</time></trkpt><trkpt lat="44.186797591261886" lon="12.03545598223949"><ele>44.0</ele><time>2026-03-28T17:35:49Z</time></trkpt><trkpt lat="44.1868782747155" lon="12.03544172282236"><ele>44.25</ele><time>2026-03-28T17:35:50Z</time></trkpt><trkpt lat="44.18696405813537" lon="12.035459364883632"><ele>44.5</ele><time>2026-03-28T17:35:51Z</time></trkpt><trkpt lat="44.18708650042694" lon="12.035595910578829"><ele>44.75</ele><time>2026-03-28T17:35:53Z</time></trkpt><trkpt lat="44.18713657423615" lon="12.035723433041367"><ele>45.0</ele><time>2026-03-28T17:35:54Z</time></trkpt><trkpt lat="44.187190775636594" lon="12.03588286923564"><ele>45.0</ele><time>2026-03-28T17:35:55Z</time></trkpt><trkpt lat="44.1872569043164" lon="12.036045552240195"><ele>45.0</ele><time>2026-03-28T17:35:56Z</time></trkpt><trkpt lat="44.18732610985831" lon="12.036218650502734"><ele>45.0</ele><time>2026-03-28T17:35:57Z</time></trkpt><trkpt lat="44.18739853572987" lon="12.036391756747216"><ele>45.0</ele><time>2026-03-28T17:35:58Z</time></trkpt><trkpt lat="44.18746244694863" lon="12.036570767035354"><ele>45.0</ele><time>2026-03-28T17:35:59Z</time></trkpt><trkpt lat="44.187557589159816" lon="12.036734332311333"><ele>45.0</ele><time>2026-03-28T17:36:00Z</time></trkpt><trkpt lat="44.1876790839779" lon="12.036913530606109"><ele>45.0</ele><time>2026-03-28T17:36:01Z</time></trkpt><trkpt lat="44.187819199400884" lon="12.037102470469556"><ele>45.0</ele><time>2026-03-28T17:36:02Z</time></trkpt><trkpt lat="44.18795788215028" lon="12.037287196124577"><ele>45.0</ele><time>2026-03-28T17:36:03Z</time></trkpt><trkpt lat="44.18808524100298" lon="12.037455474368828"><ele>45.0</ele><time>2026-03-28T17:36:04Z</time></trkpt><trkpt lat="44.18821852923097" lon="12.037631466167138"><ele>44.0</ele><time>2026-03-28T17:36:05Z</time></trkpt><trkpt lat="44.18835429211947" lon="12.037810734015972"><ele>43.0</ele><time>2026-03-28T17:36:06Z</time></trkpt><trkpt lat="44.1885059603753" lon="12.037983240096585"><ele>42.0</ele><time>2026-03-28T17:36:07Z</time></trkpt><trkpt lat="44.18864493808372" lon="12.038165906434436"><ele>42.0</ele><time>2026-03-28T17:36:08Z</time></trkpt><trkpt lat="44.188772189589976" lon="12.038362445503317"><ele>42.0</ele><time>2026-03-28T17:36:09Z</time></trkpt><trkpt lat="44.18890387881094" lon="12.03853612255357"><ele>42.0</ele><time>2026-03-28T17:36:10Z</time></trkpt><trkpt lat="44.1890449133341" lon="12.038692541191633"><ele>42.0</ele><time>2026-03-28T17:36:11Z</time></trkpt><trkpt lat="44.18917343454921" lon="12.038868565441838"><ele>42.0</ele><time>2026-03-28T17:36:12Z</time></trkpt><trkpt lat="44.189300167350844" lon="12.039035470237897"><ele>42.0</ele><time>2026-03-28T17:36:13Z</time></trkpt><trkpt lat="44.18942448957867" lon="12.039195673257874"><ele>42.0</ele><time>2026-03-28T17:36:14Z</time></trkpt><trkpt lat="44.1895468983132" lon="12.039355294402894"><ele>42.0</ele><time>2026-03-28T17:36:15Z</time></trkpt><trkpt lat="44.18966875647001" lon="12.039511568859796"><ele>42.0</ele><time>2026-03-28T17:36:16Z</time></trkpt><trkpt lat="44.18979517899424" lon="12.03965915217257"><ele>42.0</ele><time>2026-03-28T17:36:17Z</time></trkpt><trkpt lat="44.18992493113733" lon="12.039802435720073"><ele>42.0</ele><time>2026-03-28T17:36:18Z</time></trkpt><trkpt lat="44.19006043568565" lon="12.039933463412682"><ele>42.0</ele><time>2026-03-28T17:36:19Z</time></trkpt><trkpt lat="44.19019979136191" lon="12.040060693536603"><ele>42.0</ele><time>2026-03-28T17:36:20Z</time></trkpt><trkpt lat="44.190334038313694" lon="12.040171676064352"><ele>42.0</ele><time>2026-03-28T17:36:21Z</time></trkpt><trkpt lat="44.190460648523526" lon="12.040278466273369"><ele>42.0</ele><time>2026-03-28T17:36:22Z</time></trkpt><trkpt lat="44.19057994827834" lon="12.040368577248087"><ele>42.0</ele><time>2026-03-28T17:36:23Z</time></trkpt><trkpt lat="44.19068967937196" lon="12.040477035626607"><ele>42.0</ele><time>2026-03-28T17:36:24Z</time></trkpt><trkpt lat="44.19080209516547" lon="12.04056133373899"><ele>42.0</ele><time>2026-03-28T17:36:25Z</time></trkpt><trkpt lat="44.19089845643779" lon="12.040633592886993"><ele>42.0</ele><time>2026-03-28T17:36:26Z</time></trkpt><trkpt lat="44.19097690974335" lon="12.040679756052349"><ele>42.0</ele><time>2026-03-28T17:36:27Z</time></trkpt><trkpt lat="44.19103571826237" lon="12.040723867235537"><ele>42.0</ele><time>2026-03-28T17:36:28Z</time></trkpt><trkpt lat="44.19105085070938" lon="12.040815918202846"><ele>41.666666666666664</ele><time>2026-03-28T17:36:30Z</time></trkpt><trkpt lat="44.19099547935894" lon="12.040919079581482"><ele>41.333333333333336</ele><time>2026-03-28T17:36:33Z</time></trkpt><trkpt lat="44.190967231704974" lon="12.040999340131801"><ele>41.0</ele><time>2026-03-28T17:37:17Z</time></trkpt><trkpt lat="44.190925087215945" lon="12.04108511496869"><ele>40.66666666666667</ele><time>2026-03-28T17:53:59Z</time></trkpt><trkpt lat="44.190899908444756" lon="12.041196920008213"><ele>40.333333333333336</ele><time>2026-03-28T17:54:01Z</time></trkpt><trkpt lat="44.190854442263436" lon="12.041285270775626"><ele>40.0</ele><time>2026-03-28T17:54:03Z</time></trkpt><trkpt lat="44.19094770429695" lon="12.041170349828247"><ele>40.0</ele><time>2026-03-28T17:54:08Z</time></trkpt><trkpt lat="44.19097807879546" lon="12.041002657207725"><ele>40.0</ele><time>2026-03-28T17:54:10Z</time></trkpt><trkpt lat="44.19103526034805" lon="12.040866912650454"><ele>40.0</ele><time>2026-03-28T17:54:12Z</time></trkpt><trkpt lat="44.19108996974361" lon="12.040807794911082"><ele>40.0</ele><time>2026-03-28T17:54:14Z</time></trkpt><trkpt lat="44.19115489403528" lon="12.04082253505641"><ele>40.0</ele><time>2026-03-28T17:54:16Z</time></trkpt><trkpt lat="44.19123919703567" lon="12.040866423598946"><ele>40.0</ele><time>2026-03-28T17:54:17Z</time></trkpt><trkpt lat="44.19133653866969" lon="12.040947838858942"><ele>40.0</ele><time>2026-03-28T17:54:18Z</time></trkpt><trkpt lat="44.191450592986946" lon="12.041042971754079"><ele>40.0</ele><time>2026-03-28T17:54:19Z</time></trkpt><trkpt lat="44.19156958522234" lon="12.04113344660863"><ele>40.0</ele><time>2026-03-28T17:54:20Z</time></trkpt><trkpt lat="44.19169132155274" lon="12.041227757387928"><ele>39.66666666666667</ele><time>2026-03-28T17:54:21Z</time></trkpt><trkpt lat="44.19182016548383" lon="12.041323136957871"><ele>39.333333333333336</ele><time>2026-03-28T17:54:22Z</time></trkpt><trkpt lat="44.19195327072402" lon="12.041428854921516"><ele>39.0</ele><time>2026-03-28T17:54:23Z</time></trkpt><trkpt lat="44.19208629110524" lon="12.041535482519263"><ele>39.0</ele><time>2026-03-28T17:54:24Z</time></trkpt><trkpt lat="44.19221926559066" lon="12.041642645100167"><ele>39.0</ele><time>2026-03-28T17:54:25Z</time></trkpt><trkpt lat="44.19234924725332" lon="12.041736226551224"><ele>39.0</ele><time>2026-03-28T17:54:26Z</time></trkpt><trkpt lat="44.19247004416213" lon="12.041824288823532"><ele>39.0</ele><time>2026-03-28T17:54:27Z</time></trkpt><trkpt lat="44.19256663501881" lon="12.041902402458303"><ele>38.8</ele><time>2026-03-28T17:54:28Z</time></trkpt><trkpt lat="44.192643160111366" lon="12.041991648716904"><ele>38.599999999999994</ele><time>2026-03-28T17:54:29Z</time></trkpt><trkpt lat="44.19269385157093" lon="12.042096695814257"><ele>38.4</ele><time>2026-03-28T17:54:30Z</time></trkpt><trkpt lat="44.19273185612716" lon="12.042237738127245"><ele>38.199999999999996</ele><time>2026-03-28T17:54:31Z</time></trkpt><trkpt lat="44.192757034720024" lon="12.04236809051613"><ele>38.0</ele><time>2026-03-28T17:54:32Z</time></trkpt><trkpt lat="44.19280240046839" lon="12.042462954294317"><ele>38.0</ele><time>2026-03-28T17:54:33Z</time></trkpt><trkpt lat="44.19287076173446" lon="12.042520427917726"><ele>38.0</ele><time>2026-03-28T17:54:34Z</time></trkpt><trkpt lat="44.192958615715334" lon="12.042532468826833"><ele>38.0</ele><time>2026-03-28T17:54:35Z</time></trkpt><trkpt lat="44.193053540117425" lon="12.042507168854659"><ele>38.0</ele><time>2026-03-28T17:54:36Z</time></trkpt><trkpt lat="44.193155344999006" lon="12.042460867278551"><ele>38.0</ele><time>2026-03-28T17:54:37Z</time></trkpt><trkpt lat="44.193253343295616" lon="12.042450143186441"><ele>37.75</ele><time>2026-03-28T17:54:38Z</time></trkpt><trkpt lat="44.19336528873609" lon="12.042459722209614"><ele>37.5</ele><time>2026-03-28T17:54:39Z</time></trkpt><trkpt lat="44.193469001619135" lon="12.042613012323203"><ele>37.25</ele><time>2026-03-28T17:54:40Z</time></trkpt><trkpt lat="44.19359533995266" lon="12.042698769541138"><ele>37.0</ele><time>2026-03-28T17:54:41Z</time></trkpt><trkpt lat="44.19370130291199" lon="12.042780426281569"><ele>37.0</ele><time>2026-03-28T17:54:42Z</time></trkpt><trkpt lat="44.193799964353666" lon="12.042826019993178"><ele>37.0</ele><time>2026-03-28T17:54:43Z</time></trkpt><trkpt lat="44.19389929284304" lon="12.04283036696537"><ele>37.0</ele><time>2026-03-28T17:54:44Z</time></trkpt><trkpt lat="44.19401179672834" lon="12.042799040809188"><ele>37.0</ele><time>2026-03-28T17:54:45Z</time></trkpt><trkpt lat="44.19411875385894" lon="12.042725668939338"><ele>37.0</ele><time>2026-03-28T17:54:46Z</time></trkpt><trkpt lat="44.194207279216535" lon="12.042614570579191"><ele>36.66666666666667</ele><time>2026-03-28T17:54:47Z</time></trkpt><trkpt lat="44.19429495630022" lon="12.0424556175674"><ele>36.333333333333336</ele><time>2026-03-28T17:54:48Z</time></trkpt><trkpt lat="44.19438984333553" lon="12.042272154570517"><ele>36.0</ele><time>2026-03-28T17:54:49Z</time></trkpt><trkpt lat="44.19448276910225" lon="12.042085598325128"><ele>36.0</ele><time>2026-03-28T17:54:50Z</time></trkpt><trkpt lat="44.194571066610216" lon="12.041893506518578"><ele>36.0</ele><time>2026-03-28T17:54:51Z</time></trkpt><trkpt lat="44.1946557252115" lon="12.041687910462215"><ele>36.0</ele><time>2026-03-28T17:54:52Z</time></trkpt><trkpt lat="44.19473065440533" lon="12.041487462262028"><ele>36.0</ele><time>2026-03-28T17:54:53Z</time></trkpt><trkpt lat="44.19480798344199" lon="12.041291630075834"><ele>36.0</ele><time>2026-03-28T17:54:54Z</time></trkpt><trkpt lat="44.194876643319326" lon="12.041119957745384"><ele>36.0</ele><time>2026-03-28T17:54:55Z</time></trkpt><trkpt lat="44.19492977530498" lon="12.040985858096953"><ele>36.0</ele><time>2026-03-28T17:54:56Z</time></trkpt><trkpt lat="44.19498482246635" lon="12.04088499588273"><ele>36.0</ele><time>2026-03-28T17:54:57Z</time></trkpt><trkpt lat="44.19505049905446" lon="12.040817700973712"><ele>36.0</ele><time>2026-03-28T17:54:58Z</time></trkpt><trkpt lat="44.19514251430396" lon="12.040784836721418"><ele>36.0</ele><time>2026-03-28T17:54:59Z</time></trkpt><trkpt lat="44.19524699654622" lon="12.040782138003577"><ele>36.0</ele><time>2026-03-28T17:55:00Z</time></trkpt><trkpt lat="44.195347979777345" lon="12.040820095315691"><ele>36.0</ele><time>2026-03-28T17:55:01Z</time></trkpt><trkpt lat="44.19544670348927" lon="12.04092599503315"><ele>36.0</ele><time>2026-03-28T17:55:02Z</time></trkpt><trkpt lat="44.19557383877175" lon="12.041012422565581"><ele>36.0</ele><time>2026-03-28T17:55:03Z</time></trkpt><trkpt lat="44.19568499329549" lon="12.041109226274552"><ele>36.0</ele><time>2026-03-28T17:55:04Z</time></trkpt><trkpt lat="44.19580206193393" lon="12.041203654010479"><ele>36.0</ele><time>2026-03-28T17:55:05Z</time></trkpt><trkpt lat="44.19592345242224" lon="12.041305170912288"><ele>36.0</ele><time>2026-03-28T17:55:06Z</time></trkpt><trkpt lat="44.19604537265695" lon="12.041409364073933"><ele>36.0</ele><time>2026-03-28T17:55:07Z</time></trkpt><trkpt lat="44.196170225977966" lon="12.041510971714633"><ele>36.0</ele><time>2026-03-28T17:55:08Z</time></trkpt><trkpt lat="44.1962930036" lon="12.041609934412431"><ele>36.0</ele><time>2026-03-28T17:55:09Z</time></trkpt><trkpt lat="44.19641815748993" lon="12.041707375410455"><ele>36.666666666666664</ele><time>2026-03-28T17:55:10Z</time></trkpt><trkpt lat="44.196551191751446" lon="12.041833733093362"><ele>37.33333333333333</ele><time>2026-03-28T17:55:11Z</time></trkpt><trkpt lat="44.19669309564502" lon="12.041951389207357"><ele>38.0</ele><time>2026-03-28T17:55:12Z</time></trkpt><trkpt lat="44.19684662467049" lon="12.04205406386259"><ele>38.0</ele><time>2026-03-28T17:55:13Z</time></trkpt><trkpt lat="44.19699218730342" lon="12.042179205057563"><ele>38.0</ele><time>2026-03-28T17:55:14Z</time></trkpt><trkpt lat="44.197136973078514" lon="12.042296084193131"><ele>38.0</ele><time>2026-03-28T17:55:15Z</time></trkpt><trkpt lat="44.19727692088436" lon="12.042412663858853"><ele>37.25</ele><time>2026-03-28T17:55:16Z</time></trkpt><trkpt lat="44.19739737062443" lon="12.04252624785705"><ele>36.5</ele><time>2026-03-28T17:55:17Z</time></trkpt><trkpt lat="44.19752195553108" lon="12.042618408093864"><ele>35.75</ele><time>2026-03-28T17:55:18Z</time></trkpt><trkpt lat="44.19763707587003" lon="12.04270627318664"><ele>35.0</ele><time>2026-03-28T17:55:19Z</time></trkpt><trkpt lat="44.197738600849334" lon="12.042814544292984"><ele>35.0</ele><time>2026-03-28T17:55:20Z</time></trkpt><trkpt lat="44.197846945581944" lon="12.042903570199915"><ele>35.0</ele><time>2026-03-28T17:55:21Z</time></trkpt><trkpt lat="44.19796060326957" lon="12.042971744468396"><ele>35.0</ele><time>2026-03-28T17:55:22Z</time></trkpt><trkpt lat="44.198078004053286" lon="12.043070491764642"><ele>35.0</ele><time>2026-03-28T17:55:23Z</time></trkpt><trkpt lat="44.19819036666957" lon="12.04318007050645"><ele>35.0</ele><time>2026-03-28T17:55:24Z</time></trkpt><trkpt lat="44.19829398459729" lon="12.043262868142847"><ele>35.0</ele><time>2026-03-28T17:55:25Z</time></trkpt><trkpt lat="44.19840228731942" lon="12.043334722951546"><ele>35.0</ele><time>2026-03-28T17:55:26Z</time></trkpt><trkpt lat="44.19851556048974" lon="12.043419815431468"><ele>35.0</ele><time>2026-03-28T17:55:27Z</time></trkpt><trkpt lat="44.19861676632874" lon="12.043499793796585"><ele>35.0</ele><time>2026-03-28T17:55:28Z</time></trkpt><trkpt lat="44.19872006025537" lon="12.043582486668953"><ele>35.0</ele><time>2026-03-28T17:55:29Z</time></trkpt><trkpt lat="44.19883119744553" lon="12.043666658199715"><ele>35.0</ele><time>2026-03-28T17:55:30Z</time></trkpt><trkpt lat="44.19894990566937" lon="12.043749115600665"><ele>35.0</ele><time>2026-03-28T17:55:31Z</time></trkpt><trkpt lat="44.19908301834014" lon="12.043834739825968"><ele>35.0</ele><time>2026-03-28T17:55:32Z</time></trkpt><trkpt lat="44.19923035972362" lon="12.043947534097164"><ele>35.0</ele><time>2026-03-28T17:55:33Z</time></trkpt><trkpt lat="44.199389439535" lon="12.044067262227156"><ele>35.0</ele><time>2026-03-28T17:55:34Z</time></trkpt><trkpt lat="44.19952742746043" lon="12.04418496634423"><ele>35.0</ele><time>2026-03-28T17:55:35Z</time></trkpt><trkpt lat="44.199655790991144" lon="12.04428377359342"><ele>35.0</ele><time>2026-03-28T17:55:36Z</time></trkpt><trkpt lat="44.19978260343789" lon="12.04436740177648"><ele>35.0</ele><time>2026-03-28T17:55:37Z</time></trkpt><trkpt lat="44.199919153425874" lon="12.044446903427636"><ele>35.0</ele><time>2026-03-28T17:55:38Z</time></trkpt><trkpt lat="44.20006340969841" lon="12.044521550048819"><ele>35.0</ele><time>2026-03-28T17:55:39Z</time></trkpt><trkpt lat="44.200196118753865" lon="12.044626953939183"><ele>35.0</ele><time>2026-03-28T17:55:40Z</time></trkpt><trkpt lat="44.20031759466819" lon="12.044722953499427"><ele>35.0</ele><time>2026-03-28T17:55:41Z</time></trkpt><trkpt lat="44.20043239565058" lon="12.0448134257015"><ele>35.0</ele><time>2026-03-28T17:55:42Z</time></trkpt><trkpt lat="44.20055167470685" lon="12.044881852191587"><ele>34.75</ele><time>2026-03-28T17:55:43Z</time></trkpt><trkpt lat="44.20066338513155" lon="12.044983080416376"><ele>34.5</ele><time>2026-03-28T17:55:44Z</time></trkpt><trkpt lat="44.20078034871274" lon="12.045091316060514"><ele>34.25</ele><time>2026-03-28T17:55:45Z</time></trkpt><trkpt lat="44.200904616422264" lon="12.045184741059193"><ele>34.0</ele><time>2026-03-28T17:55:46Z</time></trkpt><trkpt lat="44.20102419510471" lon="12.045268602582215"><ele>33.66666666666667</ele><time>2026-03-28T17:55:47Z</time></trkpt><trkpt lat="44.201147115842815" lon="12.045349570609991"><ele>33.333333333333336</ele><time>2026-03-28T17:55:48Z</time></trkpt><trkpt lat="44.20128472524382" lon="12.045451180556562"><ele>33.0</ele><time>2026-03-28T17:55:49Z</time></trkpt><trkpt lat="44.2014250307835" lon="12.045560007915208"><ele>33.333333333333336</ele><time>2026-03-28T17:55:50Z</time></trkpt><trkpt lat="44.20156025239114" lon="12.045671962780753"><ele>33.66666666666667</ele><time>2026-03-28T17:55:51Z</time></trkpt><trkpt lat="44.20168769515991" lon="12.045804299530277"><ele>34.0</ele><time>2026-03-28T17:55:52Z</time></trkpt><trkpt lat="44.20181801847826" lon="12.045907251705328"><ele>34.0</ele><time>2026-03-28T17:55:53Z</time></trkpt><trkpt lat="44.201940076514965" lon="12.046003687759272"><ele>34.0</ele><time>2026-03-28T17:55:54Z</time></trkpt><trkpt lat="44.202062108126995" lon="12.046099497894307"><ele>34.0</ele><time>2026-03-28T17:55:55Z</time></trkpt><trkpt lat="44.20217394181534" lon="12.046187308500958"><ele>34.0</ele><time>2026-03-28T17:55:56Z</time></trkpt><trkpt lat="44.20228890580014" lon="12.046277576911352"><ele>33.5</ele><time>2026-03-28T17:55:57Z</time></trkpt><trkpt lat="44.20241139298276" lon="12.046373085662845"><ele>33.0</ele><time>2026-03-28T17:55:58Z</time></trkpt><trkpt lat="44.20252522893777" lon="12.046445240127667"><ele>32.5</ele><time>2026-03-28T17:55:59Z</time></trkpt><trkpt lat="44.2026301735811" lon="12.046528700798806"><ele>32.0</ele><time>2026-03-28T17:56:00Z</time></trkpt><trkpt lat="44.20273498036402" lon="12.04661089123758"><ele>31.8</ele><time>2026-03-28T17:56:01Z</time></trkpt><trkpt lat="44.202836648613214" lon="12.046690072377444"><ele>31.6</ele><time>2026-03-28T17:56:02Z</time></trkpt><trkpt lat="44.20292843497273" lon="12.04676365518675"><ele>31.400000000000002</ele><time>2026-03-28T17:56:03Z</time></trkpt><trkpt lat="44.203018692967476" lon="12.04682886519063"><ele>31.200000000000003</ele><time>2026-03-28T17:56:04Z</time></trkpt><trkpt lat="44.20309688140859" lon="12.046890023341419"><ele>31.0</ele><time>2026-03-28T17:56:05Z</time></trkpt><trkpt lat="44.20318010159088" lon="12.04695571748212"><ele>31.4</ele><time>2026-03-28T17:56:06Z</time></trkpt><trkpt lat="44.203263498909436" lon="12.047013283944088"><ele>31.8</ele><time>2026-03-28T17:56:07Z</time></trkpt><trkpt lat="44.203324159826224" lon="12.047076117056722"><ele>32.199999999999996</ele><time>2026-03-28T17:56:08Z</time></trkpt><trkpt lat="44.20339024385236" lon="12.047126950991794"><ele>32.6</ele><time>2026-03-28T17:56:09Z</time></trkpt><trkpt lat="44.20348697822625" lon="12.047205968305288"><ele>33.0</ele><time>2026-03-28T17:56:11Z</time></trkpt><trkpt lat="44.20358753109995" lon="12.047279398517182"><ele>33.0</ele><time>2026-03-28T17:56:13Z</time></trkpt><trkpt lat="44.20364977480092" lon="12.047332274075757"><ele>33.0</ele><time>2026-03-28T17:56:14Z</time></trkpt><trkpt lat="44.203731902992594" lon="12.047455042365257"><ele>33.0</ele><time>2026-03-28T17:56:16Z</time></trkpt><trkpt lat="44.20375831403735" lon="12.047537254930337"><ele>33.0</ele><time>2026-03-28T17:56:17Z</time></trkpt><trkpt lat="44.20379816841795" lon="12.047606239570916"><ele>33.0</ele><time>2026-03-28T17:56:18Z</time></trkpt><trkpt lat="44.20386065835395" lon="12.047641478819816"><ele>33.0</ele><time>2026-03-28T17:56:19Z</time></trkpt><trkpt lat="44.20395372958738" lon="12.047645409746332"><ele>32.8</ele><time>2026-03-28T17:56:20Z</time></trkpt><trkpt lat="44.204054610025956" lon="12.04764737196466"><ele>32.599999999999994</ele><time>2026-03-28T17:56:21Z</time></trkpt><trkpt lat="44.20415698135149" lon="12.047676595932634"><ele>32.400000000000006</ele><time>2026-03-28T17:56:22Z</time></trkpt><trkpt lat="44.204262683827295" lon="12.047729210529559"><ele>32.2</ele><time>2026-03-28T17:56:23Z</time></trkpt><trkpt lat="44.20436304105533" lon="12.047829120051293"><ele>32.0</ele><time>2026-03-28T17:56:24Z</time></trkpt><trkpt lat="44.20446747405243" lon="12.047918567770159"><ele>32.0</ele><time>2026-03-28T17:56:25Z</time></trkpt><trkpt lat="44.20457981478055" lon="12.048001873866374"><ele>32.0</ele><time>2026-03-28T17:56:26Z</time></trkpt><trkpt lat="44.20469021499539" lon="12.04808717936318"><ele>32.0</ele><time>2026-03-28T17:56:27Z</time></trkpt><trkpt lat="44.204811409254376" lon="12.04818583445146"><ele>32.0</ele><time>2026-03-28T17:56:28Z</time></trkpt><trkpt lat="44.20493436196339" lon="12.048274999569589"><ele>31.666666666666664</ele><time>2026-03-28T17:56:29Z</time></trkpt><trkpt lat="44.20506310701182" lon="12.048365501877132"><ele>31.333333333333336</ele><time>2026-03-28T17:56:30Z</time></trkpt><trkpt lat="44.20520540384611" lon="12.048500918941857"><ele>31.0</ele><time>2026-03-28T17:56:31Z</time></trkpt><trkpt lat="44.20536943390587" lon="12.048626887265787"><ele>31.0</ele><time>2026-03-28T17:56:32Z</time></trkpt><trkpt lat="44.20552524257281" lon="12.048745852726274"><ele>31.0</ele><time>2026-03-28T17:56:33Z</time></trkpt><trkpt lat="44.20567788957953" lon="12.04884670130242"><ele>31.0</ele><time>2026-03-28T17:56:34Z</time></trkpt><trkpt lat="44.20582189045784" lon="12.048955035836157"><ele>31.333333333333336</ele><time>2026-03-28T17:56:35Z</time></trkpt><trkpt lat="44.20596779515212" lon="12.049067553599587"><ele>31.666666666666664</ele><time>2026-03-28T17:56:36Z</time></trkpt><trkpt lat="44.20610786683819" lon="12.04917820480595"><ele>32.0</ele><time>2026-03-28T17:56:37Z</time></trkpt><trkpt lat="44.20624395946196" lon="12.049285981667236"><ele>32.0</ele><time>2026-03-28T17:56:38Z</time></trkpt><trkpt lat="44.20638055252742" lon="12.049401485283278"><ele>32.0</ele><time>2026-03-28T17:56:39Z</time></trkpt><trkpt lat="44.20652049004899" lon="12.04950164926146"><ele>32.0</ele><time>2026-03-28T17:56:40Z</time></trkpt><trkpt lat="44.20665734617649" lon="12.049603510108145"><ele>31.333333333333332</ele><time>2026-03-28T17:56:41Z</time></trkpt><trkpt lat="44.20678889712855" lon="12.049709263817817"><ele>30.666666666666664</ele><time>2026-03-28T17:56:42Z</time></trkpt><trkpt lat="44.20692759133233" lon="12.049811505349908"><ele>30.0</ele><time>2026-03-28T17:56:43Z</time></trkpt><trkpt lat="44.20706952269652" lon="12.049915093446979"><ele>29.333333333333336</ele><time>2026-03-28T17:56:44Z</time></trkpt><trkpt lat="44.20721142632968" lon="12.050035727354095"><ele>28.666666666666668</ele><time>2026-03-28T17:56:45Z</time></trkpt><trkpt lat="44.207359209338065" lon="12.050143234594838"><ele>28.0</ele><time>2026-03-28T17:56:46Z</time></trkpt><trkpt lat="44.20750147393058" lon="12.050251753103804"><ele>28.0</ele><time>2026-03-28T17:56:47Z</time></trkpt><trkpt lat="44.207636476124605" lon="12.050361662293653"><ele>28.0</ele><time>2026-03-28T17:56:48Z</time></trkpt><trkpt lat="44.2077708474249" lon="12.050470512735721"><ele>28.0</ele><time>2026-03-28T17:56:49Z</time></trkpt><trkpt lat="44.20791802666265" lon="12.05057988168347"><ele>28.0</ele><time>2026-03-28T17:56:50Z</time></trkpt><trkpt lat="44.208059459609196" lon="12.050686756728147"><ele>28.0</ele><time>2026-03-28T17:56:51Z</time></trkpt><trkpt lat="44.208192338253276" lon="12.050789935393547"><ele>28.0</ele><time>2026-03-28T17:56:52Z</time></trkpt><trkpt lat="44.2083137007439" lon="12.05088134442949"><ele>28.0</ele><time>2026-03-28T17:56:53Z</time></trkpt><trkpt lat="44.20842703107377" lon="12.050966115903165"><ele>27.999999999999996</ele><time>2026-03-28T17:56:54Z</time></trkpt><trkpt lat="44.2085226879892" lon="12.051048869463598"><ele>27.999999999999996</ele><time>2026-03-28T17:56:55Z</time></trkpt><trkpt lat="44.20860402038168" lon="12.051121272561845"><ele>28.0</ele><time>2026-03-28T17:56:56Z</time></trkpt><trkpt lat="44.20866684740034" lon="12.051174648734879"><ele>28.0</ele><time>2026-03-28T17:56:57Z</time></trkpt><trkpt lat="44.208736590855196" lon="12.051249415407721"><ele>28.0</ele><time>2026-03-28T17:56:59Z</time></trkpt></trkseg></trk></gpx>